<?xml version='1.0' encoding='UTF-8'?><gpx version="1.1" creator="JPX - https://github.com/jenetics/jpx" xmlns="http://www.topografix.com/GPX/1/1"><trk><trkseg><trkpt lat="46.1200783" lon="13.52419"><ele>155.0</ele><time>2026-05-03T06:50:30.605Z</time></trkpt><trkpt lat="46.12014" lon="13.52425"><ele>155.0</ele><time>2026-05-03T06:50:34.606Z</time></trkpt><trkpt lat="46.1201867" lon="13.524415"><ele>155.0</ele><time>2026-05-03T06:53:59.594Z</time></trkpt><trkpt lat="46.120185" lon="13.524515"><ele>155.0</ele><time>2026-05-03T06:54:00.594Z</time></trkpt><trkpt lat="46.1201917" lon="13.5246817"><ele>155.0</ele><time>2026-05-03T06:54:01.594Z</time></trkpt><trkpt lat="46.1202" lon="13.5248617"><ele>155.0</ele><time>2026-05-03T06:54:02.595Z</time></trkpt><trkpt lat="46.1202133" lon="13.52505"><ele>155.0</ele><time>2026-05-03T06:54:03.594Z</time></trkpt><trkpt lat="46.1202283" lon="13.5252433"><ele>155.0</ele><time>2026-05-03T06:54:04.594Z</time></trkpt><trkpt lat="46.1202483" lon="13.5254333"><ele>155.0</ele><time>2026-05-03T06:54:05.596Z</time></trkpt><trkpt lat="46.12027" lon="13.5256067"><ele>155.4</ele><time>2026-05-03T06:54:06.595Z</time></trkpt><trkpt lat="46.120295" lon="13.52576"><ele>155.8</ele><time>2026-05-03T06:54:07.595Z</time></trkpt><trkpt lat="46.1203317" lon="13.5259033"><ele>156.2</ele><time>2026-05-03T06:54:08.594Z</time></trkpt><trkpt lat="46.1203833" lon="13.5260367"><ele>156.6</ele><time>2026-05-03T06:54:09.594Z</time></trkpt><trkpt lat="46.1204417" lon="13.52616"><ele>157.0</ele><time>2026-05-03T06:54:10.594Z</time></trkpt><trkpt lat="46.1204883" lon="13.52628"><ele>157.8</ele><time>2026-05-03T06:54:11.596Z</time></trkpt><trkpt lat="46.12052" lon="13.5264033"><ele>158.6</ele><time>2026-05-03T06:54:12.594Z</time></trkpt><trkpt lat="46.1205283" lon="13.5265317"><ele>159.4</ele><time>2026-05-03T06:54:13.593Z</time></trkpt><trkpt lat="46.1205167" lon="13.526665"><ele>160.20000000000002</ele><time>2026-05-03T06:54:14.594Z</time></trkpt><trkpt lat="46.1204883" lon="13.5268133"><ele>161.0</ele><time>2026-05-03T06:54:15.596Z</time></trkpt><trkpt lat="46.120455" lon="13.5269683"><ele>161.0</ele><time>2026-05-03T06:54:16.594Z</time></trkpt><trkpt lat="46.1204167" lon="13.527125"><ele>161.0</ele><time>2026-05-03T06:54:17.594Z</time></trkpt><trkpt lat="46.1203833" lon="13.5272883"><ele>161.0</ele><time>2026-05-03T06:54:18.595Z</time></trkpt><trkpt lat="46.1203583" lon="13.5274517"><ele>161.0</ele><time>2026-05-03T06:54:19.597Z</time></trkpt><trkpt lat="46.1203417" lon="13.5276183"><ele>161.0</ele><time>2026-05-03T06:54:20.596Z</time></trkpt><trkpt lat="46.1203283" lon="13.5277867"><ele>161.0</ele><time>2026-05-03T06:54:21.595Z</time></trkpt><trkpt lat="46.1203233" lon="13.5279617"><ele>161.0</ele><time>2026-05-03T06:54:22.594Z</time></trkpt><trkpt lat="46.1203267" lon="13.5281317"><ele>161.0</ele><time>2026-05-03T06:54:23.594Z</time></trkpt><trkpt lat="46.1203383" lon="13.5282867"><ele>161.16666666666666</ele><time>2026-05-03T06:54:24.594Z</time></trkpt><trkpt lat="46.12035" lon="13.52842"><ele>161.33333333333331</ele><time>2026-05-03T06:54:25.595Z</time></trkpt><trkpt lat="46.12036" lon="13.528535"><ele>161.5</ele><time>2026-05-03T06:54:26.595Z</time></trkpt><trkpt lat="46.1203717" lon="13.5286483"><ele>161.66666666666666</ele><time>2026-05-03T06:54:27.595Z</time></trkpt><trkpt lat="46.1203867" lon="13.5287617"><ele>161.83333333333334</ele><time>2026-05-03T06:54:28.595Z</time></trkpt><trkpt lat="46.1203867" lon="13.5288717"><ele>162.0</ele><time>2026-05-03T06:54:29.595Z</time></trkpt><trkpt lat="46.1203683" lon="13.528965"><ele>162.2</ele><time>2026-05-03T06:54:30.595Z</time></trkpt><trkpt lat="46.1203183" lon="13.529055"><ele>162.39999999999998</ele><time>2026-05-03T06:54:31.596Z</time></trkpt><trkpt lat="46.120255" lon="13.529155"><ele>162.60000000000002</ele><time>2026-05-03T06:54:32.595Z</time></trkpt><trkpt lat="46.1201817" lon="13.5292817"><ele>162.8</ele><time>2026-05-03T06:54:33.594Z</time></trkpt><trkpt lat="46.12013" lon="13.52943"><ele>163.0</ele><time>2026-05-03T06:54:34.595Z</time></trkpt><trkpt lat="46.12009" lon="13.52959"><ele>163.0</ele><time>2026-05-03T06:54:35.594Z</time></trkpt><trkpt lat="46.120045" lon="13.5297433"><ele>163.0</ele><time>2026-05-03T06:54:36.594Z</time></trkpt><trkpt lat="46.1199817" lon="13.529875"><ele>163.0</ele><time>2026-05-03T06:54:37.595Z</time></trkpt><trkpt lat="46.1198967" lon="13.5299883"><ele>163.0</ele><time>2026-05-03T06:54:38.595Z</time></trkpt><trkpt lat="46.119795" lon="13.5300767"><ele>164.0</ele><time>2026-05-03T06:54:39.595Z</time></trkpt><trkpt lat="46.1196783" lon="13.5301283"><ele>165.0</ele><time>2026-05-03T06:54:40.594Z</time></trkpt><trkpt lat="46.1195617" lon="13.5301433"><ele>166.0</ele><time>2026-05-03T06:54:41.593Z</time></trkpt><trkpt lat="46.1194517" lon="13.5301433"><ele>167.0</ele><time>2026-05-03T06:54:42.594Z</time></trkpt><trkpt lat="46.119345" lon="13.53016"><ele>167.0</ele><time>2026-05-03T06:54:43.595Z</time></trkpt><trkpt lat="46.1192417" lon="13.5301917"><ele>167.0</ele><time>2026-05-03T06:54:44.595Z</time></trkpt><trkpt lat="46.1191483" lon="13.5302233"><ele>167.0</ele><time>2026-05-03T06:54:45.594Z</time></trkpt><trkpt lat="46.11907" lon="13.5302467"><ele>167.0</ele><time>2026-05-03T06:54:46.594Z</time></trkpt><trkpt lat="46.1189617" lon="13.53024"><ele>167.0</ele><time>2026-05-03T06:54:48.594Z</time></trkpt><trkpt lat="46.1189267" lon="13.53014"><ele>167.25</ele><time>2026-05-03T06:54:50.595Z</time></trkpt><trkpt lat="46.1189183" lon="13.5299367"><ele>167.5</ele><time>2026-05-03T06:54:52.595Z</time></trkpt><trkpt lat="46.11892" lon="13.529785"><ele>167.75</ele><time>2026-05-03T06:54:53.594Z</time></trkpt><trkpt lat="46.1189283" lon="13.5296"><ele>168.0</ele><time>2026-05-03T06:54:54.595Z</time></trkpt><trkpt lat="46.1189417" lon="13.529425"><ele>167.4</ele><time>2026-05-03T06:54:55.595Z</time></trkpt><trkpt lat="46.1189617" lon="13.52927"><ele>166.8</ele><time>2026-05-03T06:54:56.594Z</time></trkpt><trkpt lat="46.1189867" lon="13.5291183"><ele>166.2</ele><time>2026-05-03T06:54:57.595Z</time></trkpt><trkpt lat="46.1190083" lon="13.5289683"><ele>165.6</ele><time>2026-05-03T06:54:58.594Z</time></trkpt><trkpt lat="46.1190133" lon="13.5288167"><ele>165.0</ele><time>2026-05-03T06:54:59.595Z</time></trkpt><trkpt lat="46.1190017" lon="13.5286483"><ele>164.25</ele><time>2026-05-03T06:55:00.594Z</time></trkpt><trkpt lat="46.1189783" lon="13.5284533"><ele>163.5</ele><time>2026-05-03T06:55:01.594Z</time></trkpt><trkpt lat="46.11895" lon="13.528245"><ele>162.75</ele><time>2026-05-03T06:55:02.594Z</time></trkpt><trkpt lat="46.1189233" lon="13.52804"><ele>162.0</ele><time>2026-05-03T06:55:03.594Z</time></trkpt><trkpt lat="46.1188917" lon="13.5278467"><ele>161.25</ele><time>2026-05-03T06:55:04.595Z</time></trkpt><trkpt lat="46.118855" lon="13.5276667"><ele>160.5</ele><time>2026-05-03T06:55:05.595Z</time></trkpt><trkpt lat="46.118815" lon="13.5275067"><ele>159.75</ele><time>2026-05-03T06:55:06.594Z</time></trkpt><trkpt lat="46.1187667" lon="13.527375"><ele>159.0</ele><time>2026-05-03T06:55:07.595Z</time></trkpt><trkpt lat="46.118705" lon="13.5272617"><ele>159.0</ele><time>2026-05-03T06:55:08.596Z</time></trkpt><trkpt lat="46.1186333" lon="13.527145"><ele>159.0</ele><time>2026-05-03T06:55:09.594Z</time></trkpt><trkpt lat="46.11855" lon="13.52701"><ele>159.0</ele><time>2026-05-03T06:55:10.595Z</time></trkpt><trkpt lat="46.11846" lon="13.5268583"><ele>159.0</ele><time>2026-05-03T06:55:11.595Z</time></trkpt><trkpt lat="46.118365" lon="13.5266917"><ele>158.75</ele><time>2026-05-03T06:55:12.594Z</time></trkpt><trkpt lat="46.1182733" lon="13.5265283"><ele>158.5</ele><time>2026-05-03T06:55:13.594Z</time></trkpt><trkpt lat="46.1181883" lon="13.5263783"><ele>158.25</ele><time>2026-05-03T06:55:14.595Z</time></trkpt><trkpt lat="46.1181067" lon="13.5262317"><ele>158.0</ele><time>2026-05-03T06:55:15.595Z</time></trkpt><trkpt lat="46.1180233" lon="13.5260817"><ele>158.75</ele><time>2026-05-03T06:55:16.594Z</time></trkpt><trkpt lat="46.1179417" lon="13.52592"><ele>159.5</ele><time>2026-05-03T06:55:17.594Z</time></trkpt><trkpt lat="46.1178633" lon="13.5257533"><ele>160.25</ele><time>2026-05-03T06:55:18.593Z</time></trkpt><trkpt lat="46.11779" lon="13.5255683"><ele>161.0</ele><time>2026-05-03T06:55:19.594Z</time></trkpt><trkpt lat="46.1177183" lon="13.52538"><ele>161.0</ele><time>2026-05-03T06:55:20.593Z</time></trkpt><trkpt lat="46.1176517" lon="13.5252"><ele>161.0</ele><time>2026-05-03T06:55:21.594Z</time></trkpt><trkpt lat="46.1175867" lon="13.52502"><ele>161.0</ele><time>2026-05-03T06:55:22.593Z</time></trkpt><trkpt lat="46.11752" lon="13.5248333"><ele>161.0</ele><time>2026-05-03T06:55:23.595Z</time></trkpt><trkpt lat="46.1174533" lon="13.524645"><ele>159.25</ele><time>2026-05-03T06:55:24.594Z</time></trkpt><trkpt lat="46.1173917" lon="13.5244533"><ele>157.5</ele><time>2026-05-03T06:55:25.593Z</time></trkpt><trkpt lat="46.1173217" lon="13.5242717"><ele>155.75</ele><time>2026-05-03T06:55:26.593Z</time></trkpt><trkpt lat="46.11722" lon="13.524105"><ele>154.0</ele><time>2026-05-03T06:55:27.593Z</time></trkpt><trkpt lat="46.1170967" lon="13.5239433"><ele>154.0</ele><time>2026-05-03T06:55:28.593Z</time></trkpt><trkpt lat="46.1169733" lon="13.5237683"><ele>154.0</ele><time>2026-05-03T06:55:29.593Z</time></trkpt><trkpt lat="46.116865" lon="13.5235733"><ele>154.0</ele><time>2026-05-03T06:55:30.594Z</time></trkpt><trkpt lat="46.116775" lon="13.5233517"><ele>153.33333333333334</ele><time>2026-05-03T06:55:31.594Z</time></trkpt><trkpt lat="46.1166883" lon="13.5231367"><ele>152.66666666666666</ele><time>2026-05-03T06:55:32.595Z</time></trkpt><trkpt lat="46.1166083" lon="13.522945"><ele>152.0</ele><time>2026-05-03T06:55:33.593Z</time></trkpt><trkpt lat="46.11654" lon="13.5227567"><ele>151.79999999999998</ele><time>2026-05-03T06:55:34.594Z</time></trkpt><trkpt lat="46.1164883" lon="13.5225817"><ele>151.6</ele><time>2026-05-03T06:55:35.593Z</time></trkpt><trkpt lat="46.1164517" lon="13.5224217"><ele>151.39999999999998</ele><time>2026-05-03T06:55:36.593Z</time></trkpt><trkpt lat="46.1164267" lon="13.5222917"><ele>151.2</ele><time>2026-05-03T06:55:37.594Z</time></trkpt><trkpt lat="46.1164233" lon="13.52218"><ele>151.0</ele><time>2026-05-03T06:55:38.594Z</time></trkpt><trkpt lat="46.1164383" lon="13.5220867"><ele>151.0</ele><time>2026-05-03T06:55:39.594Z</time></trkpt><trkpt lat="46.1164683" lon="13.522"><ele>151.0</ele><time>2026-05-03T06:55:40.595Z</time></trkpt><trkpt lat="46.1165483" lon="13.521935"><ele>151.0</ele><time>2026-05-03T06:55:41.593Z</time></trkpt><trkpt lat="46.116615" lon="13.521855"><ele>151.0</ele><time>2026-05-03T06:55:42.593Z</time></trkpt><trkpt lat="46.116705" lon="13.5217783"><ele>151.0</ele><time>2026-05-03T06:55:43.593Z</time></trkpt><trkpt lat="46.11681" lon="13.5217633"><ele>151.16666666666669</ele><time>2026-05-03T06:55:44.595Z</time></trkpt><trkpt lat="46.1168833" lon="13.5217483"><ele>151.33333333333334</ele><time>2026-05-03T06:55:45.594Z</time></trkpt><trkpt lat="46.1169567" lon="13.5217467"><ele>151.5</ele><time>2026-05-03T06:55:47.594Z</time></trkpt><trkpt lat="46.1169267" lon="13.5216517"><ele>151.66666666666666</ele><time>2026-05-03T06:56:10.593Z</time></trkpt><trkpt lat="46.1169083" lon="13.5215267"><ele>151.83333333333331</ele><time>2026-05-03T06:56:12.594Z</time></trkpt><trkpt lat="46.1169483" lon="13.5213817"><ele>152.0</ele><time>2026-05-03T06:56:14.594Z</time></trkpt><trkpt lat="46.1169933" lon="13.5212983"><ele>152.16666666666666</ele><time>2026-05-03T06:56:15.595Z</time></trkpt><trkpt lat="46.117045" lon="13.5212083"><ele>152.33333333333331</ele><time>2026-05-03T06:56:16.593Z</time></trkpt><trkpt lat="46.117105" lon="13.5211067"><ele>152.5</ele><time>2026-05-03T06:56:17.594Z</time></trkpt><trkpt lat="46.11716" lon="13.5210017"><ele>152.66666666666666</ele><time>2026-05-03T06:56:18.596Z</time></trkpt><trkpt lat="46.1172167" lon="13.5209117"><ele>152.83333333333334</ele><time>2026-05-03T06:56:19.593Z</time></trkpt><trkpt lat="46.1172717" lon="13.5208417"><ele>153.0</ele><time>2026-05-03T06:56:20.594Z</time></trkpt><trkpt lat="46.1173283" lon="13.52079"><ele>153.0</ele><time>2026-05-03T06:56:21.593Z</time></trkpt><trkpt lat="46.1173967" lon="13.5207633"><ele>153.0</ele><time>2026-05-03T06:56:22.594Z</time></trkpt><trkpt lat="46.1174733" lon="13.5207533"><ele>153.0</ele><time>2026-05-03T06:56:23.594Z</time></trkpt><trkpt lat="46.1175433" lon="13.520745"><ele>153.0</ele><time>2026-05-03T06:56:24.593Z</time></trkpt><trkpt lat="46.1176333" lon="13.520705"><ele>153.0</ele><time>2026-05-03T06:56:26.594Z</time></trkpt><trkpt lat="46.1176283" lon="13.5205817"><ele>153.0</ele><time>2026-05-03T06:56:29.595Z</time></trkpt><trkpt lat="46.1175483" lon="13.52047"><ele>152.83333333333334</ele><time>2026-05-03T06:56:31.595Z</time></trkpt><trkpt lat="46.1174983" lon="13.52038"><ele>152.66666666666666</ele><time>2026-05-03T06:56:32.594Z</time></trkpt><trkpt lat="46.1174533" lon="13.5202683"><ele>152.5</ele><time>2026-05-03T06:56:33.594Z</time></trkpt><trkpt lat="46.1174217" lon="13.52015"><ele>152.33333333333331</ele><time>2026-05-03T06:56:34.596Z</time></trkpt><trkpt lat="46.11739" lon="13.5200317"><ele>152.16666666666666</ele><time>2026-05-03T06:56:35.595Z</time></trkpt><trkpt lat="46.117355" lon="13.5199133"><ele>152.0</ele><time>2026-05-03T06:56:36.595Z</time></trkpt><trkpt lat="46.1173183" lon="13.5198017"><ele>152.0</ele><time>2026-05-03T06:56:37.596Z</time></trkpt><trkpt lat="46.1172767" lon="13.5197133"><ele>152.0</ele><time>2026-05-03T06:56:38.596Z</time></trkpt><trkpt lat="46.11718" lon="13.5195883"><ele>152.0</ele><time>2026-05-03T06:56:40.594Z</time></trkpt><trkpt lat="46.117115" lon="13.51952"><ele>152.0</ele><time>2026-05-03T06:56:41.596Z</time></trkpt><trkpt lat="46.1170417" lon="13.5194433"><ele>152.0</ele><time>2026-05-03T06:56:42.594Z</time></trkpt><trkpt lat="46.11696" lon="13.519355"><ele>152.4</ele><time>2026-05-03T06:56:43.596Z</time></trkpt><trkpt lat="46.116875" lon="13.5192717"><ele>152.79999999999998</ele><time>2026-05-03T06:56:44.594Z</time></trkpt><trkpt lat="46.1168017" lon="13.5192083"><ele>153.2</ele><time>2026-05-03T06:56:45.594Z</time></trkpt><trkpt lat="46.1167283" lon="13.5191433"><ele>153.6</ele><time>2026-05-03T06:56:46.594Z</time></trkpt><trkpt lat="46.1166467" lon="13.5190733"><ele>154.0</ele><time>2026-05-03T06:56:47.593Z</time></trkpt><trkpt lat="46.1165717" lon="13.5190067"><ele>153.4</ele><time>2026-05-03T06:56:48.594Z</time></trkpt><trkpt lat="46.116495" lon="13.5189283"><ele>152.8</ele><time>2026-05-03T06:56:49.594Z</time></trkpt><trkpt lat="46.1164225" lon="13.5188481"><ele>152.2</ele><time>2026-05-03T06:56:50.594Z</time></trkpt><trkpt lat="46.1163551" lon="13.5187675"><ele>151.6</ele><time>2026-05-03T06:56:51.593Z</time></trkpt><trkpt lat="46.1162865" lon="13.5186814"><ele>151.0</ele><time>2026-05-03T06:56:52.594Z</time></trkpt><trkpt lat="46.1162194" lon="13.5185987"><ele>151.0</ele><time>2026-05-03T06:56:53.595Z</time></trkpt><trkpt lat="46.1161503" lon="13.5185272"><ele>151.0</ele><time>2026-05-03T06:56:54.594Z</time></trkpt><trkpt lat="46.1160739" lon="13.5184641"><ele>151.0</ele><time>2026-05-03T06:56:55.594Z</time></trkpt><trkpt lat="46.115989" lon="13.5184034"><ele>151.0</ele><time>2026-05-03T06:56:56.594Z</time></trkpt><trkpt lat="46.1159026" lon="13.5183372"><ele>151.0</ele><time>2026-05-03T06:56:57.593Z</time></trkpt><trkpt lat="46.1158191" lon="13.518269"><ele>151.0</ele><time>2026-05-03T06:56:58.594Z</time></trkpt><trkpt lat="46.1157412" lon="13.5182108"><ele>151.0</ele><time>2026-05-03T06:56:59.594Z</time></trkpt><trkpt lat="46.115672" lon="13.5181534"><ele>151.0</ele><time>2026-05-03T06:57:00.594Z</time></trkpt><trkpt lat="46.1156037" lon="13.5180988"><ele>151.0</ele><time>2026-05-03T06:57:01.593Z</time></trkpt><trkpt lat="46.1155389" lon="13.5180438"><ele>151.0</ele><time>2026-05-03T06:57:02.595Z</time></trkpt><trkpt lat="46.1154822" lon="13.5179897"><ele>151.0</ele><time>2026-05-03T06:57:03.594Z</time></trkpt><trkpt lat="46.1154291" lon="13.5179246"><ele>151.2</ele><time>2026-05-03T06:57:04.593Z</time></trkpt><trkpt lat="46.1153721" lon="13.5178389"><ele>151.39999999999998</ele><time>2026-05-03T06:57:05.593Z</time></trkpt><trkpt lat="46.1153097" lon="13.5177375"><ele>151.6</ele><time>2026-05-03T06:57:06.595Z</time></trkpt><trkpt lat="46.1152459" lon="13.5176276"><ele>151.79999999999998</ele><time>2026-05-03T06:57:07.594Z</time></trkpt><trkpt lat="46.1151784" lon="13.5175206"><ele>152.0</ele><time>2026-05-03T06:57:08.594Z</time></trkpt><trkpt lat="46.1151173" lon="13.5174214"><ele>152.0</ele><time>2026-05-03T06:57:09.593Z</time></trkpt><trkpt lat="46.1150628" lon="13.5173248"><ele>152.0</ele><time>2026-05-03T06:57:10.594Z</time></trkpt><trkpt lat="46.115014" lon="13.5172323"><ele>152.0</ele><time>2026-05-03T06:57:11.595Z</time></trkpt><trkpt lat="46.1149717" lon="13.5171416"><ele>152.0</ele><time>2026-05-03T06:57:12.594Z</time></trkpt><trkpt lat="46.114925" lon="13.5170432"><ele>152.0</ele><time>2026-05-03T06:57:13.594Z</time></trkpt><trkpt lat="46.1148715" lon="13.5169407"><ele>152.0</ele><time>2026-05-03T06:57:14.593Z</time></trkpt><trkpt lat="46.114809" lon="13.5168295"><ele>156.0</ele><time>2026-05-03T06:57:15.593Z</time></trkpt><trkpt lat="46.1147467" lon="13.5167203"><ele>160.0</ele><time>2026-05-03T06:57:16.593Z</time></trkpt><trkpt lat="46.1146985" lon="13.5166059"><ele>164.0</ele><time>2026-05-03T06:57:17.594Z</time></trkpt><trkpt lat="46.1146557" lon="13.5164739"><ele>168.0</ele><time>2026-05-03T06:57:18.594Z</time></trkpt><trkpt lat="46.1146157" lon="13.5163245"><ele>172.0</ele><time>2026-05-03T06:57:19.594Z</time></trkpt><trkpt lat="46.1145761" lon="13.51618"><ele>172.00000000000003</ele><time>2026-05-03T06:57:20.593Z</time></trkpt><trkpt lat="46.1145453" lon="13.5160603"><ele>172.0</ele><time>2026-05-03T06:57:21.593Z</time></trkpt><trkpt lat="46.1145174" lon="13.5159668"><ele>172.0</ele><time>2026-05-03T06:57:22.594Z</time></trkpt><trkpt lat="46.1144984" lon="13.5158791"><ele>172.0</ele><time>2026-05-03T06:57:23.594Z</time></trkpt><trkpt lat="46.1144813" lon="13.5157815"><ele>172.0</ele><time>2026-05-03T06:57:24.593Z</time></trkpt><trkpt lat="46.1144774" lon="13.5156866"><ele>172.00000000000003</ele><time>2026-05-03T06:57:25.594Z</time></trkpt><trkpt lat="46.1144769" lon="13.515578"><ele>172.0</ele><time>2026-05-03T06:57:26.594Z</time></trkpt><trkpt lat="46.114478" lon="13.5154527"><ele>171.25</ele><time>2026-05-03T06:57:27.594Z</time></trkpt><trkpt lat="46.1144684" lon="13.5152915"><ele>170.5</ele><time>2026-05-03T06:57:28.593Z</time></trkpt><trkpt lat="46.1144553" lon="13.5151168"><ele>169.75</ele><time>2026-05-03T06:57:29.595Z</time></trkpt><trkpt lat="46.1144389" lon="13.5149447"><ele>169.0</ele><time>2026-05-03T06:57:30.593Z</time></trkpt><trkpt lat="46.1144181" lon="13.5147796"><ele>169.0</ele><time>2026-05-03T06:57:31.594Z</time></trkpt><trkpt lat="46.1143956" lon="13.5146238"><ele>169.0</ele><time>2026-05-03T06:57:32.594Z</time></trkpt><trkpt lat="46.1143711" lon="13.5144818"><ele>169.0</ele><time>2026-05-03T06:57:33.594Z</time></trkpt><trkpt lat="46.1143439" lon="13.5143414"><ele>169.0</ele><time>2026-05-03T06:57:34.593Z</time></trkpt><trkpt lat="46.1143187" lon="13.5142079"><ele>169.0</ele><time>2026-05-03T06:57:35.594Z</time></trkpt><trkpt lat="46.1142874" lon="13.514082"><ele>168.2</ele><time>2026-05-03T06:57:36.595Z</time></trkpt><trkpt lat="46.114253" lon="13.5139631"><ele>167.39999999999998</ele><time>2026-05-03T06:57:37.595Z</time></trkpt><trkpt lat="46.1142114" lon="13.5138422"><ele>166.6</ele><time>2026-05-03T06:57:38.594Z</time></trkpt><trkpt lat="46.1141639" lon="13.5137051"><ele>165.8</ele><time>2026-05-03T06:57:39.593Z</time></trkpt><trkpt lat="46.1141176" lon="13.5135503"><ele>165.0</ele><time>2026-05-03T06:57:40.597Z</time></trkpt><trkpt lat="46.1140801" lon="13.5133958"><ele>167.2</ele><time>2026-05-03T06:57:41.595Z</time></trkpt><trkpt lat="46.1140596" lon="13.5132339"><ele>169.4</ele><time>2026-05-03T06:57:42.593Z</time></trkpt><trkpt lat="46.1140437" lon="13.513074"><ele>171.60000000000002</ele><time>2026-05-03T06:57:43.594Z</time></trkpt><trkpt lat="46.1140326" lon="13.5129122"><ele>173.8</ele><time>2026-05-03T06:57:44.594Z</time></trkpt><trkpt lat="46.1140219" lon="13.5127664"><ele>176.0</ele><time>2026-05-03T06:57:45.594Z</time></trkpt><trkpt lat="46.1140023" lon="13.5126332"><ele>176.0</ele><time>2026-05-03T06:57:46.595Z</time></trkpt><trkpt lat="46.1139733" lon="13.5125"><ele>176.0</ele><time>2026-05-03T06:57:47.594Z</time></trkpt><trkpt lat="46.1139391" lon="13.5123571"><ele>176.0</ele><time>2026-05-03T06:57:48.593Z</time></trkpt><trkpt lat="46.1139021" lon="13.5122065"><ele>176.0</ele><time>2026-05-03T06:57:49.593Z</time></trkpt><trkpt lat="46.11387" lon="13.5120649"><ele>176.0</ele><time>2026-05-03T06:57:50.594Z</time></trkpt><trkpt lat="46.113836" lon="13.5119415"><ele>173.83333333333331</ele><time>2026-05-03T06:57:51.593Z</time></trkpt><trkpt lat="46.1138131" lon="13.5118274"><ele>171.66666666666666</ele><time>2026-05-03T06:57:52.594Z</time></trkpt><trkpt lat="46.113808" lon="13.5117088"><ele>169.5</ele><time>2026-05-03T06:57:53.596Z</time></trkpt><trkpt lat="46.1138149" lon="13.5115841"><ele>167.33333333333334</ele><time>2026-05-03T06:57:54.593Z</time></trkpt><trkpt lat="46.1138207" lon="13.5114537"><ele>165.16666666666669</ele><time>2026-05-03T06:57:55.595Z</time></trkpt><trkpt lat="46.1138268" lon="13.5113091"><ele>163.0</ele><time>2026-05-03T06:57:56.594Z</time></trkpt><trkpt lat="46.1138292" lon="13.5111472"><ele>162.75</ele><time>2026-05-03T06:57:57.593Z</time></trkpt><trkpt lat="46.1138247" lon="13.5109751"><ele>162.5</ele><time>2026-05-03T06:57:58.594Z</time></trkpt><trkpt lat="46.1138199" lon="13.5107955"><ele>162.25</ele><time>2026-05-03T06:57:59.593Z</time></trkpt><trkpt lat="46.1138084" lon="13.5106159"><ele>162.0</ele><time>2026-05-03T06:58:00.593Z</time></trkpt><trkpt lat="46.1137914" lon="13.5104421"><ele>162.2</ele><time>2026-05-03T06:58:01.594Z</time></trkpt><trkpt lat="46.1137774" lon="13.5102714"><ele>162.39999999999998</ele><time>2026-05-03T06:58:02.595Z</time></trkpt><trkpt lat="46.1137665" lon="13.5100991"><ele>162.60000000000002</ele><time>2026-05-03T06:58:03.594Z</time></trkpt><trkpt lat="46.1137565" lon="13.5099431"><ele>162.8</ele><time>2026-05-03T06:58:04.594Z</time></trkpt><trkpt lat="46.1137486" lon="13.5098045"><ele>163.0</ele><time>2026-05-03T06:58:05.594Z</time></trkpt><trkpt lat="46.1137435" lon="13.5096764"><ele>162.0</ele><time>2026-05-03T06:58:06.594Z</time></trkpt><trkpt lat="46.1137376" lon="13.5095596"><ele>161.0</ele><time>2026-05-03T06:58:07.595Z</time></trkpt><trkpt lat="46.1137378" lon="13.5094606"><ele>160.0</ele><time>2026-05-03T06:58:08.594Z</time></trkpt><trkpt lat="46.1137808" lon="13.5093259"><ele>159.0</ele><time>2026-05-03T06:58:10.593Z</time></trkpt><trkpt lat="46.1138809" lon="13.5092518"><ele>158.0</ele><time>2026-05-03T06:58:12.594Z</time></trkpt><trkpt lat="46.1139606" lon="13.5091717"><ele>158.0</ele><time>2026-05-03T06:58:14.594Z</time></trkpt><trkpt lat="46.1139724" lon="13.5090547"><ele>158.0</ele><time>2026-05-03T06:58:16.595Z</time></trkpt><trkpt lat="46.1139347" lon="13.5089727"><ele>158.0</ele><time>2026-05-03T06:58:17.594Z</time></trkpt><trkpt lat="46.1138659" lon="13.5088724"><ele>158.0</ele><time>2026-05-03T06:58:18.595Z</time></trkpt><trkpt lat="46.1137701" lon="13.5087468"><ele>158.0</ele><time>2026-05-03T06:58:19.595Z</time></trkpt><trkpt lat="46.1136507" lon="13.5085858"><ele>157.25</ele><time>2026-05-03T06:58:20.594Z</time></trkpt><trkpt lat="46.1135412" lon="13.5084242"><ele>156.5</ele><time>2026-05-03T06:58:21.593Z</time></trkpt><trkpt lat="46.1134486" lon="13.5082604"><ele>155.75</ele><time>2026-05-03T06:58:22.593Z</time></trkpt><trkpt lat="46.1133753" lon="13.5081019"><ele>155.0</ele><time>2026-05-03T06:58:23.595Z</time></trkpt><trkpt lat="46.113326" lon="13.507927"><ele>155.0</ele><time>2026-05-03T06:58:24.595Z</time></trkpt><trkpt lat="46.1132866" lon="13.5077398"><ele>155.0</ele><time>2026-05-03T06:58:25.596Z</time></trkpt><trkpt lat="46.1132433" lon="13.5075704"><ele>155.0</ele><time>2026-05-03T06:58:26.594Z</time></trkpt><trkpt lat="46.1131893" lon="13.5074148"><ele>155.0</ele><time>2026-05-03T06:58:27.594Z</time></trkpt><trkpt lat="46.1131234" lon="13.507273"><ele>159.0</ele><time>2026-05-03T06:58:28.595Z</time></trkpt><trkpt lat="46.1130586" lon="13.5071373"><ele>163.0</ele><time>2026-05-03T06:58:29.595Z</time></trkpt><trkpt lat="46.113004" lon="13.5070097"><ele>167.0</ele><time>2026-05-03T06:58:30.594Z</time></trkpt><trkpt lat="46.1129463" lon="13.5068987"><ele>171.0</ele><time>2026-05-03T06:58:31.595Z</time></trkpt><trkpt lat="46.1128833" lon="13.5068097"><ele>175.0</ele><time>2026-05-03T06:58:32.594Z</time></trkpt><trkpt lat="46.1128148" lon="13.5067409"><ele>175.0</ele><time>2026-05-03T06:58:33.594Z</time></trkpt><trkpt lat="46.112742" lon="13.5066739"><ele>175.0</ele><time>2026-05-03T06:58:34.594Z</time></trkpt><trkpt lat="46.1126649" lon="13.5065934"><ele>175.0</ele><time>2026-05-03T06:58:35.594Z</time></trkpt><trkpt lat="46.1125917" lon="13.5064872"><ele>175.0</ele><time>2026-05-03T06:58:36.594Z</time></trkpt><trkpt lat="46.1125179" lon="13.5063563"><ele>175.0</ele><time>2026-05-03T06:58:37.595Z</time></trkpt><trkpt lat="46.1124274" lon="13.5062409"><ele>172.0</ele><time>2026-05-03T06:58:38.596Z</time></trkpt><trkpt lat="46.1123346" lon="13.5061253"><ele>169.0</ele><time>2026-05-03T06:58:39.594Z</time></trkpt><trkpt lat="46.1122483" lon="13.5060011"><ele>166.0</ele><time>2026-05-03T06:58:40.594Z</time></trkpt><trkpt lat="46.1121622" lon="13.5058701"><ele>163.0</ele><time>2026-05-03T06:58:41.594Z</time></trkpt><trkpt lat="46.1120669" lon="13.5057305"><ele>163.0</ele><time>2026-05-03T06:58:42.594Z</time></trkpt><trkpt lat="46.1119718" lon="13.5055868"><ele>163.0</ele><time>2026-05-03T06:58:43.594Z</time></trkpt><trkpt lat="46.1118935" lon="13.5054471"><ele>163.0</ele><time>2026-05-03T06:58:44.595Z</time></trkpt><trkpt lat="46.1118327" lon="13.50531"><ele>163.0</ele><time>2026-05-03T06:58:45.594Z</time></trkpt><trkpt lat="46.1117962" lon="13.5051843"><ele>160.4</ele><time>2026-05-03T06:58:46.594Z</time></trkpt><trkpt lat="46.1117786" lon="13.5050732"><ele>157.8</ele><time>2026-05-03T06:58:47.595Z</time></trkpt><trkpt lat="46.1117788" lon="13.5049653"><ele>155.2</ele><time>2026-05-03T06:58:48.593Z</time></trkpt><trkpt lat="46.1117977" lon="13.5048579"><ele>152.6</ele><time>2026-05-03T06:58:49.593Z</time></trkpt><trkpt lat="46.1118424" lon="13.5047277"><ele>150.0</ele><time>2026-05-03T06:58:50.595Z</time></trkpt><trkpt lat="46.1119151" lon="13.5045576"><ele>150.0</ele><time>2026-05-03T06:58:51.594Z</time></trkpt><trkpt lat="46.1119869" lon="13.5043726"><ele>150.0</ele><time>2026-05-03T06:58:52.594Z</time></trkpt><trkpt lat="46.1120517" lon="13.5041808"><ele>150.0</ele><time>2026-05-03T06:58:53.595Z</time></trkpt><trkpt lat="46.11212" lon="13.5039894"><ele>150.0</ele><time>2026-05-03T06:58:54.594Z</time></trkpt><trkpt lat="46.1121785" lon="13.5038114"><ele>150.4</ele><time>2026-05-03T06:58:55.595Z</time></trkpt><trkpt lat="46.1122175" lon="13.5036493"><ele>150.8</ele><time>2026-05-03T06:58:56.594Z</time></trkpt><trkpt lat="46.1122373" lon="13.5035049"><ele>151.2</ele><time>2026-05-03T06:58:57.593Z</time></trkpt><trkpt lat="46.1122468" lon="13.5033809"><ele>151.6</ele><time>2026-05-03T06:58:58.594Z</time></trkpt><trkpt lat="46.1122554" lon="13.5032835"><ele>152.0</ele><time>2026-05-03T06:58:59.594Z</time></trkpt><trkpt lat="46.1122996" lon="13.5031477"><ele>152.0</ele><time>2026-05-03T06:59:01.593Z</time></trkpt><trkpt lat="46.1123939" lon="13.5030893"><ele>152.0</ele><time>2026-05-03T06:59:03.593Z</time></trkpt><trkpt lat="46.112463" lon="13.5030762"><ele>152.0</ele><time>2026-05-03T06:59:04.593Z</time></trkpt><trkpt lat="46.1125474" lon="13.5030572"><ele>152.0</ele><time>2026-05-03T06:59:05.595Z</time></trkpt><trkpt lat="46.1126393" lon="13.5030226"><ele>152.0</ele><time>2026-05-03T06:59:06.594Z</time></trkpt><trkpt lat="46.1127321" lon="13.5029642"><ele>155.2</ele><time>2026-05-03T06:59:07.594Z</time></trkpt><trkpt lat="46.1128247" lon="13.5028885"><ele>158.39999999999998</ele><time>2026-05-03T06:59:08.595Z</time></trkpt><trkpt lat="46.1129154" lon="13.5028005"><ele>161.60000000000002</ele><time>2026-05-03T06:59:09.594Z</time></trkpt><trkpt lat="46.1130028" lon="13.5027027"><ele>164.8</ele><time>2026-05-03T06:59:10.593Z</time></trkpt><trkpt lat="46.1130842" lon="13.502599"><ele>168.0</ele><time>2026-05-03T06:59:11.595Z</time></trkpt><trkpt lat="46.1131591" lon="13.5024879"><ele>168.0</ele><time>2026-05-03T06:59:12.595Z</time></trkpt><trkpt lat="46.1132232" lon="13.5023665"><ele>168.0</ele><time>2026-05-03T06:59:13.594Z</time></trkpt><trkpt lat="46.1132798" lon="13.5022299"><ele>168.0</ele><time>2026-05-03T06:59:14.594Z</time></trkpt><trkpt lat="46.1133287" lon="13.5020884"><ele>168.0</ele><time>2026-05-03T06:59:15.594Z</time></trkpt><trkpt lat="46.113371" lon="13.5019352"><ele>168.0</ele><time>2026-05-03T06:59:16.595Z</time></trkpt><trkpt lat="46.1134253" lon="13.5017765"><ele>165.25</ele><time>2026-05-03T06:59:17.595Z</time></trkpt><trkpt lat="46.1134848" lon="13.5016128"><ele>162.5</ele><time>2026-05-03T06:59:18.596Z</time></trkpt><trkpt lat="46.1135506" lon="13.5014449"><ele>159.75</ele><time>2026-05-03T06:59:19.594Z</time></trkpt><trkpt lat="46.1136136" lon="13.5012713"><ele>157.0</ele><time>2026-05-03T06:59:20.594Z</time></trkpt><trkpt lat="46.1136723" lon="13.5010925"><ele>155.5</ele><time>2026-05-03T06:59:21.595Z</time></trkpt><trkpt lat="46.1137194" lon="13.5009093"><ele>154.0</ele><time>2026-05-03T06:59:22.594Z</time></trkpt><trkpt lat="46.1137562" lon="13.5007229"><ele>152.5</ele><time>2026-05-03T06:59:23.596Z</time></trkpt><trkpt lat="46.113785" lon="13.5005369"><ele>151.0</ele><time>2026-05-03T06:59:24.595Z</time></trkpt><trkpt lat="46.113808" lon="13.5003438"><ele>149.25</ele><time>2026-05-03T06:59:25.595Z</time></trkpt><trkpt lat="46.1138318" lon="13.5001414"><ele>147.5</ele><time>2026-05-03T06:59:26.596Z</time></trkpt><trkpt lat="46.1138588" lon="13.4999343"><ele>145.75</ele><time>2026-05-03T06:59:27.594Z</time></trkpt><trkpt lat="46.1138788" lon="13.4997344"><ele>144.0</ele><time>2026-05-03T06:59:28.595Z</time></trkpt><trkpt lat="46.1138966" lon="13.4995343"><ele>143.5</ele><time>2026-05-03T06:59:29.596Z</time></trkpt><trkpt lat="46.1139168" lon="13.4993332"><ele>143.0</ele><time>2026-05-03T06:59:30.594Z</time></trkpt><trkpt lat="46.1139365" lon="13.4991287"><ele>142.5</ele><time>2026-05-03T06:59:31.594Z</time></trkpt><trkpt lat="46.1139565" lon="13.4989178"><ele>142.0</ele><time>2026-05-03T06:59:32.595Z</time></trkpt><trkpt lat="46.1139796" lon="13.4987003"><ele>141.33333333333334</ele><time>2026-05-03T06:59:33.594Z</time></trkpt><trkpt lat="46.1140027" lon="13.4984798"><ele>140.66666666666666</ele><time>2026-05-03T06:59:34.594Z</time></trkpt><trkpt lat="46.1140272" lon="13.498259"><ele>140.0</ele><time>2026-05-03T06:59:35.594Z</time></trkpt><trkpt lat="46.1140524" lon="13.4980345"><ele>140.33333333333331</ele><time>2026-05-03T06:59:36.593Z</time></trkpt><trkpt lat="46.1140762" lon="13.4978059"><ele>140.66666666666666</ele><time>2026-05-03T06:59:37.594Z</time></trkpt><trkpt lat="46.1140983" lon="13.4975741"><ele>141.0</ele><time>2026-05-03T06:59:38.594Z</time></trkpt><trkpt lat="46.1141183" lon="13.4973365"><ele>141.0</ele><time>2026-05-03T06:59:39.593Z</time></trkpt><trkpt lat="46.114137" lon="13.4971005"><ele>141.0</ele><time>2026-05-03T06:59:40.593Z</time></trkpt><trkpt lat="46.1141596" lon="13.496869"><ele>141.0</ele><time>2026-05-03T06:59:41.593Z</time></trkpt><trkpt lat="46.1141828" lon="13.4966405"><ele>141.0</ele><time>2026-05-03T06:59:42.595Z</time></trkpt><trkpt lat="46.1142062" lon="13.4964123"><ele>141.0</ele><time>2026-05-03T06:59:43.594Z</time></trkpt><trkpt lat="46.1142308" lon="13.4961829"><ele>141.0</ele><time>2026-05-03T06:59:44.595Z</time></trkpt><trkpt lat="46.1142583" lon="13.4959545"><ele>141.0</ele><time>2026-05-03T06:59:45.593Z</time></trkpt><trkpt lat="46.1142828" lon="13.4957385"><ele>141.0</ele><time>2026-05-03T06:59:46.595Z</time></trkpt><trkpt lat="46.1143032" lon="13.4955395"><ele>141.0</ele><time>2026-05-03T06:59:47.593Z</time></trkpt><trkpt lat="46.1143188" lon="13.4953548"><ele>141.0</ele><time>2026-05-03T06:59:48.593Z</time></trkpt><trkpt lat="46.1143269" lon="13.4951742"><ele>140.5</ele><time>2026-05-03T06:59:49.593Z</time></trkpt><trkpt lat="46.1143248" lon="13.4949982"><ele>140.0</ele><time>2026-05-03T06:59:50.594Z</time></trkpt><trkpt lat="46.1143171" lon="13.4948195"><ele>139.5</ele><time>2026-05-03T06:59:51.594Z</time></trkpt><trkpt lat="46.1143065" lon="13.4946367"><ele>139.0</ele><time>2026-05-03T06:59:52.593Z</time></trkpt><trkpt lat="46.1142904" lon="13.4944626"><ele>138.5</ele><time>2026-05-03T06:59:53.594Z</time></trkpt><trkpt lat="46.1142679" lon="13.4943069"><ele>138.0</ele><time>2026-05-03T06:59:54.594Z</time></trkpt><trkpt lat="46.1142385" lon="13.4941488"><ele>137.5</ele><time>2026-05-03T06:59:55.595Z</time></trkpt><trkpt lat="46.1142016" lon="13.4939831"><ele>137.0</ele><time>2026-05-03T06:59:56.595Z</time></trkpt><trkpt lat="46.1141579" lon="13.4938191"><ele>137.25</ele><time>2026-05-03T06:59:57.594Z</time></trkpt><trkpt lat="46.1141128" lon="13.4936544"><ele>137.5</ele><time>2026-05-03T06:59:58.594Z</time></trkpt><trkpt lat="46.1140655" lon="13.4934826"><ele>137.75</ele><time>2026-05-03T06:59:59.593Z</time></trkpt><trkpt lat="46.114016" lon="13.4933055"><ele>138.0</ele><time>2026-05-03T07:00:00.594Z</time></trkpt><trkpt lat="46.1139621" lon="13.4931267"><ele>138.0</ele><time>2026-05-03T07:00:01.594Z</time></trkpt><trkpt lat="46.1139115" lon="13.4929467"><ele>138.0</ele><time>2026-05-03T07:00:02.594Z</time></trkpt><trkpt lat="46.113862" lon="13.4927661"><ele>138.0</ele><time>2026-05-03T07:00:03.595Z</time></trkpt><trkpt lat="46.113812" lon="13.4925845"><ele>138.0</ele><time>2026-05-03T07:00:04.594Z</time></trkpt><trkpt lat="46.1137627" lon="13.4924103"><ele>138.0</ele><time>2026-05-03T07:00:05.594Z</time></trkpt><trkpt lat="46.1137238" lon="13.4922556"><ele>138.0</ele><time>2026-05-03T07:00:06.595Z</time></trkpt><trkpt lat="46.1136909" lon="13.4921298"><ele>138.0</ele><time>2026-05-03T07:00:07.595Z</time></trkpt><trkpt lat="46.1136608" lon="13.4920197"><ele>138.0</ele><time>2026-05-03T07:00:08.594Z</time></trkpt><trkpt lat="46.1136259" lon="13.4919272"><ele>138.0</ele><time>2026-05-03T07:00:09.595Z</time></trkpt><trkpt lat="46.1135284" lon="13.4918137"><ele>138.0</ele><time>2026-05-03T07:00:11.593Z</time></trkpt><trkpt lat="46.1134661" lon="13.4917829"><ele>138.0</ele><time>2026-05-03T07:00:12.593Z</time></trkpt><trkpt lat="46.1133891" lon="13.4917651"><ele>138.0</ele><time>2026-05-03T07:00:13.594Z</time></trkpt><trkpt lat="46.1133084" lon="13.4917518"><ele>138.0</ele><time>2026-05-03T07:00:14.596Z</time></trkpt><trkpt lat="46.1132329" lon="13.4917437"><ele>138.0</ele><time>2026-05-03T07:00:15.594Z</time></trkpt><trkpt lat="46.1131661" lon="13.4917483"><ele>138.0</ele><time>2026-05-03T07:00:16.595Z</time></trkpt><trkpt lat="46.1130471" lon="13.4917626"><ele>142.60000000000002</ele><time>2026-05-03T07:00:18.595Z</time></trkpt><trkpt lat="46.1129437" lon="13.4916946"><ele>147.20000000000002</ele><time>2026-05-03T07:00:20.593Z</time></trkpt><trkpt lat="46.1129045" lon="13.4916153"><ele>151.8</ele><time>2026-05-03T07:00:21.594Z</time></trkpt><trkpt lat="46.1128709" lon="13.4915069"><ele>156.4</ele><time>2026-05-03T07:00:22.595Z</time></trkpt><trkpt lat="46.1128387" lon="13.4913818"><ele>161.0</ele><time>2026-05-03T07:00:23.594Z</time></trkpt><trkpt lat="46.1128145" lon="13.4912484"><ele>162.8</ele><time>2026-05-03T07:00:24.595Z</time></trkpt><trkpt lat="46.1127996" lon="13.4911164"><ele>164.60000000000002</ele><time>2026-05-03T07:00:25.595Z</time></trkpt><trkpt lat="46.1127941" lon="13.4909837"><ele>166.4</ele><time>2026-05-03T07:00:26.595Z</time></trkpt><trkpt lat="46.1127953" lon="13.4908449"><ele>168.2</ele><time>2026-05-03T07:00:27.594Z</time></trkpt><trkpt lat="46.1128029" lon="13.490692"><ele>170.0</ele><time>2026-05-03T07:00:28.593Z</time></trkpt><trkpt lat="46.1128166" lon="13.4905217"><ele>171.5</ele><time>2026-05-03T07:00:29.594Z</time></trkpt><trkpt lat="46.1128331" lon="13.490348"><ele>173.0</ele><time>2026-05-03T07:00:30.593Z</time></trkpt><trkpt lat="46.1128533" lon="13.490185"><ele>174.5</ele><time>2026-05-03T07:00:31.594Z</time></trkpt><trkpt lat="46.1128739" lon="13.4900264"><ele>176.0</ele><time>2026-05-03T07:00:32.595Z</time></trkpt><trkpt lat="46.1128918" lon="13.4898674"><ele>176.0</ele><time>2026-05-03T07:00:33.595Z</time></trkpt><trkpt lat="46.1129004" lon="13.4897103"><ele>176.0</ele><time>2026-05-03T07:00:34.594Z</time></trkpt><trkpt lat="46.112898" lon="13.4895723"><ele>176.0</ele><time>2026-05-03T07:00:35.593Z</time></trkpt><trkpt lat="46.1128988" lon="13.4894522"><ele>176.0</ele><time>2026-05-03T07:00:36.594Z</time></trkpt><trkpt lat="46.1128994" lon="13.4893404"><ele>176.0</ele><time>2026-05-03T07:00:37.594Z</time></trkpt><trkpt lat="46.1128949" lon="13.48923"><ele>176.0</ele><time>2026-05-03T07:00:38.594Z</time></trkpt><trkpt lat="46.1128843" lon="13.4891144"><ele>176.5</ele><time>2026-05-03T07:00:39.593Z</time></trkpt><trkpt lat="46.1128723" lon="13.4889959"><ele>177.0</ele><time>2026-05-03T07:00:40.596Z</time></trkpt><trkpt lat="46.112859" lon="13.4888813"><ele>177.5</ele><time>2026-05-03T07:00:41.594Z</time></trkpt><trkpt lat="46.1128386" lon="13.4887786"><ele>178.0</ele><time>2026-05-03T07:00:42.594Z</time></trkpt><trkpt lat="46.1128021" lon="13.4886881"><ele>178.5</ele><time>2026-05-03T07:00:43.595Z</time></trkpt><trkpt lat="46.1127562" lon="13.4886083"><ele>179.0</ele><time>2026-05-03T07:00:44.595Z</time></trkpt><trkpt lat="46.1127032" lon="13.4885429"><ele>177.42857142857144</ele><time>2026-05-03T07:00:45.593Z</time></trkpt><trkpt lat="46.1126561" lon="13.4884745"><ele>175.85714285714286</ele><time>2026-05-03T07:00:46.596Z</time></trkpt><trkpt lat="46.1126105" lon="13.4884081"><ele>174.28571428571428</ele><time>2026-05-03T07:00:47.594Z</time></trkpt><trkpt lat="46.1125655" lon="13.4883365"><ele>172.71428571428572</ele><time>2026-05-03T07:00:48.595Z</time></trkpt><trkpt lat="46.1125078" lon="13.488261"><ele>171.14285714285714</ele><time>2026-05-03T07:00:49.594Z</time></trkpt><trkpt lat="46.1124384" lon="13.4881893"><ele>169.57142857142858</ele><time>2026-05-03T07:00:50.596Z</time></trkpt><trkpt lat="46.1123607" lon="13.4881311"><ele>168.0</ele><time>2026-05-03T07:00:51.594Z</time></trkpt><trkpt lat="46.1122811" lon="13.488089"><ele>170.16666666666666</ele><time>2026-05-03T07:00:52.594Z</time></trkpt><trkpt lat="46.1121991" lon="13.4880548"><ele>172.33333333333334</ele><time>2026-05-03T07:00:53.595Z</time></trkpt><trkpt lat="46.1121198" lon="13.488022"><ele>174.5</ele><time>2026-05-03T07:00:54.596Z</time></trkpt><trkpt lat="46.112048" lon="13.4879789"><ele>176.66666666666669</ele><time>2026-05-03T07:00:55.595Z</time></trkpt><trkpt lat="46.1119786" lon="13.4879291"><ele>178.83333333333334</ele><time>2026-05-03T07:00:56.594Z</time></trkpt><trkpt lat="46.111913" lon="13.487874"><ele>181.0</ele><time>2026-05-03T07:00:57.594Z</time></trkpt><trkpt lat="46.1118527" lon="13.487812"><ele>181.0</ele><time>2026-05-03T07:00:58.593Z</time></trkpt><trkpt lat="46.111796" lon="13.4877395"><ele>181.0</ele><time>2026-05-03T07:00:59.595Z</time></trkpt><trkpt lat="46.1117422" lon="13.4876586"><ele>181.0</ele><time>2026-05-03T07:01:00.593Z</time></trkpt><trkpt lat="46.1116951" lon="13.4875899"><ele>181.0</ele><time>2026-05-03T07:01:01.593Z</time></trkpt><trkpt lat="46.111609" lon="13.4875006"><ele>181.0</ele><time>2026-05-03T07:01:03.594Z</time></trkpt><trkpt lat="46.1114983" lon="13.4874661"><ele>181.0</ele><time>2026-05-03T07:01:05.594Z</time></trkpt><trkpt lat="46.1114319" lon="13.4874422"><ele>183.4</ele><time>2026-05-03T07:01:06.594Z</time></trkpt><trkpt lat="46.1113647" lon="13.4873898"><ele>185.8</ele><time>2026-05-03T07:01:07.595Z</time></trkpt><trkpt lat="46.1112901" lon="13.4873218"><ele>188.20000000000002</ele><time>2026-05-03T07:01:08.596Z</time></trkpt><trkpt lat="46.1112075" lon="13.4872497"><ele>190.60000000000002</ele><time>2026-05-03T07:01:09.593Z</time></trkpt><trkpt lat="46.1111233" lon="13.4871818"><ele>193.0</ele><time>2026-05-03T07:01:10.595Z</time></trkpt><trkpt lat="46.1110322" lon="13.4871196"><ele>190.60000000000002</ele><time>2026-05-03T07:01:11.594Z</time></trkpt><trkpt lat="46.11094" lon="13.4870584"><ele>188.20000000000002</ele><time>2026-05-03T07:01:12.593Z</time></trkpt><trkpt lat="46.1108514" lon="13.4869976"><ele>185.8</ele><time>2026-05-03T07:01:13.594Z</time></trkpt><trkpt lat="46.1107789" lon="13.4869419"><ele>183.4</ele><time>2026-05-03T07:01:14.594Z</time></trkpt><trkpt lat="46.1106938" lon="13.4868388"><ele>181.0</ele><time>2026-05-03T07:01:16.594Z</time></trkpt><trkpt lat="46.1106532" lon="13.4867689"><ele>184.71428571428572</ele><time>2026-05-03T07:01:17.593Z</time></trkpt><trkpt lat="46.110611" lon="13.4866937"><ele>188.42857142857142</ele><time>2026-05-03T07:01:18.594Z</time></trkpt><trkpt lat="46.1105608" lon="13.4866278"><ele>192.14285714285717</ele><time>2026-05-03T07:01:19.595Z</time></trkpt><trkpt lat="46.1104977" lon="13.4865781"><ele>195.85714285714286</ele><time>2026-05-03T07:01:20.594Z</time></trkpt><trkpt lat="46.1104268" lon="13.4865345"><ele>199.57142857142858</ele><time>2026-05-03T07:01:21.593Z</time></trkpt><trkpt lat="46.1103592" lon="13.4864877"><ele>203.2857142857143</ele><time>2026-05-03T07:01:22.595Z</time></trkpt><trkpt lat="46.1103005" lon="13.4864313"><ele>207.0</ele><time>2026-05-03T07:01:23.594Z</time></trkpt><trkpt lat="46.1102473" lon="13.4863545"><ele>207.0</ele><time>2026-05-03T07:01:24.594Z</time></trkpt><trkpt lat="46.1102012" lon="13.4862872"><ele>207.0</ele><time>2026-05-03T07:01:25.595Z</time></trkpt><trkpt lat="46.1101199" lon="13.4862131"><ele>207.0</ele><time>2026-05-03T07:01:27.596Z</time></trkpt><trkpt lat="46.1100496" lon="13.4862816"><ele>207.0</ele><time>2026-05-03T07:01:30.594Z</time></trkpt><trkpt lat="46.1100387" lon="13.486432"><ele>207.0</ele><time>2026-05-03T07:01:32.594Z</time></trkpt><trkpt lat="46.1100404" lon="13.4865939"><ele>207.0</ele><time>2026-05-03T07:01:34.593Z</time></trkpt><trkpt lat="46.1100602" lon="13.4867641"><ele>207.0</ele><time>2026-05-03T07:01:36.593Z</time></trkpt><trkpt lat="46.1100699" lon="13.4868561"><ele>207.0</ele><time>2026-05-03T07:01:37.594Z</time></trkpt><trkpt lat="46.1100792" lon="13.4869531"><ele>207.0</ele><time>2026-05-03T07:01:38.595Z</time></trkpt><trkpt lat="46.1100909" lon="13.4870519"><ele>207.0</ele><time>2026-05-03T07:01:39.594Z</time></trkpt><trkpt lat="46.1101067" lon="13.48715"><ele>207.0</ele><time>2026-05-03T07:01:40.594Z</time></trkpt><trkpt lat="46.1101251" lon="13.4872532"><ele>208.42857142857144</ele><time>2026-05-03T07:01:41.593Z</time></trkpt><trkpt lat="46.1101411" lon="13.4873544"><ele>209.85714285714286</ele><time>2026-05-03T07:01:42.594Z</time></trkpt><trkpt lat="46.1101506" lon="13.4874555"><ele>211.28571428571428</ele><time>2026-05-03T07:01:43.594Z</time></trkpt><trkpt lat="46.1101615" lon="13.4875545"><ele>212.71428571428572</ele><time>2026-05-03T07:01:44.594Z</time></trkpt><trkpt lat="46.1101844" lon="13.4876464"><ele>214.14285714285714</ele><time>2026-05-03T07:01:45.595Z</time></trkpt><trkpt lat="46.1102166" lon="13.4877329"><ele>215.57142857142858</ele><time>2026-05-03T07:01:46.594Z</time></trkpt><trkpt lat="46.1102574" lon="13.4878203"><ele>217.0</ele><time>2026-05-03T07:01:47.593Z</time></trkpt><trkpt lat="46.1102975" lon="13.4879044"><ele>219.85714285714286</ele><time>2026-05-03T07:01:48.593Z</time></trkpt><trkpt lat="46.1103307" lon="13.4879849"><ele>222.71428571428572</ele><time>2026-05-03T07:01:49.594Z</time></trkpt><trkpt lat="46.1103623" lon="13.4880708"><ele>225.57142857142856</ele><time>2026-05-03T07:01:50.594Z</time></trkpt><trkpt lat="46.1103887" lon="13.4881627"><ele>228.42857142857142</ele><time>2026-05-03T07:01:51.593Z</time></trkpt><trkpt lat="46.110418" lon="13.4882569"><ele>231.28571428571428</ele><time>2026-05-03T07:01:52.594Z</time></trkpt><trkpt lat="46.1104471" lon="13.4883577"><ele>234.1428571428571</ele><time>2026-05-03T07:01:53.594Z</time></trkpt><trkpt lat="46.1104822" lon="13.4884668"><ele>236.99999999999997</ele><time>2026-05-03T07:01:54.594Z</time></trkpt><trkpt lat="46.1105162" lon="13.4885795"><ele>237.0</ele><time>2026-05-03T07:01:55.594Z</time></trkpt><trkpt lat="46.1105472" lon="13.4886875"><ele>237.0</ele><time>2026-05-03T07:01:56.595Z</time></trkpt><trkpt lat="46.1105927" lon="13.4887887"><ele>237.0</ele><time>2026-05-03T07:01:57.593Z</time></trkpt><trkpt lat="46.1106354" lon="13.4888977"><ele>237.0</ele><time>2026-05-03T07:01:58.594Z</time></trkpt><trkpt lat="46.1106752" lon="13.4890081"><ele>237.0</ele><time>2026-05-03T07:01:59.594Z</time></trkpt><trkpt lat="46.1107087" lon="13.4890991"><ele>237.0</ele><time>2026-05-03T07:02:00.594Z</time></trkpt><trkpt lat="46.1107675" lon="13.4892243"><ele>238.6</ele><time>2026-05-03T07:02:02.594Z</time></trkpt><trkpt lat="46.1108375" lon="13.4893384"><ele>240.2</ele><time>2026-05-03T07:02:04.595Z</time></trkpt><trkpt lat="46.1108904" lon="13.4894833"><ele>241.8</ele><time>2026-05-03T07:02:06.594Z</time></trkpt><trkpt lat="46.1109366" lon="13.4896483"><ele>243.4</ele><time>2026-05-03T07:02:08.595Z</time></trkpt><trkpt lat="46.1109593" lon="13.4897418"><ele>245.0</ele><time>2026-05-03T07:02:09.595Z</time></trkpt><trkpt lat="46.1109844" lon="13.489834"><ele>245.0</ele><time>2026-05-03T07:02:10.595Z</time></trkpt><trkpt lat="46.1110151" lon="13.4899311"><ele>245.0</ele><time>2026-05-03T07:02:11.596Z</time></trkpt><trkpt lat="46.1110491" lon="13.4900247"><ele>245.0</ele><time>2026-05-03T07:02:12.596Z</time></trkpt><trkpt lat="46.1110782" lon="13.4901175"><ele>245.0</ele><time>2026-05-03T07:02:13.596Z</time></trkpt><trkpt lat="46.1111027" lon="13.490286"><ele>245.0</ele><time>2026-05-03T07:02:15.595Z</time></trkpt><trkpt lat="46.11112" lon="13.4904525"><ele>246.71428571428572</ele><time>2026-05-03T07:02:17.596Z</time></trkpt><trkpt lat="46.1111358" lon="13.4906136"><ele>248.42857142857144</ele><time>2026-05-03T07:02:19.595Z</time></trkpt><trkpt lat="46.1111359" lon="13.4907051"><ele>250.14285714285714</ele><time>2026-05-03T07:02:20.595Z</time></trkpt><trkpt lat="46.1111268" lon="13.4907966"><ele>251.85714285714286</ele><time>2026-05-03T07:02:21.594Z</time></trkpt><trkpt lat="46.1111102" lon="13.4908895"><ele>253.57142857142858</ele><time>2026-05-03T07:02:22.593Z</time></trkpt><trkpt lat="46.1110907" lon="13.4909815"><ele>255.28571428571428</ele><time>2026-05-03T07:02:23.594Z</time></trkpt><trkpt lat="46.1110745" lon="13.4910733"><ele>257.0</ele><time>2026-05-03T07:02:24.594Z</time></trkpt><trkpt lat="46.1110618" lon="13.4911713"><ele>258.0</ele><time>2026-05-03T07:02:25.595Z</time></trkpt><trkpt lat="46.1110448" lon="13.4912752"><ele>259.0</ele><time>2026-05-03T07:02:26.596Z</time></trkpt><trkpt lat="46.1110233" lon="13.4913817"><ele>260.0</ele><time>2026-05-03T07:02:27.594Z</time></trkpt><trkpt lat="46.1109904" lon="13.4914864"><ele>261.0</ele><time>2026-05-03T07:02:28.593Z</time></trkpt><trkpt lat="46.1109498" lon="13.4915918"><ele>262.0</ele><time>2026-05-03T07:02:29.594Z</time></trkpt><trkpt lat="46.1109043" lon="13.4917008"><ele>263.0</ele><time>2026-05-03T07:02:30.594Z</time></trkpt><trkpt lat="46.1108558" lon="13.491823"><ele>263.0</ele><time>2026-05-03T07:02:31.595Z</time></trkpt><trkpt lat="46.1108072" lon="13.4919467"><ele>263.0</ele><time>2026-05-03T07:02:32.595Z</time></trkpt><trkpt lat="46.110765" lon="13.492061"><ele>263.0</ele><time>2026-05-03T07:02:33.594Z</time></trkpt><trkpt lat="46.1107342" lon="13.4921618"><ele>263.0</ele><time>2026-05-03T07:02:34.594Z</time></trkpt><trkpt lat="46.11071" lon="13.4922542"><ele>263.0</ele><time>2026-05-03T07:02:35.594Z</time></trkpt><trkpt lat="46.1106799" lon="13.4923567"><ele>263.0</ele><time>2026-05-03T07:02:36.595Z</time></trkpt><trkpt lat="46.1106428" lon="13.4924739"><ele>265.5</ele><time>2026-05-03T07:02:37.594Z</time></trkpt><trkpt lat="46.1106056" lon="13.4925945"><ele>268.0</ele><time>2026-05-03T07:02:38.595Z</time></trkpt><trkpt lat="46.1105719" lon="13.4927071"><ele>270.5</ele><time>2026-05-03T07:02:39.593Z</time></trkpt><trkpt lat="46.1105428" lon="13.4928196"><ele>273.0</ele><time>2026-05-03T07:02:40.595Z</time></trkpt><trkpt lat="46.1104985" lon="13.4929888"><ele>275.5</ele><time>2026-05-03T07:02:42.594Z</time></trkpt><trkpt lat="46.1104653" lon="13.4930662"><ele>278.0</ele><time>2026-05-03T07:02:43.595Z</time></trkpt><trkpt lat="46.1104209" lon="13.4931307"><ele>278.0</ele><time>2026-05-03T07:02:44.595Z</time></trkpt><trkpt lat="46.1103654" lon="13.4931875"><ele>278.0</ele><time>2026-05-03T07:02:45.594Z</time></trkpt><trkpt lat="46.1103019" lon="13.493246"><ele>278.0</ele><time>2026-05-03T07:02:46.595Z</time></trkpt><trkpt lat="46.1102334" lon="13.4933037"><ele>278.0</ele><time>2026-05-03T07:02:47.594Z</time></trkpt><trkpt lat="46.110159" lon="13.4933606"><ele>278.0</ele><time>2026-05-03T07:02:48.594Z</time></trkpt><trkpt lat="46.1100813" lon="13.4934084"><ele>278.0</ele><time>2026-05-03T07:02:49.594Z</time></trkpt><trkpt lat="46.1100037" lon="13.4934345"><ele>278.0</ele><time>2026-05-03T07:02:50.595Z</time></trkpt><trkpt lat="46.1099204" lon="13.4934521"><ele>278.0</ele><time>2026-05-03T07:02:51.594Z</time></trkpt><trkpt lat="46.1098375" lon="13.4934544"><ele>278.0</ele><time>2026-05-03T07:02:52.594Z</time></trkpt><trkpt lat="46.1097582" lon="13.4934504"><ele>278.0</ele><time>2026-05-03T07:02:53.595Z</time></trkpt><trkpt lat="46.1096782" lon="13.4934537"><ele>278.0</ele><time>2026-05-03T07:02:54.594Z</time></trkpt><trkpt lat="46.1095997" lon="13.4934663"><ele>278.0</ele><time>2026-05-03T07:02:55.594Z</time></trkpt><trkpt lat="46.1095235" lon="13.493482"><ele>279.33333333333337</ele><time>2026-05-03T07:02:56.595Z</time></trkpt><trkpt lat="46.1094517" lon="13.4934915"><ele>280.6666666666667</ele><time>2026-05-03T07:02:57.595Z</time></trkpt><trkpt lat="46.1093834" lon="13.4934915"><ele>282.0</ele><time>2026-05-03T07:02:58.595Z</time></trkpt><trkpt lat="46.1093183" lon="13.4934927"><ele>283.3333333333333</ele><time>2026-05-03T07:02:59.595Z</time></trkpt><trkpt lat="46.1092254" lon="13.4934956"><ele>284.66666666666663</ele><time>2026-05-03T07:03:01.595Z</time></trkpt><trkpt lat="46.1091576" lon="13.4934808"><ele>286.0</ele><time>2026-05-03T07:03:04.594Z</time></trkpt><trkpt lat="46.1092495" lon="13.4934362"><ele>286.0</ele><time>2026-05-03T07:03:11.596Z</time></trkpt><trkpt lat="46.1093475" lon="13.4933842"><ele>286.0</ele><time>2026-05-03T07:03:13.595Z</time></trkpt><trkpt lat="46.1094361" lon="13.4933205"><ele>286.0</ele><time>2026-05-03T07:03:15.595Z</time></trkpt><trkpt lat="46.109495" lon="13.4932794"><ele>286.0</ele><time>2026-05-03T07:03:17.595Z</time></trkpt><trkpt lat="46.1095638" lon="13.4932215"><ele>286.0</ele><time>2026-05-03T07:03:19.595Z</time></trkpt><trkpt lat="46.1096469" lon="13.4931286"><ele>285.99999999999994</ele><time>2026-05-03T07:03:21.595Z</time></trkpt><trkpt lat="46.1096872" lon="13.4930555"><ele>286.0</ele><time>2026-05-03T07:03:22.595Z</time></trkpt><trkpt lat="46.1097178" lon="13.4929757"><ele>286.0</ele><time>2026-05-03T07:03:23.595Z</time></trkpt><trkpt lat="46.1097387" lon="13.4928871"><ele>286.0</ele><time>2026-05-03T07:03:24.595Z</time></trkpt><trkpt lat="46.1097525" lon="13.4927948"><ele>286.0</ele><time>2026-05-03T07:03:25.596Z</time></trkpt><trkpt lat="46.1097686" lon="13.4926972"><ele>285.99999999999994</ele><time>2026-05-03T07:03:26.595Z</time></trkpt><trkpt lat="46.1097835" lon="13.492587"><ele>286.0</ele><time>2026-05-03T07:03:27.595Z</time></trkpt><trkpt lat="46.1097994" lon="13.4924654"><ele>288.16666666666663</ele><time>2026-05-03T07:03:28.595Z</time></trkpt><trkpt lat="46.1098138" lon="13.4923365"><ele>290.3333333333333</ele><time>2026-05-03T07:03:29.597Z</time></trkpt><trkpt lat="46.109821" lon="13.4922115"><ele>292.5</ele><time>2026-05-03T07:03:30.596Z</time></trkpt><trkpt lat="46.1098197" lon="13.4920942"><ele>294.6666666666667</ele><time>2026-05-03T07:03:31.594Z</time></trkpt><trkpt lat="46.1098105" lon="13.4919787"><ele>296.83333333333337</ele><time>2026-05-03T07:03:32.596Z</time></trkpt><trkpt lat="46.1097961" lon="13.4918667"><ele>299.0</ele><time>2026-05-03T07:03:33.595Z</time></trkpt><trkpt lat="46.1097804" lon="13.4917572"><ele>301.59999999999997</ele><time>2026-05-03T07:03:34.594Z</time></trkpt><trkpt lat="46.1097606" lon="13.4916589"><ele>304.2</ele><time>2026-05-03T07:03:35.595Z</time></trkpt><trkpt lat="46.1097155" lon="13.4915161"><ele>306.79999999999995</ele><time>2026-05-03T07:03:37.594Z</time></trkpt><trkpt lat="46.1096362" lon="13.4914328"><ele>309.4</ele><time>2026-05-03T07:03:39.595Z</time></trkpt><trkpt lat="46.1095083" lon="13.4913708"><ele>312.0</ele><time>2026-05-03T07:03:41.596Z</time></trkpt><trkpt lat="46.1094317" lon="13.4913343"><ele>312.0</ele><time>2026-05-03T07:03:42.596Z</time></trkpt><trkpt lat="46.1093598" lon="13.49129"><ele>312.0</ele><time>2026-05-03T07:03:43.595Z</time></trkpt><trkpt lat="46.1092866" lon="13.4912337"><ele>312.0</ele><time>2026-05-03T07:03:44.596Z</time></trkpt><trkpt lat="46.1092222" lon="13.4911712"><ele>312.0</ele><time>2026-05-03T07:03:45.594Z</time></trkpt><trkpt lat="46.1091683" lon="13.4911"><ele>312.0</ele><time>2026-05-03T07:03:46.594Z</time></trkpt><trkpt lat="46.1091277" lon="13.4909452"><ele>312.0</ele><time>2026-05-03T07:03:48.596Z</time></trkpt><trkpt lat="46.1091206" lon="13.4908439"><ele>312.2</ele><time>2026-05-03T07:03:49.596Z</time></trkpt><trkpt lat="46.1091142" lon="13.4907269"><ele>312.4</ele><time>2026-05-03T07:03:50.595Z</time></trkpt><trkpt lat="46.1091032" lon="13.4905849"><ele>312.6</ele><time>2026-05-03T07:03:51.596Z</time></trkpt><trkpt lat="46.1090906" lon="13.4904455"><ele>312.8</ele><time>2026-05-03T07:03:52.595Z</time></trkpt><trkpt lat="46.1090761" lon="13.4903139"><ele>313.0</ele><time>2026-05-03T07:03:53.595Z</time></trkpt><trkpt lat="46.109056" lon="13.4901893"><ele>315.3333333333333</ele><time>2026-05-03T07:03:54.595Z</time></trkpt><trkpt lat="46.1090332" lon="13.4900678"><ele>317.66666666666663</ele><time>2026-05-03T07:03:55.595Z</time></trkpt><trkpt lat="46.1090074" lon="13.4899561"><ele>320.0</ele><time>2026-05-03T07:03:56.595Z</time></trkpt><trkpt lat="46.1089703" lon="13.4898638"><ele>322.3333333333333</ele><time>2026-05-03T07:03:57.596Z</time></trkpt><trkpt lat="46.1089209" lon="13.4897774"><ele>324.6666666666667</ele><time>2026-05-03T07:03:58.594Z</time></trkpt><trkpt lat="46.1088694" lon="13.4897018"><ele>327.0</ele><time>2026-05-03T07:03:59.595Z</time></trkpt><trkpt lat="46.1088093" lon="13.4896352"><ele>323.5</ele><time>2026-05-03T07:04:00.595Z</time></trkpt><trkpt lat="46.1087441" lon="13.4895754"><ele>320.0</ele><time>2026-05-03T07:04:01.596Z</time></trkpt><trkpt lat="46.1086692" lon="13.4895135"><ele>316.5</ele><time>2026-05-03T07:04:02.595Z</time></trkpt><trkpt lat="46.1085903" lon="13.4894552"><ele>313.0</ele><time>2026-05-03T07:04:03.594Z</time></trkpt><trkpt lat="46.1085043" lon="13.4894022"><ele>309.5</ele><time>2026-05-03T07:04:04.594Z</time></trkpt><trkpt lat="46.1084212" lon="13.4893533"><ele>306.0</ele><time>2026-05-03T07:04:05.596Z</time></trkpt><trkpt lat="46.1083514" lon="13.4893014"><ele>306.0</ele><time>2026-05-03T07:04:06.594Z</time></trkpt><trkpt lat="46.1082768" lon="13.4891871"><ele>306.0</ele><time>2026-05-03T07:04:08.594Z</time></trkpt><trkpt lat="46.1082586" lon="13.4890446"><ele>306.0</ele><time>2026-05-03T07:04:10.595Z</time></trkpt><trkpt lat="46.1082636" lon="13.4888516"><ele>306.0</ele><time>2026-05-03T07:04:12.595Z</time></trkpt><trkpt lat="46.1082714" lon="13.4887344"><ele>306.0</ele><time>2026-05-03T07:04:13.595Z</time></trkpt><trkpt lat="46.1082817" lon="13.4886148"><ele>304.6</ele><time>2026-05-03T07:04:14.594Z</time></trkpt><trkpt lat="46.1082904" lon="13.4884925"><ele>303.20000000000005</ele><time>2026-05-03T07:04:15.593Z</time></trkpt><trkpt lat="46.1082958" lon="13.4883677"><ele>301.79999999999995</ele><time>2026-05-03T07:04:16.595Z</time></trkpt><trkpt lat="46.1082985" lon="13.4882385"><ele>300.4</ele><time>2026-05-03T07:04:17.594Z</time></trkpt><trkpt lat="46.1083064" lon="13.4881028"><ele>299.0</ele><time>2026-05-03T07:04:18.595Z</time></trkpt><trkpt lat="46.1083168" lon="13.4879675"><ele>299.5</ele><time>2026-05-03T07:04:19.594Z</time></trkpt><trkpt lat="46.1083256" lon="13.4878339"><ele>300.0</ele><time>2026-05-03T07:04:20.596Z</time></trkpt><trkpt lat="46.1083301" lon="13.4877058"><ele>300.5</ele><time>2026-05-03T07:04:21.595Z</time></trkpt><trkpt lat="46.1083302" lon="13.4875832"><ele>301.0</ele><time>2026-05-03T07:04:22.595Z</time></trkpt><trkpt lat="46.1083249" lon="13.4874592"><ele>301.5</ele><time>2026-05-03T07:04:23.595Z</time></trkpt><trkpt lat="46.1083191" lon="13.4873245"><ele>302.0</ele><time>2026-05-03T07:04:24.594Z</time></trkpt><trkpt lat="46.1083087" lon="13.4871766"><ele>300.6</ele><time>2026-05-03T07:04:25.594Z</time></trkpt><trkpt lat="46.1082955" lon="13.487026"><ele>299.2</ele><time>2026-05-03T07:04:26.595Z</time></trkpt><trkpt lat="46.1082794" lon="13.4868808"><ele>297.8</ele><time>2026-05-03T07:04:27.594Z</time></trkpt><trkpt lat="46.1082632" lon="13.4867368"><ele>296.4</ele><time>2026-05-03T07:04:28.594Z</time></trkpt><trkpt lat="46.1082499" lon="13.4866024"><ele>295.0</ele><time>2026-05-03T07:04:29.594Z</time></trkpt><trkpt lat="46.1082374" lon="13.4864753"><ele>300.00000000000006</ele><time>2026-05-03T07:04:30.594Z</time></trkpt><trkpt lat="46.1082229" lon="13.4863553"><ele>305.0</ele><time>2026-05-03T07:04:31.597Z</time></trkpt><trkpt lat="46.1082047" lon="13.4862473"><ele>310.0</ele><time>2026-05-03T07:04:32.596Z</time></trkpt><trkpt lat="46.1081861" lon="13.4861517"><ele>315.0</ele><time>2026-05-03T07:04:33.595Z</time></trkpt><trkpt lat="46.1081636" lon="13.4860667"><ele>320.0</ele><time>2026-05-03T07:04:34.595Z</time></trkpt><trkpt lat="46.1081343" lon="13.4859822"><ele>325.00000000000006</ele><time>2026-05-03T07:04:35.595Z</time></trkpt><trkpt lat="46.1081023" lon="13.4858871"><ele>330.0</ele><time>2026-05-03T07:04:36.596Z</time></trkpt><trkpt lat="46.1080663" lon="13.4857845"><ele>330.0</ele><time>2026-05-03T07:04:37.595Z</time></trkpt><trkpt lat="46.1080249" lon="13.4856597"><ele>330.0</ele><time>2026-05-03T07:04:38.596Z</time></trkpt><trkpt lat="46.1079853" lon="13.4855203"><ele>330.0</ele><time>2026-05-03T07:04:39.596Z</time></trkpt><trkpt lat="46.1079477" lon="13.4853702"><ele>330.0</ele><time>2026-05-03T07:04:40.594Z</time></trkpt><trkpt lat="46.1079118" lon="13.4852237"><ele>330.0</ele><time>2026-05-03T07:04:41.595Z</time></trkpt><trkpt lat="46.1078802" lon="13.4850816"><ele>330.0</ele><time>2026-05-03T07:04:42.596Z</time></trkpt><trkpt lat="46.107859" lon="13.4849473"><ele>330.0</ele><time>2026-05-03T07:04:43.595Z</time></trkpt><trkpt lat="46.1078467" lon="13.4848195"><ele>330.0</ele><time>2026-05-03T07:04:44.596Z</time></trkpt><trkpt lat="46.1078427" lon="13.4846886"><ele>330.0</ele><time>2026-05-03T07:04:45.594Z</time></trkpt><trkpt lat="46.1078471" lon="13.4845468"><ele>330.0</ele><time>2026-05-03T07:04:46.594Z</time></trkpt><trkpt lat="46.107854" lon="13.4843994"><ele>331.4</ele><time>2026-05-03T07:04:47.594Z</time></trkpt><trkpt lat="46.1078639" lon="13.4842597"><ele>332.8</ele><time>2026-05-03T07:04:48.595Z</time></trkpt><trkpt lat="46.1078813" lon="13.4841274"><ele>334.20000000000005</ele><time>2026-05-03T07:04:49.595Z</time></trkpt><trkpt lat="46.1079035" lon="13.4840056"><ele>335.6</ele><time>2026-05-03T07:04:50.597Z</time></trkpt><trkpt lat="46.1079293" lon="13.4838827"><ele>337.0</ele><time>2026-05-03T07:04:51.594Z</time></trkpt><trkpt lat="46.1079657" lon="13.4837583"><ele>338.0</ele><time>2026-05-03T07:04:52.594Z</time></trkpt><trkpt lat="46.1080026" lon="13.4836313"><ele>339.0</ele><time>2026-05-03T07:04:53.595Z</time></trkpt><trkpt lat="46.1080296" lon="13.4835018"><ele>340.0</ele><time>2026-05-03T07:04:54.596Z</time></trkpt><trkpt lat="46.1080499" lon="13.4833712"><ele>341.0</ele><time>2026-05-03T07:04:55.594Z</time></trkpt><trkpt lat="46.1080593" lon="13.4832301"><ele>342.0</ele><time>2026-05-03T07:04:56.595Z</time></trkpt><trkpt lat="46.1080524" lon="13.4830864"><ele>342.0</ele><time>2026-05-03T07:04:57.595Z</time></trkpt><trkpt lat="46.108046" lon="13.482942"><ele>342.0</ele><time>2026-05-03T07:04:58.594Z</time></trkpt><trkpt lat="46.1080421" lon="13.4828131"><ele>342.0</ele><time>2026-05-03T07:04:59.597Z</time></trkpt><trkpt lat="46.1080443" lon="13.4826994"><ele>342.0</ele><time>2026-05-03T07:05:00.597Z</time></trkpt><trkpt lat="46.1080499" lon="13.4825948"><ele>342.0</ele><time>2026-05-03T07:05:01.596Z</time></trkpt><trkpt lat="46.1080505" lon="13.4825016"><ele>342.0</ele><time>2026-05-03T07:05:02.597Z</time></trkpt><trkpt lat="46.1080236" lon="13.4823461"><ele>341.0</ele><time>2026-05-03T07:05:04.595Z</time></trkpt><trkpt lat="46.1079432" lon="13.4821987"><ele>340.0</ele><time>2026-05-03T07:05:06.595Z</time></trkpt><trkpt lat="46.1078895" lon="13.4821157"><ele>339.0</ele><time>2026-05-03T07:05:07.595Z</time></trkpt><trkpt lat="46.1078351" lon="13.4820271"><ele>338.0</ele><time>2026-05-03T07:05:08.595Z</time></trkpt><trkpt lat="46.1077812" lon="13.481926"><ele>337.0</ele><time>2026-05-03T07:05:09.595Z</time></trkpt><trkpt lat="46.1077311" lon="13.4818146"><ele>334.0</ele><time>2026-05-03T07:05:10.596Z</time></trkpt><trkpt lat="46.1076852" lon="13.4817067"><ele>331.0</ele><time>2026-05-03T07:05:11.594Z</time></trkpt><trkpt lat="46.1076464" lon="13.4816071"><ele>328.0</ele><time>2026-05-03T07:05:12.595Z</time></trkpt><trkpt lat="46.1076156" lon="13.4815074"><ele>325.0</ele><time>2026-05-03T07:05:13.596Z</time></trkpt><trkpt lat="46.1075879" lon="13.4814081"><ele>322.0</ele><time>2026-05-03T07:05:14.596Z</time></trkpt><trkpt lat="46.107559" lon="13.4813103"><ele>319.0</ele><time>2026-05-03T07:05:15.594Z</time></trkpt><trkpt lat="46.1075321" lon="13.481215"><ele>315.66666666666663</ele><time>2026-05-03T07:05:16.594Z</time></trkpt><trkpt lat="46.1075117" lon="13.4811177"><ele>312.3333333333333</ele><time>2026-05-03T07:05:17.594Z</time></trkpt><trkpt lat="46.1074928" lon="13.4810142"><ele>309.0</ele><time>2026-05-03T07:05:18.595Z</time></trkpt><trkpt lat="46.1074769" lon="13.4809096"><ele>305.6666666666667</ele><time>2026-05-03T07:05:19.594Z</time></trkpt><trkpt lat="46.1074652" lon="13.4808144"><ele>302.33333333333337</ele><time>2026-05-03T07:05:20.594Z</time></trkpt><trkpt lat="46.1074518" lon="13.4807224"><ele>299.0</ele><time>2026-05-03T07:05:21.595Z</time></trkpt><trkpt lat="46.1074291" lon="13.4805706"><ele>296.8</ele><time>2026-05-03T07:05:23.594Z</time></trkpt><trkpt lat="46.1074016" lon="13.4804326"><ele>294.59999999999997</ele><time>2026-05-03T07:05:25.595Z</time></trkpt><trkpt lat="46.1073731" lon="13.4802986"><ele>292.4</ele><time>2026-05-03T07:05:27.594Z</time></trkpt><trkpt lat="46.1073406" lon="13.4801932"><ele>290.2</ele><time>2026-05-03T07:05:29.595Z</time></trkpt><trkpt lat="46.1072705" lon="13.4801193"><ele>288.0</ele><time>2026-05-03T07:05:31.594Z</time></trkpt><trkpt lat="46.1071531" lon="13.4800902"><ele>288.0</ele><time>2026-05-03T07:05:33.594Z</time></trkpt><trkpt lat="46.1070787" lon="13.4800906"><ele>288.0</ele><time>2026-05-03T07:05:34.594Z</time></trkpt><trkpt lat="46.1069977" lon="13.4800973"><ele>288.0</ele><time>2026-05-03T07:05:35.594Z</time></trkpt><trkpt lat="46.106917" lon="13.4801069"><ele>288.0</ele><time>2026-05-03T07:05:36.594Z</time></trkpt><trkpt lat="46.1068376" lon="13.4801162"><ele>288.0</ele><time>2026-05-03T07:05:37.595Z</time></trkpt><trkpt lat="46.1067571" lon="13.4801233"><ele>288.0</ele><time>2026-05-03T07:05:38.595Z</time></trkpt><trkpt lat="46.1066793" lon="13.4801314"><ele>288.0</ele><time>2026-05-03T07:05:39.595Z</time></trkpt><trkpt lat="46.1065992" lon="13.4801418"><ele>288.0</ele><time>2026-05-03T07:05:40.595Z</time></trkpt><trkpt lat="46.1065169" lon="13.4801674"><ele>288.0</ele><time>2026-05-03T07:05:41.595Z</time></trkpt><trkpt lat="46.1064285" lon="13.480211"><ele>288.0</ele><time>2026-05-03T07:05:42.595Z</time></trkpt><trkpt lat="46.1063359" lon="13.4802775"><ele>288.0</ele><time>2026-05-03T07:05:43.595Z</time></trkpt><trkpt lat="46.1062407" lon="13.4803438"><ele>290.5</ele><time>2026-05-03T07:05:44.594Z</time></trkpt><trkpt lat="46.1061417" lon="13.4804257"><ele>293.0</ele><time>2026-05-03T07:05:45.595Z</time></trkpt><trkpt lat="46.1060371" lon="13.4805163"><ele>295.5</ele><time>2026-05-03T07:05:46.593Z</time></trkpt><trkpt lat="46.1059317" lon="13.4806093"><ele>298.0</ele><time>2026-05-03T07:05:47.597Z</time></trkpt><trkpt lat="46.1058279" lon="13.4806988"><ele>300.2</ele><time>2026-05-03T07:05:48.594Z</time></trkpt><trkpt lat="46.1057359" lon="13.4807818"><ele>302.4</ele><time>2026-05-03T07:05:49.595Z</time></trkpt><trkpt lat="46.1056618" lon="13.4808623"><ele>304.59999999999997</ele><time>2026-05-03T07:05:50.595Z</time></trkpt><trkpt lat="46.1055978" lon="13.4809351"><ele>306.8</ele><time>2026-05-03T07:05:51.594Z</time></trkpt><trkpt lat="46.1055405" lon="13.4809989"><ele>309.0</ele><time>2026-05-03T07:05:52.596Z</time></trkpt><trkpt lat="46.1054489" lon="13.4810815"><ele>309.0</ele><time>2026-05-03T07:05:54.595Z</time></trkpt><trkpt lat="46.1053653" lon="13.4810658"><ele>309.0</ele><time>2026-05-03T07:05:56.594Z</time></trkpt><trkpt lat="46.1052929" lon="13.4809526"><ele>309.0</ele><time>2026-05-03T07:05:58.594Z</time></trkpt><trkpt lat="46.1052704" lon="13.4808544"><ele>309.0</ele><time>2026-05-03T07:05:59.595Z</time></trkpt><trkpt lat="46.1052659" lon="13.4807197"><ele>309.0</ele><time>2026-05-03T07:06:00.595Z</time></trkpt><trkpt lat="46.1052806" lon="13.4805464"><ele>305.4</ele><time>2026-05-03T07:06:01.596Z</time></trkpt><trkpt lat="46.1052965" lon="13.4803656"><ele>301.79999999999995</ele><time>2026-05-03T07:06:02.595Z</time></trkpt><trkpt lat="46.1053077" lon="13.4802031"><ele>298.20000000000005</ele><time>2026-05-03T07:06:03.595Z</time></trkpt><trkpt lat="46.1053148" lon="13.4800623"><ele>294.6</ele><time>2026-05-03T07:06:04.594Z</time></trkpt><trkpt lat="46.1053186" lon="13.4799422"><ele>291.0</ele><time>2026-05-03T07:06:05.594Z</time></trkpt><trkpt lat="46.10532" lon="13.4798356"><ele>291.0</ele><time>2026-05-03T07:06:06.594Z</time></trkpt><trkpt lat="46.1053175" lon="13.4797417"><ele>291.0</ele><time>2026-05-03T07:06:07.596Z</time></trkpt><trkpt lat="46.1052792" lon="13.4795916"><ele>291.0</ele><time>2026-05-03T07:06:09.595Z</time></trkpt><trkpt lat="46.1051938" lon="13.4795032"><ele>291.0</ele><time>2026-05-03T07:06:11.595Z</time></trkpt><trkpt lat="46.105082" lon="13.4794526"><ele>291.0</ele><time>2026-05-03T07:06:13.594Z</time></trkpt><trkpt lat="46.1050143" lon="13.4794238"><ele>287.8333333333333</ele><time>2026-05-03T07:06:14.598Z</time></trkpt><trkpt lat="46.1049454" lon="13.4793944"><ele>284.6666666666667</ele><time>2026-05-03T07:06:15.594Z</time></trkpt><trkpt lat="46.104878" lon="13.479364"><ele>281.5</ele><time>2026-05-03T07:06:16.595Z</time></trkpt><trkpt lat="46.1048159" lon="13.4793292"><ele>278.33333333333337</ele><time>2026-05-03T07:06:17.594Z</time></trkpt><trkpt lat="46.104714" lon="13.4792626"><ele>275.1666666666667</ele><time>2026-05-03T07:06:19.594Z</time></trkpt><trkpt lat="46.1046597" lon="13.4791815"><ele>272.0</ele><time>2026-05-03T07:06:21.594Z</time></trkpt><trkpt lat="46.1046192" lon="13.4789675"><ele>272.0</ele><time>2026-05-03T07:06:23.595Z</time></trkpt><trkpt lat="46.104594" lon="13.478801"><ele>272.0</ele><time>2026-05-03T07:06:24.595Z</time></trkpt><trkpt lat="46.104556" lon="13.4786314"><ele>272.0</ele><time>2026-05-03T07:06:25.595Z</time></trkpt><trkpt lat="46.1045184" lon="13.4784485"><ele>272.0</ele><time>2026-05-03T07:06:26.596Z</time></trkpt><trkpt lat="46.1044854" lon="13.4782682"><ele>269.8</ele><time>2026-05-03T07:06:27.595Z</time></trkpt><trkpt lat="46.1044501" lon="13.4780933"><ele>267.6</ele><time>2026-05-03T07:06:28.596Z</time></trkpt><trkpt lat="46.1044204" lon="13.4779295"><ele>265.40000000000003</ele><time>2026-05-03T07:06:29.594Z</time></trkpt><trkpt lat="46.1043955" lon="13.4777903"><ele>263.2</ele><time>2026-05-03T07:06:30.594Z</time></trkpt><trkpt lat="46.1043727" lon="13.4776744"><ele>261.0</ele><time>2026-05-03T07:06:31.594Z</time></trkpt><trkpt lat="46.104333" lon="13.4775934"><ele>258.5</ele><time>2026-05-03T07:06:32.595Z</time></trkpt><trkpt lat="46.1042757" lon="13.4775458"><ele>256.0</ele><time>2026-05-03T07:06:33.595Z</time></trkpt><trkpt lat="46.1042098" lon="13.4775223"><ele>253.5</ele><time>2026-05-03T07:06:34.595Z</time></trkpt><trkpt lat="46.1041285" lon="13.4775364"><ele>251.0</ele><time>2026-05-03T07:06:35.595Z</time></trkpt><trkpt lat="46.1040393" lon="13.477564"><ele>248.5</ele><time>2026-05-03T07:06:36.594Z</time></trkpt><trkpt lat="46.1039533" lon="13.4775976"><ele>246.0</ele><time>2026-05-03T07:06:37.594Z</time></trkpt><trkpt lat="46.1038719" lon="13.4776683"><ele>242.75</ele><time>2026-05-03T07:06:38.596Z</time></trkpt><trkpt lat="46.1037922" lon="13.4777691"><ele>239.5</ele><time>2026-05-03T07:06:39.595Z</time></trkpt><trkpt lat="46.1037139" lon="13.4778965"><ele>236.25</ele><time>2026-05-03T07:06:40.596Z</time></trkpt><trkpt lat="46.1036438" lon="13.4780524"><ele>233.0</ele><time>2026-05-03T07:06:41.596Z</time></trkpt><trkpt lat="46.1035703" lon="13.4782095"><ele>233.0</ele><time>2026-05-03T07:06:42.595Z</time></trkpt><trkpt lat="46.1035095" lon="13.4783699"><ele>233.0</ele><time>2026-05-03T07:06:43.596Z</time></trkpt><trkpt lat="46.1034394" lon="13.4785122"><ele>233.0</ele><time>2026-05-03T07:06:44.595Z</time></trkpt><trkpt lat="46.1033895" lon="13.4786456"><ele>233.0</ele><time>2026-05-03T07:06:45.596Z</time></trkpt><trkpt lat="46.1033448" lon="13.478782"><ele>235.75</ele><time>2026-05-03T07:06:46.595Z</time></trkpt><trkpt lat="46.103292" lon="13.478941"><ele>238.5</ele><time>2026-05-03T07:06:47.595Z</time></trkpt><trkpt lat="46.1032304" lon="13.4791139"><ele>241.25</ele><time>2026-05-03T07:06:48.595Z</time></trkpt><trkpt lat="46.1031675" lon="13.4792898"><ele>244.0</ele><time>2026-05-03T07:06:49.596Z</time></trkpt><trkpt lat="46.1031068" lon="13.47946"><ele>240.2</ele><time>2026-05-03T07:06:50.595Z</time></trkpt><trkpt lat="46.1030463" lon="13.4796127"><ele>236.39999999999998</ele><time>2026-05-03T07:06:51.596Z</time></trkpt><trkpt lat="46.102975" lon="13.47974"><ele>232.6</ele><time>2026-05-03T07:06:52.595Z</time></trkpt><trkpt lat="46.1029017" lon="13.479855"><ele>228.8</ele><time>2026-05-03T07:06:53.595Z</time></trkpt><trkpt lat="46.102825" lon="13.4799567"><ele>225.0</ele><time>2026-05-03T07:06:54.595Z</time></trkpt><trkpt lat="46.102735" lon="13.4800467"><ele>225.0</ele><time>2026-05-03T07:06:55.595Z</time></trkpt><trkpt lat="46.102645" lon="13.480125"><ele>225.0</ele><time>2026-05-03T07:06:56.596Z</time></trkpt><trkpt lat="46.1025533" lon="13.4802033"><ele>225.0</ele><time>2026-05-03T07:06:57.595Z</time></trkpt><trkpt lat="46.1024567" lon="13.4802833"><ele>225.0</ele><time>2026-05-03T07:06:58.596Z</time></trkpt><trkpt lat="46.1023583" lon="13.4803783"><ele>225.0</ele><time>2026-05-03T07:06:59.595Z</time></trkpt><trkpt lat="46.1022633" lon="13.4804767"><ele>220.75</ele><time>2026-05-03T07:07:00.595Z</time></trkpt><trkpt lat="46.1021667" lon="13.4805667"><ele>216.5</ele><time>2026-05-03T07:07:01.595Z</time></trkpt><trkpt lat="46.1020783" lon="13.48067"><ele>212.25</ele><time>2026-05-03T07:07:02.595Z</time></trkpt><trkpt lat="46.1019967" lon="13.4807867"><ele>208.0</ele><time>2026-05-03T07:07:03.597Z</time></trkpt><trkpt lat="46.1019233" lon="13.4809233"><ele>208.0</ele><time>2026-05-03T07:07:04.595Z</time></trkpt><trkpt lat="46.1018583" lon="13.48107"><ele>208.0</ele><time>2026-05-03T07:07:05.595Z</time></trkpt><trkpt lat="46.1018083" lon="13.4812067"><ele>208.0</ele><time>2026-05-03T07:07:06.596Z</time></trkpt><trkpt lat="46.1017667" lon="13.4813317"><ele>208.0</ele><time>2026-05-03T07:07:07.595Z</time></trkpt><trkpt lat="46.101735" lon="13.4814417"><ele>208.0</ele><time>2026-05-03T07:07:08.596Z</time></trkpt><trkpt lat="46.1017033" lon="13.4815283"><ele>207.8</ele><time>2026-05-03T07:07:09.595Z</time></trkpt><trkpt lat="46.1016217" lon="13.4816367"><ele>207.60000000000002</ele><time>2026-05-03T07:07:11.596Z</time></trkpt><trkpt lat="46.1014817" lon="13.4816067"><ele>207.39999999999998</ele><time>2026-05-03T07:07:13.595Z</time></trkpt><trkpt lat="46.101405" lon="13.4815883"><ele>207.2</ele><time>2026-05-03T07:07:14.595Z</time></trkpt><trkpt lat="46.1013317" lon="13.4815917"><ele>207.0</ele><time>2026-05-03T07:07:15.597Z</time></trkpt><trkpt lat="46.1012667" lon="13.4816217"><ele>207.0</ele><time>2026-05-03T07:07:16.595Z</time></trkpt><trkpt lat="46.1011983" lon="13.4816883"><ele>207.0</ele><time>2026-05-03T07:07:17.595Z</time></trkpt><trkpt lat="46.1011283" lon="13.4817533"><ele>207.0</ele><time>2026-05-03T07:07:18.595Z</time></trkpt><trkpt lat="46.101055" lon="13.4818217"><ele>207.0</ele><time>2026-05-03T07:07:19.596Z</time></trkpt><trkpt lat="46.1009817" lon="13.4818717"><ele>207.0</ele><time>2026-05-03T07:07:20.596Z</time></trkpt><trkpt lat="46.1009083" lon="13.4818983"><ele>207.0</ele><time>2026-05-03T07:07:21.596Z</time></trkpt><trkpt lat="46.1008267" lon="13.4818917"><ele>205.8</ele><time>2026-05-03T07:07:22.596Z</time></trkpt><trkpt lat="46.100745" lon="13.481825"><ele>204.6</ele><time>2026-05-03T07:07:23.595Z</time></trkpt><trkpt lat="46.1006617" lon="13.4817483"><ele>203.4</ele><time>2026-05-03T07:07:24.596Z</time></trkpt><trkpt lat="46.1005833" lon="13.4816833"><ele>202.20000000000002</ele><time>2026-05-03T07:07:25.596Z</time></trkpt><trkpt lat="46.1005117" lon="13.4816083"><ele>201.0</ele><time>2026-05-03T07:07:26.596Z</time></trkpt><trkpt lat="46.1004383" lon="13.4815167"><ele>201.0</ele><time>2026-05-03T07:07:27.596Z</time></trkpt><trkpt lat="46.10037" lon="13.4814033"><ele>201.0</ele><time>2026-05-03T07:07:28.595Z</time></trkpt><trkpt lat="46.1003083" lon="13.4812867"><ele>201.0</ele><time>2026-05-03T07:07:29.595Z</time></trkpt><trkpt lat="46.1002433" lon="13.4811867"><ele>201.0</ele><time>2026-05-03T07:07:30.596Z</time></trkpt><trkpt lat="46.10018" lon="13.4811033"><ele>201.0</ele><time>2026-05-03T07:07:31.595Z</time></trkpt><trkpt lat="46.10012" lon="13.4810367"><ele>197.0</ele><time>2026-05-03T07:07:32.597Z</time></trkpt><trkpt lat="46.0999867" lon="13.4810567"><ele>193.0</ele><time>2026-05-03T07:07:34.596Z</time></trkpt><trkpt lat="46.0999133" lon="13.4811167"><ele>189.0</ele><time>2026-05-03T07:07:35.596Z</time></trkpt><trkpt lat="46.0998567" lon="13.4812517"><ele>185.0</ele><time>2026-05-03T07:07:36.595Z</time></trkpt><trkpt lat="46.0997983" lon="13.4813567"><ele>181.0</ele><time>2026-05-03T07:07:37.595Z</time></trkpt><trkpt lat="46.0997267" lon="13.4814233"><ele>179.8</ele><time>2026-05-03T07:07:38.595Z</time></trkpt><trkpt lat="46.09965" lon="13.4814617"><ele>178.60000000000002</ele><time>2026-05-03T07:07:39.595Z</time></trkpt><trkpt lat="46.099545" lon="13.4814583"><ele>177.4</ele><time>2026-05-03T07:07:41.596Z</time></trkpt><trkpt lat="46.0995633" lon="13.481305"><ele>176.2</ele><time>2026-05-03T07:07:43.596Z</time></trkpt><trkpt lat="46.099635" lon="13.4812217"><ele>175.0</ele><time>2026-05-03T07:07:44.595Z</time></trkpt><trkpt lat="46.099715" lon="13.4811267"><ele>174.0</ele><time>2026-05-03T07:07:45.595Z</time></trkpt><trkpt lat="46.0997817" lon="13.4810133"><ele>173.0</ele><time>2026-05-03T07:07:46.596Z</time></trkpt><trkpt lat="46.0998367" lon="13.4808767"><ele>172.0</ele><time>2026-05-03T07:07:47.595Z</time></trkpt><trkpt lat="46.0998767" lon="13.480735"><ele>171.0</ele><time>2026-05-03T07:07:48.596Z</time></trkpt><trkpt lat="46.09991" lon="13.4806183"><ele>170.0</ele><time>2026-05-03T07:07:49.595Z</time></trkpt><trkpt lat="46.0999667" lon="13.4805433"><ele>171.83333333333331</ele><time>2026-05-03T07:07:50.596Z</time></trkpt><trkpt lat="46.1000417" lon="13.4805133"><ele>173.66666666666666</ele><time>2026-05-03T07:07:51.596Z</time></trkpt><trkpt lat="46.100115" lon="13.480525"><ele>175.5</ele><time>2026-05-03T07:07:52.595Z</time></trkpt><trkpt lat="46.1001767" lon="13.4805983"><ele>177.33333333333334</ele><time>2026-05-03T07:07:53.596Z</time></trkpt><trkpt lat="46.1002217" lon="13.480725"><ele>179.16666666666669</ele><time>2026-05-03T07:07:54.596Z</time></trkpt><trkpt lat="46.10028" lon="13.48082"><ele>181.0</ele><time>2026-05-03T07:07:55.595Z</time></trkpt><trkpt lat="46.10036" lon="13.4808917"><ele>181.0</ele><time>2026-05-03T07:07:56.596Z</time></trkpt><trkpt lat="46.1004533" lon="13.48095"><ele>181.0</ele><time>2026-05-03T07:07:57.596Z</time></trkpt><trkpt lat="46.1005367" lon="13.4809883"><ele>181.0</ele><time>2026-05-03T07:07:58.594Z</time></trkpt><trkpt lat="46.100605" lon="13.481035"><ele>181.0</ele><time>2026-05-03T07:07:59.596Z</time></trkpt><trkpt lat="46.1006617" lon="13.48108"><ele>181.0</ele><time>2026-05-03T07:08:00.595Z</time></trkpt><trkpt lat="46.1007517" lon="13.481035"><ele>181.0</ele><time>2026-05-03T07:08:02.595Z</time></trkpt><trkpt lat="46.1008267" lon="13.480845"><ele>181.25</ele><time>2026-05-03T07:08:04.595Z</time></trkpt><trkpt lat="46.1008533" lon="13.4806267"><ele>181.5</ele><time>2026-05-03T07:08:05.596Z</time></trkpt><trkpt lat="46.1008933" lon="13.480425"><ele>181.75</ele><time>2026-05-03T07:08:06.595Z</time></trkpt><trkpt lat="46.1009217" lon="13.480225"><ele>182.0</ele><time>2026-05-03T07:08:07.594Z</time></trkpt><trkpt lat="46.1009483" lon="13.480025"><ele>177.75</ele><time>2026-05-03T07:08:08.594Z</time></trkpt><trkpt lat="46.1009717" lon="13.47982"><ele>173.5</ele><time>2026-05-03T07:08:09.594Z</time></trkpt><trkpt lat="46.1010033" lon="13.4796417"><ele>169.25</ele><time>2026-05-03T07:08:10.595Z</time></trkpt><trkpt lat="46.1010267" lon="13.4794833"><ele>165.0</ele><time>2026-05-03T07:08:11.595Z</time></trkpt><trkpt lat="46.1010617" lon="13.47936"><ele>164.0</ele><time>2026-05-03T07:08:12.595Z</time></trkpt><trkpt lat="46.1011183" lon="13.4792683"><ele>163.0</ele><time>2026-05-03T07:08:13.594Z</time></trkpt><trkpt lat="46.1011833" lon="13.4791933"><ele>162.0</ele><time>2026-05-03T07:08:14.594Z</time></trkpt><trkpt lat="46.10127" lon="13.4791333"><ele>161.0</ele><time>2026-05-03T07:08:15.595Z</time></trkpt><trkpt lat="46.1013733" lon="13.4790767"><ele>160.0</ele><time>2026-05-03T07:08:16.594Z</time></trkpt><trkpt lat="46.1014667" lon="13.4790033"><ele>160.0</ele><time>2026-05-03T07:08:17.594Z</time></trkpt><trkpt lat="46.1015467" lon="13.478915"><ele>160.0</ele><time>2026-05-03T07:08:18.595Z</time></trkpt><trkpt lat="46.101615" lon="13.4788167"><ele>160.0</ele><time>2026-05-03T07:08:19.597Z</time></trkpt><trkpt lat="46.1016733" lon="13.4786967"><ele>160.0</ele><time>2026-05-03T07:08:20.595Z</time></trkpt><trkpt lat="46.1017283" lon="13.4785733"><ele>160.0</ele><time>2026-05-03T07:08:21.594Z</time></trkpt><trkpt lat="46.1017683" lon="13.4784333"><ele>159.8</ele><time>2026-05-03T07:08:22.595Z</time></trkpt><trkpt lat="46.1017917" lon="13.47828"><ele>159.6</ele><time>2026-05-03T07:08:23.594Z</time></trkpt><trkpt lat="46.101815" lon="13.4781217"><ele>159.4</ele><time>2026-05-03T07:08:24.596Z</time></trkpt><trkpt lat="46.1018333" lon="13.477965"><ele>159.2</ele><time>2026-05-03T07:08:25.595Z</time></trkpt><trkpt lat="46.101835" lon="13.477805"><ele>159.0</ele><time>2026-05-03T07:08:26.595Z</time></trkpt><trkpt lat="46.101825" lon="13.4776383"><ele>159.0</ele><time>2026-05-03T07:08:27.595Z</time></trkpt><trkpt lat="46.1018333" lon="13.4774617"><ele>159.0</ele><time>2026-05-03T07:08:28.596Z</time></trkpt><trkpt lat="46.101855" lon="13.4772783"><ele>159.0</ele><time>2026-05-03T07:08:29.594Z</time></trkpt><trkpt lat="46.1018717" lon="13.4771"><ele>159.0</ele><time>2026-05-03T07:08:30.594Z</time></trkpt><trkpt lat="46.1018717" lon="13.4769283"><ele>159.0</ele><time>2026-05-03T07:08:31.594Z</time></trkpt><trkpt lat="46.1018667" lon="13.4767717"><ele>159.0</ele><time>2026-05-03T07:08:32.595Z</time></trkpt><trkpt lat="46.1018683" lon="13.4766183"><ele>159.0</ele><time>2026-05-03T07:08:33.594Z</time></trkpt><trkpt lat="46.1018633" lon="13.47647"><ele>159.0</ele><time>2026-05-03T07:08:34.594Z</time></trkpt><trkpt lat="46.101865" lon="13.4763283"><ele>159.0</ele><time>2026-05-03T07:08:35.594Z</time></trkpt><trkpt lat="46.1018767" lon="13.4761967"><ele>159.0</ele><time>2026-05-03T07:08:36.593Z</time></trkpt><trkpt lat="46.1018817" lon="13.4760633"><ele>159.0</ele><time>2026-05-03T07:08:37.595Z</time></trkpt><trkpt lat="46.1018733" lon="13.4759233"><ele>159.0</ele><time>2026-05-03T07:08:38.594Z</time></trkpt><trkpt lat="46.1018517" lon="13.47578"><ele>159.0</ele><time>2026-05-03T07:08:39.593Z</time></trkpt><trkpt lat="46.1018383" lon="13.4756533"><ele>159.0</ele><time>2026-05-03T07:08:40.593Z</time></trkpt><trkpt lat="46.1018233" lon="13.4755433"><ele>158.8</ele><time>2026-05-03T07:08:41.594Z</time></trkpt><trkpt lat="46.1018083" lon="13.4754133"><ele>158.60000000000002</ele><time>2026-05-03T07:08:43.595Z</time></trkpt><trkpt lat="46.1017733" lon="13.475285"><ele>158.4</ele><time>2026-05-03T07:08:46.594Z</time></trkpt><trkpt lat="46.101675" lon="13.475195"><ele>158.20000000000002</ele><time>2026-05-03T07:08:48.593Z</time></trkpt><trkpt lat="46.1016067" lon="13.4751333"><ele>158.0</ele><time>2026-05-03T07:08:49.594Z</time></trkpt><trkpt lat="46.10154" lon="13.4750517"><ele>157.20000000000002</ele><time>2026-05-03T07:08:50.595Z</time></trkpt><trkpt lat="46.1014817" lon="13.4749417"><ele>156.4</ele><time>2026-05-03T07:08:51.593Z</time></trkpt><trkpt lat="46.10141" lon="13.4748367"><ele>155.60000000000002</ele><time>2026-05-03T07:08:52.594Z</time></trkpt><trkpt lat="46.1013133" lon="13.47476"><ele>154.8</ele><time>2026-05-03T07:08:53.593Z</time></trkpt><trkpt lat="46.101205" lon="13.4746883"><ele>154.0</ele><time>2026-05-03T07:08:54.593Z</time></trkpt><trkpt lat="46.1011033" lon="13.4746033"><ele>154.0</ele><time>2026-05-03T07:08:55.594Z</time></trkpt><trkpt lat="46.101005" lon="13.474515"><ele>154.0</ele><time>2026-05-03T07:08:56.595Z</time></trkpt><trkpt lat="46.100905" lon="13.4744217"><ele>154.0</ele><time>2026-05-03T07:08:57.594Z</time></trkpt><trkpt lat="46.1008033" lon="13.4743467"><ele>154.0</ele><time>2026-05-03T07:08:58.595Z</time></trkpt><trkpt lat="46.1007033" lon="13.47429"><ele>153.6</ele><time>2026-05-03T07:08:59.594Z</time></trkpt><trkpt lat="46.1006117" lon="13.4742183"><ele>153.2</ele><time>2026-05-03T07:09:00.594Z</time></trkpt><trkpt lat="46.10052" lon="13.4741683"><ele>152.79999999999998</ele><time>2026-05-03T07:09:01.596Z</time></trkpt><trkpt lat="46.10043" lon="13.4741317"><ele>152.4</ele><time>2026-05-03T07:09:02.594Z</time></trkpt><trkpt lat="46.1003483" lon="13.4741067"><ele>152.0</ele><time>2026-05-03T07:09:03.594Z</time></trkpt><trkpt lat="46.1002717" lon="13.4740833"><ele>152.0</ele><time>2026-05-03T07:09:04.594Z</time></trkpt><trkpt lat="46.1002" lon="13.474055"><ele>152.0</ele><time>2026-05-03T07:09:05.594Z</time></trkpt><trkpt lat="46.1001267" lon="13.4740317"><ele>152.0</ele><time>2026-05-03T07:09:06.594Z</time></trkpt><trkpt lat="46.1000483" lon="13.474015"><ele>152.0</ele><time>2026-05-03T07:09:07.595Z</time></trkpt><trkpt lat="46.09997" lon="13.474005"><ele>152.0</ele><time>2026-05-03T07:09:08.595Z</time></trkpt><trkpt lat="46.0998917" lon="13.4739867"><ele>152.0</ele><time>2026-05-03T07:09:09.594Z</time></trkpt><trkpt lat="46.09982" lon="13.4739583"><ele>151.4</ele><time>2026-05-03T07:09:10.594Z</time></trkpt><trkpt lat="46.0997317" lon="13.4739383"><ele>150.79999999999998</ele><time>2026-05-03T07:09:11.595Z</time></trkpt><trkpt lat="46.0996367" lon="13.473895"><ele>150.2</ele><time>2026-05-03T07:09:12.595Z</time></trkpt><trkpt lat="46.099555" lon="13.47386"><ele>149.6</ele><time>2026-05-03T07:09:13.595Z</time></trkpt><trkpt lat="46.0994633" lon="13.473825"><ele>149.0</ele><time>2026-05-03T07:09:14.594Z</time></trkpt><trkpt lat="46.09938" lon="13.4737783"><ele>149.2</ele><time>2026-05-03T07:09:15.594Z</time></trkpt><trkpt lat="46.099305" lon="13.473695"><ele>149.4</ele><time>2026-05-03T07:09:16.595Z</time></trkpt><trkpt lat="46.0992467" lon="13.4735733"><ele>149.6</ele><time>2026-05-03T07:09:17.595Z</time></trkpt><trkpt lat="46.0992133" lon="13.4734183"><ele>149.8</ele><time>2026-05-03T07:09:18.596Z</time></trkpt><trkpt lat="46.0991917" lon="13.473255"><ele>150.0</ele><time>2026-05-03T07:09:19.594Z</time></trkpt><trkpt lat="46.099195" lon="13.473075"><ele>149.75</ele><time>2026-05-03T07:09:20.594Z</time></trkpt><trkpt lat="46.0991983" lon="13.47291"><ele>149.5</ele><time>2026-05-03T07:09:21.594Z</time></trkpt><trkpt lat="46.0991983" lon="13.4727467"><ele>149.25</ele><time>2026-05-03T07:09:22.593Z</time></trkpt><trkpt lat="46.0992" lon="13.47258"><ele>149.0</ele><time>2026-05-03T07:09:23.594Z</time></trkpt><trkpt lat="46.09921" lon="13.472425"><ele>149.0</ele><time>2026-05-03T07:09:24.593Z</time></trkpt><trkpt lat="46.0991967" lon="13.472275"><ele>149.0</ele><time>2026-05-03T07:09:25.593Z</time></trkpt><trkpt lat="46.0991483" lon="13.47213"><ele>149.0</ele><time>2026-05-03T07:09:26.594Z</time></trkpt><trkpt lat="46.09909" lon="13.471975"><ele>149.0</ele><time>2026-05-03T07:09:27.593Z</time></trkpt><trkpt lat="46.0990133" lon="13.4718117"><ele>148.33333333333331</ele><time>2026-05-03T07:09:28.593Z</time></trkpt><trkpt lat="46.09895" lon="13.4716217"><ele>147.66666666666666</ele><time>2026-05-03T07:09:29.593Z</time></trkpt><trkpt lat="46.098885" lon="13.47142"><ele>147.0</ele><time>2026-05-03T07:09:30.594Z</time></trkpt><trkpt lat="46.0988167" lon="13.4712217"><ele>146.33333333333334</ele><time>2026-05-03T07:09:31.595Z</time></trkpt><trkpt lat="46.0987633" lon="13.4710117"><ele>145.66666666666669</ele><time>2026-05-03T07:09:32.594Z</time></trkpt><trkpt lat="46.098705" lon="13.4708117"><ele>145.0</ele><time>2026-05-03T07:09:33.595Z</time></trkpt><trkpt lat="46.09866" lon="13.4705933"><ele>145.33333333333334</ele><time>2026-05-03T07:09:34.593Z</time></trkpt><trkpt lat="46.0986083" lon="13.470385"><ele>145.66666666666666</ele><time>2026-05-03T07:09:35.594Z</time></trkpt><trkpt lat="46.09856" lon="13.47017"><ele>146.0</ele><time>2026-05-03T07:09:36.594Z</time></trkpt><trkpt lat="46.09852" lon="13.4699583"><ele>146.0</ele><time>2026-05-03T07:09:37.594Z</time></trkpt><trkpt lat="46.0985083" lon="13.469745"><ele>146.0</ele><time>2026-05-03T07:09:38.594Z</time></trkpt><trkpt lat="46.0985133" lon="13.4695483"><ele>146.0</ele><time>2026-05-03T07:09:39.594Z</time></trkpt><trkpt lat="46.0985383" lon="13.46935"><ele>146.0</ele><time>2026-05-03T07:09:40.593Z</time></trkpt><trkpt lat="46.09858" lon="13.46914"><ele>146.0</ele><time>2026-05-03T07:09:41.594Z</time></trkpt><trkpt lat="46.09863" lon="13.46891"><ele>146.0</ele><time>2026-05-03T07:09:42.594Z</time></trkpt><trkpt lat="46.098675" lon="13.4686567"><ele>146.0</ele><time>2026-05-03T07:09:43.593Z</time></trkpt><trkpt lat="46.09873" lon="13.4684033"><ele>146.0</ele><time>2026-05-03T07:09:44.594Z</time></trkpt><trkpt lat="46.0987833" lon="13.4681467"><ele>146.0</ele><time>2026-05-03T07:09:45.594Z</time></trkpt><trkpt lat="46.0988367" lon="13.4678883"><ele>146.0</ele><time>2026-05-03T07:09:46.594Z</time></trkpt><trkpt lat="46.098895" lon="13.4676383"><ele>145.33333333333331</ele><time>2026-05-03T07:09:47.594Z</time></trkpt><trkpt lat="46.0989533" lon="13.4673867"><ele>144.66666666666666</ele><time>2026-05-03T07:09:48.593Z</time></trkpt><trkpt lat="46.0990183" lon="13.4671383"><ele>144.0</ele><time>2026-05-03T07:09:49.594Z</time></trkpt><trkpt lat="46.0990833" lon="13.4669017"><ele>144.0</ele><time>2026-05-03T07:09:50.594Z</time></trkpt><trkpt lat="46.0991383" lon="13.46666"><ele>144.0</ele><time>2026-05-03T07:09:51.593Z</time></trkpt><trkpt lat="46.099215" lon="13.4664367"><ele>144.0</ele><time>2026-05-03T07:09:52.595Z</time></trkpt><trkpt lat="46.0992717" lon="13.4661917"><ele>144.0</ele><time>2026-05-03T07:09:53.595Z</time></trkpt><trkpt lat="46.0993433" lon="13.465955"><ele>144.0</ele><time>2026-05-03T07:09:54.594Z</time></trkpt><trkpt lat="46.0994" lon="13.4657083"><ele>144.0</ele><time>2026-05-03T07:09:55.594Z</time></trkpt><trkpt lat="46.0994517" lon="13.4654633"><ele>144.0</ele><time>2026-05-03T07:09:56.594Z</time></trkpt><trkpt lat="46.0995033" lon="13.4652233"><ele>144.0</ele><time>2026-05-03T07:09:57.594Z</time></trkpt><trkpt lat="46.0995517" lon="13.464995"><ele>144.0</ele><time>2026-05-03T07:09:58.593Z</time></trkpt><trkpt lat="46.099595" lon="13.46478"><ele>144.25</ele><time>2026-05-03T07:09:59.593Z</time></trkpt><trkpt lat="46.09963" lon="13.464575"><ele>144.5</ele><time>2026-05-03T07:10:00.593Z</time></trkpt><trkpt lat="46.099665" lon="13.4643867"><ele>144.75</ele><time>2026-05-03T07:10:01.594Z</time></trkpt><trkpt lat="46.099695" lon="13.4642167"><ele>145.0</ele><time>2026-05-03T07:10:02.594Z</time></trkpt><trkpt lat="46.0997183" lon="13.46407"><ele>145.0</ele><time>2026-05-03T07:10:03.594Z</time></trkpt><trkpt lat="46.099735" lon="13.4639467"><ele>145.0</ele><time>2026-05-03T07:10:04.594Z</time></trkpt><trkpt lat="46.0997517" lon="13.4638467"><ele>145.0</ele><time>2026-05-03T07:10:05.593Z</time></trkpt><trkpt lat="46.099795" lon="13.463685"><ele>145.0</ele><time>2026-05-03T07:10:07.593Z</time></trkpt><trkpt lat="46.0997867" lon="13.46359"><ele>145.0</ele><time>2026-05-03T07:10:08.594Z</time></trkpt><trkpt lat="46.0997567" lon="13.4634783"><ele>145.0</ele><time>2026-05-03T07:10:09.593Z</time></trkpt><trkpt lat="46.0997083" lon="13.4633517"><ele>145.25</ele><time>2026-05-03T07:10:10.594Z</time></trkpt><trkpt lat="46.09963" lon="13.4632"><ele>145.5</ele><time>2026-05-03T07:10:11.593Z</time></trkpt><trkpt lat="46.0995383" lon="13.4630383"><ele>145.75</ele><time>2026-05-03T07:10:12.593Z</time></trkpt><trkpt lat="46.09945" lon="13.4628517"><ele>146.0</ele><time>2026-05-03T07:10:13.594Z</time></trkpt><trkpt lat="46.099375" lon="13.4626417"><ele>146.0</ele><time>2026-05-03T07:10:14.594Z</time></trkpt><trkpt lat="46.0992883" lon="13.4624267"><ele>146.0</ele><time>2026-05-03T07:10:15.593Z</time></trkpt><trkpt lat="46.0991883" lon="13.4622017"><ele>146.0</ele><time>2026-05-03T07:10:16.593Z</time></trkpt><trkpt lat="46.0991" lon="13.46196"><ele>145.66666666666666</ele><time>2026-05-03T07:10:17.594Z</time></trkpt><trkpt lat="46.0990267" lon="13.4617033"><ele>145.33333333333334</ele><time>2026-05-03T07:10:18.593Z</time></trkpt><trkpt lat="46.09894" lon="13.4614467"><ele>145.0</ele><time>2026-05-03T07:10:19.594Z</time></trkpt><trkpt lat="46.0988583" lon="13.46118"><ele>144.66666666666669</ele><time>2026-05-03T07:10:20.595Z</time></trkpt><trkpt lat="46.098775" lon="13.4609133"><ele>144.33333333333334</ele><time>2026-05-03T07:10:21.594Z</time></trkpt><trkpt lat="46.0987" lon="13.4606383"><ele>144.0</ele><time>2026-05-03T07:10:22.593Z</time></trkpt><trkpt lat="46.0986233" lon="13.4603583"><ele>143.66666666666666</ele><time>2026-05-03T07:10:23.595Z</time></trkpt><trkpt lat="46.0985467" lon="13.4600817"><ele>143.33333333333331</ele><time>2026-05-03T07:10:24.593Z</time></trkpt><trkpt lat="46.0984867" lon="13.4598033"><ele>143.0</ele><time>2026-05-03T07:10:25.593Z</time></trkpt><trkpt lat="46.0984283" lon="13.4595483"><ele>142.66666666666666</ele><time>2026-05-03T07:10:26.594Z</time></trkpt><trkpt lat="46.0983717" lon="13.4592983"><ele>142.33333333333334</ele><time>2026-05-03T07:10:27.595Z</time></trkpt><trkpt lat="46.0983183" lon="13.4590533"><ele>142.0</ele><time>2026-05-03T07:10:28.594Z</time></trkpt><trkpt lat="46.098265" lon="13.4588067"><ele>141.33333333333334</ele><time>2026-05-03T07:10:29.594Z</time></trkpt><trkpt lat="46.0982117" lon="13.4585567"><ele>140.66666666666666</ele><time>2026-05-03T07:10:30.594Z</time></trkpt><trkpt lat="46.0981533" lon="13.4583017"><ele>140.0</ele><time>2026-05-03T07:10:31.595Z</time></trkpt><trkpt lat="46.0980933" lon="13.45804"><ele>140.0</ele><time>2026-05-03T07:10:32.594Z</time></trkpt><trkpt lat="46.0980333" lon="13.4577733"><ele>140.0</ele><time>2026-05-03T07:10:33.594Z</time></trkpt><trkpt lat="46.0979683" lon="13.4575033"><ele>140.0</ele><time>2026-05-03T07:10:34.594Z</time></trkpt><trkpt lat="46.0979017" lon="13.4572283"><ele>140.33333333333331</ele><time>2026-05-03T07:10:35.594Z</time></trkpt><trkpt lat="46.0978333" lon="13.45695"><ele>140.66666666666666</ele><time>2026-05-03T07:10:36.593Z</time></trkpt><trkpt lat="46.0977567" lon="13.4566767"><ele>141.0</ele><time>2026-05-03T07:10:37.594Z</time></trkpt><trkpt lat="46.0976667" lon="13.45641"><ele>141.0</ele><time>2026-05-03T07:10:38.595Z</time></trkpt><trkpt lat="46.0975633" lon="13.4561533"><ele>141.0</ele><time>2026-05-03T07:10:39.594Z</time></trkpt><trkpt lat="46.0974733" lon="13.4558917"><ele>141.0</ele><time>2026-05-03T07:10:40.593Z</time></trkpt><trkpt lat="46.0973767" lon="13.4556383"><ele>141.33333333333334</ele><time>2026-05-03T07:10:41.596Z</time></trkpt><trkpt lat="46.097285" lon="13.4553883"><ele>141.66666666666669</ele><time>2026-05-03T07:10:42.595Z</time></trkpt><trkpt lat="46.097195" lon="13.4551433"><ele>142.0</ele><time>2026-05-03T07:10:43.594Z</time></trkpt><trkpt lat="46.0971083" lon="13.454905"><ele>142.0</ele><time>2026-05-03T07:10:44.595Z</time></trkpt><trkpt lat="46.0970117" lon="13.4546783"><ele>142.0</ele><time>2026-05-03T07:10:45.593Z</time></trkpt><trkpt lat="46.0969083" lon="13.4544533"><ele>142.0</ele><time>2026-05-03T07:10:46.594Z</time></trkpt><trkpt lat="46.0968" lon="13.4542283"><ele>141.33333333333334</ele><time>2026-05-03T07:10:47.595Z</time></trkpt><trkpt lat="46.0966933" lon="13.4539983"><ele>140.66666666666666</ele><time>2026-05-03T07:10:48.594Z</time></trkpt><trkpt lat="46.096585" lon="13.4537783"><ele>140.0</ele><time>2026-05-03T07:10:49.594Z</time></trkpt><trkpt lat="46.0964833" lon="13.45357"><ele>140.0</ele><time>2026-05-03T07:10:50.595Z</time></trkpt><trkpt lat="46.09639" lon="13.4533733"><ele>140.0</ele><time>2026-05-03T07:10:51.593Z</time></trkpt><trkpt lat="46.0962883" lon="13.4532017"><ele>140.0</ele><time>2026-05-03T07:10:52.593Z</time></trkpt><trkpt lat="46.0961883" lon="13.4530283"><ele>140.33333333333331</ele><time>2026-05-03T07:10:53.594Z</time></trkpt><trkpt lat="46.096075" lon="13.45286"><ele>140.66666666666666</ele><time>2026-05-03T07:10:54.595Z</time></trkpt><trkpt lat="46.0959567" lon="13.45269"><ele>141.0</ele><time>2026-05-03T07:10:55.595Z</time></trkpt><trkpt lat="46.09584" lon="13.452525"><ele>140.5</ele><time>2026-05-03T07:10:56.595Z</time></trkpt><trkpt lat="46.0957283" lon="13.4523633"><ele>140.0</ele><time>2026-05-03T07:10:57.595Z</time></trkpt><trkpt lat="46.095645" lon="13.45219"><ele>139.5</ele><time>2026-05-03T07:10:58.595Z</time></trkpt><trkpt lat="46.095555" lon="13.4520283"><ele>139.0</ele><time>2026-05-03T07:10:59.594Z</time></trkpt><trkpt lat="46.095475" lon="13.45185"><ele>139.0</ele><time>2026-05-03T07:11:00.594Z</time></trkpt><trkpt lat="46.0953533" lon="13.4517083"><ele>139.0</ele><time>2026-05-03T07:11:01.595Z</time></trkpt><trkpt lat="46.09525" lon="13.451555"><ele>139.0</ele><time>2026-05-03T07:11:02.594Z</time></trkpt><trkpt lat="46.09513" lon="13.4514167"><ele>139.0</ele><time>2026-05-03T07:11:03.594Z</time></trkpt><trkpt lat="46.09501" lon="13.4512667"><ele>139.0</ele><time>2026-05-03T07:11:04.595Z</time></trkpt><trkpt lat="46.094915" lon="13.4511033"><ele>139.0</ele><time>2026-05-03T07:11:05.594Z</time></trkpt><trkpt lat="46.0947767" lon="13.4509667"><ele>138.33333333333334</ele><time>2026-05-03T07:11:06.594Z</time></trkpt><trkpt lat="46.094665" lon="13.4508167"><ele>137.66666666666666</ele><time>2026-05-03T07:11:07.593Z</time></trkpt><trkpt lat="46.0945333" lon="13.4506733"><ele>137.0</ele><time>2026-05-03T07:11:08.595Z</time></trkpt><trkpt lat="46.0944417" lon="13.4505317"><ele>137.25</ele><time>2026-05-03T07:11:09.594Z</time></trkpt><trkpt lat="46.09435" lon="13.4503917"><ele>137.5</ele><time>2026-05-03T07:11:10.595Z</time></trkpt><trkpt lat="46.0942417" lon="13.450255"><ele>137.75</ele><time>2026-05-03T07:11:11.593Z</time></trkpt><trkpt lat="46.0942017" lon="13.450095"><ele>138.0</ele><time>2026-05-03T07:11:12.595Z</time></trkpt><trkpt lat="46.0940133" lon="13.4499183"><ele>137.0</ele><time>2026-05-03T07:11:13.595Z</time></trkpt><trkpt lat="46.0938867" lon="13.4497467"><ele>136.0</ele><time>2026-05-03T07:11:14.594Z</time></trkpt><trkpt lat="46.093815" lon="13.4495617"><ele>135.0</ele><time>2026-05-03T07:11:15.593Z</time></trkpt><trkpt lat="46.0936833" lon="13.4493933"><ele>133.66666666666666</ele><time>2026-05-03T07:11:16.594Z</time></trkpt><trkpt lat="46.0935583" lon="13.449205"><ele>132.33333333333331</ele><time>2026-05-03T07:11:17.597Z</time></trkpt><trkpt lat="46.0934467" lon="13.4490133"><ele>131.0</ele><time>2026-05-03T07:11:18.596Z</time></trkpt><trkpt lat="46.0933367" lon="13.4488083"><ele>136.33333333333331</ele><time>2026-05-03T07:11:19.597Z</time></trkpt><trkpt lat="46.093245" lon="13.448605"><ele>141.66666666666666</ele><time>2026-05-03T07:11:20.596Z</time></trkpt><trkpt lat="46.0931467" lon="13.4483917"><ele>147.0</ele><time>2026-05-03T07:11:21.595Z</time></trkpt><trkpt lat="46.0930367" lon="13.4481983"><ele>147.0</ele><time>2026-05-03T07:11:22.595Z</time></trkpt><trkpt lat="46.0929483" lon="13.4480167"><ele>147.0</ele><time>2026-05-03T07:11:23.596Z</time></trkpt><trkpt lat="46.0928383" lon="13.4478117"><ele>147.0</ele><time>2026-05-03T07:11:24.596Z</time></trkpt><trkpt lat="46.0927217" lon="13.4476067"><ele>145.75</ele><time>2026-05-03T07:11:25.596Z</time></trkpt><trkpt lat="46.0926233" lon="13.447425"><ele>144.5</ele><time>2026-05-03T07:11:26.595Z</time></trkpt><trkpt lat="46.0925167" lon="13.44727"><ele>143.25</ele><time>2026-05-03T07:11:27.596Z</time></trkpt><trkpt lat="46.092435" lon="13.4471217"><ele>142.0</ele><time>2026-05-03T07:11:28.595Z</time></trkpt><trkpt lat="46.092365" lon="13.4469867"><ele>142.0</ele><time>2026-05-03T07:11:29.595Z</time></trkpt><trkpt lat="46.092295" lon="13.4468683"><ele>142.0</ele><time>2026-05-03T07:11:30.595Z</time></trkpt><trkpt lat="46.0922117" lon="13.44678"><ele>142.0</ele><time>2026-05-03T07:11:31.595Z</time></trkpt><trkpt lat="46.0921233" lon="13.4467267"><ele>142.0</ele><time>2026-05-03T07:11:32.595Z</time></trkpt><trkpt lat="46.0920483" lon="13.44669"><ele>142.0</ele><time>2026-05-03T07:11:33.594Z</time></trkpt><trkpt lat="46.0919883" lon="13.4466583"><ele>142.0</ele><time>2026-05-03T07:11:34.596Z</time></trkpt><trkpt lat="46.0919017" lon="13.4465833"><ele>142.0</ele><time>2026-05-03T07:11:36.593Z</time></trkpt><trkpt lat="46.09184" lon="13.446555"><ele>142.0</ele><time>2026-05-03T07:11:38.596Z</time></trkpt><trkpt lat="46.0918333" lon="13.4466683"><ele>142.0</ele><time>2026-05-03T07:11:41.595Z</time></trkpt><trkpt lat="46.0919333" lon="13.4467733"><ele>142.0</ele><time>2026-05-03T07:11:57.595Z</time></trkpt><trkpt lat="46.0919267" lon="13.44667"><ele>142.0</ele><time>2026-05-03T07:12:00.594Z</time></trkpt><trkpt lat="46.09186" lon="13.44665"><ele>142.0</ele><time>2026-05-03T07:12:02.594Z</time></trkpt><trkpt lat="46.0917733" lon="13.4466833"><ele>142.0</ele><time>2026-05-03T07:12:04.594Z</time></trkpt><trkpt lat="46.0917167" lon="13.44681"><ele>142.0</ele><time>2026-05-03T07:12:06.594Z</time></trkpt><trkpt lat="46.091685" lon="13.4469033"><ele>142.0</ele><time>2026-05-03T07:12:07.595Z</time></trkpt><trkpt lat="46.0916367" lon="13.4470017"><ele>142.0</ele><time>2026-05-03T07:12:08.595Z</time></trkpt><trkpt lat="46.091575" lon="13.4471033"><ele>142.0</ele><time>2026-05-03T07:12:09.594Z</time></trkpt><trkpt lat="46.0915" lon="13.4472133"><ele>141.75</ele><time>2026-05-03T07:12:10.596Z</time></trkpt><trkpt lat="46.0914167" lon="13.447335"><ele>141.5</ele><time>2026-05-03T07:12:11.595Z</time></trkpt><trkpt lat="46.0913267" lon="13.447465"><ele>141.25</ele><time>2026-05-03T07:12:12.594Z</time></trkpt><trkpt lat="46.0912233" lon="13.4475967"><ele>141.0</ele><time>2026-05-03T07:12:13.594Z</time></trkpt><trkpt lat="46.0911317" lon="13.4477483"><ele>141.0</ele><time>2026-05-03T07:12:14.595Z</time></trkpt><trkpt lat="46.0910483" lon="13.4479217"><ele>141.0</ele><time>2026-05-03T07:12:15.593Z</time></trkpt><trkpt lat="46.0909783" lon="13.44813"><ele>141.0</ele><time>2026-05-03T07:12:16.594Z</time></trkpt><trkpt lat="46.0908917" lon="13.4483183"><ele>141.33333333333334</ele><time>2026-05-03T07:12:17.593Z</time></trkpt><trkpt lat="46.0908033" lon="13.4485"><ele>141.66666666666669</ele><time>2026-05-03T07:12:18.594Z</time></trkpt><trkpt lat="46.0907" lon="13.448675"><ele>142.0</ele><time>2026-05-03T07:12:19.593Z</time></trkpt><trkpt lat="46.0905933" lon="13.4488433"><ele>142.0</ele><time>2026-05-03T07:12:20.594Z</time></trkpt><trkpt lat="46.090485" lon="13.449"><ele>142.0</ele><time>2026-05-03T07:12:21.593Z</time></trkpt><trkpt lat="46.0903817" lon="13.449145"><ele>142.0</ele><time>2026-05-03T07:12:22.593Z</time></trkpt><trkpt lat="46.090275" lon="13.4492867"><ele>142.0</ele><time>2026-05-03T07:12:23.594Z</time></trkpt><trkpt lat="46.0901667" lon="13.4494317"><ele>142.0</ele><time>2026-05-03T07:12:24.593Z</time></trkpt><trkpt lat="46.090055" lon="13.4495833"><ele>142.0</ele><time>2026-05-03T07:12:25.595Z</time></trkpt><trkpt lat="46.0899467" lon="13.44974"><ele>142.0</ele><time>2026-05-03T07:12:26.594Z</time></trkpt><trkpt lat="46.0898383" lon="13.4498917"><ele>141.33333333333334</ele><time>2026-05-03T07:12:27.594Z</time></trkpt><trkpt lat="46.0897267" lon="13.4500317"><ele>140.66666666666666</ele><time>2026-05-03T07:12:28.593Z</time></trkpt><trkpt lat="46.0896" lon="13.4501583"><ele>140.0</ele><time>2026-05-03T07:12:29.594Z</time></trkpt><trkpt lat="46.089455" lon="13.450275"><ele>140.0</ele><time>2026-05-03T07:12:30.594Z</time></trkpt><trkpt lat="46.089305" lon="13.45039"><ele>140.0</ele><time>2026-05-03T07:12:31.594Z</time></trkpt><trkpt lat="46.0891567" lon="13.4504983"><ele>140.0</ele><time>2026-05-03T07:12:32.595Z</time></trkpt><trkpt lat="46.0890133" lon="13.4505983"><ele>140.5</ele><time>2026-05-03T07:12:33.594Z</time></trkpt><trkpt lat="46.0888817" lon="13.45069"><ele>141.0</ele><time>2026-05-03T07:12:34.594Z</time></trkpt><trkpt lat="46.0887617" lon="13.45077"><ele>141.5</ele><time>2026-05-03T07:12:35.594Z</time></trkpt><trkpt lat="46.08865" lon="13.4508433"><ele>142.0</ele><time>2026-05-03T07:12:36.594Z</time></trkpt><trkpt lat="46.0885583" lon="13.4509333"><ele>142.0</ele><time>2026-05-03T07:12:37.594Z</time></trkpt><trkpt lat="46.0884833" lon="13.4510417"><ele>142.0</ele><time>2026-05-03T07:12:38.593Z</time></trkpt><trkpt lat="46.0884183" lon="13.4511617"><ele>142.0</ele><time>2026-05-03T07:12:39.595Z</time></trkpt><trkpt lat="46.0883333" lon="13.4512417"><ele>142.0</ele><time>2026-05-03T07:12:40.594Z</time></trkpt><trkpt lat="46.0882317" lon="13.4512667"><ele>142.0</ele><time>2026-05-03T07:12:41.594Z</time></trkpt><trkpt lat="46.0881183" lon="13.4512533"><ele>142.0</ele><time>2026-05-03T07:12:42.595Z</time></trkpt><trkpt lat="46.0879883" lon="13.4512"><ele>142.0</ele><time>2026-05-03T07:12:43.595Z</time></trkpt><trkpt lat="46.0878483" lon="13.4511983"><ele>142.0</ele><time>2026-05-03T07:12:44.595Z</time></trkpt><trkpt lat="46.0876983" lon="13.4512533"><ele>142.0</ele><time>2026-05-03T07:12:45.594Z</time></trkpt><trkpt lat="46.0875483" lon="13.4513167"><ele>143.66666666666669</ele><time>2026-05-03T07:12:46.594Z</time></trkpt><trkpt lat="46.0873917" lon="13.4513917"><ele>145.33333333333334</ele><time>2026-05-03T07:12:47.594Z</time></trkpt><trkpt lat="46.0872333" lon="13.4514683"><ele>147.0</ele><time>2026-05-03T07:12:48.595Z</time></trkpt><trkpt lat="46.0870817" lon="13.451535"><ele>147.0</ele><time>2026-05-03T07:12:49.594Z</time></trkpt><trkpt lat="46.086945" lon="13.4516017"><ele>147.0</ele><time>2026-05-03T07:12:50.594Z</time></trkpt><trkpt lat="46.0868133" lon="13.4516733"><ele>147.0</ele><time>2026-05-03T07:12:51.593Z</time></trkpt><trkpt lat="46.0866833" lon="13.45175"><ele>147.0</ele><time>2026-05-03T07:12:52.594Z</time></trkpt><trkpt lat="46.0865517" lon="13.45183"><ele>145.66666666666666</ele><time>2026-05-03T07:12:53.594Z</time></trkpt><trkpt lat="46.086415" lon="13.451915"><ele>144.33333333333331</ele><time>2026-05-03T07:12:54.594Z</time></trkpt><trkpt lat="46.086265" lon="13.4519967"><ele>143.0</ele><time>2026-05-03T07:12:55.594Z</time></trkpt><trkpt lat="46.086115" lon="13.452075"><ele>142.33333333333331</ele><time>2026-05-03T07:12:56.594Z</time></trkpt><trkpt lat="46.085965" lon="13.4521483"><ele>141.66666666666666</ele><time>2026-05-03T07:12:57.593Z</time></trkpt><trkpt lat="46.08582" lon="13.45222"><ele>141.0</ele><time>2026-05-03T07:12:58.599Z</time></trkpt><trkpt lat="46.0856717" lon="13.4522967"><ele>141.0</ele><time>2026-05-03T07:12:59.594Z</time></trkpt><trkpt lat="46.085525" lon="13.4523717"><ele>141.0</ele><time>2026-05-03T07:13:00.594Z</time></trkpt><trkpt lat="46.0853767" lon="13.4524483"><ele>141.0</ele><time>2026-05-03T07:13:01.594Z</time></trkpt><trkpt lat="46.085225" lon="13.45253"><ele>141.0</ele><time>2026-05-03T07:13:02.595Z</time></trkpt><trkpt lat="46.0850717" lon="13.45261"><ele>141.0</ele><time>2026-05-03T07:13:03.595Z</time></trkpt><trkpt lat="46.0849183" lon="13.4526833"><ele>141.0</ele><time>2026-05-03T07:13:04.594Z</time></trkpt><trkpt lat="46.0847633" lon="13.452755"><ele>140.33333333333334</ele><time>2026-05-03T07:13:05.596Z</time></trkpt><trkpt lat="46.0846083" lon="13.4528267"><ele>139.66666666666669</ele><time>2026-05-03T07:13:06.594Z</time></trkpt><trkpt lat="46.0844517" lon="13.452895"><ele>139.0</ele><time>2026-05-03T07:13:07.596Z</time></trkpt><trkpt lat="46.084295" lon="13.4529333"><ele>139.75</ele><time>2026-05-03T07:13:08.596Z</time></trkpt><trkpt lat="46.08416" lon="13.452985"><ele>140.5</ele><time>2026-05-03T07:13:09.595Z</time></trkpt><trkpt lat="46.084025" lon="13.4530067"><ele>141.25</ele><time>2026-05-03T07:13:10.595Z</time></trkpt><trkpt lat="46.0838867" lon="13.4530083"><ele>142.0</ele><time>2026-05-03T07:13:11.596Z</time></trkpt><trkpt lat="46.0837483" lon="13.45303"><ele>142.33333333333334</ele><time>2026-05-03T07:13:12.595Z</time></trkpt><trkpt lat="46.0835967" lon="13.4530283"><ele>142.66666666666666</ele><time>2026-05-03T07:13:13.595Z</time></trkpt><trkpt lat="46.0834417" lon="13.4530467"><ele>143.0</ele><time>2026-05-03T07:13:14.594Z</time></trkpt><trkpt lat="46.0832883" lon="13.45311"><ele>144.33333333333331</ele><time>2026-05-03T07:13:15.594Z</time></trkpt><trkpt lat="46.08313" lon="13.45318"><ele>145.66666666666666</ele><time>2026-05-03T07:13:16.595Z</time></trkpt><trkpt lat="46.08297" lon="13.45324"><ele>147.0</ele><time>2026-05-03T07:13:17.593Z</time></trkpt><trkpt lat="46.0828183" lon="13.4532867"><ele>147.0</ele><time>2026-05-03T07:13:18.593Z</time></trkpt><trkpt lat="46.082685" lon="13.453335"><ele>147.0</ele><time>2026-05-03T07:13:19.594Z</time></trkpt><trkpt lat="46.0825633" lon="13.453385"><ele>147.0</ele><time>2026-05-03T07:13:20.596Z</time></trkpt><trkpt lat="46.0824433" lon="13.45338"><ele>147.0</ele><time>2026-05-03T07:13:21.595Z</time></trkpt><trkpt lat="46.0823267" lon="13.4533383"><ele>147.5</ele><time>2026-05-03T07:13:22.594Z</time></trkpt><trkpt lat="46.0822083" lon="13.4532717"><ele>148.0</ele><time>2026-05-03T07:13:23.594Z</time></trkpt><trkpt lat="46.0820833" lon="13.4531967"><ele>148.5</ele><time>2026-05-03T07:13:24.595Z</time></trkpt><trkpt lat="46.081965" lon="13.4531367"><ele>149.0</ele><time>2026-05-03T07:13:25.595Z</time></trkpt><trkpt lat="46.08186" lon="13.45303"><ele>147.5</ele><time>2026-05-03T07:13:26.597Z</time></trkpt><trkpt lat="46.081755" lon="13.452915"><ele>146.0</ele><time>2026-05-03T07:13:27.594Z</time></trkpt><trkpt lat="46.0816383" lon="13.4528167"><ele>144.5</ele><time>2026-05-03T07:13:28.595Z</time></trkpt><trkpt lat="46.081505" lon="13.4527583"><ele>143.0</ele><time>2026-05-03T07:13:29.594Z</time></trkpt><trkpt lat="46.081375" lon="13.45273"><ele>142.75</ele><time>2026-05-03T07:13:30.594Z</time></trkpt><trkpt lat="46.08125" lon="13.45274"><ele>142.5</ele><time>2026-05-03T07:13:31.594Z</time></trkpt><trkpt lat="46.0811367" lon="13.452805"><ele>142.25</ele><time>2026-05-03T07:13:32.594Z</time></trkpt><trkpt lat="46.0810317" lon="13.4529133"><ele>142.0</ele><time>2026-05-03T07:13:33.594Z</time></trkpt><trkpt lat="46.0809333" lon="13.4530467"><ele>142.0</ele><time>2026-05-03T07:13:34.593Z</time></trkpt><trkpt lat="46.0808383" lon="13.4531667"><ele>142.0</ele><time>2026-05-03T07:13:35.593Z</time></trkpt><trkpt lat="46.08074" lon="13.453275"><ele>142.0</ele><time>2026-05-03T07:13:36.594Z</time></trkpt><trkpt lat="46.08065" lon="13.4533717"><ele>142.0</ele><time>2026-05-03T07:13:37.596Z</time></trkpt><trkpt lat="46.0805717" lon="13.4534583"><ele>141.5</ele><time>2026-05-03T07:13:38.595Z</time></trkpt><trkpt lat="46.0805017" lon="13.4535333"><ele>141.0</ele><time>2026-05-03T07:13:39.594Z</time></trkpt><trkpt lat="46.0804417" lon="13.453585"><ele>140.5</ele><time>2026-05-03T07:13:40.595Z</time></trkpt><trkpt lat="46.0803333" lon="13.4535667"><ele>140.0</ele><time>2026-05-03T07:13:42.595Z</time></trkpt><trkpt lat="46.080295" lon="13.4534733"><ele>139.5</ele><time>2026-05-03T07:13:43.594Z</time></trkpt><trkpt lat="46.0802833" lon="13.453345"><ele>139.0</ele><time>2026-05-03T07:13:44.594Z</time></trkpt><trkpt lat="46.08025" lon="13.45323"><ele>139.0</ele><time>2026-05-03T07:13:45.595Z</time></trkpt><trkpt lat="46.0802133" lon="13.4530983"><ele>139.0</ele><time>2026-05-03T07:13:46.594Z</time></trkpt><trkpt lat="46.0802" lon="13.4529183"><ele>139.0</ele><time>2026-05-03T07:13:47.593Z</time></trkpt><trkpt lat="46.08018" lon="13.4527333"><ele>139.0</ele><time>2026-05-03T07:13:48.594Z</time></trkpt><trkpt lat="46.0801633" lon="13.452545"><ele>139.0</ele><time>2026-05-03T07:13:49.594Z</time></trkpt><trkpt lat="46.0801533" lon="13.4523567"><ele>139.0</ele><time>2026-05-03T07:13:50.595Z</time></trkpt><trkpt lat="46.0801517" lon="13.4521717"><ele>139.0</ele><time>2026-05-03T07:13:51.595Z</time></trkpt><trkpt lat="46.0801217" lon="13.4520117"><ele>139.0</ele><time>2026-05-03T07:13:52.595Z</time></trkpt><trkpt lat="46.0800567" lon="13.4518667"><ele>139.4</ele><time>2026-05-03T07:13:53.595Z</time></trkpt><trkpt lat="46.0799833" lon="13.4517317"><ele>139.8</ele><time>2026-05-03T07:13:54.595Z</time></trkpt><trkpt lat="46.0798883" lon="13.4516067"><ele>140.2</ele><time>2026-05-03T07:13:55.595Z</time></trkpt><trkpt lat="46.0798233" lon="13.451485"><ele>140.6</ele><time>2026-05-03T07:13:56.594Z</time></trkpt><trkpt lat="46.079755" lon="13.4513967"><ele>141.0</ele><time>2026-05-03T07:13:57.595Z</time></trkpt><trkpt lat="46.079705" lon="13.4513217"><ele>142.66666666666666</ele><time>2026-05-03T07:13:58.594Z</time></trkpt><trkpt lat="46.079645" lon="13.45123"><ele>144.33333333333334</ele><time>2026-05-03T07:14:00.595Z</time></trkpt><trkpt lat="46.0795817" lon="13.45123"><ele>146.0</ele><time>2026-05-03T07:14:02.594Z</time></trkpt><trkpt lat="46.0795233" lon="13.4513017"><ele>147.66666666666669</ele><time>2026-05-03T07:14:03.595Z</time></trkpt><trkpt lat="46.079475" lon="13.4514133"><ele>149.33333333333334</ele><time>2026-05-03T07:14:04.595Z</time></trkpt><trkpt lat="46.079425" lon="13.4515533"><ele>151.0</ele><time>2026-05-03T07:14:05.594Z</time></trkpt><trkpt lat="46.07936" lon="13.45167"><ele>151.0</ele><time>2026-05-03T07:14:06.594Z</time></trkpt><trkpt lat="46.0792833" lon="13.4517933"><ele>151.0</ele><time>2026-05-03T07:14:07.593Z</time></trkpt><trkpt lat="46.0792" lon="13.4519567"><ele>151.0</ele><time>2026-05-03T07:14:08.594Z</time></trkpt><trkpt lat="46.0791133" lon="13.4521717"><ele>151.0</ele><time>2026-05-03T07:14:09.594Z</time></trkpt><trkpt lat="46.07902" lon="13.4524117"><ele>151.0</ele><time>2026-05-03T07:14:10.594Z</time></trkpt><trkpt lat="46.078925" lon="13.4526767"><ele>151.0</ele><time>2026-05-03T07:14:11.594Z</time></trkpt><trkpt lat="46.0788267" lon="13.4529333"><ele>151.0</ele><time>2026-05-03T07:14:12.594Z</time></trkpt><trkpt lat="46.0787" lon="13.4531567"><ele>151.0</ele><time>2026-05-03T07:14:13.594Z</time></trkpt><trkpt lat="46.07857" lon="13.4533583"><ele>151.0</ele><time>2026-05-03T07:14:14.595Z</time></trkpt><trkpt lat="46.07844" lon="13.4535533"><ele>151.0</ele><time>2026-05-03T07:14:15.595Z</time></trkpt><trkpt lat="46.0783083" lon="13.4537433"><ele>155.66666666666669</ele><time>2026-05-03T07:14:16.595Z</time></trkpt><trkpt lat="46.07818" lon="13.4539333"><ele>160.33333333333334</ele><time>2026-05-03T07:14:17.594Z</time></trkpt><trkpt lat="46.0780583" lon="13.4541167"><ele>165.0</ele><time>2026-05-03T07:14:18.595Z</time></trkpt><trkpt lat="46.07794" lon="13.4542967"><ele>165.0</ele><time>2026-05-03T07:14:19.595Z</time></trkpt><trkpt lat="46.07782" lon="13.4544767"><ele>165.0</ele><time>2026-05-03T07:14:20.596Z</time></trkpt><trkpt lat="46.0777067" lon="13.4546533"><ele>165.0</ele><time>2026-05-03T07:14:21.595Z</time></trkpt><trkpt lat="46.0775917" lon="13.4548117"><ele>161.0</ele><time>2026-05-03T07:14:22.594Z</time></trkpt><trkpt lat="46.0774733" lon="13.4549533"><ele>157.0</ele><time>2026-05-03T07:14:23.594Z</time></trkpt><trkpt lat="46.0773417" lon="13.4550783"><ele>153.0</ele><time>2026-05-03T07:14:24.595Z</time></trkpt><trkpt lat="46.0772" lon="13.4551983"><ele>153.0</ele><time>2026-05-03T07:14:25.594Z</time></trkpt><trkpt lat="46.0770483" lon="13.4553067"><ele>153.0</ele><time>2026-05-03T07:14:26.594Z</time></trkpt><trkpt lat="46.07689" lon="13.4554283"><ele>153.0</ele><time>2026-05-03T07:14:27.595Z</time></trkpt><trkpt lat="46.07673" lon="13.4555583"><ele>151.33333333333334</ele><time>2026-05-03T07:14:28.594Z</time></trkpt><trkpt lat="46.0765683" lon="13.4556917"><ele>149.66666666666669</ele><time>2026-05-03T07:14:29.595Z</time></trkpt><trkpt lat="46.0764083" lon="13.4558333"><ele>148.0</ele><time>2026-05-03T07:14:30.595Z</time></trkpt><trkpt lat="46.0762467" lon="13.4559717"><ele>148.0</ele><time>2026-05-03T07:14:31.594Z</time></trkpt><trkpt lat="46.0760817" lon="13.456115"><ele>148.0</ele><time>2026-05-03T07:14:32.594Z</time></trkpt><trkpt lat="46.0759167" lon="13.45626"><ele>148.0</ele><time>2026-05-03T07:14:33.595Z</time></trkpt><trkpt lat="46.07575" lon="13.4564183"><ele>145.66666666666669</ele><time>2026-05-03T07:14:34.594Z</time></trkpt><trkpt lat="46.0755817" lon="13.4565817"><ele>143.33333333333334</ele><time>2026-05-03T07:14:35.595Z</time></trkpt><trkpt lat="46.0754183" lon="13.4567617"><ele>141.0</ele><time>2026-05-03T07:14:36.594Z</time></trkpt><trkpt lat="46.0752567" lon="13.4569467"><ele>141.33333333333334</ele><time>2026-05-03T07:14:37.594Z</time></trkpt><trkpt lat="46.0750983" lon="13.457135"><ele>141.66666666666669</ele><time>2026-05-03T07:14:38.596Z</time></trkpt><trkpt lat="46.0749433" lon="13.457325"><ele>142.0</ele><time>2026-05-03T07:14:39.594Z</time></trkpt><trkpt lat="46.0747933" lon="13.4575017"><ele>141.0</ele><time>2026-05-03T07:14:40.595Z</time></trkpt><trkpt lat="46.0746433" lon="13.4576883"><ele>140.0</ele><time>2026-05-03T07:14:41.595Z</time></trkpt><trkpt lat="46.0744917" lon="13.4578733"><ele>139.0</ele><time>2026-05-03T07:14:42.594Z</time></trkpt><trkpt lat="46.07434" lon="13.45806"><ele>139.0</ele><time>2026-05-03T07:14:43.595Z</time></trkpt><trkpt lat="46.07419" lon="13.4582433"><ele>139.0</ele><time>2026-05-03T07:14:44.595Z</time></trkpt><trkpt lat="46.07404" lon="13.458425"><ele>139.0</ele><time>2026-05-03T07:14:45.595Z</time></trkpt><trkpt lat="46.0738933" lon="13.4586067"><ele>137.0</ele><time>2026-05-03T07:14:46.595Z</time></trkpt><trkpt lat="46.0737417" lon="13.4588"><ele>135.0</ele><time>2026-05-03T07:14:47.595Z</time></trkpt><trkpt lat="46.0735933" lon="13.4589933"><ele>133.0</ele><time>2026-05-03T07:14:48.594Z</time></trkpt><trkpt lat="46.0734483" lon="13.4591817"><ele>133.0</ele><time>2026-05-03T07:14:49.594Z</time></trkpt><trkpt lat="46.073305" lon="13.45937"><ele>133.0</ele><time>2026-05-03T07:14:50.596Z</time></trkpt><trkpt lat="46.07316" lon="13.4595633"><ele>133.0</ele><time>2026-05-03T07:14:51.595Z</time></trkpt><trkpt lat="46.073015" lon="13.45976"><ele>132.33333333333334</ele><time>2026-05-03T07:14:52.594Z</time></trkpt><trkpt lat="46.0728667" lon="13.4599617"><ele>131.66666666666666</ele><time>2026-05-03T07:14:53.595Z</time></trkpt><trkpt lat="46.07272" lon="13.4601633"><ele>131.0</ele><time>2026-05-03T07:14:54.594Z</time></trkpt><trkpt lat="46.0725717" lon="13.4603617"><ele>131.33333333333331</ele><time>2026-05-03T07:14:55.594Z</time></trkpt><trkpt lat="46.072425" lon="13.4605617"><ele>131.66666666666666</ele><time>2026-05-03T07:14:56.597Z</time></trkpt><trkpt lat="46.072275" lon="13.4607567"><ele>132.0</ele><time>2026-05-03T07:14:57.594Z</time></trkpt><trkpt lat="46.072135" lon="13.4609433"><ele>132.0</ele><time>2026-05-03T07:14:58.595Z</time></trkpt><trkpt lat="46.071995" lon="13.4611283"><ele>132.0</ele><time>2026-05-03T07:14:59.595Z</time></trkpt><trkpt lat="46.071855" lon="13.461315"><ele>132.0</ele><time>2026-05-03T07:15:00.594Z</time></trkpt><trkpt lat="46.0717167" lon="13.4615017"><ele>132.0</ele><time>2026-05-03T07:15:01.594Z</time></trkpt><trkpt lat="46.0715817" lon="13.4616817"><ele>132.0</ele><time>2026-05-03T07:15:02.596Z</time></trkpt><trkpt lat="46.0714567" lon="13.4618533"><ele>132.0</ele><time>2026-05-03T07:15:03.594Z</time></trkpt><trkpt lat="46.071335" lon="13.46201"><ele>131.75</ele><time>2026-05-03T07:15:04.594Z</time></trkpt><trkpt lat="46.0712333" lon="13.46217"><ele>131.5</ele><time>2026-05-03T07:15:05.595Z</time></trkpt><trkpt lat="46.0711317" lon="13.462305"><ele>131.25</ele><time>2026-05-03T07:15:06.594Z</time></trkpt><trkpt lat="46.07104" lon="13.4624267"><ele>131.0</ele><time>2026-05-03T07:15:07.597Z</time></trkpt><trkpt lat="46.0709617" lon="13.4625367"><ele>131.0</ele><time>2026-05-03T07:15:08.596Z</time></trkpt><trkpt lat="46.07089" lon="13.462635"><ele>131.0</ele><time>2026-05-03T07:15:09.595Z</time></trkpt><trkpt lat="46.07082" lon="13.4627183"><ele>131.0</ele><time>2026-05-03T07:15:10.594Z</time></trkpt><trkpt lat="46.0707667" lon="13.4628083"><ele>131.0</ele><time>2026-05-03T07:15:11.594Z</time></trkpt><trkpt lat="46.07073" lon="13.46291"><ele>131.0</ele><time>2026-05-03T07:15:12.595Z</time></trkpt><trkpt lat="46.07069" lon="13.4630267"><ele>131.0</ele><time>2026-05-03T07:15:13.594Z</time></trkpt><trkpt lat="46.07063" lon="13.463145"><ele>130.0</ele><time>2026-05-03T07:15:14.596Z</time></trkpt><trkpt lat="46.0705683" lon="13.4632817"><ele>129.0</ele><time>2026-05-03T07:15:15.595Z</time></trkpt><trkpt lat="46.0705067" lon="13.4634333"><ele>128.0</ele><time>2026-05-03T07:15:16.595Z</time></trkpt><trkpt lat="46.070455" lon="13.4635983"><ele>127.0</ele><time>2026-05-03T07:15:17.595Z</time></trkpt><trkpt lat="46.0704117" lon="13.463755"><ele>127.25</ele><time>2026-05-03T07:15:18.594Z</time></trkpt><trkpt lat="46.0703883" lon="13.4639167"><ele>127.5</ele><time>2026-05-03T07:15:19.595Z</time></trkpt><trkpt lat="46.0703867" lon="13.4640867"><ele>127.75</ele><time>2026-05-03T07:15:20.595Z</time></trkpt><trkpt lat="46.0704033" lon="13.464265"><ele>128.0</ele><time>2026-05-03T07:15:21.595Z</time></trkpt><trkpt lat="46.0704283" lon="13.4644417"><ele>128.0</ele><time>2026-05-03T07:15:22.595Z</time></trkpt><trkpt lat="46.070455" lon="13.4646067"><ele>128.0</ele><time>2026-05-03T07:15:23.594Z</time></trkpt><trkpt lat="46.0704833" lon="13.4647583"><ele>128.0</ele><time>2026-05-03T07:15:24.594Z</time></trkpt><trkpt lat="46.070505" lon="13.4648983"><ele>128.0</ele><time>2026-05-03T07:15:25.595Z</time></trkpt><trkpt lat="46.0705117" lon="13.4650283"><ele>128.0</ele><time>2026-05-03T07:15:26.596Z</time></trkpt><trkpt lat="46.0704983" lon="13.4651633"><ele>127.5</ele><time>2026-05-03T07:15:27.594Z</time></trkpt><trkpt lat="46.0704617" lon="13.4653117"><ele>127.0</ele><time>2026-05-03T07:15:28.594Z</time></trkpt><trkpt lat="46.0704067" lon="13.4654783"><ele>126.5</ele><time>2026-05-03T07:15:29.596Z</time></trkpt><trkpt lat="46.0703417" lon="13.465665"><ele>126.0</ele><time>2026-05-03T07:15:30.596Z</time></trkpt><trkpt lat="46.0702733" lon="13.4658683"><ele>126.0</ele><time>2026-05-03T07:15:31.596Z</time></trkpt><trkpt lat="46.0702033" lon="13.4660783"><ele>126.0</ele><time>2026-05-03T07:15:32.597Z</time></trkpt><trkpt lat="46.0701383" lon="13.466275"><ele>126.0</ele><time>2026-05-03T07:15:33.597Z</time></trkpt><trkpt lat="46.0700817" lon="13.4664517"><ele>126.0</ele><time>2026-05-03T07:15:34.597Z</time></trkpt><trkpt lat="46.0700267" lon="13.4666"><ele>126.0</ele><time>2026-05-03T07:15:35.596Z</time></trkpt><trkpt lat="46.06998" lon="13.4667083"><ele>126.0</ele><time>2026-05-03T07:15:36.597Z</time></trkpt><trkpt lat="46.06992" lon="13.4668317"><ele>126.0</ele><time>2026-05-03T07:15:38.597Z</time></trkpt><trkpt lat="46.0698067" lon="13.4668633"><ele>126.0</ele><time>2026-05-03T07:15:40.595Z</time></trkpt><trkpt lat="46.0697183" lon="13.4668383"><ele>126.0</ele><time>2026-05-03T07:15:41.595Z</time></trkpt><trkpt lat="46.06963" lon="13.4668167"><ele>125.75</ele><time>2026-05-03T07:15:42.595Z</time></trkpt><trkpt lat="46.0695283" lon="13.46681"><ele>125.5</ele><time>2026-05-03T07:15:43.594Z</time></trkpt><trkpt lat="46.0694167" lon="13.4667967"><ele>125.25</ele><time>2026-05-03T07:15:44.595Z</time></trkpt><trkpt lat="46.0692967" lon="13.466775"><ele>125.0</ele><time>2026-05-03T07:15:45.595Z</time></trkpt><trkpt lat="46.0691817" lon="13.46677"><ele>127.0</ele><time>2026-05-03T07:15:46.597Z</time></trkpt><trkpt lat="46.06907" lon="13.466795"><ele>129.0</ele><time>2026-05-03T07:15:47.595Z</time></trkpt><trkpt lat="46.0689617" lon="13.4668467"><ele>131.0</ele><time>2026-05-03T07:15:48.595Z</time></trkpt><trkpt lat="46.068865" lon="13.4669317"><ele>133.0</ele><time>2026-05-03T07:15:49.595Z</time></trkpt><trkpt lat="46.06878" lon="13.4670617"><ele>132.25</ele><time>2026-05-03T07:15:50.597Z</time></trkpt><trkpt lat="46.068705" lon="13.46721"><ele>131.5</ele><time>2026-05-03T07:15:51.594Z</time></trkpt><trkpt lat="46.0686283" lon="13.467365"><ele>130.75</ele><time>2026-05-03T07:15:52.595Z</time></trkpt><trkpt lat="46.0685433" lon="13.467525"><ele>130.0</ele><time>2026-05-03T07:15:53.595Z</time></trkpt><trkpt lat="46.068455" lon="13.46768"><ele>130.0</ele><time>2026-05-03T07:15:54.596Z</time></trkpt><trkpt lat="46.068375" lon="13.4678367"><ele>130.0</ele><time>2026-05-03T07:15:55.595Z</time></trkpt><trkpt lat="46.0682933" lon="13.467985"><ele>130.0</ele><time>2026-05-03T07:15:56.594Z</time></trkpt><trkpt lat="46.0682167" lon="13.4681283"><ele>130.0</ele><time>2026-05-03T07:15:57.594Z</time></trkpt><trkpt lat="46.068145" lon="13.4682683"><ele>130.75</ele><time>2026-05-03T07:15:58.596Z</time></trkpt><trkpt lat="46.06807" lon="13.4684083"><ele>131.5</ele><time>2026-05-03T07:15:59.594Z</time></trkpt><trkpt lat="46.0679883" lon="13.46855"><ele>132.25</ele><time>2026-05-03T07:16:00.594Z</time></trkpt><trkpt lat="46.0679083" lon="13.4686983"><ele>133.0</ele><time>2026-05-03T07:16:01.595Z</time></trkpt><trkpt lat="46.06783" lon="13.4688467"><ele>133.0</ele><time>2026-05-03T07:16:02.595Z</time></trkpt><trkpt lat="46.06776" lon="13.4689883"><ele>133.0</ele><time>2026-05-03T07:16:03.595Z</time></trkpt><trkpt lat="46.0676967" lon="13.46911"><ele>133.0</ele><time>2026-05-03T07:16:04.594Z</time></trkpt><trkpt lat="46.0676383" lon="13.4692183"><ele>133.0</ele><time>2026-05-03T07:16:05.595Z</time></trkpt><trkpt lat="46.0675883" lon="13.469325"><ele>133.0</ele><time>2026-05-03T07:16:06.594Z</time></trkpt><trkpt lat="46.06755" lon="13.469435"><ele>133.0</ele><time>2026-05-03T07:16:07.594Z</time></trkpt><trkpt lat="46.0675167" lon="13.4695483"><ele>133.0</ele><time>2026-05-03T07:16:08.594Z</time></trkpt><trkpt lat="46.06748" lon="13.4696617"><ele>133.0</ele><time>2026-05-03T07:16:09.594Z</time></trkpt><trkpt lat="46.0674367" lon="13.4697783"><ele>133.0</ele><time>2026-05-03T07:16:10.595Z</time></trkpt><trkpt lat="46.0674" lon="13.4699083"><ele>133.0</ele><time>2026-05-03T07:16:11.595Z</time></trkpt><trkpt lat="46.0673567" lon="13.4700517"><ele>132.25</ele><time>2026-05-03T07:16:12.595Z</time></trkpt><trkpt lat="46.067315" lon="13.47021"><ele>131.5</ele><time>2026-05-03T07:16:13.594Z</time></trkpt><trkpt lat="46.0672683" lon="13.470355"><ele>130.75</ele><time>2026-05-03T07:16:14.595Z</time></trkpt><trkpt lat="46.0672017" lon="13.4704817"><ele>130.0</ele><time>2026-05-03T07:16:15.595Z</time></trkpt><trkpt lat="46.0671133" lon="13.470585"><ele>130.0</ele><time>2026-05-03T07:16:16.595Z</time></trkpt><trkpt lat="46.0670133" lon="13.47069"><ele>130.0</ele><time>2026-05-03T07:16:17.595Z</time></trkpt><trkpt lat="46.0669167" lon="13.4708267"><ele>130.0</ele><time>2026-05-03T07:16:18.594Z</time></trkpt><trkpt lat="46.0668217" lon="13.47098"><ele>130.0</ele><time>2026-05-03T07:16:19.594Z</time></trkpt><trkpt lat="46.0667283" lon="13.47114"><ele>127.66666666666667</ele><time>2026-05-03T07:16:20.595Z</time></trkpt><trkpt lat="46.0666417" lon="13.4713167"><ele>125.33333333333334</ele><time>2026-05-03T07:16:21.595Z</time></trkpt><trkpt lat="46.0665467" lon="13.471505"><ele>123.0</ele><time>2026-05-03T07:16:22.594Z</time></trkpt><trkpt lat="46.066445" lon="13.4716967"><ele>123.0</ele><time>2026-05-03T07:16:23.594Z</time></trkpt><trkpt lat="46.066345" lon="13.471885"><ele>123.0</ele><time>2026-05-03T07:16:24.595Z</time></trkpt><trkpt lat="46.0662567" lon="13.4720567"><ele>123.0</ele><time>2026-05-03T07:16:25.595Z</time></trkpt><trkpt lat="46.0661717" lon="13.4722083"><ele>123.0</ele><time>2026-05-03T07:16:26.595Z</time></trkpt><trkpt lat="46.0660983" lon="13.47236"><ele>124.0</ele><time>2026-05-03T07:16:27.595Z</time></trkpt><trkpt lat="46.0660267" lon="13.472505"><ele>125.0</ele><time>2026-05-03T07:16:28.595Z</time></trkpt><trkpt lat="46.0659467" lon="13.472645"><ele>126.0</ele><time>2026-05-03T07:16:29.598Z</time></trkpt><trkpt lat="46.0658733" lon="13.4727917"><ele>127.0</ele><time>2026-05-03T07:16:30.594Z</time></trkpt><trkpt lat="46.0657883" lon="13.4729317"><ele>126.6</ele><time>2026-05-03T07:16:31.595Z</time></trkpt><trkpt lat="46.0657067" lon="13.4730617"><ele>126.19999999999999</ele><time>2026-05-03T07:16:32.595Z</time></trkpt><trkpt lat="46.0656383" lon="13.4731867"><ele>125.8</ele><time>2026-05-03T07:16:33.594Z</time></trkpt><trkpt lat="46.0655733" lon="13.4732983"><ele>125.4</ele><time>2026-05-03T07:16:34.595Z</time></trkpt><trkpt lat="46.065515" lon="13.473395"><ele>125.0</ele><time>2026-05-03T07:16:35.594Z</time></trkpt><trkpt lat="46.0654633" lon="13.4734717"><ele>124.99999999999999</ele><time>2026-05-03T07:16:36.594Z</time></trkpt><trkpt lat="46.0654117" lon="13.4735383"><ele>125.0</ele><time>2026-05-03T07:16:37.594Z</time></trkpt><trkpt lat="46.0653283" lon="13.4736467"><ele>125.0</ele><time>2026-05-03T07:16:39.596Z</time></trkpt><trkpt lat="46.0652633" lon="13.47369"><ele>125.0</ele><time>2026-05-03T07:16:41.596Z</time></trkpt><trkpt lat="46.06521" lon="13.4736233"><ele>124.99999999999999</ele><time>2026-05-03T07:16:44.596Z</time></trkpt><trkpt lat="46.06518" lon="13.4735133"><ele>125.0</ele><time>2026-05-03T07:16:48.595Z</time></trkpt><trkpt lat="46.065155" lon="13.47343"><ele>125.0</ele><time>2026-05-03T07:16:49.595Z</time></trkpt><trkpt lat="46.065125" lon="13.4733283"><ele>125.0</ele><time>2026-05-03T07:16:50.596Z</time></trkpt><trkpt lat="46.0650883" lon="13.4732133"><ele>125.0</ele><time>2026-05-03T07:16:51.594Z</time></trkpt><trkpt lat="46.0650433" lon="13.4730833"><ele>125.0</ele><time>2026-05-03T07:16:52.595Z</time></trkpt><trkpt lat="46.065" lon="13.4729383"><ele>125.0</ele><time>2026-05-03T07:16:53.599Z</time></trkpt><trkpt lat="46.06496" lon="13.472785"><ele>124.5</ele><time>2026-05-03T07:16:54.594Z</time></trkpt><trkpt lat="46.0649267" lon="13.4726183"><ele>124.0</ele><time>2026-05-03T07:16:55.595Z</time></trkpt><trkpt lat="46.064895" lon="13.4724417"><ele>123.5</ele><time>2026-05-03T07:16:56.596Z</time></trkpt><trkpt lat="46.0648633" lon="13.4722617"><ele>123.0</ele><time>2026-05-03T07:16:57.595Z</time></trkpt><trkpt lat="46.0648317" lon="13.4720767"><ele>124.25</ele><time>2026-05-03T07:16:58.594Z</time></trkpt><trkpt lat="46.0648033" lon="13.4718933"><ele>125.5</ele><time>2026-05-03T07:16:59.595Z</time></trkpt><trkpt lat="46.0647805" lon="13.4717102"><ele>126.75</ele><time>2026-05-03T07:17:00.593Z</time></trkpt><trkpt lat="46.0647695" lon="13.4715285"><ele>128.0</ele><time>2026-05-03T07:17:01.594Z</time></trkpt><trkpt lat="46.0647647" lon="13.4713494"><ele>129.5</ele><time>2026-05-03T07:17:02.594Z</time></trkpt><trkpt lat="46.0647652" lon="13.4711701"><ele>131.0</ele><time>2026-05-03T07:17:03.593Z</time></trkpt><trkpt lat="46.0647689" lon="13.4709905"><ele>132.5</ele><time>2026-05-03T07:17:04.593Z</time></trkpt><trkpt lat="46.0647793" lon="13.4708122"><ele>134.0</ele><time>2026-05-03T07:17:05.596Z</time></trkpt><trkpt lat="46.0647942" lon="13.47065"><ele>134.0</ele><time>2026-05-03T07:17:06.593Z</time></trkpt><trkpt lat="46.0648179" lon="13.4704916"><ele>134.0</ele><time>2026-05-03T07:17:07.594Z</time></trkpt><trkpt lat="46.0648458" lon="13.4703405"><ele>134.0</ele><time>2026-05-03T07:17:08.594Z</time></trkpt><trkpt lat="46.0648693" lon="13.4701982"><ele>134.0</ele><time>2026-05-03T07:17:09.595Z</time></trkpt><trkpt lat="46.0648959" lon="13.4700565"><ele>134.0</ele><time>2026-05-03T07:17:10.595Z</time></trkpt><trkpt lat="46.0649257" lon="13.4699189"><ele>132.83333333333331</ele><time>2026-05-03T07:17:11.593Z</time></trkpt><trkpt lat="46.0649585" lon="13.4697829"><ele>131.66666666666666</ele><time>2026-05-03T07:17:12.594Z</time></trkpt><trkpt lat="46.064987" lon="13.4696573"><ele>130.5</ele><time>2026-05-03T07:17:13.594Z</time></trkpt><trkpt lat="46.0650004" lon="13.4695434"><ele>129.33333333333334</ele><time>2026-05-03T07:17:14.595Z</time></trkpt><trkpt lat="46.0649992" lon="13.4694462"><ele>128.16666666666669</ele><time>2026-05-03T07:17:15.593Z</time></trkpt><trkpt lat="46.0649961" lon="13.4693511"><ele>127.0</ele><time>2026-05-03T07:17:16.593Z</time></trkpt><trkpt lat="46.0649836" lon="13.4692507"><ele>127.00000000000001</ele><time>2026-05-03T07:17:17.595Z</time></trkpt><trkpt lat="46.0649624" lon="13.4691362"><ele>127.0</ele><time>2026-05-03T07:17:18.594Z</time></trkpt><trkpt lat="46.0649329" lon="13.4690137"><ele>127.0</ele><time>2026-05-03T07:17:19.594Z</time></trkpt><trkpt lat="46.0649035" lon="13.4688988"><ele>127.0</ele><time>2026-05-03T07:17:20.595Z</time></trkpt><trkpt lat="46.0648713" lon="13.4688043"><ele>127.00000000000001</ele><time>2026-05-03T07:17:21.594Z</time></trkpt><trkpt lat="46.064799" lon="13.4687139"><ele>127.0</ele><time>2026-05-03T07:17:23.594Z</time></trkpt><trkpt lat="46.0646828" lon="13.4686917"><ele>126.50000000000001</ele><time>2026-05-03T07:17:25.594Z</time></trkpt><trkpt lat="46.064608" lon="13.4686837"><ele>126.0</ele><time>2026-05-03T07:17:26.594Z</time></trkpt><trkpt lat="46.0645385" lon="13.4686611"><ele>125.5</ele><time>2026-05-03T07:17:27.593Z</time></trkpt><trkpt lat="46.0644711" lon="13.4686198"><ele>125.0</ele><time>2026-05-03T07:17:28.593Z</time></trkpt><trkpt lat="46.0644021" lon="13.4685741"><ele>124.50000000000001</ele><time>2026-05-03T07:17:29.595Z</time></trkpt><trkpt lat="46.0643331" lon="13.4685177"><ele>124.0</ele><time>2026-05-03T07:17:30.593Z</time></trkpt><trkpt lat="46.0642732" lon="13.4684338"><ele>124.00000000000001</ele><time>2026-05-03T07:17:31.594Z</time></trkpt><trkpt lat="46.0642254" lon="13.4683298"><ele>124.0</ele><time>2026-05-03T07:17:32.594Z</time></trkpt><trkpt lat="46.0641816" lon="13.4682145"><ele>124.0</ele><time>2026-05-03T07:17:33.593Z</time></trkpt><trkpt lat="46.0641502" lon="13.4681033"><ele>124.0</ele><time>2026-05-03T07:17:34.596Z</time></trkpt><trkpt lat="46.0641166" lon="13.4679965"><ele>124.00000000000001</ele><time>2026-05-03T07:17:35.593Z</time></trkpt><trkpt lat="46.0640891" lon="13.4679049"><ele>124.0</ele><time>2026-05-03T07:17:36.593Z</time></trkpt><trkpt lat="46.0640561" lon="13.4678194"><ele>123.66666666666667</ele><time>2026-05-03T07:17:37.594Z</time></trkpt><trkpt lat="46.0640003" lon="13.4677431"><ele>123.33333333333334</ele><time>2026-05-03T07:17:38.597Z</time></trkpt><trkpt lat="46.0639411" lon="13.4676678"><ele>123.0</ele><time>2026-05-03T07:17:39.594Z</time></trkpt><trkpt lat="46.0638657" lon="13.467601"><ele>122.66666666666666</ele><time>2026-05-03T07:17:40.596Z</time></trkpt><trkpt lat="46.0637806" lon="13.467542"><ele>122.33333333333333</ele><time>2026-05-03T07:17:41.595Z</time></trkpt><trkpt lat="46.0636916" lon="13.4675002"><ele>122.0</ele><time>2026-05-03T07:17:42.594Z</time></trkpt><trkpt lat="46.0635929" lon="13.4674712"><ele>122.0</ele><time>2026-05-03T07:17:43.594Z</time></trkpt><trkpt lat="46.0635014" lon="13.4674447"><ele>121.99999999999999</ele><time>2026-05-03T07:17:44.594Z</time></trkpt><trkpt lat="46.0634112" lon="13.4674009"><ele>121.99999999999999</ele><time>2026-05-03T07:17:45.593Z</time></trkpt><trkpt lat="46.0633215" lon="13.4673334"><ele>122.0</ele><time>2026-05-03T07:17:46.594Z</time></trkpt><trkpt lat="46.063233" lon="13.4672391"><ele>122.0</ele><time>2026-05-03T07:17:47.594Z</time></trkpt><trkpt lat="46.0631401" lon="13.467133"><ele>122.19999999999999</ele><time>2026-05-03T07:17:48.593Z</time></trkpt><trkpt lat="46.0630424" lon="13.4670337"><ele>122.39999999999999</ele><time>2026-05-03T07:17:49.595Z</time></trkpt><trkpt lat="46.0629469" lon="13.4669614"><ele>122.60000000000001</ele><time>2026-05-03T07:17:50.595Z</time></trkpt><trkpt lat="46.0628544" lon="13.4669104"><ele>122.80000000000001</ele><time>2026-05-03T07:17:51.594Z</time></trkpt><trkpt lat="46.0627575" lon="13.4668717"><ele>123.0</ele><time>2026-05-03T07:17:52.593Z</time></trkpt><trkpt lat="46.0626521" lon="13.4668369"><ele>123.0</ele><time>2026-05-03T07:17:53.595Z</time></trkpt><trkpt lat="46.0625425" lon="13.4667892"><ele>123.00000000000001</ele><time>2026-05-03T07:17:54.596Z</time></trkpt><trkpt lat="46.062441" lon="13.4667221"><ele>123.00000000000001</ele><time>2026-05-03T07:17:55.594Z</time></trkpt><trkpt lat="46.0623529" lon="13.4666437"><ele>123.0</ele><time>2026-05-03T07:17:56.594Z</time></trkpt><trkpt lat="46.0622762" lon="13.4665589"><ele>123.0</ele><time>2026-05-03T07:17:57.593Z</time></trkpt><trkpt lat="46.0622109" lon="13.4664837"><ele>122.33333333333333</ele><time>2026-05-03T07:17:58.593Z</time></trkpt><trkpt lat="46.0621473" lon="13.4664257"><ele>121.66666666666666</ele><time>2026-05-03T07:17:59.594Z</time></trkpt><trkpt lat="46.0620319" lon="13.4663719"><ele>121.0</ele><time>2026-05-03T07:18:01.593Z</time></trkpt><trkpt lat="46.0619633" lon="13.4663576"><ele>120.33333333333333</ele><time>2026-05-03T07:18:02.594Z</time></trkpt><trkpt lat="46.0618858" lon="13.4663402"><ele>119.66666666666666</ele><time>2026-05-03T07:18:03.594Z</time></trkpt><trkpt lat="46.061801" lon="13.4663149"><ele>119.0</ele><time>2026-05-03T07:18:04.593Z</time></trkpt><trkpt lat="46.0617164" lon="13.466282"><ele>119.0</ele><time>2026-05-03T07:18:05.594Z</time></trkpt><trkpt lat="46.0616399" lon="13.4662584"><ele>119.0</ele><time>2026-05-03T07:18:06.594Z</time></trkpt><trkpt lat="46.0615764" lon="13.4662575"><ele>119.0</ele><time>2026-05-03T07:18:07.595Z</time></trkpt><trkpt lat="46.0614606" lon="13.4662666"><ele>119.0</ele><time>2026-05-03T07:18:09.594Z</time></trkpt><trkpt lat="46.0613589" lon="13.4662687"><ele>119.0</ele><time>2026-05-03T07:18:11.593Z</time></trkpt><trkpt lat="46.061221" lon="13.4662325"><ele>119.0</ele><time>2026-05-03T07:18:13.594Z</time></trkpt><trkpt lat="46.0611449" lon="13.4661891"><ele>119.0</ele><time>2026-05-03T07:18:14.594Z</time></trkpt><trkpt lat="46.061071" lon="13.4661243"><ele>119.0</ele><time>2026-05-03T07:18:15.594Z</time></trkpt><trkpt lat="46.0610013" lon="13.4660426"><ele>119.0</ele><time>2026-05-03T07:18:16.595Z</time></trkpt><trkpt lat="46.0609354" lon="13.4659402"><ele>119.0</ele><time>2026-05-03T07:18:17.595Z</time></trkpt><trkpt lat="46.0608811" lon="13.4658218"><ele>119.0</ele><time>2026-05-03T07:18:18.596Z</time></trkpt><trkpt lat="46.0608349" lon="13.4656928"><ele>119.0</ele><time>2026-05-03T07:18:19.595Z</time></trkpt><trkpt lat="46.0608035" lon="13.4655486"><ele>119.0</ele><time>2026-05-03T07:18:20.595Z</time></trkpt><trkpt lat="46.060777" lon="13.4654001"><ele>119.0</ele><time>2026-05-03T07:18:21.593Z</time></trkpt><trkpt lat="46.0607478" lon="13.4652595"><ele>119.0</ele><time>2026-05-03T07:18:22.593Z</time></trkpt><trkpt lat="46.0607128" lon="13.4651319"><ele>118.2</ele><time>2026-05-03T07:18:23.594Z</time></trkpt><trkpt lat="46.0606648" lon="13.4650185"><ele>117.4</ele><time>2026-05-03T07:18:24.595Z</time></trkpt><trkpt lat="46.0606056" lon="13.4649152"><ele>116.6</ele><time>2026-05-03T07:18:25.594Z</time></trkpt><trkpt lat="46.0605419" lon="13.464817"><ele>115.8</ele><time>2026-05-03T07:18:26.594Z</time></trkpt><trkpt lat="46.0604621" lon="13.4647396"><ele>115.0</ele><time>2026-05-03T07:18:27.594Z</time></trkpt><trkpt lat="46.0603734" lon="13.4646668"><ele>115.75</ele><time>2026-05-03T07:18:28.593Z</time></trkpt><trkpt lat="46.0602816" lon="13.4645822"><ele>116.5</ele><time>2026-05-03T07:18:29.594Z</time></trkpt><trkpt lat="46.0601916" lon="13.4644843"><ele>117.25</ele><time>2026-05-03T07:18:30.595Z</time></trkpt><trkpt lat="46.0601119" lon="13.464362"><ele>118.0</ele><time>2026-05-03T07:18:31.594Z</time></trkpt><trkpt lat="46.0600363" lon="13.4642192"><ele>118.0</ele><time>2026-05-03T07:18:32.595Z</time></trkpt><trkpt lat="46.0599678" lon="13.4640685"><ele>118.0</ele><time>2026-05-03T07:18:33.594Z</time></trkpt><trkpt lat="46.0599029" lon="13.4639192"><ele>118.0</ele><time>2026-05-03T07:18:34.594Z</time></trkpt><trkpt lat="46.0598382" lon="13.4637823"><ele>118.0</ele><time>2026-05-03T07:18:35.593Z</time></trkpt><trkpt lat="46.0597707" lon="13.4636602"><ele>117.4</ele><time>2026-05-03T07:18:36.595Z</time></trkpt><trkpt lat="46.0597025" lon="13.4635478"><ele>116.80000000000001</ele><time>2026-05-03T07:18:37.594Z</time></trkpt><trkpt lat="46.0596372" lon="13.4634311"><ele>116.2</ele><time>2026-05-03T07:18:38.595Z</time></trkpt><trkpt lat="46.0595766" lon="13.4633072"><ele>115.6</ele><time>2026-05-03T07:18:39.595Z</time></trkpt><trkpt lat="46.0595221" lon="13.4631922"><ele>115.0</ele><time>2026-05-03T07:18:40.596Z</time></trkpt><trkpt lat="46.0594765" lon="13.4630941"><ele>115.00000000000001</ele><time>2026-05-03T07:18:41.594Z</time></trkpt><trkpt lat="46.0594337" lon="13.4630002"><ele>115.0</ele><time>2026-05-03T07:18:42.594Z</time></trkpt><trkpt lat="46.0593879" lon="13.4628988"><ele>115.0</ele><time>2026-05-03T07:18:43.595Z</time></trkpt><trkpt lat="46.0593401" lon="13.4627973"><ele>115.0</ele><time>2026-05-03T07:18:44.595Z</time></trkpt><trkpt lat="46.0592945" lon="13.4627126"><ele>115.00000000000001</ele><time>2026-05-03T07:18:45.593Z</time></trkpt><trkpt lat="46.0592466" lon="13.4626403"><ele>115.0</ele><time>2026-05-03T07:18:46.594Z</time></trkpt><trkpt lat="46.0591927" lon="13.4625712"><ele>115.00000000000001</ele><time>2026-05-03T07:18:47.594Z</time></trkpt><trkpt lat="46.0591288" lon="13.4625022"><ele>115.0</ele><time>2026-05-03T07:18:48.595Z</time></trkpt><trkpt lat="46.0590698" lon="13.4624281"><ele>115.0</ele><time>2026-05-03T07:18:49.595Z</time></trkpt><trkpt lat="46.0590187" lon="13.4623468"><ele>115.0</ele><time>2026-05-03T07:18:50.595Z</time></trkpt><trkpt lat="46.0589768" lon="13.4622561"><ele>115.00000000000001</ele><time>2026-05-03T07:18:51.593Z</time></trkpt><trkpt lat="46.0589331" lon="13.4621571"><ele>115.0</ele><time>2026-05-03T07:18:52.593Z</time></trkpt><trkpt lat="46.0588897" lon="13.4620597"><ele>115.00000000000001</ele><time>2026-05-03T07:18:53.593Z</time></trkpt><trkpt lat="46.0588398" lon="13.4619594"><ele>115.0</ele><time>2026-05-03T07:18:54.595Z</time></trkpt><trkpt lat="46.0587893" lon="13.461863"><ele>115.0</ele><time>2026-05-03T07:18:55.594Z</time></trkpt><trkpt lat="46.0587366" lon="13.4617839"><ele>115.0</ele><time>2026-05-03T07:18:56.594Z</time></trkpt><trkpt lat="46.0586807" lon="13.4617236"><ele>115.00000000000001</ele><time>2026-05-03T07:18:57.593Z</time></trkpt><trkpt lat="46.0586124" lon="13.4616769"><ele>115.0</ele><time>2026-05-03T07:18:58.594Z</time></trkpt><trkpt lat="46.0585366" lon="13.4616377"><ele>115.0</ele><time>2026-05-03T07:18:59.594Z</time></trkpt><trkpt lat="46.0584483" lon="13.4615988"><ele>115.0</ele><time>2026-05-03T07:19:00.594Z</time></trkpt><trkpt lat="46.0583426" lon="13.4615475"><ele>115.0</ele><time>2026-05-03T07:19:01.595Z</time></trkpt><trkpt lat="46.0582322" lon="13.4614871"><ele>115.0</ele><time>2026-05-03T07:19:02.594Z</time></trkpt><trkpt lat="46.0581262" lon="13.4614144"><ele>115.0</ele><time>2026-05-03T07:19:03.596Z</time></trkpt><trkpt lat="46.0580304" lon="13.4613458"><ele>114.8</ele><time>2026-05-03T07:19:04.593Z</time></trkpt><trkpt lat="46.0579472" lon="13.4612855"><ele>114.6</ele><time>2026-05-03T07:19:05.594Z</time></trkpt><trkpt lat="46.057868" lon="13.4612216"><ele>114.4</ele><time>2026-05-03T07:19:06.595Z</time></trkpt><trkpt lat="46.0577969" lon="13.4611507"><ele>114.2</ele><time>2026-05-03T07:19:07.593Z</time></trkpt><trkpt lat="46.0577328" lon="13.4610661"><ele>114.0</ele><time>2026-05-03T07:19:08.594Z</time></trkpt><trkpt lat="46.0576735" lon="13.4609604"><ele>114.0</ele><time>2026-05-03T07:19:09.593Z</time></trkpt><trkpt lat="46.0576245" lon="13.4608392"><ele>114.0</ele><time>2026-05-03T07:19:10.594Z</time></trkpt><trkpt lat="46.0575871" lon="13.4607064"><ele>114.0</ele><time>2026-05-03T07:19:11.594Z</time></trkpt><trkpt lat="46.0575517" lon="13.4605666"><ele>114.0</ele><time>2026-05-03T07:19:12.594Z</time></trkpt><trkpt lat="46.0575185" lon="13.4604322"><ele>114.0</ele><time>2026-05-03T07:19:13.595Z</time></trkpt><trkpt lat="46.0574936" lon="13.4603127"><ele>114.0</ele><time>2026-05-03T07:19:14.594Z</time></trkpt><trkpt lat="46.0574853" lon="13.4602075"><ele>113.99999999999999</ele><time>2026-05-03T07:19:15.594Z</time></trkpt><trkpt lat="46.057497" lon="13.4601143"><ele>114.0</ele><time>2026-05-03T07:19:16.594Z</time></trkpt><trkpt lat="46.0575187" lon="13.460018"><ele>114.0</ele><time>2026-05-03T07:19:17.597Z</time></trkpt><trkpt lat="46.0575414" lon="13.4599157"><ele>113.99999999999999</ele><time>2026-05-03T07:19:18.595Z</time></trkpt><trkpt lat="46.0575519" lon="13.4598088"><ele>114.0</ele><time>2026-05-03T07:19:19.594Z</time></trkpt><trkpt lat="46.0575506" lon="13.4596955"><ele>114.0</ele><time>2026-05-03T07:19:20.595Z</time></trkpt><trkpt lat="46.0575412" lon="13.4595639"><ele>114.0</ele><time>2026-05-03T07:19:21.594Z</time></trkpt><trkpt lat="46.0575314" lon="13.4594256"><ele>114.0</ele><time>2026-05-03T07:19:22.595Z</time></trkpt><trkpt lat="46.0575239" lon="13.4592888"><ele>114.0</ele><time>2026-05-03T07:19:23.595Z</time></trkpt><trkpt lat="46.057519" lon="13.4591472"><ele>114.0</ele><time>2026-05-03T07:19:24.595Z</time></trkpt><trkpt lat="46.057517" lon="13.4589965"><ele>114.0</ele><time>2026-05-03T07:19:25.594Z</time></trkpt><trkpt lat="46.0575172" lon="13.4588387"><ele>114.25</ele><time>2026-05-03T07:19:26.594Z</time></trkpt><trkpt lat="46.0575202" lon="13.4586743"><ele>114.5</ele><time>2026-05-03T07:19:27.594Z</time></trkpt><trkpt lat="46.0575236" lon="13.4585077"><ele>114.75</ele><time>2026-05-03T07:19:28.594Z</time></trkpt><trkpt lat="46.057526" lon="13.4583404"><ele>115.0</ele><time>2026-05-03T07:19:29.595Z</time></trkpt><trkpt lat="46.0575291" lon="13.4581775"><ele>115.0</ele><time>2026-05-03T07:19:30.594Z</time></trkpt><trkpt lat="46.0575299" lon="13.4580298"><ele>115.0</ele><time>2026-05-03T07:19:31.595Z</time></trkpt><trkpt lat="46.0575313" lon="13.4579022"><ele>115.0</ele><time>2026-05-03T07:19:32.596Z</time></trkpt><trkpt lat="46.057534" lon="13.4577978"><ele>115.0</ele><time>2026-05-03T07:19:33.593Z</time></trkpt><trkpt lat="46.057532" lon="13.4576522"><ele>115.0</ele><time>2026-05-03T07:19:35.595Z</time></trkpt><trkpt lat="46.0574422" lon="13.4576457"><ele>115.33333333333334</ele><time>2026-05-03T07:19:44.626Z</time></trkpt><trkpt lat="46.0573468" lon="13.4577832"><ele>115.66666666666666</ele><time>2026-05-03T07:19:46.668Z</time></trkpt><trkpt lat="46.0571601" lon="13.4579206"><ele>116.0</ele><time>2026-05-03T07:19:47.595Z</time></trkpt><trkpt lat="46.0570104" lon="13.4580491"><ele>116.0</ele><time>2026-05-03T07:19:48.596Z</time></trkpt><trkpt lat="46.0568635" lon="13.4581859"><ele>116.0</ele><time>2026-05-03T07:19:49.593Z</time></trkpt><trkpt lat="46.0567033" lon="13.4583167"><ele>116.0</ele><time>2026-05-03T07:19:50.594Z</time></trkpt><trkpt lat="46.05654" lon="13.45845"><ele>115.33333333333333</ele><time>2026-05-03T07:19:51.593Z</time></trkpt><trkpt lat="46.0563717" lon="13.4585983"><ele>114.66666666666666</ele><time>2026-05-03T07:19:52.595Z</time></trkpt><trkpt lat="46.056205" lon="13.4587567"><ele>114.0</ele><time>2026-05-03T07:19:53.595Z</time></trkpt><trkpt lat="46.0560367" lon="13.4589017"><ele>114.0</ele><time>2026-05-03T07:19:54.593Z</time></trkpt><trkpt lat="46.055875" lon="13.45905"><ele>114.0</ele><time>2026-05-03T07:19:55.594Z</time></trkpt><trkpt lat="46.0557133" lon="13.4591967"><ele>114.0</ele><time>2026-05-03T07:19:56.594Z</time></trkpt><trkpt lat="46.0555533" lon="13.4593433"><ele>113.66666666666666</ele><time>2026-05-03T07:19:57.594Z</time></trkpt><trkpt lat="46.0553933" lon="13.4594783"><ele>113.33333333333333</ele><time>2026-05-03T07:19:58.594Z</time></trkpt><trkpt lat="46.0552333" lon="13.4596133"><ele>113.0</ele><time>2026-05-03T07:19:59.594Z</time></trkpt><trkpt lat="46.0550767" lon="13.4597483"><ele>113.0</ele><time>2026-05-03T07:20:00.593Z</time></trkpt><trkpt lat="46.0549217" lon="13.4598817"><ele>113.0</ele><time>2026-05-03T07:20:01.593Z</time></trkpt><trkpt lat="46.0547717" lon="13.4600083"><ele>113.0</ele><time>2026-05-03T07:20:02.595Z</time></trkpt><trkpt lat="46.0546283" lon="13.4601383"><ele>113.0</ele><time>2026-05-03T07:20:03.595Z</time></trkpt><trkpt lat="46.0544983" lon="13.46027"><ele>113.0</ele><time>2026-05-03T07:20:04.594Z</time></trkpt><trkpt lat="46.0543833" lon="13.4604233"><ele>113.0</ele><time>2026-05-03T07:20:05.595Z</time></trkpt><trkpt lat="46.0542733" lon="13.4605633"><ele>113.0</ele><time>2026-05-03T07:20:06.594Z</time></trkpt><trkpt lat="46.0541833" lon="13.460705"><ele>113.0</ele><time>2026-05-03T07:20:07.595Z</time></trkpt><trkpt lat="46.0541067" lon="13.4608533"><ele>113.0</ele><time>2026-05-03T07:20:08.594Z</time></trkpt><trkpt lat="46.054035" lon="13.461"><ele>113.0</ele><time>2026-05-03T07:20:09.594Z</time></trkpt><trkpt lat="46.0539683" lon="13.4611333"><ele>113.0</ele><time>2026-05-03T07:20:10.593Z</time></trkpt><trkpt lat="46.0539" lon="13.4612467"><ele>113.00000000000001</ele><time>2026-05-03T07:20:11.593Z</time></trkpt><trkpt lat="46.0538433" lon="13.4613567"><ele>113.00000000000001</ele><time>2026-05-03T07:20:12.593Z</time></trkpt><trkpt lat="46.0537883" lon="13.4614583"><ele>113.0</ele><time>2026-05-03T07:20:13.594Z</time></trkpt><trkpt lat="46.0537317" lon="13.4615533"><ele>113.0</ele><time>2026-05-03T07:20:14.594Z</time></trkpt><trkpt lat="46.0536783" lon="13.4616483"><ele>112.99999999999999</ele><time>2026-05-03T07:20:15.593Z</time></trkpt><trkpt lat="46.0536283" lon="13.4617417"><ele>113.0</ele><time>2026-05-03T07:20:16.594Z</time></trkpt><trkpt lat="46.0535667" lon="13.46183"><ele>113.0</ele><time>2026-05-03T07:20:17.594Z</time></trkpt><trkpt lat="46.0534983" lon="13.4619117"><ele>113.0</ele><time>2026-05-03T07:20:18.594Z</time></trkpt><trkpt lat="46.053415" lon="13.46197"><ele>112.99999999999999</ele><time>2026-05-03T07:20:19.593Z</time></trkpt><trkpt lat="46.05332" lon="13.4619967"><ele>113.0</ele><time>2026-05-03T07:20:20.594Z</time></trkpt><trkpt lat="46.0532033" lon="13.4620033"><ele>113.0</ele><time>2026-05-03T07:20:21.594Z</time></trkpt><trkpt lat="46.0530717" lon="13.461985"><ele>113.0</ele><time>2026-05-03T07:20:22.594Z</time></trkpt><trkpt lat="46.0529217" lon="13.4619467"><ele>113.0</ele><time>2026-05-03T07:20:23.594Z</time></trkpt><trkpt lat="46.0527567" lon="13.461925"><ele>113.0</ele><time>2026-05-03T07:20:24.593Z</time></trkpt><trkpt lat="46.0525833" lon="13.4618867"><ele>113.0</ele><time>2026-05-03T07:20:25.594Z</time></trkpt><trkpt lat="46.0524133" lon="13.4618567"><ele>113.0</ele><time>2026-05-03T07:20:26.595Z</time></trkpt><trkpt lat="46.0522517" lon="13.4618483"><ele>114.0</ele><time>2026-05-03T07:20:27.594Z</time></trkpt><trkpt lat="46.0520983" lon="13.4618217"><ele>115.0</ele><time>2026-05-03T07:20:28.593Z</time></trkpt><trkpt lat="46.051955" lon="13.4618633"><ele>116.0</ele><time>2026-05-03T07:20:29.593Z</time></trkpt><trkpt lat="46.0518183" lon="13.461905"><ele>117.0</ele><time>2026-05-03T07:20:30.593Z</time></trkpt><trkpt lat="46.051685" lon="13.4619833"><ele>118.0</ele><time>2026-05-03T07:20:31.594Z</time></trkpt><trkpt lat="46.05156" lon="13.462055"><ele>118.99999999999999</ele><time>2026-05-03T07:20:32.595Z</time></trkpt><trkpt lat="46.0514467" lon="13.4621117"><ele>119.99999999999999</ele><time>2026-05-03T07:20:33.593Z</time></trkpt><trkpt lat="46.0513567" lon="13.4621617"><ele>121.0</ele><time>2026-05-03T07:20:34.597Z</time></trkpt><trkpt lat="46.0512867" lon="13.4622"><ele>122.0</ele><time>2026-05-03T07:20:35.594Z</time></trkpt><trkpt lat="46.0512267" lon="13.4622933"><ele>119.75</ele><time>2026-05-03T07:20:37.593Z</time></trkpt><trkpt lat="46.0512183" lon="13.4624533"><ele>117.5</ele><time>2026-05-03T07:20:39.593Z</time></trkpt><trkpt lat="46.0512133" lon="13.4625983"><ele>115.25</ele><time>2026-05-03T07:20:40.594Z</time></trkpt><trkpt lat="46.0511817" lon="13.4627733"><ele>113.0</ele><time>2026-05-03T07:20:41.596Z</time></trkpt><trkpt lat="46.051135" lon="13.4629617"><ele>113.0</ele><time>2026-05-03T07:20:42.594Z</time></trkpt><trkpt lat="46.051095" lon="13.4631617"><ele>113.0</ele><time>2026-05-03T07:20:43.595Z</time></trkpt><trkpt lat="46.051065" lon="13.463355"><ele>113.0</ele><time>2026-05-03T07:20:44.594Z</time></trkpt><trkpt lat="46.0510417" lon="13.463535"><ele>113.0</ele><time>2026-05-03T07:20:45.594Z</time></trkpt><trkpt lat="46.05103" lon="13.4636933"><ele>114.80000000000001</ele><time>2026-05-03T07:20:46.593Z</time></trkpt><trkpt lat="46.0510383" lon="13.4638433"><ele>116.60000000000001</ele><time>2026-05-03T07:20:47.595Z</time></trkpt><trkpt lat="46.0510567" lon="13.463985"><ele>118.39999999999999</ele><time>2026-05-03T07:20:48.594Z</time></trkpt><trkpt lat="46.051095" lon="13.4641267"><ele>120.19999999999999</ele><time>2026-05-03T07:20:49.595Z</time></trkpt><trkpt lat="46.0511367" lon="13.4642883"><ele>122.0</ele><time>2026-05-03T07:20:50.597Z</time></trkpt><trkpt lat="46.0512" lon="13.4644567"><ele>124.33333333333333</ele><time>2026-05-03T07:20:51.594Z</time></trkpt><trkpt lat="46.0512517" lon="13.4646483"><ele>126.66666666666666</ele><time>2026-05-03T07:20:52.594Z</time></trkpt><trkpt lat="46.0513" lon="13.4648567"><ele>129.0</ele><time>2026-05-03T07:20:53.595Z</time></trkpt><trkpt lat="46.0513433" lon="13.4650767"><ele>129.0</ele><time>2026-05-03T07:20:54.594Z</time></trkpt><trkpt lat="46.0513933" lon="13.4653017"><ele>129.0</ele><time>2026-05-03T07:20:55.595Z</time></trkpt><trkpt lat="46.051455" lon="13.4655167"><ele>129.0</ele><time>2026-05-03T07:20:56.595Z</time></trkpt><trkpt lat="46.0515183" lon="13.46573"><ele>128.33333333333334</ele><time>2026-05-03T07:20:57.594Z</time></trkpt><trkpt lat="46.0515833" lon="13.465945"><ele>127.66666666666667</ele><time>2026-05-03T07:20:58.595Z</time></trkpt><trkpt lat="46.05166" lon="13.4661433"><ele>127.0</ele><time>2026-05-03T07:20:59.594Z</time></trkpt><trkpt lat="46.0517317" lon="13.4663367"><ele>128.25</ele><time>2026-05-03T07:21:00.595Z</time></trkpt><trkpt lat="46.0517933" lon="13.4665217"><ele>129.5</ele><time>2026-05-03T07:21:01.596Z</time></trkpt><trkpt lat="46.05185" lon="13.466685"><ele>130.75</ele><time>2026-05-03T07:21:02.595Z</time></trkpt><trkpt lat="46.0519" lon="13.4668367"><ele>132.0</ele><time>2026-05-03T07:21:03.594Z</time></trkpt><trkpt lat="46.0519367" lon="13.4669783"><ele>132.4</ele><time>2026-05-03T07:21:04.596Z</time></trkpt><trkpt lat="46.0519583" lon="13.467115"><ele>132.79999999999998</ele><time>2026-05-03T07:21:05.595Z</time></trkpt><trkpt lat="46.0519633" lon="13.4672567"><ele>133.2</ele><time>2026-05-03T07:21:06.594Z</time></trkpt><trkpt lat="46.0519533" lon="13.4673967"><ele>133.6</ele><time>2026-05-03T07:21:07.594Z</time></trkpt><trkpt lat="46.05194" lon="13.4675383"><ele>134.0</ele><time>2026-05-03T07:21:08.595Z</time></trkpt><trkpt lat="46.0519367" lon="13.46769"><ele>134.0</ele><time>2026-05-03T07:21:09.593Z</time></trkpt><trkpt lat="46.05195" lon="13.4678383"><ele>134.0</ele><time>2026-05-03T07:21:10.595Z</time></trkpt><trkpt lat="46.05198" lon="13.4679867"><ele>134.0</ele><time>2026-05-03T07:21:11.594Z</time></trkpt><trkpt lat="46.0520067" lon="13.4681317"><ele>134.0</ele><time>2026-05-03T07:21:12.593Z</time></trkpt><trkpt lat="46.0520217" lon="13.4682767"><ele>134.0</ele><time>2026-05-03T07:21:13.594Z</time></trkpt><trkpt lat="46.0520233" lon="13.4684083"><ele>135.0</ele><time>2026-05-03T07:21:14.595Z</time></trkpt><trkpt lat="46.0520167" lon="13.46852"><ele>136.0</ele><time>2026-05-03T07:21:15.594Z</time></trkpt><trkpt lat="46.05198" lon="13.4686033"><ele>137.0</ele><time>2026-05-03T07:21:16.594Z</time></trkpt><trkpt lat="46.0518683" lon="13.4686883"><ele>138.0</ele><time>2026-05-03T07:21:18.594Z</time></trkpt><trkpt lat="46.0518017" lon="13.4686883"><ele>139.0</ele><time>2026-05-03T07:21:19.595Z</time></trkpt><trkpt lat="46.051735" lon="13.4686683"><ele>140.0</ele><time>2026-05-03T07:21:20.594Z</time></trkpt><trkpt lat="46.051625" lon="13.468645"><ele>140.0</ele><time>2026-05-03T07:21:22.594Z</time></trkpt><trkpt lat="46.05168" lon="13.468725"><ele>140.0</ele><time>2026-05-03T07:21:29.594Z</time></trkpt><trkpt lat="46.0517533" lon="13.4687417"><ele>140.0</ele><time>2026-05-03T07:21:31.595Z</time></trkpt><trkpt lat="46.0518433" lon="13.468785"><ele>140.0</ele><time>2026-05-03T07:21:33.595Z</time></trkpt><trkpt lat="46.0519183" lon="13.46884"><ele>140.0</ele><time>2026-05-03T07:21:35.594Z</time></trkpt><trkpt lat="46.0520117" lon="13.4688583"><ele>140.0</ele><time>2026-05-03T07:21:37.595Z</time></trkpt><trkpt lat="46.05211" lon="13.4688183"><ele>140.0</ele><time>2026-05-03T07:21:39.594Z</time></trkpt><trkpt lat="46.05218" lon="13.468695"><ele>140.0</ele><time>2026-05-03T07:21:41.595Z</time></trkpt><trkpt lat="46.0522183" lon="13.468615"><ele>140.0</ele><time>2026-05-03T07:21:42.594Z</time></trkpt><trkpt lat="46.0522767" lon="13.46848"><ele>140.0</ele><time>2026-05-03T07:21:44.595Z</time></trkpt><trkpt lat="46.0523417" lon="13.468385"><ele>140.0</ele><time>2026-05-03T07:21:46.593Z</time></trkpt><trkpt lat="46.05241" lon="13.4683717"><ele>141.0</ele><time>2026-05-03T07:21:48.594Z</time></trkpt><trkpt lat="46.0525083" lon="13.4684517"><ele>142.0</ele><time>2026-05-03T07:21:50.595Z</time></trkpt><trkpt lat="46.0525667" lon="13.4685033"><ele>143.0</ele><time>2026-05-03T07:21:51.593Z</time></trkpt><trkpt lat="46.052635" lon="13.4685567"><ele>144.0</ele><time>2026-05-03T07:21:52.594Z</time></trkpt><trkpt lat="46.0527017" lon="13.4686067"><ele>145.0</ele><time>2026-05-03T07:21:53.594Z</time></trkpt><trkpt lat="46.0527617" lon="13.4686533"><ele>146.0</ele><time>2026-05-03T07:21:54.595Z</time></trkpt><trkpt lat="46.0528683" lon="13.4687483"><ele>145.85714285714286</ele><time>2026-05-03T07:21:56.595Z</time></trkpt><trkpt lat="46.0529217" lon="13.468805"><ele>145.71428571428572</ele><time>2026-05-03T07:21:57.594Z</time></trkpt><trkpt lat="46.0529783" lon="13.468865"><ele>145.57142857142858</ele><time>2026-05-03T07:21:58.594Z</time></trkpt><trkpt lat="46.0530333" lon="13.4689283"><ele>145.42857142857144</ele><time>2026-05-03T07:21:59.594Z</time></trkpt><trkpt lat="46.053085" lon="13.4689917"><ele>145.2857142857143</ele><time>2026-05-03T07:22:00.595Z</time></trkpt><trkpt lat="46.05314" lon="13.469055"><ele>145.14285714285714</ele><time>2026-05-03T07:22:01.595Z</time></trkpt><trkpt lat="46.0532067" lon="13.4691317"><ele>145.0</ele><time>2026-05-03T07:22:02.594Z</time></trkpt><trkpt lat="46.0532817" lon="13.4692083"><ele>145.4</ele><time>2026-05-03T07:22:03.595Z</time></trkpt><trkpt lat="46.0533717" lon="13.469275"><ele>145.8</ele><time>2026-05-03T07:22:04.594Z</time></trkpt><trkpt lat="46.053465" lon="13.469345"><ele>146.2</ele><time>2026-05-03T07:22:05.594Z</time></trkpt><trkpt lat="46.0535717" lon="13.469405"><ele>146.6</ele><time>2026-05-03T07:22:06.595Z</time></trkpt><trkpt lat="46.0536717" lon="13.4694683"><ele>147.0</ele><time>2026-05-03T07:22:07.594Z</time></trkpt><trkpt lat="46.0537683" lon="13.46952"><ele>147.0</ele><time>2026-05-03T07:22:08.594Z</time></trkpt><trkpt lat="46.0538533" lon="13.46959"><ele>147.0</ele><time>2026-05-03T07:22:09.594Z</time></trkpt><trkpt lat="46.053945" lon="13.4696483"><ele>147.0</ele><time>2026-05-03T07:22:10.594Z</time></trkpt><trkpt lat="46.0540283" lon="13.4697183"><ele>147.0</ele><time>2026-05-03T07:22:11.595Z</time></trkpt><trkpt lat="46.0541117" lon="13.4697817"><ele>147.0</ele><time>2026-05-03T07:22:12.594Z</time></trkpt><trkpt lat="46.0541867" lon="13.4698433"><ele>145.85714285714286</ele><time>2026-05-03T07:22:13.594Z</time></trkpt><trkpt lat="46.0542517" lon="13.469895"><ele>144.71428571428572</ele><time>2026-05-03T07:22:14.595Z</time></trkpt><trkpt lat="46.0543117" lon="13.46995"><ele>143.57142857142856</ele><time>2026-05-03T07:22:15.595Z</time></trkpt><trkpt lat="46.05438" lon="13.4699917"><ele>142.42857142857144</ele><time>2026-05-03T07:22:16.594Z</time></trkpt><trkpt lat="46.0544417" lon="13.4700233"><ele>141.28571428571428</ele><time>2026-05-03T07:22:17.594Z</time></trkpt><trkpt lat="46.05449" lon="13.4700933"><ele>140.14285714285714</ele><time>2026-05-03T07:22:19.596Z</time></trkpt><trkpt lat="46.05442" lon="13.4701867"><ele>139.0</ele><time>2026-05-03T07:22:21.595Z</time></trkpt><trkpt lat="46.0543683" lon="13.47024"><ele>139.0</ele><time>2026-05-03T07:22:22.594Z</time></trkpt><trkpt lat="46.05429" lon="13.4703533"><ele>139.0</ele><time>2026-05-03T07:22:24.596Z</time></trkpt><trkpt lat="46.054235" lon="13.47044"><ele>139.0</ele><time>2026-05-03T07:22:26.596Z</time></trkpt><trkpt lat="46.0541883" lon="13.47051"><ele>139.0</ele><time>2026-05-03T07:22:28.596Z</time></trkpt><trkpt lat="46.05414" lon="13.4705767"><ele>139.0</ele><time>2026-05-03T07:22:31.593Z</time></trkpt><trkpt lat="46.0541667" lon="13.470675"><ele>139.0</ele><time>2026-05-03T07:22:42.594Z</time></trkpt><trkpt lat="46.054245" lon="13.4707283"><ele>138.0</ele><time>2026-05-03T07:22:44.596Z</time></trkpt><trkpt lat="46.0543" lon="13.4708317"><ele>137.0</ele><time>2026-05-03T07:22:46.594Z</time></trkpt><trkpt lat="46.0542767" lon="13.4709517"><ele>136.0</ele><time>2026-05-03T07:22:48.594Z</time></trkpt><trkpt lat="46.054185" lon="13.4709767"><ele>135.0</ele><time>2026-05-03T07:22:50.596Z</time></trkpt><trkpt lat="46.0540683" lon="13.4709683"><ele>134.0</ele><time>2026-05-03T07:22:52.593Z</time></trkpt><trkpt lat="46.0539933" lon="13.4709917"><ele>132.6</ele><time>2026-05-03T07:22:53.594Z</time></trkpt><trkpt lat="46.05391" lon="13.471035"><ele>131.2</ele><time>2026-05-03T07:22:54.595Z</time></trkpt><trkpt lat="46.053815" lon="13.471075"><ele>129.79999999999998</ele><time>2026-05-03T07:22:55.595Z</time></trkpt><trkpt lat="46.0537217" lon="13.471105"><ele>128.4</ele><time>2026-05-03T07:22:56.595Z</time></trkpt><trkpt lat="46.0536317" lon="13.4711217"><ele>127.0</ele><time>2026-05-03T07:22:57.595Z</time></trkpt><trkpt lat="46.0535417" lon="13.4711183"><ele>127.0</ele><time>2026-05-03T07:22:58.594Z</time></trkpt><trkpt lat="46.0534433" lon="13.4710967"><ele>126.99999999999999</ele><time>2026-05-03T07:22:59.594Z</time></trkpt><trkpt lat="46.0533433" lon="13.47106"><ele>126.99999999999999</ele><time>2026-05-03T07:23:00.594Z</time></trkpt><trkpt lat="46.0532494" lon="13.471022"><ele>127.0</ele><time>2026-05-03T07:23:01.594Z</time></trkpt><trkpt lat="46.0531662" lon="13.4709894"><ele>127.0</ele><time>2026-05-03T07:23:02.594Z</time></trkpt><trkpt lat="46.0530986" lon="13.4709685"><ele>126.39999999999999</ele><time>2026-05-03T07:23:03.594Z</time></trkpt><trkpt lat="46.0529957" lon="13.4709823"><ele>125.79999999999998</ele><time>2026-05-03T07:23:05.595Z</time></trkpt><trkpt lat="46.0529496" lon="13.4711092"><ele>125.2</ele><time>2026-05-03T07:23:07.594Z</time></trkpt><trkpt lat="46.0529487" lon="13.4712169"><ele>124.6</ele><time>2026-05-03T07:23:08.594Z</time></trkpt><trkpt lat="46.052959" lon="13.4713507"><ele>124.0</ele><time>2026-05-03T07:23:09.595Z</time></trkpt><trkpt lat="46.0529741" lon="13.471488"><ele>122.50000000000001</ele><time>2026-05-03T07:23:10.594Z</time></trkpt><trkpt lat="46.0529897" lon="13.4716085"><ele>121.0</ele><time>2026-05-03T07:23:11.594Z</time></trkpt><trkpt lat="46.0530093" lon="13.471701"><ele>119.5</ele><time>2026-05-03T07:23:12.595Z</time></trkpt><trkpt lat="46.0531038" lon="13.4718113"><ele>118.0</ele><time>2026-05-03T07:23:14.595Z</time></trkpt><trkpt lat="46.0531808" lon="13.4718448"><ele>116.50000000000001</ele><time>2026-05-03T07:23:15.594Z</time></trkpt><trkpt lat="46.0532691" lon="13.4718808"><ele>115.0</ele><time>2026-05-03T07:23:16.594Z</time></trkpt><trkpt lat="46.053361" lon="13.4719262"><ele>115.00000000000001</ele><time>2026-05-03T07:23:17.594Z</time></trkpt><trkpt lat="46.0534423" lon="13.4719692"><ele>115.0</ele><time>2026-05-03T07:23:18.595Z</time></trkpt><trkpt lat="46.0535105" lon="13.4720105"><ele>115.0</ele><time>2026-05-03T07:23:19.597Z</time></trkpt><trkpt lat="46.0535842" lon="13.472109"><ele>115.0</ele><time>2026-05-03T07:23:21.595Z</time></trkpt><trkpt lat="46.0535669" lon="13.4722533"><ele>115.00000000000001</ele><time>2026-05-03T07:23:23.596Z</time></trkpt><trkpt lat="46.0535297" lon="13.4723344"><ele>115.0</ele><time>2026-05-03T07:23:24.595Z</time></trkpt><trkpt lat="46.0534839" lon="13.4723976"><ele>115.5</ele><time>2026-05-03T07:23:25.594Z</time></trkpt><trkpt lat="46.0533731" lon="13.4724425"><ele>116.0</ele><time>2026-05-03T07:23:27.594Z</time></trkpt><trkpt lat="46.0532797" lon="13.4723959"><ele>116.5</ele><time>2026-05-03T07:23:28.595Z</time></trkpt><trkpt lat="46.0531652" lon="13.4723161"><ele>117.0</ele><time>2026-05-03T07:23:29.594Z</time></trkpt><trkpt lat="46.0530448" lon="13.4722252"><ele>117.0</ele><time>2026-05-03T07:23:30.596Z</time></trkpt><trkpt lat="46.0529311" lon="13.4721533"><ele>117.0</ele><time>2026-05-03T07:23:31.595Z</time></trkpt><trkpt lat="46.0528198" lon="13.4721057"><ele>117.0</ele><time>2026-05-03T07:23:32.595Z</time></trkpt><trkpt lat="46.0527032" lon="13.472086"><ele>117.0</ele><time>2026-05-03T07:23:33.595Z</time></trkpt><trkpt lat="46.0525667" lon="13.4721"><ele>116.25</ele><time>2026-05-03T07:23:34.595Z</time></trkpt><trkpt lat="46.0524333" lon="13.472105"><ele>115.5</ele><time>2026-05-03T07:23:35.594Z</time></trkpt><trkpt lat="46.0523067" lon="13.4720983"><ele>114.75</ele><time>2026-05-03T07:23:36.594Z</time></trkpt><trkpt lat="46.05219" lon="13.47211"><ele>114.0</ele><time>2026-05-03T07:23:37.595Z</time></trkpt><trkpt lat="46.0520833" lon="13.472145"><ele>114.0</ele><time>2026-05-03T07:23:38.595Z</time></trkpt><trkpt lat="46.0519833" lon="13.472185"><ele>114.0</ele><time>2026-05-03T07:23:39.595Z</time></trkpt><trkpt lat="46.0518933" lon="13.4721917"><ele>114.0</ele><time>2026-05-03T07:23:40.594Z</time></trkpt><trkpt lat="46.0518033" lon="13.472155"><ele>114.0</ele><time>2026-05-03T07:23:41.596Z</time></trkpt><trkpt lat="46.0517133" lon="13.4720833"><ele>114.0</ele><time>2026-05-03T07:23:42.594Z</time></trkpt><trkpt lat="46.0516067" lon="13.4720483"><ele>114.25</ele><time>2026-05-03T07:23:43.595Z</time></trkpt><trkpt lat="46.05148" lon="13.4720417"><ele>114.5</ele><time>2026-05-03T07:23:44.596Z</time></trkpt><trkpt lat="46.0513517" lon="13.4720217"><ele>114.75</ele><time>2026-05-03T07:23:45.594Z</time></trkpt><trkpt lat="46.05122" lon="13.4720217"><ele>115.0</ele><time>2026-05-03T07:23:46.594Z</time></trkpt><trkpt lat="46.0510867" lon="13.4720367"><ele>115.0</ele><time>2026-05-03T07:23:47.596Z</time></trkpt><trkpt lat="46.0509483" lon="13.4720683"><ele>115.0</ele><time>2026-05-03T07:23:48.595Z</time></trkpt><trkpt lat="46.050815" lon="13.4721117"><ele>115.0</ele><time>2026-05-03T07:23:49.594Z</time></trkpt><trkpt lat="46.050695" lon="13.4721483"><ele>115.0</ele><time>2026-05-03T07:23:50.597Z</time></trkpt><trkpt lat="46.05059" lon="13.4721767"><ele>114.4</ele><time>2026-05-03T07:23:51.594Z</time></trkpt><trkpt lat="46.0504883" lon="13.4722333"><ele>113.8</ele><time>2026-05-03T07:23:52.594Z</time></trkpt><trkpt lat="46.0503867" lon="13.4723017"><ele>113.19999999999999</ele><time>2026-05-03T07:23:53.681Z</time></trkpt><trkpt lat="46.050285" lon="13.4723683"><ele>112.6</ele><time>2026-05-03T07:23:54.595Z</time></trkpt><trkpt lat="46.0501867" lon="13.4724467"><ele>112.0</ele><time>2026-05-03T07:23:55.594Z</time></trkpt><trkpt lat="46.0500917" lon="13.47253"><ele>112.0</ele><time>2026-05-03T07:23:56.594Z</time></trkpt><trkpt lat="46.0499967" lon="13.4726167"><ele>112.0</ele><time>2026-05-03T07:23:57.595Z</time></trkpt><trkpt lat="46.0498967" lon="13.472705"><ele>112.0</ele><time>2026-05-03T07:23:58.595Z</time></trkpt><trkpt lat="46.0497967" lon="13.4727833"><ele>112.0</ele><time>2026-05-03T07:23:59.594Z</time></trkpt><trkpt lat="46.0496933" lon="13.4728717"><ele>111.5</ele><time>2026-05-03T07:24:00.594Z</time></trkpt><trkpt lat="46.0495933" lon="13.4729633"><ele>111.0</ele><time>2026-05-03T07:24:01.595Z</time></trkpt><trkpt lat="46.0494967" lon="13.4730633"><ele>110.5</ele><time>2026-05-03T07:24:02.594Z</time></trkpt><trkpt lat="46.0494067" lon="13.4731783"><ele>110.0</ele><time>2026-05-03T07:24:03.597Z</time></trkpt><trkpt lat="46.04932" lon="13.4733033"><ele>110.0</ele><time>2026-05-03T07:24:04.595Z</time></trkpt><trkpt lat="46.0492317" lon="13.473435"><ele>110.0</ele><time>2026-05-03T07:24:05.594Z</time></trkpt><trkpt lat="46.0491467" lon="13.473565"><ele>110.0</ele><time>2026-05-03T07:24:06.594Z</time></trkpt><trkpt lat="46.0490617" lon="13.4737"><ele>110.0</ele><time>2026-05-03T07:24:07.595Z</time></trkpt><trkpt lat="46.0489717" lon="13.4738333"><ele>109.4</ele><time>2026-05-03T07:24:08.595Z</time></trkpt><trkpt lat="46.0488806" lon="13.4739551"><ele>108.8</ele><time>2026-05-03T07:24:09.594Z</time></trkpt><trkpt lat="46.0487879" lon="13.474058"><ele>108.19999999999999</ele><time>2026-05-03T07:24:10.595Z</time></trkpt><trkpt lat="46.0486993" lon="13.4741403"><ele>107.6</ele><time>2026-05-03T07:24:11.596Z</time></trkpt><trkpt lat="46.0486111" lon="13.4742097"><ele>107.0</ele><time>2026-05-03T07:24:12.594Z</time></trkpt><trkpt lat="46.0485187" lon="13.4742826"><ele>107.0</ele><time>2026-05-03T07:24:13.594Z</time></trkpt><trkpt lat="46.0484286" lon="13.4743535"><ele>106.99999999999999</ele><time>2026-05-03T07:24:14.594Z</time></trkpt><trkpt lat="46.0483511" lon="13.4744266"><ele>106.99999999999999</ele><time>2026-05-03T07:24:15.594Z</time></trkpt><trkpt lat="46.048283" lon="13.4745082"><ele>107.0</ele><time>2026-05-03T07:24:16.595Z</time></trkpt><trkpt lat="46.0482177" lon="13.4746079"><ele>107.0</ele><time>2026-05-03T07:24:17.594Z</time></trkpt><trkpt lat="46.0481549" lon="13.4747259"><ele>107.75</ele><time>2026-05-03T07:24:18.597Z</time></trkpt><trkpt lat="46.0480935" lon="13.4748566"><ele>108.5</ele><time>2026-05-03T07:24:19.595Z</time></trkpt><trkpt lat="46.0480329" lon="13.4749906"><ele>109.25</ele><time>2026-05-03T07:24:20.596Z</time></trkpt><trkpt lat="46.0479673" lon="13.4751276"><ele>110.0</ele><time>2026-05-03T07:24:21.595Z</time></trkpt><trkpt lat="46.0478935" lon="13.4752608"><ele>110.0</ele><time>2026-05-03T07:24:22.594Z</time></trkpt><trkpt lat="46.047817" lon="13.4753963"><ele>110.0</ele><time>2026-05-03T07:24:23.594Z</time></trkpt><trkpt lat="46.0477398" lon="13.4755328"><ele>110.0</ele><time>2026-05-03T07:24:24.594Z</time></trkpt><trkpt lat="46.0476634" lon="13.4756679"><ele>110.0</ele><time>2026-05-03T07:24:25.594Z</time></trkpt><trkpt lat="46.0475812" lon="13.4758025"><ele>109.0</ele><time>2026-05-03T07:24:26.595Z</time></trkpt><trkpt lat="46.0474904" lon="13.4759445"><ele>108.0</ele><time>2026-05-03T07:24:27.594Z</time></trkpt><trkpt lat="46.0474033" lon="13.4760886"><ele>107.0</ele><time>2026-05-03T07:24:28.595Z</time></trkpt><trkpt lat="46.0473236" lon="13.4762243"><ele>106.0</ele><time>2026-05-03T07:24:29.594Z</time></trkpt><trkpt lat="46.0472424" lon="13.4763509"><ele>104.75</ele><time>2026-05-03T07:24:30.594Z</time></trkpt><trkpt lat="46.0471494" lon="13.4764696"><ele>103.5</ele><time>2026-05-03T07:24:31.594Z</time></trkpt><trkpt lat="46.0470409" lon="13.4765885"><ele>102.25</ele><time>2026-05-03T07:24:32.594Z</time></trkpt><trkpt lat="46.0469275" lon="13.4767073"><ele>101.0</ele><time>2026-05-03T07:24:33.593Z</time></trkpt><trkpt lat="46.0468165" lon="13.4768238"><ele>101.0</ele><time>2026-05-03T07:24:34.594Z</time></trkpt><trkpt lat="46.0467134" lon="13.4769268"><ele>101.0</ele><time>2026-05-03T07:24:35.595Z</time></trkpt><trkpt lat="46.0466119" lon="13.4770162"><ele>101.0</ele><time>2026-05-03T07:24:36.595Z</time></trkpt><trkpt lat="46.0465118" lon="13.4770881"><ele>101.0</ele><time>2026-05-03T07:24:37.596Z</time></trkpt><trkpt lat="46.0464123" lon="13.4771414"><ele>101.75</ele><time>2026-05-03T07:24:38.597Z</time></trkpt><trkpt lat="46.0463023" lon="13.477183"><ele>102.5</ele><time>2026-05-03T07:24:39.595Z</time></trkpt><trkpt lat="46.0461848" lon="13.4772233"><ele>103.25</ele><time>2026-05-03T07:24:40.596Z</time></trkpt><trkpt lat="46.0460667" lon="13.4772687"><ele>104.0</ele><time>2026-05-03T07:24:41.596Z</time></trkpt><trkpt lat="46.0459647" lon="13.4773145"><ele>104.0</ele><time>2026-05-03T07:24:42.595Z</time></trkpt><trkpt lat="46.0458802" lon="13.4773613"><ele>104.0</ele><time>2026-05-03T07:24:43.595Z</time></trkpt><trkpt lat="46.0458126" lon="13.4774093"><ele>104.0</ele><time>2026-05-03T07:24:44.595Z</time></trkpt><trkpt lat="46.045731" lon="13.4775264"><ele>104.0</ele><time>2026-05-03T07:24:46.595Z</time></trkpt><trkpt lat="46.045703" lon="13.477676"><ele>104.0</ele><time>2026-05-03T07:24:48.594Z</time></trkpt><trkpt lat="46.0457054" lon="13.4778032"><ele>104.33333333333333</ele><time>2026-05-03T07:24:50.595Z</time></trkpt><trkpt lat="46.0457073" lon="13.4779305"><ele>104.66666666666666</ele><time>2026-05-03T07:24:52.595Z</time></trkpt><trkpt lat="46.0457046" lon="13.4780246"><ele>105.0</ele><time>2026-05-03T07:24:54.596Z</time></trkpt><trkpt lat="46.0456906" lon="13.478132"><ele>105.33333333333334</ele><time>2026-05-03T07:24:56.594Z</time></trkpt><trkpt lat="46.0456819" lon="13.4782459"><ele>105.66666666666667</ele><time>2026-05-03T07:24:58.595Z</time></trkpt><trkpt lat="46.0456603" lon="13.4783339"><ele>106.0</ele><time>2026-05-03T07:25:01.594Z</time></trkpt><trkpt lat="46.04554" lon="13.4783"><ele>106.0</ele><time>2026-05-03T07:25:13.593Z</time></trkpt><trkpt lat="46.045455" lon="13.478265"><ele>106.0</ele><time>2026-05-03T07:25:14.594Z</time></trkpt><trkpt lat="46.0453633" lon="13.4782283"><ele>106.0</ele><time>2026-05-03T07:25:15.593Z</time></trkpt><trkpt lat="46.0452733" lon="13.4781917"><ele>106.0</ele><time>2026-05-03T07:25:16.593Z</time></trkpt><trkpt lat="46.045185" lon="13.4781567"><ele>106.0</ele><time>2026-05-03T07:25:17.593Z</time></trkpt><trkpt lat="46.0450883" lon="13.4781267"><ele>106.0</ele><time>2026-05-03T07:25:18.594Z</time></trkpt><trkpt lat="46.044995" lon="13.4780533"><ele>106.0</ele><time>2026-05-03T07:25:19.594Z</time></trkpt><trkpt lat="46.0448867" lon="13.4780067"><ele>106.0</ele><time>2026-05-03T07:25:20.594Z</time></trkpt><trkpt lat="46.0447683" lon="13.4779717"><ele>106.0</ele><time>2026-05-03T07:25:21.594Z</time></trkpt><trkpt lat="46.0446467" lon="13.477945"><ele>104.25</ele><time>2026-05-03T07:25:22.593Z</time></trkpt><trkpt lat="46.04452" lon="13.47792"><ele>102.5</ele><time>2026-05-03T07:25:23.594Z</time></trkpt><trkpt lat="46.04439" lon="13.477895"><ele>100.75</ele><time>2026-05-03T07:25:24.594Z</time></trkpt><trkpt lat="46.0442667" lon="13.4778717"><ele>99.0</ele><time>2026-05-03T07:25:25.595Z</time></trkpt><trkpt lat="46.044145" lon="13.4778633"><ele>99.6</ele><time>2026-05-03T07:25:26.595Z</time></trkpt><trkpt lat="46.0440267" lon="13.477875"><ele>100.2</ele><time>2026-05-03T07:25:27.593Z</time></trkpt><trkpt lat="46.043915" lon="13.4779033"><ele>100.8</ele><time>2026-05-03T07:25:28.593Z</time></trkpt><trkpt lat="46.043815" lon="13.477945"><ele>101.39999999999999</ele><time>2026-05-03T07:25:29.593Z</time></trkpt><trkpt lat="46.0437333" lon="13.47799"><ele>102.0</ele><time>2026-05-03T07:25:30.593Z</time></trkpt><trkpt lat="46.0436683" lon="13.4780233"><ele>102.0</ele><time>2026-05-03T07:25:31.593Z</time></trkpt><trkpt lat="46.0435667" lon="13.478025"><ele>102.0</ele><time>2026-05-03T07:25:33.593Z</time></trkpt><trkpt lat="46.043455" lon="13.4779317"><ele>102.0</ele><time>2026-05-03T07:25:35.594Z</time></trkpt><trkpt lat="46.0433933" lon="13.47782"><ele>102.0</ele><time>2026-05-03T07:25:36.594Z</time></trkpt><trkpt lat="46.0433" lon="13.4776933"><ele>102.5</ele><time>2026-05-03T07:25:37.593Z</time></trkpt><trkpt lat="46.0431967" lon="13.4775767"><ele>103.0</ele><time>2026-05-03T07:25:38.594Z</time></trkpt><trkpt lat="46.0430817" lon="13.477485"><ele>103.5</ele><time>2026-05-03T07:25:39.593Z</time></trkpt><trkpt lat="46.04296" lon="13.4774033"><ele>104.0</ele><time>2026-05-03T07:25:40.594Z</time></trkpt><trkpt lat="46.04284" lon="13.477335"><ele>104.0</ele><time>2026-05-03T07:25:41.594Z</time></trkpt><trkpt lat="46.0427183" lon="13.477275"><ele>104.0</ele><time>2026-05-03T07:25:42.594Z</time></trkpt><trkpt lat="46.0425833" lon="13.4772367"><ele>104.0</ele><time>2026-05-03T07:25:43.595Z</time></trkpt><trkpt lat="46.0424367" lon="13.4772283"><ele>104.0</ele><time>2026-05-03T07:25:44.594Z</time></trkpt><trkpt lat="46.04228" lon="13.4772283"><ele>103.33333333333333</ele><time>2026-05-03T07:25:45.594Z</time></trkpt><trkpt lat="46.042115" lon="13.477245"><ele>102.66666666666666</ele><time>2026-05-03T07:25:46.594Z</time></trkpt><trkpt lat="46.041935" lon="13.4772917"><ele>102.0</ele><time>2026-05-03T07:25:47.593Z</time></trkpt><trkpt lat="46.04175" lon="13.47734"><ele>100.66666666666666</ele><time>2026-05-03T07:25:48.593Z</time></trkpt><trkpt lat="46.041565" lon="13.4773767"><ele>99.33333333333333</ele><time>2026-05-03T07:25:49.593Z</time></trkpt><trkpt lat="46.0413833" lon="13.47742"><ele>98.0</ele><time>2026-05-03T07:25:50.593Z</time></trkpt><trkpt lat="46.0412033" lon="13.4774617"><ele>98.0</ele><time>2026-05-03T07:25:51.594Z</time></trkpt><trkpt lat="46.0410283" lon="13.4775083"><ele>98.0</ele><time>2026-05-03T07:25:52.594Z</time></trkpt><trkpt lat="46.0408517" lon="13.4775517"><ele>98.0</ele><time>2026-05-03T07:25:53.593Z</time></trkpt><trkpt lat="46.0406817" lon="13.4775883"><ele>98.0</ele><time>2026-05-03T07:25:54.593Z</time></trkpt><trkpt lat="46.0405183" lon="13.477635"><ele>98.0</ele><time>2026-05-03T07:25:55.595Z</time></trkpt><trkpt lat="46.0403567" lon="13.477675"><ele>98.0</ele><time>2026-05-03T07:25:56.593Z</time></trkpt><trkpt lat="46.0401967" lon="13.47771"><ele>98.0</ele><time>2026-05-03T07:25:57.593Z</time></trkpt><trkpt lat="46.04004" lon="13.4777083"><ele>98.0</ele><time>2026-05-03T07:25:58.594Z</time></trkpt><trkpt lat="46.039885" lon="13.4777017"><ele>98.0</ele><time>2026-05-03T07:25:59.594Z</time></trkpt><trkpt lat="46.0397333" lon="13.4776433"><ele>97.66666666666666</ele><time>2026-05-03T07:26:00.594Z</time></trkpt><trkpt lat="46.0395767" lon="13.4775733"><ele>97.33333333333334</ele><time>2026-05-03T07:26:01.594Z</time></trkpt><trkpt lat="46.03941" lon="13.4775333"><ele>97.0</ele><time>2026-05-03T07:26:02.595Z</time></trkpt><trkpt lat="46.03924" lon="13.477515"><ele>97.33333333333334</ele><time>2026-05-03T07:26:03.594Z</time></trkpt><trkpt lat="46.039065" lon="13.4775167"><ele>97.66666666666666</ele><time>2026-05-03T07:26:04.593Z</time></trkpt><trkpt lat="46.0388867" lon="13.477545"><ele>98.0</ele><time>2026-05-03T07:26:05.593Z</time></trkpt><trkpt lat="46.038705" lon="13.4775683"><ele>98.0</ele><time>2026-05-03T07:26:06.594Z</time></trkpt><trkpt lat="46.038525" lon="13.4775917"><ele>98.0</ele><time>2026-05-03T07:26:07.595Z</time></trkpt><trkpt lat="46.0383417" lon="13.477625"><ele>98.0</ele><time>2026-05-03T07:26:08.595Z</time></trkpt><trkpt lat="46.0381567" lon="13.4776517"><ele>96.66666666666666</ele><time>2026-05-03T07:26:09.594Z</time></trkpt><trkpt lat="46.03797" lon="13.477685"><ele>95.33333333333333</ele><time>2026-05-03T07:26:10.594Z</time></trkpt><trkpt lat="46.0377833" lon="13.477715"><ele>94.0</ele><time>2026-05-03T07:26:11.594Z</time></trkpt><trkpt lat="46.0375983" lon="13.4777533"><ele>94.33333333333333</ele><time>2026-05-03T07:26:12.594Z</time></trkpt><trkpt lat="46.03742" lon="13.4777933"><ele>94.66666666666667</ele><time>2026-05-03T07:26:13.594Z</time></trkpt><trkpt lat="46.0372417" lon="13.477825"><ele>95.0</ele><time>2026-05-03T07:26:14.595Z</time></trkpt><trkpt lat="46.0370683" lon="13.4778467"><ele>95.0</ele><time>2026-05-03T07:26:15.593Z</time></trkpt><trkpt lat="46.036905" lon="13.477865"><ele>95.0</ele><time>2026-05-03T07:26:16.593Z</time></trkpt><trkpt lat="46.0367417" lon="13.47785"><ele>95.0</ele><time>2026-05-03T07:26:17.594Z</time></trkpt><trkpt lat="46.036575" lon="13.4777967"><ele>94.0</ele><time>2026-05-03T07:26:18.593Z</time></trkpt><trkpt lat="46.0364033" lon="13.4777267"><ele>93.0</ele><time>2026-05-03T07:26:19.593Z</time></trkpt><trkpt lat="46.03623" lon="13.4776383"><ele>92.0</ele><time>2026-05-03T07:26:20.594Z</time></trkpt><trkpt lat="46.03605" lon="13.4775583"><ele>92.0</ele><time>2026-05-03T07:26:21.593Z</time></trkpt><trkpt lat="46.0358667" lon="13.4774767"><ele>92.0</ele><time>2026-05-03T07:26:22.593Z</time></trkpt><trkpt lat="46.0356783" lon="13.4773967"><ele>92.0</ele><time>2026-05-03T07:26:23.594Z</time></trkpt><trkpt lat="46.0354867" lon="13.47732"><ele>91.33333333333334</ele><time>2026-05-03T07:26:24.593Z</time></trkpt><trkpt lat="46.0352967" lon="13.4772367"><ele>90.66666666666667</ele><time>2026-05-03T07:26:25.595Z</time></trkpt><trkpt lat="46.0351083" lon="13.477175"><ele>90.0</ele><time>2026-05-03T07:26:26.594Z</time></trkpt><trkpt lat="46.0349233" lon="13.477125"><ele>89.33333333333333</ele><time>2026-05-03T07:26:27.594Z</time></trkpt><trkpt lat="46.03474" lon="13.4770717"><ele>88.66666666666666</ele><time>2026-05-03T07:26:28.594Z</time></trkpt><trkpt lat="46.0345617" lon="13.477025"><ele>88.0</ele><time>2026-05-03T07:26:29.594Z</time></trkpt><trkpt lat="46.0343867" lon="13.4769617"><ele>88.0</ele><time>2026-05-03T07:26:30.594Z</time></trkpt><trkpt lat="46.0342133" lon="13.4769033"><ele>88.0</ele><time>2026-05-03T07:26:31.594Z</time></trkpt><trkpt lat="46.0340433" lon="13.4768217"><ele>88.0</ele><time>2026-05-03T07:26:32.594Z</time></trkpt><trkpt lat="46.0338767" lon="13.4767317"><ele>88.33333333333333</ele><time>2026-05-03T07:26:33.593Z</time></trkpt><trkpt lat="46.0336983" lon="13.4766817"><ele>88.66666666666667</ele><time>2026-05-03T07:26:34.596Z</time></trkpt><trkpt lat="46.033535" lon="13.4766083"><ele>89.0</ele><time>2026-05-03T07:26:35.595Z</time></trkpt><trkpt lat="46.03338" lon="13.4765217"><ele>89.0</ele><time>2026-05-03T07:26:36.593Z</time></trkpt><trkpt lat="46.03323" lon="13.4764183"><ele>89.0</ele><time>2026-05-03T07:26:37.595Z</time></trkpt><trkpt lat="46.0330883" lon="13.4762817"><ele>89.0</ele><time>2026-05-03T07:26:38.596Z</time></trkpt><trkpt lat="46.0329283" lon="13.4761617"><ele>89.0</ele><time>2026-05-03T07:26:39.593Z</time></trkpt><trkpt lat="46.03279" lon="13.475995"><ele>89.0</ele><time>2026-05-03T07:26:40.594Z</time></trkpt><trkpt lat="46.032655" lon="13.47583"><ele>89.0</ele><time>2026-05-03T07:26:41.593Z</time></trkpt><trkpt lat="46.0325117" lon="13.4756967"><ele>89.5</ele><time>2026-05-03T07:26:42.594Z</time></trkpt><trkpt lat="46.0323683" lon="13.4756"><ele>90.0</ele><time>2026-05-03T07:26:43.596Z</time></trkpt><trkpt lat="46.0322317" lon="13.475515"><ele>90.5</ele><time>2026-05-03T07:26:44.595Z</time></trkpt><trkpt lat="46.0321033" lon="13.475445"><ele>91.0</ele><time>2026-05-03T07:26:45.593Z</time></trkpt><trkpt lat="46.0319917" lon="13.4753817"><ele>91.0</ele><time>2026-05-03T07:26:46.594Z</time></trkpt><trkpt lat="46.031895" lon="13.4753417"><ele>91.0</ele><time>2026-05-03T07:26:47.594Z</time></trkpt><trkpt lat="46.0318033" lon="13.4753467"><ele>91.0</ele><time>2026-05-03T07:26:48.594Z</time></trkpt><trkpt lat="46.0317283" lon="13.4754167"><ele>91.0</ele><time>2026-05-03T07:26:49.594Z</time></trkpt><trkpt lat="46.0316683" lon="13.4755417"><ele>91.0</ele><time>2026-05-03T07:26:50.594Z</time></trkpt><trkpt lat="46.0316267" lon="13.4757017"><ele>89.6</ele><time>2026-05-03T07:26:51.594Z</time></trkpt><trkpt lat="46.0315833" lon="13.475845"><ele>88.19999999999999</ele><time>2026-05-03T07:26:52.594Z</time></trkpt><trkpt lat="46.03154" lon="13.475975"><ele>86.80000000000001</ele><time>2026-05-03T07:26:53.594Z</time></trkpt><trkpt lat="46.0314933" lon="13.4760717"><ele>85.4</ele><time>2026-05-03T07:26:54.594Z</time></trkpt><trkpt lat="46.03143" lon="13.4761417"><ele>84.0</ele><time>2026-05-03T07:26:55.594Z</time></trkpt><trkpt lat="46.0313367" lon="13.4761667"><ele>84.0</ele><time>2026-05-03T07:26:56.594Z</time></trkpt><trkpt lat="46.0312267" lon="13.4761567"><ele>84.0</ele><time>2026-05-03T07:26:57.594Z</time></trkpt><trkpt lat="46.0311017" lon="13.47615"><ele>84.0</ele><time>2026-05-03T07:26:58.594Z</time></trkpt><trkpt lat="46.03096" lon="13.4761267"><ele>84.0</ele><time>2026-05-03T07:26:59.594Z</time></trkpt><trkpt lat="46.0308067" lon="13.47609"><ele>83.66666666666667</ele><time>2026-05-03T07:27:00.594Z</time></trkpt><trkpt lat="46.0306483" lon="13.4760633"><ele>83.33333333333334</ele><time>2026-05-03T07:27:01.593Z</time></trkpt><trkpt lat="46.030485" lon="13.47602"><ele>83.0</ele><time>2026-05-03T07:27:02.594Z</time></trkpt><trkpt lat="46.0303283" lon="13.4759817"><ele>83.0</ele><time>2026-05-03T07:27:03.593Z</time></trkpt><trkpt lat="46.0301817" lon="13.4759567"><ele>83.0</ele><time>2026-05-03T07:27:04.593Z</time></trkpt><trkpt lat="46.0300367" lon="13.4759017"><ele>83.0</ele><time>2026-05-03T07:27:05.593Z</time></trkpt><trkpt lat="46.0298967" lon="13.4758583"><ele>83.0</ele><time>2026-05-03T07:27:06.593Z</time></trkpt><trkpt lat="46.02975" lon="13.4758167"><ele>82.33333333333334</ele><time>2026-05-03T07:27:07.594Z</time></trkpt><trkpt lat="46.0295933" lon="13.475755"><ele>81.66666666666667</ele><time>2026-05-03T07:27:08.594Z</time></trkpt><trkpt lat="46.0294383" lon="13.475745"><ele>81.0</ele><time>2026-05-03T07:27:09.594Z</time></trkpt><trkpt lat="46.0292783" lon="13.4757067"><ele>80.75</ele><time>2026-05-03T07:27:10.594Z</time></trkpt><trkpt lat="46.0291267" lon="13.475625"><ele>80.5</ele><time>2026-05-03T07:27:11.593Z</time></trkpt><trkpt lat="46.028995" lon="13.4755567"><ele>80.25</ele><time>2026-05-03T07:27:12.593Z</time></trkpt><trkpt lat="46.02887" lon="13.4754467"><ele>80.0</ele><time>2026-05-03T07:27:13.593Z</time></trkpt><trkpt lat="46.0287467" lon="13.47534"><ele>80.0</ele><time>2026-05-03T07:27:14.596Z</time></trkpt><trkpt lat="46.0286417" lon="13.4752467"><ele>80.0</ele><time>2026-05-03T07:27:15.594Z</time></trkpt><trkpt lat="46.0285633" lon="13.4751567"><ele>80.0</ele><time>2026-05-03T07:27:16.595Z</time></trkpt><trkpt lat="46.0284967" lon="13.4751017"><ele>80.0</ele><time>2026-05-03T07:27:17.593Z</time></trkpt><trkpt lat="46.0284617" lon="13.4749267"><ele>80.0</ele><time>2026-05-03T07:27:19.594Z</time></trkpt><trkpt lat="46.0285067" lon="13.474795"><ele>80.0</ele><time>2026-05-03T07:27:20.594Z</time></trkpt><trkpt lat="46.02856" lon="13.474655"><ele>80.0</ele><time>2026-05-03T07:27:21.593Z</time></trkpt><trkpt lat="46.028605" lon="13.47451"><ele>80.0</ele><time>2026-05-03T07:27:22.595Z</time></trkpt><trkpt lat="46.0286467" lon="13.4743417"><ele>80.0</ele><time>2026-05-03T07:27:23.597Z</time></trkpt><trkpt lat="46.0287083" lon="13.4741467"><ele>81.0</ele><time>2026-05-03T07:27:24.596Z</time></trkpt><trkpt lat="46.0287383" lon="13.47396"><ele>82.0</ele><time>2026-05-03T07:27:25.595Z</time></trkpt><trkpt lat="46.0287867" lon="13.4737733"><ele>83.0</ele><time>2026-05-03T07:27:26.595Z</time></trkpt><trkpt lat="46.028815" lon="13.4735833"><ele>84.0</ele><time>2026-05-03T07:27:27.594Z</time></trkpt><trkpt lat="46.0288367" lon="13.4734067"><ele>85.5</ele><time>2026-05-03T07:27:28.594Z</time></trkpt><trkpt lat="46.02884" lon="13.4732333"><ele>87.0</ele><time>2026-05-03T07:27:29.593Z</time></trkpt><trkpt lat="46.0288117" lon="13.47307"><ele>88.5</ele><time>2026-05-03T07:27:30.595Z</time></trkpt><trkpt lat="46.02875" lon="13.4729083"><ele>90.0</ele><time>2026-05-03T07:27:31.594Z</time></trkpt><trkpt lat="46.0286717" lon="13.472735"><ele>90.0</ele><time>2026-05-03T07:27:32.595Z</time></trkpt><trkpt lat="46.0286067" lon="13.4725467"><ele>90.0</ele><time>2026-05-03T07:27:33.594Z</time></trkpt><trkpt lat="46.0285583" lon="13.47235"><ele>90.0</ele><time>2026-05-03T07:27:34.594Z</time></trkpt><trkpt lat="46.0285233" lon="13.47216"><ele>90.0</ele><time>2026-05-03T07:27:35.594Z</time></trkpt><trkpt lat="46.0285233" lon="13.4719583"><ele>90.75</ele><time>2026-05-03T07:27:36.593Z</time></trkpt><trkpt lat="46.028535" lon="13.4717617"><ele>91.5</ele><time>2026-05-03T07:27:37.594Z</time></trkpt><trkpt lat="46.028535" lon="13.4715617"><ele>92.25</ele><time>2026-05-03T07:27:38.594Z</time></trkpt><trkpt lat="46.02851" lon="13.4713667"><ele>93.0</ele><time>2026-05-03T07:27:39.594Z</time></trkpt><trkpt lat="46.0284817" lon="13.4711667"><ele>94.0</ele><time>2026-05-03T07:27:40.594Z</time></trkpt><trkpt lat="46.0284267" lon="13.47098"><ele>95.0</ele><time>2026-05-03T07:27:41.593Z</time></trkpt><trkpt lat="46.0283683" lon="13.4707933"><ele>96.0</ele><time>2026-05-03T07:27:42.594Z</time></trkpt><trkpt lat="46.0283133" lon="13.4706017"><ele>97.0</ele><time>2026-05-03T07:27:43.595Z</time></trkpt><trkpt lat="46.0282667" lon="13.4704167"><ele>98.0</ele><time>2026-05-03T07:27:44.595Z</time></trkpt><trkpt lat="46.0282283" lon="13.4702383"><ele>99.0</ele><time>2026-05-03T07:27:45.595Z</time></trkpt><trkpt lat="46.0281917" lon="13.4700567"><ele>100.0</ele><time>2026-05-03T07:27:46.594Z</time></trkpt><trkpt lat="46.0281517" lon="13.4698833"><ele>101.0</ele><time>2026-05-03T07:27:47.594Z</time></trkpt><trkpt lat="46.02808" lon="13.46973"><ele>103.25</ele><time>2026-05-03T07:27:48.593Z</time></trkpt><trkpt lat="46.027995" lon="13.4695867"><ele>105.5</ele><time>2026-05-03T07:27:49.595Z</time></trkpt><trkpt lat="46.0279017" lon="13.4694533"><ele>107.75</ele><time>2026-05-03T07:27:50.595Z</time></trkpt><trkpt lat="46.0277967" lon="13.4693433"><ele>110.0</ele><time>2026-05-03T07:27:51.593Z</time></trkpt><trkpt lat="46.0276767" lon="13.469255"><ele>110.0</ele><time>2026-05-03T07:27:52.594Z</time></trkpt><trkpt lat="46.0275433" lon="13.469205"><ele>110.0</ele><time>2026-05-03T07:27:53.596Z</time></trkpt><trkpt lat="46.0274067" lon="13.469165"><ele>110.0</ele><time>2026-05-03T07:27:54.594Z</time></trkpt><trkpt lat="46.0272717" lon="13.4690967"><ele>110.0</ele><time>2026-05-03T07:27:55.593Z</time></trkpt><trkpt lat="46.027135" lon="13.4690383"><ele>109.75</ele><time>2026-05-03T07:27:56.595Z</time></trkpt><trkpt lat="46.027" lon="13.468985"><ele>109.5</ele><time>2026-05-03T07:27:57.594Z</time></trkpt><trkpt lat="46.0268683" lon="13.4689483"><ele>109.25</ele><time>2026-05-03T07:27:58.594Z</time></trkpt><trkpt lat="46.0267433" lon="13.4689117"><ele>109.0</ele><time>2026-05-03T07:27:59.593Z</time></trkpt><trkpt lat="46.0266283" lon="13.4688733"><ele>109.6</ele><time>2026-05-03T07:28:00.593Z</time></trkpt><trkpt lat="46.02653" lon="13.4688217"><ele>110.2</ele><time>2026-05-03T07:28:01.596Z</time></trkpt><trkpt lat="46.026445" lon="13.4687333"><ele>110.79999999999998</ele><time>2026-05-03T07:28:02.595Z</time></trkpt><trkpt lat="46.0263633" lon="13.46862"><ele>111.39999999999999</ele><time>2026-05-03T07:28:03.594Z</time></trkpt><trkpt lat="46.026275" lon="13.468525"><ele>112.0</ele><time>2026-05-03T07:28:04.595Z</time></trkpt><trkpt lat="46.0261817" lon="13.46844"><ele>112.00000000000001</ele><time>2026-05-03T07:28:05.594Z</time></trkpt><trkpt lat="46.0260867" lon="13.4683833"><ele>112.0</ele><time>2026-05-03T07:28:06.594Z</time></trkpt><trkpt lat="46.026005" lon="13.46832"><ele>112.0</ele><time>2026-05-03T07:28:07.594Z</time></trkpt><trkpt lat="46.0259583" lon="13.4682267"><ele>112.0</ele><time>2026-05-03T07:28:08.595Z</time></trkpt><trkpt lat="46.0259483" lon="13.46812"><ele>112.00000000000001</ele><time>2026-05-03T07:28:09.594Z</time></trkpt><trkpt lat="46.0259567" lon="13.468025"><ele>112.0</ele><time>2026-05-03T07:28:10.594Z</time></trkpt><trkpt lat="46.02591" lon="13.4679433"><ele>111.19999999999999</ele><time>2026-05-03T07:28:12.594Z</time></trkpt><trkpt lat="46.02578" lon="13.4679367"><ele>110.39999999999999</ele><time>2026-05-03T07:28:14.595Z</time></trkpt><trkpt lat="46.0256917" lon="13.4679467"><ele>109.60000000000001</ele><time>2026-05-03T07:28:15.594Z</time></trkpt><trkpt lat="46.0255983" lon="13.4679467"><ele>108.80000000000001</ele><time>2026-05-03T07:28:16.594Z</time></trkpt><trkpt lat="46.0254967" lon="13.467945"><ele>108.0</ele><time>2026-05-03T07:28:17.594Z</time></trkpt><trkpt lat="46.0253983" lon="13.4679867"><ele>108.0</ele><time>2026-05-03T07:28:18.594Z</time></trkpt><trkpt lat="46.025305" lon="13.4680483"><ele>108.0</ele><time>2026-05-03T07:28:19.594Z</time></trkpt><trkpt lat="46.0252117" lon="13.4681"><ele>108.0</ele><time>2026-05-03T07:28:20.596Z</time></trkpt><trkpt lat="46.025145" lon="13.46818"><ele>108.0</ele><time>2026-05-03T07:28:21.595Z</time></trkpt><trkpt lat="46.025095" lon="13.4682567"><ele>108.0</ele><time>2026-05-03T07:28:22.594Z</time></trkpt><trkpt lat="46.0250633" lon="13.4683483"><ele>108.0</ele><time>2026-05-03T07:28:23.595Z</time></trkpt><trkpt lat="46.0250617" lon="13.4685167"><ele>108.0</ele><time>2026-05-03T07:28:25.594Z</time></trkpt><trkpt lat="46.0250983" lon="13.4686033"><ele>108.0</ele><time>2026-05-03T07:28:26.594Z</time></trkpt><trkpt lat="46.0251517" lon="13.4686783"><ele>108.0</ele><time>2026-05-03T07:28:27.594Z</time></trkpt><trkpt lat="46.0252133" lon="13.46874"><ele>108.0</ele><time>2026-05-03T07:28:28.595Z</time></trkpt><trkpt lat="46.02524" lon="13.46888"><ele>108.0</ele><time>2026-05-03T07:28:30.593Z</time></trkpt><trkpt lat="46.025175" lon="13.468975"><ele>108.0</ele><time>2026-05-03T07:28:32.594Z</time></trkpt><trkpt lat="46.0251133" lon="13.4690033"><ele>107.5</ele><time>2026-05-03T07:28:33.594Z</time></trkpt><trkpt lat="46.0250317" lon="13.4690167"><ele>107.0</ele><time>2026-05-03T07:28:34.593Z</time></trkpt><trkpt lat="46.0249467" lon="13.469025"><ele>106.5</ele><time>2026-05-03T07:28:35.594Z</time></trkpt><trkpt lat="46.0248683" lon="13.4690183"><ele>106.0</ele><time>2026-05-03T07:28:36.595Z</time></trkpt><trkpt lat="46.0247917" lon="13.4689817"><ele>105.5</ele><time>2026-05-03T07:28:37.594Z</time></trkpt><trkpt lat="46.0247133" lon="13.4689233"><ele>105.0</ele><time>2026-05-03T07:28:38.595Z</time></trkpt><trkpt lat="46.0246233" lon="13.4688533"><ele>103.6</ele><time>2026-05-03T07:28:39.593Z</time></trkpt><trkpt lat="46.0245217" lon="13.468775"><ele>102.2</ele><time>2026-05-03T07:28:40.595Z</time></trkpt><trkpt lat="46.0244217" lon="13.4686933"><ele>100.80000000000001</ele><time>2026-05-03T07:28:41.595Z</time></trkpt><trkpt lat="46.0243267" lon="13.468615"><ele>99.4</ele><time>2026-05-03T07:28:42.595Z</time></trkpt><trkpt lat="46.0242333" lon="13.4685483"><ele>98.0</ele><time>2026-05-03T07:28:43.595Z</time></trkpt><trkpt lat="46.0241417" lon="13.4684867"><ele>96.4</ele><time>2026-05-03T07:28:44.594Z</time></trkpt><trkpt lat="46.0240533" lon="13.468435"><ele>94.80000000000001</ele><time>2026-05-03T07:28:45.595Z</time></trkpt><trkpt lat="46.02396" lon="13.468375"><ele>93.2</ele><time>2026-05-03T07:28:46.595Z</time></trkpt><trkpt lat="46.0238717" lon="13.468305"><ele>91.6</ele><time>2026-05-03T07:28:47.594Z</time></trkpt><trkpt lat="46.0237883" lon="13.468225"><ele>90.0</ele><time>2026-05-03T07:28:48.594Z</time></trkpt><trkpt lat="46.0237067" lon="13.46814"><ele>90.0</ele><time>2026-05-03T07:28:49.594Z</time></trkpt><trkpt lat="46.0236333" lon="13.4680667"><ele>90.0</ele><time>2026-05-03T07:28:50.594Z</time></trkpt><trkpt lat="46.02356" lon="13.4680167"><ele>90.0</ele><time>2026-05-03T07:28:51.595Z</time></trkpt><trkpt lat="46.023485" lon="13.46799"><ele>90.0</ele><time>2026-05-03T07:28:52.593Z</time></trkpt><trkpt lat="46.0234033" lon="13.467985"><ele>90.0</ele><time>2026-05-03T07:28:53.595Z</time></trkpt><trkpt lat="46.0233133" lon="13.468045"><ele>90.0</ele><time>2026-05-03T07:28:54.595Z</time></trkpt><trkpt lat="46.02323" lon="13.4681283"><ele>90.0</ele><time>2026-05-03T07:28:55.596Z</time></trkpt><trkpt lat="46.02315" lon="13.468235"><ele>90.0</ele><time>2026-05-03T07:28:56.596Z</time></trkpt><trkpt lat="46.02306" lon="13.468355"><ele>90.0</ele><time>2026-05-03T07:28:57.595Z</time></trkpt><trkpt lat="46.0229583" lon="13.468475"><ele>90.0</ele><time>2026-05-03T07:28:58.594Z</time></trkpt><trkpt lat="46.022855" lon="13.468565"><ele>90.0</ele><time>2026-05-03T07:28:59.594Z</time></trkpt><trkpt lat="46.0227583" lon="13.468645"><ele>90.0</ele><time>2026-05-03T07:29:00.595Z</time></trkpt><trkpt lat="46.0226533" lon="13.468685"><ele>90.0</ele><time>2026-05-03T07:29:01.595Z</time></trkpt><trkpt lat="46.022545" lon="13.4687167"><ele>90.0</ele><time>2026-05-03T07:29:02.594Z</time></trkpt><trkpt lat="46.022435" lon="13.468735"><ele>90.0</ele><time>2026-05-03T07:29:03.595Z</time></trkpt><trkpt lat="46.0223133" lon="13.468775"><ele>88.75</ele><time>2026-05-03T07:29:04.594Z</time></trkpt><trkpt lat="46.0221983" lon="13.4688183"><ele>87.5</ele><time>2026-05-03T07:29:05.595Z</time></trkpt><trkpt lat="46.0220867" lon="13.4688567"><ele>86.25</ele><time>2026-05-03T07:29:06.593Z</time></trkpt><trkpt lat="46.021975" lon="13.4688833"><ele>85.0</ele><time>2026-05-03T07:29:07.595Z</time></trkpt><trkpt lat="46.0218583" lon="13.4688967"><ele>85.0</ele><time>2026-05-03T07:29:08.594Z</time></trkpt><trkpt lat="46.0217383" lon="13.4688967"><ele>85.0</ele><time>2026-05-03T07:29:09.594Z</time></trkpt><trkpt lat="46.0216233" lon="13.4688967"><ele>85.0</ele><time>2026-05-03T07:29:10.594Z</time></trkpt><trkpt lat="46.0215117" lon="13.468905"><ele>85.0</ele><time>2026-05-03T07:29:11.595Z</time></trkpt><trkpt lat="46.0213917" lon="13.4689233"><ele>84.8</ele><time>2026-05-03T07:29:12.594Z</time></trkpt><trkpt lat="46.0212767" lon="13.468945"><ele>84.6</ele><time>2026-05-03T07:29:13.595Z</time></trkpt><trkpt lat="46.021175" lon="13.468965"><ele>84.4</ele><time>2026-05-03T07:29:14.595Z</time></trkpt><trkpt lat="46.0210733" lon="13.4689917"><ele>84.2</ele><time>2026-05-03T07:29:15.593Z</time></trkpt><trkpt lat="46.0209833" lon="13.4690233"><ele>84.0</ele><time>2026-05-03T07:29:16.595Z</time></trkpt><trkpt lat="46.0209017" lon="13.4690417"><ele>84.0</ele><time>2026-05-03T07:29:17.594Z</time></trkpt><trkpt lat="46.0208233" lon="13.46905"><ele>84.0</ele><time>2026-05-03T07:29:18.595Z</time></trkpt><trkpt lat="46.0207467" lon="13.4690333"><ele>84.0</ele><time>2026-05-03T07:29:19.594Z</time></trkpt><trkpt lat="46.02067" lon="13.4689733"><ele>84.0</ele><time>2026-05-03T07:29:20.594Z</time></trkpt><trkpt lat="46.020575" lon="13.468905"><ele>84.0</ele><time>2026-05-03T07:29:21.593Z</time></trkpt><trkpt lat="46.02047" lon="13.468825"><ele>85.75</ele><time>2026-05-03T07:29:22.597Z</time></trkpt><trkpt lat="46.0203567" lon="13.4687367"><ele>87.5</ele><time>2026-05-03T07:29:23.595Z</time></trkpt><trkpt lat="46.0202383" lon="13.4686383"><ele>89.25</ele><time>2026-05-03T07:29:24.594Z</time></trkpt><trkpt lat="46.020115" lon="13.4685383"><ele>91.0</ele><time>2026-05-03T07:29:25.595Z</time></trkpt><trkpt lat="46.0199917" lon="13.4684417"><ele>89.75</ele><time>2026-05-03T07:29:26.594Z</time></trkpt><trkpt lat="46.0198667" lon="13.4683467"><ele>88.5</ele><time>2026-05-03T07:29:27.594Z</time></trkpt><trkpt lat="46.0197407" lon="13.4682587"><ele>87.25</ele><time>2026-05-03T07:29:28.593Z</time></trkpt><trkpt lat="46.0196226" lon="13.4681684"><ele>86.0</ele><time>2026-05-03T07:29:29.595Z</time></trkpt><trkpt lat="46.0195051" lon="13.468091"><ele>86.0</ele><time>2026-05-03T07:29:30.595Z</time></trkpt><trkpt lat="46.0193915" lon="13.4680139"><ele>86.0</ele><time>2026-05-03T07:29:31.594Z</time></trkpt><trkpt lat="46.0192786" lon="13.4679299"><ele>86.0</ele><time>2026-05-03T07:29:32.594Z</time></trkpt><trkpt lat="46.0191657" lon="13.4678449"><ele>86.0</ele><time>2026-05-03T07:29:33.595Z</time></trkpt><trkpt lat="46.0190578" lon="13.4677627"><ele>85.75</ele><time>2026-05-03T07:29:34.594Z</time></trkpt><trkpt lat="46.0189516" lon="13.4676851"><ele>85.5</ele><time>2026-05-03T07:29:35.594Z</time></trkpt><trkpt lat="46.0188477" lon="13.4676168"><ele>85.25</ele><time>2026-05-03T07:29:36.595Z</time></trkpt><trkpt lat="46.0187405" lon="13.4675627"><ele>85.0</ele><time>2026-05-03T07:29:37.595Z</time></trkpt><trkpt lat="46.0186291" lon="13.4675149"><ele>85.0</ele><time>2026-05-03T07:29:38.595Z</time></trkpt><trkpt lat="46.0185113" lon="13.4674716"><ele>85.0</ele><time>2026-05-03T07:29:39.595Z</time></trkpt><trkpt lat="46.0183945" lon="13.467435"><ele>85.0</ele><time>2026-05-03T07:29:40.593Z</time></trkpt><trkpt lat="46.0182867" lon="13.4674061"><ele>85.0</ele><time>2026-05-03T07:29:41.595Z</time></trkpt><trkpt lat="46.0181788" lon="13.46739"><ele>84.4</ele><time>2026-05-03T07:29:42.594Z</time></trkpt><trkpt lat="46.0180659" lon="13.4673829"><ele>83.8</ele><time>2026-05-03T07:29:43.595Z</time></trkpt><trkpt lat="46.0179504" lon="13.4673826"><ele>83.19999999999999</ele><time>2026-05-03T07:29:44.595Z</time></trkpt><trkpt lat="46.0178454" lon="13.4673879"><ele>82.6</ele><time>2026-05-03T07:29:45.594Z</time></trkpt><trkpt lat="46.0177498" lon="13.4673931"><ele>82.0</ele><time>2026-05-03T07:29:46.595Z</time></trkpt><trkpt lat="46.0176584" lon="13.4673987"><ele>82.0</ele><time>2026-05-03T07:29:47.594Z</time></trkpt><trkpt lat="46.0175828" lon="13.4674056"><ele>82.0</ele><time>2026-05-03T07:29:48.595Z</time></trkpt><trkpt lat="46.0175196" lon="13.4674203"><ele>82.0</ele><time>2026-05-03T07:29:49.593Z</time></trkpt><trkpt lat="46.0174279" lon="13.4675054"><ele>82.0</ele><time>2026-05-03T07:29:51.594Z</time></trkpt><trkpt lat="46.0173978" lon="13.467589"><ele>82.0</ele><time>2026-05-03T07:29:52.593Z</time></trkpt><trkpt lat="46.017375" lon="13.4677008"><ele>82.0</ele><time>2026-05-03T07:29:53.597Z</time></trkpt><trkpt lat="46.0173563" lon="13.4678429"><ele>81.83333333333333</ele><time>2026-05-03T07:29:54.595Z</time></trkpt><trkpt lat="46.017343" lon="13.4679836"><ele>81.66666666666666</ele><time>2026-05-03T07:29:55.593Z</time></trkpt><trkpt lat="46.0173416" lon="13.4681093"><ele>81.5</ele><time>2026-05-03T07:29:56.594Z</time></trkpt><trkpt lat="46.017356" lon="13.4682124"><ele>81.33333333333333</ele><time>2026-05-03T07:29:57.594Z</time></trkpt><trkpt lat="46.0173881" lon="13.4682934"><ele>81.16666666666667</ele><time>2026-05-03T07:29:58.595Z</time></trkpt><trkpt lat="46.0174471" lon="13.4683422"><ele>81.0</ele><time>2026-05-03T07:29:59.594Z</time></trkpt><trkpt lat="46.0175303" lon="13.4683557"><ele>81.0</ele><time>2026-05-03T07:30:00.594Z</time></trkpt><trkpt lat="46.0176127" lon="13.4683638"><ele>81.0</ele><time>2026-05-03T07:30:01.595Z</time></trkpt><trkpt lat="46.017686" lon="13.4683842"><ele>81.0</ele><time>2026-05-03T07:30:02.595Z</time></trkpt><trkpt lat="46.0177495" lon="13.4684236"><ele>81.0</ele><time>2026-05-03T07:30:03.594Z</time></trkpt><trkpt lat="46.017805" lon="13.4684926"><ele>81.0</ele><time>2026-05-03T07:30:04.594Z</time></trkpt><trkpt lat="46.0178661" lon="13.4685853"><ele>81.0</ele><time>2026-05-03T07:30:05.594Z</time></trkpt><trkpt lat="46.0179269" lon="13.4686997"><ele>80.16666666666667</ele><time>2026-05-03T07:30:06.595Z</time></trkpt><trkpt lat="46.0179775" lon="13.4688226"><ele>79.33333333333333</ele><time>2026-05-03T07:30:07.596Z</time></trkpt><trkpt lat="46.0180156" lon="13.4689414"><ele>78.5</ele><time>2026-05-03T07:30:08.596Z</time></trkpt><trkpt lat="46.0180268" lon="13.469058"><ele>77.66666666666666</ele><time>2026-05-03T07:30:09.594Z</time></trkpt><trkpt lat="46.0180154" lon="13.4691722"><ele>76.83333333333333</ele><time>2026-05-03T07:30:10.595Z</time></trkpt><trkpt lat="46.0179842" lon="13.4692741"><ele>76.0</ele><time>2026-05-03T07:30:11.593Z</time></trkpt><trkpt lat="46.017939" lon="13.4693593"><ele>76.0</ele><time>2026-05-03T07:30:12.595Z</time></trkpt><trkpt lat="46.0178844" lon="13.4694235"><ele>76.0</ele><time>2026-05-03T07:30:13.595Z</time></trkpt><trkpt lat="46.0177732" lon="13.4694718"><ele>76.0</ele><time>2026-05-03T07:30:15.594Z</time></trkpt><trkpt lat="46.0177015" lon="13.4694549"><ele>76.0</ele><time>2026-05-03T07:30:16.593Z</time></trkpt><trkpt lat="46.0176147" lon="13.469415"><ele>76.0</ele><time>2026-05-03T07:30:17.594Z</time></trkpt><trkpt lat="46.0175089" lon="13.4693766"><ele>75.66666666666666</ele><time>2026-05-03T07:30:18.595Z</time></trkpt><trkpt lat="46.0173707" lon="13.4693245"><ele>75.33333333333333</ele><time>2026-05-03T07:30:19.595Z</time></trkpt><trkpt lat="46.01721" lon="13.4692598"><ele>75.0</ele><time>2026-05-03T07:30:20.594Z</time></trkpt><trkpt lat="46.0170421" lon="13.4691931"><ele>75.0</ele><time>2026-05-03T07:30:21.594Z</time></trkpt><trkpt lat="46.0168739" lon="13.4691192"><ele>75.0</ele><time>2026-05-03T07:30:22.595Z</time></trkpt><trkpt lat="46.0167028" lon="13.4690435"><ele>75.0</ele><time>2026-05-03T07:30:23.594Z</time></trkpt><trkpt lat="46.016529" lon="13.4689696"><ele>74.66666666666667</ele><time>2026-05-03T07:30:24.593Z</time></trkpt><trkpt lat="46.0163533" lon="13.4688899"><ele>74.33333333333334</ele><time>2026-05-03T07:30:25.595Z</time></trkpt><trkpt lat="46.0161762" lon="13.4688034"><ele>74.0</ele><time>2026-05-03T07:30:26.594Z</time></trkpt><trkpt lat="46.0160018" lon="13.4687018"><ele>73.66666666666667</ele><time>2026-05-03T07:30:27.593Z</time></trkpt><trkpt lat="46.0158326" lon="13.4685804"><ele>73.33333333333333</ele><time>2026-05-03T07:30:28.594Z</time></trkpt><trkpt lat="46.0156698" lon="13.4684399"><ele>73.0</ele><time>2026-05-03T07:30:29.594Z</time></trkpt><trkpt lat="46.0155137" lon="13.4682824"><ele>73.0</ele><time>2026-05-03T07:30:30.594Z</time></trkpt><trkpt lat="46.0153595" lon="13.4681157"><ele>73.0</ele><time>2026-05-03T07:30:31.594Z</time></trkpt><trkpt lat="46.0152088" lon="13.4679477"><ele>73.0</ele><time>2026-05-03T07:30:32.595Z</time></trkpt><trkpt lat="46.0150577" lon="13.4677842"><ele>73.33333333333333</ele><time>2026-05-03T07:30:33.595Z</time></trkpt><trkpt lat="46.0149032" lon="13.4676278"><ele>73.66666666666667</ele><time>2026-05-03T07:30:34.597Z</time></trkpt><trkpt lat="46.014745" lon="13.467485"><ele>74.0</ele><time>2026-05-03T07:30:35.594Z</time></trkpt><trkpt lat="46.0145767" lon="13.4673633"><ele>74.0</ele><time>2026-05-03T07:30:36.594Z</time></trkpt><trkpt lat="46.0144017" lon="13.4672617"><ele>74.0</ele><time>2026-05-03T07:30:37.593Z</time></trkpt><trkpt lat="46.0142233" lon="13.4671733"><ele>74.0</ele><time>2026-05-03T07:30:38.595Z</time></trkpt><trkpt lat="46.0140417" lon="13.4671017"><ele>74.66666666666667</ele><time>2026-05-03T07:30:39.593Z</time></trkpt><trkpt lat="46.0138583" lon="13.4670433"><ele>75.33333333333333</ele><time>2026-05-03T07:30:40.595Z</time></trkpt><trkpt lat="46.0136733" lon="13.466995"><ele>76.0</ele><time>2026-05-03T07:30:41.595Z</time></trkpt><trkpt lat="46.0134867" lon="13.46695"><ele>75.0</ele><time>2026-05-03T07:30:42.594Z</time></trkpt><trkpt lat="46.0133083" lon="13.4669133"><ele>74.0</ele><time>2026-05-03T07:30:43.594Z</time></trkpt><trkpt lat="46.0131317" lon="13.466865"><ele>73.0</ele><time>2026-05-03T07:30:44.595Z</time></trkpt><trkpt lat="46.0129517" lon="13.466825"><ele>73.0</ele><time>2026-05-03T07:30:45.594Z</time></trkpt><trkpt lat="46.012775" lon="13.4667617"><ele>73.0</ele><time>2026-05-03T07:30:46.594Z</time></trkpt><trkpt lat="46.0126033" lon="13.466655"><ele>73.0</ele><time>2026-05-03T07:30:47.595Z</time></trkpt><trkpt lat="46.0124317" lon="13.46654"><ele>72.66666666666666</ele><time>2026-05-03T07:30:48.595Z</time></trkpt><trkpt lat="46.0122583" lon="13.46643"><ele>72.33333333333333</ele><time>2026-05-03T07:30:49.595Z</time></trkpt><trkpt lat="46.012085" lon="13.4663167"><ele>72.0</ele><time>2026-05-03T07:30:50.596Z</time></trkpt><trkpt lat="46.01191" lon="13.4662117"><ele>72.0</ele><time>2026-05-03T07:30:51.595Z</time></trkpt><trkpt lat="46.0117417" lon="13.4660933"><ele>72.0</ele><time>2026-05-03T07:30:52.595Z</time></trkpt><trkpt lat="46.0115683" lon="13.465985"><ele>72.0</ele><time>2026-05-03T07:30:53.594Z</time></trkpt><trkpt lat="46.011395" lon="13.46587"><ele>71.66666666666667</ele><time>2026-05-03T07:30:54.594Z</time></trkpt><trkpt lat="46.01122" lon="13.4657567"><ele>71.33333333333334</ele><time>2026-05-03T07:30:55.595Z</time></trkpt><trkpt lat="46.0110467" lon="13.465645"><ele>71.0</ele><time>2026-05-03T07:30:56.596Z</time></trkpt><trkpt lat="46.0108733" lon="13.46553"><ele>70.33333333333334</ele><time>2026-05-03T07:30:57.595Z</time></trkpt><trkpt lat="46.0106983" lon="13.4654167"><ele>69.66666666666667</ele><time>2026-05-03T07:30:58.594Z</time></trkpt><trkpt lat="46.0105233" lon="13.4653033"><ele>69.0</ele><time>2026-05-03T07:30:59.594Z</time></trkpt><trkpt lat="46.0103467" lon="13.46519"><ele>69.0</ele><time>2026-05-03T07:31:00.595Z</time></trkpt><trkpt lat="46.0101683" lon="13.4650767"><ele>69.0</ele><time>2026-05-03T07:31:01.595Z</time></trkpt><trkpt lat="46.0099933" lon="13.4649617"><ele>69.0</ele><time>2026-05-03T07:31:02.595Z</time></trkpt><trkpt lat="46.0098117" lon="13.4648517"><ele>69.33333333333333</ele><time>2026-05-03T07:31:03.595Z</time></trkpt><trkpt lat="46.0096333" lon="13.4647333"><ele>69.66666666666666</ele><time>2026-05-03T07:31:04.594Z</time></trkpt><trkpt lat="46.0094567" lon="13.46462"><ele>70.0</ele><time>2026-05-03T07:31:05.595Z</time></trkpt><trkpt lat="46.009285" lon="13.4645067"><ele>69.66666666666666</ele><time>2026-05-03T07:31:06.594Z</time></trkpt><trkpt lat="46.0091183" lon="13.4644"><ele>69.33333333333333</ele><time>2026-05-03T07:31:07.594Z</time></trkpt><trkpt lat="46.0089533" lon="13.4643"><ele>69.0</ele><time>2026-05-03T07:31:08.594Z</time></trkpt><trkpt lat="46.008785" lon="13.46421"><ele>69.0</ele><time>2026-05-03T07:31:09.595Z</time></trkpt><trkpt lat="46.008605" lon="13.4641533"><ele>69.0</ele><time>2026-05-03T07:31:10.594Z</time></trkpt><trkpt lat="46.008425" lon="13.4641467"><ele>69.0</ele><time>2026-05-03T07:31:11.594Z</time></trkpt><trkpt lat="46.0082467" lon="13.4641817"><ele>68.66666666666667</ele><time>2026-05-03T07:31:12.596Z</time></trkpt><trkpt lat="46.0080717" lon="13.4642283"><ele>68.33333333333334</ele><time>2026-05-03T07:31:13.595Z</time></trkpt><trkpt lat="46.0079017" lon="13.464315"><ele>68.0</ele><time>2026-05-03T07:31:14.596Z</time></trkpt><trkpt lat="46.0077383" lon="13.4644367"><ele>68.0</ele><time>2026-05-03T07:31:15.594Z</time></trkpt><trkpt lat="46.0075817" lon="13.46457"><ele>68.0</ele><time>2026-05-03T07:31:16.593Z</time></trkpt><trkpt lat="46.0074283" lon="13.4647117"><ele>68.0</ele><time>2026-05-03T07:31:17.594Z</time></trkpt><trkpt lat="46.0072767" lon="13.4648533"><ele>69.33333333333334</ele><time>2026-05-03T07:31:18.593Z</time></trkpt><trkpt lat="46.007125" lon="13.4649783"><ele>70.66666666666667</ele><time>2026-05-03T07:31:19.594Z</time></trkpt><trkpt lat="46.0069783" lon="13.4651"><ele>72.0</ele><time>2026-05-03T07:31:20.596Z</time></trkpt><trkpt lat="46.0068333" lon="13.46523"><ele>72.0</ele><time>2026-05-03T07:31:21.596Z</time></trkpt><trkpt lat="46.006695" lon="13.4653633"><ele>72.0</ele><time>2026-05-03T07:31:22.595Z</time></trkpt><trkpt lat="46.0065517" lon="13.46548"><ele>72.0</ele><time>2026-05-03T07:31:23.594Z</time></trkpt><trkpt lat="46.0064133" lon="13.46561"><ele>71.33333333333333</ele><time>2026-05-03T07:31:24.595Z</time></trkpt><trkpt lat="46.0062783" lon="13.4657533"><ele>70.66666666666666</ele><time>2026-05-03T07:31:25.594Z</time></trkpt><trkpt lat="46.00615" lon="13.4659133"><ele>70.0</ele><time>2026-05-03T07:31:26.595Z</time></trkpt><trkpt lat="46.006035" lon="13.46607"><ele>70.0</ele><time>2026-05-03T07:31:27.595Z</time></trkpt><trkpt lat="46.00594" lon="13.4662167"><ele>70.0</ele><time>2026-05-03T07:31:28.594Z</time></trkpt><trkpt lat="46.0058517" lon="13.4663417"><ele>70.0</ele><time>2026-05-03T07:31:29.595Z</time></trkpt><trkpt lat="46.005765" lon="13.4664483"><ele>70.0</ele><time>2026-05-03T07:31:30.595Z</time></trkpt><trkpt lat="46.0056817" lon="13.4665467"><ele>71.8</ele><time>2026-05-03T07:31:31.596Z</time></trkpt><trkpt lat="46.0055967" lon="13.4666233"><ele>73.6</ele><time>2026-05-03T07:31:32.594Z</time></trkpt><trkpt lat="46.0055033" lon="13.466665"><ele>75.4</ele><time>2026-05-03T07:31:33.594Z</time></trkpt><trkpt lat="46.005395" lon="13.4666667"><ele>77.2</ele><time>2026-05-03T07:31:34.594Z</time></trkpt><trkpt lat="46.0052717" lon="13.466655"><ele>79.0</ele><time>2026-05-03T07:31:35.594Z</time></trkpt><trkpt lat="46.005135" lon="13.46666"><ele>79.66666666666666</ele><time>2026-05-03T07:31:36.594Z</time></trkpt><trkpt lat="46.0049883" lon="13.4666533"><ele>80.33333333333333</ele><time>2026-05-03T07:31:37.594Z</time></trkpt><trkpt lat="46.004835" lon="13.466655"><ele>81.0</ele><time>2026-05-03T07:31:38.594Z</time></trkpt><trkpt lat="46.00468" lon="13.4666317"><ele>81.0</ele><time>2026-05-03T07:31:39.593Z</time></trkpt><trkpt lat="46.0045317" lon="13.4666333"><ele>81.0</ele><time>2026-05-03T07:31:40.594Z</time></trkpt><trkpt lat="46.004385" lon="13.4666317"><ele>81.0</ele><time>2026-05-03T07:31:41.594Z</time></trkpt><trkpt lat="46.004245" lon="13.466635"><ele>81.0</ele><time>2026-05-03T07:31:42.596Z</time></trkpt><trkpt lat="46.0041133" lon="13.466645"><ele>81.0</ele><time>2026-05-03T07:31:43.596Z</time></trkpt><trkpt lat="46.003985" lon="13.4666783"><ele>81.0</ele><time>2026-05-03T07:31:44.598Z</time></trkpt><trkpt lat="46.0038617" lon="13.466755"><ele>81.0</ele><time>2026-05-03T07:31:45.594Z</time></trkpt><trkpt lat="46.003745" lon="13.46685"><ele>81.0</ele><time>2026-05-03T07:31:46.594Z</time></trkpt><trkpt lat="46.003645" lon="13.4669817"><ele>80.0</ele><time>2026-05-03T07:31:47.593Z</time></trkpt><trkpt lat="46.0035767" lon="13.4671683"><ele>79.0</ele><time>2026-05-03T07:31:48.596Z</time></trkpt><trkpt lat="46.00352" lon="13.46737"><ele>78.0</ele><time>2026-05-03T07:31:49.594Z</time></trkpt><trkpt lat="46.0034633" lon="13.4675633"><ele>77.0</ele><time>2026-05-03T07:31:50.594Z</time></trkpt><trkpt lat="46.0033783" lon="13.4677433"><ele>76.66666666666667</ele><time>2026-05-03T07:31:51.595Z</time></trkpt><trkpt lat="46.0032933" lon="13.4679317"><ele>76.33333333333333</ele><time>2026-05-03T07:31:52.595Z</time></trkpt><trkpt lat="46.0031783" lon="13.4681017"><ele>76.0</ele><time>2026-05-03T07:31:53.595Z</time></trkpt><trkpt lat="46.00306" lon="13.4682717"><ele>74.66666666666666</ele><time>2026-05-03T07:31:54.595Z</time></trkpt><trkpt lat="46.00295" lon="13.468425"><ele>73.33333333333333</ele><time>2026-05-03T07:31:55.594Z</time></trkpt><trkpt lat="46.0028367" lon="13.468555"><ele>72.0</ele><time>2026-05-03T07:31:56.594Z</time></trkpt><trkpt lat="46.0027033" lon="13.46867"><ele>71.5</ele><time>2026-05-03T07:31:57.594Z</time></trkpt><trkpt lat="46.0025883" lon="13.4688"><ele>71.0</ele><time>2026-05-03T07:31:58.594Z</time></trkpt><trkpt lat="46.002455" lon="13.4688717"><ele>70.5</ele><time>2026-05-03T07:31:59.596Z</time></trkpt><trkpt lat="46.0023283" lon="13.4689617"><ele>70.0</ele><time>2026-05-03T07:32:00.594Z</time></trkpt><trkpt lat="46.0021883" lon="13.4690217"><ele>70.0</ele><time>2026-05-03T07:32:01.594Z</time></trkpt><trkpt lat="46.0020567" lon="13.4690883"><ele>70.0</ele><time>2026-05-03T07:32:02.594Z</time></trkpt><trkpt lat="46.0019217" lon="13.46914"><ele>70.0</ele><time>2026-05-03T07:32:03.594Z</time></trkpt><trkpt lat="46.001785" lon="13.4691983"><ele>70.0</ele><time>2026-05-03T07:32:04.595Z</time></trkpt><trkpt lat="46.0016433" lon="13.4692733"><ele>69.33333333333333</ele><time>2026-05-03T07:32:05.595Z</time></trkpt><trkpt lat="46.0014983" lon="13.4693283"><ele>68.66666666666667</ele><time>2026-05-03T07:32:06.595Z</time></trkpt><trkpt lat="46.00134" lon="13.469335"><ele>68.0</ele><time>2026-05-03T07:32:07.595Z</time></trkpt><trkpt lat="46.0011867" lon="13.4693433"><ele>68.0</ele><time>2026-05-03T07:32:08.594Z</time></trkpt><trkpt lat="46.00103" lon="13.4693383"><ele>68.0</ele><time>2026-05-03T07:32:09.594Z</time></trkpt><trkpt lat="46.0008667" lon="13.469315"><ele>68.0</ele><time>2026-05-03T07:32:10.596Z</time></trkpt><trkpt lat="46.0007033" lon="13.4692733"><ele>69.0</ele><time>2026-05-03T07:32:11.594Z</time></trkpt><trkpt lat="46.0003717" lon="13.46917"><ele>70.0</ele><time>2026-05-03T07:32:13.594Z</time></trkpt><trkpt lat="46.0000467" lon="13.46906"><ele>70.0</ele><time>2026-05-03T07:32:15.596Z</time></trkpt><trkpt lat="45.9998883" lon="13.4690083"><ele>70.0</ele><time>2026-05-03T07:32:16.594Z</time></trkpt><trkpt lat="45.9995617" lon="13.468885"><ele>68.0</ele><time>2026-05-03T07:32:18.594Z</time></trkpt><trkpt lat="45.999215" lon="13.46876"><ele>66.0</ele><time>2026-05-03T07:32:20.595Z</time></trkpt><trkpt lat="45.999045" lon="13.46869"><ele>66.0</ele><time>2026-05-03T07:32:21.595Z</time></trkpt><trkpt lat="45.9987083" lon="13.4685667"><ele>66.0</ele><time>2026-05-03T07:32:23.596Z</time></trkpt><trkpt lat="45.9985367" lon="13.468535"><ele>66.0</ele><time>2026-05-03T07:32:24.594Z</time></trkpt><trkpt lat="45.9983667" lon="13.46851"><ele>66.0</ele><time>2026-05-03T07:32:25.596Z</time></trkpt><trkpt lat="45.9981967" lon="13.4685167"><ele>66.0</ele><time>2026-05-03T07:32:26.596Z</time></trkpt><trkpt lat="45.998025" lon="13.4685517"><ele>67.0</ele><time>2026-05-03T07:32:27.595Z</time></trkpt><trkpt lat="45.99786" lon="13.4686183"><ele>68.0</ele><time>2026-05-03T07:32:28.594Z</time></trkpt><trkpt lat="45.99754" lon="13.4687367"><ele>67.33333333333334</ele><time>2026-05-03T07:32:30.594Z</time></trkpt><trkpt lat="45.99738" lon="13.4687667"><ele>66.66666666666667</ele><time>2026-05-03T07:32:31.594Z</time></trkpt><trkpt lat="45.9972183" lon="13.4687717"><ele>66.0</ele><time>2026-05-03T07:32:32.595Z</time></trkpt><trkpt lat="45.9970567" lon="13.4687467"><ele>66.0</ele><time>2026-05-03T07:32:33.594Z</time></trkpt><trkpt lat="45.9968967" lon="13.4686983"><ele>66.0</ele><time>2026-05-03T07:32:34.596Z</time></trkpt><trkpt lat="45.9967333" lon="13.46866"><ele>66.0</ele><time>2026-05-03T07:32:35.594Z</time></trkpt><trkpt lat="45.9964017" lon="13.4685767"><ele>66.5</ele><time>2026-05-03T07:32:37.595Z</time></trkpt><trkpt lat="45.9962267" lon="13.468545"><ele>67.0</ele><time>2026-05-03T07:32:38.596Z</time></trkpt><trkpt lat="45.9958783" lon="13.46849"><ele>68.33333333333333</ele><time>2026-05-03T07:32:40.595Z</time></trkpt><trkpt lat="45.995705" lon="13.4684667"><ele>69.66666666666667</ele><time>2026-05-03T07:32:41.594Z</time></trkpt><trkpt lat="45.9955333" lon="13.4684367"><ele>71.0</ele><time>2026-05-03T07:32:42.595Z</time></trkpt><trkpt lat="45.9953617" lon="13.4684083"><ele>71.0</ele><time>2026-05-03T07:32:43.595Z</time></trkpt><trkpt lat="45.9951867" lon="13.4683833"><ele>71.0</ele><time>2026-05-03T07:32:44.594Z</time></trkpt><trkpt lat="45.9948383" lon="13.4683183"><ele>71.66666666666667</ele><time>2026-05-03T07:32:46.596Z</time></trkpt><trkpt lat="45.994655" lon="13.4682833"><ele>72.33333333333333</ele><time>2026-05-03T07:32:47.595Z</time></trkpt><trkpt lat="45.9944817" lon="13.4682367"><ele>73.0</ele><time>2026-05-03T07:32:48.594Z</time></trkpt><trkpt lat="45.9943083" lon="13.4681933"><ele>72.0</ele><time>2026-05-03T07:32:49.593Z</time></trkpt><trkpt lat="45.9941283" lon="13.4681583"><ele>71.0</ele><time>2026-05-03T07:32:50.596Z</time></trkpt><trkpt lat="45.9937833" lon="13.4680717"><ele>71.0</ele><time>2026-05-03T07:32:52.594Z</time></trkpt><trkpt lat="45.9936133" lon="13.4680317"><ele>71.0</ele><time>2026-05-03T07:32:53.594Z</time></trkpt><trkpt lat="45.99345" lon="13.4679783"><ele>71.0</ele><time>2026-05-03T07:32:54.595Z</time></trkpt><trkpt lat="45.9932967" lon="13.467925"><ele>69.33333333333334</ele><time>2026-05-03T07:32:55.593Z</time></trkpt><trkpt lat="45.9931483" lon="13.4678633"><ele>67.66666666666667</ele><time>2026-05-03T07:32:56.593Z</time></trkpt><trkpt lat="45.9929917" lon="13.4678317"><ele>66.0</ele><time>2026-05-03T07:32:57.594Z</time></trkpt><trkpt lat="45.9928417" lon="13.46778"><ele>66.0</ele><time>2026-05-03T07:32:58.596Z</time></trkpt><trkpt lat="45.9925783" lon="13.4676717"><ele>66.0</ele><time>2026-05-03T07:33:00.594Z</time></trkpt><trkpt lat="45.992355" lon="13.467585"><ele>65.66666666666667</ele><time>2026-05-03T07:33:02.594Z</time></trkpt><trkpt lat="45.99217" lon="13.4675133"><ele>65.33333333333334</ele><time>2026-05-03T07:33:04.593Z</time></trkpt><trkpt lat="45.992015" lon="13.46745"><ele>65.0</ele><time>2026-05-03T07:33:06.593Z</time></trkpt><trkpt lat="45.9919183" lon="13.4673067"><ele>64.33333333333334</ele><time>2026-05-03T07:33:08.597Z</time></trkpt><trkpt lat="45.9919017" lon="13.467075"><ele>63.66666666666667</ele><time>2026-05-03T07:33:10.594Z</time></trkpt><trkpt lat="45.9919333" lon="13.4667617"><ele>63.0</ele><time>2026-05-03T07:33:12.594Z</time></trkpt><trkpt lat="45.9919717" lon="13.4664517"><ele>62.5</ele><time>2026-05-03T07:33:14.595Z</time></trkpt><trkpt lat="45.991995" lon="13.4661367"><ele>62.0</ele><time>2026-05-03T07:33:16.593Z</time></trkpt><trkpt lat="45.9920367" lon="13.465795"><ele>62.0</ele><time>2026-05-03T07:33:18.594Z</time></trkpt><trkpt lat="45.9920433" lon="13.46542"><ele>62.0</ele><time>2026-05-03T07:33:20.594Z</time></trkpt><trkpt lat="45.9920117" lon="13.46503"><ele>62.0</ele><time>2026-05-03T07:33:22.594Z</time></trkpt><trkpt lat="45.9919517" lon="13.4646583"><ele>62.0</ele><time>2026-05-03T07:33:24.594Z</time></trkpt><trkpt lat="45.9918917" lon="13.4642783"><ele>63.5</ele><time>2026-05-03T07:33:26.595Z</time></trkpt><trkpt lat="45.991825" lon="13.4639083"><ele>65.0</ele><time>2026-05-03T07:33:28.594Z</time></trkpt><trkpt lat="45.99176" lon="13.46356"><ele>65.33333333333334</ele><time>2026-05-03T07:33:30.594Z</time></trkpt><trkpt lat="45.9917083" lon="13.4632467"><ele>65.66666666666667</ele><time>2026-05-03T07:33:32.593Z</time></trkpt><trkpt lat="45.9916583" lon="13.4629517"><ele>66.0</ele><time>2026-05-03T07:33:34.593Z</time></trkpt><trkpt lat="45.9916417" lon="13.46282"><ele>66.39999999999999</ele><time>2026-05-03T07:33:35.593Z</time></trkpt><trkpt lat="45.9916133" lon="13.462635"><ele>66.8</ele><time>2026-05-03T07:33:37.595Z</time></trkpt><trkpt lat="45.99166" lon="13.4625267"><ele>67.19999999999999</ele><time>2026-05-03T07:33:39.595Z</time></trkpt><trkpt lat="45.9917483" lon="13.4625067"><ele>67.6</ele><time>2026-05-03T07:33:41.595Z</time></trkpt><trkpt lat="45.9918117" lon="13.4624867"><ele>68.0</ele><time>2026-05-03T07:33:42.595Z</time></trkpt><trkpt lat="45.9918967" lon="13.462455"><ele>68.0</ele><time>2026-05-03T07:33:43.595Z</time></trkpt><trkpt lat="45.991995" lon="13.4624033"><ele>68.0</ele><time>2026-05-03T07:33:44.595Z</time></trkpt><trkpt lat="45.9921017" lon="13.4623433"><ele>68.0</ele><time>2026-05-03T07:33:45.593Z</time></trkpt><trkpt lat="45.99222" lon="13.46227"><ele>68.0</ele><time>2026-05-03T07:33:46.595Z</time></trkpt><trkpt lat="45.9923433" lon="13.46218"><ele>68.33333333333334</ele><time>2026-05-03T07:33:47.594Z</time></trkpt><trkpt lat="45.9924733" lon="13.462075"><ele>68.66666666666667</ele><time>2026-05-03T07:33:48.593Z</time></trkpt><trkpt lat="45.9926133" lon="13.4619717"><ele>69.0</ele><time>2026-05-03T07:33:49.594Z</time></trkpt><trkpt lat="45.9927583" lon="13.46186"><ele>69.0</ele><time>2026-05-03T07:33:50.594Z</time></trkpt><trkpt lat="45.9929067" lon="13.4617483"><ele>69.0</ele><time>2026-05-03T07:33:51.594Z</time></trkpt><trkpt lat="45.99306" lon="13.4616467"><ele>69.0</ele><time>2026-05-03T07:33:52.593Z</time></trkpt><trkpt lat="45.99321" lon="13.461545"><ele>69.0</ele><time>2026-05-03T07:33:53.594Z</time></trkpt><trkpt lat="45.9933583" lon="13.46145"><ele>69.0</ele><time>2026-05-03T07:33:54.593Z</time></trkpt><trkpt lat="45.9935117" lon="13.4613633"><ele>69.0</ele><time>2026-05-03T07:33:55.595Z</time></trkpt><trkpt lat="45.993665" lon="13.4612617"><ele>70.0</ele><time>2026-05-03T07:33:56.596Z</time></trkpt><trkpt lat="45.993815" lon="13.4611667"><ele>71.0</ele><time>2026-05-03T07:33:57.595Z</time></trkpt><trkpt lat="45.99396" lon="13.461075"><ele>72.0</ele><time>2026-05-03T07:33:58.593Z</time></trkpt><trkpt lat="45.9941017" lon="13.4609783"><ele>71.75</ele><time>2026-05-03T07:33:59.594Z</time></trkpt><trkpt lat="45.9942383" lon="13.46089"><ele>71.5</ele><time>2026-05-03T07:34:00.594Z</time></trkpt><trkpt lat="45.994365" lon="13.460805"><ele>71.25</ele><time>2026-05-03T07:34:01.595Z</time></trkpt><trkpt lat="45.9944767" lon="13.4607183"><ele>71.0</ele><time>2026-05-03T07:34:02.594Z</time></trkpt><trkpt lat="45.9945933" lon="13.4606683"><ele>71.0</ele><time>2026-05-03T07:34:03.594Z</time></trkpt><trkpt lat="45.9946983" lon="13.460595"><ele>71.0</ele><time>2026-05-03T07:34:04.593Z</time></trkpt><trkpt lat="45.9948183" lon="13.4605433"><ele>71.0</ele><time>2026-05-03T07:34:05.593Z</time></trkpt><trkpt lat="45.994935" lon="13.4604617"><ele>71.0</ele><time>2026-05-03T07:34:06.594Z</time></trkpt><trkpt lat="45.9950383" lon="13.46037"><ele>72.5</ele><time>2026-05-03T07:34:07.595Z</time></trkpt><trkpt lat="45.9951433" lon="13.4602933"><ele>74.0</ele><time>2026-05-03T07:34:08.596Z</time></trkpt><trkpt lat="45.9952467" lon="13.46021"><ele>75.5</ele><time>2026-05-03T07:34:09.593Z</time></trkpt><trkpt lat="45.995345" lon="13.46013"><ele>77.0</ele><time>2026-05-03T07:34:10.594Z</time></trkpt><trkpt lat="45.9954317" lon="13.4600517"><ele>77.0</ele><time>2026-05-03T07:34:11.593Z</time></trkpt><trkpt lat="45.9955133" lon="13.4599667"><ele>77.0</ele><time>2026-05-03T07:34:12.594Z</time></trkpt><trkpt lat="45.9955883" lon="13.4598667"><ele>77.0</ele><time>2026-05-03T07:34:13.593Z</time></trkpt><trkpt lat="45.9956533" lon="13.459755"><ele>77.0</ele><time>2026-05-03T07:34:14.596Z</time></trkpt><trkpt lat="45.9957083" lon="13.45964"><ele>77.0</ele><time>2026-05-03T07:34:15.594Z</time></trkpt><trkpt lat="45.9957483" lon="13.4595267"><ele>77.6</ele><time>2026-05-03T07:34:16.594Z</time></trkpt><trkpt lat="45.99576" lon="13.45942"><ele>78.2</ele><time>2026-05-03T07:34:17.594Z</time></trkpt><trkpt lat="45.99577" lon="13.4593067"><ele>78.8</ele><time>2026-05-03T07:34:18.596Z</time></trkpt><trkpt lat="45.9957483" lon="13.45918"><ele>79.4</ele><time>2026-05-03T07:34:19.594Z</time></trkpt><trkpt lat="45.99571" lon="13.4590283"><ele>80.0</ele><time>2026-05-03T07:34:20.595Z</time></trkpt><trkpt lat="45.9956617" lon="13.4588683"><ele>80.5</ele><time>2026-05-03T07:34:21.594Z</time></trkpt><trkpt lat="45.9956167" lon="13.4586967"><ele>81.0</ele><time>2026-05-03T07:34:22.594Z</time></trkpt><trkpt lat="45.9955717" lon="13.4585133"><ele>81.5</ele><time>2026-05-03T07:34:23.595Z</time></trkpt><trkpt lat="45.9955217" lon="13.4583333"><ele>82.0</ele><time>2026-05-03T07:34:24.595Z</time></trkpt><trkpt lat="45.9954733" lon="13.4581717"><ele>82.0</ele><time>2026-05-03T07:34:25.594Z</time></trkpt><trkpt lat="45.995435" lon="13.4580317"><ele>82.0</ele><time>2026-05-03T07:34:26.595Z</time></trkpt><trkpt lat="45.995405" lon="13.4579117"><ele>82.0</ele><time>2026-05-03T07:34:27.595Z</time></trkpt><trkpt lat="45.995385" lon="13.4578033"><ele>82.0</ele><time>2026-05-03T07:34:28.595Z</time></trkpt><trkpt lat="45.99537" lon="13.4576967"><ele>82.0</ele><time>2026-05-03T07:34:29.595Z</time></trkpt><trkpt lat="45.995355" lon="13.4575967"><ele>82.0</ele><time>2026-05-03T07:34:30.595Z</time></trkpt><trkpt lat="45.9953317" lon="13.4574983"><ele>81.6</ele><time>2026-05-03T07:34:31.596Z</time></trkpt><trkpt lat="45.9952917" lon="13.4574033"><ele>81.19999999999999</ele><time>2026-05-03T07:34:32.595Z</time></trkpt><trkpt lat="45.9952567" lon="13.4572883"><ele>80.8</ele><time>2026-05-03T07:34:33.595Z</time></trkpt><trkpt lat="45.9952133" lon="13.4571367"><ele>80.4</ele><time>2026-05-03T07:34:34.596Z</time></trkpt><trkpt lat="45.995145" lon="13.45697"><ele>80.0</ele><time>2026-05-03T07:34:35.597Z</time></trkpt><trkpt lat="45.995115" lon="13.4567783"><ele>79.5</ele><time>2026-05-03T07:34:36.598Z</time></trkpt><trkpt lat="45.99507" lon="13.4565817"><ele>79.0</ele><time>2026-05-03T07:34:37.598Z</time></trkpt><trkpt lat="45.9950317" lon="13.4563817"><ele>78.5</ele><time>2026-05-03T07:34:38.596Z</time></trkpt><trkpt lat="45.99502" lon="13.4561933"><ele>78.0</ele><time>2026-05-03T07:34:39.596Z</time></trkpt><trkpt lat="45.9950283" lon="13.4560233"><ele>78.0</ele><time>2026-05-03T07:34:40.596Z</time></trkpt><trkpt lat="45.99504" lon="13.4558717"><ele>78.0</ele><time>2026-05-03T07:34:41.597Z</time></trkpt><trkpt lat="45.9950533" lon="13.45573"><ele>78.0</ele><time>2026-05-03T07:34:42.595Z</time></trkpt><trkpt lat="45.9950683" lon="13.4555867"><ele>78.0</ele><time>2026-05-03T07:34:43.595Z</time></trkpt><trkpt lat="45.9950783" lon="13.455435"><ele>78.0</ele><time>2026-05-03T07:34:44.596Z</time></trkpt><trkpt lat="45.9950867" lon="13.4552833"><ele>78.2</ele><time>2026-05-03T07:34:45.594Z</time></trkpt><trkpt lat="45.9950967" lon="13.4551367"><ele>78.4</ele><time>2026-05-03T07:34:46.594Z</time></trkpt><trkpt lat="45.9951067" lon="13.454995"><ele>78.60000000000001</ele><time>2026-05-03T07:34:47.593Z</time></trkpt><trkpt lat="45.9951183" lon="13.4548617"><ele>78.8</ele><time>2026-05-03T07:34:48.593Z</time></trkpt><trkpt lat="45.9951333" lon="13.4547367"><ele>79.0</ele><time>2026-05-03T07:34:49.594Z</time></trkpt><trkpt lat="45.99515" lon="13.454615"><ele>79.0</ele><time>2026-05-03T07:34:50.595Z</time></trkpt><trkpt lat="45.9951683" lon="13.4544917"><ele>79.0</ele><time>2026-05-03T07:34:51.593Z</time></trkpt><trkpt lat="45.9951917" lon="13.454365"><ele>79.0</ele><time>2026-05-03T07:34:52.593Z</time></trkpt><trkpt lat="45.9952117" lon="13.454225"><ele>79.0</ele><time>2026-05-03T07:34:53.594Z</time></trkpt><trkpt lat="45.9952333" lon="13.4540667"><ele>79.0</ele><time>2026-05-03T07:34:54.594Z</time></trkpt><trkpt lat="45.9952583" lon="13.4538883"><ele>79.0</ele><time>2026-05-03T07:34:55.595Z</time></trkpt><trkpt lat="45.9952783" lon="13.4536983"><ele>79.0</ele><time>2026-05-03T07:34:56.596Z</time></trkpt><trkpt lat="45.9952983" lon="13.453495"><ele>79.0</ele><time>2026-05-03T07:34:57.593Z</time></trkpt><trkpt lat="45.995335" lon="13.4532883"><ele>79.0</ele><time>2026-05-03T07:34:58.594Z</time></trkpt><trkpt lat="45.995375" lon="13.4530917"><ele>79.5</ele><time>2026-05-03T07:34:59.593Z</time></trkpt><trkpt lat="45.9954" lon="13.45291"><ele>80.0</ele><time>2026-05-03T07:35:00.594Z</time></trkpt><trkpt lat="45.9954267" lon="13.4527183"><ele>80.5</ele><time>2026-05-03T07:35:01.595Z</time></trkpt><trkpt lat="45.99543" lon="13.4525267"><ele>81.0</ele><time>2026-05-03T07:35:02.595Z</time></trkpt><trkpt lat="45.9954133" lon="13.4523617"><ele>81.0</ele><time>2026-05-03T07:35:03.594Z</time></trkpt><trkpt lat="45.99541" lon="13.4522117"><ele>81.0</ele><time>2026-05-03T07:35:04.594Z</time></trkpt><trkpt lat="45.9954017" lon="13.452085"><ele>81.0</ele><time>2026-05-03T07:35:05.595Z</time></trkpt><trkpt lat="45.99538" lon="13.4519867"><ele>81.0</ele><time>2026-05-03T07:35:06.595Z</time></trkpt><trkpt lat="45.9953583" lon="13.4518517"><ele>81.0</ele><time>2026-05-03T07:35:08.595Z</time></trkpt><trkpt lat="45.9954267" lon="13.45178"><ele>81.0</ele><time>2026-05-03T07:35:10.596Z</time></trkpt><trkpt lat="45.99556" lon="13.4518033"><ele>80.8</ele><time>2026-05-03T07:35:12.594Z</time></trkpt><trkpt lat="45.9956483" lon="13.4518183"><ele>80.6</ele><time>2026-05-03T07:35:13.594Z</time></trkpt><trkpt lat="45.9957383" lon="13.4518317"><ele>80.4</ele><time>2026-05-03T07:35:14.594Z</time></trkpt><trkpt lat="45.995825" lon="13.45186"><ele>80.2</ele><time>2026-05-03T07:35:15.594Z</time></trkpt><trkpt lat="45.9959083" lon="13.4519117"><ele>80.0</ele><time>2026-05-03T07:35:16.594Z</time></trkpt><trkpt lat="45.996" lon="13.4519867"><ele>80.5</ele><time>2026-05-03T07:35:17.595Z</time></trkpt><trkpt lat="45.9960983" lon="13.452075"><ele>81.0</ele><time>2026-05-03T07:35:18.595Z</time></trkpt><trkpt lat="45.996205" lon="13.4521683"><ele>81.5</ele><time>2026-05-03T07:35:19.595Z</time></trkpt><trkpt lat="45.9963217" lon="13.4522667"><ele>82.0</ele><time>2026-05-03T07:35:20.595Z</time></trkpt><trkpt lat="45.996445" lon="13.4523567"><ele>82.0</ele><time>2026-05-03T07:35:21.594Z</time></trkpt><trkpt lat="45.99656" lon="13.4524383"><ele>82.0</ele><time>2026-05-03T07:35:22.594Z</time></trkpt><trkpt lat="45.99667" lon="13.4525117"><ele>82.0</ele><time>2026-05-03T07:35:23.596Z</time></trkpt><trkpt lat="45.9967767" lon="13.4525833"><ele>82.0</ele><time>2026-05-03T07:35:24.595Z</time></trkpt><trkpt lat="45.996885" lon="13.4526483"><ele>81.8</ele><time>2026-05-03T07:35:25.594Z</time></trkpt><trkpt lat="45.9969883" lon="13.4527"><ele>81.6</ele><time>2026-05-03T07:35:26.594Z</time></trkpt><trkpt lat="45.9970933" lon="13.4527367"><ele>81.39999999999999</ele><time>2026-05-03T07:35:27.594Z</time></trkpt><trkpt lat="45.9972" lon="13.45277"><ele>81.19999999999999</ele><time>2026-05-03T07:35:28.595Z</time></trkpt><trkpt lat="45.9973012" lon="13.4528045"><ele>81.0</ele><time>2026-05-03T07:35:29.597Z</time></trkpt><trkpt lat="45.9973855" lon="13.4528397"><ele>81.0</ele><time>2026-05-03T07:35:30.597Z</time></trkpt><trkpt lat="45.9974531" lon="13.4528714"><ele>81.0</ele><time>2026-05-03T07:35:31.594Z</time></trkpt><trkpt lat="45.9975569" lon="13.4529232"><ele>81.0</ele><time>2026-05-03T07:35:33.594Z</time></trkpt><trkpt lat="45.9976392" lon="13.4528823"><ele>81.0</ele><time>2026-05-03T07:35:35.594Z</time></trkpt><trkpt lat="45.9976941" lon="13.4527579"><ele>81.0</ele><time>2026-05-03T07:35:37.594Z</time></trkpt><trkpt lat="45.9977479" lon="13.4525914"><ele>81.14285714285714</ele><time>2026-05-03T07:35:39.596Z</time></trkpt><trkpt lat="45.9977797" lon="13.4524965"><ele>81.28571428571428</ele><time>2026-05-03T07:35:40.596Z</time></trkpt><trkpt lat="45.9978099" lon="13.4523974"><ele>81.42857142857142</ele><time>2026-05-03T07:35:41.595Z</time></trkpt><trkpt lat="45.9978313" lon="13.4522963"><ele>81.57142857142857</ele><time>2026-05-03T07:35:42.595Z</time></trkpt><trkpt lat="45.9978417" lon="13.4521954"><ele>81.71428571428571</ele><time>2026-05-03T07:35:43.595Z</time></trkpt><trkpt lat="45.9978449" lon="13.4520923"><ele>81.85714285714285</ele><time>2026-05-03T07:35:44.594Z</time></trkpt><trkpt lat="45.9978428" lon="13.4519886"><ele>82.0</ele><time>2026-05-03T07:35:45.595Z</time></trkpt><trkpt lat="45.9978393" lon="13.4518795"><ele>82.5</ele><time>2026-05-03T07:35:46.595Z</time></trkpt><trkpt lat="45.9978368" lon="13.451765"><ele>83.0</ele><time>2026-05-03T07:35:47.597Z</time></trkpt><trkpt lat="45.9978386" lon="13.4516448"><ele>83.5</ele><time>2026-05-03T07:35:48.594Z</time></trkpt><trkpt lat="45.9978438" lon="13.451533"><ele>84.0</ele><time>2026-05-03T07:35:49.594Z</time></trkpt><trkpt lat="45.9978472" lon="13.4514248"><ele>84.5</ele><time>2026-05-03T07:35:50.594Z</time></trkpt><trkpt lat="45.99785" lon="13.4513179"><ele>85.0</ele><time>2026-05-03T07:35:51.595Z</time></trkpt><trkpt lat="45.9978495" lon="13.4512115"><ele>85.71428571428572</ele><time>2026-05-03T07:35:52.593Z</time></trkpt><trkpt lat="45.9978418" lon="13.4511062"><ele>86.42857142857142</ele><time>2026-05-03T07:35:53.594Z</time></trkpt><trkpt lat="45.9978269" lon="13.4510031"><ele>87.14285714285714</ele><time>2026-05-03T07:35:54.595Z</time></trkpt><trkpt lat="45.9978084" lon="13.4509019"><ele>87.85714285714286</ele><time>2026-05-03T07:35:55.594Z</time></trkpt><trkpt lat="45.9977938" lon="13.4507952"><ele>88.57142857142858</ele><time>2026-05-03T07:35:56.595Z</time></trkpt><trkpt lat="45.9977852" lon="13.4506862"><ele>89.28571428571428</ele><time>2026-05-03T07:35:57.594Z</time></trkpt><trkpt lat="45.9977796" lon="13.4505784"><ele>90.0</ele><time>2026-05-03T07:35:58.594Z</time></trkpt><trkpt lat="45.9977775" lon="13.4504726"><ele>91.0</ele><time>2026-05-03T07:35:59.595Z</time></trkpt><trkpt lat="45.9977764" lon="13.4503688"><ele>92.0</ele><time>2026-05-03T07:36:00.594Z</time></trkpt><trkpt lat="45.9977775" lon="13.4502641"><ele>93.0</ele><time>2026-05-03T07:36:01.595Z</time></trkpt><trkpt lat="45.9977815" lon="13.4501676"><ele>94.0</ele><time>2026-05-03T07:36:02.595Z</time></trkpt><trkpt lat="45.9978021" lon="13.4500084"><ele>95.0</ele><time>2026-05-03T07:36:04.594Z</time></trkpt><trkpt lat="45.9978848" lon="13.4498719"><ele>95.0</ele><time>2026-05-03T07:36:06.593Z</time></trkpt><trkpt lat="45.9979569" lon="13.449802"><ele>95.0</ele><time>2026-05-03T07:36:07.594Z</time></trkpt><trkpt lat="45.9980416" lon="13.4497178"><ele>95.0</ele><time>2026-05-03T07:36:08.594Z</time></trkpt><trkpt lat="45.9981268" lon="13.4496195"><ele>95.0</ele><time>2026-05-03T07:36:09.596Z</time></trkpt><trkpt lat="45.9982087" lon="13.4495194"><ele>95.0</ele><time>2026-05-03T07:36:10.594Z</time></trkpt><trkpt lat="45.9982888" lon="13.4494153"><ele>95.8</ele><time>2026-05-03T07:36:11.596Z</time></trkpt><trkpt lat="45.9983709" lon="13.4493179"><ele>96.6</ele><time>2026-05-03T07:36:12.595Z</time></trkpt><trkpt lat="45.9984554" lon="13.4492346"><ele>97.4</ele><time>2026-05-03T07:36:13.594Z</time></trkpt><trkpt lat="45.9985468" lon="13.4491604"><ele>98.2</ele><time>2026-05-03T07:36:14.594Z</time></trkpt><trkpt lat="45.9986497" lon="13.4490959"><ele>99.0</ele><time>2026-05-03T07:36:15.594Z</time></trkpt><trkpt lat="45.9987499" lon="13.4490468"><ele>99.0</ele><time>2026-05-03T07:36:16.597Z</time></trkpt><trkpt lat="45.9988327" lon="13.4490098"><ele>99.0</ele><time>2026-05-03T07:36:17.594Z</time></trkpt><trkpt lat="45.9989001" lon="13.4490103"><ele>99.0</ele><time>2026-05-03T07:36:18.594Z</time></trkpt><trkpt lat="45.9990032" lon="13.4491287"><ele>99.0</ele><time>2026-05-03T07:36:20.594Z</time></trkpt><trkpt lat="45.9990707" lon="13.449183"><ele>99.0</ele><time>2026-05-03T07:36:21.594Z</time></trkpt><trkpt lat="45.9991591" lon="13.4492152"><ele>98.2</ele><time>2026-05-03T07:36:22.595Z</time></trkpt><trkpt lat="45.9992712" lon="13.4492432"><ele>97.4</ele><time>2026-05-03T07:36:23.594Z</time></trkpt><trkpt lat="45.9993824" lon="13.4492613"><ele>96.6</ele><time>2026-05-03T07:36:24.595Z</time></trkpt><trkpt lat="45.9994835" lon="13.4492878"><ele>95.8</ele><time>2026-05-03T07:36:25.595Z</time></trkpt><trkpt lat="45.9995778" lon="13.4493236"><ele>95.0</ele><time>2026-05-03T07:36:26.596Z</time></trkpt><trkpt lat="45.9996662" lon="13.4494041"><ele>95.0</ele><time>2026-05-03T07:36:27.595Z</time></trkpt><trkpt lat="45.9997459" lon="13.4495269"><ele>95.0</ele><time>2026-05-03T07:36:28.597Z</time></trkpt><trkpt lat="45.999834" lon="13.4496494"><ele>95.0</ele><time>2026-05-03T07:36:29.595Z</time></trkpt><trkpt lat="45.9999295" lon="13.4497538"><ele>95.0</ele><time>2026-05-03T07:36:30.594Z</time></trkpt><trkpt lat="46.0000306" lon="13.4498402"><ele>95.25</ele><time>2026-05-03T07:36:31.597Z</time></trkpt><trkpt lat="46.0001407" lon="13.4499032"><ele>95.5</ele><time>2026-05-03T07:36:32.595Z</time></trkpt><trkpt lat="46.0002526" lon="13.4499499"><ele>95.75</ele><time>2026-05-03T07:36:33.595Z</time></trkpt><trkpt lat="46.0003717" lon="13.449974"><ele>96.0</ele><time>2026-05-03T07:36:34.595Z</time></trkpt><trkpt lat="46.0004965" lon="13.4499876"><ele>96.0</ele><time>2026-05-03T07:36:35.595Z</time></trkpt><trkpt lat="46.0006237" lon="13.4499932"><ele>96.0</ele><time>2026-05-03T07:36:36.595Z</time></trkpt><trkpt lat="46.0007433" lon="13.4499979"><ele>96.0</ele><time>2026-05-03T07:36:37.595Z</time></trkpt><trkpt lat="46.0008513" lon="13.4499791"><ele>96.0</ele><time>2026-05-03T07:36:38.595Z</time></trkpt><trkpt lat="46.0009529" lon="13.4499302"><ele>96.4</ele><time>2026-05-03T07:36:39.596Z</time></trkpt><trkpt lat="46.001043" lon="13.4498599"><ele>96.8</ele><time>2026-05-03T07:36:40.595Z</time></trkpt><trkpt lat="46.001115" lon="13.4497933"><ele>97.2</ele><time>2026-05-03T07:36:41.597Z</time></trkpt><trkpt lat="46.001175" lon="13.4497383"><ele>97.60000000000001</ele><time>2026-05-03T07:36:42.595Z</time></trkpt><trkpt lat="46.0012517" lon="13.44966"><ele>98.0</ele><time>2026-05-03T07:36:44.595Z</time></trkpt><trkpt lat="46.0012833" lon="13.4495283"><ele>98.0</ele><time>2026-05-03T07:36:46.594Z</time></trkpt><trkpt lat="46.0012783" lon="13.44942"><ele>98.0</ele><time>2026-05-03T07:36:47.596Z</time></trkpt><trkpt lat="46.00127" lon="13.4492783"><ele>98.0</ele><time>2026-05-03T07:36:48.594Z</time></trkpt><trkpt lat="46.0012717" lon="13.4491183"><ele>98.0</ele><time>2026-05-03T07:36:49.594Z</time></trkpt><trkpt lat="46.0012917" lon="13.4489567"><ele>98.0</ele><time>2026-05-03T07:36:50.594Z</time></trkpt><trkpt lat="46.0013367" lon="13.4488"><ele>98.25</ele><time>2026-05-03T07:36:51.594Z</time></trkpt><trkpt lat="46.0014083" lon="13.4486567"><ele>98.5</ele><time>2026-05-03T07:36:52.594Z</time></trkpt><trkpt lat="46.0014917" lon="13.4485283"><ele>98.75</ele><time>2026-05-03T07:36:53.595Z</time></trkpt><trkpt lat="46.0015767" lon="13.4483983"><ele>99.0</ele><time>2026-05-03T07:36:54.595Z</time></trkpt><trkpt lat="46.0016683" lon="13.44828"><ele>98.75</ele><time>2026-05-03T07:36:55.595Z</time></trkpt><trkpt lat="46.0017467" lon="13.4481567"><ele>98.5</ele><time>2026-05-03T07:36:56.595Z</time></trkpt><trkpt lat="46.00182" lon="13.4480367"><ele>98.25</ele><time>2026-05-03T07:36:57.595Z</time></trkpt><trkpt lat="46.00188" lon="13.4478983"><ele>98.0</ele><time>2026-05-03T07:36:58.594Z</time></trkpt><trkpt lat="46.0019" lon="13.4477367"><ele>98.0</ele><time>2026-05-03T07:36:59.594Z</time></trkpt><trkpt lat="46.0019083" lon="13.4475767"><ele>98.0</ele><time>2026-05-03T07:37:00.595Z</time></trkpt><trkpt lat="46.0018933" lon="13.4474217"><ele>98.0</ele><time>2026-05-03T07:37:01.594Z</time></trkpt><trkpt lat="46.0018317" lon="13.4472583"><ele>98.0</ele><time>2026-05-03T07:37:02.594Z</time></trkpt><trkpt lat="46.0017533" lon="13.4471"><ele>97.0</ele><time>2026-05-03T07:37:03.594Z</time></trkpt><trkpt lat="46.0016733" lon="13.44693"><ele>96.0</ele><time>2026-05-03T07:37:04.594Z</time></trkpt><trkpt lat="46.0016" lon="13.4467583"><ele>95.0</ele><time>2026-05-03T07:37:05.596Z</time></trkpt><trkpt lat="46.00153" lon="13.4465817"><ele>94.0</ele><time>2026-05-03T07:37:06.595Z</time></trkpt><trkpt lat="46.0014633" lon="13.4464"><ele>93.66666666666666</ele><time>2026-05-03T07:37:07.596Z</time></trkpt><trkpt lat="46.001405" lon="13.4462"><ele>93.33333333333333</ele><time>2026-05-03T07:37:08.596Z</time></trkpt><trkpt lat="46.0013617" lon="13.4459817"><ele>93.0</ele><time>2026-05-03T07:37:09.594Z</time></trkpt><trkpt lat="46.0013167" lon="13.445755"><ele>93.0</ele><time>2026-05-03T07:37:10.594Z</time></trkpt><trkpt lat="46.0012617" lon="13.4455233"><ele>93.0</ele><time>2026-05-03T07:37:11.595Z</time></trkpt><trkpt lat="46.001205" lon="13.4452867"><ele>93.0</ele><time>2026-05-03T07:37:12.595Z</time></trkpt><trkpt lat="46.0011467" lon="13.44505"><ele>92.33333333333333</ele><time>2026-05-03T07:37:13.594Z</time></trkpt><trkpt lat="46.0010967" lon="13.4448133"><ele>91.66666666666666</ele><time>2026-05-03T07:37:14.595Z</time></trkpt><trkpt lat="46.001055" lon="13.44458"><ele>91.0</ele><time>2026-05-03T07:37:15.594Z</time></trkpt><trkpt lat="46.00102" lon="13.4443567"><ele>90.25</ele><time>2026-05-03T07:37:16.595Z</time></trkpt><trkpt lat="46.00099" lon="13.44415"><ele>89.5</ele><time>2026-05-03T07:37:17.595Z</time></trkpt><trkpt lat="46.0009567" lon="13.443965"><ele>88.75</ele><time>2026-05-03T07:37:18.596Z</time></trkpt><trkpt lat="46.0009367" lon="13.4438117"><ele>88.0</ele><time>2026-05-03T07:37:19.594Z</time></trkpt><trkpt lat="46.0009083" lon="13.4436567"><ele>87.75</ele><time>2026-05-03T07:37:20.595Z</time></trkpt><trkpt lat="46.00089" lon="13.44348"><ele>87.5</ele><time>2026-05-03T07:37:21.595Z</time></trkpt><trkpt lat="46.0008617" lon="13.4432883"><ele>87.25</ele><time>2026-05-03T07:37:22.595Z</time></trkpt><trkpt lat="46.0008417" lon="13.4430783"><ele>87.0</ele><time>2026-05-03T07:37:23.595Z</time></trkpt><trkpt lat="46.0008233" lon="13.442865"><ele>87.0</ele><time>2026-05-03T07:37:24.594Z</time></trkpt><trkpt lat="46.0007983" lon="13.4426567"><ele>87.0</ele><time>2026-05-03T07:37:25.595Z</time></trkpt><trkpt lat="46.0007767" lon="13.44246"><ele>87.0</ele><time>2026-05-03T07:37:26.597Z</time></trkpt><trkpt lat="46.0007633" lon="13.4422733"><ele>87.0</ele><time>2026-05-03T07:37:27.594Z</time></trkpt><trkpt lat="46.0007367" lon="13.4421117"><ele>86.75</ele><time>2026-05-03T07:37:28.595Z</time></trkpt><trkpt lat="46.00071" lon="13.4419483"><ele>86.5</ele><time>2026-05-03T07:37:29.595Z</time></trkpt><trkpt lat="46.0006833" lon="13.441775"><ele>86.25</ele><time>2026-05-03T07:37:30.595Z</time></trkpt><trkpt lat="46.0006567" lon="13.4415917"><ele>86.0</ele><time>2026-05-03T07:37:31.595Z</time></trkpt><trkpt lat="46.0006283" lon="13.4414017"><ele>86.0</ele><time>2026-05-03T07:37:32.594Z</time></trkpt><trkpt lat="46.0006033" lon="13.44121"><ele>86.0</ele><time>2026-05-03T07:37:33.594Z</time></trkpt><trkpt lat="46.000575" lon="13.4410217"><ele>86.0</ele><time>2026-05-03T07:37:34.594Z</time></trkpt><trkpt lat="46.0005467" lon="13.440845"><ele>86.0</ele><time>2026-05-03T07:37:35.594Z</time></trkpt><trkpt lat="46.00052" lon="13.4406867"><ele>86.0</ele><time>2026-05-03T07:37:36.595Z</time></trkpt><trkpt lat="46.0004983" lon="13.440545"><ele>86.0</ele><time>2026-05-03T07:37:37.594Z</time></trkpt><trkpt lat="46.0004817" lon="13.440425"><ele>86.0</ele><time>2026-05-03T07:37:38.594Z</time></trkpt><trkpt lat="46.0004633" lon="13.4403267"><ele>86.0</ele><time>2026-05-03T07:37:39.594Z</time></trkpt><trkpt lat="46.0004383" lon="13.4401917"><ele>86.0</ele><time>2026-05-03T07:37:41.594Z</time></trkpt><trkpt lat="46.000425" lon="13.4400983"><ele>86.0</ele><time>2026-05-03T07:37:45.594Z</time></trkpt><trkpt lat="46.0003967" lon="13.439995"><ele>86.0</ele><time>2026-05-03T07:37:47.595Z</time></trkpt><trkpt lat="46.00037" lon="13.4399017"><ele>86.0</ele><time>2026-05-03T07:37:48.594Z</time></trkpt><trkpt lat="46.0003467" lon="13.4398"><ele>86.0</ele><time>2026-05-03T07:37:49.595Z</time></trkpt><trkpt lat="46.0003267" lon="13.4396833"><ele>86.0</ele><time>2026-05-03T07:37:50.594Z</time></trkpt><trkpt lat="46.0003017" lon="13.4395583"><ele>86.0</ele><time>2026-05-03T07:37:51.595Z</time></trkpt><trkpt lat="46.0002683" lon="13.4394433"><ele>86.0</ele><time>2026-05-03T07:37:52.595Z</time></trkpt><trkpt lat="46.00024" lon="13.4393383"><ele>86.0</ele><time>2026-05-03T07:37:53.594Z</time></trkpt><trkpt lat="46.000225" lon="13.43924"><ele>86.0</ele><time>2026-05-03T07:37:54.595Z</time></trkpt><trkpt lat="46.0002117" lon="13.43914"><ele>86.0</ele><time>2026-05-03T07:37:55.596Z</time></trkpt><trkpt lat="46.0001833" lon="13.4390317"><ele>86.0</ele><time>2026-05-03T07:37:56.596Z</time></trkpt><trkpt lat="46.000155" lon="13.4388983"><ele>86.0</ele><time>2026-05-03T07:37:57.595Z</time></trkpt><trkpt lat="46.000125" lon="13.4387617"><ele>86.0</ele><time>2026-05-03T07:37:58.594Z</time></trkpt><trkpt lat="46.0000833" lon="13.4386267"><ele>86.0</ele><time>2026-05-03T07:37:59.595Z</time></trkpt><trkpt lat="46.0000217" lon="13.4385017"><ele>86.0</ele><time>2026-05-03T07:38:00.597Z</time></trkpt><trkpt lat="45.999945" lon="13.4383967"><ele>86.0</ele><time>2026-05-03T07:38:01.596Z</time></trkpt><trkpt lat="45.9998717" lon="13.4382967"><ele>86.0</ele><time>2026-05-03T07:38:02.596Z</time></trkpt><trkpt lat="45.999805" lon="13.4381833"><ele>86.0</ele><time>2026-05-03T07:38:03.595Z</time></trkpt><trkpt lat="45.999755" lon="13.438055"><ele>85.5</ele><time>2026-05-03T07:38:04.595Z</time></trkpt><trkpt lat="45.9996967" lon="13.4379333"><ele>85.0</ele><time>2026-05-03T07:38:05.595Z</time></trkpt><trkpt lat="45.9996117" lon="13.4378217"><ele>84.5</ele><time>2026-05-03T07:38:06.595Z</time></trkpt><trkpt lat="45.9995033" lon="13.437715"><ele>84.0</ele><time>2026-05-03T07:38:07.595Z</time></trkpt><trkpt lat="45.9993917" lon="13.4376017"><ele>84.0</ele><time>2026-05-03T07:38:08.596Z</time></trkpt><trkpt lat="45.9992683" lon="13.4375017"><ele>84.0</ele><time>2026-05-03T07:38:09.593Z</time></trkpt><trkpt lat="45.9991333" lon="13.4374083"><ele>84.0</ele><time>2026-05-03T07:38:10.595Z</time></trkpt><trkpt lat="45.999" lon="13.4373183"><ele>84.0</ele><time>2026-05-03T07:38:11.596Z</time></trkpt><trkpt lat="45.9988667" lon="13.4372367"><ele>84.0</ele><time>2026-05-03T07:38:12.596Z</time></trkpt><trkpt lat="45.9987283" lon="13.437155"><ele>84.0</ele><time>2026-05-03T07:38:13.593Z</time></trkpt><trkpt lat="45.99859" lon="13.4370833"><ele>84.0</ele><time>2026-05-03T07:38:14.596Z</time></trkpt><trkpt lat="45.9984467" lon="13.437025"><ele>84.0</ele><time>2026-05-03T07:38:15.596Z</time></trkpt><trkpt lat="45.998305" lon="13.4369667"><ele>83.66666666666667</ele><time>2026-05-03T07:38:16.595Z</time></trkpt><trkpt lat="45.9981583" lon="13.43691"><ele>83.33333333333334</ele><time>2026-05-03T07:38:17.595Z</time></trkpt><trkpt lat="45.9980083" lon="13.4368617"><ele>83.0</ele><time>2026-05-03T07:38:18.594Z</time></trkpt><trkpt lat="45.9978667" lon="13.43681"><ele>83.0</ele><time>2026-05-03T07:38:19.595Z</time></trkpt><trkpt lat="45.9977317" lon="13.4367517"><ele>83.0</ele><time>2026-05-03T07:38:20.595Z</time></trkpt><trkpt lat="45.9976" lon="13.4367083"><ele>83.0</ele><time>2026-05-03T07:38:21.595Z</time></trkpt><trkpt lat="45.9974667" lon="13.436675"><ele>83.0</ele><time>2026-05-03T07:38:22.594Z</time></trkpt><trkpt lat="45.99734" lon="13.4366567"><ele>83.60000000000001</ele><time>2026-05-03T07:38:23.595Z</time></trkpt><trkpt lat="45.99722" lon="13.43665"><ele>84.2</ele><time>2026-05-03T07:38:24.595Z</time></trkpt><trkpt lat="45.9971083" lon="13.4366633"><ele>84.8</ele><time>2026-05-03T07:38:25.595Z</time></trkpt><trkpt lat="45.9970083" lon="13.436655"><ele>85.4</ele><time>2026-05-03T07:38:26.595Z</time></trkpt><trkpt lat="45.9969233" lon="13.4366183"><ele>86.0</ele><time>2026-05-03T07:38:27.594Z</time></trkpt><trkpt lat="45.9968517" lon="13.4365667"><ele>86.0</ele><time>2026-05-03T07:38:28.596Z</time></trkpt><trkpt lat="45.9967983" lon="13.4365183"><ele>86.0</ele><time>2026-05-03T07:38:29.596Z</time></trkpt><trkpt lat="45.99676" lon="13.43637"><ele>86.0</ele><time>2026-05-03T07:38:31.595Z</time></trkpt><trkpt lat="45.9967933" lon="13.4361683"><ele>86.0</ele><time>2026-05-03T07:38:33.594Z</time></trkpt><trkpt lat="45.99682" lon="13.4360333"><ele>86.0</ele><time>2026-05-03T07:38:34.594Z</time></trkpt><trkpt lat="45.9968717" lon="13.4358783"><ele>85.4</ele><time>2026-05-03T07:38:35.594Z</time></trkpt><trkpt lat="45.9969217" lon="13.4357417"><ele>84.8</ele><time>2026-05-03T07:38:36.596Z</time></trkpt><trkpt lat="45.9969667" lon="13.435635"><ele>84.2</ele><time>2026-05-03T07:38:37.596Z</time></trkpt><trkpt lat="45.996975" lon="13.4355217"><ele>83.60000000000001</ele><time>2026-05-03T07:38:38.595Z</time></trkpt><trkpt lat="45.9969533" lon="13.4353933"><ele>83.0</ele><time>2026-05-03T07:38:39.595Z</time></trkpt><trkpt lat="45.996905" lon="13.4352483"><ele>82.5</ele><time>2026-05-03T07:38:40.598Z</time></trkpt><trkpt lat="45.996845" lon="13.4350967"><ele>82.0</ele><time>2026-05-03T07:38:41.597Z</time></trkpt><trkpt lat="45.9967817" lon="13.4349283"><ele>81.5</ele><time>2026-05-03T07:38:42.595Z</time></trkpt><trkpt lat="45.9967217" lon="13.4347517"><ele>81.0</ele><time>2026-05-03T07:38:43.595Z</time></trkpt><trkpt lat="45.9966683" lon="13.4345717"><ele>81.0</ele><time>2026-05-03T07:38:44.596Z</time></trkpt><trkpt lat="45.99662" lon="13.4343867"><ele>81.0</ele><time>2026-05-03T07:38:45.595Z</time></trkpt><trkpt lat="45.996575" lon="13.43419"><ele>81.0</ele><time>2026-05-03T07:38:46.595Z</time></trkpt><trkpt lat="45.9965417" lon="13.4339917"><ele>81.0</ele><time>2026-05-03T07:38:47.594Z</time></trkpt><trkpt lat="45.9965267" lon="13.4337967"><ele>81.0</ele><time>2026-05-03T07:38:48.595Z</time></trkpt><trkpt lat="45.996525" lon="13.4335933"><ele>81.0</ele><time>2026-05-03T07:38:49.595Z</time></trkpt><trkpt lat="45.9965317" lon="13.4333917"><ele>81.0</ele><time>2026-05-03T07:38:50.594Z</time></trkpt><trkpt lat="45.9965283" lon="13.4331917"><ele>81.0</ele><time>2026-05-03T07:38:51.594Z</time></trkpt><trkpt lat="45.9965067" lon="13.4330033"><ele>81.0</ele><time>2026-05-03T07:38:52.594Z</time></trkpt><trkpt lat="45.996465" lon="13.43283"><ele>81.0</ele><time>2026-05-03T07:38:53.594Z</time></trkpt><trkpt lat="45.9964067" lon="13.4326867"><ele>81.0</ele><time>2026-05-03T07:38:54.595Z</time></trkpt><trkpt lat="45.9963333" lon="13.4325917"><ele>81.0</ele><time>2026-05-03T07:38:55.596Z</time></trkpt><trkpt lat="45.99625" lon="13.432535"><ele>81.0</ele><time>2026-05-03T07:38:56.594Z</time></trkpt><trkpt lat="45.9961417" lon="13.432515"><ele>81.0</ele><time>2026-05-03T07:38:57.595Z</time></trkpt><trkpt lat="45.9960083" lon="13.4325033"><ele>81.0</ele><time>2026-05-03T07:38:58.597Z</time></trkpt><trkpt lat="45.9958583" lon="13.432495"><ele>81.0</ele><time>2026-05-03T07:38:59.597Z</time></trkpt><trkpt lat="45.9957017" lon="13.432485"><ele>81.0</ele><time>2026-05-03T07:39:00.594Z</time></trkpt><trkpt lat="45.995555" lon="13.4324783"><ele>81.5</ele><time>2026-05-03T07:39:01.595Z</time></trkpt><trkpt lat="45.9954183" lon="13.432465"><ele>82.0</ele><time>2026-05-03T07:39:02.594Z</time></trkpt><trkpt lat="45.9952867" lon="13.4324517"><ele>82.5</ele><time>2026-05-03T07:39:03.594Z</time></trkpt><trkpt lat="45.9951667" lon="13.4324267"><ele>83.0</ele><time>2026-05-03T07:39:04.597Z</time></trkpt><trkpt lat="45.9950567" lon="13.4323917"><ele>83.0</ele><time>2026-05-03T07:39:05.595Z</time></trkpt><trkpt lat="45.994955" lon="13.43235"><ele>83.0</ele><time>2026-05-03T07:39:06.594Z</time></trkpt><trkpt lat="45.9948583" lon="13.4323133"><ele>83.0</ele><time>2026-05-03T07:39:07.594Z</time></trkpt><trkpt lat="45.9947633" lon="13.43229"><ele>83.0</ele><time>2026-05-03T07:39:08.596Z</time></trkpt><trkpt lat="45.994665" lon="13.4322883"><ele>83.0</ele><time>2026-05-03T07:39:09.595Z</time></trkpt><trkpt lat="45.9945667" lon="13.432305"><ele>83.0</ele><time>2026-05-03T07:39:10.594Z</time></trkpt><trkpt lat="45.9944567" lon="13.432335"><ele>83.0</ele><time>2026-05-03T07:39:11.594Z</time></trkpt><trkpt lat="45.9943383" lon="13.4323733"><ele>83.0</ele><time>2026-05-03T07:39:12.594Z</time></trkpt><trkpt lat="45.99421" lon="13.43241"><ele>83.0</ele><time>2026-05-03T07:39:13.594Z</time></trkpt><trkpt lat="45.9940767" lon="13.4324517"><ele>82.75</ele><time>2026-05-03T07:39:14.595Z</time></trkpt><trkpt lat="45.9939367" lon="13.432495"><ele>82.5</ele><time>2026-05-03T07:39:15.594Z</time></trkpt><trkpt lat="45.9937933" lon="13.4325367"><ele>82.25</ele><time>2026-05-03T07:39:16.596Z</time></trkpt><trkpt lat="45.9936433" lon="13.4325833"><ele>82.0</ele><time>2026-05-03T07:39:17.594Z</time></trkpt><trkpt lat="45.9934933" lon="13.4326317"><ele>82.0</ele><time>2026-05-03T07:39:18.594Z</time></trkpt><trkpt lat="45.99335" lon="13.4326717"><ele>82.0</ele><time>2026-05-03T07:39:19.595Z</time></trkpt><trkpt lat="45.9932133" lon="13.43271"><ele>82.0</ele><time>2026-05-03T07:39:20.596Z</time></trkpt><trkpt lat="45.9930833" lon="13.4327467"><ele>82.0</ele><time>2026-05-03T07:39:21.594Z</time></trkpt><trkpt lat="45.9929567" lon="13.4327817"><ele>81.25</ele><time>2026-05-03T07:39:22.596Z</time></trkpt><trkpt lat="45.9928333" lon="13.43282"><ele>80.5</ele><time>2026-05-03T07:39:23.595Z</time></trkpt><trkpt lat="45.9927167" lon="13.432855"><ele>79.75</ele><time>2026-05-03T07:39:24.595Z</time></trkpt><trkpt lat="45.992605" lon="13.43288"><ele>79.0</ele><time>2026-05-03T07:39:25.595Z</time></trkpt><trkpt lat="45.9925017" lon="13.4328883"><ele>79.00000000000001</ele><time>2026-05-03T07:39:26.595Z</time></trkpt><trkpt lat="45.9924167" lon="13.4328883"><ele>79.0</ele><time>2026-05-03T07:39:27.594Z</time></trkpt><trkpt lat="45.9923433" lon="13.43288"><ele>79.0</ele><time>2026-05-03T07:39:28.594Z</time></trkpt><trkpt lat="45.9922767" lon="13.43286"><ele>79.0</ele><time>2026-05-03T07:39:29.595Z</time></trkpt><trkpt lat="45.9922133" lon="13.4328233"><ele>79.0</ele><time>2026-05-03T07:39:30.594Z</time></trkpt><trkpt lat="45.99216" lon="13.4327617"><ele>79.00000000000001</ele><time>2026-05-03T07:39:31.593Z</time></trkpt><trkpt lat="45.9921088" lon="13.432675"><ele>79.0</ele><time>2026-05-03T07:39:32.594Z</time></trkpt><trkpt lat="45.9920585" lon="13.4325656"><ele>79.0</ele><time>2026-05-03T07:39:33.594Z</time></trkpt><trkpt lat="45.9920061" lon="13.4324357"><ele>79.0</ele><time>2026-05-03T07:39:34.595Z</time></trkpt><trkpt lat="45.9919485" lon="13.4322931"><ele>79.0</ele><time>2026-05-03T07:39:35.595Z</time></trkpt><trkpt lat="45.991886" lon="13.4321474"><ele>79.0</ele><time>2026-05-03T07:39:36.593Z</time></trkpt><trkpt lat="45.9918231" lon="13.4320004"><ele>79.0</ele><time>2026-05-03T07:39:37.594Z</time></trkpt><trkpt lat="45.9917594" lon="13.4318428"><ele>79.0</ele><time>2026-05-03T07:39:38.594Z</time></trkpt><trkpt lat="45.9916973" lon="13.4316773"><ele>79.0</ele><time>2026-05-03T07:39:39.593Z</time></trkpt><trkpt lat="45.9916373" lon="13.4315073"><ele>79.0</ele><time>2026-05-03T07:39:40.595Z</time></trkpt><trkpt lat="45.9915726" lon="13.4313318"><ele>79.0</ele><time>2026-05-03T07:39:41.594Z</time></trkpt><trkpt lat="45.9915069" lon="13.4311586"><ele>79.0</ele><time>2026-05-03T07:39:42.593Z</time></trkpt><trkpt lat="45.9914466" lon="13.4310043"><ele>79.0</ele><time>2026-05-03T07:39:43.593Z</time></trkpt><trkpt lat="45.9913988" lon="13.4308799"><ele>79.0</ele><time>2026-05-03T07:39:44.595Z</time></trkpt><trkpt lat="45.9913603" lon="13.4307765"><ele>79.0</ele><time>2026-05-03T07:39:45.593Z</time></trkpt><trkpt lat="45.9913261" lon="13.4306801"><ele>79.0</ele><time>2026-05-03T07:39:46.594Z</time></trkpt><trkpt lat="45.9912949" lon="13.4305967"><ele>79.0</ele><time>2026-05-03T07:39:47.596Z</time></trkpt><trkpt lat="45.9912182" lon="13.4305002"><ele>79.0</ele><time>2026-05-03T07:39:49.594Z</time></trkpt><trkpt lat="45.9911303" lon="13.4305159"><ele>79.0</ele><time>2026-05-03T07:39:51.595Z</time></trkpt><trkpt lat="45.9910683" lon="13.4305505"><ele>79.0</ele><time>2026-05-03T07:39:52.595Z</time></trkpt><trkpt lat="45.9909947" lon="13.4305866"><ele>79.0</ele><time>2026-05-03T07:39:53.596Z</time></trkpt><trkpt lat="45.990912" lon="13.4306233"><ele>78.8</ele><time>2026-05-03T07:39:54.595Z</time></trkpt><trkpt lat="45.9908235" lon="13.4306635"><ele>78.60000000000001</ele><time>2026-05-03T07:39:55.595Z</time></trkpt><trkpt lat="45.990731" lon="13.4307026"><ele>78.4</ele><time>2026-05-03T07:39:56.594Z</time></trkpt><trkpt lat="45.9906345" lon="13.4307427"><ele>78.2</ele><time>2026-05-03T07:39:57.595Z</time></trkpt><trkpt lat="45.9905275" lon="13.4307892"><ele>78.0</ele><time>2026-05-03T07:39:58.597Z</time></trkpt><trkpt lat="45.9904098" lon="13.4308397"><ele>78.0</ele><time>2026-05-03T07:39:59.596Z</time></trkpt><trkpt lat="45.9902816" lon="13.4308856"><ele>78.0</ele><time>2026-05-03T07:40:00.595Z</time></trkpt><trkpt lat="45.9901489" lon="13.430933"><ele>78.0</ele><time>2026-05-03T07:40:01.594Z</time></trkpt><trkpt lat="45.990016" lon="13.4309813"><ele>78.0</ele><time>2026-05-03T07:40:02.594Z</time></trkpt><trkpt lat="45.989887" lon="13.4310306"><ele>77.75</ele><time>2026-05-03T07:40:03.593Z</time></trkpt><trkpt lat="45.9897679" lon="13.4310765"><ele>77.5</ele><time>2026-05-03T07:40:04.594Z</time></trkpt><trkpt lat="45.9896584" lon="13.4311156"><ele>77.25</ele><time>2026-05-03T07:40:05.593Z</time></trkpt><trkpt lat="45.9895522" lon="13.4311507"><ele>77.0</ele><time>2026-05-03T07:40:06.594Z</time></trkpt><trkpt lat="45.989446" lon="13.431188"><ele>77.0</ele><time>2026-05-03T07:40:07.594Z</time></trkpt><trkpt lat="45.9893398" lon="13.4312264"><ele>77.0</ele><time>2026-05-03T07:40:08.594Z</time></trkpt><trkpt lat="45.9892378" lon="13.431265"><ele>77.0</ele><time>2026-05-03T07:40:09.594Z</time></trkpt><trkpt lat="45.9891388" lon="13.4313067"><ele>77.0</ele><time>2026-05-03T07:40:10.594Z</time></trkpt><trkpt lat="45.9890382" lon="13.4313474"><ele>77.0</ele><time>2026-05-03T07:40:11.594Z</time></trkpt><trkpt lat="45.9889409" lon="13.4313834"><ele>76.6</ele><time>2026-05-03T07:40:12.594Z</time></trkpt><trkpt lat="45.9888447" lon="13.431418"><ele>76.2</ele><time>2026-05-03T07:40:13.595Z</time></trkpt><trkpt lat="45.9887496" lon="13.431447"><ele>75.8</ele><time>2026-05-03T07:40:14.596Z</time></trkpt><trkpt lat="45.9886564" lon="13.4314735"><ele>75.4</ele><time>2026-05-03T07:40:15.594Z</time></trkpt><trkpt lat="45.9885674" lon="13.4314939"><ele>75.0</ele><time>2026-05-03T07:40:16.594Z</time></trkpt><trkpt lat="45.9884793" lon="13.431505"><ele>75.0</ele><time>2026-05-03T07:40:17.594Z</time></trkpt><trkpt lat="45.9883925" lon="13.4315056"><ele>75.0</ele><time>2026-05-03T07:40:18.593Z</time></trkpt><trkpt lat="45.9883015" lon="13.4315014"><ele>75.0</ele><time>2026-05-03T07:40:19.597Z</time></trkpt><trkpt lat="45.9882071" lon="13.4314942"><ele>75.0</ele><time>2026-05-03T07:40:20.595Z</time></trkpt><trkpt lat="45.9881127" lon="13.4314811"><ele>75.0</ele><time>2026-05-03T07:40:21.593Z</time></trkpt><trkpt lat="45.9880141" lon="13.4314588"><ele>74.66666666666667</ele><time>2026-05-03T07:40:22.593Z</time></trkpt><trkpt lat="45.9879211" lon="13.431433"><ele>74.33333333333333</ele><time>2026-05-03T07:40:23.594Z</time></trkpt><trkpt lat="45.9878338" lon="13.4314086"><ele>74.0</ele><time>2026-05-03T07:40:24.594Z</time></trkpt><trkpt lat="45.9877515" lon="13.4313903"><ele>73.66666666666666</ele><time>2026-05-03T07:40:25.595Z</time></trkpt><trkpt lat="45.9876756" lon="13.4313838"><ele>73.33333333333333</ele><time>2026-05-03T07:40:26.595Z</time></trkpt><trkpt lat="45.9876107" lon="13.4313933"><ele>73.0</ele><time>2026-05-03T07:40:27.594Z</time></trkpt><trkpt lat="45.9875113" lon="13.4314723"><ele>72.6</ele><time>2026-05-03T07:40:29.594Z</time></trkpt><trkpt lat="45.9874468" lon="13.4316301"><ele>72.19999999999999</ele><time>2026-05-03T07:40:31.594Z</time></trkpt><trkpt lat="45.9874183" lon="13.4317383"><ele>71.8</ele><time>2026-05-03T07:40:32.595Z</time></trkpt><trkpt lat="45.9873851" lon="13.4318496"><ele>71.39999999999999</ele><time>2026-05-03T07:40:33.595Z</time></trkpt><trkpt lat="45.9873456" lon="13.4319387"><ele>71.0</ele><time>2026-05-03T07:40:34.593Z</time></trkpt><trkpt lat="45.9872802" lon="13.4320528"><ele>71.0</ele><time>2026-05-03T07:40:36.594Z</time></trkpt><trkpt lat="45.9872068" lon="13.4320751"><ele>71.0</ele><time>2026-05-03T07:40:46.594Z</time></trkpt><trkpt lat="45.9871431" lon="13.4320529"><ele>71.0</ele><time>2026-05-03T07:40:48.594Z</time></trkpt><trkpt lat="45.9870553" lon="13.432015"><ele>71.0</ele><time>2026-05-03T07:40:51.594Z</time></trkpt><trkpt lat="45.9869742" lon="13.4320153"><ele>71.0</ele><time>2026-05-03T07:40:53.595Z</time></trkpt><trkpt lat="45.9868485" lon="13.4320309"><ele>71.0</ele><time>2026-05-03T07:40:55.594Z</time></trkpt><trkpt lat="45.9867807" lon="13.4320504"><ele>71.0</ele><time>2026-05-03T07:40:56.595Z</time></trkpt><trkpt lat="45.9866858" lon="13.4321188"><ele>71.0</ele><time>2026-05-03T07:40:58.595Z</time></trkpt><trkpt lat="45.9866297" lon="13.4322038"><ele>71.0</ele><time>2026-05-03T07:41:00.594Z</time></trkpt><trkpt lat="45.9865711" lon="13.4322735"><ele>71.0</ele><time>2026-05-03T07:41:03.596Z</time></trkpt><trkpt lat="45.9864847" lon="13.4321777"><ele>71.0</ele><time>2026-05-03T07:41:06.595Z</time></trkpt><trkpt lat="45.986415" lon="13.4320767"><ele>71.75</ele><time>2026-05-03T07:41:08.595Z</time></trkpt><trkpt lat="45.986325" lon="13.43198"><ele>72.5</ele><time>2026-05-03T07:41:10.594Z</time></trkpt><trkpt lat="45.9862367" lon="13.43186"><ele>73.25</ele><time>2026-05-03T07:41:12.594Z</time></trkpt><trkpt lat="45.986155" lon="13.4317417"><ele>74.0</ele><time>2026-05-03T07:41:14.595Z</time></trkpt><trkpt lat="45.9860633" lon="13.431645"><ele>74.0</ele><time>2026-05-03T07:41:16.594Z</time></trkpt><trkpt lat="45.98598" lon="13.4315417"><ele>74.0</ele><time>2026-05-03T07:41:18.594Z</time></trkpt><trkpt lat="45.985885" lon="13.4314333"><ele>74.0</ele><time>2026-05-03T07:41:20.595Z</time></trkpt><trkpt lat="45.985835" lon="13.4313667"><ele>74.0</ele><time>2026-05-03T07:41:21.594Z</time></trkpt><trkpt lat="45.98578" lon="13.4313"><ele>74.0</ele><time>2026-05-03T07:41:22.593Z</time></trkpt><trkpt lat="45.9857317" lon="13.4312367"><ele>74.0</ele><time>2026-05-03T07:41:23.595Z</time></trkpt><trkpt lat="45.985665" lon="13.431165"><ele>73.83333333333334</ele><time>2026-05-03T07:41:25.595Z</time></trkpt><trkpt lat="45.9856117" lon="13.431115"><ele>73.66666666666667</ele><time>2026-05-03T07:41:28.596Z</time></trkpt><trkpt lat="45.985505" lon="13.4311"><ele>73.5</ele><time>2026-05-03T07:41:30.594Z</time></trkpt><trkpt lat="45.9854417" lon="13.4311067"><ele>73.33333333333333</ele><time>2026-05-03T07:41:31.593Z</time></trkpt><trkpt lat="45.9853717" lon="13.4311367"><ele>73.16666666666666</ele><time>2026-05-03T07:41:32.594Z</time></trkpt><trkpt lat="45.9852883" lon="13.43119"><ele>73.0</ele><time>2026-05-03T07:41:33.593Z</time></trkpt><trkpt lat="45.9852017" lon="13.43125"><ele>73.0</ele><time>2026-05-03T07:41:34.593Z</time></trkpt><trkpt lat="45.98511" lon="13.431315"><ele>73.0</ele><time>2026-05-03T07:41:35.594Z</time></trkpt><trkpt lat="45.985015" lon="13.4313683"><ele>73.0</ele><time>2026-05-03T07:41:36.593Z</time></trkpt><trkpt lat="45.9849117" lon="13.4313983"><ele>73.0</ele><time>2026-05-03T07:41:37.595Z</time></trkpt><trkpt lat="45.9848" lon="13.4314033"><ele>73.0</ele><time>2026-05-03T07:41:38.594Z</time></trkpt><trkpt lat="45.9846817" lon="13.431375"><ele>73.25</ele><time>2026-05-03T07:41:39.593Z</time></trkpt><trkpt lat="45.9845567" lon="13.431325"><ele>73.5</ele><time>2026-05-03T07:41:40.594Z</time></trkpt><trkpt lat="45.9844217" lon="13.4312833"><ele>73.75</ele><time>2026-05-03T07:41:41.595Z</time></trkpt><trkpt lat="45.9842767" lon="13.4312583"><ele>74.0</ele><time>2026-05-03T07:41:42.594Z</time></trkpt><trkpt lat="45.9841217" lon="13.431255"><ele>73.66666666666667</ele><time>2026-05-03T07:41:43.593Z</time></trkpt><trkpt lat="45.9839567" lon="13.4312767"><ele>73.33333333333333</ele><time>2026-05-03T07:41:44.594Z</time></trkpt><trkpt lat="45.9837967" lon="13.4313083"><ele>73.0</ele><time>2026-05-03T07:41:45.593Z</time></trkpt><trkpt lat="45.9836317" lon="13.43135"><ele>73.0</ele><time>2026-05-03T07:41:46.595Z</time></trkpt><trkpt lat="45.983455" lon="13.4313717"><ele>73.0</ele><time>2026-05-03T07:41:47.594Z</time></trkpt><trkpt lat="45.9832733" lon="13.431385"><ele>73.0</ele><time>2026-05-03T07:41:48.596Z</time></trkpt><trkpt lat="45.9830833" lon="13.4314083"><ele>71.66666666666666</ele><time>2026-05-03T07:41:49.594Z</time></trkpt><trkpt lat="45.9828967" lon="13.4314383"><ele>70.33333333333333</ele><time>2026-05-03T07:41:50.595Z</time></trkpt><trkpt lat="45.9827083" lon="13.4314583"><ele>69.0</ele><time>2026-05-03T07:41:51.595Z</time></trkpt><trkpt lat="45.9825233" lon="13.4314683"><ele>68.66666666666667</ele><time>2026-05-03T07:41:52.594Z</time></trkpt><trkpt lat="45.982345" lon="13.43146"><ele>68.33333333333334</ele><time>2026-05-03T07:41:53.594Z</time></trkpt><trkpt lat="45.9821683" lon="13.4314367"><ele>68.0</ele><time>2026-05-03T07:41:54.594Z</time></trkpt><trkpt lat="45.98199" lon="13.431395"><ele>68.0</ele><time>2026-05-03T07:41:55.594Z</time></trkpt><trkpt lat="45.9818117" lon="13.4313267"><ele>68.0</ele><time>2026-05-03T07:41:56.594Z</time></trkpt><trkpt lat="45.9816333" lon="13.4312467"><ele>68.0</ele><time>2026-05-03T07:41:57.596Z</time></trkpt><trkpt lat="45.98146" lon="13.4311517"><ele>68.0</ele><time>2026-05-03T07:41:58.594Z</time></trkpt><trkpt lat="45.9812867" lon="13.4310583"><ele>68.0</ele><time>2026-05-03T07:41:59.594Z</time></trkpt><trkpt lat="45.9811233" lon="13.4309667"><ele>68.0</ele><time>2026-05-03T07:42:00.594Z</time></trkpt><trkpt lat="45.9809817" lon="13.43088"><ele>68.0</ele><time>2026-05-03T07:42:01.594Z</time></trkpt><trkpt lat="45.980875" lon="13.43081"><ele>68.0</ele><time>2026-05-03T07:42:02.595Z</time></trkpt><trkpt lat="45.980795" lon="13.43076"><ele>68.0</ele><time>2026-05-03T07:42:03.593Z</time></trkpt><trkpt lat="45.9807283" lon="13.430725"><ele>68.0</ele><time>2026-05-03T07:42:04.595Z</time></trkpt><trkpt lat="45.9806283" lon="13.4306767"><ele>68.0</ele><time>2026-05-03T07:42:06.595Z</time></trkpt><trkpt lat="45.98055" lon="13.4307367"><ele>68.0</ele><time>2026-05-03T07:42:08.594Z</time></trkpt><trkpt lat="45.980545" lon="13.4309517"><ele>68.0</ele><time>2026-05-03T07:42:10.594Z</time></trkpt><trkpt lat="45.9805367" lon="13.4310833"><ele>68.0</ele><time>2026-05-03T07:42:11.594Z</time></trkpt><trkpt lat="45.9805" lon="13.4312367"><ele>68.0</ele><time>2026-05-03T07:42:12.595Z</time></trkpt><trkpt lat="45.9804683" lon="13.43143"><ele>67.66666666666667</ele><time>2026-05-03T07:42:13.595Z</time></trkpt><trkpt lat="45.9804383" lon="13.4316333"><ele>67.33333333333333</ele><time>2026-05-03T07:42:14.595Z</time></trkpt><trkpt lat="45.9804083" lon="13.4318467"><ele>67.0</ele><time>2026-05-03T07:42:15.593Z</time></trkpt><trkpt lat="45.98038" lon="13.432065"><ele>67.33333333333333</ele><time>2026-05-03T07:42:16.594Z</time></trkpt><trkpt lat="45.9803567" lon="13.432285"><ele>67.66666666666667</ele><time>2026-05-03T07:42:17.594Z</time></trkpt><trkpt lat="45.9803333" lon="13.4325083"><ele>68.0</ele><time>2026-05-03T07:42:18.594Z</time></trkpt><trkpt lat="45.9803083" lon="13.4327383"><ele>68.0</ele><time>2026-05-03T07:42:19.594Z</time></trkpt><trkpt lat="45.9802933" lon="13.4329683"><ele>68.0</ele><time>2026-05-03T07:42:20.595Z</time></trkpt><trkpt lat="45.98028" lon="13.4332017"><ele>68.0</ele><time>2026-05-03T07:42:21.594Z</time></trkpt><trkpt lat="45.9802583" lon="13.4334383"><ele>67.66666666666667</ele><time>2026-05-03T07:42:22.596Z</time></trkpt><trkpt lat="45.9802417" lon="13.4336833"><ele>67.33333333333333</ele><time>2026-05-03T07:42:23.595Z</time></trkpt><trkpt lat="45.980225" lon="13.4339233"><ele>67.0</ele><time>2026-05-03T07:42:24.594Z</time></trkpt><trkpt lat="45.9802067" lon="13.4341567"><ele>67.33333333333333</ele><time>2026-05-03T07:42:25.594Z</time></trkpt><trkpt lat="45.9801917" lon="13.4343867"><ele>67.66666666666667</ele><time>2026-05-03T07:42:26.594Z</time></trkpt><trkpt lat="45.98016" lon="13.4346167"><ele>68.0</ele><time>2026-05-03T07:42:27.594Z</time></trkpt><trkpt lat="45.98011" lon="13.4348467"><ele>68.0</ele><time>2026-05-03T07:42:28.595Z</time></trkpt><trkpt lat="45.980055" lon="13.4350817"><ele>68.0</ele><time>2026-05-03T07:42:29.595Z</time></trkpt><trkpt lat="45.9799867" lon="13.4353117"><ele>68.0</ele><time>2026-05-03T07:42:30.594Z</time></trkpt><trkpt lat="45.97991" lon="13.43554"><ele>68.33333333333334</ele><time>2026-05-03T07:42:31.596Z</time></trkpt><trkpt lat="45.9798367" lon="13.435775"><ele>68.66666666666667</ele><time>2026-05-03T07:42:32.594Z</time></trkpt><trkpt lat="45.9797517" lon="13.4360117"><ele>69.0</ele><time>2026-05-03T07:42:33.593Z</time></trkpt><trkpt lat="45.97966" lon="13.43625"><ele>68.0</ele><time>2026-05-03T07:42:34.595Z</time></trkpt><trkpt lat="45.9795667" lon="13.43649"><ele>67.0</ele><time>2026-05-03T07:42:35.594Z</time></trkpt><trkpt lat="45.9794617" lon="13.436735"><ele>66.0</ele><time>2026-05-03T07:42:36.594Z</time></trkpt><trkpt lat="45.979345" lon="13.4369733"><ele>66.33333333333333</ele><time>2026-05-03T07:42:37.593Z</time></trkpt><trkpt lat="45.979225" lon="13.4372083"><ele>66.66666666666666</ele><time>2026-05-03T07:42:38.596Z</time></trkpt><trkpt lat="45.9791" lon="13.4374417"><ele>67.0</ele><time>2026-05-03T07:42:39.593Z</time></trkpt><trkpt lat="45.9789783" lon="13.437665"><ele>67.66666666666666</ele><time>2026-05-03T07:42:40.594Z</time></trkpt><trkpt lat="45.97886" lon="13.437885"><ele>68.33333333333333</ele><time>2026-05-03T07:42:41.594Z</time></trkpt><trkpt lat="45.9787567" lon="13.4381017"><ele>69.0</ele><time>2026-05-03T07:42:42.594Z</time></trkpt><trkpt lat="45.97867" lon="13.43833"><ele>69.0</ele><time>2026-05-03T07:42:43.593Z</time></trkpt><trkpt lat="45.9786117" lon="13.4385433"><ele>69.0</ele><time>2026-05-03T07:42:44.594Z</time></trkpt><trkpt lat="45.9785567" lon="13.438735"><ele>69.0</ele><time>2026-05-03T07:42:45.596Z</time></trkpt><trkpt lat="45.9785133" lon="13.4389033"><ele>69.0</ele><time>2026-05-03T07:42:46.594Z</time></trkpt><trkpt lat="45.9784917" lon="13.439055"><ele>68.8</ele><time>2026-05-03T07:42:47.594Z</time></trkpt><trkpt lat="45.9784867" lon="13.4391917"><ele>68.60000000000001</ele><time>2026-05-03T07:42:48.596Z</time></trkpt><trkpt lat="45.9784867" lon="13.4393017"><ele>68.4</ele><time>2026-05-03T07:42:49.595Z</time></trkpt><trkpt lat="45.9784283" lon="13.4394133"><ele>68.2</ele><time>2026-05-03T07:42:51.595Z</time></trkpt><trkpt lat="45.9783083" lon="13.4394033"><ele>68.0</ele><time>2026-05-03T07:42:53.594Z</time></trkpt><trkpt lat="45.9782367" lon="13.4392283"><ele>68.0</ele><time>2026-05-03T07:42:55.595Z</time></trkpt><trkpt lat="45.9782133" lon="13.4390733"><ele>68.0</ele><time>2026-05-03T07:42:56.595Z</time></trkpt><trkpt lat="45.9781717" lon="13.4389267"><ele>68.0</ele><time>2026-05-03T07:42:57.594Z</time></trkpt><trkpt lat="45.9781233" lon="13.4387633"><ele>68.0</ele><time>2026-05-03T07:42:58.595Z</time></trkpt><trkpt lat="45.9780683" lon="13.438585"><ele>68.25</ele><time>2026-05-03T07:42:59.594Z</time></trkpt><trkpt lat="45.9780117" lon="13.43839"><ele>68.5</ele><time>2026-05-03T07:43:00.595Z</time></trkpt><trkpt lat="45.977955" lon="13.4381917"><ele>68.75</ele><time>2026-05-03T07:43:01.596Z</time></trkpt><trkpt lat="45.9779033" lon="13.4379867"><ele>69.0</ele><time>2026-05-03T07:43:02.595Z</time></trkpt><trkpt lat="45.9778683" lon="13.4377783"><ele>69.25</ele><time>2026-05-03T07:43:03.595Z</time></trkpt><trkpt lat="45.9778517" lon="13.4375833"><ele>69.5</ele><time>2026-05-03T07:43:04.595Z</time></trkpt><trkpt lat="45.9778433" lon="13.43741"><ele>69.75</ele><time>2026-05-03T07:43:05.594Z</time></trkpt><trkpt lat="45.97784" lon="13.4372483"><ele>70.0</ele><time>2026-05-03T07:43:06.594Z</time></trkpt><trkpt lat="45.9778333" lon="13.437085"><ele>69.5</ele><time>2026-05-03T07:43:07.594Z</time></trkpt><trkpt lat="45.9778183" lon="13.4369133"><ele>69.0</ele><time>2026-05-03T07:43:08.594Z</time></trkpt><trkpt lat="45.977805" lon="13.4367417"><ele>68.5</ele><time>2026-05-03T07:43:09.594Z</time></trkpt><trkpt lat="45.9777867" lon="13.43657"><ele>68.0</ele><time>2026-05-03T07:43:10.594Z</time></trkpt><trkpt lat="45.9777633" lon="13.436395"><ele>67.75</ele><time>2026-05-03T07:43:11.596Z</time></trkpt><trkpt lat="45.97773" lon="13.4362217"><ele>67.5</ele><time>2026-05-03T07:43:12.595Z</time></trkpt><trkpt lat="45.9776867" lon="13.436045"><ele>67.25</ele><time>2026-05-03T07:43:13.594Z</time></trkpt><trkpt lat="45.9776367" lon="13.435865"><ele>67.0</ele><time>2026-05-03T07:43:14.594Z</time></trkpt><trkpt lat="45.977585" lon="13.43568"><ele>67.0</ele><time>2026-05-03T07:43:15.595Z</time></trkpt><trkpt lat="45.9775367" lon="13.4354867"><ele>67.0</ele><time>2026-05-03T07:43:16.595Z</time></trkpt><trkpt lat="45.97749" lon="13.435295"><ele>67.0</ele><time>2026-05-03T07:43:17.596Z</time></trkpt><trkpt lat="45.977445" lon="13.4351067"><ele>67.0</ele><time>2026-05-03T07:43:18.594Z</time></trkpt><trkpt lat="45.9773983" lon="13.43492"><ele>66.5</ele><time>2026-05-03T07:43:19.594Z</time></trkpt><trkpt lat="45.9773517" lon="13.43473"><ele>66.0</ele><time>2026-05-03T07:43:20.595Z</time></trkpt><trkpt lat="45.9773" lon="13.434535"><ele>65.5</ele><time>2026-05-03T07:43:21.595Z</time></trkpt><trkpt lat="45.9772417" lon="13.4343383"><ele>65.0</ele><time>2026-05-03T07:43:22.594Z</time></trkpt><trkpt lat="45.97718" lon="13.43415"><ele>65.0</ele><time>2026-05-03T07:43:23.595Z</time></trkpt><trkpt lat="45.9771167" lon="13.4339817"><ele>65.0</ele><time>2026-05-03T07:43:24.595Z</time></trkpt><trkpt lat="45.9770533" lon="13.4338333"><ele>65.0</ele><time>2026-05-03T07:43:25.595Z</time></trkpt><trkpt lat="45.976995" lon="13.433705"><ele>65.0</ele><time>2026-05-03T07:43:26.596Z</time></trkpt><trkpt lat="45.976945" lon="13.433595"><ele>65.0</ele><time>2026-05-03T07:43:27.594Z</time></trkpt><trkpt lat="45.9769" lon="13.433505"><ele>65.0</ele><time>2026-05-03T07:43:28.595Z</time></trkpt><trkpt lat="45.9768544" lon="13.4334358"><ele>65.0</ele><time>2026-05-03T07:43:29.596Z</time></trkpt><trkpt lat="45.9767581" lon="13.433384"><ele>65.0</ele><time>2026-05-03T07:43:31.594Z</time></trkpt><trkpt lat="45.9766578" lon="13.433434"><ele>65.0</ele><time>2026-05-03T07:43:33.594Z</time></trkpt><trkpt lat="45.9765918" lon="13.4334776"><ele>65.0</ele><time>2026-05-03T07:43:34.593Z</time></trkpt><trkpt lat="45.9765197" lon="13.4335321"><ele>64.66666666666667</ele><time>2026-05-03T07:43:35.595Z</time></trkpt><trkpt lat="45.9764477" lon="13.4335854"><ele>64.33333333333334</ele><time>2026-05-03T07:43:36.594Z</time></trkpt><trkpt lat="45.9763743" lon="13.4336323"><ele>64.0</ele><time>2026-05-03T07:43:37.594Z</time></trkpt><trkpt lat="45.9762984" lon="13.4336797"><ele>63.66666666666667</ele><time>2026-05-03T07:43:38.594Z</time></trkpt><trkpt lat="45.9762226" lon="13.433738"><ele>63.333333333333336</ele><time>2026-05-03T07:43:39.593Z</time></trkpt><trkpt lat="45.9761499" lon="13.433796"><ele>63.0</ele><time>2026-05-03T07:43:40.594Z</time></trkpt><trkpt lat="45.9760794" lon="13.433839"><ele>63.0</ele><time>2026-05-03T07:43:41.594Z</time></trkpt><trkpt lat="45.9760098" lon="13.4338785"><ele>63.0</ele><time>2026-05-03T07:43:42.594Z</time></trkpt><trkpt lat="45.9759413" lon="13.4339169"><ele>63.0</ele><time>2026-05-03T07:43:43.594Z</time></trkpt><trkpt lat="45.9758714" lon="13.4339565"><ele>63.0</ele><time>2026-05-03T07:43:44.594Z</time></trkpt><trkpt lat="45.9758001" lon="13.4339978"><ele>63.0</ele><time>2026-05-03T07:43:45.594Z</time></trkpt><trkpt lat="45.9757328" lon="13.4340419"><ele>63.0</ele><time>2026-05-03T07:43:46.595Z</time></trkpt><trkpt lat="45.9756672" lon="13.4340848"><ele>63.0</ele><time>2026-05-03T07:43:47.594Z</time></trkpt><trkpt lat="45.9756009" lon="13.4341225"><ele>63.0</ele><time>2026-05-03T07:43:48.595Z</time></trkpt><trkpt lat="45.9755301" lon="13.434156"><ele>63.0</ele><time>2026-05-03T07:43:49.594Z</time></trkpt><trkpt lat="45.9754499" lon="13.4341964"><ele>63.0</ele><time>2026-05-03T07:43:50.594Z</time></trkpt><trkpt lat="45.9753582" lon="13.4342438"><ele>63.0</ele><time>2026-05-03T07:43:51.593Z</time></trkpt><trkpt lat="45.9752546" lon="13.4343003"><ele>63.0</ele><time>2026-05-03T07:43:52.594Z</time></trkpt><trkpt lat="45.9751409" lon="13.4343593"><ele>63.25</ele><time>2026-05-03T07:43:53.593Z</time></trkpt><trkpt lat="45.9750186" lon="13.4344273"><ele>63.5</ele><time>2026-05-03T07:43:54.594Z</time></trkpt><trkpt lat="45.97489" lon="13.4344987"><ele>63.75</ele><time>2026-05-03T07:43:55.594Z</time></trkpt><trkpt lat="45.9747551" lon="13.4345726"><ele>64.0</ele><time>2026-05-03T07:43:56.595Z</time></trkpt><trkpt lat="45.9746203" lon="13.4346459"><ele>62.75</ele><time>2026-05-03T07:43:57.595Z</time></trkpt><trkpt lat="45.9744942" lon="13.4347144"><ele>61.5</ele><time>2026-05-03T07:43:58.596Z</time></trkpt><trkpt lat="45.9743771" lon="13.4347727"><ele>60.25</ele><time>2026-05-03T07:43:59.594Z</time></trkpt><trkpt lat="45.9742613" lon="13.4348236"><ele>59.0</ele><time>2026-05-03T07:44:00.594Z</time></trkpt><trkpt lat="45.9741409" lon="13.4348681"><ele>59.0</ele><time>2026-05-03T07:44:01.595Z</time></trkpt><trkpt lat="45.9740148" lon="13.4349046"><ele>59.0</ele><time>2026-05-03T07:44:02.595Z</time></trkpt><trkpt lat="45.9738866" lon="13.4349423"><ele>59.0</ele><time>2026-05-03T07:44:03.594Z</time></trkpt><trkpt lat="45.9737619" lon="13.4349803"><ele>59.0</ele><time>2026-05-03T07:44:04.594Z</time></trkpt><trkpt lat="45.9736471" lon="13.4350199"><ele>59.0</ele><time>2026-05-03T07:44:05.594Z</time></trkpt><trkpt lat="45.9735419" lon="13.4350641"><ele>59.00000000000001</ele><time>2026-05-03T07:44:06.594Z</time></trkpt><trkpt lat="45.9734409" lon="13.4351196"><ele>59.00000000000001</ele><time>2026-05-03T07:44:07.594Z</time></trkpt><trkpt lat="45.9733441" lon="13.4351877"><ele>59.0</ele><time>2026-05-03T07:44:08.595Z</time></trkpt><trkpt lat="45.973251" lon="13.4352656"><ele>59.0</ele><time>2026-05-03T07:44:09.595Z</time></trkpt><trkpt lat="45.9731683" lon="13.4353397"><ele>59.00000000000001</ele><time>2026-05-03T07:44:10.594Z</time></trkpt><trkpt lat="45.9730991" lon="13.4354045"><ele>59.0</ele><time>2026-05-03T07:44:11.594Z</time></trkpt><trkpt lat="45.9730452" lon="13.4354515"><ele>59.0</ele><time>2026-05-03T07:44:12.595Z</time></trkpt><trkpt lat="45.9729776" lon="13.4355332"><ele>59.0</ele><time>2026-05-03T07:44:14.598Z</time></trkpt><trkpt lat="45.9729595" lon="13.4356303"><ele>59.00000000000001</ele><time>2026-05-03T07:44:16.594Z</time></trkpt><trkpt lat="45.9729683" lon="13.4357327"><ele>59.0</ele><time>2026-05-03T07:44:18.594Z</time></trkpt><trkpt lat="45.9728892" lon="13.4357693"><ele>59.0</ele><time>2026-05-03T07:44:21.595Z</time></trkpt><trkpt lat="45.9727455" lon="13.4357537"><ele>59.0</ele><time>2026-05-03T07:44:23.594Z</time></trkpt><trkpt lat="45.9726468" lon="13.4357454"><ele>59.0</ele><time>2026-05-03T07:44:24.594Z</time></trkpt><trkpt lat="45.9725365" lon="13.4357412"><ele>59.0</ele><time>2026-05-03T07:44:25.594Z</time></trkpt><trkpt lat="45.97242" lon="13.4357329"><ele>58.75</ele><time>2026-05-03T07:44:26.595Z</time></trkpt><trkpt lat="45.972299" lon="13.4357213"><ele>58.5</ele><time>2026-05-03T07:44:27.595Z</time></trkpt><trkpt lat="45.9721801" lon="13.4357025"><ele>58.25</ele><time>2026-05-03T07:44:28.594Z</time></trkpt><trkpt lat="45.9720639" lon="13.4356875"><ele>58.0</ele><time>2026-05-03T07:44:29.595Z</time></trkpt><trkpt lat="45.9719528" lon="13.4356887"><ele>58.0</ele><time>2026-05-03T07:44:30.595Z</time></trkpt><trkpt lat="45.9718462" lon="13.4357047"><ele>58.0</ele><time>2026-05-03T07:44:31.594Z</time></trkpt><trkpt lat="45.9717427" lon="13.4357387"><ele>58.0</ele><time>2026-05-03T07:44:32.595Z</time></trkpt><trkpt lat="45.9716394" lon="13.4357881"><ele>58.0</ele><time>2026-05-03T07:44:33.594Z</time></trkpt><trkpt lat="45.9715332" lon="13.4358462"><ele>58.0</ele><time>2026-05-03T07:44:34.596Z</time></trkpt><trkpt lat="45.9714329" lon="13.4359002"><ele>57.83333333333333</ele><time>2026-05-03T07:44:35.596Z</time></trkpt><trkpt lat="45.9713443" lon="13.4359431"><ele>57.666666666666664</ele><time>2026-05-03T07:44:36.595Z</time></trkpt><trkpt lat="45.971261" lon="13.4359799"><ele>57.5</ele><time>2026-05-03T07:44:37.594Z</time></trkpt><trkpt lat="45.971187" lon="13.4360115"><ele>57.33333333333333</ele><time>2026-05-03T07:44:38.595Z</time></trkpt><trkpt lat="45.9711243" lon="13.43604"><ele>57.166666666666664</ele><time>2026-05-03T07:44:39.594Z</time></trkpt><trkpt lat="45.9710383" lon="13.4361073"><ele>57.0</ele><time>2026-05-03T07:44:41.595Z</time></trkpt><trkpt lat="45.9709973" lon="13.4362228"><ele>56.2</ele><time>2026-05-03T07:44:43.595Z</time></trkpt><trkpt lat="45.9709864" lon="13.4363743"><ele>55.400000000000006</ele><time>2026-05-03T07:44:45.595Z</time></trkpt><trkpt lat="45.9709636" lon="13.4365276"><ele>54.599999999999994</ele><time>2026-05-03T07:44:47.595Z</time></trkpt><trkpt lat="45.9708856" lon="13.4366597"><ele>53.8</ele><time>2026-05-03T07:44:49.595Z</time></trkpt><trkpt lat="45.9708299" lon="13.4367303"><ele>53.0</ele><time>2026-05-03T07:44:50.595Z</time></trkpt><trkpt lat="45.9707621" lon="13.4368116"><ele>53.0</ele><time>2026-05-03T07:44:51.594Z</time></trkpt><trkpt lat="45.9706878" lon="13.4368982"><ele>53.0</ele><time>2026-05-03T07:44:52.596Z</time></trkpt><trkpt lat="45.9706087" lon="13.4369886"><ele>53.0</ele><time>2026-05-03T07:44:53.595Z</time></trkpt><trkpt lat="45.9705265" lon="13.4370793"><ele>53.0</ele><time>2026-05-03T07:44:54.594Z</time></trkpt><trkpt lat="45.9704495" lon="13.4371655"><ele>53.0</ele><time>2026-05-03T07:44:55.597Z</time></trkpt><trkpt lat="45.9703853" lon="13.437252"><ele>53.00000000000001</ele><time>2026-05-03T07:44:56.594Z</time></trkpt><trkpt lat="45.970331" lon="13.4373467"><ele>53.0</ele><time>2026-05-03T07:44:57.594Z</time></trkpt><trkpt lat="45.970291" lon="13.4374533"><ele>53.0</ele><time>2026-05-03T07:44:58.594Z</time></trkpt><trkpt lat="45.9702541" lon="13.4375723"><ele>53.0</ele><time>2026-05-03T07:44:59.594Z</time></trkpt><trkpt lat="45.9702156" lon="13.437692"><ele>53.00000000000001</ele><time>2026-05-03T07:45:00.594Z</time></trkpt><trkpt lat="45.9701732" lon="13.4378025"><ele>53.0</ele><time>2026-05-03T07:45:01.595Z</time></trkpt><trkpt lat="45.9701232" lon="13.4379002"><ele>52.8</ele><time>2026-05-03T07:45:02.596Z</time></trkpt><trkpt lat="45.9700655" lon="13.4379921"><ele>52.599999999999994</ele><time>2026-05-03T07:45:03.594Z</time></trkpt><trkpt lat="45.9700009" lon="13.4380762"><ele>52.400000000000006</ele><time>2026-05-03T07:45:04.594Z</time></trkpt><trkpt lat="45.9699257" lon="13.4381541"><ele>52.2</ele><time>2026-05-03T07:45:05.596Z</time></trkpt><trkpt lat="45.9698439" lon="13.4382271"><ele>52.0</ele><time>2026-05-03T07:45:06.595Z</time></trkpt><trkpt lat="45.9697552" lon="13.4383008"><ele>52.0</ele><time>2026-05-03T07:45:07.594Z</time></trkpt><trkpt lat="45.9696624" lon="13.4383723"><ele>52.0</ele><time>2026-05-03T07:45:08.596Z</time></trkpt><trkpt lat="45.9695674" lon="13.4384398"><ele>52.0</ele><time>2026-05-03T07:45:09.594Z</time></trkpt><trkpt lat="45.9694727" lon="13.4385044"><ele>52.0</ele><time>2026-05-03T07:45:10.595Z</time></trkpt><trkpt lat="45.9693779" lon="13.4385727"><ele>52.0</ele><time>2026-05-03T07:45:11.595Z</time></trkpt><trkpt lat="45.969281" lon="13.438643"><ele>51.8</ele><time>2026-05-03T07:45:12.595Z</time></trkpt><trkpt lat="45.9691883" lon="13.438712"><ele>51.6</ele><time>2026-05-03T07:45:13.594Z</time></trkpt><trkpt lat="45.9691023" lon="13.438782"><ele>51.4</ele><time>2026-05-03T07:45:14.596Z</time></trkpt><trkpt lat="45.9690134" lon="13.4388519"><ele>51.199999999999996</ele><time>2026-05-03T07:45:15.594Z</time></trkpt><trkpt lat="45.9689276" lon="13.4389149"><ele>51.0</ele><time>2026-05-03T07:45:16.595Z</time></trkpt><trkpt lat="45.9688462" lon="13.438963"><ele>51.0</ele><time>2026-05-03T07:45:17.594Z</time></trkpt><trkpt lat="45.968766" lon="13.4390015"><ele>51.0</ele><time>2026-05-03T07:45:18.594Z</time></trkpt><trkpt lat="45.9686809" lon="13.4390366"><ele>51.0</ele><time>2026-05-03T07:45:19.596Z</time></trkpt><trkpt lat="45.9685885" lon="13.4390681"><ele>51.0</ele><time>2026-05-03T07:45:20.594Z</time></trkpt><trkpt lat="45.9684891" lon="13.4390994"><ele>51.0</ele><time>2026-05-03T07:45:21.594Z</time></trkpt><trkpt lat="45.9683879" lon="13.439129"><ele>50.8</ele><time>2026-05-03T07:45:22.597Z</time></trkpt><trkpt lat="45.9682857" lon="13.4391593"><ele>50.599999999999994</ele><time>2026-05-03T07:45:23.594Z</time></trkpt><trkpt lat="45.9681861" lon="13.4391862"><ele>50.4</ele><time>2026-05-03T07:45:24.595Z</time></trkpt><trkpt lat="45.9680916" lon="13.4392149"><ele>50.2</ele><time>2026-05-03T07:45:25.594Z</time></trkpt><trkpt lat="45.9679935" lon="13.4392451"><ele>50.0</ele><time>2026-05-03T07:45:26.596Z</time></trkpt><trkpt lat="45.9678952" lon="13.4392722"><ele>50.00000000000001</ele><time>2026-05-03T07:45:27.595Z</time></trkpt><trkpt lat="45.9678011" lon="13.4392986"><ele>50.0</ele><time>2026-05-03T07:45:28.594Z</time></trkpt><trkpt lat="45.9677149" lon="13.4393275"><ele>50.0</ele><time>2026-05-03T07:45:29.595Z</time></trkpt><trkpt lat="45.9676316" lon="13.4393579"><ele>50.0</ele><time>2026-05-03T07:45:30.595Z</time></trkpt><trkpt lat="45.9675487" lon="13.4393742"><ele>50.00000000000001</ele><time>2026-05-03T07:45:31.595Z</time></trkpt><trkpt lat="45.9674632" lon="13.4393757"><ele>50.0</ele><time>2026-05-03T07:45:32.595Z</time></trkpt><trkpt lat="45.9673699" lon="13.4393631"><ele>50.0</ele><time>2026-05-03T07:45:33.594Z</time></trkpt><trkpt lat="45.9672676" lon="13.4393395"><ele>50.0</ele><time>2026-05-03T07:45:34.595Z</time></trkpt><trkpt lat="45.9671606" lon="13.4393106"><ele>50.0</ele><time>2026-05-03T07:45:35.595Z</time></trkpt><trkpt lat="45.9670532" lon="13.4392886"><ele>50.0</ele><time>2026-05-03T07:45:36.594Z</time></trkpt><trkpt lat="45.9669416" lon="13.4392747"><ele>50.0</ele><time>2026-05-03T07:45:37.595Z</time></trkpt><trkpt lat="45.9668249" lon="13.4392729"><ele>50.0</ele><time>2026-05-03T07:45:38.595Z</time></trkpt><trkpt lat="45.9667023" lon="13.439285"><ele>50.0</ele><time>2026-05-03T07:45:39.594Z</time></trkpt><trkpt lat="45.9665737" lon="13.4393057"><ele>50.0</ele><time>2026-05-03T07:45:40.595Z</time></trkpt><trkpt lat="45.9664414" lon="13.439329"><ele>50.0</ele><time>2026-05-03T07:45:41.594Z</time></trkpt><trkpt lat="45.9663062" lon="13.4393509"><ele>49.25</ele><time>2026-05-03T07:45:42.594Z</time></trkpt><trkpt lat="45.9661689" lon="13.4393788"><ele>48.5</ele><time>2026-05-03T07:45:43.595Z</time></trkpt><trkpt lat="45.9660403" lon="13.4394051"><ele>47.75</ele><time>2026-05-03T07:45:44.596Z</time></trkpt><trkpt lat="45.9659235" lon="13.439426"><ele>47.0</ele><time>2026-05-03T07:45:45.594Z</time></trkpt><trkpt lat="45.9658189" lon="13.4394439"><ele>46.83333333333333</ele><time>2026-05-03T07:45:46.594Z</time></trkpt><trkpt lat="45.9657226" lon="13.4394629"><ele>46.666666666666664</ele><time>2026-05-03T07:45:47.596Z</time></trkpt><trkpt lat="45.96563" lon="13.4394797"><ele>46.5</ele><time>2026-05-03T07:45:48.595Z</time></trkpt><trkpt lat="45.9655406" lon="13.4394947"><ele>46.333333333333336</ele><time>2026-05-03T07:45:49.594Z</time></trkpt><trkpt lat="45.9654598" lon="13.4395111"><ele>46.16666666666667</ele><time>2026-05-03T07:45:50.594Z</time></trkpt><trkpt lat="45.9653947" lon="13.4395262"><ele>46.0</ele><time>2026-05-03T07:45:51.594Z</time></trkpt><trkpt lat="45.9653442" lon="13.4396618"><ele>46.599999999999994</ele><time>2026-05-03T07:46:00.594Z</time></trkpt><trkpt lat="45.9653474" lon="13.4397722"><ele>47.2</ele><time>2026-05-03T07:46:01.594Z</time></trkpt><trkpt lat="45.9653523" lon="13.4399071"><ele>47.8</ele><time>2026-05-03T07:46:02.595Z</time></trkpt><trkpt lat="45.9653634" lon="13.4400785"><ele>48.400000000000006</ele><time>2026-05-03T07:46:03.594Z</time></trkpt><trkpt lat="45.9653771" lon="13.440264"><ele>49.0</ele><time>2026-05-03T07:46:04.594Z</time></trkpt><trkpt lat="45.9653942" lon="13.440469"><ele>49.666666666666664</ele><time>2026-05-03T07:46:05.595Z</time></trkpt><trkpt lat="45.9654202" lon="13.4406988"><ele>50.33333333333333</ele><time>2026-05-03T07:46:06.595Z</time></trkpt><trkpt lat="45.9654473" lon="13.4409509"><ele>51.0</ele><time>2026-05-03T07:46:07.595Z</time></trkpt><trkpt lat="45.9654781" lon="13.4412131"><ele>50.66666666666667</ele><time>2026-05-03T07:46:08.594Z</time></trkpt><trkpt lat="45.9655098" lon="13.4414769"><ele>50.333333333333336</ele><time>2026-05-03T07:46:09.594Z</time></trkpt><trkpt lat="45.9655378" lon="13.4417445"><ele>50.0</ele><time>2026-05-03T07:46:10.594Z</time></trkpt><trkpt lat="45.9655644" lon="13.4420109"><ele>49.66666666666667</ele><time>2026-05-03T07:46:11.593Z</time></trkpt><trkpt lat="45.965591" lon="13.4422755"><ele>49.33333333333333</ele><time>2026-05-03T07:46:12.593Z</time></trkpt><trkpt lat="45.9656188" lon="13.4425393"><ele>49.0</ele><time>2026-05-03T07:46:13.595Z</time></trkpt><trkpt lat="45.9656456" lon="13.4427982"><ele>49.0</ele><time>2026-05-03T07:46:14.596Z</time></trkpt><trkpt lat="45.9656722" lon="13.4430499"><ele>49.0</ele><time>2026-05-03T07:46:15.594Z</time></trkpt><trkpt lat="45.9656977" lon="13.4433065"><ele>49.0</ele><time>2026-05-03T07:46:16.593Z</time></trkpt><trkpt lat="45.9657255" lon="13.4435648"><ele>49.33333333333333</ele><time>2026-05-03T07:46:17.594Z</time></trkpt><trkpt lat="45.9657542" lon="13.4438245"><ele>49.66666666666667</ele><time>2026-05-03T07:46:18.594Z</time></trkpt><trkpt lat="45.9657841" lon="13.4440861"><ele>50.0</ele><time>2026-05-03T07:46:19.593Z</time></trkpt><trkpt lat="45.9658129" lon="13.4443454"><ele>50.0</ele><time>2026-05-03T07:46:20.596Z</time></trkpt><trkpt lat="45.9658425" lon="13.4446038"><ele>50.0</ele><time>2026-05-03T07:46:21.594Z</time></trkpt><trkpt lat="45.965871" lon="13.444862"><ele>50.0</ele><time>2026-05-03T07:46:22.595Z</time></trkpt><trkpt lat="45.9658966" lon="13.4451211"><ele>50.66666666666667</ele><time>2026-05-03T07:46:23.594Z</time></trkpt><trkpt lat="45.9659269" lon="13.4453769"><ele>51.33333333333333</ele><time>2026-05-03T07:46:24.594Z</time></trkpt><trkpt lat="45.9659556" lon="13.4456318"><ele>52.0</ele><time>2026-05-03T07:46:25.593Z</time></trkpt><trkpt lat="45.9659824" lon="13.4458814"><ele>53.33333333333333</ele><time>2026-05-03T07:46:26.594Z</time></trkpt><trkpt lat="45.9660102" lon="13.4461255"><ele>54.66666666666667</ele><time>2026-05-03T07:46:27.594Z</time></trkpt><trkpt lat="45.9660396" lon="13.4463643"><ele>56.0</ele><time>2026-05-03T07:46:28.594Z</time></trkpt><trkpt lat="45.9660625" lon="13.4465945"><ele>56.75</ele><time>2026-05-03T07:46:29.593Z</time></trkpt><trkpt lat="45.9660755" lon="13.446811"><ele>57.5</ele><time>2026-05-03T07:46:30.593Z</time></trkpt><trkpt lat="45.9660751" lon="13.4470081"><ele>58.25</ele><time>2026-05-03T07:46:31.593Z</time></trkpt><trkpt lat="45.9660663" lon="13.4471846"><ele>59.0</ele><time>2026-05-03T07:46:32.595Z</time></trkpt><trkpt lat="45.9660494" lon="13.4473419"><ele>59.16666666666667</ele><time>2026-05-03T07:46:33.593Z</time></trkpt><trkpt lat="45.9660233" lon="13.4474843"><ele>59.333333333333336</ele><time>2026-05-03T07:46:34.594Z</time></trkpt><trkpt lat="45.9659941" lon="13.4476045"><ele>59.5</ele><time>2026-05-03T07:46:35.595Z</time></trkpt><trkpt lat="45.9659611" lon="13.4477067"><ele>59.66666666666667</ele><time>2026-05-03T07:46:36.594Z</time></trkpt><trkpt lat="45.965925" lon="13.4477863"><ele>59.833333333333336</ele><time>2026-05-03T07:46:37.594Z</time></trkpt><trkpt lat="45.9658322" lon="13.4478412"><ele>60.0</ele><time>2026-05-03T07:46:39.593Z</time></trkpt><trkpt lat="45.9657552" lon="13.4477886"><ele>58.75</ele><time>2026-05-03T07:46:40.593Z</time></trkpt><trkpt lat="45.965655" lon="13.447685"><ele>57.5</ele><time>2026-05-03T07:46:41.593Z</time></trkpt><trkpt lat="45.9655417" lon="13.4475917"><ele>56.25</ele><time>2026-05-03T07:46:42.593Z</time></trkpt><trkpt lat="45.965415" lon="13.4474883"><ele>55.0</ele><time>2026-05-03T07:46:43.596Z</time></trkpt><trkpt lat="45.9652767" lon="13.4473867"><ele>55.0</ele><time>2026-05-03T07:46:44.595Z</time></trkpt><trkpt lat="45.96513" lon="13.4472917"><ele>55.0</ele><time>2026-05-03T07:46:45.593Z</time></trkpt><trkpt lat="45.964985" lon="13.447215"><ele>55.0</ele><time>2026-05-03T07:46:46.593Z</time></trkpt><trkpt lat="45.96483" lon="13.44718"><ele>54.75</ele><time>2026-05-03T07:46:47.594Z</time></trkpt><trkpt lat="45.9646783" lon="13.4471667"><ele>54.5</ele><time>2026-05-03T07:46:48.594Z</time></trkpt><trkpt lat="45.9645417" lon="13.447145"><ele>54.25</ele><time>2026-05-03T07:46:49.594Z</time></trkpt><trkpt lat="45.96442" lon="13.4471133"><ele>54.0</ele><time>2026-05-03T07:46:50.596Z</time></trkpt><trkpt lat="45.96431" lon="13.4470717"><ele>53.6</ele><time>2026-05-03T07:46:51.593Z</time></trkpt><trkpt lat="45.96421" lon="13.4470167"><ele>53.2</ele><time>2026-05-03T07:46:52.593Z</time></trkpt><trkpt lat="45.964125" lon="13.4469533"><ele>52.800000000000004</ele><time>2026-05-03T07:46:53.596Z</time></trkpt><trkpt lat="45.9640467" lon="13.4468817"><ele>52.400000000000006</ele><time>2026-05-03T07:46:54.594Z</time></trkpt><trkpt lat="45.963965" lon="13.4468"><ele>52.0</ele><time>2026-05-03T07:46:55.594Z</time></trkpt><trkpt lat="45.963885" lon="13.4467233"><ele>52.0</ele><time>2026-05-03T07:46:56.593Z</time></trkpt><trkpt lat="45.9638033" lon="13.4466483"><ele>52.0</ele><time>2026-05-03T07:46:57.593Z</time></trkpt><trkpt lat="45.9637233" lon="13.4465767"><ele>52.0</ele><time>2026-05-03T07:46:58.593Z</time></trkpt><trkpt lat="45.9636467" lon="13.4465067"><ele>52.0</ele><time>2026-05-03T07:46:59.595Z</time></trkpt><trkpt lat="45.9635717" lon="13.44643"><ele>52.0</ele><time>2026-05-03T07:47:00.595Z</time></trkpt><trkpt lat="45.9635017" lon="13.4463467"><ele>52.0</ele><time>2026-05-03T07:47:01.593Z</time></trkpt><trkpt lat="45.96344" lon="13.4462517"><ele>52.0</ele><time>2026-05-03T07:47:02.595Z</time></trkpt><trkpt lat="45.9633833" lon="13.4461417"><ele>52.0</ele><time>2026-05-03T07:47:03.594Z</time></trkpt><trkpt lat="45.963325" lon="13.4460233"><ele>52.0</ele><time>2026-05-03T07:47:04.594Z</time></trkpt><trkpt lat="45.963265" lon="13.4459033"><ele>52.0</ele><time>2026-05-03T07:47:05.593Z</time></trkpt><trkpt lat="45.9632017" lon="13.4457833"><ele>52.0</ele><time>2026-05-03T07:47:06.595Z</time></trkpt><trkpt lat="45.96313" lon="13.445675"><ele>52.0</ele><time>2026-05-03T07:47:07.595Z</time></trkpt><trkpt lat="45.9630533" lon="13.4455883"><ele>52.0</ele><time>2026-05-03T07:47:08.596Z</time></trkpt><trkpt lat="45.9629767" lon="13.4455233"><ele>52.0</ele><time>2026-05-03T07:47:09.593Z</time></trkpt><trkpt lat="45.9629" lon="13.4454733"><ele>52.0</ele><time>2026-05-03T07:47:10.594Z</time></trkpt><trkpt lat="45.9628233" lon="13.44543"><ele>51.666666666666664</ele><time>2026-05-03T07:47:11.594Z</time></trkpt><trkpt lat="45.9627467" lon="13.4453883"><ele>51.33333333333333</ele><time>2026-05-03T07:47:12.594Z</time></trkpt><trkpt lat="45.9626883" lon="13.44534"><ele>51.0</ele><time>2026-05-03T07:47:13.595Z</time></trkpt><trkpt lat="45.9625967" lon="13.4452333"><ele>50.66666666666667</ele><time>2026-05-03T07:47:15.594Z</time></trkpt><trkpt lat="45.9625583" lon="13.445155"><ele>50.333333333333336</ele><time>2026-05-03T07:47:16.594Z</time></trkpt><trkpt lat="45.9625317" lon="13.4450567"><ele>50.0</ele><time>2026-05-03T07:47:17.595Z</time></trkpt><trkpt lat="45.9624983" lon="13.4449333"><ele>50.0</ele><time>2026-05-03T07:47:18.594Z</time></trkpt><trkpt lat="45.96246" lon="13.444795"><ele>50.0</ele><time>2026-05-03T07:47:19.594Z</time></trkpt><trkpt lat="45.962415" lon="13.44465"><ele>50.0</ele><time>2026-05-03T07:47:20.595Z</time></trkpt><trkpt lat="45.9623633" lon="13.4445283"><ele>50.0</ele><time>2026-05-03T07:47:21.594Z</time></trkpt><trkpt lat="45.9623117" lon="13.44444"><ele>50.0</ele><time>2026-05-03T07:47:22.593Z</time></trkpt><trkpt lat="45.96225" lon="13.44438"><ele>50.00000000000001</ele><time>2026-05-03T07:47:23.594Z</time></trkpt><trkpt lat="45.9621833" lon="13.4443667"><ele>50.0</ele><time>2026-05-03T07:47:24.593Z</time></trkpt><trkpt lat="45.962115" lon="13.444385"><ele>50.0</ele><time>2026-05-03T07:47:25.594Z</time></trkpt><trkpt lat="45.9620367" lon="13.4444683"><ele>50.0</ele><time>2026-05-03T07:47:27.594Z</time></trkpt><trkpt lat="45.9620267" lon="13.444605"><ele>50.00000000000001</ele><time>2026-05-03T07:47:29.595Z</time></trkpt><trkpt lat="45.962035" lon="13.4447117"><ele>50.0</ele><time>2026-05-03T07:47:30.594Z</time></trkpt><trkpt lat="45.9620417" lon="13.4448383"><ele>50.00000000000001</ele><time>2026-05-03T07:47:31.593Z</time></trkpt><trkpt lat="45.962045" lon="13.4449533"><ele>50.0</ele><time>2026-05-03T07:47:32.594Z</time></trkpt><trkpt lat="45.9620483" lon="13.4451083"><ele>50.0</ele><time>2026-05-03T07:47:34.594Z</time></trkpt><trkpt lat="45.9620383" lon="13.445205"><ele>50.0</ele><time>2026-05-03T07:47:36.593Z</time></trkpt><trkpt lat="45.9620686" lon="13.4451084"><ele>50.00000000000001</ele><time>2026-05-03T07:47:47.53Z</time></trkpt><trkpt lat="45.9620662" lon="13.444944"><ele>50.0</ele><time>2026-05-03T07:47:48.593Z</time></trkpt><trkpt lat="45.9620657" lon="13.4448471"><ele>50.0</ele><time>2026-05-03T07:47:49.594Z</time></trkpt><trkpt lat="45.962062" lon="13.4447017"><ele>50.0</ele><time>2026-05-03T07:47:51.593Z</time></trkpt><trkpt lat="45.962055" lon="13.4445994"><ele>50.0</ele><time>2026-05-03T07:47:53.593Z</time></trkpt><trkpt lat="45.9620354" lon="13.4444579"><ele>50.0</ele><time>2026-05-03T07:47:56.593Z</time></trkpt><trkpt lat="45.9620088" lon="13.4443272"><ele>50.0</ele><time>2026-05-03T07:47:58.593Z</time></trkpt><trkpt lat="45.961974" lon="13.4441703"><ele>49.833333333333336</ele><time>2026-05-03T07:48:00.594Z</time></trkpt><trkpt lat="45.9618912" lon="13.4440425"><ele>49.66666666666667</ele><time>2026-05-03T07:48:02.594Z</time></trkpt><trkpt lat="45.9618301" lon="13.4440085"><ele>49.5</ele><time>2026-05-03T07:48:03.595Z</time></trkpt><trkpt lat="45.9617587" lon="13.4439975"><ele>49.33333333333333</ele><time>2026-05-03T07:48:04.594Z</time></trkpt><trkpt lat="45.9616868" lon="13.4440112"><ele>49.166666666666664</ele><time>2026-05-03T07:48:05.594Z</time></trkpt><trkpt lat="45.9616197" lon="13.4440362"><ele>49.0</ele><time>2026-05-03T07:48:06.593Z</time></trkpt><trkpt lat="45.9615577" lon="13.4440587"><ele>49.666666666666664</ele><time>2026-05-03T07:48:07.595Z</time></trkpt><trkpt lat="45.9614917" lon="13.4440617"><ele>50.33333333333333</ele><time>2026-05-03T07:48:08.596Z</time></trkpt><trkpt lat="45.9614223" lon="13.4440496"><ele>51.0</ele><time>2026-05-03T07:48:09.594Z</time></trkpt><trkpt lat="45.9613455" lon="13.4440232"><ele>51.66666666666667</ele><time>2026-05-03T07:48:10.594Z</time></trkpt><trkpt lat="45.9612586" lon="13.4440027"><ele>52.333333333333336</ele><time>2026-05-03T07:48:11.596Z</time></trkpt><trkpt lat="45.9611644" lon="13.4439867"><ele>53.0</ele><time>2026-05-03T07:48:12.594Z</time></trkpt><trkpt lat="45.961061" lon="13.4439768"><ele>53.0</ele><time>2026-05-03T07:48:13.595Z</time></trkpt><trkpt lat="45.960955" lon="13.4439698"><ele>53.0</ele><time>2026-05-03T07:48:14.595Z</time></trkpt><trkpt lat="45.9608518" lon="13.4439622"><ele>53.0</ele><time>2026-05-03T07:48:15.596Z</time></trkpt><trkpt lat="45.9607497" lon="13.4439552"><ele>53.0</ele><time>2026-05-03T07:48:16.593Z</time></trkpt><trkpt lat="45.9606507" lon="13.4439475"><ele>53.0</ele><time>2026-05-03T07:48:17.594Z</time></trkpt><trkpt lat="45.960561" lon="13.4439404"><ele>53.0</ele><time>2026-05-03T07:48:18.594Z</time></trkpt><trkpt lat="45.9604755" lon="13.4439354"><ele>53.0</ele><time>2026-05-03T07:48:19.594Z</time></trkpt><trkpt lat="45.9603893" lon="13.4439296"><ele>53.0</ele><time>2026-05-03T07:48:20.595Z</time></trkpt><trkpt lat="45.9603015" lon="13.443918"><ele>53.0</ele><time>2026-05-03T07:48:21.594Z</time></trkpt><trkpt lat="45.9602094" lon="13.4438993"><ele>53.0</ele><time>2026-05-03T07:48:22.596Z</time></trkpt><trkpt lat="45.960113" lon="13.4438748"><ele>53.2</ele><time>2026-05-03T07:48:23.594Z</time></trkpt><trkpt lat="45.9600115" lon="13.443849"><ele>53.4</ele><time>2026-05-03T07:48:24.594Z</time></trkpt><trkpt lat="45.9599051" lon="13.4438199"><ele>53.60000000000001</ele><time>2026-05-03T07:48:25.594Z</time></trkpt><trkpt lat="45.9597965" lon="13.4437866"><ele>53.800000000000004</ele><time>2026-05-03T07:48:26.595Z</time></trkpt><trkpt lat="45.9596845" lon="13.4437463"><ele>54.0</ele><time>2026-05-03T07:48:27.593Z</time></trkpt><trkpt lat="45.9595683" lon="13.4437017"><ele>53.25</ele><time>2026-05-03T07:48:28.593Z</time></trkpt><trkpt lat="45.9594484" lon="13.4436629"><ele>52.5</ele><time>2026-05-03T07:48:29.594Z</time></trkpt><trkpt lat="45.9593251" lon="13.4436289"><ele>51.75</ele><time>2026-05-03T07:48:30.595Z</time></trkpt><trkpt lat="45.9591999" lon="13.4435956"><ele>51.0</ele><time>2026-05-03T07:48:31.594Z</time></trkpt><trkpt lat="45.9590722" lon="13.4435587"><ele>50.5</ele><time>2026-05-03T07:48:32.594Z</time></trkpt><trkpt lat="45.9589447" lon="13.4435205"><ele>50.0</ele><time>2026-05-03T07:48:33.594Z</time></trkpt><trkpt lat="45.9588176" lon="13.4434805"><ele>49.5</ele><time>2026-05-03T07:48:34.595Z</time></trkpt><trkpt lat="45.9586947" lon="13.4434458"><ele>49.0</ele><time>2026-05-03T07:48:35.595Z</time></trkpt><trkpt lat="45.9585731" lon="13.443417"><ele>49.0</ele><time>2026-05-03T07:48:36.594Z</time></trkpt><trkpt lat="45.958454" lon="13.4433984"><ele>49.0</ele><time>2026-05-03T07:48:37.595Z</time></trkpt><trkpt lat="45.9583318" lon="13.4433965"><ele>49.0</ele><time>2026-05-03T07:48:38.595Z</time></trkpt><trkpt lat="45.9582087" lon="13.4433979"><ele>49.0</ele><time>2026-05-03T07:48:39.594Z</time></trkpt><trkpt lat="45.9580809" lon="13.443389"><ele>49.25</ele><time>2026-05-03T07:48:40.593Z</time></trkpt><trkpt lat="45.9579466" lon="13.4433755"><ele>49.5</ele><time>2026-05-03T07:48:41.593Z</time></trkpt><trkpt lat="45.9578113" lon="13.4433599"><ele>49.75</ele><time>2026-05-03T07:48:42.594Z</time></trkpt><trkpt lat="45.9576831" lon="13.4433442"><ele>50.0</ele><time>2026-05-03T07:48:43.595Z</time></trkpt><trkpt lat="45.9575632" lon="13.4433272"><ele>50.0</ele><time>2026-05-03T07:48:44.595Z</time></trkpt><trkpt lat="45.9574425" lon="13.4433094"><ele>50.0</ele><time>2026-05-03T07:48:45.595Z</time></trkpt><trkpt lat="45.9573186" lon="13.4432894"><ele>50.0</ele><time>2026-05-03T07:48:46.594Z</time></trkpt><trkpt lat="45.9571934" lon="13.4432732"><ele>50.0</ele><time>2026-05-03T07:48:47.594Z</time></trkpt><trkpt lat="45.9570685" lon="13.4432567"><ele>50.0</ele><time>2026-05-03T07:48:48.594Z</time></trkpt><trkpt lat="45.9569447" lon="13.4432418"><ele>50.0</ele><time>2026-05-03T07:48:49.593Z</time></trkpt><trkpt lat="45.9568213" lon="13.443227"><ele>50.0</ele><time>2026-05-03T07:48:50.594Z</time></trkpt><trkpt lat="45.9566994" lon="13.4432087"><ele>50.0</ele><time>2026-05-03T07:48:51.593Z</time></trkpt><trkpt lat="45.9565766" lon="13.4431893"><ele>50.25</ele><time>2026-05-03T07:48:52.594Z</time></trkpt><trkpt lat="45.9564547" lon="13.4431767"><ele>50.5</ele><time>2026-05-03T07:48:53.594Z</time></trkpt><trkpt lat="45.9563373" lon="13.4431719"><ele>50.75</ele><time>2026-05-03T07:48:54.594Z</time></trkpt><trkpt lat="45.9562238" lon="13.4431764"><ele>51.0</ele><time>2026-05-03T07:48:55.594Z</time></trkpt><trkpt lat="45.9561083" lon="13.4431785"><ele>51.0</ele><time>2026-05-03T07:48:56.594Z</time></trkpt><trkpt lat="45.9559919" lon="13.4431784"><ele>51.0</ele><time>2026-05-03T07:48:57.594Z</time></trkpt><trkpt lat="45.9558767" lon="13.4431795"><ele>51.0</ele><time>2026-05-03T07:48:58.593Z</time></trkpt><trkpt lat="45.9557618" lon="13.4431799"><ele>51.0</ele><time>2026-05-03T07:48:59.594Z</time></trkpt><trkpt lat="45.9556442" lon="13.443182"><ele>51.199999999999996</ele><time>2026-05-03T07:49:00.593Z</time></trkpt><trkpt lat="45.9555307" lon="13.443187"><ele>51.4</ele><time>2026-05-03T07:49:01.593Z</time></trkpt><trkpt lat="45.9554293" lon="13.4431956"><ele>51.6</ele><time>2026-05-03T07:49:02.596Z</time></trkpt><trkpt lat="45.9553485" lon="13.4432034"><ele>51.8</ele><time>2026-05-03T07:49:03.594Z</time></trkpt><trkpt lat="45.9552823" lon="13.4432023"><ele>52.0</ele><time>2026-05-03T07:49:04.594Z</time></trkpt><trkpt lat="45.9551501" lon="13.443176"><ele>52.0</ele><time>2026-05-03T07:49:06.594Z</time></trkpt><trkpt lat="45.9550637" lon="13.4431555"><ele>52.0</ele><time>2026-05-03T07:49:07.595Z</time></trkpt><trkpt lat="45.9549575" lon="13.443135"><ele>52.0</ele><time>2026-05-03T07:49:08.595Z</time></trkpt><trkpt lat="45.9548383" lon="13.443119"><ele>52.0</ele><time>2026-05-03T07:49:09.595Z</time></trkpt><trkpt lat="45.9547124" lon="13.4431032"><ele>52.0</ele><time>2026-05-03T07:49:10.595Z</time></trkpt><trkpt lat="45.954582" lon="13.4430879"><ele>51.75</ele><time>2026-05-03T07:49:11.594Z</time></trkpt><trkpt lat="45.9544486" lon="13.4430764"><ele>51.5</ele><time>2026-05-03T07:49:12.594Z</time></trkpt><trkpt lat="45.9543124" lon="13.4430699"><ele>51.25</ele><time>2026-05-03T07:49:13.593Z</time></trkpt><trkpt lat="45.9541711" lon="13.4430663"><ele>51.0</ele><time>2026-05-03T07:49:14.595Z</time></trkpt><trkpt lat="45.9540301" lon="13.4430552"><ele>51.0</ele><time>2026-05-03T07:49:15.595Z</time></trkpt><trkpt lat="45.9538907" lon="13.4430379"><ele>51.0</ele><time>2026-05-03T07:49:16.594Z</time></trkpt><trkpt lat="45.9537509" lon="13.4430132"><ele>51.0</ele><time>2026-05-03T07:49:17.596Z</time></trkpt><trkpt lat="45.9536079" lon="13.4429861"><ele>51.0</ele><time>2026-05-03T07:49:18.595Z</time></trkpt><trkpt lat="45.9534639" lon="13.4429614"><ele>50.5</ele><time>2026-05-03T07:49:19.595Z</time></trkpt><trkpt lat="45.9533218" lon="13.4429386"><ele>50.0</ele><time>2026-05-03T07:49:20.595Z</time></trkpt><trkpt lat="45.9531914" lon="13.4429215"><ele>49.5</ele><time>2026-05-03T07:49:21.596Z</time></trkpt><trkpt lat="45.9530843" lon="13.4429111"><ele>49.0</ele><time>2026-05-03T07:49:22.596Z</time></trkpt><trkpt lat="45.9529967" lon="13.4429009"><ele>48.99999999999999</ele><time>2026-05-03T07:49:23.596Z</time></trkpt><trkpt lat="45.9529257" lon="13.4428941"><ele>49.0</ele><time>2026-05-03T07:49:24.595Z</time></trkpt><trkpt lat="45.9528261" lon="13.4428848"><ele>49.0</ele><time>2026-05-03T07:49:26.596Z</time></trkpt><trkpt lat="45.9527217" lon="13.442865"><ele>49.0</ele><time>2026-05-03T07:49:44.594Z</time></trkpt><trkpt lat="45.9526533" lon="13.4428583"><ele>48.99999999999999</ele><time>2026-05-03T07:49:45.594Z</time></trkpt><trkpt lat="45.9525667" lon="13.4428483"><ele>49.0</ele><time>2026-05-03T07:49:46.593Z</time></trkpt><trkpt lat="45.9524683" lon="13.4428333"><ele>48.5</ele><time>2026-05-03T07:49:47.594Z</time></trkpt><trkpt lat="45.9523633" lon="13.4428167"><ele>48.0</ele><time>2026-05-03T07:49:48.593Z</time></trkpt><trkpt lat="45.95225" lon="13.4427983"><ele>47.5</ele><time>2026-05-03T07:49:49.594Z</time></trkpt><trkpt lat="45.9521283" lon="13.442775"><ele>47.0</ele><time>2026-05-03T07:49:50.595Z</time></trkpt><trkpt lat="45.9520017" lon="13.4427533"><ele>47.0</ele><time>2026-05-03T07:49:51.594Z</time></trkpt><trkpt lat="45.9518717" lon="13.4427233"><ele>47.0</ele><time>2026-05-03T07:49:52.594Z</time></trkpt><trkpt lat="45.9517367" lon="13.4426917"><ele>47.0</ele><time>2026-05-03T07:49:53.593Z</time></trkpt><trkpt lat="45.9516" lon="13.4426583"><ele>47.0</ele><time>2026-05-03T07:49:54.593Z</time></trkpt><trkpt lat="45.9514567" lon="13.442625"><ele>47.25</ele><time>2026-05-03T07:49:55.595Z</time></trkpt><trkpt lat="45.9513117" lon="13.4425917"><ele>47.5</ele><time>2026-05-03T07:49:56.596Z</time></trkpt><trkpt lat="45.9511667" lon="13.4425567"><ele>47.75</ele><time>2026-05-03T07:49:57.594Z</time></trkpt><trkpt lat="45.9510217" lon="13.4425233"><ele>48.0</ele><time>2026-05-03T07:49:58.595Z</time></trkpt><trkpt lat="45.950875" lon="13.4424917"><ele>48.0</ele><time>2026-05-03T07:49:59.595Z</time></trkpt><trkpt lat="45.950725" lon="13.4424567"><ele>48.0</ele><time>2026-05-03T07:50:00.595Z</time></trkpt><trkpt lat="45.95057" lon="13.4424267"><ele>48.0</ele><time>2026-05-03T07:50:01.595Z</time></trkpt><trkpt lat="45.9504133" lon="13.4423883"><ele>48.0</ele><time>2026-05-03T07:50:02.595Z</time></trkpt><trkpt lat="45.950255" lon="13.4423483"><ele>48.0</ele><time>2026-05-03T07:50:03.593Z</time></trkpt><trkpt lat="45.9501017" lon="13.44231"><ele>48.0</ele><time>2026-05-03T07:50:04.595Z</time></trkpt><trkpt lat="45.949955" lon="13.4422733"><ele>47.5</ele><time>2026-05-03T07:50:05.595Z</time></trkpt><trkpt lat="45.9498217" lon="13.4422367"><ele>47.0</ele><time>2026-05-03T07:50:06.594Z</time></trkpt><trkpt lat="45.9496933" lon="13.4422017"><ele>46.5</ele><time>2026-05-03T07:50:07.594Z</time></trkpt><trkpt lat="45.9495717" lon="13.4421717"><ele>46.0</ele><time>2026-05-03T07:50:08.594Z</time></trkpt><trkpt lat="45.949455" lon="13.44214"><ele>46.0</ele><time>2026-05-03T07:50:09.594Z</time></trkpt><trkpt lat="45.94934" lon="13.4421133"><ele>46.0</ele><time>2026-05-03T07:50:10.595Z</time></trkpt><trkpt lat="45.9492283" lon="13.4420833"><ele>46.0</ele><time>2026-05-03T07:50:11.596Z</time></trkpt><trkpt lat="45.94912" lon="13.4420567"><ele>46.0</ele><time>2026-05-03T07:50:12.595Z</time></trkpt><trkpt lat="45.949025" lon="13.44202"><ele>46.0</ele><time>2026-05-03T07:50:13.595Z</time></trkpt><trkpt lat="45.94895" lon="13.44198"><ele>46.0</ele><time>2026-05-03T07:50:14.596Z</time></trkpt><trkpt lat="45.9488917" lon="13.441935"><ele>46.0</ele><time>2026-05-03T07:50:15.595Z</time></trkpt><trkpt lat="45.9488083" lon="13.4418183"><ele>46.0</ele><time>2026-05-03T07:50:17.594Z</time></trkpt><trkpt lat="45.9487683" lon="13.4416433"><ele>46.0</ele><time>2026-05-03T07:50:19.595Z</time></trkpt><trkpt lat="45.94876" lon="13.4415333"><ele>46.0</ele><time>2026-05-03T07:50:20.594Z</time></trkpt><trkpt lat="45.94875" lon="13.4414217"><ele>46.0</ele><time>2026-05-03T07:50:21.594Z</time></trkpt><trkpt lat="45.9487417" lon="13.441305"><ele>46.0</ele><time>2026-05-03T07:50:22.595Z</time></trkpt><trkpt lat="45.9487317" lon="13.4411817"><ele>46.0</ele><time>2026-05-03T07:50:23.595Z</time></trkpt><trkpt lat="45.94872" lon="13.441055"><ele>46.0</ele><time>2026-05-03T07:50:24.595Z</time></trkpt><trkpt lat="45.9487117" lon="13.440925"><ele>46.0</ele><time>2026-05-03T07:50:25.594Z</time></trkpt><trkpt lat="45.948705" lon="13.4407883"><ele>46.0</ele><time>2026-05-03T07:50:26.597Z</time></trkpt><trkpt lat="45.948695" lon="13.44064"><ele>46.0</ele><time>2026-05-03T07:50:27.595Z</time></trkpt><trkpt lat="45.9486867" lon="13.4404883"><ele>46.0</ele><time>2026-05-03T07:50:28.595Z</time></trkpt><trkpt lat="45.9486793" lon="13.4403245"><ele>46.0</ele><time>2026-05-03T07:50:29.594Z</time></trkpt><trkpt lat="45.9486701" lon="13.4401495"><ele>46.0</ele><time>2026-05-03T07:50:30.595Z</time></trkpt><trkpt lat="45.9486611" lon="13.4399624"><ele>46.25</ele><time>2026-05-03T07:50:31.595Z</time></trkpt><trkpt lat="45.9486608" lon="13.4397723"><ele>46.5</ele><time>2026-05-03T07:50:32.594Z</time></trkpt><trkpt lat="45.9486621" lon="13.4395844"><ele>46.75</ele><time>2026-05-03T07:50:33.594Z</time></trkpt><trkpt lat="45.9486614" lon="13.439396"><ele>47.0</ele><time>2026-05-03T07:50:34.595Z</time></trkpt><trkpt lat="45.948655" lon="13.4392093"><ele>46.5</ele><time>2026-05-03T07:50:35.595Z</time></trkpt><trkpt lat="45.9486422" lon="13.4390208"><ele>46.0</ele><time>2026-05-03T07:50:36.594Z</time></trkpt><trkpt lat="45.9486285" lon="13.4388401"><ele>45.5</ele><time>2026-05-03T07:50:37.594Z</time></trkpt><trkpt lat="45.9486183" lon="13.4386664"><ele>45.0</ele><time>2026-05-03T07:50:38.595Z</time></trkpt><trkpt lat="45.94861" lon="13.4384922"><ele>44.75</ele><time>2026-05-03T07:50:39.593Z</time></trkpt><trkpt lat="45.9485966" lon="13.4383172"><ele>44.5</ele><time>2026-05-03T07:50:40.594Z</time></trkpt><trkpt lat="45.9485818" lon="13.4381422"><ele>44.25</ele><time>2026-05-03T07:50:41.594Z</time></trkpt><trkpt lat="45.9485653" lon="13.4379666"><ele>44.0</ele><time>2026-05-03T07:50:42.595Z</time></trkpt><trkpt lat="45.9485518" lon="13.4377902"><ele>44.5</ele><time>2026-05-03T07:50:43.595Z</time></trkpt><trkpt lat="45.9485385" lon="13.4376089"><ele>45.0</ele><time>2026-05-03T07:50:44.595Z</time></trkpt><trkpt lat="45.9485255" lon="13.4374183"><ele>45.5</ele><time>2026-05-03T07:50:45.594Z</time></trkpt><trkpt lat="45.948511" lon="13.4372216"><ele>46.0</ele><time>2026-05-03T07:50:46.595Z</time></trkpt><trkpt lat="45.9484943" lon="13.4370199"><ele>46.0</ele><time>2026-05-03T07:50:47.594Z</time></trkpt><trkpt lat="45.9484769" lon="13.4368147"><ele>46.0</ele><time>2026-05-03T07:50:48.594Z</time></trkpt><trkpt lat="45.948461" lon="13.4366109"><ele>46.0</ele><time>2026-05-03T07:50:49.595Z</time></trkpt><trkpt lat="45.9484457" lon="13.4364077"><ele>46.0</ele><time>2026-05-03T07:50:50.595Z</time></trkpt><trkpt lat="45.9484308" lon="13.4362174"><ele>46.0</ele><time>2026-05-03T07:50:51.595Z</time></trkpt><trkpt lat="45.9484162" lon="13.4360442"><ele>46.0</ele><time>2026-05-03T07:50:52.595Z</time></trkpt><trkpt lat="45.9483988" lon="13.4358816"><ele>46.0</ele><time>2026-05-03T07:50:53.594Z</time></trkpt><trkpt lat="45.9483791" lon="13.4357236"><ele>46.0</ele><time>2026-05-03T07:50:54.595Z</time></trkpt><trkpt lat="45.9483574" lon="13.4355711"><ele>45.25</ele><time>2026-05-03T07:50:55.595Z</time></trkpt><trkpt lat="45.948339" lon="13.4354229"><ele>44.5</ele><time>2026-05-03T07:50:56.594Z</time></trkpt><trkpt lat="45.9483317" lon="13.4352684"><ele>43.75</ele><time>2026-05-03T07:50:57.594Z</time></trkpt><trkpt lat="45.9483348" lon="13.4351019"><ele>43.0</ele><time>2026-05-03T07:50:58.595Z</time></trkpt><trkpt lat="45.9483425" lon="13.4349238"><ele>43.0</ele><time>2026-05-03T07:50:59.595Z</time></trkpt><trkpt lat="45.9483487" lon="13.4347373"><ele>43.0</ele><time>2026-05-03T07:51:00.595Z</time></trkpt><trkpt lat="45.9483499" lon="13.4345462"><ele>43.0</ele><time>2026-05-03T07:51:01.597Z</time></trkpt><trkpt lat="45.9483426" lon="13.434352"><ele>43.0</ele><time>2026-05-03T07:51:02.595Z</time></trkpt><trkpt lat="45.9483307" lon="13.4341621"><ele>42.75</ele><time>2026-05-03T07:51:03.595Z</time></trkpt><trkpt lat="45.9483188" lon="13.4339873"><ele>42.5</ele><time>2026-05-03T07:51:04.595Z</time></trkpt><trkpt lat="45.9482999" lon="13.4338224"><ele>42.25</ele><time>2026-05-03T07:51:05.596Z</time></trkpt><trkpt lat="45.9482769" lon="13.4336645"><ele>42.0</ele><time>2026-05-03T07:51:06.594Z</time></trkpt><trkpt lat="45.9482521" lon="13.4335188"><ele>41.833333333333336</ele><time>2026-05-03T07:51:07.595Z</time></trkpt><trkpt lat="45.9482228" lon="13.4333897"><ele>41.666666666666664</ele><time>2026-05-03T07:51:08.595Z</time></trkpt><trkpt lat="45.9481887" lon="13.4332774"><ele>41.5</ele><time>2026-05-03T07:51:09.595Z</time></trkpt><trkpt lat="45.9481473" lon="13.4331805"><ele>41.33333333333333</ele><time>2026-05-03T07:51:10.593Z</time></trkpt><trkpt lat="45.9480989" lon="13.4330918"><ele>41.166666666666664</ele><time>2026-05-03T07:51:11.594Z</time></trkpt><trkpt lat="45.9480404" lon="13.4330086"><ele>41.0</ele><time>2026-05-03T07:51:12.596Z</time></trkpt><trkpt lat="45.9479714" lon="13.4329355"><ele>40.75</ele><time>2026-05-03T07:51:13.597Z</time></trkpt><trkpt lat="45.947892" lon="13.4328684"><ele>40.5</ele><time>2026-05-03T07:51:14.595Z</time></trkpt><trkpt lat="45.9477982" lon="13.4327952"><ele>40.25</ele><time>2026-05-03T07:51:15.594Z</time></trkpt><trkpt lat="45.9476872" lon="13.4327155"><ele>40.0</ele><time>2026-05-03T07:51:16.595Z</time></trkpt><trkpt lat="45.9475655" lon="13.4326319"><ele>40.0</ele><time>2026-05-03T07:51:17.594Z</time></trkpt><trkpt lat="45.947438" lon="13.4325412"><ele>40.0</ele><time>2026-05-03T07:51:18.593Z</time></trkpt><trkpt lat="45.9473056" lon="13.4324496"><ele>40.0</ele><time>2026-05-03T07:51:19.594Z</time></trkpt><trkpt lat="45.9471685" lon="13.4323633"><ele>40.0</ele><time>2026-05-03T07:51:20.596Z</time></trkpt><trkpt lat="45.9470322" lon="13.4322799"><ele>40.0</ele><time>2026-05-03T07:51:21.594Z</time></trkpt><trkpt lat="45.9469039" lon="13.4322041"><ele>40.0</ele><time>2026-05-03T07:51:22.594Z</time></trkpt><trkpt lat="45.9467792" lon="13.4321402"><ele>40.0</ele><time>2026-05-03T07:51:23.594Z</time></trkpt><trkpt lat="45.9466548" lon="13.4320818"><ele>40.0</ele><time>2026-05-03T07:51:24.594Z</time></trkpt><trkpt lat="45.9465285" lon="13.4320219"><ele>40.25</ele><time>2026-05-03T07:51:25.596Z</time></trkpt><trkpt lat="45.9463992" lon="13.4319548"><ele>40.5</ele><time>2026-05-03T07:51:26.595Z</time></trkpt><trkpt lat="45.9462718" lon="13.4318711"><ele>40.75</ele><time>2026-05-03T07:51:27.594Z</time></trkpt><trkpt lat="45.9461449" lon="13.4317748"><ele>41.0</ele><time>2026-05-03T07:51:28.595Z</time></trkpt><trkpt lat="45.9460262" lon="13.4316658"><ele>41.0</ele><time>2026-05-03T07:51:29.595Z</time></trkpt><trkpt lat="45.9459219" lon="13.4315473"><ele>41.0</ele><time>2026-05-03T07:51:30.594Z</time></trkpt><trkpt lat="45.9458218" lon="13.4314205"><ele>41.0</ele><time>2026-05-03T07:51:31.595Z</time></trkpt><trkpt lat="45.9457226" lon="13.4312827"><ele>41.0</ele><time>2026-05-03T07:51:32.595Z</time></trkpt><trkpt lat="45.9456229" lon="13.4311378"><ele>41.0</ele><time>2026-05-03T07:51:33.594Z</time></trkpt><trkpt lat="45.9455218" lon="13.43099"><ele>41.0</ele><time>2026-05-03T07:51:34.595Z</time></trkpt><trkpt lat="45.9454201" lon="13.4308428"><ele>41.0</ele><time>2026-05-03T07:51:35.595Z</time></trkpt><trkpt lat="45.9453194" lon="13.4307025"><ele>41.0</ele><time>2026-05-03T07:51:36.594Z</time></trkpt><trkpt lat="45.945222" lon="13.4305758"><ele>40.75</ele><time>2026-05-03T07:51:37.596Z</time></trkpt><trkpt lat="45.9451267" lon="13.4304644"><ele>40.5</ele><time>2026-05-03T07:51:38.594Z</time></trkpt><trkpt lat="45.9450253" lon="13.4303666"><ele>40.25</ele><time>2026-05-03T07:51:39.594Z</time></trkpt><trkpt lat="45.9449222" lon="13.4302844"><ele>40.0</ele><time>2026-05-03T07:51:40.594Z</time></trkpt><trkpt lat="45.9448209" lon="13.4302209"><ele>40.0</ele><time>2026-05-03T07:51:41.595Z</time></trkpt><trkpt lat="45.9447191" lon="13.4301815"><ele>40.0</ele><time>2026-05-03T07:51:42.595Z</time></trkpt><trkpt lat="45.9446146" lon="13.4301647"><ele>40.0</ele><time>2026-05-03T07:51:43.595Z</time></trkpt><trkpt lat="45.9445022" lon="13.4301625"><ele>40.0</ele><time>2026-05-03T07:51:44.595Z</time></trkpt><trkpt lat="45.9443839" lon="13.4301673"><ele>40.0</ele><time>2026-05-03T07:51:45.595Z</time></trkpt><trkpt lat="45.9442604" lon="13.4301728"><ele>39.5</ele><time>2026-05-03T07:51:46.595Z</time></trkpt><trkpt lat="45.9441347" lon="13.4301854"><ele>39.0</ele><time>2026-05-03T07:51:47.595Z</time></trkpt><trkpt lat="45.944011" lon="13.4302039"><ele>38.5</ele><time>2026-05-03T07:51:48.594Z</time></trkpt><trkpt lat="45.9438862" lon="13.4302367"><ele>38.0</ele><time>2026-05-03T07:51:49.596Z</time></trkpt><trkpt lat="45.9437552" lon="13.4302736"><ele>38.0</ele><time>2026-05-03T07:51:50.595Z</time></trkpt><trkpt lat="45.9436211" lon="13.4303101"><ele>38.0</ele><time>2026-05-03T07:51:51.595Z</time></trkpt><trkpt lat="45.9434901" lon="13.4303399"><ele>38.0</ele><time>2026-05-03T07:51:52.594Z</time></trkpt><trkpt lat="45.9433645" lon="13.430367"><ele>38.0</ele><time>2026-05-03T07:51:53.594Z</time></trkpt><trkpt lat="45.9432453" lon="13.4304015"><ele>37.75</ele><time>2026-05-03T07:51:54.594Z</time></trkpt><trkpt lat="45.9431313" lon="13.4304506"><ele>37.5</ele><time>2026-05-03T07:51:55.595Z</time></trkpt><trkpt lat="45.9430177" lon="13.4305167"><ele>37.25</ele><time>2026-05-03T07:51:56.594Z</time></trkpt><trkpt lat="45.942902" lon="13.4305908"><ele>37.0</ele><time>2026-05-03T07:51:57.595Z</time></trkpt><trkpt lat="45.9427867" lon="13.4306609"><ele>37.4</ele><time>2026-05-03T07:51:58.595Z</time></trkpt><trkpt lat="45.9426745" lon="13.4307065"><ele>37.800000000000004</ele><time>2026-05-03T07:51:59.594Z</time></trkpt><trkpt lat="45.9425583" lon="13.4307298"><ele>38.2</ele><time>2026-05-03T07:52:00.595Z</time></trkpt><trkpt lat="45.9424465" lon="13.4307359"><ele>38.6</ele><time>2026-05-03T07:52:01.594Z</time></trkpt><trkpt lat="45.9423488" lon="13.430711"><ele>39.0</ele><time>2026-05-03T07:52:02.597Z</time></trkpt><trkpt lat="45.9422588" lon="13.4306567"><ele>39.0</ele><time>2026-05-03T07:52:03.595Z</time></trkpt><trkpt lat="45.9421694" lon="13.4305755"><ele>39.0</ele><time>2026-05-03T07:52:04.595Z</time></trkpt><trkpt lat="45.9420843" lon="13.4304853"><ele>39.0</ele><time>2026-05-03T07:52:05.595Z</time></trkpt><trkpt lat="45.9420124" lon="13.4303964"><ele>39.0</ele><time>2026-05-03T07:52:06.595Z</time></trkpt><trkpt lat="45.9419577" lon="13.4303022"><ele>39.0</ele><time>2026-05-03T07:52:07.594Z</time></trkpt><trkpt lat="45.9419198" lon="13.4301987"><ele>39.166666666666664</ele><time>2026-05-03T07:52:08.597Z</time></trkpt><trkpt lat="45.9419035" lon="13.4300835"><ele>39.333333333333336</ele><time>2026-05-03T07:52:09.594Z</time></trkpt><trkpt lat="45.9419062" lon="13.4299534"><ele>39.5</ele><time>2026-05-03T07:52:10.595Z</time></trkpt><trkpt lat="45.9419187" lon="13.4298171"><ele>39.66666666666667</ele><time>2026-05-03T07:52:11.596Z</time></trkpt><trkpt lat="45.9419331" lon="13.4296819"><ele>39.833333333333336</ele><time>2026-05-03T07:52:12.596Z</time></trkpt><trkpt lat="45.9419399" lon="13.4295603"><ele>40.0</ele><time>2026-05-03T07:52:13.596Z</time></trkpt><trkpt lat="45.941933" lon="13.4294566"><ele>40.0</ele><time>2026-05-03T07:52:14.596Z</time></trkpt><trkpt lat="45.9418713" lon="13.4293225"><ele>40.0</ele><time>2026-05-03T07:52:16.595Z</time></trkpt><trkpt lat="45.9417753" lon="13.429301"><ele>40.0</ele><time>2026-05-03T07:52:18.595Z</time></trkpt><trkpt lat="45.9417135" lon="13.4293398"><ele>40.0</ele><time>2026-05-03T07:52:19.595Z</time></trkpt><trkpt lat="45.9416465" lon="13.4293931"><ele>40.0</ele><time>2026-05-03T07:52:20.595Z</time></trkpt><trkpt lat="45.9415728" lon="13.4294527"><ele>40.0</ele><time>2026-05-03T07:52:21.595Z</time></trkpt><trkpt lat="45.9414962" lon="13.4295174"><ele>40.0</ele><time>2026-05-03T07:52:22.595Z</time></trkpt><trkpt lat="45.9414101" lon="13.4295753"><ele>40.0</ele><time>2026-05-03T07:52:23.596Z</time></trkpt><trkpt lat="45.9413243" lon="13.4296366"><ele>40.0</ele><time>2026-05-03T07:52:24.595Z</time></trkpt><trkpt lat="45.9412356" lon="13.4297038"><ele>40.0</ele><time>2026-05-03T07:52:25.597Z</time></trkpt><trkpt lat="45.9411445" lon="13.4297669"><ele>40.0</ele><time>2026-05-03T07:52:26.594Z</time></trkpt><trkpt lat="45.9410512" lon="13.42983"><ele>40.0</ele><time>2026-05-03T07:52:27.595Z</time></trkpt><trkpt lat="45.9409574" lon="13.4298903"><ele>40.0</ele><time>2026-05-03T07:52:28.594Z</time></trkpt><trkpt lat="45.9408655" lon="13.4299533"><ele>40.0</ele><time>2026-05-03T07:52:29.594Z</time></trkpt><trkpt lat="45.9407739" lon="13.4300173"><ele>40.0</ele><time>2026-05-03T07:52:30.594Z</time></trkpt><trkpt lat="45.9406808" lon="13.430078"><ele>40.0</ele><time>2026-05-03T07:52:31.595Z</time></trkpt><trkpt lat="45.9405882" lon="13.4301352"><ele>40.0</ele><time>2026-05-03T07:52:32.595Z</time></trkpt><trkpt lat="45.9404978" lon="13.4301954"><ele>40.0</ele><time>2026-05-03T07:52:33.595Z</time></trkpt><trkpt lat="45.9404079" lon="13.4302573"><ele>40.0</ele><time>2026-05-03T07:52:34.594Z</time></trkpt><trkpt lat="45.9403153" lon="13.4303204"><ele>40.0</ele><time>2026-05-03T07:52:35.594Z</time></trkpt><trkpt lat="45.9402177" lon="13.4303849"><ele>40.0</ele><time>2026-05-03T07:52:36.596Z</time></trkpt><trkpt lat="45.9401186" lon="13.4304504"><ele>40.0</ele><time>2026-05-03T07:52:37.594Z</time></trkpt><trkpt lat="45.9400185" lon="13.4305177"><ele>40.0</ele><time>2026-05-03T07:52:38.595Z</time></trkpt><trkpt lat="45.9399194" lon="13.4305828"><ele>40.0</ele><time>2026-05-03T07:52:39.595Z</time></trkpt><trkpt lat="45.9398241" lon="13.4306429"><ele>40.0</ele><time>2026-05-03T07:52:40.594Z</time></trkpt><trkpt lat="45.9397392" lon="13.4306963"><ele>40.0</ele><time>2026-05-03T07:52:41.595Z</time></trkpt><trkpt lat="45.9396589" lon="13.4307492"><ele>40.0</ele><time>2026-05-03T07:52:42.594Z</time></trkpt><trkpt lat="45.9395799" lon="13.4308013"><ele>40.0</ele><time>2026-05-03T07:52:43.594Z</time></trkpt><trkpt lat="45.9394986" lon="13.4308551"><ele>40.0</ele><time>2026-05-03T07:52:44.594Z</time></trkpt><trkpt lat="45.9394162" lon="13.4309102"><ele>40.0</ele><time>2026-05-03T07:52:45.595Z</time></trkpt><trkpt lat="45.939332" lon="13.4309586"><ele>40.0</ele><time>2026-05-03T07:52:46.594Z</time></trkpt><trkpt lat="45.9392486" lon="13.4310146"><ele>39.6</ele><time>2026-05-03T07:52:47.595Z</time></trkpt><trkpt lat="45.9391651" lon="13.4310731"><ele>39.2</ele><time>2026-05-03T07:52:48.594Z</time></trkpt><trkpt lat="45.9390816" lon="13.4311317"><ele>38.8</ele><time>2026-05-03T07:52:49.594Z</time></trkpt><trkpt lat="45.9389968" lon="13.4311884"><ele>38.4</ele><time>2026-05-03T07:52:50.595Z</time></trkpt><trkpt lat="45.9389152" lon="13.4312453"><ele>38.0</ele><time>2026-05-03T07:52:51.594Z</time></trkpt><trkpt lat="45.9388374" lon="13.4312978"><ele>37.83333333333333</ele><time>2026-05-03T07:52:52.595Z</time></trkpt><trkpt lat="45.9387595" lon="13.4313491"><ele>37.666666666666664</ele><time>2026-05-03T07:52:53.594Z</time></trkpt><trkpt lat="45.9386789" lon="13.4314007"><ele>37.5</ele><time>2026-05-03T07:52:54.594Z</time></trkpt><trkpt lat="45.9385973" lon="13.4314537"><ele>37.333333333333336</ele><time>2026-05-03T07:52:55.595Z</time></trkpt><trkpt lat="45.9385167" lon="13.431507"><ele>37.16666666666667</ele><time>2026-05-03T07:52:56.594Z</time></trkpt><trkpt lat="45.9384395" lon="13.4315576"><ele>37.0</ele><time>2026-05-03T07:52:57.593Z</time></trkpt><trkpt lat="45.9383661" lon="13.4316069"><ele>37.0</ele><time>2026-05-03T07:52:58.594Z</time></trkpt><trkpt lat="45.9382954" lon="13.431659"><ele>37.0</ele><time>2026-05-03T07:52:59.595Z</time></trkpt><trkpt lat="45.9382271" lon="13.4317113"><ele>37.0</ele><time>2026-05-03T07:53:00.594Z</time></trkpt><trkpt lat="45.9381581" lon="13.431761"><ele>37.0</ele><time>2026-05-03T07:53:01.593Z</time></trkpt><trkpt lat="45.9380869" lon="13.4318042"><ele>37.0</ele><time>2026-05-03T07:53:02.594Z</time></trkpt><trkpt lat="45.938012" lon="13.4318507"><ele>37.0</ele><time>2026-05-03T07:53:03.593Z</time></trkpt><trkpt lat="45.9379343" lon="13.4319052"><ele>37.0</ele><time>2026-05-03T07:53:04.594Z</time></trkpt><trkpt lat="45.9378529" lon="13.4319622"><ele>37.0</ele><time>2026-05-03T07:53:05.594Z</time></trkpt><trkpt lat="45.937769" lon="13.4320228"><ele>37.0</ele><time>2026-05-03T07:53:06.593Z</time></trkpt><trkpt lat="45.9376837" lon="13.4320825"><ele>37.0</ele><time>2026-05-03T07:53:07.594Z</time></trkpt><trkpt lat="45.9375958" lon="13.4321399"><ele>37.0</ele><time>2026-05-03T07:53:08.593Z</time></trkpt><trkpt lat="45.9375101" lon="13.4321913"><ele>37.4</ele><time>2026-05-03T07:53:09.594Z</time></trkpt><trkpt lat="45.9374264" lon="13.4322403"><ele>37.800000000000004</ele><time>2026-05-03T07:53:10.594Z</time></trkpt><trkpt lat="45.9373419" lon="13.4322885"><ele>38.2</ele><time>2026-05-03T07:53:11.595Z</time></trkpt><trkpt lat="45.9372573" lon="13.4323423"><ele>38.6</ele><time>2026-05-03T07:53:12.593Z</time></trkpt><trkpt lat="45.9371725" lon="13.4324022"><ele>39.0</ele><time>2026-05-03T07:53:13.594Z</time></trkpt><trkpt lat="45.9370918" lon="13.4324585"><ele>39.0</ele><time>2026-05-03T07:53:14.593Z</time></trkpt><trkpt lat="45.937012" lon="13.4325117"><ele>39.0</ele><time>2026-05-03T07:53:15.593Z</time></trkpt><trkpt lat="45.9369306" lon="13.4325635"><ele>39.0</ele><time>2026-05-03T07:53:16.593Z</time></trkpt><trkpt lat="45.9368512" lon="13.4326191"><ele>39.0</ele><time>2026-05-03T07:53:17.595Z</time></trkpt><trkpt lat="45.9367681" lon="13.4326707"><ele>39.0</ele><time>2026-05-03T07:53:18.594Z</time></trkpt><trkpt lat="45.9366871" lon="13.4327171"><ele>39.0</ele><time>2026-05-03T07:53:19.594Z</time></trkpt><trkpt lat="45.9366057" lon="13.4327653"><ele>39.0</ele><time>2026-05-03T07:53:20.595Z</time></trkpt><trkpt lat="45.9365239" lon="13.4328191"><ele>39.0</ele><time>2026-05-03T07:53:21.594Z</time></trkpt><trkpt lat="45.9364407" lon="13.4328742"><ele>39.0</ele><time>2026-05-03T07:53:22.593Z</time></trkpt><trkpt lat="45.9363546" lon="13.4329311"><ele>39.0</ele><time>2026-05-03T07:53:23.593Z</time></trkpt><trkpt lat="45.93627" lon="13.4329811"><ele>39.0</ele><time>2026-05-03T07:53:24.594Z</time></trkpt><trkpt lat="45.9361839" lon="13.4330254"><ele>39.166666666666664</ele><time>2026-05-03T07:53:25.594Z</time></trkpt><trkpt lat="45.9361011" lon="13.4330762"><ele>39.333333333333336</ele><time>2026-05-03T07:53:26.595Z</time></trkpt><trkpt lat="45.9360196" lon="13.4331323"><ele>39.5</ele><time>2026-05-03T07:53:27.593Z</time></trkpt><trkpt lat="45.9359392" lon="13.4331851"><ele>39.66666666666667</ele><time>2026-05-03T07:53:28.593Z</time></trkpt><trkpt lat="45.9358605" lon="13.4332367"><ele>39.833333333333336</ele><time>2026-05-03T07:53:29.594Z</time></trkpt><trkpt lat="45.9357759" lon="13.4332947"><ele>40.0</ele><time>2026-05-03T07:53:30.595Z</time></trkpt><trkpt lat="45.9356883" lon="13.4333531"><ele>40.0</ele><time>2026-05-03T07:53:31.595Z</time></trkpt><trkpt lat="45.9356052" lon="13.4334083"><ele>40.0</ele><time>2026-05-03T07:53:32.594Z</time></trkpt><trkpt lat="45.9355213" lon="13.4334659"><ele>40.0</ele><time>2026-05-03T07:53:33.593Z</time></trkpt><trkpt lat="45.9354415" lon="13.4335199"><ele>40.0</ele><time>2026-05-03T07:53:34.593Z</time></trkpt><trkpt lat="45.9353591" lon="13.433573"><ele>40.0</ele><time>2026-05-03T07:53:35.593Z</time></trkpt><trkpt lat="45.9352754" lon="13.4336294"><ele>40.0</ele><time>2026-05-03T07:53:36.594Z</time></trkpt><trkpt lat="45.9351916" lon="13.4336901"><ele>40.0</ele><time>2026-05-03T07:53:37.594Z</time></trkpt><trkpt lat="45.9351082" lon="13.4337476"><ele>40.0</ele><time>2026-05-03T07:53:38.594Z</time></trkpt><trkpt lat="45.9350267" lon="13.4338012"><ele>40.0</ele><time>2026-05-03T07:53:39.593Z</time></trkpt><trkpt lat="45.9349438" lon="13.4338564"><ele>40.0</ele><time>2026-05-03T07:53:40.593Z</time></trkpt><trkpt lat="45.934851" lon="13.4339151"><ele>39.4</ele><time>2026-05-03T07:53:41.594Z</time></trkpt><trkpt lat="45.9347513" lon="13.4339768"><ele>38.8</ele><time>2026-05-03T07:53:42.595Z</time></trkpt><trkpt lat="45.934649" lon="13.4340414"><ele>38.2</ele><time>2026-05-03T07:53:43.595Z</time></trkpt><trkpt lat="45.9345491" lon="13.4341068"><ele>37.6</ele><time>2026-05-03T07:53:44.594Z</time></trkpt><trkpt lat="45.9344529" lon="13.4341719"><ele>37.0</ele><time>2026-05-03T07:53:45.594Z</time></trkpt><trkpt lat="45.9343486" lon="13.4342414"><ele>37.0</ele><time>2026-05-03T07:53:46.595Z</time></trkpt><trkpt lat="45.9342451" lon="13.4343108"><ele>37.0</ele><time>2026-05-03T07:53:47.594Z</time></trkpt><trkpt lat="45.9341428" lon="13.4343763"><ele>37.0</ele><time>2026-05-03T07:53:48.593Z</time></trkpt><trkpt lat="45.9340427" lon="13.4344428"><ele>37.0</ele><time>2026-05-03T07:53:49.594Z</time></trkpt><trkpt lat="45.9339417" lon="13.4345131"><ele>37.0</ele><time>2026-05-03T07:53:50.595Z</time></trkpt><trkpt lat="45.9338351" lon="13.4345854"><ele>37.0</ele><time>2026-05-03T07:53:51.593Z</time></trkpt><trkpt lat="45.9337244" lon="13.4346613"><ele>37.0</ele><time>2026-05-03T07:53:52.593Z</time></trkpt><trkpt lat="45.9336113" lon="13.4347342"><ele>37.0</ele><time>2026-05-03T07:53:53.593Z</time></trkpt><trkpt lat="45.9335013" lon="13.4348038"><ele>37.0</ele><time>2026-05-03T07:53:54.593Z</time></trkpt><trkpt lat="45.9333904" lon="13.4348785"><ele>37.25</ele><time>2026-05-03T07:53:55.594Z</time></trkpt><trkpt lat="45.9332829" lon="13.434948"><ele>37.5</ele><time>2026-05-03T07:53:56.594Z</time></trkpt><trkpt lat="45.9331774" lon="13.4350149"><ele>37.75</ele><time>2026-05-03T07:53:57.594Z</time></trkpt><trkpt lat="45.9330688" lon="13.4350889"><ele>38.0</ele><time>2026-05-03T07:53:58.594Z</time></trkpt><trkpt lat="45.9329625" lon="13.4351623"><ele>38.0</ele><time>2026-05-03T07:53:59.595Z</time></trkpt><trkpt lat="45.9328547" lon="13.4352343"><ele>38.0</ele><time>2026-05-03T07:54:00.593Z</time></trkpt><trkpt lat="45.9327478" lon="13.4353039"><ele>38.0</ele><time>2026-05-03T07:54:01.594Z</time></trkpt><trkpt lat="45.9326437" lon="13.4353724"><ele>38.0</ele><time>2026-05-03T07:54:02.593Z</time></trkpt><trkpt lat="45.9325394" lon="13.4354411"><ele>37.8</ele><time>2026-05-03T07:54:03.594Z</time></trkpt><trkpt lat="45.9324408" lon="13.4355118"><ele>37.599999999999994</ele><time>2026-05-03T07:54:04.593Z</time></trkpt><trkpt lat="45.9323438" lon="13.4355797"><ele>37.400000000000006</ele><time>2026-05-03T07:54:05.593Z</time></trkpt><trkpt lat="45.9322449" lon="13.4356473"><ele>37.2</ele><time>2026-05-03T07:54:06.593Z</time></trkpt><trkpt lat="45.9321486" lon="13.4357223"><ele>37.0</ele><time>2026-05-03T07:54:07.595Z</time></trkpt><trkpt lat="45.9320572" lon="13.4357908"><ele>37.0</ele><time>2026-05-03T07:54:08.594Z</time></trkpt><trkpt lat="45.9319727" lon="13.4358424"><ele>37.0</ele><time>2026-05-03T07:54:09.593Z</time></trkpt><trkpt lat="45.9318911" lon="13.4358889"><ele>37.0</ele><time>2026-05-03T07:54:10.595Z</time></trkpt><trkpt lat="45.9318138" lon="13.4359326"><ele>37.0</ele><time>2026-05-03T07:54:11.595Z</time></trkpt><trkpt lat="45.9317436" lon="13.4359743"><ele>37.0</ele><time>2026-05-03T07:54:12.594Z</time></trkpt><trkpt lat="45.9316802" lon="13.4360208"><ele>37.0</ele><time>2026-05-03T07:54:13.595Z</time></trkpt><trkpt lat="45.9315958" lon="13.436093"><ele>37.4</ele><time>2026-05-03T07:54:15.594Z</time></trkpt><trkpt lat="45.9315268" lon="13.4361178"><ele>37.800000000000004</ele><time>2026-05-03T07:54:18.595Z</time></trkpt><trkpt lat="45.9314808" lon="13.4360382"><ele>38.2</ele><time>2026-05-03T07:54:20.595Z</time></trkpt><trkpt lat="45.9314024" lon="13.4358762"><ele>38.6</ele><time>2026-05-03T07:54:22.594Z</time></trkpt><trkpt lat="45.9313539" lon="13.4357354"><ele>39.0</ele><time>2026-05-03T07:54:23.593Z</time></trkpt><trkpt lat="45.9312989" lon="13.4355762"><ele>38.75</ele><time>2026-05-03T07:54:24.593Z</time></trkpt><trkpt lat="45.9312433" lon="13.4354083"><ele>38.5</ele><time>2026-05-03T07:54:25.595Z</time></trkpt><trkpt lat="45.9311933" lon="13.4352633"><ele>38.25</ele><time>2026-05-03T07:54:26.594Z</time></trkpt><trkpt lat="45.9311417" lon="13.4351217"><ele>38.0</ele><time>2026-05-03T07:54:27.593Z</time></trkpt><trkpt lat="45.9310917" lon="13.4349833"><ele>38.0</ele><time>2026-05-03T07:54:28.594Z</time></trkpt><trkpt lat="45.9310383" lon="13.434845"><ele>38.0</ele><time>2026-05-03T07:54:29.594Z</time></trkpt><trkpt lat="45.9309883" lon="13.4346933"><ele>38.0</ele><time>2026-05-03T07:54:30.595Z</time></trkpt><trkpt lat="45.930935" lon="13.4345233"><ele>38.0</ele><time>2026-05-03T07:54:31.594Z</time></trkpt><trkpt lat="45.9308767" lon="13.4343467"><ele>37.75</ele><time>2026-05-03T07:54:32.594Z</time></trkpt><trkpt lat="45.930825" lon="13.4341667"><ele>37.5</ele><time>2026-05-03T07:54:33.593Z</time></trkpt><trkpt lat="45.9307683" lon="13.4339867"><ele>37.25</ele><time>2026-05-03T07:54:34.593Z</time></trkpt><trkpt lat="45.9307117" lon="13.43381"><ele>37.0</ele><time>2026-05-03T07:54:35.594Z</time></trkpt><trkpt lat="45.9306533" lon="13.433635"><ele>37.0</ele><time>2026-05-03T07:54:36.594Z</time></trkpt><trkpt lat="45.9306" lon="13.433455"><ele>37.0</ele><time>2026-05-03T07:54:37.594Z</time></trkpt><trkpt lat="45.9305367" lon="13.4332817"><ele>37.0</ele><time>2026-05-03T07:54:38.595Z</time></trkpt><trkpt lat="45.93047" lon="13.4331067"><ele>37.0</ele><time>2026-05-03T07:54:39.594Z</time></trkpt><trkpt lat="45.93041" lon="13.4329267"><ele>36.5</ele><time>2026-05-03T07:54:40.593Z</time></trkpt><trkpt lat="45.9303533" lon="13.4327383"><ele>36.0</ele><time>2026-05-03T07:54:41.594Z</time></trkpt><trkpt lat="45.930295" lon="13.4325583"><ele>35.5</ele><time>2026-05-03T07:54:42.594Z</time></trkpt><trkpt lat="45.9302367" lon="13.4323883"><ele>35.0</ele><time>2026-05-03T07:54:43.595Z</time></trkpt><trkpt lat="45.9301817" lon="13.4322083"><ele>35.0</ele><time>2026-05-03T07:54:44.594Z</time></trkpt><trkpt lat="45.9301217" lon="13.432035"><ele>35.0</ele><time>2026-05-03T07:54:45.594Z</time></trkpt><trkpt lat="45.930055" lon="13.4318467"><ele>35.0</ele><time>2026-05-03T07:54:46.595Z</time></trkpt><trkpt lat="45.9299933" lon="13.4316683"><ele>35.0</ele><time>2026-05-03T07:54:47.594Z</time></trkpt><trkpt lat="45.9299283" lon="13.43149"><ele>36.0</ele><time>2026-05-03T07:54:48.595Z</time></trkpt><trkpt lat="45.9298633" lon="13.4313117"><ele>37.0</ele><time>2026-05-03T07:54:49.594Z</time></trkpt><trkpt lat="45.9298017" lon="13.4311467"><ele>38.0</ele><time>2026-05-03T07:54:50.594Z</time></trkpt><trkpt lat="45.9297333" lon="13.4309767"><ele>39.0</ele><time>2026-05-03T07:54:51.593Z</time></trkpt><trkpt lat="45.9296583" lon="13.4308033"><ele>39.0</ele><time>2026-05-03T07:54:52.594Z</time></trkpt><trkpt lat="45.92958" lon="13.43064"><ele>39.0</ele><time>2026-05-03T07:54:53.594Z</time></trkpt><trkpt lat="45.9294967" lon="13.43048"><ele>39.0</ele><time>2026-05-03T07:54:54.595Z</time></trkpt><trkpt lat="45.9294117" lon="13.4303117"><ele>39.0</ele><time>2026-05-03T07:54:55.594Z</time></trkpt><trkpt lat="45.9293267" lon="13.4301417"><ele>39.0</ele><time>2026-05-03T07:54:56.596Z</time></trkpt><trkpt lat="45.9292433" lon="13.4299667"><ele>39.0</ele><time>2026-05-03T07:54:57.593Z</time></trkpt><trkpt lat="45.929155" lon="13.42979"><ele>39.0</ele><time>2026-05-03T07:54:58.594Z</time></trkpt><trkpt lat="45.929065" lon="13.4296117"><ele>38.333333333333336</ele><time>2026-05-03T07:54:59.595Z</time></trkpt><trkpt lat="45.9289736" lon="13.4294412"><ele>37.66666666666667</ele><time>2026-05-03T07:55:00.594Z</time></trkpt><trkpt lat="45.9288835" lon="13.4292684"><ele>37.0</ele><time>2026-05-03T07:55:01.594Z</time></trkpt><trkpt lat="45.9287926" lon="13.4290951"><ele>37.0</ele><time>2026-05-03T07:55:02.594Z</time></trkpt><trkpt lat="45.9286985" lon="13.428922"><ele>37.0</ele><time>2026-05-03T07:55:03.593Z</time></trkpt><trkpt lat="45.9286048" lon="13.4287515"><ele>37.0</ele><time>2026-05-03T07:55:04.594Z</time></trkpt><trkpt lat="45.9285151" lon="13.4285848"><ele>37.0</ele><time>2026-05-03T07:55:05.595Z</time></trkpt><trkpt lat="45.9284308" lon="13.4284192"><ele>37.0</ele><time>2026-05-03T07:55:06.594Z</time></trkpt><trkpt lat="45.9283477" lon="13.4282594"><ele>37.0</ele><time>2026-05-03T07:55:07.594Z</time></trkpt><trkpt lat="45.9282646" lon="13.4281"><ele>37.0</ele><time>2026-05-03T07:55:08.595Z</time></trkpt><trkpt lat="45.9281852" lon="13.4279434"><ele>37.25</ele><time>2026-05-03T07:55:09.594Z</time></trkpt><trkpt lat="45.9281121" lon="13.4277916"><ele>37.5</ele><time>2026-05-03T07:55:10.593Z</time></trkpt><trkpt lat="45.9280443" lon="13.4276389"><ele>37.75</ele><time>2026-05-03T07:55:11.594Z</time></trkpt><trkpt lat="45.9279785" lon="13.4274882"><ele>38.0</ele><time>2026-05-03T07:55:12.594Z</time></trkpt><trkpt lat="45.9279156" lon="13.4273297"><ele>38.0</ele><time>2026-05-03T07:55:13.593Z</time></trkpt><trkpt lat="45.9278538" lon="13.4271689"><ele>38.0</ele><time>2026-05-03T07:55:14.595Z</time></trkpt><trkpt lat="45.9277906" lon="13.427007"><ele>38.0</ele><time>2026-05-03T07:55:15.593Z</time></trkpt><trkpt lat="45.9277314" lon="13.4268392"><ele>38.0</ele><time>2026-05-03T07:55:16.595Z</time></trkpt><trkpt lat="45.9276675" lon="13.4266611"><ele>38.0</ele><time>2026-05-03T07:55:17.594Z</time></trkpt><trkpt lat="45.9275998" lon="13.4264792"><ele>38.0</ele><time>2026-05-03T07:55:18.594Z</time></trkpt><trkpt lat="45.9275356" lon="13.4262963"><ele>38.0</ele><time>2026-05-03T07:55:19.594Z</time></trkpt><trkpt lat="45.9274713" lon="13.4261182"><ele>38.0</ele><time>2026-05-03T07:55:20.594Z</time></trkpt><trkpt lat="45.9274092" lon="13.4259431"><ele>38.0</ele><time>2026-05-03T07:55:21.593Z</time></trkpt><trkpt lat="45.9273491" lon="13.4257777"><ele>38.0</ele><time>2026-05-03T07:55:22.594Z</time></trkpt><trkpt lat="45.9272898" lon="13.4256163"><ele>38.0</ele><time>2026-05-03T07:55:23.594Z</time></trkpt><trkpt lat="45.9272299" lon="13.4254562"><ele>38.0</ele><time>2026-05-03T07:55:24.594Z</time></trkpt><trkpt lat="45.9271695" lon="13.4253032"><ele>37.8</ele><time>2026-05-03T07:55:25.593Z</time></trkpt><trkpt lat="45.9271113" lon="13.4251549"><ele>37.599999999999994</ele><time>2026-05-03T07:55:26.595Z</time></trkpt><trkpt lat="45.9270508" lon="13.4250136"><ele>37.400000000000006</ele><time>2026-05-03T07:55:27.594Z</time></trkpt><trkpt lat="45.9269847" lon="13.4248914"><ele>37.2</ele><time>2026-05-03T07:55:28.594Z</time></trkpt><trkpt lat="45.9269059" lon="13.4247966"><ele>37.0</ele><time>2026-05-03T07:55:29.596Z</time></trkpt><trkpt lat="45.9268253" lon="13.4247221"><ele>37.0</ele><time>2026-05-03T07:55:30.594Z</time></trkpt><trkpt lat="45.9267354" lon="13.4246588"><ele>37.0</ele><time>2026-05-03T07:55:31.594Z</time></trkpt><trkpt lat="45.9266357" lon="13.4246081"><ele>37.0</ele><time>2026-05-03T07:55:32.595Z</time></trkpt><trkpt lat="45.9265354" lon="13.4245618"><ele>37.0</ele><time>2026-05-03T07:55:33.594Z</time></trkpt><trkpt lat="45.9264467" lon="13.424522"><ele>37.0</ele><time>2026-05-03T07:55:34.595Z</time></trkpt><trkpt lat="45.926359" lon="13.4244633"><ele>36.800000000000004</ele><time>2026-05-03T07:55:35.595Z</time></trkpt><trkpt lat="45.9262756" lon="13.4243962"><ele>36.6</ele><time>2026-05-03T07:55:36.593Z</time></trkpt><trkpt lat="45.9261994" lon="13.4243284"><ele>36.400000000000006</ele><time>2026-05-03T07:55:37.595Z</time></trkpt><trkpt lat="45.9261258" lon="13.4242482"><ele>36.2</ele><time>2026-05-03T07:55:38.596Z</time></trkpt><trkpt lat="45.9260562" lon="13.4241672"><ele>36.0</ele><time>2026-05-03T07:55:39.594Z</time></trkpt><trkpt lat="45.9259906" lon="13.4240892"><ele>36.0</ele><time>2026-05-03T07:55:40.593Z</time></trkpt><trkpt lat="45.9259297" lon="13.4240119"><ele>36.0</ele><time>2026-05-03T07:55:41.595Z</time></trkpt><trkpt lat="45.9258658" lon="13.4239302"><ele>36.0</ele><time>2026-05-03T07:55:42.593Z</time></trkpt><trkpt lat="45.9258065" lon="13.4238467"><ele>36.0</ele><time>2026-05-03T07:55:43.594Z</time></trkpt><trkpt lat="45.9257523" lon="13.4237675"><ele>36.0</ele><time>2026-05-03T07:55:44.595Z</time></trkpt><trkpt lat="45.9257033" lon="13.4236883"><ele>36.0</ele><time>2026-05-03T07:55:45.594Z</time></trkpt><trkpt lat="45.9256611" lon="13.4236075"><ele>36.5</ele><time>2026-05-03T07:55:46.594Z</time></trkpt><trkpt lat="45.9256216" lon="13.423525"><ele>37.0</ele><time>2026-05-03T07:55:47.594Z</time></trkpt><trkpt lat="45.9255822" lon="13.4234412"><ele>37.5</ele><time>2026-05-03T07:55:48.594Z</time></trkpt><trkpt lat="45.9255429" lon="13.4233586"><ele>38.0</ele><time>2026-05-03T07:55:49.594Z</time></trkpt><trkpt lat="45.9255056" lon="13.4232636"><ele>38.5</ele><time>2026-05-03T07:55:50.596Z</time></trkpt><trkpt lat="45.9254721" lon="13.4231546"><ele>39.0</ele><time>2026-05-03T07:55:51.593Z</time></trkpt><trkpt lat="45.9254376" lon="13.4230374"><ele>38.2</ele><time>2026-05-03T07:55:52.595Z</time></trkpt><trkpt lat="45.9253988" lon="13.4229166"><ele>37.4</ele><time>2026-05-03T07:55:53.595Z</time></trkpt><trkpt lat="45.9253575" lon="13.4227919"><ele>36.6</ele><time>2026-05-03T07:55:54.594Z</time></trkpt><trkpt lat="45.9253097" lon="13.4226627"><ele>35.8</ele><time>2026-05-03T07:55:55.594Z</time></trkpt><trkpt lat="45.9252627" lon="13.4225331"><ele>35.0</ele><time>2026-05-03T07:55:56.595Z</time></trkpt><trkpt lat="45.9252155" lon="13.4224031"><ele>35.0</ele><time>2026-05-03T07:55:57.595Z</time></trkpt><trkpt lat="45.9251684" lon="13.422273"><ele>35.0</ele><time>2026-05-03T07:55:58.594Z</time></trkpt><trkpt lat="45.925123" lon="13.4221397"><ele>35.0</ele><time>2026-05-03T07:55:59.596Z</time></trkpt><trkpt lat="45.9250741" lon="13.4220135"><ele>35.0</ele><time>2026-05-03T07:56:00.594Z</time></trkpt><trkpt lat="45.9250257" lon="13.4218953"><ele>35.0</ele><time>2026-05-03T07:56:01.595Z</time></trkpt><trkpt lat="45.924978" lon="13.4217807"><ele>34.8</ele><time>2026-05-03T07:56:02.596Z</time></trkpt><trkpt lat="45.9249299" lon="13.4216654"><ele>34.6</ele><time>2026-05-03T07:56:03.595Z</time></trkpt><trkpt lat="45.9248823" lon="13.4215405"><ele>34.4</ele><time>2026-05-03T07:56:04.594Z</time></trkpt><trkpt lat="45.924831" lon="13.4214054"><ele>34.2</ele><time>2026-05-03T07:56:05.595Z</time></trkpt><trkpt lat="45.9247771" lon="13.4212557"><ele>34.0</ele><time>2026-05-03T07:56:06.594Z</time></trkpt><trkpt lat="45.9247146" lon="13.4210931"><ele>34.0</ele><time>2026-05-03T07:56:07.595Z</time></trkpt><trkpt lat="45.9246478" lon="13.4209237"><ele>34.0</ele><time>2026-05-03T07:56:08.596Z</time></trkpt><trkpt lat="45.924578" lon="13.4207491"><ele>34.0</ele><time>2026-05-03T07:56:09.595Z</time></trkpt><trkpt lat="45.9245084" lon="13.4205675"><ele>34.0</ele><time>2026-05-03T07:56:10.593Z</time></trkpt><trkpt lat="45.9244344" lon="13.4203857"><ele>33.75</ele><time>2026-05-03T07:56:11.595Z</time></trkpt><trkpt lat="45.9243582" lon="13.4202086"><ele>33.5</ele><time>2026-05-03T07:56:12.595Z</time></trkpt><trkpt lat="45.9242891" lon="13.4200395"><ele>33.25</ele><time>2026-05-03T07:56:13.594Z</time></trkpt><trkpt lat="45.924224" lon="13.4198742"><ele>33.0</ele><time>2026-05-03T07:56:14.596Z</time></trkpt><trkpt lat="45.9241572" lon="13.4197106"><ele>33.5</ele><time>2026-05-03T07:56:15.596Z</time></trkpt><trkpt lat="45.9240881" lon="13.4195449"><ele>34.0</ele><time>2026-05-03T07:56:16.596Z</time></trkpt><trkpt lat="45.9240228" lon="13.419377"><ele>34.5</ele><time>2026-05-03T07:56:17.596Z</time></trkpt><trkpt lat="45.9239626" lon="13.419212"><ele>35.0</ele><time>2026-05-03T07:56:18.597Z</time></trkpt><trkpt lat="45.9239018" lon="13.4190531"><ele>35.0</ele><time>2026-05-03T07:56:19.596Z</time></trkpt><trkpt lat="45.9238367" lon="13.4189054"><ele>35.0</ele><time>2026-05-03T07:56:20.596Z</time></trkpt><trkpt lat="45.9237723" lon="13.4187647"><ele>35.0</ele><time>2026-05-03T07:56:21.595Z</time></trkpt><trkpt lat="45.9237032" lon="13.4186299"><ele>35.0</ele><time>2026-05-03T07:56:22.595Z</time></trkpt><trkpt lat="45.9236235" lon="13.4184867"><ele>34.25</ele><time>2026-05-03T07:56:23.595Z</time></trkpt><trkpt lat="45.9235359" lon="13.4183438"><ele>33.5</ele><time>2026-05-03T07:56:24.595Z</time></trkpt><trkpt lat="45.9234477" lon="13.418199"><ele>32.75</ele><time>2026-05-03T07:56:25.595Z</time></trkpt><trkpt lat="45.9233623" lon="13.4180511"><ele>32.0</ele><time>2026-05-03T07:56:26.597Z</time></trkpt><trkpt lat="45.9232802" lon="13.4178992"><ele>32.0</ele><time>2026-05-03T07:56:27.595Z</time></trkpt><trkpt lat="45.9231969" lon="13.4177389"><ele>32.0</ele><time>2026-05-03T07:56:28.596Z</time></trkpt><trkpt lat="45.9231113" lon="13.417578"><ele>32.0</ele><time>2026-05-03T07:56:29.596Z</time></trkpt><trkpt lat="45.9230269" lon="13.4174163"><ele>32.0</ele><time>2026-05-03T07:56:30.596Z</time></trkpt><trkpt lat="45.9229436" lon="13.4172531"><ele>31.75</ele><time>2026-05-03T07:56:31.595Z</time></trkpt><trkpt lat="45.9228642" lon="13.4170857"><ele>31.5</ele><time>2026-05-03T07:56:32.595Z</time></trkpt><trkpt lat="45.9227836" lon="13.4169195"><ele>31.25</ele><time>2026-05-03T07:56:33.595Z</time></trkpt><trkpt lat="45.9227007" lon="13.416756"><ele>31.0</ele><time>2026-05-03T07:56:34.597Z</time></trkpt><trkpt lat="45.922621" lon="13.4165815"><ele>31.75</ele><time>2026-05-03T07:56:35.596Z</time></trkpt><trkpt lat="45.9225436" lon="13.4164084"><ele>32.5</ele><time>2026-05-03T07:56:36.596Z</time></trkpt><trkpt lat="45.9224646" lon="13.4162373"><ele>33.25</ele><time>2026-05-03T07:56:37.596Z</time></trkpt><trkpt lat="45.9223874" lon="13.4160641"><ele>34.0</ele><time>2026-05-03T07:56:38.596Z</time></trkpt><trkpt lat="45.9223173" lon="13.4158907"><ele>34.0</ele><time>2026-05-03T07:56:39.595Z</time></trkpt><trkpt lat="45.9222447" lon="13.4157187"><ele>34.0</ele><time>2026-05-03T07:56:40.595Z</time></trkpt><trkpt lat="45.92217" lon="13.4155487"><ele>34.0</ele><time>2026-05-03T07:56:41.595Z</time></trkpt><trkpt lat="45.9220964" lon="13.4153821"><ele>34.0</ele><time>2026-05-03T07:56:42.595Z</time></trkpt><trkpt lat="45.9220253" lon="13.4152162"><ele>33.25</ele><time>2026-05-03T07:56:43.595Z</time></trkpt><trkpt lat="45.9219479" lon="13.415052"><ele>32.5</ele><time>2026-05-03T07:56:44.595Z</time></trkpt><trkpt lat="45.9218649" lon="13.4148927"><ele>31.75</ele><time>2026-05-03T07:56:45.595Z</time></trkpt><trkpt lat="45.9217815" lon="13.4147483"><ele>31.0</ele><time>2026-05-03T07:56:46.597Z</time></trkpt><trkpt lat="45.9217015" lon="13.4146243"><ele>31.0</ele><time>2026-05-03T07:56:47.596Z</time></trkpt><trkpt lat="45.9216202" lon="13.4145227"><ele>31.0</ele><time>2026-05-03T07:56:48.595Z</time></trkpt><trkpt lat="45.921543" lon="13.4144351"><ele>31.0</ele><time>2026-05-03T07:56:49.595Z</time></trkpt><trkpt lat="45.9214702" lon="13.4143513"><ele>31.0</ele><time>2026-05-03T07:56:50.596Z</time></trkpt><trkpt lat="45.9213927" lon="13.4142594"><ele>31.0</ele><time>2026-05-03T07:56:51.596Z</time></trkpt><trkpt lat="45.9213129" lon="13.4141598"><ele>31.0</ele><time>2026-05-03T07:56:52.595Z</time></trkpt><trkpt lat="45.9212288" lon="13.4140592"><ele>31.0</ele><time>2026-05-03T07:56:53.595Z</time></trkpt><trkpt lat="45.9211398" lon="13.4139595"><ele>31.0</ele><time>2026-05-03T07:56:54.596Z</time></trkpt><trkpt lat="45.9210441" lon="13.4138663"><ele>31.0</ele><time>2026-05-03T07:56:55.595Z</time></trkpt><trkpt lat="45.9209445" lon="13.4137906"><ele>31.200000000000003</ele><time>2026-05-03T07:56:56.597Z</time></trkpt><trkpt lat="45.9208459" lon="13.4137339"><ele>31.400000000000002</ele><time>2026-05-03T07:56:57.596Z</time></trkpt><trkpt lat="45.9207511" lon="13.4136883"><ele>31.6</ele><time>2026-05-03T07:56:58.596Z</time></trkpt><trkpt lat="45.9206583" lon="13.413645"><ele>31.8</ele><time>2026-05-03T07:56:59.596Z</time></trkpt><trkpt lat="45.9205659" lon="13.4136026"><ele>32.0</ele><time>2026-05-03T07:57:00.596Z</time></trkpt><trkpt lat="45.9204716" lon="13.413561"><ele>32.0</ele><time>2026-05-03T07:57:01.596Z</time></trkpt><trkpt lat="45.9203758" lon="13.4135309"><ele>32.0</ele><time>2026-05-03T07:57:02.596Z</time></trkpt><trkpt lat="45.9202788" lon="13.4135209"><ele>32.0</ele><time>2026-05-03T07:57:03.596Z</time></trkpt><trkpt lat="45.9201815" lon="13.4135272"><ele>32.0</ele><time>2026-05-03T07:57:04.596Z</time></trkpt><trkpt lat="45.9200856" lon="13.4135519"><ele>32.0</ele><time>2026-05-03T07:57:05.597Z</time></trkpt><trkpt lat="45.9199885" lon="13.4135975"><ele>32.0</ele><time>2026-05-03T07:57:06.595Z</time></trkpt><trkpt lat="45.9198799" lon="13.4136553"><ele>32.0</ele><time>2026-05-03T07:57:07.596Z</time></trkpt><trkpt lat="45.9197669" lon="13.4137199"><ele>32.0</ele><time>2026-05-03T07:57:08.596Z</time></trkpt><trkpt lat="45.9196524" lon="13.4137845"><ele>32.0</ele><time>2026-05-03T07:57:09.595Z</time></trkpt><trkpt lat="45.9195411" lon="13.4138524"><ele>32.25</ele><time>2026-05-03T07:57:10.595Z</time></trkpt><trkpt lat="45.9194276" lon="13.4139295"><ele>32.5</ele><time>2026-05-03T07:57:11.595Z</time></trkpt><trkpt lat="45.9193142" lon="13.4140058"><ele>32.75</ele><time>2026-05-03T07:57:12.595Z</time></trkpt><trkpt lat="45.9191934" lon="13.4140786"><ele>33.0</ele><time>2026-05-03T07:57:13.595Z</time></trkpt><trkpt lat="45.9190711" lon="13.4141576"><ele>33.0</ele><time>2026-05-03T07:57:14.596Z</time></trkpt><trkpt lat="45.9189559" lon="13.4142573"><ele>33.0</ele><time>2026-05-03T07:57:15.595Z</time></trkpt><trkpt lat="45.9188419" lon="13.4143642"><ele>33.0</ele><time>2026-05-03T07:57:16.595Z</time></trkpt><trkpt lat="45.9187292" lon="13.4144765"><ele>33.0</ele><time>2026-05-03T07:57:17.596Z</time></trkpt><trkpt lat="45.9186206" lon="13.4145824"><ele>32.75</ele><time>2026-05-03T07:57:18.596Z</time></trkpt><trkpt lat="45.9185396" lon="13.4147266"><ele>32.5</ele><time>2026-05-03T07:57:19.596Z</time></trkpt><trkpt lat="45.9184649" lon="13.4148703"><ele>32.25</ele><time>2026-05-03T07:57:20.597Z</time></trkpt><trkpt lat="45.9184045" lon="13.4150056"><ele>32.0</ele><time>2026-05-03T07:57:21.596Z</time></trkpt><trkpt lat="45.918356" lon="13.4151263"><ele>31.999999999999996</ele><time>2026-05-03T07:57:22.596Z</time></trkpt><trkpt lat="45.918308" lon="13.4152253"><ele>32.0</ele><time>2026-05-03T07:57:23.596Z</time></trkpt><trkpt lat="45.918262" lon="13.4152953"><ele>32.0</ele><time>2026-05-03T07:57:24.596Z</time></trkpt><trkpt lat="45.9182045" lon="13.4153896"><ele>32.0</ele><time>2026-05-03T07:57:26.598Z</time></trkpt><trkpt lat="45.9181525" lon="13.4154794"><ele>31.999999999999996</ele><time>2026-05-03T07:57:30.595Z</time></trkpt><trkpt lat="45.9181319" lon="13.4156365"><ele>32.0</ele><time>2026-05-03T07:57:32.598Z</time></trkpt><trkpt lat="45.918137" lon="13.4158041"><ele>32.25</ele><time>2026-05-03T07:57:33.595Z</time></trkpt><trkpt lat="45.9181475" lon="13.4159894"><ele>32.5</ele><time>2026-05-03T07:57:34.596Z</time></trkpt><trkpt lat="45.9181534" lon="13.416184"><ele>32.75</ele><time>2026-05-03T07:57:35.596Z</time></trkpt><trkpt lat="45.9181592" lon="13.4163898"><ele>33.0</ele><time>2026-05-03T07:57:36.595Z</time></trkpt><trkpt lat="45.9181687" lon="13.4165915"><ele>33.5</ele><time>2026-05-03T07:57:37.596Z</time></trkpt><trkpt lat="45.9181925" lon="13.4167877"><ele>34.0</ele><time>2026-05-03T07:57:38.597Z</time></trkpt><trkpt lat="45.9182277" lon="13.4169854"><ele>34.5</ele><time>2026-05-03T07:57:39.594Z</time></trkpt><trkpt lat="45.9182779" lon="13.4171832"><ele>35.0</ele><time>2026-05-03T07:57:40.595Z</time></trkpt><trkpt lat="45.9183337" lon="13.4173847"><ele>35.0</ele><time>2026-05-03T07:57:41.595Z</time></trkpt><trkpt lat="45.9183847" lon="13.417591"><ele>35.0</ele><time>2026-05-03T07:57:42.595Z</time></trkpt><trkpt lat="45.9184181" lon="13.4178063"><ele>35.0</ele><time>2026-05-03T07:57:43.594Z</time></trkpt><trkpt lat="45.9184304" lon="13.418029"><ele>34.33333333333333</ele><time>2026-05-03T07:57:44.595Z</time></trkpt><trkpt lat="45.9184289" lon="13.4182532"><ele>33.666666666666664</ele><time>2026-05-03T07:57:45.594Z</time></trkpt><trkpt lat="45.9184109" lon="13.4184787"><ele>33.0</ele><time>2026-05-03T07:57:46.594Z</time></trkpt><trkpt lat="45.9183907" lon="13.4187034"><ele>33.25</ele><time>2026-05-03T07:57:47.596Z</time></trkpt><trkpt lat="45.9183752" lon="13.4189262"><ele>33.5</ele><time>2026-05-03T07:57:48.595Z</time></trkpt><trkpt lat="45.9183583" lon="13.4191417"><ele>33.75</ele><time>2026-05-03T07:57:49.594Z</time></trkpt><trkpt lat="45.9183433" lon="13.4193383"><ele>34.0</ele><time>2026-05-03T07:57:50.594Z</time></trkpt><trkpt lat="45.9183283" lon="13.419525"><ele>33.25</ele><time>2026-05-03T07:57:51.595Z</time></trkpt><trkpt lat="45.918315" lon="13.4197067"><ele>32.5</ele><time>2026-05-03T07:57:52.594Z</time></trkpt><trkpt lat="45.9182967" lon="13.41989"><ele>31.75</ele><time>2026-05-03T07:57:53.595Z</time></trkpt><trkpt lat="45.9182767" lon="13.4200767"><ele>31.0</ele><time>2026-05-03T07:57:54.594Z</time></trkpt><trkpt lat="45.9182633" lon="13.4202617"><ele>31.0</ele><time>2026-05-03T07:57:55.594Z</time></trkpt><trkpt lat="45.9182567" lon="13.4204267"><ele>31.0</ele><time>2026-05-03T07:57:56.595Z</time></trkpt><trkpt lat="45.918245" lon="13.4205683"><ele>31.0</ele><time>2026-05-03T07:57:57.596Z</time></trkpt><trkpt lat="45.9182217" lon="13.420685"><ele>31.0</ele><time>2026-05-03T07:57:58.594Z</time></trkpt><trkpt lat="45.91816" lon="13.4207733"><ele>31.0</ele><time>2026-05-03T07:57:59.596Z</time></trkpt><trkpt lat="45.91808" lon="13.4208533"><ele>31.25</ele><time>2026-05-03T07:58:00.595Z</time></trkpt><trkpt lat="45.91798" lon="13.42091"><ele>31.5</ele><time>2026-05-03T07:58:01.594Z</time></trkpt><trkpt lat="45.9178567" lon="13.4209483"><ele>31.75</ele><time>2026-05-03T07:58:02.595Z</time></trkpt><trkpt lat="45.9177567" lon="13.42106"><ele>32.0</ele><time>2026-05-03T07:58:03.595Z</time></trkpt><trkpt lat="45.917645" lon="13.4211383"><ele>31.5</ele><time>2026-05-03T07:58:04.594Z</time></trkpt><trkpt lat="45.9175433" lon="13.421225"><ele>31.0</ele><time>2026-05-03T07:58:05.597Z</time></trkpt><trkpt lat="45.91744" lon="13.4213633"><ele>30.5</ele><time>2026-05-03T07:58:06.594Z</time></trkpt><trkpt lat="45.9173433" lon="13.42148"><ele>30.0</ele><time>2026-05-03T07:58:07.594Z</time></trkpt><trkpt lat="45.91725" lon="13.4215733"><ele>30.0</ele><time>2026-05-03T07:58:08.596Z</time></trkpt><trkpt lat="45.9171583" lon="13.421655"><ele>30.0</ele><time>2026-05-03T07:58:09.593Z</time></trkpt><trkpt lat="45.917065" lon="13.4217217"><ele>30.0</ele><time>2026-05-03T07:58:10.594Z</time></trkpt><trkpt lat="45.916965" lon="13.42179"><ele>30.0</ele><time>2026-05-03T07:58:11.594Z</time></trkpt><trkpt lat="45.9168667" lon="13.4218717"><ele>30.0</ele><time>2026-05-03T07:58:12.595Z</time></trkpt><trkpt lat="45.9167717" lon="13.42196"><ele>30.0</ele><time>2026-05-03T07:58:13.595Z</time></trkpt><trkpt lat="45.9166817" lon="13.4220433"><ele>30.0</ele><time>2026-05-03T07:58:14.595Z</time></trkpt><trkpt lat="45.9165967" lon="13.4221167"><ele>30.0</ele><time>2026-05-03T07:58:15.594Z</time></trkpt><trkpt lat="45.91651" lon="13.422195"><ele>30.0</ele><time>2026-05-03T07:58:16.594Z</time></trkpt><trkpt lat="45.9164267" lon="13.4222617"><ele>30.0</ele><time>2026-05-03T07:58:17.594Z</time></trkpt><trkpt lat="45.9163617" lon="13.422325"><ele>30.0</ele><time>2026-05-03T07:58:18.594Z</time></trkpt><trkpt lat="45.9163133" lon="13.422395"><ele>30.0</ele><time>2026-05-03T07:58:19.594Z</time></trkpt><trkpt lat="45.9162767" lon="13.4225583"><ele>30.0</ele><time>2026-05-03T07:58:21.594Z</time></trkpt><trkpt lat="45.9162967" lon="13.4226583"><ele>30.0</ele><time>2026-05-03T07:58:22.595Z</time></trkpt><trkpt lat="45.916335" lon="13.4228017"><ele>30.0</ele><time>2026-05-03T07:58:23.594Z</time></trkpt><trkpt lat="45.9163867" lon="13.422985"><ele>30.0</ele><time>2026-05-03T07:58:24.594Z</time></trkpt><trkpt lat="45.9164433" lon="13.4231783"><ele>30.0</ele><time>2026-05-03T07:58:25.594Z</time></trkpt><trkpt lat="45.916485" lon="13.4233767"><ele>30.0</ele><time>2026-05-03T07:58:26.595Z</time></trkpt><trkpt lat="45.9165283" lon="13.423575"><ele>30.0</ele><time>2026-05-03T07:58:27.595Z</time></trkpt><trkpt lat="45.9165667" lon="13.42377"><ele>29.75</ele><time>2026-05-03T07:58:28.595Z</time></trkpt><trkpt lat="45.9166033" lon="13.423955"><ele>29.5</ele><time>2026-05-03T07:58:29.595Z</time></trkpt><trkpt lat="45.9166483" lon="13.4241183"><ele>29.25</ele><time>2026-05-03T07:58:30.595Z</time></trkpt><trkpt lat="45.9166833" lon="13.4242717"><ele>29.0</ele><time>2026-05-03T07:58:31.594Z</time></trkpt><trkpt lat="45.91672" lon="13.4244067"><ele>28.799999999999997</ele><time>2026-05-03T07:58:32.594Z</time></trkpt><trkpt lat="45.9167517" lon="13.4245267"><ele>28.599999999999998</ele><time>2026-05-03T07:58:33.595Z</time></trkpt><trkpt lat="45.9167867" lon="13.4246317"><ele>28.4</ele><time>2026-05-03T07:58:34.594Z</time></trkpt><trkpt lat="45.9168183" lon="13.4247217"><ele>28.2</ele><time>2026-05-03T07:58:35.594Z</time></trkpt><trkpt lat="45.9167733" lon="13.4248833"><ele>28.0</ele><time>2026-05-03T07:58:37.595Z</time></trkpt><trkpt lat="45.9166567" lon="13.4249667"><ele>28.0</ele><time>2026-05-03T07:58:39.596Z</time></trkpt><trkpt lat="45.916555" lon="13.4249517"><ele>27.999999999999996</ele><time>2026-05-03T07:58:40.595Z</time></trkpt><trkpt lat="45.916455" lon="13.4249617"><ele>27.999999999999996</ele><time>2026-05-03T07:58:41.595Z</time></trkpt><trkpt lat="45.9163533" lon="13.4250267"><ele>28.0</ele><time>2026-05-03T07:58:42.594Z</time></trkpt><trkpt lat="45.9162383" lon="13.4250983"><ele>28.0</ele><time>2026-05-03T07:58:43.594Z</time></trkpt><trkpt lat="45.91613" lon="13.42522"><ele>28.0</ele><time>2026-05-03T07:58:44.595Z</time></trkpt><trkpt lat="45.9160383" lon="13.4253717"><ele>28.0</ele><time>2026-05-03T07:58:45.594Z</time></trkpt><trkpt lat="45.915945" lon="13.4255083"><ele>28.0</ele><time>2026-05-03T07:58:46.595Z</time></trkpt><trkpt lat="45.915855" lon="13.4256333"><ele>28.0</ele><time>2026-05-03T07:58:47.594Z</time></trkpt><trkpt lat="45.915765" lon="13.425755"><ele>27.5</ele><time>2026-05-03T07:58:48.594Z</time></trkpt><trkpt lat="45.9156733" lon="13.425885"><ele>27.0</ele><time>2026-05-03T07:58:49.594Z</time></trkpt><trkpt lat="45.9155817" lon="13.4260317"><ele>26.5</ele><time>2026-05-03T07:58:50.596Z</time></trkpt><trkpt lat="45.91549" lon="13.426195"><ele>26.0</ele><time>2026-05-03T07:58:51.594Z</time></trkpt><trkpt lat="45.9153967" lon="13.4263767"><ele>26.0</ele><time>2026-05-03T07:58:52.594Z</time></trkpt><trkpt lat="45.91532" lon="13.42658"><ele>26.0</ele><time>2026-05-03T07:58:53.595Z</time></trkpt><trkpt lat="45.9152417" lon="13.4267783"><ele>26.0</ele><time>2026-05-03T07:58:54.595Z</time></trkpt><trkpt lat="45.9151633" lon="13.426975"><ele>26.0</ele><time>2026-05-03T07:58:55.595Z</time></trkpt><trkpt lat="45.915085" lon="13.42716"><ele>26.0</ele><time>2026-05-03T07:58:56.594Z</time></trkpt><trkpt lat="45.9150067" lon="13.4273433"><ele>26.0</ele><time>2026-05-03T07:58:57.595Z</time></trkpt><trkpt lat="45.9149317" lon="13.4275283"><ele>26.0</ele><time>2026-05-03T07:58:58.595Z</time></trkpt><trkpt lat="45.9148533" lon="13.4277117"><ele>26.0</ele><time>2026-05-03T07:58:59.595Z</time></trkpt><trkpt lat="45.914775" lon="13.427895"><ele>26.0</ele><time>2026-05-03T07:59:00.594Z</time></trkpt><trkpt lat="45.9146867" lon="13.428075"><ele>26.0</ele><time>2026-05-03T07:59:01.593Z</time></trkpt><trkpt lat="45.9145967" lon="13.4282417"><ele>26.0</ele><time>2026-05-03T07:59:02.595Z</time></trkpt><trkpt lat="45.9144917" lon="13.4283967"><ele>26.0</ele><time>2026-05-03T07:59:03.595Z</time></trkpt><trkpt lat="45.9143733" lon="13.4285467"><ele>26.0</ele><time>2026-05-03T07:59:04.594Z</time></trkpt><trkpt lat="45.9142433" lon="13.42869"><ele>26.0</ele><time>2026-05-03T07:59:05.594Z</time></trkpt><trkpt lat="45.91411" lon="13.4288333"><ele>26.0</ele><time>2026-05-03T07:59:06.594Z</time></trkpt><trkpt lat="45.9139767" lon="13.4289817"><ele>26.0</ele><time>2026-05-03T07:59:07.594Z</time></trkpt><trkpt lat="45.91384" lon="13.42913"><ele>26.0</ele><time>2026-05-03T07:59:08.595Z</time></trkpt><trkpt lat="45.91372" lon="13.4293133"><ele>26.0</ele><time>2026-05-03T07:59:09.595Z</time></trkpt><trkpt lat="45.9136017" lon="13.429515"><ele>26.0</ele><time>2026-05-03T07:59:10.594Z</time></trkpt><trkpt lat="45.9134833" lon="13.429725"><ele>25.666666666666664</ele><time>2026-05-03T07:59:11.595Z</time></trkpt><trkpt lat="45.913375" lon="13.4299483"><ele>25.333333333333336</ele><time>2026-05-03T07:59:12.594Z</time></trkpt><trkpt lat="45.91327" lon="13.4301833"><ele>25.0</ele><time>2026-05-03T07:59:13.596Z</time></trkpt><trkpt lat="45.913175" lon="13.43043"><ele>24.666666666666668</ele><time>2026-05-03T07:59:14.594Z</time></trkpt><trkpt lat="45.9130717" lon="13.430665"><ele>24.333333333333336</ele><time>2026-05-03T07:59:15.594Z</time></trkpt><trkpt lat="45.912955" lon="13.4308833"><ele>24.0</ele><time>2026-05-03T07:59:16.595Z</time></trkpt><trkpt lat="45.9128233" lon="13.43109"><ele>24.0</ele><time>2026-05-03T07:59:17.595Z</time></trkpt><trkpt lat="45.912675" lon="13.4312733"><ele>24.0</ele><time>2026-05-03T07:59:18.595Z</time></trkpt><trkpt lat="45.9125183" lon="13.43144"><ele>24.0</ele><time>2026-05-03T07:59:19.594Z</time></trkpt><trkpt lat="45.9123567" lon="13.4315967"><ele>23.333333333333332</ele><time>2026-05-03T07:59:20.595Z</time></trkpt><trkpt lat="45.9121983" lon="13.4317617"><ele>22.666666666666664</ele><time>2026-05-03T07:59:21.595Z</time></trkpt><trkpt lat="45.91203" lon="13.431925"><ele>22.0</ele><time>2026-05-03T07:59:22.594Z</time></trkpt><trkpt lat="45.911865" lon="13.4320983"><ele>22.666666666666664</ele><time>2026-05-03T07:59:23.594Z</time></trkpt><trkpt lat="45.9117117" lon="13.4322917"><ele>23.333333333333332</ele><time>2026-05-03T07:59:24.594Z</time></trkpt><trkpt lat="45.9115583" lon="13.4324917"><ele>24.0</ele><time>2026-05-03T07:59:25.595Z</time></trkpt><trkpt lat="45.9114133" lon="13.4327033"><ele>24.0</ele><time>2026-05-03T07:59:26.595Z</time></trkpt><trkpt lat="45.9112667" lon="13.432915"><ele>24.0</ele><time>2026-05-03T07:59:27.595Z</time></trkpt><trkpt lat="45.9111333" lon="13.4331283"><ele>24.0</ele><time>2026-05-03T07:59:28.595Z</time></trkpt><trkpt lat="45.9109967" lon="13.43333"><ele>24.0</ele><time>2026-05-03T07:59:29.595Z</time></trkpt><trkpt lat="45.91086" lon="13.43353"><ele>24.0</ele><time>2026-05-03T07:59:30.594Z</time></trkpt><trkpt lat="45.9107317" lon="13.4337333"><ele>24.0</ele><time>2026-05-03T07:59:31.597Z</time></trkpt><trkpt lat="45.9106083" lon="13.4339267"><ele>23.666666666666668</ele><time>2026-05-03T07:59:32.594Z</time></trkpt><trkpt lat="45.9105167" lon="13.4341217"><ele>23.333333333333336</ele><time>2026-05-03T07:59:33.594Z</time></trkpt><trkpt lat="45.9104233" lon="13.4342983"><ele>23.0</ele><time>2026-05-03T07:59:34.595Z</time></trkpt><trkpt lat="45.91034" lon="13.43446"><ele>23.0</ele><time>2026-05-03T07:59:35.594Z</time></trkpt><trkpt lat="45.910265" lon="13.434615"><ele>23.0</ele><time>2026-05-03T07:59:36.594Z</time></trkpt><trkpt lat="45.9101933" lon="13.4347667"><ele>23.0</ele><time>2026-05-03T07:59:37.594Z</time></trkpt><trkpt lat="45.9101383" lon="13.43489"><ele>23.0</ele><time>2026-05-03T07:59:38.594Z</time></trkpt><trkpt lat="45.9100917" lon="13.4349983"><ele>23.0</ele><time>2026-05-03T07:59:39.594Z</time></trkpt><trkpt lat="45.9100433" lon="13.4350983"><ele>23.166666666666668</ele><time>2026-05-03T07:59:40.593Z</time></trkpt><trkpt lat="45.9100117" lon="13.4351983"><ele>23.333333333333336</ele><time>2026-05-03T07:59:41.594Z</time></trkpt><trkpt lat="45.9099983" lon="13.4353017"><ele>23.5</ele><time>2026-05-03T07:59:42.594Z</time></trkpt><trkpt lat="45.909995" lon="13.4354167"><ele>23.666666666666668</ele><time>2026-05-03T07:59:43.594Z</time></trkpt><trkpt lat="45.9099633" lon="13.4355267"><ele>23.833333333333332</ele><time>2026-05-03T07:59:44.596Z</time></trkpt><trkpt lat="45.9099217" lon="13.4356433"><ele>24.0</ele><time>2026-05-03T07:59:45.594Z</time></trkpt><trkpt lat="45.9098667" lon="13.4357733"><ele>24.0</ele><time>2026-05-03T07:59:46.594Z</time></trkpt><trkpt lat="45.9098167" lon="13.4358983"><ele>24.0</ele><time>2026-05-03T07:59:47.594Z</time></trkpt><trkpt lat="45.9097733" lon="13.43601"><ele>24.0</ele><time>2026-05-03T07:59:48.595Z</time></trkpt><trkpt lat="45.9097483" lon="13.4361167"><ele>24.0</ele><time>2026-05-03T07:59:49.594Z</time></trkpt><trkpt lat="45.90974" lon="13.4362317"><ele>24.0</ele><time>2026-05-03T07:59:50.594Z</time></trkpt><trkpt lat="45.9097633" lon="13.4363417"><ele>24.0</ele><time>2026-05-03T07:59:51.595Z</time></trkpt><trkpt lat="45.9098167" lon="13.4364583"><ele>23.75</ele><time>2026-05-03T07:59:52.593Z</time></trkpt><trkpt lat="45.9098783" lon="13.43659"><ele>23.5</ele><time>2026-05-03T07:59:53.594Z</time></trkpt><trkpt lat="45.9099467" lon="13.4367333"><ele>23.25</ele><time>2026-05-03T07:59:54.595Z</time></trkpt><trkpt lat="45.9100117" lon="13.436895"><ele>23.0</ele><time>2026-05-03T07:59:55.596Z</time></trkpt><trkpt lat="45.9100817" lon="13.43706"><ele>23.4</ele><time>2026-05-03T07:59:56.596Z</time></trkpt><trkpt lat="45.9101433" lon="13.4372217"><ele>23.799999999999997</ele><time>2026-05-03T07:59:57.595Z</time></trkpt><trkpt lat="45.9102" lon="13.4373683"><ele>24.2</ele><time>2026-05-03T07:59:58.595Z</time></trkpt><trkpt lat="45.9102533" lon="13.4374983"><ele>24.6</ele><time>2026-05-03T07:59:59.596Z</time></trkpt><trkpt lat="45.9103167" lon="13.4376067"><ele>25.0</ele><time>2026-05-03T08:00:00.595Z</time></trkpt><trkpt lat="45.9103967" lon="13.4377017"><ele>25.0</ele><time>2026-05-03T08:00:01.596Z</time></trkpt><trkpt lat="45.91049" lon="13.437795"><ele>25.0</ele><time>2026-05-03T08:00:02.595Z</time></trkpt><trkpt lat="45.9105967" lon="13.4378933"><ele>25.0</ele><time>2026-05-03T08:00:03.594Z</time></trkpt><trkpt lat="45.9107067" lon="13.4379917"><ele>25.0</ele><time>2026-05-03T08:00:04.595Z</time></trkpt><trkpt lat="45.910825" lon="13.4380917"><ele>25.75</ele><time>2026-05-03T08:00:05.593Z</time></trkpt><trkpt lat="45.91095" lon="13.43819"><ele>26.5</ele><time>2026-05-03T08:00:06.593Z</time></trkpt><trkpt lat="45.91108" lon="13.4382783"><ele>27.25</ele><time>2026-05-03T08:00:07.593Z</time></trkpt><trkpt lat="45.9112033" lon="13.4383567"><ele>28.0</ele><time>2026-05-03T08:00:08.594Z</time></trkpt><trkpt lat="45.9113167" lon="13.4384283"><ele>28.0</ele><time>2026-05-03T08:00:09.593Z</time></trkpt><trkpt lat="45.911425" lon="13.438505"><ele>28.0</ele><time>2026-05-03T08:00:10.596Z</time></trkpt><trkpt lat="45.9115283" lon="13.4386033"><ele>28.0</ele><time>2026-05-03T08:00:11.594Z</time></trkpt><trkpt lat="45.9116267" lon="13.43872"><ele>28.0</ele><time>2026-05-03T08:00:12.593Z</time></trkpt><trkpt lat="45.91172" lon="13.4388517"><ele>28.0</ele><time>2026-05-03T08:00:13.595Z</time></trkpt><trkpt lat="45.9118033" lon="13.438985"><ele>28.0</ele><time>2026-05-03T08:00:14.594Z</time></trkpt><trkpt lat="45.9118867" lon="13.4391083"><ele>28.0</ele><time>2026-05-03T08:00:15.594Z</time></trkpt><trkpt lat="45.91198" lon="13.4392283"><ele>28.0</ele><time>2026-05-03T08:00:16.596Z</time></trkpt><trkpt lat="45.9120767" lon="13.439355"><ele>28.0</ele><time>2026-05-03T08:00:17.594Z</time></trkpt><trkpt lat="45.9121733" lon="13.4394967"><ele>28.0</ele><time>2026-05-03T08:00:18.594Z</time></trkpt><trkpt lat="45.912265" lon="13.4396467"><ele>28.0</ele><time>2026-05-03T08:00:19.593Z</time></trkpt><trkpt lat="45.9123467" lon="13.4398033"><ele>28.0</ele><time>2026-05-03T08:00:20.596Z</time></trkpt><trkpt lat="45.9124217" lon="13.4399717"><ele>28.0</ele><time>2026-05-03T08:00:21.594Z</time></trkpt><trkpt lat="45.9124983" lon="13.4401433"><ele>28.0</ele><time>2026-05-03T08:00:22.594Z</time></trkpt><trkpt lat="45.912575" lon="13.440325"><ele>28.0</ele><time>2026-05-03T08:00:23.593Z</time></trkpt><trkpt lat="45.91265" lon="13.44051"><ele>28.0</ele><time>2026-05-03T08:00:24.594Z</time></trkpt><trkpt lat="45.9127217" lon="13.4407033"><ele>28.0</ele><time>2026-05-03T08:00:25.593Z</time></trkpt><trkpt lat="45.91279" lon="13.4409"><ele>28.0</ele><time>2026-05-03T08:00:26.593Z</time></trkpt><trkpt lat="45.9128533" lon="13.4410917"><ele>28.0</ele><time>2026-05-03T08:00:27.593Z</time></trkpt><trkpt lat="45.912915" lon="13.4412683"><ele>28.0</ele><time>2026-05-03T08:00:28.594Z</time></trkpt><trkpt lat="45.9129733" lon="13.4414283"><ele>28.5</ele><time>2026-05-03T08:00:29.593Z</time></trkpt><trkpt lat="45.9130367" lon="13.44157"><ele>29.0</ele><time>2026-05-03T08:00:30.593Z</time></trkpt><trkpt lat="45.913105" lon="13.4416917"><ele>29.5</ele><time>2026-05-03T08:00:31.594Z</time></trkpt><trkpt lat="45.9131883" lon="13.4417933"><ele>30.0</ele><time>2026-05-03T08:00:32.593Z</time></trkpt><trkpt lat="45.913285" lon="13.4418817"><ele>30.0</ele><time>2026-05-03T08:00:33.594Z</time></trkpt><trkpt lat="45.9133883" lon="13.4419717"><ele>30.0</ele><time>2026-05-03T08:00:34.594Z</time></trkpt><trkpt lat="45.91348" lon="13.44206"><ele>30.0</ele><time>2026-05-03T08:00:35.593Z</time></trkpt><trkpt lat="45.913565" lon="13.442135"><ele>30.0</ele><time>2026-05-03T08:00:36.595Z</time></trkpt><trkpt lat="45.9136533" lon="13.4421917"><ele>30.0</ele><time>2026-05-03T08:00:37.594Z</time></trkpt><trkpt lat="45.913755" lon="13.442235"><ele>30.0</ele><time>2026-05-03T08:00:38.594Z</time></trkpt><trkpt lat="45.9138698" lon="13.4422771"><ele>30.0</ele><time>2026-05-03T08:00:39.595Z</time></trkpt><trkpt lat="45.9139951" lon="13.4423133"><ele>30.0</ele><time>2026-05-03T08:00:40.595Z</time></trkpt><trkpt lat="45.9141251" lon="13.4423443"><ele>30.0</ele><time>2026-05-03T08:00:41.594Z</time></trkpt><trkpt lat="45.9142518" lon="13.4423735"><ele>29.75</ele><time>2026-05-03T08:00:42.593Z</time></trkpt><trkpt lat="45.9143716" lon="13.4424018"><ele>29.5</ele><time>2026-05-03T08:00:43.595Z</time></trkpt><trkpt lat="45.9144851" lon="13.4424317"><ele>29.25</ele><time>2026-05-03T08:00:44.594Z</time></trkpt><trkpt lat="45.9145946" lon="13.4424658"><ele>29.0</ele><time>2026-05-03T08:00:45.594Z</time></trkpt><trkpt lat="45.9147049" lon="13.4425208"><ele>29.0</ele><time>2026-05-03T08:00:46.593Z</time></trkpt><trkpt lat="45.9148176" lon="13.442591"><ele>29.0</ele><time>2026-05-03T08:00:47.593Z</time></trkpt><trkpt lat="45.9149372" lon="13.4426685"><ele>29.0</ele><time>2026-05-03T08:00:48.594Z</time></trkpt><trkpt lat="45.9150661" lon="13.4427502"><ele>29.0</ele><time>2026-05-03T08:00:49.593Z</time></trkpt><trkpt lat="45.9152014" lon="13.4428327"><ele>28.75</ele><time>2026-05-03T08:00:50.594Z</time></trkpt><trkpt lat="45.915336" lon="13.4429171"><ele>28.5</ele><time>2026-05-03T08:00:51.593Z</time></trkpt><trkpt lat="45.9154628" lon="13.4430023"><ele>28.25</ele><time>2026-05-03T08:00:52.593Z</time></trkpt><trkpt lat="45.9155885" lon="13.4430896"><ele>28.0</ele><time>2026-05-03T08:00:53.594Z</time></trkpt><trkpt lat="45.9157166" lon="13.443166"><ele>27.75</ele><time>2026-05-03T08:00:54.593Z</time></trkpt><trkpt lat="45.9158433" lon="13.4432222"><ele>27.5</ele><time>2026-05-03T08:00:55.594Z</time></trkpt><trkpt lat="45.9159721" lon="13.4432605"><ele>27.25</ele><time>2026-05-03T08:00:56.595Z</time></trkpt><trkpt lat="45.9161052" lon="13.4432827"><ele>27.0</ele><time>2026-05-03T08:00:57.593Z</time></trkpt><trkpt lat="45.9162405" lon="13.4433005"><ele>27.5</ele><time>2026-05-03T08:00:58.593Z</time></trkpt><trkpt lat="45.9163761" lon="13.4433215"><ele>28.0</ele><time>2026-05-03T08:00:59.596Z</time></trkpt><trkpt lat="45.9165102" lon="13.4433523"><ele>28.5</ele><time>2026-05-03T08:01:00.594Z</time></trkpt><trkpt lat="45.916642" lon="13.4433942"><ele>29.0</ele><time>2026-05-03T08:01:01.593Z</time></trkpt><trkpt lat="45.916775" lon="13.4434407"><ele>29.5</ele><time>2026-05-03T08:01:02.593Z</time></trkpt><trkpt lat="45.9169124" lon="13.4434831"><ele>30.0</ele><time>2026-05-03T08:01:03.594Z</time></trkpt><trkpt lat="45.917047" lon="13.4435229"><ele>30.5</ele><time>2026-05-03T08:01:04.594Z</time></trkpt><trkpt lat="45.9171831" lon="13.44356"><ele>31.0</ele><time>2026-05-03T08:01:05.594Z</time></trkpt><trkpt lat="45.9173157" lon="13.4435874"><ele>31.0</ele><time>2026-05-03T08:01:06.594Z</time></trkpt><trkpt lat="45.9174444" lon="13.4435931"><ele>31.0</ele><time>2026-05-03T08:01:07.595Z</time></trkpt><trkpt lat="45.9175739" lon="13.4435761"><ele>31.0</ele><time>2026-05-03T08:01:08.594Z</time></trkpt><trkpt lat="45.9177104" lon="13.4435507"><ele>31.0</ele><time>2026-05-03T08:01:09.594Z</time></trkpt><trkpt lat="45.9178459" lon="13.4435275"><ele>30.6</ele><time>2026-05-03T08:01:10.594Z</time></trkpt><trkpt lat="45.9179724" lon="13.4435175"><ele>30.200000000000003</ele><time>2026-05-03T08:01:11.594Z</time></trkpt><trkpt lat="45.9180833" lon="13.4435217"><ele>29.799999999999997</ele><time>2026-05-03T08:01:12.595Z</time></trkpt><trkpt lat="45.9181798" lon="13.4435412"><ele>29.4</ele><time>2026-05-03T08:01:13.594Z</time></trkpt><trkpt lat="45.9182713" lon="13.4435782"><ele>29.0</ele><time>2026-05-03T08:01:14.594Z</time></trkpt><trkpt lat="45.9183636" lon="13.4436366"><ele>28.799999999999997</ele><time>2026-05-03T08:01:15.593Z</time></trkpt><trkpt lat="45.9184539" lon="13.4437126"><ele>28.599999999999998</ele><time>2026-05-03T08:01:16.594Z</time></trkpt><trkpt lat="45.9185323" lon="13.4438021"><ele>28.4</ele><time>2026-05-03T08:01:17.593Z</time></trkpt><trkpt lat="45.9185993" lon="13.4439038"><ele>28.2</ele><time>2026-05-03T08:01:18.594Z</time></trkpt><trkpt lat="45.9186617" lon="13.4440171"><ele>28.0</ele><time>2026-05-03T08:01:19.594Z</time></trkpt><trkpt lat="45.9187294" lon="13.4441415"><ele>28.0</ele><time>2026-05-03T08:01:20.593Z</time></trkpt><trkpt lat="45.9188023" lon="13.4442744"><ele>28.0</ele><time>2026-05-03T08:01:21.593Z</time></trkpt><trkpt lat="45.9188689" lon="13.4444147"><ele>28.0</ele><time>2026-05-03T08:01:22.593Z</time></trkpt><trkpt lat="45.9189224" lon="13.4445629"><ele>28.0</ele><time>2026-05-03T08:01:23.593Z</time></trkpt><trkpt lat="45.9189717" lon="13.4447218"><ele>28.0</ele><time>2026-05-03T08:01:24.593Z</time></trkpt><trkpt lat="45.9190189" lon="13.4448991"><ele>28.0</ele><time>2026-05-03T08:01:25.595Z</time></trkpt><trkpt lat="45.919062" lon="13.4450958"><ele>28.0</ele><time>2026-05-03T08:01:26.594Z</time></trkpt><trkpt lat="45.9191062" lon="13.4453012"><ele>28.0</ele><time>2026-05-03T08:01:27.594Z</time></trkpt><trkpt lat="45.9191497" lon="13.4455124"><ele>27.666666666666668</ele><time>2026-05-03T08:01:28.594Z</time></trkpt><trkpt lat="45.9191942" lon="13.4457269"><ele>27.333333333333336</ele><time>2026-05-03T08:01:29.595Z</time></trkpt><trkpt lat="45.9192378" lon="13.4459479"><ele>27.0</ele><time>2026-05-03T08:01:30.594Z</time></trkpt><trkpt lat="45.9192798" lon="13.4461763"><ele>27.0</ele><time>2026-05-03T08:01:31.594Z</time></trkpt><trkpt lat="45.9193228" lon="13.4464046"><ele>27.0</ele><time>2026-05-03T08:01:32.596Z</time></trkpt><trkpt lat="45.9193648" lon="13.4466302"><ele>27.0</ele><time>2026-05-03T08:01:33.593Z</time></trkpt><trkpt lat="45.9194048" lon="13.4468471"><ele>27.0</ele><time>2026-05-03T08:01:34.596Z</time></trkpt><trkpt lat="45.9194416" lon="13.4470527"><ele>27.0</ele><time>2026-05-03T08:01:35.595Z</time></trkpt><trkpt lat="45.9194732" lon="13.4472513"><ele>27.0</ele><time>2026-05-03T08:01:36.595Z</time></trkpt><trkpt lat="45.9194997" lon="13.447447"><ele>27.0</ele><time>2026-05-03T08:01:37.594Z</time></trkpt><trkpt lat="45.9195272" lon="13.44764"><ele>27.0</ele><time>2026-05-03T08:01:38.595Z</time></trkpt><trkpt lat="45.9195538" lon="13.4478321"><ele>27.0</ele><time>2026-05-03T08:01:39.594Z</time></trkpt><trkpt lat="45.9195746" lon="13.4480164"><ele>27.0</ele><time>2026-05-03T08:01:40.593Z</time></trkpt><trkpt lat="45.9195874" lon="13.448178"><ele>27.0</ele><time>2026-05-03T08:01:41.595Z</time></trkpt><trkpt lat="45.919592" lon="13.4483192"><ele>27.0</ele><time>2026-05-03T08:01:42.594Z</time></trkpt><trkpt lat="45.9195933" lon="13.4484473"><ele>27.0</ele><time>2026-05-03T08:01:43.594Z</time></trkpt><trkpt lat="45.9195923" lon="13.4485653"><ele>27.0</ele><time>2026-05-03T08:01:44.595Z</time></trkpt><trkpt lat="45.9195928" lon="13.44868"><ele>27.0</ele><time>2026-05-03T08:01:45.594Z</time></trkpt><trkpt lat="45.9195978" lon="13.4487957"><ele>27.0</ele><time>2026-05-03T08:01:46.595Z</time></trkpt><trkpt lat="45.9196044" lon="13.4489127"><ele>27.0</ele><time>2026-05-03T08:01:47.593Z</time></trkpt><trkpt lat="45.9196102" lon="13.4490321"><ele>27.0</ele><time>2026-05-03T08:01:48.594Z</time></trkpt><trkpt lat="45.9196154" lon="13.4491602"><ele>27.000000000000004</ele><time>2026-05-03T08:01:49.594Z</time></trkpt><trkpt lat="45.9196218" lon="13.449302"><ele>27.000000000000004</ele><time>2026-05-03T08:01:50.594Z</time></trkpt><trkpt lat="45.9196287" lon="13.449463"><ele>27.0</ele><time>2026-05-03T08:01:51.594Z</time></trkpt><trkpt lat="45.9196384" lon="13.4496447"><ele>27.0</ele><time>2026-05-03T08:01:52.593Z</time></trkpt><trkpt lat="45.9196489" lon="13.4498453"><ele>27.0</ele><time>2026-05-03T08:01:53.595Z</time></trkpt><trkpt lat="45.9196618" lon="13.4500535"><ele>27.0</ele><time>2026-05-03T08:01:54.594Z</time></trkpt><trkpt lat="45.9196724" lon="13.450264"><ele>27.0</ele><time>2026-05-03T08:01:55.595Z</time></trkpt><trkpt lat="45.9196797" lon="13.4504753"><ele>27.0</ele><time>2026-05-03T08:01:56.594Z</time></trkpt><trkpt lat="45.9196903" lon="13.450681"><ele>27.25</ele><time>2026-05-03T08:01:57.593Z</time></trkpt><trkpt lat="45.9197062" lon="13.4508877"><ele>27.5</ele><time>2026-05-03T08:01:58.593Z</time></trkpt><trkpt lat="45.9197275" lon="13.4511004"><ele>27.75</ele><time>2026-05-03T08:01:59.595Z</time></trkpt><trkpt lat="45.9197539" lon="13.451314"><ele>28.0</ele><time>2026-05-03T08:02:00.595Z</time></trkpt><trkpt lat="45.9197797" lon="13.4515228"><ele>28.0</ele><time>2026-05-03T08:02:01.595Z</time></trkpt><trkpt lat="45.9197978" lon="13.4517188"><ele>28.0</ele><time>2026-05-03T08:02:02.594Z</time></trkpt><trkpt lat="45.9198142" lon="13.4519063"><ele>28.0</ele><time>2026-05-03T08:02:03.594Z</time></trkpt><trkpt lat="45.9198351" lon="13.4520926"><ele>28.0</ele><time>2026-05-03T08:02:04.594Z</time></trkpt><trkpt lat="45.9198639" lon="13.4522758"><ele>28.0</ele><time>2026-05-03T08:02:05.594Z</time></trkpt><trkpt lat="45.9199002" lon="13.4524487"><ele>28.0</ele><time>2026-05-03T08:02:06.593Z</time></trkpt><trkpt lat="45.9199409" lon="13.4526151"><ele>28.0</ele><time>2026-05-03T08:02:07.593Z</time></trkpt><trkpt lat="45.9199814" lon="13.4527729"><ele>28.0</ele><time>2026-05-03T08:02:08.594Z</time></trkpt><trkpt lat="45.9200131" lon="13.4529148"><ele>28.166666666666668</ele><time>2026-05-03T08:02:09.593Z</time></trkpt><trkpt lat="45.9200411" lon="13.4530399"><ele>28.333333333333336</ele><time>2026-05-03T08:02:10.593Z</time></trkpt><trkpt lat="45.9200674" lon="13.4531458"><ele>28.5</ele><time>2026-05-03T08:02:11.594Z</time></trkpt><trkpt lat="45.9200909" lon="13.4532392"><ele>28.666666666666664</ele><time>2026-05-03T08:02:12.593Z</time></trkpt><trkpt lat="45.9201166" lon="13.4533221"><ele>28.833333333333332</ele><time>2026-05-03T08:02:13.597Z</time></trkpt><trkpt lat="45.9201825" lon="13.4534401"><ele>29.0</ele><time>2026-05-03T08:02:15.594Z</time></trkpt><trkpt lat="45.9202743" lon="13.4534468"><ele>29.499999999999996</ele><time>2026-05-03T08:02:17.594Z</time></trkpt><trkpt lat="45.9203445" lon="13.4534087"><ele>30.0</ele><time>2026-05-03T08:02:18.594Z</time></trkpt><trkpt lat="45.9204147" lon="13.4533749"><ele>30.5</ele><time>2026-05-03T08:02:19.594Z</time></trkpt><trkpt lat="45.9204774" lon="13.4533551"><ele>31.0</ele><time>2026-05-03T08:02:20.594Z</time></trkpt><trkpt lat="45.9205635" lon="13.453398"><ele>31.499999999999996</ele><time>2026-05-03T08:02:22.594Z</time></trkpt><trkpt lat="45.9205855" lon="13.4535571"><ele>32.0</ele><time>2026-05-03T08:02:24.595Z</time></trkpt><trkpt lat="45.9205834" lon="13.4536801"><ele>32.0</ele><time>2026-05-03T08:02:25.594Z</time></trkpt><trkpt lat="45.9205841" lon="13.4538097"><ele>32.0</ele><time>2026-05-03T08:02:26.595Z</time></trkpt><trkpt lat="45.9205959" lon="13.4539379"><ele>32.0</ele><time>2026-05-03T08:02:27.593Z</time></trkpt><trkpt lat="45.9206177" lon="13.4540673"><ele>32.0</ele><time>2026-05-03T08:02:28.594Z</time></trkpt><trkpt lat="45.9206548" lon="13.4541985"><ele>32.0</ele><time>2026-05-03T08:02:29.594Z</time></trkpt><trkpt lat="45.9206936" lon="13.4543376"><ele>32.0</ele><time>2026-05-03T08:02:30.594Z</time></trkpt><trkpt lat="45.9207319" lon="13.4544758"><ele>32.0</ele><time>2026-05-03T08:02:31.595Z</time></trkpt><trkpt lat="45.9207627" lon="13.4546137"><ele>32.0</ele><time>2026-05-03T08:02:32.594Z</time></trkpt><trkpt lat="45.9207858" lon="13.4547582"><ele>32.0</ele><time>2026-05-03T08:02:33.593Z</time></trkpt><trkpt lat="45.9208004" lon="13.4549039"><ele>32.0</ele><time>2026-05-03T08:02:34.594Z</time></trkpt><trkpt lat="45.9208192" lon="13.4550363"><ele>32.0</ele><time>2026-05-03T08:02:35.593Z</time></trkpt><trkpt lat="45.9208514" lon="13.4551495"><ele>32.0</ele><time>2026-05-03T08:02:36.594Z</time></trkpt><trkpt lat="45.9208941" lon="13.4552554"><ele>32.0</ele><time>2026-05-03T08:02:37.594Z</time></trkpt><trkpt lat="45.9209469" lon="13.4553641"><ele>32.0</ele><time>2026-05-03T08:02:38.596Z</time></trkpt><trkpt lat="45.9210053" lon="13.4554737"><ele>32.0</ele><time>2026-05-03T08:02:39.593Z</time></trkpt><trkpt lat="45.921064" lon="13.4555805"><ele>32.0</ele><time>2026-05-03T08:02:40.595Z</time></trkpt><trkpt lat="45.9211169" lon="13.4556827"><ele>32.0</ele><time>2026-05-03T08:02:41.595Z</time></trkpt><trkpt lat="45.9211615" lon="13.4557709"><ele>32.0</ele><time>2026-05-03T08:02:42.594Z</time></trkpt><trkpt lat="45.9212303" lon="13.4558972"><ele>32.0</ele><time>2026-05-03T08:02:44.594Z</time></trkpt><trkpt lat="45.9212773" lon="13.4559585"><ele>32.0</ele><time>2026-05-03T08:02:48.595Z</time></trkpt><trkpt lat="45.9213766" lon="13.4560858"><ele>32.0</ele><time>2026-05-03T08:02:51.593Z</time></trkpt><trkpt lat="45.9214526" lon="13.4561985"><ele>32.0</ele><time>2026-05-03T08:02:52.594Z</time></trkpt><trkpt lat="45.921543" lon="13.4563436"><ele>32.0</ele><time>2026-05-03T08:02:53.594Z</time></trkpt><trkpt lat="45.9216326" lon="13.4564911"><ele>32.0</ele><time>2026-05-03T08:02:54.594Z</time></trkpt><trkpt lat="45.921723" lon="13.4566267"><ele>32.25</ele><time>2026-05-03T08:02:55.595Z</time></trkpt><trkpt lat="45.9218113" lon="13.4567601"><ele>32.5</ele><time>2026-05-03T08:02:56.594Z</time></trkpt><trkpt lat="45.9219027" lon="13.4568856"><ele>32.75</ele><time>2026-05-03T08:02:57.595Z</time></trkpt><trkpt lat="45.9219952" lon="13.4570064"><ele>33.0</ele><time>2026-05-03T08:02:58.594Z</time></trkpt><trkpt lat="45.922097" lon="13.4571225"><ele>33.0</ele><time>2026-05-03T08:02:59.595Z</time></trkpt><trkpt lat="45.922201" lon="13.4572425"><ele>33.0</ele><time>2026-05-03T08:03:00.594Z</time></trkpt><trkpt lat="45.9223065" lon="13.4573652"><ele>33.0</ele><time>2026-05-03T08:03:01.595Z</time></trkpt><trkpt lat="45.922415" lon="13.457483"><ele>33.0</ele><time>2026-05-03T08:03:02.594Z</time></trkpt><trkpt lat="45.9225308" lon="13.4575966"><ele>33.25</ele><time>2026-05-03T08:03:03.594Z</time></trkpt><trkpt lat="45.9226551" lon="13.4577075"><ele>33.5</ele><time>2026-05-03T08:03:04.595Z</time></trkpt><trkpt lat="45.9227852" lon="13.4578148"><ele>33.75</ele><time>2026-05-03T08:03:05.593Z</time></trkpt><trkpt lat="45.9229162" lon="13.4579242"><ele>34.0</ele><time>2026-05-03T08:03:06.594Z</time></trkpt><trkpt lat="45.9230415" lon="13.4580375"><ele>33.5</ele><time>2026-05-03T08:03:07.595Z</time></trkpt><trkpt lat="45.9231582" lon="13.4581565"><ele>33.0</ele><time>2026-05-03T08:03:08.594Z</time></trkpt><trkpt lat="45.923266" lon="13.4582786"><ele>32.5</ele><time>2026-05-03T08:03:09.594Z</time></trkpt><trkpt lat="45.9233676" lon="13.4583997"><ele>32.0</ele><time>2026-05-03T08:03:10.594Z</time></trkpt><trkpt lat="45.9234624" lon="13.4585215"><ele>32.0</ele><time>2026-05-03T08:03:11.595Z</time></trkpt><trkpt lat="45.9235468" lon="13.4586535"><ele>32.0</ele><time>2026-05-03T08:03:12.594Z</time></trkpt><trkpt lat="45.9236206" lon="13.4587882"><ele>32.0</ele><time>2026-05-03T08:03:13.595Z</time></trkpt><trkpt lat="45.923678" lon="13.4589138"><ele>32.0</ele><time>2026-05-03T08:03:14.595Z</time></trkpt><trkpt lat="45.9237254" lon="13.4590303"><ele>32.0</ele><time>2026-05-03T08:03:15.594Z</time></trkpt><trkpt lat="45.9237709" lon="13.4591438"><ele>32.0</ele><time>2026-05-03T08:03:16.595Z</time></trkpt><trkpt lat="45.9238194" lon="13.4592542"><ele>32.0</ele><time>2026-05-03T08:03:17.594Z</time></trkpt><trkpt lat="45.9238651" lon="13.459365"><ele>32.0</ele><time>2026-05-03T08:03:18.595Z</time></trkpt><trkpt lat="45.9239074" lon="13.4594762"><ele>32.0</ele><time>2026-05-03T08:03:19.595Z</time></trkpt><trkpt lat="45.9239522" lon="13.4595952"><ele>32.0</ele><time>2026-05-03T08:03:20.594Z</time></trkpt><trkpt lat="45.9239968" lon="13.4597351"><ele>32.5</ele><time>2026-05-03T08:03:21.594Z</time></trkpt><trkpt lat="45.9240369" lon="13.4598892"><ele>33.0</ele><time>2026-05-03T08:03:22.594Z</time></trkpt><trkpt lat="45.9240713" lon="13.4600481"><ele>33.5</ele><time>2026-05-03T08:03:23.594Z</time></trkpt><trkpt lat="45.9240985" lon="13.460212"><ele>34.0</ele><time>2026-05-03T08:03:24.595Z</time></trkpt><trkpt lat="45.9241191" lon="13.4603792"><ele>33.5</ele><time>2026-05-03T08:03:25.593Z</time></trkpt><trkpt lat="45.9241357" lon="13.4605511"><ele>33.0</ele><time>2026-05-03T08:03:26.595Z</time></trkpt><trkpt lat="45.9241476" lon="13.460738"><ele>32.5</ele><time>2026-05-03T08:03:27.595Z</time></trkpt><trkpt lat="45.9241642" lon="13.4609304"><ele>32.0</ele><time>2026-05-03T08:03:28.595Z</time></trkpt><trkpt lat="45.9241862" lon="13.4611254"><ele>32.0</ele><time>2026-05-03T08:03:29.594Z</time></trkpt><trkpt lat="45.9242135" lon="13.4613267"><ele>32.0</ele><time>2026-05-03T08:03:30.595Z</time></trkpt><trkpt lat="45.9242389" lon="13.4615353"><ele>32.0</ele><time>2026-05-03T08:03:31.595Z</time></trkpt><trkpt lat="45.9242625" lon="13.4617497"><ele>32.0</ele><time>2026-05-03T08:03:32.594Z</time></trkpt><trkpt lat="45.9242856" lon="13.461973"><ele>32.0</ele><time>2026-05-03T08:03:33.594Z</time></trkpt><trkpt lat="45.9243133" lon="13.4622017"><ele>32.0</ele><time>2026-05-03T08:03:34.596Z</time></trkpt><trkpt lat="45.9243439" lon="13.4624304"><ele>32.0</ele><time>2026-05-03T08:03:35.594Z</time></trkpt><trkpt lat="45.9243769" lon="13.4626604"><ele>32.0</ele><time>2026-05-03T08:03:36.594Z</time></trkpt><trkpt lat="45.9244158" lon="13.4628881"><ele>32.0</ele><time>2026-05-03T08:03:37.595Z</time></trkpt><trkpt lat="45.9244666" lon="13.4631116"><ele>32.0</ele><time>2026-05-03T08:03:38.594Z</time></trkpt><trkpt lat="45.9245277" lon="13.4633273"><ele>32.0</ele><time>2026-05-03T08:03:39.595Z</time></trkpt><trkpt lat="45.9245922" lon="13.4635384"><ele>32.0</ele><time>2026-05-03T08:03:40.595Z</time></trkpt><trkpt lat="45.9246546" lon="13.4637471"><ele>32.0</ele><time>2026-05-03T08:03:41.594Z</time></trkpt><trkpt lat="45.9247164" lon="13.4639488"><ele>32.0</ele><time>2026-05-03T08:03:42.595Z</time></trkpt><trkpt lat="45.9247812" lon="13.4641521"><ele>32.0</ele><time>2026-05-03T08:03:43.595Z</time></trkpt><trkpt lat="45.9248484" lon="13.4643511"><ele>32.0</ele><time>2026-05-03T08:03:44.594Z</time></trkpt><trkpt lat="45.9249164" lon="13.4645434"><ele>32.0</ele><time>2026-05-03T08:03:45.595Z</time></trkpt><trkpt lat="45.9249867" lon="13.4647302"><ele>32.0</ele><time>2026-05-03T08:03:46.593Z</time></trkpt><trkpt lat="45.9250558" lon="13.4649179"><ele>32.0</ele><time>2026-05-03T08:03:47.594Z</time></trkpt><trkpt lat="45.925121" lon="13.4651134"><ele>32.0</ele><time>2026-05-03T08:03:48.594Z</time></trkpt><trkpt lat="45.9251828" lon="13.4653073"><ele>31.75</ele><time>2026-05-03T08:03:49.595Z</time></trkpt><trkpt lat="45.9252425" lon="13.4654961"><ele>31.5</ele><time>2026-05-03T08:03:50.596Z</time></trkpt><trkpt lat="45.9253005" lon="13.4656824"><ele>31.25</ele><time>2026-05-03T08:03:51.594Z</time></trkpt><trkpt lat="45.9253572" lon="13.4658641"><ele>31.0</ele><time>2026-05-03T08:03:52.594Z</time></trkpt><trkpt lat="45.9254096" lon="13.4660447"><ele>31.0</ele><time>2026-05-03T08:03:53.594Z</time></trkpt><trkpt lat="45.9254584" lon="13.4662213"><ele>31.0</ele><time>2026-05-03T08:03:54.594Z</time></trkpt><trkpt lat="45.925506" lon="13.4663988"><ele>31.0</ele><time>2026-05-03T08:03:55.594Z</time></trkpt><trkpt lat="45.9255539" lon="13.466576"><ele>31.0</ele><time>2026-05-03T08:03:56.595Z</time></trkpt><trkpt lat="45.9256007" lon="13.4667421"><ele>31.200000000000003</ele><time>2026-05-03T08:03:57.594Z</time></trkpt><trkpt lat="45.9256476" lon="13.4668947"><ele>31.400000000000002</ele><time>2026-05-03T08:03:58.594Z</time></trkpt><trkpt lat="45.92569" lon="13.4670293"><ele>31.6</ele><time>2026-05-03T08:03:59.594Z</time></trkpt><trkpt lat="45.9257284" lon="13.4671492"><ele>31.8</ele><time>2026-05-03T08:04:00.594Z</time></trkpt><trkpt lat="45.9257612" lon="13.4672611"><ele>32.0</ele><time>2026-05-03T08:04:01.594Z</time></trkpt><trkpt lat="45.9257881" lon="13.4673689"><ele>32.2</ele><time>2026-05-03T08:04:02.594Z</time></trkpt><trkpt lat="45.9258122" lon="13.4674638"><ele>32.400000000000006</ele><time>2026-05-03T08:04:03.594Z</time></trkpt><trkpt lat="45.9258529" lon="13.4675875"><ele>32.599999999999994</ele><time>2026-05-03T08:04:05.595Z</time></trkpt><trkpt lat="45.9259222" lon="13.467542"><ele>32.8</ele><time>2026-05-03T08:04:07.595Z</time></trkpt><trkpt lat="45.9260407" lon="13.4674419"><ele>33.0</ele><time>2026-05-03T08:04:09.595Z</time></trkpt><trkpt lat="45.9261146" lon="13.4673849"><ele>33.0</ele><time>2026-05-03T08:04:10.597Z</time></trkpt><trkpt lat="45.9262006" lon="13.4673242"><ele>33.0</ele><time>2026-05-03T08:04:11.594Z</time></trkpt><trkpt lat="45.9262926" lon="13.4672578"><ele>33.0</ele><time>2026-05-03T08:04:12.595Z</time></trkpt><trkpt lat="45.9263851" lon="13.4671862"><ele>33.0</ele><time>2026-05-03T08:04:13.595Z</time></trkpt><trkpt lat="45.9264715" lon="13.4671205"><ele>33.0</ele><time>2026-05-03T08:04:14.595Z</time></trkpt><trkpt lat="45.9265645" lon="13.4670534"><ele>33.0</ele><time>2026-05-03T08:04:15.595Z</time></trkpt><trkpt lat="45.926658" lon="13.4669901"><ele>33.0</ele><time>2026-05-03T08:04:16.594Z</time></trkpt><trkpt lat="45.9267466" lon="13.4669261"><ele>33.0</ele><time>2026-05-03T08:04:17.595Z</time></trkpt><trkpt lat="45.9268271" lon="13.46687"><ele>33.0</ele><time>2026-05-03T08:04:18.594Z</time></trkpt><trkpt lat="45.9269063" lon="13.4668142"><ele>33.0</ele><time>2026-05-03T08:04:19.595Z</time></trkpt><trkpt lat="45.9269858" lon="13.4667527"><ele>33.4</ele><time>2026-05-03T08:04:20.597Z</time></trkpt><trkpt lat="45.9270657" lon="13.4666929"><ele>33.8</ele><time>2026-05-03T08:04:21.594Z</time></trkpt><trkpt lat="45.9271498" lon="13.4666329"><ele>34.2</ele><time>2026-05-03T08:04:22.595Z</time></trkpt><trkpt lat="45.9272374" lon="13.4665715"><ele>34.6</ele><time>2026-05-03T08:04:23.596Z</time></trkpt><trkpt lat="45.927321" lon="13.466512"><ele>35.0</ele><time>2026-05-03T08:04:24.594Z</time></trkpt><trkpt lat="45.9273966" lon="13.4664605"><ele>35.0</ele><time>2026-05-03T08:04:25.595Z</time></trkpt><trkpt lat="45.9274679" lon="13.4664142"><ele>35.0</ele><time>2026-05-03T08:04:26.595Z</time></trkpt><trkpt lat="45.9275436" lon="13.4663731"><ele>35.0</ele><time>2026-05-03T08:04:27.595Z</time></trkpt><trkpt lat="45.9276116" lon="13.4663441"><ele>35.0</ele><time>2026-05-03T08:04:28.594Z</time></trkpt><trkpt lat="45.9277188" lon="13.4663149"><ele>35.0</ele><time>2026-05-03T08:04:30.595Z</time></trkpt><trkpt lat="45.9278155" lon="13.4662983"><ele>35.0</ele><time>2026-05-03T08:04:32.596Z</time></trkpt><trkpt lat="45.9279281" lon="13.4662973"><ele>35.166666666666664</ele><time>2026-05-03T08:04:34.594Z</time></trkpt><trkpt lat="45.9279919" lon="13.4663218"><ele>35.33333333333333</ele><time>2026-05-03T08:04:35.595Z</time></trkpt><trkpt lat="45.928058" lon="13.4663697"><ele>35.5</ele><time>2026-05-03T08:04:36.594Z</time></trkpt><trkpt lat="45.9281255" lon="13.4664419"><ele>35.666666666666664</ele><time>2026-05-03T08:04:37.596Z</time></trkpt><trkpt lat="45.9281877" lon="13.4665197"><ele>35.833333333333336</ele><time>2026-05-03T08:04:38.598Z</time></trkpt><trkpt lat="45.9282489" lon="13.4665878"><ele>36.0</ele><time>2026-05-03T08:04:39.595Z</time></trkpt><trkpt lat="45.9283099" lon="13.4666424"><ele>36.0</ele><time>2026-05-03T08:04:40.595Z</time></trkpt><trkpt lat="45.9283695" lon="13.4666787"><ele>36.0</ele><time>2026-05-03T08:04:41.598Z</time></trkpt><trkpt lat="45.9284654" lon="13.4667014"><ele>36.0</ele><time>2026-05-03T08:04:43.596Z</time></trkpt><trkpt lat="45.928541" lon="13.4667067"><ele>36.0</ele><time>2026-05-03T08:04:45.595Z</time></trkpt><trkpt lat="45.9286104" lon="13.4667545"><ele>36.0</ele><time>2026-05-03T08:04:48.596Z</time></trkpt><trkpt lat="45.9286439" lon="13.4668479"><ele>36.0</ele><time>2026-05-03T08:04:52.595Z</time></trkpt><trkpt lat="45.9285767" lon="13.4668583"><ele>41.0</ele><time>2026-05-03T08:05:00.596Z</time></trkpt></trkseg><trkseg><trkpt lat="45.9284221" lon="13.4667127"><ele>40.0</ele><time>2026-05-03T08:45:35.595Z</time></trkpt><trkpt lat="45.9283341" lon="13.4666287"><ele>39.0</ele><time>2026-05-03T08:45:36.594Z</time></trkpt><trkpt lat="45.9282568" lon="13.4665558"><ele>38.0</ele><time>2026-05-03T08:45:37.594Z</time></trkpt><trkpt lat="45.9281871" lon="13.466495"><ele>37.0</ele><time>2026-05-03T08:45:38.594Z</time></trkpt><trkpt lat="45.9281258" lon="13.4664405"><ele>36.0</ele><time>2026-05-03T08:45:39.594Z</time></trkpt><trkpt lat="45.928028" lon="13.4663526"><ele>36.0</ele><time>2026-05-03T08:45:41.594Z</time></trkpt><trkpt lat="45.927965" lon="13.4663033"><ele>36.0</ele><time>2026-05-03T08:45:43.596Z</time></trkpt><trkpt lat="45.927885" lon="13.4663217"><ele>36.0</ele><time>2026-05-03T08:45:45.595Z</time></trkpt><trkpt lat="45.92777" lon="13.4663817"><ele>36.0</ele><time>2026-05-03T08:45:47.596Z</time></trkpt><trkpt lat="45.9277167" lon="13.4664383"><ele>36.0</ele><time>2026-05-03T08:45:48.594Z</time></trkpt><trkpt lat="45.927695" lon="13.4665983"><ele>36.0</ele><time>2026-05-03T08:45:50.595Z</time></trkpt><trkpt lat="45.927735" lon="13.4667083"><ele>36.0</ele><time>2026-05-03T08:45:51.595Z</time></trkpt><trkpt lat="45.927795" lon="13.4668167"><ele>36.0</ele><time>2026-05-03T08:45:52.595Z</time></trkpt><trkpt lat="45.9278633" lon="13.46691"><ele>36.0</ele><time>2026-05-03T08:45:53.595Z</time></trkpt><trkpt lat="45.927935" lon="13.4670083"><ele>36.0</ele><time>2026-05-03T08:45:54.594Z</time></trkpt><trkpt lat="45.9280067" lon="13.4671"><ele>35.8</ele><time>2026-05-03T08:45:55.594Z</time></trkpt><trkpt lat="45.928065" lon="13.4671867"><ele>35.6</ele><time>2026-05-03T08:45:56.595Z</time></trkpt><trkpt lat="45.9281267" lon="13.4672667"><ele>35.4</ele><time>2026-05-03T08:45:57.593Z</time></trkpt><trkpt lat="45.9281983" lon="13.4673633"><ele>35.2</ele><time>2026-05-03T08:45:58.594Z</time></trkpt><trkpt lat="45.9282817" lon="13.4674783"><ele>35.0</ele><time>2026-05-03T08:45:59.596Z</time></trkpt><trkpt lat="45.9283733" lon="13.46761"><ele>35.666666666666664</ele><time>2026-05-03T08:46:00.595Z</time></trkpt><trkpt lat="45.9284817" lon="13.4677467"><ele>36.333333333333336</ele><time>2026-05-03T08:46:01.595Z</time></trkpt><trkpt lat="45.9285933" lon="13.4678967"><ele>37.0</ele><time>2026-05-03T08:46:02.595Z</time></trkpt><trkpt lat="45.92871" lon="13.46805"><ele>37.0</ele><time>2026-05-03T08:46:03.594Z</time></trkpt><trkpt lat="45.9288333" lon="13.468215"><ele>37.0</ele><time>2026-05-03T08:46:04.594Z</time></trkpt><trkpt lat="45.928965" lon="13.4683933"><ele>37.0</ele><time>2026-05-03T08:46:05.595Z</time></trkpt><trkpt lat="45.9291033" lon="13.4685767"><ele>38.66666666666667</ele><time>2026-05-03T08:46:06.594Z</time></trkpt><trkpt lat="45.9292417" lon="13.4687567"><ele>40.333333333333336</ele><time>2026-05-03T08:46:07.595Z</time></trkpt><trkpt lat="45.9293733" lon="13.4689333"><ele>42.0</ele><time>2026-05-03T08:46:08.595Z</time></trkpt><trkpt lat="45.9294983" lon="13.469095"><ele>42.0</ele><time>2026-05-03T08:46:09.594Z</time></trkpt><trkpt lat="45.9296117" lon="13.4692433"><ele>42.0</ele><time>2026-05-03T08:46:10.595Z</time></trkpt><trkpt lat="45.9297117" lon="13.4693767"><ele>42.0</ele><time>2026-05-03T08:46:11.594Z</time></trkpt><trkpt lat="45.929805" lon="13.4694917"><ele>42.0</ele><time>2026-05-03T08:46:12.594Z</time></trkpt><trkpt lat="45.9298817" lon="13.4695933"><ele>41.666666666666664</ele><time>2026-05-03T08:46:13.595Z</time></trkpt><trkpt lat="45.92994" lon="13.4696717"><ele>41.333333333333336</ele><time>2026-05-03T08:46:14.595Z</time></trkpt><trkpt lat="45.9299917" lon="13.46974"><ele>41.0</ele><time>2026-05-03T08:46:15.594Z</time></trkpt><trkpt lat="45.9300317" lon="13.4698133"><ele>40.66666666666667</ele><time>2026-05-03T08:46:16.594Z</time></trkpt><trkpt lat="45.930085" lon="13.4699367"><ele>40.333333333333336</ele><time>2026-05-03T08:46:18.594Z</time></trkpt><trkpt lat="45.9301167" lon="13.4700217"><ele>40.0</ele><time>2026-05-03T08:46:20.594Z</time></trkpt><trkpt lat="45.9301733" lon="13.47013"><ele>39.4</ele><time>2026-05-03T08:46:23.595Z</time></trkpt><trkpt lat="45.93022" lon="13.4702783"><ele>38.8</ele><time>2026-05-03T08:46:25.594Z</time></trkpt><trkpt lat="45.9302533" lon="13.4703767"><ele>38.2</ele><time>2026-05-03T08:46:26.594Z</time></trkpt><trkpt lat="45.9302967" lon="13.47048"><ele>37.6</ele><time>2026-05-03T08:46:27.593Z</time></trkpt><trkpt lat="45.9303433" lon="13.4705933"><ele>37.0</ele><time>2026-05-03T08:46:28.594Z</time></trkpt><trkpt lat="45.93039" lon="13.47071"><ele>36.66666666666667</ele><time>2026-05-03T08:46:29.593Z</time></trkpt><trkpt lat="45.93043" lon="13.4708267"><ele>36.333333333333336</ele><time>2026-05-03T08:46:30.595Z</time></trkpt><trkpt lat="45.9304683" lon="13.470935"><ele>36.0</ele><time>2026-05-03T08:46:31.594Z</time></trkpt><trkpt lat="45.9305" lon="13.4710283"><ele>35.666666666666664</ele><time>2026-05-03T08:46:32.595Z</time></trkpt><trkpt lat="45.9305483" lon="13.4711517"><ele>35.33333333333333</ele><time>2026-05-03T08:46:34.595Z</time></trkpt><trkpt lat="45.930595" lon="13.4712617"><ele>35.0</ele><time>2026-05-03T08:46:37.597Z</time></trkpt><trkpt lat="45.9306233" lon="13.47135"><ele>35.0</ele><time>2026-05-03T08:46:39.594Z</time></trkpt><trkpt lat="45.9306583" lon="13.47145"><ele>35.0</ele><time>2026-05-03T08:46:41.599Z</time></trkpt><trkpt lat="45.9307067" lon="13.471555"><ele>35.0</ele><time>2026-05-03T08:46:43.595Z</time></trkpt><trkpt lat="45.93076" lon="13.4716717"><ele>35.0</ele><time>2026-05-03T08:46:45.595Z</time></trkpt><trkpt lat="45.9308083" lon="13.4717833"><ele>35.0</ele><time>2026-05-03T08:46:47.596Z</time></trkpt><trkpt lat="45.93087" lon="13.47186"><ele>35.0</ele><time>2026-05-03T08:46:50.594Z</time></trkpt><trkpt lat="45.9309433" lon="13.4718167"><ele>35.2</ele><time>2026-05-03T08:46:53.595Z</time></trkpt><trkpt lat="45.93102" lon="13.4717683"><ele>35.4</ele><time>2026-05-03T08:46:55.594Z</time></trkpt><trkpt lat="45.931085" lon="13.4717233"><ele>35.6</ele><time>2026-05-03T08:46:56.595Z</time></trkpt><trkpt lat="45.9311667" lon="13.4716667"><ele>35.8</ele><time>2026-05-03T08:46:57.596Z</time></trkpt><trkpt lat="45.9312583" lon="13.4716"><ele>36.0</ele><time>2026-05-03T08:46:58.595Z</time></trkpt><trkpt lat="45.93136" lon="13.4715283"><ele>36.0</ele><time>2026-05-03T08:46:59.594Z</time></trkpt><trkpt lat="45.9314683" lon="13.4714517"><ele>36.0</ele><time>2026-05-03T08:47:00.593Z</time></trkpt><trkpt lat="45.93158" lon="13.4713733"><ele>36.0</ele><time>2026-05-03T08:47:01.593Z</time></trkpt><trkpt lat="45.93169" lon="13.4712933"><ele>36.0</ele><time>2026-05-03T08:47:02.594Z</time></trkpt><trkpt lat="45.9317967" lon="13.4712167"><ele>36.25</ele><time>2026-05-03T08:47:03.595Z</time></trkpt><trkpt lat="45.931905" lon="13.4711383"><ele>36.5</ele><time>2026-05-03T08:47:04.595Z</time></trkpt><trkpt lat="45.9320117" lon="13.4710617"><ele>36.75</ele><time>2026-05-03T08:47:05.595Z</time></trkpt><trkpt lat="45.932125" lon="13.4709783"><ele>37.0</ele><time>2026-05-03T08:47:06.595Z</time></trkpt><trkpt lat="45.9322417" lon="13.4708933"><ele>37.0</ele><time>2026-05-03T08:47:07.594Z</time></trkpt><trkpt lat="45.9323633" lon="13.4708033"><ele>37.0</ele><time>2026-05-03T08:47:08.596Z</time></trkpt><trkpt lat="45.93248" lon="13.4707167"><ele>37.0</ele><time>2026-05-03T08:47:09.594Z</time></trkpt><trkpt lat="45.9325833" lon="13.4706433"><ele>37.0</ele><time>2026-05-03T08:47:10.595Z</time></trkpt><trkpt lat="45.9326717" lon="13.4705817"><ele>36.833333333333336</ele><time>2026-05-03T08:47:11.597Z</time></trkpt><trkpt lat="45.9327533" lon="13.4705283"><ele>36.66666666666667</ele><time>2026-05-03T08:47:12.595Z</time></trkpt><trkpt lat="45.93283" lon="13.470485"><ele>36.5</ele><time>2026-05-03T08:47:13.594Z</time></trkpt><trkpt lat="45.9329133" lon="13.4704617"><ele>36.333333333333336</ele><time>2026-05-03T08:47:14.595Z</time></trkpt><trkpt lat="45.9330017" lon="13.470455"><ele>36.166666666666664</ele><time>2026-05-03T08:47:15.593Z</time></trkpt><trkpt lat="45.9330967" lon="13.470465"><ele>36.0</ele><time>2026-05-03T08:47:16.595Z</time></trkpt><trkpt lat="45.9332017" lon="13.470485"><ele>36.0</ele><time>2026-05-03T08:47:17.596Z</time></trkpt><trkpt lat="45.9333167" lon="13.47051"><ele>36.0</ele><time>2026-05-03T08:47:18.595Z</time></trkpt><trkpt lat="45.93343" lon="13.4705367"><ele>36.0</ele><time>2026-05-03T08:47:19.596Z</time></trkpt><trkpt lat="45.9335517" lon="13.4705567"><ele>36.0</ele><time>2026-05-03T08:47:20.594Z</time></trkpt><trkpt lat="45.933675" lon="13.4705683"><ele>36.25</ele><time>2026-05-03T08:47:21.595Z</time></trkpt><trkpt lat="45.9337867" lon="13.4705783"><ele>36.5</ele><time>2026-05-03T08:47:22.594Z</time></trkpt><trkpt lat="45.9338917" lon="13.470595"><ele>36.75</ele><time>2026-05-03T08:47:23.594Z</time></trkpt><trkpt lat="45.9340033" lon="13.4706183"><ele>37.0</ele><time>2026-05-03T08:47:24.594Z</time></trkpt><trkpt lat="45.9341217" lon="13.47064"><ele>36.75</ele><time>2026-05-03T08:47:25.595Z</time></trkpt><trkpt lat="45.9342467" lon="13.4706583"><ele>36.5</ele><time>2026-05-03T08:47:26.595Z</time></trkpt><trkpt lat="45.9343783" lon="13.4706767"><ele>36.25</ele><time>2026-05-03T08:47:27.594Z</time></trkpt><trkpt lat="45.934515" lon="13.4706917"><ele>36.0</ele><time>2026-05-03T08:47:28.594Z</time></trkpt><trkpt lat="45.9346467" lon="13.4706967"><ele>36.0</ele><time>2026-05-03T08:47:29.597Z</time></trkpt><trkpt lat="45.9347783" lon="13.4707083"><ele>36.0</ele><time>2026-05-03T08:47:30.595Z</time></trkpt><trkpt lat="45.934915" lon="13.4707217"><ele>36.0</ele><time>2026-05-03T08:47:31.597Z</time></trkpt><trkpt lat="45.9350517" lon="13.4707333"><ele>36.0</ele><time>2026-05-03T08:47:32.594Z</time></trkpt><trkpt lat="45.9351874" lon="13.4707488"><ele>36.5</ele><time>2026-05-03T08:47:33.595Z</time></trkpt><trkpt lat="45.9353225" lon="13.4707645"><ele>37.0</ele><time>2026-05-03T08:47:34.596Z</time></trkpt><trkpt lat="45.9354489" lon="13.4707805"><ele>37.5</ele><time>2026-05-03T08:47:35.596Z</time></trkpt><trkpt lat="45.9355693" lon="13.4707936"><ele>38.0</ele><time>2026-05-03T08:47:36.594Z</time></trkpt><trkpt lat="45.935676" lon="13.4708042"><ele>38.0</ele><time>2026-05-03T08:47:37.594Z</time></trkpt><trkpt lat="45.935776" lon="13.4708158"><ele>38.0</ele><time>2026-05-03T08:47:38.597Z</time></trkpt><trkpt lat="45.9358795" lon="13.470827"><ele>38.0</ele><time>2026-05-03T08:47:39.596Z</time></trkpt><trkpt lat="45.9359859" lon="13.4708405"><ele>38.0</ele><time>2026-05-03T08:47:40.596Z</time></trkpt><trkpt lat="45.9360968" lon="13.4708537"><ele>38.0</ele><time>2026-05-03T08:47:41.598Z</time></trkpt><trkpt lat="45.9362091" lon="13.4708717"><ele>37.6</ele><time>2026-05-03T08:47:42.596Z</time></trkpt><trkpt lat="45.9363237" lon="13.4708887"><ele>37.199999999999996</ele><time>2026-05-03T08:47:43.595Z</time></trkpt><trkpt lat="45.9364356" lon="13.4709051"><ele>36.8</ele><time>2026-05-03T08:47:44.595Z</time></trkpt><trkpt lat="45.9365458" lon="13.4709226"><ele>36.4</ele><time>2026-05-03T08:47:45.596Z</time></trkpt><trkpt lat="45.9366446" lon="13.4709338"><ele>36.0</ele><time>2026-05-03T08:47:46.596Z</time></trkpt><trkpt lat="45.9367268" lon="13.4709383"><ele>36.0</ele><time>2026-05-03T08:47:47.597Z</time></trkpt><trkpt lat="45.9367973" lon="13.4709294"><ele>36.0</ele><time>2026-05-03T08:47:48.596Z</time></trkpt><trkpt lat="45.9368586" lon="13.4709067"><ele>36.0</ele><time>2026-05-03T08:47:49.595Z</time></trkpt><trkpt lat="45.9369728" lon="13.4708114"><ele>36.0</ele><time>2026-05-03T08:47:51.596Z</time></trkpt><trkpt lat="45.9370367" lon="13.4707485"><ele>36.0</ele><time>2026-05-03T08:47:52.595Z</time></trkpt><trkpt lat="45.9371028" lon="13.4706848"><ele>36.0</ele><time>2026-05-03T08:47:53.594Z</time></trkpt><trkpt lat="45.9371725" lon="13.4706278"><ele>36.0</ele><time>2026-05-03T08:47:54.597Z</time></trkpt><trkpt lat="45.937243" lon="13.4705756"><ele>36.0</ele><time>2026-05-03T08:47:55.594Z</time></trkpt><trkpt lat="45.9373183" lon="13.4705295"><ele>36.0</ele><time>2026-05-03T08:47:56.593Z</time></trkpt><trkpt lat="45.9374016" lon="13.4704841"><ele>36.0</ele><time>2026-05-03T08:47:57.595Z</time></trkpt><trkpt lat="45.9374872" lon="13.4704349"><ele>36.0</ele><time>2026-05-03T08:47:58.593Z</time></trkpt><trkpt lat="45.9375713" lon="13.4703766"><ele>36.0</ele><time>2026-05-03T08:47:59.594Z</time></trkpt><trkpt lat="45.9376548" lon="13.470316"><ele>36.4</ele><time>2026-05-03T08:48:00.594Z</time></trkpt><trkpt lat="45.9377395" lon="13.4702533"><ele>36.8</ele><time>2026-05-03T08:48:01.593Z</time></trkpt><trkpt lat="45.9378264" lon="13.4701916"><ele>37.199999999999996</ele><time>2026-05-03T08:48:02.596Z</time></trkpt><trkpt lat="45.9379203" lon="13.470137"><ele>37.6</ele><time>2026-05-03T08:48:03.593Z</time></trkpt><trkpt lat="45.9380199" lon="13.4700887"><ele>38.0</ele><time>2026-05-03T08:48:04.593Z</time></trkpt><trkpt lat="45.9381219" lon="13.4700377"><ele>38.0</ele><time>2026-05-03T08:48:05.594Z</time></trkpt><trkpt lat="45.9382243" lon="13.4699762"><ele>38.0</ele><time>2026-05-03T08:48:06.594Z</time></trkpt><trkpt lat="45.9383279" lon="13.4699023"><ele>38.0</ele><time>2026-05-03T08:48:07.599Z</time></trkpt><trkpt lat="45.9384324" lon="13.4698219"><ele>38.0</ele><time>2026-05-03T08:48:08.594Z</time></trkpt><trkpt lat="45.9385376" lon="13.4697414"><ele>37.75</ele><time>2026-05-03T08:48:09.593Z</time></trkpt><trkpt lat="45.9386459" lon="13.469655"><ele>37.5</ele><time>2026-05-03T08:48:10.594Z</time></trkpt><trkpt lat="45.938755" lon="13.4695622"><ele>37.25</ele><time>2026-05-03T08:48:11.594Z</time></trkpt><trkpt lat="45.9388678" lon="13.4694657"><ele>37.0</ele><time>2026-05-03T08:48:12.594Z</time></trkpt><trkpt lat="45.9389866" lon="13.4693717"><ele>37.0</ele><time>2026-05-03T08:48:13.593Z</time></trkpt><trkpt lat="45.939106" lon="13.469284"><ele>37.0</ele><time>2026-05-03T08:48:14.593Z</time></trkpt><trkpt lat="45.9392302" lon="13.4692035"><ele>37.0</ele><time>2026-05-03T08:48:15.593Z</time></trkpt><trkpt lat="45.9393542" lon="13.4691289"><ele>37.0</ele><time>2026-05-03T08:48:16.594Z</time></trkpt><trkpt lat="45.9394764" lon="13.4690658"><ele>36.25</ele><time>2026-05-03T08:48:17.594Z</time></trkpt><trkpt lat="45.939597" lon="13.4690196"><ele>35.5</ele><time>2026-05-03T08:48:18.593Z</time></trkpt><trkpt lat="45.939717" lon="13.4689909"><ele>34.75</ele><time>2026-05-03T08:48:19.593Z</time></trkpt><trkpt lat="45.9398367" lon="13.4689828"><ele>34.0</ele><time>2026-05-03T08:48:20.593Z</time></trkpt><trkpt lat="45.9399511" lon="13.4689984"><ele>34.8</ele><time>2026-05-03T08:48:21.593Z</time></trkpt><trkpt lat="45.9400643" lon="13.4690289"><ele>35.599999999999994</ele><time>2026-05-03T08:48:22.593Z</time></trkpt><trkpt lat="45.9401758" lon="13.4690611"><ele>36.4</ele><time>2026-05-03T08:48:23.593Z</time></trkpt><trkpt lat="45.9402806" lon="13.4690802"><ele>37.199999999999996</ele><time>2026-05-03T08:48:24.593Z</time></trkpt><trkpt lat="45.9403809" lon="13.4690782"><ele>38.0</ele><time>2026-05-03T08:48:25.593Z</time></trkpt><trkpt lat="45.9404787" lon="13.4690518"><ele>38.0</ele><time>2026-05-03T08:48:26.593Z</time></trkpt><trkpt lat="45.9405776" lon="13.469"><ele>38.0</ele><time>2026-05-03T08:48:27.594Z</time></trkpt><trkpt lat="45.9406809" lon="13.4689326"><ele>38.0</ele><time>2026-05-03T08:48:28.593Z</time></trkpt><trkpt lat="45.9407829" lon="13.468865"><ele>38.0</ele><time>2026-05-03T08:48:29.593Z</time></trkpt><trkpt lat="45.9408868" lon="13.4688096"><ele>38.0</ele><time>2026-05-03T08:48:30.594Z</time></trkpt><trkpt lat="45.9409959" lon="13.4687687"><ele>38.25</ele><time>2026-05-03T08:48:31.594Z</time></trkpt><trkpt lat="45.9411101" lon="13.4687503"><ele>38.5</ele><time>2026-05-03T08:48:32.593Z</time></trkpt><trkpt lat="45.9412255" lon="13.468752"><ele>38.75</ele><time>2026-05-03T08:48:33.593Z</time></trkpt><trkpt lat="45.9413396" lon="13.4687749"><ele>39.0</ele><time>2026-05-03T08:48:34.593Z</time></trkpt><trkpt lat="45.9414546" lon="13.4688124"><ele>39.0</ele><time>2026-05-03T08:48:35.594Z</time></trkpt><trkpt lat="45.9415724" lon="13.4688599"><ele>39.0</ele><time>2026-05-03T08:48:36.595Z</time></trkpt><trkpt lat="45.9416924" lon="13.4689123"><ele>39.0</ele><time>2026-05-03T08:48:37.593Z</time></trkpt><trkpt lat="45.9418154" lon="13.4689618"><ele>39.0</ele><time>2026-05-03T08:48:38.595Z</time></trkpt><trkpt lat="45.9419404" lon="13.4690075"><ele>39.0</ele><time>2026-05-03T08:48:39.594Z</time></trkpt><trkpt lat="45.9420646" lon="13.4690521"><ele>39.0</ele><time>2026-05-03T08:48:40.594Z</time></trkpt><trkpt lat="45.9421884" lon="13.4690927"><ele>39.0</ele><time>2026-05-03T08:48:41.594Z</time></trkpt><trkpt lat="45.9423031" lon="13.4691316"><ele>39.0</ele><time>2026-05-03T08:48:42.593Z</time></trkpt><trkpt lat="45.9424085" lon="13.469167"><ele>39.0</ele><time>2026-05-03T08:48:43.593Z</time></trkpt><trkpt lat="45.9425026" lon="13.4691969"><ele>39.0</ele><time>2026-05-03T08:48:44.594Z</time></trkpt><trkpt lat="45.9425863" lon="13.4692249"><ele>39.0</ele><time>2026-05-03T08:48:45.594Z</time></trkpt><trkpt lat="45.9426598" lon="13.4692504"><ele>39.0</ele><time>2026-05-03T08:48:46.593Z</time></trkpt><trkpt lat="45.9427242" lon="13.4692651"><ele>39.0</ele><time>2026-05-03T08:48:47.593Z</time></trkpt><trkpt lat="45.9428223" lon="13.4692431"><ele>39.0</ele><time>2026-05-03T08:48:49.593Z</time></trkpt><trkpt lat="45.9429209" lon="13.4691455"><ele>39.0</ele><time>2026-05-03T08:48:51.593Z</time></trkpt><trkpt lat="45.9429917" lon="13.4690715"><ele>39.0</ele><time>2026-05-03T08:48:52.593Z</time></trkpt><trkpt lat="45.9430845" lon="13.4689885"><ele>39.0</ele><time>2026-05-03T08:48:53.594Z</time></trkpt><trkpt lat="45.9431918" lon="13.4689017"><ele>39.0</ele><time>2026-05-03T08:48:54.594Z</time></trkpt><trkpt lat="45.9433122" lon="13.4688138"><ele>39.666666666666664</ele><time>2026-05-03T08:48:55.594Z</time></trkpt><trkpt lat="45.9434407" lon="13.4687276"><ele>40.33333333333333</ele><time>2026-05-03T08:48:56.594Z</time></trkpt><trkpt lat="45.943571" lon="13.4686124"><ele>41.0</ele><time>2026-05-03T08:48:57.593Z</time></trkpt><trkpt lat="45.943715" lon="13.46852"><ele>41.0</ele><time>2026-05-03T08:48:58.593Z</time></trkpt><trkpt lat="45.9438599" lon="13.4684189"><ele>41.0</ele><time>2026-05-03T08:48:59.594Z</time></trkpt><trkpt lat="45.9440014" lon="13.468297"><ele>41.0</ele><time>2026-05-03T08:49:00.593Z</time></trkpt><trkpt lat="45.9441476" lon="13.4681777"><ele>41.0</ele><time>2026-05-03T08:49:01.596Z</time></trkpt><trkpt lat="45.9442936" lon="13.4680673"><ele>41.0</ele><time>2026-05-03T08:49:02.594Z</time></trkpt><trkpt lat="45.9444407" lon="13.4679733"><ele>41.0</ele><time>2026-05-03T08:49:03.594Z</time></trkpt><trkpt lat="45.9445926" lon="13.4678949"><ele>41.0</ele><time>2026-05-03T08:49:04.593Z</time></trkpt><trkpt lat="45.9447462" lon="13.4678294"><ele>41.0</ele><time>2026-05-03T08:49:05.595Z</time></trkpt><trkpt lat="45.9448979" lon="13.4677811"><ele>41.0</ele><time>2026-05-03T08:49:06.594Z</time></trkpt><trkpt lat="45.9450501" lon="13.4677233"><ele>42.0</ele><time>2026-05-03T08:49:07.595Z</time></trkpt><trkpt lat="45.9452033" lon="13.4676422"><ele>43.0</ele><time>2026-05-03T08:49:08.595Z</time></trkpt><trkpt lat="45.9453558" lon="13.4675398"><ele>44.0</ele><time>2026-05-03T08:49:09.593Z</time></trkpt><trkpt lat="45.9455033" lon="13.4674554"><ele>44.0</ele><time>2026-05-03T08:49:10.594Z</time></trkpt><trkpt lat="45.9456367" lon="13.4673788"><ele>44.0</ele><time>2026-05-03T08:49:11.594Z</time></trkpt><trkpt lat="45.9457482" lon="13.4673163"><ele>44.0</ele><time>2026-05-03T08:49:12.594Z</time></trkpt><trkpt lat="45.9458405" lon="13.467267"><ele>44.0</ele><time>2026-05-03T08:49:13.596Z</time></trkpt><trkpt lat="45.9459112" lon="13.4672359"><ele>44.0</ele><time>2026-05-03T08:49:14.593Z</time></trkpt><trkpt lat="45.9460125" lon="13.4672433"><ele>44.0</ele><time>2026-05-03T08:49:16.594Z</time></trkpt><trkpt lat="45.9460903" lon="13.4673614"><ele>44.0</ele><time>2026-05-03T08:49:18.594Z</time></trkpt><trkpt lat="45.9461302" lon="13.4674604"><ele>44.0</ele><time>2026-05-03T08:49:19.595Z</time></trkpt><trkpt lat="45.9461782" lon="13.4675625"><ele>44.0</ele><time>2026-05-03T08:49:20.593Z</time></trkpt><trkpt lat="45.9462397" lon="13.4676719"><ele>44.0</ele><time>2026-05-03T08:49:21.594Z</time></trkpt><trkpt lat="45.9463104" lon="13.4677932"><ele>44.0</ele><time>2026-05-03T08:49:22.594Z</time></trkpt><trkpt lat="45.9463959" lon="13.4679268"><ele>44.0</ele><time>2026-05-03T08:49:23.595Z</time></trkpt><trkpt lat="45.9464809" lon="13.4680852"><ele>44.0</ele><time>2026-05-03T08:49:24.593Z</time></trkpt><trkpt lat="45.9465695" lon="13.4682646"><ele>44.0</ele><time>2026-05-03T08:49:25.595Z</time></trkpt><trkpt lat="45.9466665" lon="13.4684577"><ele>44.33333333333333</ele><time>2026-05-03T08:49:26.594Z</time></trkpt><trkpt lat="45.946771" lon="13.4686617"><ele>44.666666666666664</ele><time>2026-05-03T08:49:27.594Z</time></trkpt><trkpt lat="45.946881" lon="13.4688716"><ele>45.0</ele><time>2026-05-03T08:49:28.593Z</time></trkpt><trkpt lat="45.9469907" lon="13.4690806"><ele>45.0</ele><time>2026-05-03T08:49:29.593Z</time></trkpt><trkpt lat="45.9471036" lon="13.4692889"><ele>45.0</ele><time>2026-05-03T08:49:30.594Z</time></trkpt><trkpt lat="45.9472143" lon="13.4694947"><ele>45.0</ele><time>2026-05-03T08:49:31.594Z</time></trkpt><trkpt lat="45.9473188" lon="13.4696887"><ele>45.0</ele><time>2026-05-03T08:49:32.594Z</time></trkpt><trkpt lat="45.9474136" lon="13.4698644"><ele>45.0</ele><time>2026-05-03T08:49:33.594Z</time></trkpt><trkpt lat="45.9474969" lon="13.4700187"><ele>45.0</ele><time>2026-05-03T08:49:34.593Z</time></trkpt><trkpt lat="45.9475718" lon="13.4701585"><ele>45.0</ele><time>2026-05-03T08:49:35.593Z</time></trkpt><trkpt lat="45.9476439" lon="13.4702865"><ele>44.8</ele><time>2026-05-03T08:49:36.594Z</time></trkpt><trkpt lat="45.9477103" lon="13.4703958"><ele>44.6</ele><time>2026-05-03T08:49:37.593Z</time></trkpt><trkpt lat="45.9477658" lon="13.4704829"><ele>44.400000000000006</ele><time>2026-05-03T08:49:38.595Z</time></trkpt><trkpt lat="45.9478182" lon="13.4705457"><ele>44.2</ele><time>2026-05-03T08:49:40.595Z</time></trkpt><trkpt lat="45.947911" lon="13.4705756"><ele>44.0</ele><time>2026-05-03T08:49:45.594Z</time></trkpt><trkpt lat="45.9480419" lon="13.4705201"><ele>44.0</ele><time>2026-05-03T08:49:47.595Z</time></trkpt><trkpt lat="45.948135" lon="13.47045"><ele>44.0</ele><time>2026-05-03T08:49:48.594Z</time></trkpt><trkpt lat="45.9482333" lon="13.4703717"><ele>44.0</ele><time>2026-05-03T08:49:49.595Z</time></trkpt><trkpt lat="45.9483483" lon="13.4702783"><ele>44.0</ele><time>2026-05-03T08:49:50.593Z</time></trkpt><trkpt lat="45.9484817" lon="13.470175"><ele>43.75</ele><time>2026-05-03T08:49:51.594Z</time></trkpt><trkpt lat="45.9486183" lon="13.4700817"><ele>43.5</ele><time>2026-05-03T08:49:52.594Z</time></trkpt><trkpt lat="45.9487417" lon="13.4699833"><ele>43.25</ele><time>2026-05-03T08:49:53.595Z</time></trkpt><trkpt lat="45.94886" lon="13.4698833"><ele>43.0</ele><time>2026-05-03T08:49:54.594Z</time></trkpt><trkpt lat="45.948975" lon="13.4697883"><ele>43.0</ele><time>2026-05-03T08:49:55.593Z</time></trkpt><trkpt lat="45.9490933" lon="13.4696983"><ele>43.0</ele><time>2026-05-03T08:49:56.597Z</time></trkpt><trkpt lat="45.9492167" lon="13.4696"><ele>43.0</ele><time>2026-05-03T08:49:57.594Z</time></trkpt><trkpt lat="45.9493483" lon="13.4694933"><ele>43.0</ele><time>2026-05-03T08:49:58.593Z</time></trkpt><trkpt lat="45.9494817" lon="13.469385"><ele>43.5</ele><time>2026-05-03T08:49:59.594Z</time></trkpt><trkpt lat="45.94961" lon="13.4692817"><ele>44.0</ele><time>2026-05-03T08:50:00.594Z</time></trkpt><trkpt lat="45.949735" lon="13.4691883"><ele>44.5</ele><time>2026-05-03T08:50:01.593Z</time></trkpt><trkpt lat="45.9498583" lon="13.4691"><ele>45.0</ele><time>2026-05-03T08:50:02.593Z</time></trkpt><trkpt lat="45.94999" lon="13.4690217"><ele>45.25</ele><time>2026-05-03T08:50:03.593Z</time></trkpt><trkpt lat="45.9501283" lon="13.4689533"><ele>45.5</ele><time>2026-05-03T08:50:04.594Z</time></trkpt><trkpt lat="45.9502617" lon="13.4689"><ele>45.75</ele><time>2026-05-03T08:50:05.594Z</time></trkpt><trkpt lat="45.9503833" lon="13.46886"><ele>46.0</ele><time>2026-05-03T08:50:06.594Z</time></trkpt><trkpt lat="45.95049" lon="13.468825"><ele>46.0</ele><time>2026-05-03T08:50:07.593Z</time></trkpt><trkpt lat="45.95059" lon="13.4688017"><ele>46.0</ele><time>2026-05-03T08:50:08.594Z</time></trkpt><trkpt lat="45.9506783" lon="13.4687967"><ele>46.0</ele><time>2026-05-03T08:50:09.594Z</time></trkpt><trkpt lat="45.95076" lon="13.4688133"><ele>46.0</ele><time>2026-05-03T08:50:10.593Z</time></trkpt><trkpt lat="45.9508367" lon="13.468845"><ele>46.0</ele><time>2026-05-03T08:50:11.593Z</time></trkpt><trkpt lat="45.9509167" lon="13.468895"><ele>46.0</ele><time>2026-05-03T08:50:12.593Z</time></trkpt><trkpt lat="45.9509917" lon="13.4689983"><ele>47.0</ele><time>2026-05-03T08:50:13.595Z</time></trkpt><trkpt lat="45.9510883" lon="13.4691117"><ele>48.0</ele><time>2026-05-03T08:50:14.594Z</time></trkpt><trkpt lat="45.9511817" lon="13.46925"><ele>49.0</ele><time>2026-05-03T08:50:15.593Z</time></trkpt><trkpt lat="45.95128" lon="13.469385"><ele>50.0</ele><time>2026-05-03T08:50:16.594Z</time></trkpt><trkpt lat="45.9513817" lon="13.4695183"><ele>49.5</ele><time>2026-05-03T08:50:17.595Z</time></trkpt><trkpt lat="45.951485" lon="13.46965"><ele>49.0</ele><time>2026-05-03T08:50:18.596Z</time></trkpt><trkpt lat="45.9515783" lon="13.469785"><ele>48.5</ele><time>2026-05-03T08:50:19.595Z</time></trkpt><trkpt lat="45.9516617" lon="13.4699167"><ele>48.0</ele><time>2026-05-03T08:50:20.596Z</time></trkpt><trkpt lat="45.95175" lon="13.470025"><ele>48.0</ele><time>2026-05-03T08:50:21.594Z</time></trkpt><trkpt lat="45.951825" lon="13.47013"><ele>48.0</ele><time>2026-05-03T08:50:22.594Z</time></trkpt><trkpt lat="45.9518917" lon="13.4702283"><ele>48.0</ele><time>2026-05-03T08:50:23.596Z</time></trkpt><trkpt lat="45.951955" lon="13.4703217"><ele>48.0</ele><time>2026-05-03T08:50:24.595Z</time></trkpt><trkpt lat="45.95202" lon="13.4704083"><ele>48.0</ele><time>2026-05-03T08:50:25.594Z</time></trkpt><trkpt lat="45.95209" lon="13.4704883"><ele>48.0</ele><time>2026-05-03T08:50:26.596Z</time></trkpt><trkpt lat="45.95217" lon="13.4705667"><ele>48.0</ele><time>2026-05-03T08:50:27.595Z</time></trkpt><trkpt lat="45.9522467" lon="13.4706617"><ele>48.0</ele><time>2026-05-03T08:50:28.594Z</time></trkpt><trkpt lat="45.9523283" lon="13.4707533"><ele>48.0</ele><time>2026-05-03T08:50:29.596Z</time></trkpt><trkpt lat="45.952405" lon="13.4708433"><ele>48.0</ele><time>2026-05-03T08:50:30.594Z</time></trkpt><trkpt lat="45.952485" lon="13.4709233"><ele>48.0</ele><time>2026-05-03T08:50:31.594Z</time></trkpt><trkpt lat="45.9525583" lon="13.4709933"><ele>48.0</ele><time>2026-05-03T08:50:32.596Z</time></trkpt><trkpt lat="45.952625" lon="13.4710633"><ele>48.0</ele><time>2026-05-03T08:50:33.594Z</time></trkpt><trkpt lat="45.95269" lon="13.4711267"><ele>48.0</ele><time>2026-05-03T08:50:34.596Z</time></trkpt><trkpt lat="45.952765" lon="13.4711917"><ele>48.0</ele><time>2026-05-03T08:50:35.595Z</time></trkpt><trkpt lat="45.952845" lon="13.47126"><ele>48.0</ele><time>2026-05-03T08:50:36.594Z</time></trkpt><trkpt lat="45.95293" lon="13.471335"><ele>48.0</ele><time>2026-05-03T08:50:37.597Z</time></trkpt><trkpt lat="45.953025" lon="13.471415"><ele>48.0</ele><time>2026-05-03T08:50:38.595Z</time></trkpt><trkpt lat="45.9531217" lon="13.4715033"><ele>48.0</ele><time>2026-05-03T08:50:39.593Z</time></trkpt><trkpt lat="45.95322" lon="13.4716067"><ele>48.0</ele><time>2026-05-03T08:50:40.594Z</time></trkpt><trkpt lat="45.9533167" lon="13.4717"><ele>47.75</ele><time>2026-05-03T08:50:41.595Z</time></trkpt><trkpt lat="45.95342" lon="13.4717817"><ele>47.5</ele><time>2026-05-03T08:50:42.595Z</time></trkpt><trkpt lat="45.9535167" lon="13.47188"><ele>47.25</ele><time>2026-05-03T08:50:43.596Z</time></trkpt><trkpt lat="45.9536133" lon="13.4719667"><ele>47.0</ele><time>2026-05-03T08:50:44.596Z</time></trkpt><trkpt lat="45.9537067" lon="13.472045"><ele>47.6</ele><time>2026-05-03T08:50:45.594Z</time></trkpt><trkpt lat="45.9538" lon="13.4721317"><ele>48.2</ele><time>2026-05-03T08:50:46.596Z</time></trkpt><trkpt lat="45.953895" lon="13.4722083"><ele>48.8</ele><time>2026-05-03T08:50:47.594Z</time></trkpt><trkpt lat="45.953995" lon="13.4722833"><ele>49.4</ele><time>2026-05-03T08:50:48.595Z</time></trkpt><trkpt lat="45.9540883" lon="13.472355"><ele>50.0</ele><time>2026-05-03T08:50:49.595Z</time></trkpt><trkpt lat="45.954185" lon="13.4723917"><ele>49.8</ele><time>2026-05-03T08:50:50.596Z</time></trkpt><trkpt lat="45.9542817" lon="13.4724"><ele>49.6</ele><time>2026-05-03T08:50:51.595Z</time></trkpt><trkpt lat="45.954385" lon="13.472375"><ele>49.400000000000006</ele><time>2026-05-03T08:50:52.596Z</time></trkpt><trkpt lat="45.9544983" lon="13.4723283"><ele>49.2</ele><time>2026-05-03T08:50:53.595Z</time></trkpt><trkpt lat="45.9546083" lon="13.472295"><ele>49.0</ele><time>2026-05-03T08:50:54.594Z</time></trkpt><trkpt lat="45.9547183" lon="13.472255"><ele>49.0</ele><time>2026-05-03T08:50:55.596Z</time></trkpt><trkpt lat="45.9548283" lon="13.4722317"><ele>49.0</ele><time>2026-05-03T08:50:56.595Z</time></trkpt><trkpt lat="45.9549367" lon="13.4722033"><ele>49.0</ele><time>2026-05-03T08:50:57.594Z</time></trkpt><trkpt lat="45.9550467" lon="13.4721867"><ele>49.0</ele><time>2026-05-03T08:50:58.595Z</time></trkpt><trkpt lat="45.955155" lon="13.4721617"><ele>49.0</ele><time>2026-05-03T08:50:59.595Z</time></trkpt><trkpt lat="45.9552683" lon="13.4721367"><ele>49.2</ele><time>2026-05-03T08:51:00.594Z</time></trkpt><trkpt lat="45.95538" lon="13.47211"><ele>49.400000000000006</ele><time>2026-05-03T08:51:01.596Z</time></trkpt><trkpt lat="45.95548" lon="13.472085"><ele>49.6</ele><time>2026-05-03T08:51:02.595Z</time></trkpt><trkpt lat="45.9555733" lon="13.4720667"><ele>49.8</ele><time>2026-05-03T08:51:03.594Z</time></trkpt><trkpt lat="45.9556517" lon="13.4720483"><ele>50.0</ele><time>2026-05-03T08:51:04.594Z</time></trkpt><trkpt lat="45.9557167" lon="13.4720367"><ele>50.00000000000001</ele><time>2026-05-03T08:51:05.595Z</time></trkpt><trkpt lat="45.9558167" lon="13.4720167"><ele>50.0</ele><time>2026-05-03T08:51:07.596Z</time></trkpt><trkpt lat="45.9559133" lon="13.4720217"><ele>50.0</ele><time>2026-05-03T08:51:09.594Z</time></trkpt><trkpt lat="45.9560033" lon="13.4721017"><ele>50.0</ele><time>2026-05-03T08:51:11.594Z</time></trkpt><trkpt lat="45.9560367" lon="13.47218"><ele>50.00000000000001</ele><time>2026-05-03T08:51:12.595Z</time></trkpt><trkpt lat="45.956055" lon="13.4722767"><ele>50.0</ele><time>2026-05-03T08:51:13.595Z</time></trkpt><trkpt lat="45.956065" lon="13.4723883"><ele>50.0</ele><time>2026-05-03T08:51:14.598Z</time></trkpt><trkpt lat="45.9560783" lon="13.472515"><ele>50.0</ele><time>2026-05-03T08:51:15.595Z</time></trkpt><trkpt lat="45.9560933" lon="13.47265"><ele>50.0</ele><time>2026-05-03T08:51:16.595Z</time></trkpt><trkpt lat="45.956105" lon="13.4727917"><ele>50.0</ele><time>2026-05-03T08:51:17.595Z</time></trkpt><trkpt lat="45.9561167" lon="13.4729267"><ele>50.0</ele><time>2026-05-03T08:51:18.596Z</time></trkpt><trkpt lat="45.9561333" lon="13.4730617"><ele>50.0</ele><time>2026-05-03T08:51:19.596Z</time></trkpt><trkpt lat="45.956145" lon="13.473205"><ele>50.0</ele><time>2026-05-03T08:51:20.595Z</time></trkpt><trkpt lat="45.9561667" lon="13.4733517"><ele>50.0</ele><time>2026-05-03T08:51:21.595Z</time></trkpt><trkpt lat="45.9561833" lon="13.4735033"><ele>50.0</ele><time>2026-05-03T08:51:22.594Z</time></trkpt><trkpt lat="45.956195" lon="13.4736567"><ele>50.0</ele><time>2026-05-03T08:51:23.596Z</time></trkpt><trkpt lat="45.9562083" lon="13.4738083"><ele>50.2</ele><time>2026-05-03T08:51:24.595Z</time></trkpt><trkpt lat="45.9562217" lon="13.473955"><ele>50.4</ele><time>2026-05-03T08:51:25.595Z</time></trkpt><trkpt lat="45.956235" lon="13.474095"><ele>50.599999999999994</ele><time>2026-05-03T08:51:26.595Z</time></trkpt><trkpt lat="45.9562483" lon="13.47422"><ele>50.8</ele><time>2026-05-03T08:51:27.594Z</time></trkpt><trkpt lat="45.9562617" lon="13.474345"><ele>51.0</ele><time>2026-05-03T08:51:28.594Z</time></trkpt><trkpt lat="45.9562767" lon="13.4744767"><ele>51.0</ele><time>2026-05-03T08:51:29.595Z</time></trkpt><trkpt lat="45.95631" lon="13.4746167"><ele>51.0</ele><time>2026-05-03T08:51:30.594Z</time></trkpt><trkpt lat="45.956315" lon="13.4747633"><ele>51.0</ele><time>2026-05-03T08:51:31.595Z</time></trkpt><trkpt lat="45.9563383" lon="13.47491"><ele>51.0</ele><time>2026-05-03T08:51:32.595Z</time></trkpt><trkpt lat="45.9563583" lon="13.4750633"><ele>51.0</ele><time>2026-05-03T08:51:33.594Z</time></trkpt><trkpt lat="45.9563783" lon="13.475215"><ele>51.0</ele><time>2026-05-03T08:51:34.596Z</time></trkpt><trkpt lat="45.9564" lon="13.4753683"><ele>51.0</ele><time>2026-05-03T08:51:35.595Z</time></trkpt><trkpt lat="45.95642" lon="13.475515"><ele>51.0</ele><time>2026-05-03T08:51:36.596Z</time></trkpt><trkpt lat="45.9564433" lon="13.47566"><ele>51.0</ele><time>2026-05-03T08:51:37.595Z</time></trkpt><trkpt lat="45.95646" lon="13.4757983"><ele>51.0</ele><time>2026-05-03T08:51:38.595Z</time></trkpt><trkpt lat="45.956475" lon="13.4759317"><ele>51.0</ele><time>2026-05-03T08:51:39.594Z</time></trkpt><trkpt lat="45.9564983" lon="13.4760667"><ele>51.0</ele><time>2026-05-03T08:51:40.595Z</time></trkpt><trkpt lat="45.956515" lon="13.4762033"><ele>51.0</ele><time>2026-05-03T08:51:41.595Z</time></trkpt><trkpt lat="45.9565067" lon="13.4763333"><ele>51.0</ele><time>2026-05-03T08:51:42.595Z</time></trkpt><trkpt lat="45.9565333" lon="13.4764833"><ele>51.0</ele><time>2026-05-03T08:51:43.595Z</time></trkpt><trkpt lat="45.95654" lon="13.4766283"><ele>51.0</ele><time>2026-05-03T08:51:44.596Z</time></trkpt><trkpt lat="45.9565483" lon="13.4767767"><ele>51.0</ele><time>2026-05-03T08:51:45.594Z</time></trkpt><trkpt lat="45.9565683" lon="13.4769317"><ele>51.0</ele><time>2026-05-03T08:51:46.594Z</time></trkpt><trkpt lat="45.956585" lon="13.4770867"><ele>51.0</ele><time>2026-05-03T08:51:47.596Z</time></trkpt><trkpt lat="45.9565983" lon="13.4772433"><ele>51.0</ele><time>2026-05-03T08:51:48.594Z</time></trkpt><trkpt lat="45.9566133" lon="13.4773983"><ele>51.0</ele><time>2026-05-03T08:51:49.595Z</time></trkpt><trkpt lat="45.9566283" lon="13.4775483"><ele>51.0</ele><time>2026-05-03T08:51:50.596Z</time></trkpt><trkpt lat="45.9566433" lon="13.4776967"><ele>51.0</ele><time>2026-05-03T08:51:51.597Z</time></trkpt><trkpt lat="45.9566567" lon="13.477845"><ele>51.0</ele><time>2026-05-03T08:51:52.596Z</time></trkpt><trkpt lat="45.9566733" lon="13.47799"><ele>51.0</ele><time>2026-05-03T08:51:53.595Z</time></trkpt><trkpt lat="45.9566967" lon="13.4781467"><ele>51.4</ele><time>2026-05-03T08:51:54.595Z</time></trkpt><trkpt lat="45.9567117" lon="13.4783033"><ele>51.8</ele><time>2026-05-03T08:51:55.596Z</time></trkpt><trkpt lat="45.9567283" lon="13.4784567"><ele>52.199999999999996</ele><time>2026-05-03T08:51:56.596Z</time></trkpt><trkpt lat="45.9567467" lon="13.4786167"><ele>52.599999999999994</ele><time>2026-05-03T08:51:57.594Z</time></trkpt><trkpt lat="45.9567617" lon="13.4787833"><ele>53.0</ele><time>2026-05-03T08:51:58.595Z</time></trkpt><trkpt lat="45.9567733" lon="13.47895"><ele>53.5</ele><time>2026-05-03T08:51:59.596Z</time></trkpt><trkpt lat="45.95679" lon="13.4791167"><ele>54.0</ele><time>2026-05-03T08:52:00.596Z</time></trkpt><trkpt lat="45.9568083" lon="13.47928"><ele>54.5</ele><time>2026-05-03T08:52:01.596Z</time></trkpt><trkpt lat="45.9568367" lon="13.4794417"><ele>55.0</ele><time>2026-05-03T08:52:02.596Z</time></trkpt><trkpt lat="45.95685" lon="13.4796017"><ele>55.0</ele><time>2026-05-03T08:52:03.594Z</time></trkpt><trkpt lat="45.9568617" lon="13.4797667"><ele>55.0</ele><time>2026-05-03T08:52:04.595Z</time></trkpt><trkpt lat="45.9568783" lon="13.4799333"><ele>55.0</ele><time>2026-05-03T08:52:05.594Z</time></trkpt><trkpt lat="45.9568917" lon="13.4801017"><ele>55.0</ele><time>2026-05-03T08:52:06.594Z</time></trkpt><trkpt lat="45.95691" lon="13.4802683"><ele>55.6</ele><time>2026-05-03T08:52:07.595Z</time></trkpt><trkpt lat="45.9569317" lon="13.4804333"><ele>56.2</ele><time>2026-05-03T08:52:08.596Z</time></trkpt><trkpt lat="45.9569567" lon="13.4805967"><ele>56.8</ele><time>2026-05-03T08:52:09.595Z</time></trkpt><trkpt lat="45.95697" lon="13.4807583"><ele>57.4</ele><time>2026-05-03T08:52:10.594Z</time></trkpt><trkpt lat="45.9569933" lon="13.4809017"><ele>58.0</ele><time>2026-05-03T08:52:11.595Z</time></trkpt><trkpt lat="45.9569983" lon="13.48104"><ele>58.0</ele><time>2026-05-03T08:52:12.594Z</time></trkpt><trkpt lat="45.9570083" lon="13.4811833"><ele>58.0</ele><time>2026-05-03T08:52:13.594Z</time></trkpt><trkpt lat="45.9570267" lon="13.4813283"><ele>58.0</ele><time>2026-05-03T08:52:14.595Z</time></trkpt><trkpt lat="45.9570417" lon="13.4814733"><ele>58.0</ele><time>2026-05-03T08:52:15.593Z</time></trkpt><trkpt lat="45.95703" lon="13.481615"><ele>58.0</ele><time>2026-05-03T08:52:16.595Z</time></trkpt><trkpt lat="45.95701" lon="13.4817633"><ele>58.4</ele><time>2026-05-03T08:52:17.596Z</time></trkpt><trkpt lat="45.95698" lon="13.4819117"><ele>58.8</ele><time>2026-05-03T08:52:18.594Z</time></trkpt><trkpt lat="45.9569483" lon="13.48206"><ele>59.2</ele><time>2026-05-03T08:52:19.595Z</time></trkpt><trkpt lat="45.956925" lon="13.482215"><ele>59.6</ele><time>2026-05-03T08:52:20.596Z</time></trkpt><trkpt lat="45.9569017" lon="13.48238"><ele>60.0</ele><time>2026-05-03T08:52:21.595Z</time></trkpt><trkpt lat="45.9568867" lon="13.48255"><ele>60.8</ele><time>2026-05-03T08:52:22.593Z</time></trkpt><trkpt lat="45.9568767" lon="13.4827133"><ele>61.6</ele><time>2026-05-03T08:52:23.594Z</time></trkpt><trkpt lat="45.9568683" lon="13.4828667"><ele>62.400000000000006</ele><time>2026-05-03T08:52:24.595Z</time></trkpt><trkpt lat="45.9568617" lon="13.4830117"><ele>63.2</ele><time>2026-05-03T08:52:25.596Z</time></trkpt><trkpt lat="45.9568567" lon="13.4831533"><ele>64.0</ele><time>2026-05-03T08:52:26.595Z</time></trkpt><trkpt lat="45.9568533" lon="13.4832883"><ele>63.400000000000006</ele><time>2026-05-03T08:52:27.594Z</time></trkpt><trkpt lat="45.9568567" lon="13.4834167"><ele>62.800000000000004</ele><time>2026-05-03T08:52:28.595Z</time></trkpt><trkpt lat="45.9568833" lon="13.48353"><ele>62.199999999999996</ele><time>2026-05-03T08:52:29.595Z</time></trkpt><trkpt lat="45.95693" lon="13.4836433"><ele>61.599999999999994</ele><time>2026-05-03T08:52:30.598Z</time></trkpt><trkpt lat="45.95701" lon="13.4837717"><ele>61.0</ele><time>2026-05-03T08:52:31.594Z</time></trkpt><trkpt lat="45.957115" lon="13.4839217"><ele>61.0</ele><time>2026-05-03T08:52:32.596Z</time></trkpt><trkpt lat="45.9572267" lon="13.484085"><ele>61.0</ele><time>2026-05-03T08:52:33.595Z</time></trkpt><trkpt lat="45.9573367" lon="13.4842617"><ele>61.0</ele><time>2026-05-03T08:52:34.594Z</time></trkpt><trkpt lat="45.9574417" lon="13.484455"><ele>62.0</ele><time>2026-05-03T08:52:35.594Z</time></trkpt><trkpt lat="45.9575417" lon="13.4846433"><ele>63.0</ele><time>2026-05-03T08:52:36.593Z</time></trkpt><trkpt lat="45.95764" lon="13.4848217"><ele>64.0</ele><time>2026-05-03T08:52:37.594Z</time></trkpt><trkpt lat="45.9577483" lon="13.4849917"><ele>64.0</ele><time>2026-05-03T08:52:38.596Z</time></trkpt><trkpt lat="45.95786" lon="13.4851783"><ele>64.0</ele><time>2026-05-03T08:52:39.595Z</time></trkpt><trkpt lat="45.9579933" lon="13.4853433"><ele>64.0</ele><time>2026-05-03T08:52:40.595Z</time></trkpt><trkpt lat="45.9581367" lon="13.4854983"><ele>65.0</ele><time>2026-05-03T08:52:41.595Z</time></trkpt><trkpt lat="45.9582783" lon="13.4856583"><ele>66.0</ele><time>2026-05-03T08:52:42.595Z</time></trkpt><trkpt lat="45.9584217" lon="13.4858217"><ele>67.0</ele><time>2026-05-03T08:52:43.594Z</time></trkpt><trkpt lat="45.9585633" lon="13.48598"><ele>67.0</ele><time>2026-05-03T08:52:44.598Z</time></trkpt><trkpt lat="45.9587" lon="13.4861417"><ele>67.0</ele><time>2026-05-03T08:52:45.594Z</time></trkpt><trkpt lat="45.95881" lon="13.4863383"><ele>67.0</ele><time>2026-05-03T08:52:46.595Z</time></trkpt><trkpt lat="45.9589033" lon="13.4865383"><ele>65.33333333333333</ele><time>2026-05-03T08:52:47.594Z</time></trkpt><trkpt lat="45.9589983" lon="13.486715"><ele>63.66666666666667</ele><time>2026-05-03T08:52:48.594Z</time></trkpt><trkpt lat="45.9590883" lon="13.48689"><ele>62.0</ele><time>2026-05-03T08:52:49.595Z</time></trkpt><trkpt lat="45.959175" lon="13.48706"><ele>65.0</ele><time>2026-05-03T08:52:50.595Z</time></trkpt><trkpt lat="45.95926" lon="13.4872233"><ele>68.0</ele><time>2026-05-03T08:52:51.594Z</time></trkpt><trkpt lat="45.9593367" lon="13.4873833"><ele>71.0</ele><time>2026-05-03T08:52:52.595Z</time></trkpt><trkpt lat="45.9594117" lon="13.48754"><ele>74.0</ele><time>2026-05-03T08:52:53.595Z</time></trkpt><trkpt lat="45.9594733" lon="13.4876883"><ele>74.0</ele><time>2026-05-03T08:52:54.595Z</time></trkpt><trkpt lat="45.9595317" lon="13.48783"><ele>74.0</ele><time>2026-05-03T08:52:55.597Z</time></trkpt><trkpt lat="45.959585" lon="13.48798"><ele>74.0</ele><time>2026-05-03T08:52:56.596Z</time></trkpt><trkpt lat="45.95964" lon="13.4881383"><ele>74.0</ele><time>2026-05-03T08:52:57.594Z</time></trkpt><trkpt lat="45.9596983" lon="13.4883033"><ele>75.75</ele><time>2026-05-03T08:52:58.595Z</time></trkpt><trkpt lat="45.959755" lon="13.4884783"><ele>77.5</ele><time>2026-05-03T08:52:59.595Z</time></trkpt><trkpt lat="45.9598067" lon="13.4886567"><ele>79.25</ele><time>2026-05-03T08:53:00.595Z</time></trkpt><trkpt lat="45.95986" lon="13.488825"><ele>81.0</ele><time>2026-05-03T08:53:01.594Z</time></trkpt><trkpt lat="45.9599367" lon="13.4889533"><ele>83.5</ele><time>2026-05-03T08:53:02.595Z</time></trkpt><trkpt lat="45.9600217" lon="13.4890633"><ele>86.0</ele><time>2026-05-03T08:53:03.594Z</time></trkpt><trkpt lat="45.9601083" lon="13.4891717"><ele>88.5</ele><time>2026-05-03T08:53:04.595Z</time></trkpt><trkpt lat="45.96021" lon="13.489255"><ele>91.0</ele><time>2026-05-03T08:53:05.595Z</time></trkpt><trkpt lat="45.9603217" lon="13.4893033"><ele>91.8</ele><time>2026-05-03T08:53:06.595Z</time></trkpt><trkpt lat="45.9604233" lon="13.4893667"><ele>92.6</ele><time>2026-05-03T08:53:07.594Z</time></trkpt><trkpt lat="45.9605183" lon="13.489425"><ele>93.4</ele><time>2026-05-03T08:53:08.595Z</time></trkpt><trkpt lat="45.960595" lon="13.489515"><ele>94.2</ele><time>2026-05-03T08:53:09.595Z</time></trkpt><trkpt lat="45.9606733" lon="13.4896383"><ele>95.0</ele><time>2026-05-03T08:53:10.596Z</time></trkpt><trkpt lat="45.960765" lon="13.48979"><ele>92.75</ele><time>2026-05-03T08:53:11.595Z</time></trkpt><trkpt lat="45.9608783" lon="13.48992"><ele>90.5</ele><time>2026-05-03T08:53:12.595Z</time></trkpt><trkpt lat="45.9609967" lon="13.490055"><ele>88.25</ele><time>2026-05-03T08:53:13.595Z</time></trkpt><trkpt lat="45.9611083" lon="13.4901917"><ele>86.0</ele><time>2026-05-03T08:53:14.594Z</time></trkpt><trkpt lat="45.96122" lon="13.4903183"><ele>84.75</ele><time>2026-05-03T08:53:15.595Z</time></trkpt><trkpt lat="45.96132" lon="13.4904533"><ele>83.5</ele><time>2026-05-03T08:53:16.595Z</time></trkpt><trkpt lat="45.9614117" lon="13.4906"><ele>82.25</ele><time>2026-05-03T08:53:17.594Z</time></trkpt><trkpt lat="45.96148" lon="13.4907767"><ele>81.0</ele><time>2026-05-03T08:53:18.595Z</time></trkpt><trkpt lat="45.9615233" lon="13.4909833"><ele>81.0</ele><time>2026-05-03T08:53:19.594Z</time></trkpt><trkpt lat="45.9615583" lon="13.4912017"><ele>81.0</ele><time>2026-05-03T08:53:20.595Z</time></trkpt><trkpt lat="45.9616117" lon="13.49141"><ele>81.0</ele><time>2026-05-03T08:53:21.595Z</time></trkpt><trkpt lat="45.96166" lon="13.491615"><ele>79.5</ele><time>2026-05-03T08:53:22.594Z</time></trkpt><trkpt lat="45.9617267" lon="13.4917983"><ele>78.0</ele><time>2026-05-03T08:53:23.594Z</time></trkpt><trkpt lat="45.9618083" lon="13.4919767"><ele>76.5</ele><time>2026-05-03T08:53:24.595Z</time></trkpt><trkpt lat="45.961905" lon="13.4921533"><ele>75.0</ele><time>2026-05-03T08:53:25.595Z</time></trkpt><trkpt lat="45.962015" lon="13.49232"><ele>74.33333333333333</ele><time>2026-05-03T08:53:26.597Z</time></trkpt><trkpt lat="45.9621467" lon="13.49247"><ele>73.66666666666666</ele><time>2026-05-03T08:53:27.594Z</time></trkpt><trkpt lat="45.9622667" lon="13.4926317"><ele>73.0</ele><time>2026-05-03T08:53:28.594Z</time></trkpt><trkpt lat="45.962395" lon="13.4927967"><ele>74.66666666666666</ele><time>2026-05-03T08:53:29.595Z</time></trkpt><trkpt lat="45.9625317" lon="13.492955"><ele>76.33333333333333</ele><time>2026-05-03T08:53:30.595Z</time></trkpt><trkpt lat="45.9626667" lon="13.4931133"><ele>78.0</ele><time>2026-05-03T08:53:31.594Z</time></trkpt><trkpt lat="45.9628" lon="13.4932717"><ele>78.0</ele><time>2026-05-03T08:53:32.595Z</time></trkpt><trkpt lat="45.9629267" lon="13.4934183"><ele>78.0</ele><time>2026-05-03T08:53:33.595Z</time></trkpt><trkpt lat="45.9630533" lon="13.493545"><ele>78.0</ele><time>2026-05-03T08:53:34.597Z</time></trkpt><trkpt lat="45.96316" lon="13.4936867"><ele>77.66666666666667</ele><time>2026-05-03T08:53:35.595Z</time></trkpt><trkpt lat="45.9632683" lon="13.4938283"><ele>77.33333333333334</ele><time>2026-05-03T08:53:36.596Z</time></trkpt><trkpt lat="45.9633617" lon="13.494015"><ele>77.0</ele><time>2026-05-03T08:53:37.594Z</time></trkpt><trkpt lat="45.963475" lon="13.4941733"><ele>78.66666666666667</ele><time>2026-05-03T08:53:38.596Z</time></trkpt><trkpt lat="45.9635517" lon="13.494385"><ele>80.33333333333333</ele><time>2026-05-03T08:53:39.595Z</time></trkpt><trkpt lat="45.9636283" lon="13.4945883"><ele>82.0</ele><time>2026-05-03T08:53:40.594Z</time></trkpt><trkpt lat="45.96371" lon="13.49478"><ele>82.0</ele><time>2026-05-03T08:53:41.595Z</time></trkpt><trkpt lat="45.9638117" lon="13.4949283"><ele>82.0</ele><time>2026-05-03T08:53:42.597Z</time></trkpt><trkpt lat="45.9638967" lon="13.4950917"><ele>82.0</ele><time>2026-05-03T08:53:43.594Z</time></trkpt><trkpt lat="45.9639833" lon="13.49524"><ele>82.0</ele><time>2026-05-03T08:53:44.594Z</time></trkpt><trkpt lat="45.96407" lon="13.4953633"><ele>79.75</ele><time>2026-05-03T08:53:45.594Z</time></trkpt><trkpt lat="45.96415" lon="13.4954767"><ele>77.5</ele><time>2026-05-03T08:53:46.595Z</time></trkpt><trkpt lat="45.9642333" lon="13.495595"><ele>75.25</ele><time>2026-05-03T08:53:47.594Z</time></trkpt><trkpt lat="45.9643133" lon="13.4957233"><ele>73.0</ele><time>2026-05-03T08:53:48.595Z</time></trkpt><trkpt lat="45.9644033" lon="13.4958583"><ele>73.0</ele><time>2026-05-03T08:53:49.595Z</time></trkpt><trkpt lat="45.9645117" lon="13.4959733"><ele>73.0</ele><time>2026-05-03T08:53:50.596Z</time></trkpt><trkpt lat="45.964635" lon="13.4960767"><ele>73.0</ele><time>2026-05-03T08:53:51.595Z</time></trkpt><trkpt lat="45.9647567" lon="13.4961967"><ele>73.0</ele><time>2026-05-03T08:53:52.595Z</time></trkpt><trkpt lat="45.9649083" lon="13.4962567"><ele>68.66666666666666</ele><time>2026-05-03T08:53:53.596Z</time></trkpt><trkpt lat="45.9650367" lon="13.496365"><ele>64.33333333333333</ele><time>2026-05-03T08:53:54.595Z</time></trkpt><trkpt lat="45.9651883" lon="13.4964083"><ele>60.0</ele><time>2026-05-03T08:53:55.594Z</time></trkpt><trkpt lat="45.96533" lon="13.496495"><ele>60.0</ele><time>2026-05-03T08:53:56.595Z</time></trkpt><trkpt lat="45.96547" lon="13.4965383"><ele>60.0</ele><time>2026-05-03T08:53:57.595Z</time></trkpt><trkpt lat="45.9656067" lon="13.4965667"><ele>60.0</ele><time>2026-05-03T08:53:58.595Z</time></trkpt><trkpt lat="45.965745" lon="13.4965817"><ele>60.0</ele><time>2026-05-03T08:53:59.595Z</time></trkpt><trkpt lat="45.965885" lon="13.496565"><ele>59.66666666666667</ele><time>2026-05-03T08:54:00.594Z</time></trkpt><trkpt lat="45.9660283" lon="13.4965333"><ele>59.333333333333336</ele><time>2026-05-03T08:54:01.594Z</time></trkpt><trkpt lat="45.9661733" lon="13.4964517"><ele>59.0</ele><time>2026-05-03T08:54:02.595Z</time></trkpt><trkpt lat="45.966325" lon="13.496365"><ele>59.0</ele><time>2026-05-03T08:54:03.594Z</time></trkpt><trkpt lat="45.9664817" lon="13.49629"><ele>59.0</ele><time>2026-05-03T08:54:04.595Z</time></trkpt><trkpt lat="45.9666383" lon="13.4962017"><ele>59.0</ele><time>2026-05-03T08:54:05.595Z</time></trkpt><trkpt lat="45.9668" lon="13.4961233"><ele>59.333333333333336</ele><time>2026-05-03T08:54:06.595Z</time></trkpt><trkpt lat="45.96696" lon="13.4960367"><ele>59.66666666666667</ele><time>2026-05-03T08:54:07.597Z</time></trkpt><trkpt lat="45.9671183" lon="13.4959467"><ele>60.0</ele><time>2026-05-03T08:54:08.595Z</time></trkpt><trkpt lat="45.9672583" lon="13.495855"><ele>60.0</ele><time>2026-05-03T08:54:09.594Z</time></trkpt><trkpt lat="45.9673917" lon="13.4957817"><ele>60.0</ele><time>2026-05-03T08:54:10.595Z</time></trkpt><trkpt lat="45.9675267" lon="13.495705"><ele>60.0</ele><time>2026-05-03T08:54:11.596Z</time></trkpt><trkpt lat="45.9676667" lon="13.495645"><ele>60.0</ele><time>2026-05-03T08:54:12.593Z</time></trkpt><trkpt lat="45.967815" lon="13.495635"><ele>59.0</ele><time>2026-05-03T08:54:13.594Z</time></trkpt><trkpt lat="45.9679667" lon="13.4955933"><ele>58.0</ele><time>2026-05-03T08:54:14.595Z</time></trkpt><trkpt lat="45.9681283" lon="13.4955833"><ele>57.0</ele><time>2026-05-03T08:54:15.594Z</time></trkpt><trkpt lat="45.9682917" lon="13.4955783"><ele>57.0</ele><time>2026-05-03T08:54:16.594Z</time></trkpt><trkpt lat="45.968455" lon="13.495575"><ele>57.0</ele><time>2026-05-03T08:54:17.594Z</time></trkpt><trkpt lat="45.96862" lon="13.495565"><ele>57.0</ele><time>2026-05-03T08:54:18.594Z</time></trkpt><trkpt lat="45.9687817" lon="13.49556"><ele>57.0</ele><time>2026-05-03T08:54:19.594Z</time></trkpt><trkpt lat="45.96894" lon="13.4955517"><ele>57.0</ele><time>2026-05-03T08:54:20.596Z</time></trkpt><trkpt lat="45.96909" lon="13.495545"><ele>57.0</ele><time>2026-05-03T08:54:21.595Z</time></trkpt><trkpt lat="45.9692333" lon="13.4955533"><ele>57.75</ele><time>2026-05-03T08:54:22.596Z</time></trkpt><trkpt lat="45.9693767" lon="13.4955533"><ele>58.5</ele><time>2026-05-03T08:54:23.594Z</time></trkpt><trkpt lat="45.9695183" lon="13.4955583"><ele>59.25</ele><time>2026-05-03T08:54:24.594Z</time></trkpt><trkpt lat="45.969655" lon="13.4955683"><ele>60.0</ele><time>2026-05-03T08:54:25.593Z</time></trkpt><trkpt lat="45.9697867" lon="13.4955867"><ele>60.0</ele><time>2026-05-03T08:54:26.595Z</time></trkpt><trkpt lat="45.96992" lon="13.4956317"><ele>60.0</ele><time>2026-05-03T08:54:27.595Z</time></trkpt><trkpt lat="45.9700667" lon="13.4956867"><ele>60.0</ele><time>2026-05-03T08:54:28.594Z</time></trkpt><trkpt lat="45.9702133" lon="13.4957733"><ele>60.0</ele><time>2026-05-03T08:54:29.594Z</time></trkpt><trkpt lat="45.97037" lon="13.4958633"><ele>60.33333333333333</ele><time>2026-05-03T08:54:30.593Z</time></trkpt><trkpt lat="45.9705317" lon="13.495955"><ele>60.666666666666664</ele><time>2026-05-03T08:54:31.594Z</time></trkpt><trkpt lat="45.9706933" lon="13.49605"><ele>61.0</ele><time>2026-05-03T08:54:32.595Z</time></trkpt><trkpt lat="45.9708417" lon="13.49617"><ele>60.0</ele><time>2026-05-03T08:54:33.594Z</time></trkpt><trkpt lat="45.9709833" lon="13.496285"><ele>59.0</ele><time>2026-05-03T08:54:34.6Z</time></trkpt><trkpt lat="45.9711183" lon="13.4963933"><ele>58.0</ele><time>2026-05-03T08:54:35.596Z</time></trkpt><trkpt lat="45.9712467" lon="13.4965133"><ele>58.0</ele><time>2026-05-03T08:54:36.596Z</time></trkpt><trkpt lat="45.971375" lon="13.496645"><ele>58.0</ele><time>2026-05-03T08:54:37.598Z</time></trkpt><trkpt lat="45.9715033" lon="13.4967833"><ele>58.0</ele><time>2026-05-03T08:54:38.595Z</time></trkpt><trkpt lat="45.9716283" lon="13.4969283"><ele>58.666666666666664</ele><time>2026-05-03T08:54:39.593Z</time></trkpt><trkpt lat="45.9717533" lon="13.4970683"><ele>59.33333333333333</ele><time>2026-05-03T08:54:40.596Z</time></trkpt><trkpt lat="45.9718733" lon="13.4972083"><ele>60.0</ele><time>2026-05-03T08:54:41.594Z</time></trkpt><trkpt lat="45.971985" lon="13.4973583"><ele>60.0</ele><time>2026-05-03T08:54:42.593Z</time></trkpt><trkpt lat="45.972115" lon="13.4974783"><ele>60.0</ele><time>2026-05-03T08:54:43.597Z</time></trkpt><trkpt lat="45.9722317" lon="13.497625"><ele>60.0</ele><time>2026-05-03T08:54:44.595Z</time></trkpt><trkpt lat="45.9723533" lon="13.4977733"><ele>59.66666666666667</ele><time>2026-05-03T08:54:45.593Z</time></trkpt><trkpt lat="45.972475" lon="13.49792"><ele>59.333333333333336</ele><time>2026-05-03T08:54:46.594Z</time></trkpt><trkpt lat="45.9726117" lon="13.4980317"><ele>59.0</ele><time>2026-05-03T08:54:47.595Z</time></trkpt><trkpt lat="45.97272" lon="13.4981683"><ele>59.0</ele><time>2026-05-03T08:54:48.594Z</time></trkpt><trkpt lat="45.972835" lon="13.49829"><ele>59.0</ele><time>2026-05-03T08:54:49.593Z</time></trkpt><trkpt lat="45.972945" lon="13.4984183"><ele>59.0</ele><time>2026-05-03T08:54:50.596Z</time></trkpt><trkpt lat="45.9730583" lon="13.4985467"><ele>59.0</ele><time>2026-05-03T08:54:51.592Z</time></trkpt><trkpt lat="45.9731667" lon="13.4986717"><ele>58.0</ele><time>2026-05-03T08:54:52.593Z</time></trkpt><trkpt lat="45.9732683" lon="13.4987883"><ele>57.0</ele><time>2026-05-03T08:54:53.594Z</time></trkpt><trkpt lat="45.97336" lon="13.4989033"><ele>56.0</ele><time>2026-05-03T08:54:54.594Z</time></trkpt><trkpt lat="45.9734483" lon="13.499005"><ele>55.0</ele><time>2026-05-03T08:54:55.594Z</time></trkpt><trkpt lat="45.97353" lon="13.4990933"><ele>54.8</ele><time>2026-05-03T08:54:56.594Z</time></trkpt><trkpt lat="45.9736083" lon="13.4991817"><ele>54.6</ele><time>2026-05-03T08:54:57.594Z</time></trkpt><trkpt lat="45.9736817" lon="13.4992683"><ele>54.400000000000006</ele><time>2026-05-03T08:54:58.593Z</time></trkpt><trkpt lat="45.973765" lon="13.4993367"><ele>54.2</ele><time>2026-05-03T08:54:59.593Z</time></trkpt><trkpt lat="45.9738583" lon="13.49936"><ele>54.0</ele><time>2026-05-03T08:55:00.593Z</time></trkpt><trkpt lat="45.9739567" lon="13.499345"><ele>54.0</ele><time>2026-05-03T08:55:01.596Z</time></trkpt><trkpt lat="45.9740567" lon="13.499305"><ele>54.0</ele><time>2026-05-03T08:55:02.594Z</time></trkpt><trkpt lat="45.9741617" lon="13.4992517"><ele>54.0</ele><time>2026-05-03T08:55:03.593Z</time></trkpt><trkpt lat="45.9742833" lon="13.49916"><ele>54.0</ele><time>2026-05-03T08:55:04.594Z</time></trkpt><trkpt lat="45.9744283" lon="13.4990467"><ele>53.66666666666667</ele><time>2026-05-03T08:55:05.593Z</time></trkpt><trkpt lat="45.974585" lon="13.4989317"><ele>53.333333333333336</ele><time>2026-05-03T08:55:06.595Z</time></trkpt><trkpt lat="45.974755" lon="13.4988133"><ele>53.0</ele><time>2026-05-03T08:55:07.593Z</time></trkpt><trkpt lat="45.9749283" lon="13.498695"><ele>53.66666666666667</ele><time>2026-05-03T08:55:08.594Z</time></trkpt><trkpt lat="45.9751" lon="13.4985783"><ele>54.33333333333333</ele><time>2026-05-03T08:55:09.594Z</time></trkpt><trkpt lat="45.975265" lon="13.4984767"><ele>55.0</ele><time>2026-05-03T08:55:10.594Z</time></trkpt><trkpt lat="45.9754183" lon="13.4983833"><ele>55.0</ele><time>2026-05-03T08:55:11.593Z</time></trkpt><trkpt lat="45.9755567" lon="13.4982783"><ele>55.0</ele><time>2026-05-03T08:55:12.594Z</time></trkpt><trkpt lat="45.9757" lon="13.4981917"><ele>55.0</ele><time>2026-05-03T08:55:13.594Z</time></trkpt><trkpt lat="45.9758433" lon="13.4981067"><ele>56.33333333333333</ele><time>2026-05-03T08:55:14.595Z</time></trkpt><trkpt lat="45.9759917" lon="13.4980133"><ele>57.66666666666667</ele><time>2026-05-03T08:55:15.593Z</time></trkpt><trkpt lat="45.9761467" lon="13.4979283"><ele>59.0</ele><time>2026-05-03T08:55:16.593Z</time></trkpt><trkpt lat="45.9763" lon="13.49784"><ele>60.0</ele><time>2026-05-03T08:55:17.594Z</time></trkpt><trkpt lat="45.97645" lon="13.4977567"><ele>61.0</ele><time>2026-05-03T08:55:18.593Z</time></trkpt><trkpt lat="45.976595" lon="13.4976733"><ele>62.0</ele><time>2026-05-03T08:55:19.593Z</time></trkpt><trkpt lat="45.9767383" lon="13.497585"><ele>65.0</ele><time>2026-05-03T08:55:20.595Z</time></trkpt><trkpt lat="45.9768767" lon="13.4974917"><ele>68.0</ele><time>2026-05-03T08:55:21.593Z</time></trkpt><trkpt lat="45.9770183" lon="13.49741"><ele>71.0</ele><time>2026-05-03T08:55:22.593Z</time></trkpt><trkpt lat="45.9771583" lon="13.49732"><ele>71.0</ele><time>2026-05-03T08:55:23.594Z</time></trkpt><trkpt lat="45.977305" lon="13.4972467"><ele>71.0</ele><time>2026-05-03T08:55:24.594Z</time></trkpt><trkpt lat="45.9774483" lon="13.4971583"><ele>71.0</ele><time>2026-05-03T08:55:25.593Z</time></trkpt><trkpt lat="45.9775883" lon="13.49706"><ele>75.0</ele><time>2026-05-03T08:55:26.594Z</time></trkpt><trkpt lat="45.9777317" lon="13.4969867"><ele>79.0</ele><time>2026-05-03T08:55:27.594Z</time></trkpt><trkpt lat="45.9778717" lon="13.49688"><ele>83.0</ele><time>2026-05-03T08:55:28.593Z</time></trkpt><trkpt lat="45.9780183" lon="13.4968033"><ele>83.0</ele><time>2026-05-03T08:55:29.593Z</time></trkpt><trkpt lat="45.9781517" lon="13.4967983"><ele>83.0</ele><time>2026-05-03T08:55:30.594Z</time></trkpt><trkpt lat="45.97827" lon="13.4966833"><ele>83.0</ele><time>2026-05-03T08:55:31.593Z</time></trkpt><trkpt lat="45.9783917" lon="13.49659"><ele>83.0</ele><time>2026-05-03T08:55:32.594Z</time></trkpt><trkpt lat="45.978525" lon="13.4965183"><ele>84.0</ele><time>2026-05-03T08:55:33.593Z</time></trkpt><trkpt lat="45.9786583" lon="13.4964783"><ele>85.0</ele><time>2026-05-03T08:55:34.596Z</time></trkpt><trkpt lat="45.978775" lon="13.4964683"><ele>86.0</ele><time>2026-05-03T08:55:35.594Z</time></trkpt><trkpt lat="45.9788833" lon="13.4964783"><ele>87.0</ele><time>2026-05-03T08:55:36.593Z</time></trkpt><trkpt lat="45.9789933" lon="13.496515"><ele>87.0</ele><time>2026-05-03T08:55:37.594Z</time></trkpt><trkpt lat="45.9791033" lon="13.4965967"><ele>87.0</ele><time>2026-05-03T08:55:38.594Z</time></trkpt><trkpt lat="45.97922" lon="13.4966967"><ele>87.0</ele><time>2026-05-03T08:55:39.593Z</time></trkpt><trkpt lat="45.9793517" lon="13.4967983"><ele>87.0</ele><time>2026-05-03T08:55:40.594Z</time></trkpt><trkpt lat="45.9794733" lon="13.4969117"><ele>88.0</ele><time>2026-05-03T08:55:41.595Z</time></trkpt><trkpt lat="45.9795633" lon="13.4970533"><ele>89.0</ele><time>2026-05-03T08:55:42.594Z</time></trkpt><trkpt lat="45.9796817" lon="13.4971583"><ele>90.0</ele><time>2026-05-03T08:55:43.593Z</time></trkpt><trkpt lat="45.9797983" lon="13.497275"><ele>91.0</ele><time>2026-05-03T08:55:44.596Z</time></trkpt><trkpt lat="45.9799267" lon="13.4973683"><ele>91.75</ele><time>2026-05-03T08:55:45.593Z</time></trkpt><trkpt lat="45.980025" lon="13.49749"><ele>92.5</ele><time>2026-05-03T08:55:46.594Z</time></trkpt><trkpt lat="45.9801383" lon="13.4975967"><ele>93.25</ele><time>2026-05-03T08:55:47.593Z</time></trkpt><trkpt lat="45.9802667" lon="13.4976917"><ele>94.0</ele><time>2026-05-03T08:55:48.593Z</time></trkpt><trkpt lat="45.98039" lon="13.49779"><ele>94.0</ele><time>2026-05-03T08:55:49.594Z</time></trkpt><trkpt lat="45.9805167" lon="13.4978883"><ele>94.0</ele><time>2026-05-03T08:55:50.593Z</time></trkpt><trkpt lat="45.9806217" lon="13.4980117"><ele>94.0</ele><time>2026-05-03T08:55:51.593Z</time></trkpt><trkpt lat="45.98071" lon="13.498155"><ele>94.0</ele><time>2026-05-03T08:55:52.595Z</time></trkpt><trkpt lat="45.9807867" lon="13.4983133"><ele>93.0</ele><time>2026-05-03T08:55:53.594Z</time></trkpt><trkpt lat="45.9808583" lon="13.498475"><ele>92.0</ele><time>2026-05-03T08:55:54.593Z</time></trkpt><trkpt lat="45.9809317" lon="13.498635"><ele>91.0</ele><time>2026-05-03T08:55:55.595Z</time></trkpt><trkpt lat="45.98099" lon="13.4987833"><ele>90.0</ele><time>2026-05-03T08:55:56.593Z</time></trkpt><trkpt lat="45.9810517" lon="13.4989083"><ele>91.5</ele><time>2026-05-03T08:55:57.593Z</time></trkpt><trkpt lat="45.9810983" lon="13.49902"><ele>93.0</ele><time>2026-05-03T08:55:58.593Z</time></trkpt><trkpt lat="45.9811333" lon="13.4991267"><ele>94.5</ele><time>2026-05-03T08:55:59.593Z</time></trkpt><trkpt lat="45.981155" lon="13.4992433"><ele>96.0</ele><time>2026-05-03T08:56:00.593Z</time></trkpt><trkpt lat="45.98119" lon="13.49936"><ele>97.5</ele><time>2026-05-03T08:56:01.593Z</time></trkpt><trkpt lat="45.9812517" lon="13.4994683"><ele>99.0</ele><time>2026-05-03T08:56:02.593Z</time></trkpt><trkpt lat="45.9813267" lon="13.4995683"><ele>100.2</ele><time>2026-05-03T08:56:03.593Z</time></trkpt><trkpt lat="45.9814117" lon="13.499665"><ele>101.4</ele><time>2026-05-03T08:56:04.596Z</time></trkpt><trkpt lat="45.9814983" lon="13.4997567"><ele>102.6</ele><time>2026-05-03T08:56:05.594Z</time></trkpt><trkpt lat="45.9815783" lon="13.4998433"><ele>103.8</ele><time>2026-05-03T08:56:06.594Z</time></trkpt><trkpt lat="45.98166" lon="13.4999183"><ele>105.0</ele><time>2026-05-03T08:56:07.593Z</time></trkpt><trkpt lat="45.9817433" lon="13.5000067"><ele>105.0</ele><time>2026-05-03T08:56:08.594Z</time></trkpt><trkpt lat="45.9818533" lon="13.5000617"><ele>105.0</ele><time>2026-05-03T08:56:09.593Z</time></trkpt><trkpt lat="45.9819717" lon="13.500105"><ele>105.0</ele><time>2026-05-03T08:56:10.595Z</time></trkpt><trkpt lat="45.9821083" lon="13.5000867"><ele>105.0</ele><time>2026-05-03T08:56:11.596Z</time></trkpt><trkpt lat="45.9822433" lon="13.5000367"><ele>105.0</ele><time>2026-05-03T08:56:12.595Z</time></trkpt><trkpt lat="45.9823733" lon="13.499965"><ele>105.0</ele><time>2026-05-03T08:56:13.593Z</time></trkpt><trkpt lat="45.98249" lon="13.4999217"><ele>105.0</ele><time>2026-05-03T08:56:14.594Z</time></trkpt><trkpt lat="45.9826017" lon="13.49988"><ele>105.0</ele><time>2026-05-03T08:56:15.593Z</time></trkpt><trkpt lat="45.9827" lon="13.4998183"><ele>106.5</ele><time>2026-05-03T08:56:16.593Z</time></trkpt><trkpt lat="45.9827817" lon="13.4997217"><ele>108.0</ele><time>2026-05-03T08:56:17.595Z</time></trkpt><trkpt lat="45.9828533" lon="13.4996033"><ele>109.5</ele><time>2026-05-03T08:56:18.594Z</time></trkpt><trkpt lat="45.982895" lon="13.499435"><ele>111.0</ele><time>2026-05-03T08:56:19.593Z</time></trkpt><trkpt lat="45.98292" lon="13.4992583"><ele>111.0</ele><time>2026-05-03T08:56:20.595Z</time></trkpt><trkpt lat="45.9829017" lon="13.4990483"><ele>111.0</ele><time>2026-05-03T08:56:21.595Z</time></trkpt><trkpt lat="45.9828783" lon="13.4988317"><ele>111.0</ele><time>2026-05-03T08:56:22.593Z</time></trkpt><trkpt lat="45.9828633" lon="13.4986233"><ele>111.0</ele><time>2026-05-03T08:56:23.593Z</time></trkpt><trkpt lat="45.9828483" lon="13.4984283"><ele>108.0</ele><time>2026-05-03T08:56:24.594Z</time></trkpt><trkpt lat="45.9828367" lon="13.4982467"><ele>105.0</ele><time>2026-05-03T08:56:25.593Z</time></trkpt><trkpt lat="45.982855" lon="13.4980867"><ele>102.0</ele><time>2026-05-03T08:56:26.594Z</time></trkpt><trkpt lat="45.9829017" lon="13.4979367"><ele>99.0</ele><time>2026-05-03T08:56:27.594Z</time></trkpt><trkpt lat="45.9829683" lon="13.4978033"><ele>97.0</ele><time>2026-05-03T08:56:28.593Z</time></trkpt><trkpt lat="45.9830467" lon="13.497695"><ele>95.0</ele><time>2026-05-03T08:56:29.594Z</time></trkpt><trkpt lat="45.9831467" lon="13.497615"><ele>93.0</ele><time>2026-05-03T08:56:30.595Z</time></trkpt><trkpt lat="45.9832583" lon="13.4975517"><ele>91.0</ele><time>2026-05-03T08:56:31.595Z</time></trkpt><trkpt lat="45.9833933" lon="13.4975483"><ele>91.0</ele><time>2026-05-03T08:56:32.594Z</time></trkpt><trkpt lat="45.983525" lon="13.4975717"><ele>91.0</ele><time>2026-05-03T08:56:33.593Z</time></trkpt><trkpt lat="45.9836467" lon="13.4976133"><ele>91.0</ele><time>2026-05-03T08:56:34.593Z</time></trkpt><trkpt lat="45.9837467" lon="13.49765"><ele>91.0</ele><time>2026-05-03T08:56:35.594Z</time></trkpt><trkpt lat="45.9838317" lon="13.4976867"><ele>91.0</ele><time>2026-05-03T08:56:36.595Z</time></trkpt><trkpt lat="45.9839033" lon="13.4977117"><ele>91.0</ele><time>2026-05-03T08:56:37.596Z</time></trkpt><trkpt lat="45.9839717" lon="13.49773"><ele>91.0</ele><time>2026-05-03T08:56:38.594Z</time></trkpt><trkpt lat="45.984035" lon="13.497725"><ele>91.0</ele><time>2026-05-03T08:56:39.594Z</time></trkpt><trkpt lat="45.984125" lon="13.4976217"><ele>91.0</ele><time>2026-05-03T08:56:41.595Z</time></trkpt><trkpt lat="45.9841433" lon="13.4975283"><ele>91.0</ele><time>2026-05-03T08:56:42.595Z</time></trkpt><trkpt lat="45.9841217" lon="13.4974083"><ele>91.0</ele><time>2026-05-03T08:56:43.594Z</time></trkpt><trkpt lat="45.9840617" lon="13.4972717"><ele>91.0</ele><time>2026-05-03T08:56:44.594Z</time></trkpt><trkpt lat="45.9839733" lon="13.497135"><ele>91.0</ele><time>2026-05-03T08:56:45.593Z</time></trkpt><trkpt lat="45.9838733" lon="13.4969933"><ele>91.0</ele><time>2026-05-03T08:56:46.593Z</time></trkpt><trkpt lat="45.98376" lon="13.4968517"><ele>89.0</ele><time>2026-05-03T08:56:47.595Z</time></trkpt><trkpt lat="45.98363" lon="13.496725"><ele>87.0</ele><time>2026-05-03T08:56:48.594Z</time></trkpt><trkpt lat="45.9834983" lon="13.4966067"><ele>85.0</ele><time>2026-05-03T08:56:49.594Z</time></trkpt><trkpt lat="45.98338" lon="13.4964933"><ele>84.0</ele><time>2026-05-03T08:56:50.595Z</time></trkpt><trkpt lat="45.98328" lon="13.49641"><ele>83.0</ele><time>2026-05-03T08:56:51.597Z</time></trkpt><trkpt lat="45.9831983" lon="13.4963283"><ele>82.0</ele><time>2026-05-03T08:56:52.595Z</time></trkpt><trkpt lat="45.9831417" lon="13.49622"><ele>81.0</ele><time>2026-05-03T08:56:53.595Z</time></trkpt><trkpt lat="45.9831133" lon="13.496105"><ele>80.0</ele><time>2026-05-03T08:56:54.594Z</time></trkpt><trkpt lat="45.9831017" lon="13.496"><ele>79.0</ele><time>2026-05-03T08:56:55.593Z</time></trkpt><trkpt lat="45.9831533" lon="13.4958717"><ele>78.0</ele><time>2026-05-03T08:56:56.594Z</time></trkpt><trkpt lat="45.98323" lon="13.49574"><ele>77.0</ele><time>2026-05-03T08:56:57.593Z</time></trkpt><trkpt lat="45.9832917" lon="13.4956083"><ele>76.0</ele><time>2026-05-03T08:56:58.594Z</time></trkpt><trkpt lat="45.9833833" lon="13.49548"><ele>74.5</ele><time>2026-05-03T08:56:59.593Z</time></trkpt><trkpt lat="45.983495" lon="13.4953567"><ele>73.0</ele><time>2026-05-03T08:57:00.593Z</time></trkpt><trkpt lat="45.9836083" lon="13.49522"><ele>71.5</ele><time>2026-05-03T08:57:01.593Z</time></trkpt><trkpt lat="45.9837017" lon="13.4950417"><ele>70.0</ele><time>2026-05-03T08:57:02.595Z</time></trkpt><trkpt lat="45.9837783" lon="13.4948317"><ele>70.0</ele><time>2026-05-03T08:57:03.594Z</time></trkpt><trkpt lat="45.9838367" lon="13.4946"><ele>70.0</ele><time>2026-05-03T08:57:04.593Z</time></trkpt><trkpt lat="45.98389" lon="13.4943567"><ele>70.0</ele><time>2026-05-03T08:57:05.594Z</time></trkpt><trkpt lat="45.98395" lon="13.4941083"><ele>70.33333333333333</ele><time>2026-05-03T08:57:06.594Z</time></trkpt><trkpt lat="45.984005" lon="13.4938583"><ele>70.66666666666667</ele><time>2026-05-03T08:57:07.594Z</time></trkpt><trkpt lat="45.9840617" lon="13.49362"><ele>71.0</ele><time>2026-05-03T08:57:08.594Z</time></trkpt><trkpt lat="45.9841117" lon="13.4934033"><ele>71.25</ele><time>2026-05-03T08:57:09.594Z</time></trkpt><trkpt lat="45.9841583" lon="13.4932167"><ele>71.5</ele><time>2026-05-03T08:57:10.593Z</time></trkpt><trkpt lat="45.9842" lon="13.4930533"><ele>71.75</ele><time>2026-05-03T08:57:11.595Z</time></trkpt><trkpt lat="45.9842317" lon="13.49291"><ele>72.0</ele><time>2026-05-03T08:57:12.593Z</time></trkpt><trkpt lat="45.9842683" lon="13.4927967"><ele>73.8</ele><time>2026-05-03T08:57:13.594Z</time></trkpt><trkpt lat="45.9843167" lon="13.4927133"><ele>75.6</ele><time>2026-05-03T08:57:14.594Z</time></trkpt><trkpt lat="45.9843717" lon="13.4926533"><ele>77.39999999999999</ele><time>2026-05-03T08:57:15.594Z</time></trkpt><trkpt lat="45.9844533" lon="13.4926183"><ele>79.2</ele><time>2026-05-03T08:57:16.594Z</time></trkpt><trkpt lat="45.984565" lon="13.4926117"><ele>81.0</ele><time>2026-05-03T08:57:17.593Z</time></trkpt><trkpt lat="45.984685" lon="13.49261"><ele>81.0</ele><time>2026-05-03T08:57:18.594Z</time></trkpt><trkpt lat="45.9847933" lon="13.4925967"><ele>81.0</ele><time>2026-05-03T08:57:19.595Z</time></trkpt><trkpt lat="45.98488" lon="13.4925517"><ele>81.0</ele><time>2026-05-03T08:57:20.594Z</time></trkpt><trkpt lat="45.9849367" lon="13.49247"><ele>81.0</ele><time>2026-05-03T08:57:21.594Z</time></trkpt><trkpt lat="45.9849717" lon="13.4923567"><ele>81.0</ele><time>2026-05-03T08:57:22.594Z</time></trkpt><trkpt lat="45.9850017" lon="13.4922317"><ele>81.0</ele><time>2026-05-03T08:57:23.594Z</time></trkpt><trkpt lat="45.9850083" lon="13.4921017"><ele>81.0</ele><time>2026-05-03T08:57:24.595Z</time></trkpt><trkpt lat="45.9849867" lon="13.4919733"><ele>81.0</ele><time>2026-05-03T08:57:25.594Z</time></trkpt><trkpt lat="45.98495" lon="13.4918467"><ele>81.0</ele><time>2026-05-03T08:57:26.594Z</time></trkpt><trkpt lat="45.9848667" lon="13.491735"><ele>81.0</ele><time>2026-05-03T08:57:27.595Z</time></trkpt><trkpt lat="45.9847717" lon="13.4916433"><ele>82.16666666666667</ele><time>2026-05-03T08:57:28.593Z</time></trkpt><trkpt lat="45.984715" lon="13.4915483"><ele>83.33333333333333</ele><time>2026-05-03T08:57:29.593Z</time></trkpt><trkpt lat="45.98468" lon="13.491455"><ele>84.5</ele><time>2026-05-03T08:57:30.593Z</time></trkpt><trkpt lat="45.9847" lon="13.491355"><ele>85.66666666666666</ele><time>2026-05-03T08:57:31.593Z</time></trkpt><trkpt lat="45.9847433" lon="13.49126"><ele>86.83333333333333</ele><time>2026-05-03T08:57:32.593Z</time></trkpt><trkpt lat="45.9848133" lon="13.4911567"><ele>88.0</ele><time>2026-05-03T08:57:33.594Z</time></trkpt><trkpt lat="45.9849233" lon="13.4910567"><ele>88.75</ele><time>2026-05-03T08:57:34.594Z</time></trkpt><trkpt lat="45.9850217" lon="13.4909283"><ele>89.5</ele><time>2026-05-03T08:57:35.593Z</time></trkpt><trkpt lat="45.98513" lon="13.4907883"><ele>90.25</ele><time>2026-05-03T08:57:36.593Z</time></trkpt><trkpt lat="45.9852333" lon="13.49064"><ele>91.0</ele><time>2026-05-03T08:57:37.594Z</time></trkpt><trkpt lat="45.985335" lon="13.49051"><ele>92.0</ele><time>2026-05-03T08:57:38.594Z</time></trkpt><trkpt lat="45.9854283" lon="13.4903833"><ele>93.0</ele><time>2026-05-03T08:57:39.595Z</time></trkpt><trkpt lat="45.9855083" lon="13.490245"><ele>94.0</ele><time>2026-05-03T08:57:40.596Z</time></trkpt><trkpt lat="45.985585" lon="13.4901017"><ele>95.0</ele><time>2026-05-03T08:57:41.594Z</time></trkpt><trkpt lat="45.98566" lon="13.489955"><ele>95.0</ele><time>2026-05-03T08:57:42.593Z</time></trkpt><trkpt lat="45.9857383" lon="13.4898167"><ele>95.0</ele><time>2026-05-03T08:57:43.595Z</time></trkpt><trkpt lat="45.9858167" lon="13.489685"><ele>95.0</ele><time>2026-05-03T08:57:44.595Z</time></trkpt><trkpt lat="45.9858967" lon="13.48956"><ele>95.0</ele><time>2026-05-03T08:57:45.594Z</time></trkpt><trkpt lat="45.9859733" lon="13.4894433"><ele>97.25</ele><time>2026-05-03T08:57:46.594Z</time></trkpt><trkpt lat="45.9860533" lon="13.48935"><ele>99.5</ele><time>2026-05-03T08:57:47.595Z</time></trkpt><trkpt lat="45.9861517" lon="13.4892933"><ele>101.75</ele><time>2026-05-03T08:57:48.593Z</time></trkpt><trkpt lat="45.986265" lon="13.4892633"><ele>104.0</ele><time>2026-05-03T08:57:49.595Z</time></trkpt><trkpt lat="45.9863917" lon="13.4892483"><ele>104.0</ele><time>2026-05-03T08:57:50.596Z</time></trkpt><trkpt lat="45.9865267" lon="13.4892483"><ele>104.0</ele><time>2026-05-03T08:57:51.595Z</time></trkpt><trkpt lat="45.9866517" lon="13.489225"><ele>104.0</ele><time>2026-05-03T08:57:52.596Z</time></trkpt><trkpt lat="45.9867633" lon="13.4892"><ele>104.0</ele><time>2026-05-03T08:57:53.595Z</time></trkpt><trkpt lat="45.986865" lon="13.489155"><ele>105.4</ele><time>2026-05-03T08:57:54.593Z</time></trkpt><trkpt lat="45.9869483" lon="13.4890733"><ele>106.80000000000001</ele><time>2026-05-03T08:57:55.594Z</time></trkpt><trkpt lat="45.98701" lon="13.4889533"><ele>108.19999999999999</ele><time>2026-05-03T08:57:56.594Z</time></trkpt><trkpt lat="45.98705" lon="13.488805"><ele>109.6</ele><time>2026-05-03T08:57:57.597Z</time></trkpt><trkpt lat="45.9870717" lon="13.4886583"><ele>111.0</ele><time>2026-05-03T08:57:58.595Z</time></trkpt><trkpt lat="45.9871083" lon="13.4885517"><ele>111.0</ele><time>2026-05-03T08:57:59.594Z</time></trkpt><trkpt lat="45.9871583" lon="13.4884817"><ele>111.0</ele><time>2026-05-03T08:58:00.594Z</time></trkpt><trkpt lat="45.98722" lon="13.488445"><ele>111.0</ele><time>2026-05-03T08:58:01.594Z</time></trkpt><trkpt lat="45.9872967" lon="13.4884367"><ele>111.0</ele><time>2026-05-03T08:58:02.596Z</time></trkpt><trkpt lat="45.9874033" lon="13.48848"><ele>111.0</ele><time>2026-05-03T08:58:03.593Z</time></trkpt><trkpt lat="45.987495" lon="13.48849"><ele>111.0</ele><time>2026-05-03T08:58:04.593Z</time></trkpt><trkpt lat="45.9875833" lon="13.4884833"><ele>114.6</ele><time>2026-05-03T08:58:05.593Z</time></trkpt><trkpt lat="45.9876633" lon="13.488495"><ele>118.19999999999999</ele><time>2026-05-03T08:58:06.594Z</time></trkpt><trkpt lat="45.9877267" lon="13.4885367"><ele>121.80000000000001</ele><time>2026-05-03T08:58:07.594Z</time></trkpt><trkpt lat="45.9877483" lon="13.4886667"><ele>125.4</ele><time>2026-05-03T08:58:09.594Z</time></trkpt><trkpt lat="45.9876333" lon="13.48877"><ele>129.0</ele><time>2026-05-03T08:58:11.595Z</time></trkpt><trkpt lat="45.98755" lon="13.488765"><ele>130.2</ele><time>2026-05-03T08:58:12.595Z</time></trkpt><trkpt lat="45.9874817" lon="13.4887733"><ele>131.4</ele><time>2026-05-03T08:58:13.594Z</time></trkpt><trkpt lat="45.987425" lon="13.4888233"><ele>132.6</ele><time>2026-05-03T08:58:14.596Z</time></trkpt><trkpt lat="45.9874033" lon="13.488975"><ele>133.8</ele><time>2026-05-03T08:58:16.594Z</time></trkpt><trkpt lat="45.9874817" lon="13.48906"><ele>135.0</ele><time>2026-05-03T08:58:18.595Z</time></trkpt><trkpt lat="45.987635" lon="13.4889633"><ele>135.0</ele><time>2026-05-03T08:58:20.594Z</time></trkpt><trkpt lat="45.9877367" lon="13.4889217"><ele>135.0</ele><time>2026-05-03T08:58:21.594Z</time></trkpt><trkpt lat="45.98785" lon="13.4888967"><ele>135.0</ele><time>2026-05-03T08:58:22.596Z</time></trkpt><trkpt lat="45.9879517" lon="13.4888317"><ele>135.0</ele><time>2026-05-03T08:58:23.595Z</time></trkpt><trkpt lat="45.9880467" lon="13.4887267"><ele>134.5</ele><time>2026-05-03T08:58:24.595Z</time></trkpt><trkpt lat="45.9881333" lon="13.4886"><ele>134.0</ele><time>2026-05-03T08:58:25.595Z</time></trkpt><trkpt lat="45.9882183" lon="13.4884733"><ele>133.5</ele><time>2026-05-03T08:58:26.595Z</time></trkpt><trkpt lat="45.9883033" lon="13.4883633"><ele>133.0</ele><time>2026-05-03T08:58:27.593Z</time></trkpt><trkpt lat="45.9884083" lon="13.4883067"><ele>133.0</ele><time>2026-05-03T08:58:28.595Z</time></trkpt><trkpt lat="45.9885133" lon="13.488255"><ele>133.0</ele><time>2026-05-03T08:58:29.594Z</time></trkpt><trkpt lat="45.9886233" lon="13.4882033"><ele>133.0</ele><time>2026-05-03T08:58:30.594Z</time></trkpt><trkpt lat="45.9887433" lon="13.4881767"><ele>133.0</ele><time>2026-05-03T08:58:31.594Z</time></trkpt><trkpt lat="45.9888733" lon="13.4881617"><ele>133.0</ele><time>2026-05-03T08:58:32.595Z</time></trkpt><trkpt lat="45.988995" lon="13.48813"><ele>133.0</ele><time>2026-05-03T08:58:33.594Z</time></trkpt><trkpt lat="45.989105" lon="13.4880583"><ele>133.0</ele><time>2026-05-03T08:58:34.594Z</time></trkpt><trkpt lat="45.9892" lon="13.4879533"><ele>133.0</ele><time>2026-05-03T08:58:35.594Z</time></trkpt><trkpt lat="45.989295" lon="13.4878317"><ele>136.75</ele><time>2026-05-03T08:58:36.594Z</time></trkpt><trkpt lat="45.9893867" lon="13.4877"><ele>140.5</ele><time>2026-05-03T08:58:37.594Z</time></trkpt><trkpt lat="45.9894617" lon="13.4875617"><ele>144.25</ele><time>2026-05-03T08:58:38.595Z</time></trkpt><trkpt lat="45.989525" lon="13.4874133"><ele>148.0</ele><time>2026-05-03T08:58:39.594Z</time></trkpt><trkpt lat="45.9895767" lon="13.48725"><ele>149.25</ele><time>2026-05-03T08:58:40.595Z</time></trkpt><trkpt lat="45.989605" lon="13.4870683"><ele>150.5</ele><time>2026-05-03T08:58:41.594Z</time></trkpt><trkpt lat="45.9896467" lon="13.4868983"><ele>151.75</ele><time>2026-05-03T08:58:42.596Z</time></trkpt><trkpt lat="45.989695" lon="13.4867467"><ele>153.0</ele><time>2026-05-03T08:58:43.594Z</time></trkpt><trkpt lat="45.9897583" lon="13.4866067"><ele>153.0</ele><time>2026-05-03T08:58:44.597Z</time></trkpt><trkpt lat="45.9898283" lon="13.4864583"><ele>153.0</ele><time>2026-05-03T08:58:45.593Z</time></trkpt><trkpt lat="45.9898983" lon="13.4863033"><ele>153.0</ele><time>2026-05-03T08:58:46.594Z</time></trkpt><trkpt lat="45.98997" lon="13.486135"><ele>153.0</ele><time>2026-05-03T08:58:47.595Z</time></trkpt><trkpt lat="45.990045" lon="13.48597"><ele>152.0</ele><time>2026-05-03T08:58:48.594Z</time></trkpt><trkpt lat="45.9901167" lon="13.4858183"><ele>151.0</ele><time>2026-05-03T08:58:49.594Z</time></trkpt><trkpt lat="45.990185" lon="13.4856883"><ele>150.0</ele><time>2026-05-03T08:58:50.595Z</time></trkpt><trkpt lat="45.990255" lon="13.4855633"><ele>149.0</ele><time>2026-05-03T08:58:51.593Z</time></trkpt><trkpt lat="45.9903383" lon="13.4854317"><ele>148.5</ele><time>2026-05-03T08:58:52.595Z</time></trkpt><trkpt lat="45.9904317" lon="13.4852967"><ele>148.0</ele><time>2026-05-03T08:58:53.594Z</time></trkpt><trkpt lat="45.990525" lon="13.4851633"><ele>147.5</ele><time>2026-05-03T08:58:54.595Z</time></trkpt><trkpt lat="45.99061" lon="13.4850083"><ele>147.0</ele><time>2026-05-03T08:58:55.596Z</time></trkpt><trkpt lat="45.9906983" lon="13.4848433"><ele>147.0</ele><time>2026-05-03T08:58:56.595Z</time></trkpt><trkpt lat="45.990785" lon="13.4846683"><ele>147.0</ele><time>2026-05-03T08:58:57.594Z</time></trkpt><trkpt lat="45.9908683" lon="13.4844833"><ele>147.0</ele><time>2026-05-03T08:58:58.594Z</time></trkpt><trkpt lat="45.990945" lon="13.4843033"><ele>147.0</ele><time>2026-05-03T08:58:59.597Z</time></trkpt><trkpt lat="45.9910267" lon="13.4841383"><ele>146.25</ele><time>2026-05-03T08:59:00.596Z</time></trkpt><trkpt lat="45.9911117" lon="13.48398"><ele>145.5</ele><time>2026-05-03T08:59:01.594Z</time></trkpt><trkpt lat="45.9911983" lon="13.4838217"><ele>144.75</ele><time>2026-05-03T08:59:02.596Z</time></trkpt><trkpt lat="45.9912867" lon="13.4836567"><ele>144.0</ele><time>2026-05-03T08:59:03.594Z</time></trkpt><trkpt lat="45.9913667" lon="13.4834933"><ele>143.5</ele><time>2026-05-03T08:59:04.593Z</time></trkpt><trkpt lat="45.99143" lon="13.48333"><ele>143.0</ele><time>2026-05-03T08:59:05.595Z</time></trkpt><trkpt lat="45.9914833" lon="13.48318"><ele>142.5</ele><time>2026-05-03T08:59:06.594Z</time></trkpt><trkpt lat="45.9915333" lon="13.4830283"><ele>142.0</ele><time>2026-05-03T08:59:07.594Z</time></trkpt><trkpt lat="45.9915883" lon="13.4828633"><ele>143.75</ele><time>2026-05-03T08:59:08.596Z</time></trkpt><trkpt lat="45.99164" lon="13.48269"><ele>145.5</ele><time>2026-05-03T08:59:09.594Z</time></trkpt><trkpt lat="45.9916967" lon="13.4825133"><ele>147.25</ele><time>2026-05-03T08:59:10.595Z</time></trkpt><trkpt lat="45.99175" lon="13.4823383"><ele>149.0</ele><time>2026-05-03T08:59:11.594Z</time></trkpt><trkpt lat="45.9918" lon="13.48217"><ele>153.0</ele><time>2026-05-03T08:59:12.595Z</time></trkpt><trkpt lat="45.991835" lon="13.482"><ele>157.0</ele><time>2026-05-03T08:59:13.595Z</time></trkpt><trkpt lat="45.9918567" lon="13.4818267"><ele>161.0</ele><time>2026-05-03T08:59:14.594Z</time></trkpt><trkpt lat="45.9918733" lon="13.481655"><ele>165.0</ele><time>2026-05-03T08:59:15.595Z</time></trkpt><trkpt lat="45.991855" lon="13.4814867"><ele>165.0</ele><time>2026-05-03T08:59:16.596Z</time></trkpt><trkpt lat="45.991815" lon="13.4813217"><ele>165.0</ele><time>2026-05-03T08:59:17.594Z</time></trkpt><trkpt lat="45.9918083" lon="13.4811517"><ele>165.0</ele><time>2026-05-03T08:59:18.594Z</time></trkpt><trkpt lat="45.9918283" lon="13.48097"><ele>165.0</ele><time>2026-05-03T08:59:19.595Z</time></trkpt><trkpt lat="45.9918683" lon="13.4807983"><ele>167.2</ele><time>2026-05-03T08:59:20.595Z</time></trkpt><trkpt lat="45.9919183" lon="13.480645"><ele>169.4</ele><time>2026-05-03T08:59:21.594Z</time></trkpt><trkpt lat="45.9919683" lon="13.4805183"><ele>171.60000000000002</ele><time>2026-05-03T08:59:22.595Z</time></trkpt><trkpt lat="45.9920383" lon="13.4804117"><ele>173.8</ele><time>2026-05-03T08:59:23.594Z</time></trkpt><trkpt lat="45.9921267" lon="13.480305"><ele>176.0</ele><time>2026-05-03T08:59:24.596Z</time></trkpt><trkpt lat="45.9922133" lon="13.4802017"><ele>176.0</ele><time>2026-05-03T08:59:25.595Z</time></trkpt><trkpt lat="45.9922983" lon="13.480085"><ele>176.0</ele><time>2026-05-03T08:59:26.595Z</time></trkpt><trkpt lat="45.9923683" lon="13.479945"><ele>176.0</ele><time>2026-05-03T08:59:27.595Z</time></trkpt><trkpt lat="45.9924217" lon="13.479795"><ele>176.0</ele><time>2026-05-03T08:59:28.595Z</time></trkpt><trkpt lat="45.9924783" lon="13.4796533"><ele>172.75</ele><time>2026-05-03T08:59:29.594Z</time></trkpt><trkpt lat="45.992545" lon="13.4795233"><ele>169.5</ele><time>2026-05-03T08:59:30.594Z</time></trkpt><trkpt lat="45.992615" lon="13.4793983"><ele>166.25</ele><time>2026-05-03T08:59:31.595Z</time></trkpt><trkpt lat="45.9926917" lon="13.4792667"><ele>163.0</ele><time>2026-05-03T08:59:32.596Z</time></trkpt><trkpt lat="45.9928083" lon="13.479175"><ele>163.0</ele><time>2026-05-03T08:59:33.594Z</time></trkpt><trkpt lat="45.9929383" lon="13.4790817"><ele>163.0</ele><time>2026-05-03T08:59:34.595Z</time></trkpt><trkpt lat="45.9930683" lon="13.47897"><ele>163.0</ele><time>2026-05-03T08:59:35.594Z</time></trkpt><trkpt lat="45.9931983" lon="13.47886"><ele>163.0</ele><time>2026-05-03T08:59:36.595Z</time></trkpt><trkpt lat="45.9933167" lon="13.4787533"><ele>163.75</ele><time>2026-05-03T08:59:37.594Z</time></trkpt><trkpt lat="45.9934333" lon="13.4786467"><ele>164.5</ele><time>2026-05-03T08:59:38.595Z</time></trkpt><trkpt lat="45.99356" lon="13.47855"><ele>165.25</ele><time>2026-05-03T08:59:39.595Z</time></trkpt><trkpt lat="45.9936917" lon="13.4784883"><ele>166.0</ele><time>2026-05-03T08:59:40.594Z</time></trkpt><trkpt lat="45.9938233" lon="13.4784467"><ele>166.0</ele><time>2026-05-03T08:59:41.595Z</time></trkpt><trkpt lat="45.9939517" lon="13.478395"><ele>166.0</ele><time>2026-05-03T08:59:42.595Z</time></trkpt><trkpt lat="45.9940783" lon="13.478305"><ele>166.0</ele><time>2026-05-03T08:59:43.595Z</time></trkpt><trkpt lat="45.9941967" lon="13.4781883"><ele>166.0</ele><time>2026-05-03T08:59:44.595Z</time></trkpt><trkpt lat="45.99431" lon="13.4780533"><ele>166.75</ele><time>2026-05-03T08:59:45.595Z</time></trkpt><trkpt lat="45.9944217" lon="13.4779267"><ele>167.5</ele><time>2026-05-03T08:59:46.595Z</time></trkpt><trkpt lat="45.9945317" lon="13.477795"><ele>168.25</ele><time>2026-05-03T08:59:47.594Z</time></trkpt><trkpt lat="45.9946433" lon="13.4776717"><ele>169.0</ele><time>2026-05-03T08:59:48.594Z</time></trkpt><trkpt lat="45.9947683" lon="13.4775817"><ele>169.0</ele><time>2026-05-03T08:59:49.594Z</time></trkpt><trkpt lat="45.9949067" lon="13.4775217"><ele>169.0</ele><time>2026-05-03T08:59:50.595Z</time></trkpt><trkpt lat="45.9950483" lon="13.4774717"><ele>169.0</ele><time>2026-05-03T08:59:51.594Z</time></trkpt><trkpt lat="45.9951917" lon="13.4774383"><ele>169.0</ele><time>2026-05-03T08:59:52.595Z</time></trkpt><trkpt lat="45.9953333" lon="13.477405"><ele>170.0</ele><time>2026-05-03T08:59:53.594Z</time></trkpt><trkpt lat="45.9954733" lon="13.4773717"><ele>171.0</ele><time>2026-05-03T08:59:54.595Z</time></trkpt><trkpt lat="45.9956117" lon="13.4773383"><ele>172.0</ele><time>2026-05-03T08:59:55.595Z</time></trkpt><trkpt lat="45.9957467" lon="13.477305"><ele>173.0</ele><time>2026-05-03T08:59:56.595Z</time></trkpt><trkpt lat="45.9958767" lon="13.47726"><ele>172.5</ele><time>2026-05-03T08:59:57.594Z</time></trkpt><trkpt lat="45.996005" lon="13.4772167"><ele>172.0</ele><time>2026-05-03T08:59:58.594Z</time></trkpt><trkpt lat="45.9961267" lon="13.477175"><ele>171.5</ele><time>2026-05-03T08:59:59.595Z</time></trkpt><trkpt lat="45.996245" lon="13.47711"><ele>171.0</ele><time>2026-05-03T09:00:00.594Z</time></trkpt><trkpt lat="45.9963567" lon="13.477065"><ele>171.0</ele><time>2026-05-03T09:00:01.595Z</time></trkpt><trkpt lat="45.9964583" lon="13.47702"><ele>171.0</ele><time>2026-05-03T09:00:02.595Z</time></trkpt><trkpt lat="45.996545" lon="13.4769817"><ele>171.0</ele><time>2026-05-03T09:00:03.594Z</time></trkpt><trkpt lat="45.99663" lon="13.4769417"><ele>171.0</ele><time>2026-05-03T09:00:04.594Z</time></trkpt><trkpt lat="45.9967167" lon="13.476885"><ele>171.0</ele><time>2026-05-03T09:00:05.594Z</time></trkpt><trkpt lat="45.9967967" lon="13.4768033"><ele>167.4</ele><time>2026-05-03T09:00:06.595Z</time></trkpt><trkpt lat="45.9968633" lon="13.47668"><ele>163.8</ele><time>2026-05-03T09:00:07.596Z</time></trkpt><trkpt lat="45.9969283" lon="13.47655"><ele>160.20000000000002</ele><time>2026-05-03T09:00:08.595Z</time></trkpt><trkpt lat="45.99699" lon="13.4764283"><ele>156.60000000000002</ele><time>2026-05-03T09:00:09.594Z</time></trkpt><trkpt lat="45.9970383" lon="13.4763033"><ele>153.0</ele><time>2026-05-03T09:00:10.594Z</time></trkpt><trkpt lat="45.997065" lon="13.4761817"><ele>153.0</ele><time>2026-05-03T09:00:11.595Z</time></trkpt><trkpt lat="45.99708" lon="13.476065"><ele>153.0</ele><time>2026-05-03T09:00:12.594Z</time></trkpt><trkpt lat="45.9970933" lon="13.475925"><ele>153.0</ele><time>2026-05-03T09:00:14.594Z</time></trkpt><trkpt lat="45.9971567" lon="13.4759033"><ele>153.0</ele><time>2026-05-03T09:00:16.594Z</time></trkpt><trkpt lat="45.9972383" lon="13.4760367"><ele>153.0</ele><time>2026-05-03T09:00:18.593Z</time></trkpt><trkpt lat="45.9972767" lon="13.476145"><ele>153.0</ele><time>2026-05-03T09:00:19.596Z</time></trkpt><trkpt lat="45.9972867" lon="13.4763117"><ele>153.0</ele><time>2026-05-03T09:00:20.594Z</time></trkpt><trkpt lat="45.9973233" lon="13.47646"><ele>153.0</ele><time>2026-05-03T09:00:21.594Z</time></trkpt><trkpt lat="45.99738" lon="13.4766083"><ele>153.0</ele><time>2026-05-03T09:00:22.594Z</time></trkpt><trkpt lat="45.9974467" lon="13.47675"><ele>150.5</ele><time>2026-05-03T09:00:23.593Z</time></trkpt><trkpt lat="45.9975133" lon="13.4768983"><ele>148.0</ele><time>2026-05-03T09:00:24.593Z</time></trkpt><trkpt lat="45.99758" lon="13.4770417"><ele>145.5</ele><time>2026-05-03T09:00:25.595Z</time></trkpt><trkpt lat="45.997645" lon="13.4771833"><ele>143.0</ele><time>2026-05-03T09:00:26.595Z</time></trkpt><trkpt lat="45.9976917" lon="13.4773383"><ele>143.0</ele><time>2026-05-03T09:00:27.593Z</time></trkpt><trkpt lat="45.9977167" lon="13.4774983"><ele>143.0</ele><time>2026-05-03T09:00:28.594Z</time></trkpt><trkpt lat="45.9977333" lon="13.4776483"><ele>143.0</ele><time>2026-05-03T09:00:29.593Z</time></trkpt><trkpt lat="45.9977817" lon="13.477775"><ele>143.0</ele><time>2026-05-03T09:00:30.593Z</time></trkpt><trkpt lat="45.9978533" lon="13.4778917"><ele>143.0</ele><time>2026-05-03T09:00:31.593Z</time></trkpt><trkpt lat="45.9979367" lon="13.4780067"><ele>144.4</ele><time>2026-05-03T09:00:32.595Z</time></trkpt><trkpt lat="45.99803" lon="13.47811"><ele>145.8</ele><time>2026-05-03T09:00:33.594Z</time></trkpt><trkpt lat="45.998115" lon="13.4782133"><ele>147.2</ele><time>2026-05-03T09:00:34.593Z</time></trkpt><trkpt lat="45.998185" lon="13.4783133"><ele>148.6</ele><time>2026-05-03T09:00:35.594Z</time></trkpt><trkpt lat="45.9982367" lon="13.47841"><ele>150.0</ele><time>2026-05-03T09:00:36.594Z</time></trkpt><trkpt lat="45.9982667" lon="13.4785283"><ele>150.0</ele><time>2026-05-03T09:00:37.593Z</time></trkpt><trkpt lat="45.9982633" lon="13.4786767"><ele>150.0</ele><time>2026-05-03T09:00:38.596Z</time></trkpt><trkpt lat="45.9982467" lon="13.478835"><ele>150.0</ele><time>2026-05-03T09:00:39.596Z</time></trkpt><trkpt lat="45.9982167" lon="13.4789983"><ele>150.0</ele><time>2026-05-03T09:00:40.596Z</time></trkpt><trkpt lat="45.998165" lon="13.479165"><ele>150.5</ele><time>2026-05-03T09:00:41.593Z</time></trkpt><trkpt lat="45.9981033" lon="13.479335"><ele>151.0</ele><time>2026-05-03T09:00:42.594Z</time></trkpt><trkpt lat="45.998055" lon="13.4795033"><ele>151.5</ele><time>2026-05-03T09:00:43.595Z</time></trkpt><trkpt lat="45.998015" lon="13.4796733"><ele>152.0</ele><time>2026-05-03T09:00:44.596Z</time></trkpt><trkpt lat="45.997975" lon="13.479835"><ele>151.4</ele><time>2026-05-03T09:00:45.594Z</time></trkpt><trkpt lat="45.99794" lon="13.4799867"><ele>150.79999999999998</ele><time>2026-05-03T09:00:46.596Z</time></trkpt><trkpt lat="45.9979167" lon="13.48013"><ele>150.2</ele><time>2026-05-03T09:00:47.594Z</time></trkpt><trkpt lat="45.99792" lon="13.4802717"><ele>149.6</ele><time>2026-05-03T09:00:48.594Z</time></trkpt><trkpt lat="45.99793" lon="13.4804167"><ele>149.0</ele><time>2026-05-03T09:00:49.593Z</time></trkpt><trkpt lat="45.99794" lon="13.4805667"><ele>149.0</ele><time>2026-05-03T09:00:50.595Z</time></trkpt><trkpt lat="45.997935" lon="13.48072"><ele>149.0</ele><time>2026-05-03T09:00:51.595Z</time></trkpt><trkpt lat="45.9979133" lon="13.4808717"><ele>149.0</ele><time>2026-05-03T09:00:52.593Z</time></trkpt><trkpt lat="45.997885" lon="13.481025"><ele>149.0</ele><time>2026-05-03T09:00:53.593Z</time></trkpt><trkpt lat="45.997855" lon="13.4811817"><ele>149.0</ele><time>2026-05-03T09:00:54.595Z</time></trkpt><trkpt lat="45.9978333" lon="13.4813483"><ele>148.0</ele><time>2026-05-03T09:00:55.595Z</time></trkpt><trkpt lat="45.99782" lon="13.4815133"><ele>147.0</ele><time>2026-05-03T09:00:56.593Z</time></trkpt><trkpt lat="45.9978133" lon="13.4816767"><ele>146.0</ele><time>2026-05-03T09:00:57.594Z</time></trkpt><trkpt lat="45.9978083" lon="13.48183"><ele>145.0</ele><time>2026-05-03T09:00:58.593Z</time></trkpt><trkpt lat="45.9978067" lon="13.48198"><ele>144.0</ele><time>2026-05-03T09:00:59.596Z</time></trkpt><trkpt lat="45.9978067" lon="13.4821283"><ele>142.6</ele><time>2026-05-03T09:01:00.595Z</time></trkpt><trkpt lat="45.9978" lon="13.48228"><ele>141.2</ele><time>2026-05-03T09:01:01.594Z</time></trkpt><trkpt lat="45.99778" lon="13.4824333"><ele>139.79999999999998</ele><time>2026-05-03T09:01:02.594Z</time></trkpt><trkpt lat="45.9977483" lon="13.4825733"><ele>138.4</ele><time>2026-05-03T09:01:03.593Z</time></trkpt><trkpt lat="45.9977283" lon="13.4827"><ele>137.0</ele><time>2026-05-03T09:01:04.594Z</time></trkpt><trkpt lat="45.9977083" lon="13.4828267"><ele>135.4</ele><time>2026-05-03T09:01:05.593Z</time></trkpt><trkpt lat="45.9976967" lon="13.4829567"><ele>133.79999999999998</ele><time>2026-05-03T09:01:06.594Z</time></trkpt><trkpt lat="45.9977067" lon="13.4830983"><ele>132.2</ele><time>2026-05-03T09:01:07.595Z</time></trkpt><trkpt lat="45.9977383" lon="13.4832483"><ele>130.6</ele><time>2026-05-03T09:01:08.594Z</time></trkpt><trkpt lat="45.9977867" lon="13.48341"><ele>129.0</ele><time>2026-05-03T09:01:09.597Z</time></trkpt><trkpt lat="45.9978333" lon="13.4835817"><ele>129.0</ele><time>2026-05-03T09:01:10.595Z</time></trkpt><trkpt lat="45.9978817" lon="13.48375"><ele>129.0</ele><time>2026-05-03T09:01:11.594Z</time></trkpt><trkpt lat="45.9979217" lon="13.48391"><ele>129.0</ele><time>2026-05-03T09:01:12.594Z</time></trkpt><trkpt lat="45.9979617" lon="13.4840567"><ele>129.0</ele><time>2026-05-03T09:01:13.594Z</time></trkpt><trkpt lat="45.9979933" lon="13.48419"><ele>127.5</ele><time>2026-05-03T09:01:14.595Z</time></trkpt><trkpt lat="45.9980333" lon="13.4843067"><ele>126.0</ele><time>2026-05-03T09:01:15.593Z</time></trkpt><trkpt lat="45.9980717" lon="13.4844133"><ele>124.5</ele><time>2026-05-03T09:01:16.594Z</time></trkpt><trkpt lat="45.9981133" lon="13.4844933"><ele>123.0</ele><time>2026-05-03T09:01:17.593Z</time></trkpt><trkpt lat="45.9981517" lon="13.4845667"><ele>121.5</ele><time>2026-05-03T09:01:18.595Z</time></trkpt><trkpt lat="45.9981617" lon="13.4847383"><ele>120.0</ele><time>2026-05-03T09:01:20.593Z</time></trkpt><trkpt lat="45.9981383" lon="13.48486"><ele>118.5</ele><time>2026-05-03T09:01:21.596Z</time></trkpt><trkpt lat="45.9981167" lon="13.4850017"><ele>117.0</ele><time>2026-05-03T09:01:22.594Z</time></trkpt><trkpt lat="45.9980667" lon="13.4851783"><ele>115.5</ele><time>2026-05-03T09:01:23.594Z</time></trkpt><trkpt lat="45.99802" lon="13.4853533"><ele>114.0</ele><time>2026-05-03T09:01:24.594Z</time></trkpt><trkpt lat="45.99797" lon="13.4855317"><ele>113.75</ele><time>2026-05-03T09:01:25.595Z</time></trkpt><trkpt lat="45.9979233" lon="13.4857183"><ele>113.5</ele><time>2026-05-03T09:01:26.595Z</time></trkpt><trkpt lat="45.997875" lon="13.4859067"><ele>113.25</ele><time>2026-05-03T09:01:27.594Z</time></trkpt><trkpt lat="45.9978267" lon="13.4860867"><ele>113.0</ele><time>2026-05-03T09:01:28.593Z</time></trkpt><trkpt lat="45.9977783" lon="13.4862617"><ele>113.75</ele><time>2026-05-03T09:01:29.595Z</time></trkpt><trkpt lat="45.9977283" lon="13.4864383"><ele>114.5</ele><time>2026-05-03T09:01:30.593Z</time></trkpt><trkpt lat="45.9976767" lon="13.4866183"><ele>115.25</ele><time>2026-05-03T09:01:31.593Z</time></trkpt><trkpt lat="45.9976167" lon="13.4868"><ele>116.0</ele><time>2026-05-03T09:01:32.594Z</time></trkpt><trkpt lat="45.997555" lon="13.486985"><ele>116.0</ele><time>2026-05-03T09:01:33.593Z</time></trkpt><trkpt lat="45.9974883" lon="13.4871717"><ele>116.0</ele><time>2026-05-03T09:01:34.594Z</time></trkpt><trkpt lat="45.9974233" lon="13.4873633"><ele>116.0</ele><time>2026-05-03T09:01:35.595Z</time></trkpt><trkpt lat="45.99735" lon="13.4875517"><ele>116.0</ele><time>2026-05-03T09:01:36.594Z</time></trkpt><trkpt lat="45.997285" lon="13.487735"><ele>116.0</ele><time>2026-05-03T09:01:37.593Z</time></trkpt><trkpt lat="45.9972267" lon="13.4879033"><ele>116.0</ele><time>2026-05-03T09:01:38.594Z</time></trkpt><trkpt lat="45.9971683" lon="13.4880583"><ele>116.0</ele><time>2026-05-03T09:01:39.594Z</time></trkpt><trkpt lat="45.9971117" lon="13.4881933"><ele>116.0</ele><time>2026-05-03T09:01:40.596Z</time></trkpt><trkpt lat="45.9970683" lon="13.4883283"><ele>114.8</ele><time>2026-05-03T09:01:41.594Z</time></trkpt><trkpt lat="45.997035" lon="13.4884767"><ele>113.6</ele><time>2026-05-03T09:01:42.595Z</time></trkpt><trkpt lat="45.997025" lon="13.4886333"><ele>112.4</ele><time>2026-05-03T09:01:43.593Z</time></trkpt><trkpt lat="45.9970367" lon="13.4887867"><ele>111.2</ele><time>2026-05-03T09:01:44.594Z</time></trkpt><trkpt lat="45.9970667" lon="13.4889233"><ele>110.0</ele><time>2026-05-03T09:01:45.593Z</time></trkpt><trkpt lat="45.9970983" lon="13.4890233"><ele>109.99999999999999</ele><time>2026-05-03T09:01:46.593Z</time></trkpt><trkpt lat="45.9971483" lon="13.489155"><ele>110.0</ele><time>2026-05-03T09:01:48.593Z</time></trkpt><trkpt lat="45.997215" lon="13.4891467"><ele>110.0</ele><time>2026-05-03T09:01:52.594Z</time></trkpt><trkpt lat="45.9972133" lon="13.4890517"><ele>110.0</ele><time>2026-05-03T09:01:54.594Z</time></trkpt><trkpt lat="45.9971817" lon="13.48893"><ele>109.99999999999999</ele><time>2026-05-03T09:01:56.595Z</time></trkpt><trkpt lat="45.9971533" lon="13.4888017"><ele>110.0</ele><time>2026-05-03T09:01:58.593Z</time></trkpt><trkpt lat="45.99714" lon="13.4886817"><ele>109.99999999999999</ele><time>2026-05-03T09:02:00.595Z</time></trkpt><trkpt lat="45.997155" lon="13.4885783"><ele>110.0</ele><time>2026-05-03T09:02:02.594Z</time></trkpt><trkpt lat="45.9971717" lon="13.4884567"><ele>110.0</ele><time>2026-05-03T09:02:05.595Z</time></trkpt><trkpt lat="45.997215" lon="13.4883733"><ele>110.0</ele><time>2026-05-03T09:02:08.596Z</time></trkpt><trkpt lat="45.9972817" lon="13.4883533"><ele>109.99999999999999</ele><time>2026-05-03T09:02:10.593Z</time></trkpt><trkpt lat="45.9973717" lon="13.4883783"><ele>110.0</ele><time>2026-05-03T09:02:12.594Z</time></trkpt><trkpt lat="45.9974657" lon="13.4884187"><ele>107.4</ele><time>2026-05-03T09:02:14.595Z</time></trkpt><trkpt lat="45.9975641" lon="13.4884711"><ele>104.8</ele><time>2026-05-03T09:02:16.593Z</time></trkpt><trkpt lat="45.997654" lon="13.4884935"><ele>102.19999999999999</ele><time>2026-05-03T09:02:18.594Z</time></trkpt><trkpt lat="45.9977377" lon="13.4884952"><ele>99.6</ele><time>2026-05-03T09:02:20.594Z</time></trkpt><trkpt lat="45.9978242" lon="13.4884889"><ele>97.0</ele><time>2026-05-03T09:02:22.593Z</time></trkpt><trkpt lat="45.9979159" lon="13.4884873"><ele>97.00000000000001</ele><time>2026-05-03T09:02:24.593Z</time></trkpt><trkpt lat="45.9980084" lon="13.488482"><ele>97.0</ele><time>2026-05-03T09:02:26.595Z</time></trkpt><trkpt lat="45.9981083" lon="13.4884633"><ele>97.0</ele><time>2026-05-03T09:02:28.594Z</time></trkpt><trkpt lat="45.998195" lon="13.4884283"><ele>97.0</ele><time>2026-05-03T09:02:30.594Z</time></trkpt><trkpt lat="45.9982717" lon="13.4883767"><ele>97.00000000000001</ele><time>2026-05-03T09:02:32.595Z</time></trkpt><trkpt lat="45.9983383" lon="13.4883233"><ele>97.0</ele><time>2026-05-03T09:02:34.593Z</time></trkpt><trkpt lat="45.99841" lon="13.4882617"><ele>93.6</ele><time>2026-05-03T09:02:36.593Z</time></trkpt><trkpt lat="45.998485" lon="13.4882067"><ele>90.19999999999999</ele><time>2026-05-03T09:02:38.595Z</time></trkpt><trkpt lat="45.9985583" lon="13.48818"><ele>86.8</ele><time>2026-05-03T09:02:40.593Z</time></trkpt><trkpt lat="45.9986517" lon="13.4882033"><ele>83.4</ele><time>2026-05-03T09:02:42.593Z</time></trkpt><trkpt lat="45.9987633" lon="13.4882283"><ele>80.0</ele><time>2026-05-03T09:02:44.595Z</time></trkpt><trkpt lat="45.998855" lon="13.4882467"><ele>80.0</ele><time>2026-05-03T09:02:46.595Z</time></trkpt><trkpt lat="45.9989383" lon="13.48828"><ele>80.0</ele><time>2026-05-03T09:02:48.594Z</time></trkpt><trkpt lat="45.9990167" lon="13.4883417"><ele>80.0</ele><time>2026-05-03T09:02:50.594Z</time></trkpt><trkpt lat="45.9990983" lon="13.4884233"><ele>80.0</ele><time>2026-05-03T09:02:52.593Z</time></trkpt><trkpt lat="45.99918" lon="13.4885233"><ele>80.0</ele><time>2026-05-03T09:02:54.595Z</time></trkpt><trkpt lat="45.9992333" lon="13.4885967"><ele>78.83333333333334</ele><time>2026-05-03T09:02:55.595Z</time></trkpt><trkpt lat="45.9992867" lon="13.4886833"><ele>77.66666666666667</ele><time>2026-05-03T09:02:56.593Z</time></trkpt><trkpt lat="45.9993433" lon="13.4887917"><ele>76.5</ele><time>2026-05-03T09:02:57.593Z</time></trkpt><trkpt lat="45.9994033" lon="13.48889"><ele>75.33333333333333</ele><time>2026-05-03T09:02:58.593Z</time></trkpt><trkpt lat="45.99946" lon="13.4889833"><ele>74.16666666666666</ele><time>2026-05-03T09:02:59.593Z</time></trkpt><trkpt lat="45.9995133" lon="13.4890717"><ele>73.0</ele><time>2026-05-03T09:03:00.593Z</time></trkpt><trkpt lat="45.999565" lon="13.48916"><ele>73.0</ele><time>2026-05-03T09:03:01.593Z</time></trkpt><trkpt lat="45.9996167" lon="13.48924"><ele>73.0</ele><time>2026-05-03T09:03:02.595Z</time></trkpt><trkpt lat="45.9997117" lon="13.4893417"><ele>73.0</ele><time>2026-05-03T09:03:04.595Z</time></trkpt><trkpt lat="45.9997733" lon="13.489375"><ele>73.0</ele><time>2026-05-03T09:03:05.594Z</time></trkpt><trkpt lat="45.9998433" lon="13.4894117"><ele>73.0</ele><time>2026-05-03T09:03:06.594Z</time></trkpt><trkpt lat="45.9999233" lon="13.4894533"><ele>73.0</ele><time>2026-05-03T09:03:07.594Z</time></trkpt><trkpt lat="46.0000133" lon="13.4894983"><ele>73.0</ele><time>2026-05-03T09:03:08.594Z</time></trkpt><trkpt lat="46.0001033" lon="13.4895483"><ele>73.0</ele><time>2026-05-03T09:03:09.594Z</time></trkpt><trkpt lat="46.00019" lon="13.4895917"><ele>73.0</ele><time>2026-05-03T09:03:10.595Z</time></trkpt><trkpt lat="46.0002817" lon="13.4896283"><ele>73.0</ele><time>2026-05-03T09:03:11.594Z</time></trkpt><trkpt lat="46.0003733" lon="13.48967"><ele>73.0</ele><time>2026-05-03T09:03:12.594Z</time></trkpt><trkpt lat="46.00046" lon="13.489715"><ele>73.2</ele><time>2026-05-03T09:03:13.594Z</time></trkpt><trkpt lat="46.0005383" lon="13.4897567"><ele>73.4</ele><time>2026-05-03T09:03:14.595Z</time></trkpt><trkpt lat="46.00062" lon="13.4898"><ele>73.60000000000001</ele><time>2026-05-03T09:03:15.594Z</time></trkpt><trkpt lat="46.0007083" lon="13.489845"><ele>73.8</ele><time>2026-05-03T09:03:16.596Z</time></trkpt><trkpt lat="46.0007983" lon="13.489895"><ele>74.0</ele><time>2026-05-03T09:03:17.596Z</time></trkpt><trkpt lat="46.000895" lon="13.489945"><ele>74.4</ele><time>2026-05-03T09:03:18.596Z</time></trkpt><trkpt lat="46.0009917" lon="13.4899933"><ele>74.80000000000001</ele><time>2026-05-03T09:03:19.597Z</time></trkpt><trkpt lat="46.00108" lon="13.4900467"><ele>75.19999999999999</ele><time>2026-05-03T09:03:20.595Z</time></trkpt><trkpt lat="46.00117" lon="13.490095"><ele>75.6</ele><time>2026-05-03T09:03:21.594Z</time></trkpt><trkpt lat="46.00126" lon="13.490145"><ele>76.0</ele><time>2026-05-03T09:03:22.593Z</time></trkpt><trkpt lat="46.00135" lon="13.490195"><ele>76.0</ele><time>2026-05-03T09:03:23.597Z</time></trkpt><trkpt lat="46.0014367" lon="13.490245"><ele>76.0</ele><time>2026-05-03T09:03:24.594Z</time></trkpt><trkpt lat="46.0015217" lon="13.4902933"><ele>76.0</ele><time>2026-05-03T09:03:25.594Z</time></trkpt><trkpt lat="46.001605" lon="13.49034"><ele>76.0</ele><time>2026-05-03T09:03:26.594Z</time></trkpt><trkpt lat="46.00169" lon="13.4903817"><ele>76.0</ele><time>2026-05-03T09:03:27.593Z</time></trkpt><trkpt lat="46.0017711" lon="13.4904194"><ele>76.0</ele><time>2026-05-03T09:03:28.595Z</time></trkpt><trkpt lat="46.0018443" lon="13.4904607"><ele>76.0</ele><time>2026-05-03T09:03:29.594Z</time></trkpt><trkpt lat="46.0019066" lon="13.4904998"><ele>76.0</ele><time>2026-05-03T09:03:30.593Z</time></trkpt><trkpt lat="46.0019965" lon="13.4905556"><ele>76.0</ele><time>2026-05-03T09:03:32.595Z</time></trkpt><trkpt lat="46.0020694" lon="13.4905635"><ele>76.0</ele><time>2026-05-03T09:03:35.594Z</time></trkpt><trkpt lat="46.0021297" lon="13.4904306"><ele>76.0</ele><time>2026-05-03T09:03:38.594Z</time></trkpt><trkpt lat="46.0021374" lon="13.4903297"><ele>76.0</ele><time>2026-05-03T09:03:39.593Z</time></trkpt><trkpt lat="46.0021467" lon="13.4902041"><ele>76.25</ele><time>2026-05-03T09:03:40.594Z</time></trkpt><trkpt lat="46.0021671" lon="13.4900631"><ele>76.5</ele><time>2026-05-03T09:03:41.594Z</time></trkpt><trkpt lat="46.0022008" lon="13.4899123"><ele>76.75</ele><time>2026-05-03T09:03:42.593Z</time></trkpt><trkpt lat="46.0022487" lon="13.4897583"><ele>77.0</ele><time>2026-05-03T09:03:43.594Z</time></trkpt><trkpt lat="46.0023039" lon="13.4895977"><ele>76.75</ele><time>2026-05-03T09:03:44.594Z</time></trkpt><trkpt lat="46.0023606" lon="13.4894257"><ele>76.5</ele><time>2026-05-03T09:03:45.596Z</time></trkpt><trkpt lat="46.0024271" lon="13.4892501"><ele>76.25</ele><time>2026-05-03T09:03:46.595Z</time></trkpt><trkpt lat="46.0024865" lon="13.489054"><ele>76.0</ele><time>2026-05-03T09:03:47.594Z</time></trkpt><trkpt lat="46.0025353" lon="13.4888428"><ele>76.66666666666666</ele><time>2026-05-03T09:03:48.595Z</time></trkpt><trkpt lat="46.0025762" lon="13.488624"><ele>77.33333333333333</ele><time>2026-05-03T09:03:49.594Z</time></trkpt><trkpt lat="46.0026123" lon="13.488407"><ele>78.0</ele><time>2026-05-03T09:03:50.596Z</time></trkpt><trkpt lat="46.0026541" lon="13.488203"><ele>78.0</ele><time>2026-05-03T09:03:51.593Z</time></trkpt><trkpt lat="46.0027042" lon="13.4880069"><ele>78.0</ele><time>2026-05-03T09:03:52.595Z</time></trkpt><trkpt lat="46.0027675" lon="13.4878137"><ele>78.0</ele><time>2026-05-03T09:03:53.596Z</time></trkpt><trkpt lat="46.0028384" lon="13.487624"><ele>78.0</ele><time>2026-05-03T09:03:54.595Z</time></trkpt><trkpt lat="46.0029204" lon="13.4874385"><ele>77.25</ele><time>2026-05-03T09:03:55.595Z</time></trkpt><trkpt lat="46.0030043" lon="13.4872627"><ele>76.5</ele><time>2026-05-03T09:03:56.594Z</time></trkpt><trkpt lat="46.0030952" lon="13.4871019"><ele>75.75</ele><time>2026-05-03T09:03:57.594Z</time></trkpt><trkpt lat="46.0031923" lon="13.4869444"><ele>75.0</ele><time>2026-05-03T09:03:58.594Z</time></trkpt><trkpt lat="46.0033031" lon="13.4867941"><ele>75.0</ele><time>2026-05-03T09:03:59.594Z</time></trkpt><trkpt lat="46.0034117" lon="13.4866441"><ele>75.0</ele><time>2026-05-03T09:04:00.595Z</time></trkpt><trkpt lat="46.0035033" lon="13.4864817"><ele>75.0</ele><time>2026-05-03T09:04:01.595Z</time></trkpt><trkpt lat="46.00358" lon="13.4862983"><ele>75.0</ele><time>2026-05-03T09:04:02.595Z</time></trkpt><trkpt lat="46.0036533" lon="13.486105"><ele>75.0</ele><time>2026-05-03T09:04:03.595Z</time></trkpt><trkpt lat="46.0037183" lon="13.4859"><ele>75.0</ele><time>2026-05-03T09:04:04.594Z</time></trkpt><trkpt lat="46.0037717" lon="13.4856817"><ele>75.0</ele><time>2026-05-03T09:04:05.594Z</time></trkpt><trkpt lat="46.003825" lon="13.4854583"><ele>74.33333333333333</ele><time>2026-05-03T09:04:06.595Z</time></trkpt><trkpt lat="46.0038867" lon="13.485245"><ele>73.66666666666666</ele><time>2026-05-03T09:04:07.596Z</time></trkpt><trkpt lat="46.0039533" lon="13.4850417"><ele>73.0</ele><time>2026-05-03T09:04:08.595Z</time></trkpt><trkpt lat="46.0040267" lon="13.4848367"><ele>73.0</ele><time>2026-05-03T09:04:09.595Z</time></trkpt><trkpt lat="46.004095" lon="13.4846433"><ele>73.0</ele><time>2026-05-03T09:04:10.594Z</time></trkpt><trkpt lat="46.0041667" lon="13.48447"><ele>73.0</ele><time>2026-05-03T09:04:11.593Z</time></trkpt><trkpt lat="46.0042517" lon="13.4843133"><ele>73.0</ele><time>2026-05-03T09:04:12.594Z</time></trkpt><trkpt lat="46.0043433" lon="13.4841533"><ele>73.0</ele><time>2026-05-03T09:04:13.594Z</time></trkpt><trkpt lat="46.0044383" lon="13.4839817"><ele>73.0</ele><time>2026-05-03T09:04:14.595Z</time></trkpt><trkpt lat="46.00451" lon="13.4837967"><ele>73.0</ele><time>2026-05-03T09:04:15.594Z</time></trkpt><trkpt lat="46.0045483" lon="13.4835983"><ele>73.0</ele><time>2026-05-03T09:04:16.595Z</time></trkpt><trkpt lat="46.0045633" lon="13.483385"><ele>73.0</ele><time>2026-05-03T09:04:17.595Z</time></trkpt><trkpt lat="46.004565" lon="13.4831683"><ele>73.0</ele><time>2026-05-03T09:04:18.595Z</time></trkpt><trkpt lat="46.004555" lon="13.4829467"><ele>73.0</ele><time>2026-05-03T09:04:19.594Z</time></trkpt><trkpt lat="46.0045533" lon="13.4827317"><ele>73.0</ele><time>2026-05-03T09:04:20.594Z</time></trkpt><trkpt lat="46.004545" lon="13.4825133"><ele>73.0</ele><time>2026-05-03T09:04:21.594Z</time></trkpt><trkpt lat="46.0045383" lon="13.4822967"><ele>73.0</ele><time>2026-05-03T09:04:22.594Z</time></trkpt><trkpt lat="46.00453" lon="13.48208"><ele>73.0</ele><time>2026-05-03T09:04:23.596Z</time></trkpt><trkpt lat="46.0045217" lon="13.48186"><ele>73.0</ele><time>2026-05-03T09:04:24.594Z</time></trkpt><trkpt lat="46.00451" lon="13.4816383"><ele>73.0</ele><time>2026-05-03T09:04:25.594Z</time></trkpt><trkpt lat="46.0044983" lon="13.4814183"><ele>73.0</ele><time>2026-05-03T09:04:26.595Z</time></trkpt><trkpt lat="46.0044917" lon="13.481195"><ele>73.0</ele><time>2026-05-03T09:04:27.594Z</time></trkpt><trkpt lat="46.0044917" lon="13.4809733"><ele>73.0</ele><time>2026-05-03T09:04:28.594Z</time></trkpt><trkpt lat="46.0045183" lon="13.4807583"><ele>73.0</ele><time>2026-05-03T09:04:29.595Z</time></trkpt><trkpt lat="46.00454" lon="13.48054"><ele>73.0</ele><time>2026-05-03T09:04:30.594Z</time></trkpt><trkpt lat="46.0045383" lon="13.4803183"><ele>73.0</ele><time>2026-05-03T09:04:31.595Z</time></trkpt><trkpt lat="46.0045167" lon="13.4801"><ele>73.0</ele><time>2026-05-03T09:04:32.594Z</time></trkpt><trkpt lat="46.0044833" lon="13.4798833"><ele>73.0</ele><time>2026-05-03T09:04:33.594Z</time></trkpt><trkpt lat="46.0044333" lon="13.479675"><ele>73.0</ele><time>2026-05-03T09:04:34.593Z</time></trkpt><trkpt lat="46.0043817" lon="13.4794733"><ele>73.0</ele><time>2026-05-03T09:04:35.595Z</time></trkpt><trkpt lat="46.00434" lon="13.4792783"><ele>73.0</ele><time>2026-05-03T09:04:36.595Z</time></trkpt><trkpt lat="46.0043117" lon="13.4790883"><ele>73.0</ele><time>2026-05-03T09:04:37.594Z</time></trkpt><trkpt lat="46.0042967" lon="13.4789017"><ele>73.0</ele><time>2026-05-03T09:04:38.596Z</time></trkpt><trkpt lat="46.0042883" lon="13.4787233"><ele>73.25</ele><time>2026-05-03T09:04:39.594Z</time></trkpt><trkpt lat="46.0043017" lon="13.47854"><ele>73.5</ele><time>2026-05-03T09:04:40.595Z</time></trkpt><trkpt lat="46.0042917" lon="13.4783733"><ele>73.75</ele><time>2026-05-03T09:04:41.595Z</time></trkpt><trkpt lat="46.0042783" lon="13.478205"><ele>74.0</ele><time>2026-05-03T09:04:42.594Z</time></trkpt><trkpt lat="46.0042333" lon="13.4780417"><ele>74.0</ele><time>2026-05-03T09:04:43.594Z</time></trkpt><trkpt lat="46.0041883" lon="13.477885"><ele>74.0</ele><time>2026-05-03T09:04:44.595Z</time></trkpt><trkpt lat="46.004135" lon="13.4777417"><ele>74.0</ele><time>2026-05-03T09:04:45.595Z</time></trkpt><trkpt lat="46.0040833" lon="13.477615"><ele>74.0</ele><time>2026-05-03T09:04:46.594Z</time></trkpt><trkpt lat="46.0040333" lon="13.4774983"><ele>74.0</ele><time>2026-05-03T09:04:47.594Z</time></trkpt><trkpt lat="46.00399" lon="13.4773933"><ele>73.5</ele><time>2026-05-03T09:04:48.594Z</time></trkpt><trkpt lat="46.0039483" lon="13.4772917"><ele>73.0</ele><time>2026-05-03T09:04:49.596Z</time></trkpt><trkpt lat="46.0039083" lon="13.4772033"><ele>72.5</ele><time>2026-05-03T09:04:50.596Z</time></trkpt><trkpt lat="46.00387" lon="13.4771167"><ele>72.0</ele><time>2026-05-03T09:04:51.594Z</time></trkpt><trkpt lat="46.0038333" lon="13.477025"><ele>71.5</ele><time>2026-05-03T09:04:52.596Z</time></trkpt><trkpt lat="46.0037933" lon="13.4769167"><ele>71.0</ele><time>2026-05-03T09:04:53.598Z</time></trkpt><trkpt lat="46.003755" lon="13.4767917"><ele>71.0</ele><time>2026-05-03T09:04:54.595Z</time></trkpt><trkpt lat="46.0037283" lon="13.4766467"><ele>71.0</ele><time>2026-05-03T09:04:55.596Z</time></trkpt><trkpt lat="46.0037117" lon="13.47649"><ele>71.0</ele><time>2026-05-03T09:04:56.596Z</time></trkpt><trkpt lat="46.0037133" lon="13.476325"><ele>71.0</ele><time>2026-05-03T09:04:57.595Z</time></trkpt><trkpt lat="46.0037167" lon="13.4761533"><ele>71.0</ele><time>2026-05-03T09:04:58.595Z</time></trkpt><trkpt lat="46.00375" lon="13.4759733"><ele>71.0</ele><time>2026-05-03T09:04:59.595Z</time></trkpt><trkpt lat="46.0037283" lon="13.475795"><ele>71.0</ele><time>2026-05-03T09:05:00.595Z</time></trkpt><trkpt lat="46.003745" lon="13.475605"><ele>71.0</ele><time>2026-05-03T09:05:01.595Z</time></trkpt><trkpt lat="46.00375" lon="13.47541"><ele>71.0</ele><time>2026-05-03T09:05:02.594Z</time></trkpt><trkpt lat="46.0037583" lon="13.475215"><ele>71.0</ele><time>2026-05-03T09:05:03.594Z</time></trkpt><trkpt lat="46.0037617" lon="13.475025"><ele>71.0</ele><time>2026-05-03T09:05:04.595Z</time></trkpt><trkpt lat="46.00377" lon="13.4748283"><ele>71.0</ele><time>2026-05-03T09:05:05.597Z</time></trkpt><trkpt lat="46.0037783" lon="13.4746317"><ele>71.0</ele><time>2026-05-03T09:05:06.594Z</time></trkpt><trkpt lat="46.0037817" lon="13.4744367"><ele>71.0</ele><time>2026-05-03T09:05:07.594Z</time></trkpt><trkpt lat="46.00378" lon="13.4742583"><ele>71.0</ele><time>2026-05-03T09:05:08.595Z</time></trkpt><trkpt lat="46.0037833" lon="13.4740783"><ele>71.0</ele><time>2026-05-03T09:05:09.595Z</time></trkpt><trkpt lat="46.003795" lon="13.473885"><ele>71.0</ele><time>2026-05-03T09:05:10.594Z</time></trkpt><trkpt lat="46.00381" lon="13.4736783"><ele>71.0</ele><time>2026-05-03T09:05:11.595Z</time></trkpt><trkpt lat="46.0038217" lon="13.4734783"><ele>71.0</ele><time>2026-05-03T09:05:12.596Z</time></trkpt><trkpt lat="46.00383" lon="13.473305"><ele>71.0</ele><time>2026-05-03T09:05:13.594Z</time></trkpt><trkpt lat="46.0038383" lon="13.4731583"><ele>71.0</ele><time>2026-05-03T09:05:14.596Z</time></trkpt><trkpt lat="46.0038467" lon="13.4730333"><ele>70.8</ele><time>2026-05-03T09:05:15.595Z</time></trkpt><trkpt lat="46.0038567" lon="13.4729367"><ele>70.6</ele><time>2026-05-03T09:05:16.595Z</time></trkpt><trkpt lat="46.0039" lon="13.4728083"><ele>70.4</ele><time>2026-05-03T09:05:18.593Z</time></trkpt><trkpt lat="46.0039933" lon="13.4727567"><ele>70.2</ele><time>2026-05-03T09:05:20.596Z</time></trkpt><trkpt lat="46.0041267" lon="13.4728167"><ele>70.0</ele><time>2026-05-03T09:05:22.594Z</time></trkpt><trkpt lat="46.0042217" lon="13.4728817"><ele>71.25</ele><time>2026-05-03T09:05:23.595Z</time></trkpt><trkpt lat="46.00434" lon="13.4729533"><ele>72.5</ele><time>2026-05-03T09:05:24.594Z</time></trkpt><trkpt lat="46.0044683" lon="13.4730267"><ele>73.75</ele><time>2026-05-03T09:05:25.596Z</time></trkpt><trkpt lat="46.0045983" lon="13.4731083"><ele>75.0</ele><time>2026-05-03T09:05:26.595Z</time></trkpt><trkpt lat="46.004725" lon="13.4731783"><ele>75.0</ele><time>2026-05-03T09:05:27.595Z</time></trkpt><trkpt lat="46.004835" lon="13.473235"><ele>75.0</ele><time>2026-05-03T09:05:28.595Z</time></trkpt><trkpt lat="46.004935" lon="13.47326"><ele>75.0</ele><time>2026-05-03T09:05:29.595Z</time></trkpt><trkpt lat="46.0050283" lon="13.4732833"><ele>75.0</ele><time>2026-05-03T09:05:30.594Z</time></trkpt><trkpt lat="46.0051167" lon="13.4733067"><ele>75.0</ele><time>2026-05-03T09:05:31.594Z</time></trkpt><trkpt lat="46.0051933" lon="13.473325"><ele>75.33333333333333</ele><time>2026-05-03T09:05:32.595Z</time></trkpt><trkpt lat="46.0052567" lon="13.4733283"><ele>75.66666666666667</ele><time>2026-05-03T09:05:33.594Z</time></trkpt><trkpt lat="46.00534" lon="13.4732517"><ele>76.0</ele><time>2026-05-03T09:05:35.594Z</time></trkpt><trkpt lat="46.0053883" lon="13.47312"><ele>76.33333333333334</ele><time>2026-05-03T09:05:37.595Z</time></trkpt><trkpt lat="46.0054067" lon="13.4730217"><ele>76.66666666666667</ele><time>2026-05-03T09:05:38.595Z</time></trkpt><trkpt lat="46.0054233" lon="13.47291"><ele>77.0</ele><time>2026-05-03T09:05:39.595Z</time></trkpt><trkpt lat="46.005455" lon="13.4727867"><ele>77.0</ele><time>2026-05-03T09:05:40.595Z</time></trkpt><trkpt lat="46.0054983" lon="13.472665"><ele>77.0</ele><time>2026-05-03T09:05:41.596Z</time></trkpt><trkpt lat="46.00555" lon="13.47255"><ele>77.0</ele><time>2026-05-03T09:05:42.596Z</time></trkpt><trkpt lat="46.00561" lon="13.472445"><ele>77.0</ele><time>2026-05-03T09:05:43.595Z</time></trkpt><trkpt lat="46.0056767" lon="13.4723433"><ele>77.0</ele><time>2026-05-03T09:05:44.596Z</time></trkpt><trkpt lat="46.0057467" lon="13.4722483"><ele>77.0</ele><time>2026-05-03T09:05:45.596Z</time></trkpt><trkpt lat="46.0058067" lon="13.4721283"><ele>77.0</ele><time>2026-05-03T09:05:46.593Z</time></trkpt><trkpt lat="46.0058717" lon="13.4720317"><ele>77.0</ele><time>2026-05-03T09:05:47.594Z</time></trkpt><trkpt lat="46.0059383" lon="13.4719533"><ele>77.0</ele><time>2026-05-03T09:05:48.594Z</time></trkpt><trkpt lat="46.006005" lon="13.4718817"><ele>77.0</ele><time>2026-05-03T09:05:49.594Z</time></trkpt><trkpt lat="46.00607" lon="13.47183"><ele>77.0</ele><time>2026-05-03T09:05:50.593Z</time></trkpt><trkpt lat="46.0061333" lon="13.4718"><ele>79.33333333333334</ele><time>2026-05-03T09:05:51.594Z</time></trkpt><trkpt lat="46.0062017" lon="13.4717833"><ele>81.66666666666667</ele><time>2026-05-03T09:05:52.593Z</time></trkpt><trkpt lat="46.00628" lon="13.471775"><ele>84.0</ele><time>2026-05-03T09:05:53.593Z</time></trkpt><trkpt lat="46.006365" lon="13.4717717"><ele>86.33333333333333</ele><time>2026-05-03T09:05:54.592Z</time></trkpt><trkpt lat="46.0064517" lon="13.4717667"><ele>88.66666666666666</ele><time>2026-05-03T09:05:55.594Z</time></trkpt><trkpt lat="46.0065433" lon="13.4717517"><ele>91.0</ele><time>2026-05-03T09:05:56.593Z</time></trkpt><trkpt lat="46.0066367" lon="13.4717267"><ele>92.16666666666666</ele><time>2026-05-03T09:05:57.594Z</time></trkpt><trkpt lat="46.0067233" lon="13.4716917"><ele>93.33333333333333</ele><time>2026-05-03T09:05:58.593Z</time></trkpt><trkpt lat="46.006805" lon="13.4716433"><ele>94.5</ele><time>2026-05-03T09:05:59.593Z</time></trkpt><trkpt lat="46.006875" lon="13.4715833"><ele>95.66666666666666</ele><time>2026-05-03T09:06:00.594Z</time></trkpt><trkpt lat="46.0069383" lon="13.471515"><ele>96.83333333333333</ele><time>2026-05-03T09:06:01.593Z</time></trkpt><trkpt lat="46.0069967" lon="13.471435"><ele>98.0</ele><time>2026-05-03T09:06:02.593Z</time></trkpt><trkpt lat="46.0070517" lon="13.47135"><ele>100.16666666666666</ele><time>2026-05-03T09:06:03.594Z</time></trkpt><trkpt lat="46.0071017" lon="13.4712567"><ele>102.33333333333333</ele><time>2026-05-03T09:06:04.594Z</time></trkpt><trkpt lat="46.0071483" lon="13.4711567"><ele>104.5</ele><time>2026-05-03T09:06:05.594Z</time></trkpt><trkpt lat="46.0071967" lon="13.47105"><ele>106.66666666666666</ele><time>2026-05-03T09:06:06.593Z</time></trkpt><trkpt lat="46.0072467" lon="13.470935"><ele>108.83333333333333</ele><time>2026-05-03T09:06:07.594Z</time></trkpt><trkpt lat="46.0073" lon="13.4708183"><ele>111.0</ele><time>2026-05-03T09:06:08.593Z</time></trkpt><trkpt lat="46.0073533" lon="13.4707117"><ele>111.0</ele><time>2026-05-03T09:06:09.595Z</time></trkpt><trkpt lat="46.0074083" lon="13.4706283"><ele>111.0</ele><time>2026-05-03T09:06:10.593Z</time></trkpt><trkpt lat="46.00747" lon="13.4705667"><ele>111.0</ele><time>2026-05-03T09:06:11.593Z</time></trkpt><trkpt lat="46.0075483" lon="13.47052"><ele>111.0</ele><time>2026-05-03T09:06:12.592Z</time></trkpt><trkpt lat="46.007645" lon="13.4704917"><ele>111.0</ele><time>2026-05-03T09:06:13.594Z</time></trkpt><trkpt lat="46.00775" lon="13.47048"><ele>111.0</ele><time>2026-05-03T09:06:14.594Z</time></trkpt><trkpt lat="46.0078567" lon="13.4704767"><ele>111.0</ele><time>2026-05-03T09:06:15.593Z</time></trkpt><trkpt lat="46.0079633" lon="13.4704883"><ele>111.0</ele><time>2026-05-03T09:06:16.594Z</time></trkpt><trkpt lat="46.0080683" lon="13.4705217"><ele>111.0</ele><time>2026-05-03T09:06:17.593Z</time></trkpt><trkpt lat="46.0081764" lon="13.4705711"><ele>111.0</ele><time>2026-05-03T09:06:18.594Z</time></trkpt><trkpt lat="46.0082878" lon="13.4706352"><ele>111.0</ele><time>2026-05-03T09:06:19.594Z</time></trkpt><trkpt lat="46.0084049" lon="13.4707126"><ele>111.75</ele><time>2026-05-03T09:06:20.593Z</time></trkpt><trkpt lat="46.0085256" lon="13.4708012"><ele>112.5</ele><time>2026-05-03T09:06:21.594Z</time></trkpt><trkpt lat="46.0086493" lon="13.4709003"><ele>113.25</ele><time>2026-05-03T09:06:22.593Z</time></trkpt><trkpt lat="46.0087764" lon="13.4710027"><ele>114.0</ele><time>2026-05-03T09:06:23.593Z</time></trkpt><trkpt lat="46.0089035" lon="13.471107"><ele>114.0</ele><time>2026-05-03T09:06:24.593Z</time></trkpt><trkpt lat="46.009026" lon="13.4712018"><ele>114.0</ele><time>2026-05-03T09:06:25.594Z</time></trkpt><trkpt lat="46.0091442" lon="13.4712832"><ele>114.0</ele><time>2026-05-03T09:06:26.594Z</time></trkpt><trkpt lat="46.0092631" lon="13.4713586"><ele>114.0</ele><time>2026-05-03T09:06:27.594Z</time></trkpt><trkpt lat="46.009382" lon="13.4714354"><ele>114.25</ele><time>2026-05-03T09:06:28.593Z</time></trkpt><trkpt lat="46.009498" lon="13.4715192"><ele>114.5</ele><time>2026-05-03T09:06:29.593Z</time></trkpt><trkpt lat="46.009606" lon="13.4716163"><ele>114.75</ele><time>2026-05-03T09:06:30.594Z</time></trkpt><trkpt lat="46.009706" lon="13.4717248"><ele>115.0</ele><time>2026-05-03T09:06:31.594Z</time></trkpt><trkpt lat="46.0097982" lon="13.4718361"><ele>115.0</ele><time>2026-05-03T09:06:32.597Z</time></trkpt><trkpt lat="46.0098887" lon="13.471944"><ele>115.0</ele><time>2026-05-03T09:06:33.593Z</time></trkpt><trkpt lat="46.0099796" lon="13.4720523"><ele>115.0</ele><time>2026-05-03T09:06:34.593Z</time></trkpt><trkpt lat="46.0100697" lon="13.472164"><ele>115.0</ele><time>2026-05-03T09:06:35.594Z</time></trkpt><trkpt lat="46.010159" lon="13.4722762"><ele>115.16666666666667</ele><time>2026-05-03T09:06:36.593Z</time></trkpt><trkpt lat="46.0102424" lon="13.4723817"><ele>115.33333333333334</ele><time>2026-05-03T09:06:37.593Z</time></trkpt><trkpt lat="46.0103087" lon="13.4724758"><ele>115.5</ele><time>2026-05-03T09:06:38.595Z</time></trkpt><trkpt lat="46.0103643" lon="13.4725635"><ele>115.66666666666666</ele><time>2026-05-03T09:06:39.595Z</time></trkpt><trkpt lat="46.0104126" lon="13.4726569"><ele>115.83333333333333</ele><time>2026-05-03T09:06:40.594Z</time></trkpt><trkpt lat="46.0104537" lon="13.4727511"><ele>116.0</ele><time>2026-05-03T09:06:41.594Z</time></trkpt><trkpt lat="46.0104869" lon="13.4728396"><ele>115.99999999999999</ele><time>2026-05-03T09:06:42.593Z</time></trkpt><trkpt lat="46.0105175" lon="13.4729218"><ele>116.0</ele><time>2026-05-03T09:06:43.594Z</time></trkpt><trkpt lat="46.0105936" lon="13.4730387"><ele>116.0</ele><time>2026-05-03T09:06:45.593Z</time></trkpt><trkpt lat="46.0107092" lon="13.4730796"><ele>116.0</ele><time>2026-05-03T09:06:47.594Z</time></trkpt><trkpt lat="46.010772" lon="13.473086"><ele>115.99999999999999</ele><time>2026-05-03T09:06:48.594Z</time></trkpt><trkpt lat="46.0108355" lon="13.4730897"><ele>116.0</ele><time>2026-05-03T09:06:49.594Z</time></trkpt><trkpt lat="46.0109518" lon="13.4731207"><ele>115.83333333333333</ele><time>2026-05-03T09:06:51.593Z</time></trkpt><trkpt lat="46.0110198" lon="13.4731399"><ele>115.66666666666666</ele><time>2026-05-03T09:06:52.593Z</time></trkpt><trkpt lat="46.0110833" lon="13.4731827"><ele>115.5</ele><time>2026-05-03T09:06:53.595Z</time></trkpt><trkpt lat="46.0111524" lon="13.4732457"><ele>115.33333333333334</ele><time>2026-05-03T09:06:54.594Z</time></trkpt><trkpt lat="46.0112225" lon="13.4733259"><ele>115.16666666666667</ele><time>2026-05-03T09:06:55.593Z</time></trkpt><trkpt lat="46.0112972" lon="13.4734112"><ele>115.0</ele><time>2026-05-03T09:06:56.593Z</time></trkpt><trkpt lat="46.0113742" lon="13.4735133"><ele>115.0</ele><time>2026-05-03T09:06:57.597Z</time></trkpt><trkpt lat="46.0114567" lon="13.4736182"><ele>115.0</ele><time>2026-05-03T09:06:58.594Z</time></trkpt><trkpt lat="46.0115452" lon="13.4737247"><ele>115.0</ele><time>2026-05-03T09:06:59.593Z</time></trkpt><trkpt lat="46.0116313" lon="13.4738358"><ele>115.0</ele><time>2026-05-03T09:07:00.594Z</time></trkpt><trkpt lat="46.0117159" lon="13.4739491"><ele>115.0</ele><time>2026-05-03T09:07:01.593Z</time></trkpt><trkpt lat="46.0117999" lon="13.4740641"><ele>115.0</ele><time>2026-05-03T09:07:02.596Z</time></trkpt><trkpt lat="46.0118805" lon="13.4741784"><ele>115.0</ele><time>2026-05-03T09:07:03.593Z</time></trkpt><trkpt lat="46.0119586" lon="13.4742822"><ele>115.0</ele><time>2026-05-03T09:07:04.595Z</time></trkpt><trkpt lat="46.0120286" lon="13.4743812"><ele>115.0</ele><time>2026-05-03T09:07:05.596Z</time></trkpt><trkpt lat="46.0120941" lon="13.4744692"><ele>115.00000000000001</ele><time>2026-05-03T09:07:06.594Z</time></trkpt><trkpt lat="46.0121469" lon="13.4745497"><ele>115.0</ele><time>2026-05-03T09:07:07.595Z</time></trkpt><trkpt lat="46.0121864" lon="13.4746313"><ele>115.0</ele><time>2026-05-03T09:07:08.594Z</time></trkpt><trkpt lat="46.0122313" lon="13.4747962"><ele>115.0</ele><time>2026-05-03T09:07:10.593Z</time></trkpt><trkpt lat="46.0122715" lon="13.4749523"><ele>115.00000000000001</ele><time>2026-05-03T09:07:12.594Z</time></trkpt><trkpt lat="46.0123053" lon="13.4750294"><ele>115.0</ele><time>2026-05-03T09:07:13.594Z</time></trkpt><trkpt lat="46.0123425" lon="13.4751059"><ele>115.00000000000001</ele><time>2026-05-03T09:07:14.594Z</time></trkpt><trkpt lat="46.0123891" lon="13.4751701"><ele>115.0</ele><time>2026-05-03T09:07:15.594Z</time></trkpt><trkpt lat="46.0125056" lon="13.475249"><ele>115.0</ele><time>2026-05-03T09:07:17.594Z</time></trkpt><trkpt lat="46.0125692" lon="13.4752805"><ele>115.0</ele><time>2026-05-03T09:07:18.594Z</time></trkpt><trkpt lat="46.0126371" lon="13.4753038"><ele>115.00000000000001</ele><time>2026-05-03T09:07:19.593Z</time></trkpt><trkpt lat="46.0127049" lon="13.4753317"><ele>115.0</ele><time>2026-05-03T09:07:20.594Z</time></trkpt><trkpt lat="46.0127777" lon="13.4753701"><ele>115.00000000000001</ele><time>2026-05-03T09:07:21.593Z</time></trkpt><trkpt lat="46.0128533" lon="13.4754167"><ele>115.0</ele><time>2026-05-03T09:07:22.594Z</time></trkpt><trkpt lat="46.0129302" lon="13.4754625"><ele>115.0</ele><time>2026-05-03T09:07:23.593Z</time></trkpt><trkpt lat="46.0130059" lon="13.4755081"><ele>115.0</ele><time>2026-05-03T09:07:24.594Z</time></trkpt><trkpt lat="46.013084" lon="13.4755563"><ele>115.00000000000001</ele><time>2026-05-03T09:07:25.593Z</time></trkpt><trkpt lat="46.0131643" lon="13.475606"><ele>115.0</ele><time>2026-05-03T09:07:26.596Z</time></trkpt><trkpt lat="46.0132458" lon="13.4756555"><ele>113.50000000000001</ele><time>2026-05-03T09:07:27.594Z</time></trkpt><trkpt lat="46.0133304" lon="13.4756984"><ele>112.0</ele><time>2026-05-03T09:07:28.594Z</time></trkpt><trkpt lat="46.0134171" lon="13.4757355"><ele>110.5</ele><time>2026-05-03T09:07:29.595Z</time></trkpt><trkpt lat="46.0135069" lon="13.4757665"><ele>109.0</ele><time>2026-05-03T09:07:30.593Z</time></trkpt><trkpt lat="46.0135959" lon="13.4757932"><ele>107.50000000000001</ele><time>2026-05-03T09:07:31.595Z</time></trkpt><trkpt lat="46.0136736" lon="13.4758244"><ele>106.0</ele><time>2026-05-03T09:07:32.594Z</time></trkpt><trkpt lat="46.0137404" lon="13.4758684"><ele>106.00000000000001</ele><time>2026-05-03T09:07:33.595Z</time></trkpt><trkpt lat="46.0137969" lon="13.4759316"><ele>106.0</ele><time>2026-05-03T09:07:34.593Z</time></trkpt><trkpt lat="46.013846" lon="13.4760088"><ele>106.0</ele><time>2026-05-03T09:07:35.595Z</time></trkpt><trkpt lat="46.0138784" lon="13.4760981"><ele>106.0</ele><time>2026-05-03T09:07:36.593Z</time></trkpt><trkpt lat="46.0138959" lon="13.4762054"><ele>106.00000000000001</ele><time>2026-05-03T09:07:37.595Z</time></trkpt><trkpt lat="46.0138947" lon="13.4763253"><ele>106.0</ele><time>2026-05-03T09:07:38.595Z</time></trkpt><trkpt lat="46.0138892" lon="13.4764655"><ele>106.0</ele><time>2026-05-03T09:07:39.593Z</time></trkpt><trkpt lat="46.0138819" lon="13.4766175"><ele>106.0</ele><time>2026-05-03T09:07:40.594Z</time></trkpt><trkpt lat="46.0138819" lon="13.476771"><ele>106.0</ele><time>2026-05-03T09:07:41.595Z</time></trkpt><trkpt lat="46.0138966" lon="13.4769194"><ele>106.0</ele><time>2026-05-03T09:07:42.594Z</time></trkpt><trkpt lat="46.0139163" lon="13.4770447"><ele>106.0</ele><time>2026-05-03T09:07:43.594Z</time></trkpt><trkpt lat="46.0139427" lon="13.4771501"><ele>106.0</ele><time>2026-05-03T09:07:44.595Z</time></trkpt><trkpt lat="46.0139854" lon="13.477239"><ele>106.0</ele><time>2026-05-03T09:07:45.593Z</time></trkpt><trkpt lat="46.0140462" lon="13.4773254"><ele>106.0</ele><time>2026-05-03T09:07:46.597Z</time></trkpt><trkpt lat="46.0141406" lon="13.4774013"><ele>106.0</ele><time>2026-05-03T09:07:47.594Z</time></trkpt><trkpt lat="46.0142376" lon="13.4774878"><ele>106.0</ele><time>2026-05-03T09:07:48.593Z</time></trkpt><trkpt lat="46.0143413" lon="13.4775696"><ele>107.4</ele><time>2026-05-03T09:07:49.594Z</time></trkpt><trkpt lat="46.0144468" lon="13.4776471"><ele>108.8</ele><time>2026-05-03T09:07:50.594Z</time></trkpt><trkpt lat="46.0145488" lon="13.4777087"><ele>110.20000000000002</ele><time>2026-05-03T09:07:51.594Z</time></trkpt><trkpt lat="46.0146488" lon="13.4777601"><ele>111.60000000000001</ele><time>2026-05-03T09:07:52.594Z</time></trkpt><trkpt lat="46.0147504" lon="13.4778115"><ele>113.0</ele><time>2026-05-03T09:07:53.593Z</time></trkpt><trkpt lat="46.0148543" lon="13.4778636"><ele>113.0</ele><time>2026-05-03T09:07:54.593Z</time></trkpt><trkpt lat="46.0149637" lon="13.4779149"><ele>113.0</ele><time>2026-05-03T09:07:55.594Z</time></trkpt><trkpt lat="46.0150729" lon="13.4779682"><ele>113.0</ele><time>2026-05-03T09:07:56.594Z</time></trkpt><trkpt lat="46.0151816" lon="13.478025"><ele>113.0</ele><time>2026-05-03T09:07:57.593Z</time></trkpt><trkpt lat="46.0152886" lon="13.4780876"><ele>112.60000000000001</ele><time>2026-05-03T09:07:58.593Z</time></trkpt><trkpt lat="46.0153845" lon="13.4781613"><ele>112.20000000000002</ele><time>2026-05-03T09:07:59.595Z</time></trkpt><trkpt lat="46.0154684" lon="13.4782422"><ele>111.8</ele><time>2026-05-03T09:08:00.594Z</time></trkpt><trkpt lat="46.0155413" lon="13.4783235"><ele>111.4</ele><time>2026-05-03T09:08:01.593Z</time></trkpt><trkpt lat="46.0156121" lon="13.4784128"><ele>111.0</ele><time>2026-05-03T09:08:02.595Z</time></trkpt><trkpt lat="46.0156872" lon="13.4785086"><ele>111.0</ele><time>2026-05-03T09:08:03.594Z</time></trkpt><trkpt lat="46.0157695" lon="13.4786102"><ele>111.0</ele><time>2026-05-03T09:08:04.594Z</time></trkpt><trkpt lat="46.015855" lon="13.4787167"><ele>111.0</ele><time>2026-05-03T09:08:05.594Z</time></trkpt><trkpt lat="46.0159392" lon="13.4788196"><ele>111.0</ele><time>2026-05-03T09:08:06.594Z</time></trkpt><trkpt lat="46.0160145" lon="13.4789203"><ele>111.0</ele><time>2026-05-03T09:08:07.593Z</time></trkpt><trkpt lat="46.0160789" lon="13.479026"><ele>112.25</ele><time>2026-05-03T09:08:08.594Z</time></trkpt><trkpt lat="46.0161368" lon="13.4791442"><ele>113.5</ele><time>2026-05-03T09:08:09.593Z</time></trkpt><trkpt lat="46.0161946" lon="13.4792799"><ele>114.75</ele><time>2026-05-03T09:08:10.596Z</time></trkpt><trkpt lat="46.0162547" lon="13.4794274"><ele>116.0</ele><time>2026-05-03T09:08:11.593Z</time></trkpt><trkpt lat="46.0163124" lon="13.4795816"><ele>115.4</ele><time>2026-05-03T09:08:12.594Z</time></trkpt><trkpt lat="46.0163692" lon="13.4797243"><ele>114.8</ele><time>2026-05-03T09:08:13.593Z</time></trkpt><trkpt lat="46.0164209" lon="13.4798548"><ele>114.20000000000002</ele><time>2026-05-03T09:08:14.595Z</time></trkpt><trkpt lat="46.0164698" lon="13.4799817"><ele>113.60000000000001</ele><time>2026-05-03T09:08:15.593Z</time></trkpt><trkpt lat="46.0165197" lon="13.4801078"><ele>113.0</ele><time>2026-05-03T09:08:16.594Z</time></trkpt><trkpt lat="46.0165737" lon="13.4802295"><ele>112.99999999999999</ele><time>2026-05-03T09:08:17.594Z</time></trkpt><trkpt lat="46.0166195" lon="13.4803461"><ele>113.0</ele><time>2026-05-03T09:08:18.594Z</time></trkpt><trkpt lat="46.0166623" lon="13.4804602"><ele>113.0</ele><time>2026-05-03T09:08:19.594Z</time></trkpt><trkpt lat="46.0166966" lon="13.4805735"><ele>113.0</ele><time>2026-05-03T09:08:20.595Z</time></trkpt><trkpt lat="46.0167245" lon="13.480689"><ele>112.99999999999999</ele><time>2026-05-03T09:08:21.593Z</time></trkpt><trkpt lat="46.0167466" lon="13.4808056"><ele>113.0</ele><time>2026-05-03T09:08:22.595Z</time></trkpt><trkpt lat="46.0167664" lon="13.4809101"><ele>115.60000000000001</ele><time>2026-05-03T09:08:23.595Z</time></trkpt><trkpt lat="46.0167849" lon="13.4810471"><ele>118.20000000000002</ele><time>2026-05-03T09:08:25.596Z</time></trkpt><trkpt lat="46.0167739" lon="13.4811714"><ele>120.8</ele><time>2026-05-03T09:08:27.594Z</time></trkpt><trkpt lat="46.0167494" lon="13.4812605"><ele>123.4</ele><time>2026-05-03T09:08:28.594Z</time></trkpt><trkpt lat="46.0167053" lon="13.4813666"><ele>126.0</ele><time>2026-05-03T09:08:29.594Z</time></trkpt><trkpt lat="46.0166359" lon="13.4814963"><ele>127.33333333333333</ele><time>2026-05-03T09:08:30.594Z</time></trkpt><trkpt lat="46.016566" lon="13.4816183"><ele>128.66666666666666</ele><time>2026-05-03T09:08:31.594Z</time></trkpt><trkpt lat="46.0165025" lon="13.4817095"><ele>130.0</ele><time>2026-05-03T09:08:32.595Z</time></trkpt><trkpt lat="46.0164531" lon="13.4817797"><ele>131.33333333333331</ele><time>2026-05-03T09:08:33.593Z</time></trkpt><trkpt lat="46.0164233" lon="13.4818899"><ele>132.66666666666666</ele><time>2026-05-03T09:08:35.594Z</time></trkpt><trkpt lat="46.0164888" lon="13.481944"><ele>134.0</ele><time>2026-05-03T09:08:37.595Z</time></trkpt><trkpt lat="46.0165529" lon="13.4819655"><ele>134.0</ele><time>2026-05-03T09:08:38.594Z</time></trkpt><trkpt lat="46.0166308" lon="13.4819965"><ele>134.0</ele><time>2026-05-03T09:08:39.594Z</time></trkpt><trkpt lat="46.0167192" lon="13.4820364"><ele>134.0</ele><time>2026-05-03T09:08:40.596Z</time></trkpt><trkpt lat="46.0168063" lon="13.4820842"><ele>134.0</ele><time>2026-05-03T09:08:41.596Z</time></trkpt><trkpt lat="46.0168877" lon="13.4821426"><ele>134.0</ele><time>2026-05-03T09:08:42.594Z</time></trkpt><trkpt lat="46.0169628" lon="13.4822034"><ele>134.0</ele><time>2026-05-03T09:08:43.595Z</time></trkpt><trkpt lat="46.0170268" lon="13.4822655"><ele>133.5</ele><time>2026-05-03T09:08:44.596Z</time></trkpt><trkpt lat="46.0170835" lon="13.4823355"><ele>133.0</ele><time>2026-05-03T09:08:45.593Z</time></trkpt><trkpt lat="46.0171339" lon="13.4824138"><ele>132.5</ele><time>2026-05-03T09:08:46.594Z</time></trkpt><trkpt lat="46.0171791" lon="13.4825025"><ele>132.0</ele><time>2026-05-03T09:08:47.595Z</time></trkpt><trkpt lat="46.01722" lon="13.4826034"><ele>131.5</ele><time>2026-05-03T09:08:48.593Z</time></trkpt><trkpt lat="46.0172541" lon="13.4827174"><ele>131.0</ele><time>2026-05-03T09:08:49.594Z</time></trkpt><trkpt lat="46.017284" lon="13.4828421"><ele>128.8</ele><time>2026-05-03T09:08:50.594Z</time></trkpt><trkpt lat="46.0173074" lon="13.4829731"><ele>126.6</ele><time>2026-05-03T09:08:51.594Z</time></trkpt><trkpt lat="46.0173271" lon="13.4831074"><ele>124.4</ele><time>2026-05-03T09:08:52.595Z</time></trkpt><trkpt lat="46.0173449" lon="13.4832419"><ele>122.2</ele><time>2026-05-03T09:08:53.594Z</time></trkpt><trkpt lat="46.0173624" lon="13.4833744"><ele>120.0</ele><time>2026-05-03T09:08:54.595Z</time></trkpt><trkpt lat="46.0173793" lon="13.4835038"><ele>120.0</ele><time>2026-05-03T09:08:55.596Z</time></trkpt><trkpt lat="46.017396" lon="13.4836363"><ele>120.0</ele><time>2026-05-03T09:08:56.594Z</time></trkpt><trkpt lat="46.0174024" lon="13.4837726"><ele>120.0</ele><time>2026-05-03T09:08:57.595Z</time></trkpt><trkpt lat="46.017409" lon="13.4839097"><ele>120.0</ele><time>2026-05-03T09:08:58.595Z</time></trkpt><trkpt lat="46.0174156" lon="13.4840453"><ele>120.0</ele><time>2026-05-03T09:08:59.595Z</time></trkpt><trkpt lat="46.0174246" lon="13.484182"><ele>119.2</ele><time>2026-05-03T09:09:00.593Z</time></trkpt><trkpt lat="46.0174402" lon="13.4843227"><ele>118.4</ele><time>2026-05-03T09:09:01.593Z</time></trkpt><trkpt lat="46.0174622" lon="13.4844589"><ele>117.6</ele><time>2026-05-03T09:09:02.594Z</time></trkpt><trkpt lat="46.0174987" lon="13.4845914"><ele>116.8</ele><time>2026-05-03T09:09:03.594Z</time></trkpt><trkpt lat="46.017541" lon="13.4847244"><ele>116.0</ele><time>2026-05-03T09:09:04.593Z</time></trkpt><trkpt lat="46.017584" lon="13.4848592"><ele>119.0</ele><time>2026-05-03T09:09:05.594Z</time></trkpt><trkpt lat="46.0176264" lon="13.4849967"><ele>122.0</ele><time>2026-05-03T09:09:06.595Z</time></trkpt><trkpt lat="46.0176633" lon="13.4851378"><ele>125.0</ele><time>2026-05-03T09:09:07.594Z</time></trkpt><trkpt lat="46.0176896" lon="13.4852795"><ele>128.0</ele><time>2026-05-03T09:09:08.595Z</time></trkpt><trkpt lat="46.0177126" lon="13.4854242"><ele>131.0</ele><time>2026-05-03T09:09:09.594Z</time></trkpt><trkpt lat="46.0177317" lon="13.4855723"><ele>131.0</ele><time>2026-05-03T09:09:10.594Z</time></trkpt><trkpt lat="46.0177433" lon="13.48572"><ele>131.0</ele><time>2026-05-03T09:09:11.594Z</time></trkpt><trkpt lat="46.0177472" lon="13.4858619"><ele>131.0</ele><time>2026-05-03T09:09:12.593Z</time></trkpt><trkpt lat="46.0177467" lon="13.4859977"><ele>131.0</ele><time>2026-05-03T09:09:13.594Z</time></trkpt><trkpt lat="46.0177497" lon="13.4861292"><ele>131.0</ele><time>2026-05-03T09:09:14.595Z</time></trkpt><trkpt lat="46.0177592" lon="13.4862527"><ele>130.8</ele><time>2026-05-03T09:09:15.595Z</time></trkpt><trkpt lat="46.0177741" lon="13.4863534"><ele>130.6</ele><time>2026-05-03T09:09:16.595Z</time></trkpt><trkpt lat="46.0178294" lon="13.4864932"><ele>130.4</ele><time>2026-05-03T09:09:18.595Z</time></trkpt><trkpt lat="46.0179166" lon="13.4866181"><ele>130.2</ele><time>2026-05-03T09:09:20.594Z</time></trkpt><trkpt lat="46.0179812" lon="13.4866959"><ele>130.0</ele><time>2026-05-03T09:09:21.593Z</time></trkpt><trkpt lat="46.0180577" lon="13.4867883"><ele>130.0</ele><time>2026-05-03T09:09:22.595Z</time></trkpt><trkpt lat="46.0181361" lon="13.4868872"><ele>130.0</ele><time>2026-05-03T09:09:23.593Z</time></trkpt><trkpt lat="46.0182119" lon="13.486977"><ele>130.0</ele><time>2026-05-03T09:09:24.593Z</time></trkpt><trkpt lat="46.0182851" lon="13.487064"><ele>130.0</ele><time>2026-05-03T09:09:25.597Z</time></trkpt><trkpt lat="46.0183599" lon="13.4871494"><ele>130.0</ele><time>2026-05-03T09:09:26.596Z</time></trkpt><trkpt lat="46.0184353" lon="13.4872385"><ele>130.33333333333334</ele><time>2026-05-03T09:09:27.594Z</time></trkpt><trkpt lat="46.0185105" lon="13.4873304"><ele>130.66666666666669</ele><time>2026-05-03T09:09:28.595Z</time></trkpt><trkpt lat="46.0185827" lon="13.4874189"><ele>131.0</ele><time>2026-05-03T09:09:29.594Z</time></trkpt><trkpt lat="46.018647" lon="13.4875006"><ele>131.33333333333334</ele><time>2026-05-03T09:09:30.596Z</time></trkpt><trkpt lat="46.0187079" lon="13.4875781"><ele>131.66666666666666</ele><time>2026-05-03T09:09:31.593Z</time></trkpt><trkpt lat="46.0187689" lon="13.4876564"><ele>132.0</ele><time>2026-05-03T09:09:32.596Z</time></trkpt><trkpt lat="46.0188285" lon="13.4877281"><ele>132.0</ele><time>2026-05-03T09:09:33.594Z</time></trkpt><trkpt lat="46.0188813" lon="13.4877918"><ele>132.0</ele><time>2026-05-03T09:09:34.594Z</time></trkpt><trkpt lat="46.0189728" lon="13.4878905"><ele>132.0</ele><time>2026-05-03T09:09:36.594Z</time></trkpt><trkpt lat="46.0190618" lon="13.4879656"><ele>132.0</ele><time>2026-05-03T09:09:38.594Z</time></trkpt><trkpt lat="46.0191624" lon="13.4880156"><ele>132.0</ele><time>2026-05-03T09:09:40.594Z</time></trkpt><trkpt lat="46.0192705" lon="13.4880833"><ele>131.71428571428572</ele><time>2026-05-03T09:09:42.595Z</time></trkpt><trkpt lat="46.0193301" lon="13.4881183"><ele>131.42857142857144</ele><time>2026-05-03T09:09:43.594Z</time></trkpt><trkpt lat="46.0193906" lon="13.488154"><ele>131.14285714285717</ele><time>2026-05-03T09:09:44.594Z</time></trkpt><trkpt lat="46.0194543" lon="13.488188"><ele>130.85714285714286</ele><time>2026-05-03T09:09:45.594Z</time></trkpt><trkpt lat="46.0195198" lon="13.4882309"><ele>130.57142857142858</ele><time>2026-05-03T09:09:46.593Z</time></trkpt><trkpt lat="46.0195906" lon="13.4882858"><ele>130.2857142857143</ele><time>2026-05-03T09:09:47.595Z</time></trkpt><trkpt lat="46.0196654" lon="13.4883492"><ele>130.0</ele><time>2026-05-03T09:09:48.594Z</time></trkpt><trkpt lat="46.0197422" lon="13.4884138"><ele>130.0</ele><time>2026-05-03T09:09:49.593Z</time></trkpt><trkpt lat="46.0198216" lon="13.4884808"><ele>130.0</ele><time>2026-05-03T09:09:50.596Z</time></trkpt><trkpt lat="46.0199021" lon="13.4885458"><ele>130.0</ele><time>2026-05-03T09:09:51.595Z</time></trkpt><trkpt lat="46.0199781" lon="13.4886051"><ele>130.0</ele><time>2026-05-03T09:09:52.593Z</time></trkpt><trkpt lat="46.0200531" lon="13.4886613"><ele>130.0</ele><time>2026-05-03T09:09:53.595Z</time></trkpt><trkpt lat="46.0201274" lon="13.4887184"><ele>130.0</ele><time>2026-05-03T09:09:54.594Z</time></trkpt><trkpt lat="46.0202019" lon="13.488765"><ele>128.0</ele><time>2026-05-03T09:09:55.594Z</time></trkpt><trkpt lat="46.0202752" lon="13.4888003"><ele>126.0</ele><time>2026-05-03T09:09:56.596Z</time></trkpt><trkpt lat="46.0203514" lon="13.4888233"><ele>124.0</ele><time>2026-05-03T09:09:57.594Z</time></trkpt><trkpt lat="46.0204295" lon="13.4888459"><ele>122.0</ele><time>2026-05-03T09:09:58.594Z</time></trkpt><trkpt lat="46.0205105" lon="13.4888802"><ele>120.00000000000001</ele><time>2026-05-03T09:09:59.595Z</time></trkpt><trkpt lat="46.0205908" lon="13.4889203"><ele>118.0</ele><time>2026-05-03T09:10:00.595Z</time></trkpt><trkpt lat="46.0206655" lon="13.4889576"><ele>118.00000000000001</ele><time>2026-05-03T09:10:01.593Z</time></trkpt><trkpt lat="46.0207342" lon="13.48899"><ele>118.0</ele><time>2026-05-03T09:10:02.594Z</time></trkpt><trkpt lat="46.0207962" lon="13.4890209"><ele>118.0</ele><time>2026-05-03T09:10:03.595Z</time></trkpt><trkpt lat="46.0208862" lon="13.4890799"><ele>118.0</ele><time>2026-05-03T09:10:05.593Z</time></trkpt><trkpt lat="46.0209365" lon="13.4890237"><ele>118.00000000000001</ele><time>2026-05-03T09:10:09.594Z</time></trkpt><trkpt lat="46.0208767" lon="13.4889248"><ele>118.0</ele><time>2026-05-03T09:10:11.599Z</time></trkpt><trkpt lat="46.0208104" lon="13.4887547"><ele>119.2</ele><time>2026-05-03T09:10:13.595Z</time></trkpt><trkpt lat="46.0207774" lon="13.4886297"><ele>120.4</ele><time>2026-05-03T09:10:14.595Z</time></trkpt><trkpt lat="46.0207501" lon="13.4884954"><ele>121.60000000000001</ele><time>2026-05-03T09:10:15.594Z</time></trkpt><trkpt lat="46.0207377" lon="13.4883481"><ele>122.80000000000001</ele><time>2026-05-03T09:10:16.595Z</time></trkpt><trkpt lat="46.0207446" lon="13.4881996"><ele>124.0</ele><time>2026-05-03T09:10:17.594Z</time></trkpt><trkpt lat="46.0207589" lon="13.4880529"><ele>123.4</ele><time>2026-05-03T09:10:18.593Z</time></trkpt><trkpt lat="46.0207589" lon="13.4879089"><ele>122.80000000000001</ele><time>2026-05-03T09:10:19.597Z</time></trkpt><trkpt lat="46.0207338" lon="13.4877712"><ele>122.19999999999999</ele><time>2026-05-03T09:10:20.594Z</time></trkpt><trkpt lat="46.0206786" lon="13.4876349"><ele>121.6</ele><time>2026-05-03T09:10:21.595Z</time></trkpt><trkpt lat="46.0206164" lon="13.4874998"><ele>121.0</ele><time>2026-05-03T09:10:22.595Z</time></trkpt><trkpt lat="46.0205731" lon="13.4873694"><ele>121.0</ele><time>2026-05-03T09:10:23.596Z</time></trkpt><trkpt lat="46.0205513" lon="13.4872448"><ele>121.0</ele><time>2026-05-03T09:10:24.596Z</time></trkpt><trkpt lat="46.0205386" lon="13.4871146"><ele>121.0</ele><time>2026-05-03T09:10:25.594Z</time></trkpt><trkpt lat="46.020522" lon="13.4869792"><ele>121.0</ele><time>2026-05-03T09:10:26.594Z</time></trkpt><trkpt lat="46.0205078" lon="13.4868466"><ele>121.0</ele><time>2026-05-03T09:10:27.593Z</time></trkpt><trkpt lat="46.0205049" lon="13.4867134"><ele>119.4</ele><time>2026-05-03T09:10:28.598Z</time></trkpt><trkpt lat="46.0205159" lon="13.4865817"><ele>117.8</ele><time>2026-05-03T09:10:29.596Z</time></trkpt><trkpt lat="46.020538" lon="13.4864477"><ele>116.20000000000002</ele><time>2026-05-03T09:10:30.595Z</time></trkpt><trkpt lat="46.0205599" lon="13.4863059"><ele>114.60000000000001</ele><time>2026-05-03T09:10:31.595Z</time></trkpt><trkpt lat="46.020572" lon="13.4861574"><ele>113.0</ele><time>2026-05-03T09:10:32.596Z</time></trkpt><trkpt lat="46.0205795" lon="13.4859927"><ele>109.5</ele><time>2026-05-03T09:10:33.594Z</time></trkpt><trkpt lat="46.020576" lon="13.4858103"><ele>106.0</ele><time>2026-05-03T09:10:34.595Z</time></trkpt><trkpt lat="46.0205665" lon="13.4856223"><ele>102.5</ele><time>2026-05-03T09:10:35.594Z</time></trkpt><trkpt lat="46.0205359" lon="13.4854392"><ele>99.0</ele><time>2026-05-03T09:10:36.594Z</time></trkpt><trkpt lat="46.0205045" lon="13.4852547"><ele>97.75</ele><time>2026-05-03T09:10:37.595Z</time></trkpt><trkpt lat="46.0204882" lon="13.4850733"><ele>96.5</ele><time>2026-05-03T09:10:38.596Z</time></trkpt><trkpt lat="46.020462" lon="13.4849041"><ele>95.25</ele><time>2026-05-03T09:10:39.595Z</time></trkpt><trkpt lat="46.0204302" lon="13.48475"><ele>94.0</ele><time>2026-05-03T09:10:40.595Z</time></trkpt><trkpt lat="46.0203898" lon="13.4846194"><ele>93.66666666666666</ele><time>2026-05-03T09:10:41.595Z</time></trkpt><trkpt lat="46.0203544" lon="13.4845159"><ele>93.33333333333333</ele><time>2026-05-03T09:10:42.595Z</time></trkpt><trkpt lat="46.0203286" lon="13.4843783"><ele>93.0</ele><time>2026-05-03T09:10:44.596Z</time></trkpt><trkpt lat="46.0204018" lon="13.4843494"><ele>92.66666666666667</ele><time>2026-05-03T09:10:47.595Z</time></trkpt><trkpt lat="46.0204367" lon="13.484425"><ele>92.33333333333334</ele><time>2026-05-03T09:10:48.594Z</time></trkpt><trkpt lat="46.0204817" lon="13.4845067"><ele>92.0</ele><time>2026-05-03T09:10:49.595Z</time></trkpt><trkpt lat="46.0205367" lon="13.4845683"><ele>92.0</ele><time>2026-05-03T09:10:50.594Z</time></trkpt><trkpt lat="46.0205967" lon="13.4846067"><ele>92.0</ele><time>2026-05-03T09:10:51.596Z</time></trkpt><trkpt lat="46.0206683" lon="13.48461"><ele>92.0</ele><time>2026-05-03T09:10:52.594Z</time></trkpt><trkpt lat="46.0207383" lon="13.484535"><ele>92.0</ele><time>2026-05-03T09:10:53.595Z</time></trkpt><trkpt lat="46.0208" lon="13.4844333"><ele>92.0</ele><time>2026-05-03T09:10:54.594Z</time></trkpt><trkpt lat="46.0208733" lon="13.48434"><ele>92.0</ele><time>2026-05-03T09:10:55.597Z</time></trkpt><trkpt lat="46.0209567" lon="13.484275"><ele>92.8</ele><time>2026-05-03T09:10:56.595Z</time></trkpt><trkpt lat="46.021055" lon="13.4842567"><ele>93.6</ele><time>2026-05-03T09:10:57.594Z</time></trkpt><trkpt lat="46.0211533" lon="13.4842817"><ele>94.39999999999999</ele><time>2026-05-03T09:10:58.594Z</time></trkpt><trkpt lat="46.0212467" lon="13.4843517"><ele>95.19999999999999</ele><time>2026-05-03T09:10:59.595Z</time></trkpt><trkpt lat="46.0213233" lon="13.48445"><ele>96.0</ele><time>2026-05-03T09:11:00.596Z</time></trkpt><trkpt lat="46.0213933" lon="13.4845467"><ele>96.6</ele><time>2026-05-03T09:11:01.594Z</time></trkpt><trkpt lat="46.0214467" lon="13.4846517"><ele>97.19999999999999</ele><time>2026-05-03T09:11:02.596Z</time></trkpt><trkpt lat="46.0214917" lon="13.484785"><ele>97.80000000000001</ele><time>2026-05-03T09:11:03.594Z</time></trkpt><trkpt lat="46.021545" lon="13.4849233"><ele>98.4</ele><time>2026-05-03T09:11:04.594Z</time></trkpt><trkpt lat="46.0216267" lon="13.4850517"><ele>99.0</ele><time>2026-05-03T09:11:05.594Z</time></trkpt><trkpt lat="46.021735" lon="13.485165"><ele>101.0</ele><time>2026-05-03T09:11:06.593Z</time></trkpt><trkpt lat="46.0218533" lon="13.4852717"><ele>103.0</ele><time>2026-05-03T09:11:07.593Z</time></trkpt><trkpt lat="46.0219617" lon="13.4853833"><ele>105.0</ele><time>2026-05-03T09:11:08.593Z</time></trkpt><trkpt lat="46.0220583" lon="13.485495"><ele>107.0</ele><time>2026-05-03T09:11:09.594Z</time></trkpt><trkpt lat="46.0221533" lon="13.4855933"><ele>107.0</ele><time>2026-05-03T09:11:10.594Z</time></trkpt><trkpt lat="46.0222433" lon="13.48569"><ele>107.0</ele><time>2026-05-03T09:11:11.594Z</time></trkpt><trkpt lat="46.022345" lon="13.4857617"><ele>107.0</ele><time>2026-05-03T09:11:12.593Z</time></trkpt><trkpt lat="46.022465" lon="13.485795"><ele>107.0</ele><time>2026-05-03T09:11:13.593Z</time></trkpt><trkpt lat="46.0225883" lon="13.4858117"><ele>110.25</ele><time>2026-05-03T09:11:14.594Z</time></trkpt><trkpt lat="46.0227083" lon="13.4858467"><ele>113.5</ele><time>2026-05-03T09:11:15.593Z</time></trkpt><trkpt lat="46.0228183" lon="13.4859167"><ele>116.75</ele><time>2026-05-03T09:11:16.594Z</time></trkpt><trkpt lat="46.0229183" lon="13.4860133"><ele>120.0</ele><time>2026-05-03T09:11:17.593Z</time></trkpt><trkpt lat="46.0230067" lon="13.4861183"><ele>120.0</ele><time>2026-05-03T09:11:18.593Z</time></trkpt><trkpt lat="46.023095" lon="13.486205"><ele>120.0</ele><time>2026-05-03T09:11:19.593Z</time></trkpt><trkpt lat="46.0231683" lon="13.4862933"><ele>120.0</ele><time>2026-05-03T09:11:20.594Z</time></trkpt><trkpt lat="46.023225" lon="13.4864033"><ele>120.0</ele><time>2026-05-03T09:11:21.593Z</time></trkpt><trkpt lat="46.0232933" lon="13.486475"><ele>120.0</ele><time>2026-05-03T09:11:22.593Z</time></trkpt><trkpt lat="46.0233717" lon="13.4865183"><ele>122.2</ele><time>2026-05-03T09:11:23.594Z</time></trkpt><trkpt lat="46.023455" lon="13.4865533"><ele>124.4</ele><time>2026-05-03T09:11:24.594Z</time></trkpt><trkpt lat="46.023555" lon="13.48657"><ele>126.6</ele><time>2026-05-03T09:11:25.593Z</time></trkpt><trkpt lat="46.0236433" lon="13.4866283"><ele>128.8</ele><time>2026-05-03T09:11:26.594Z</time></trkpt><trkpt lat="46.0237367" lon="13.48671"><ele>131.0</ele><time>2026-05-03T09:11:27.593Z</time></trkpt><trkpt lat="46.02384" lon="13.4867817"><ele>131.0</ele><time>2026-05-03T09:11:28.593Z</time></trkpt><trkpt lat="46.023945" lon="13.4868533"><ele>131.0</ele><time>2026-05-03T09:11:29.594Z</time></trkpt><trkpt lat="46.0240433" lon="13.48693"><ele>131.0</ele><time>2026-05-03T09:11:30.594Z</time></trkpt><trkpt lat="46.0241367" lon="13.4870033"><ele>131.0</ele><time>2026-05-03T09:11:31.594Z</time></trkpt><trkpt lat="46.0242233" lon="13.4870617"><ele>131.0</ele><time>2026-05-03T09:11:32.595Z</time></trkpt><trkpt lat="46.024305" lon="13.48713"><ele>130.0</ele><time>2026-05-03T09:11:33.593Z</time></trkpt><trkpt lat="46.0243833" lon="13.48722"><ele>129.0</ele><time>2026-05-03T09:11:34.593Z</time></trkpt><trkpt lat="46.0244617" lon="13.4873217"><ele>128.0</ele><time>2026-05-03T09:11:35.594Z</time></trkpt><trkpt lat="46.024535" lon="13.487435"><ele>127.0</ele><time>2026-05-03T09:11:36.594Z</time></trkpt><trkpt lat="46.02461" lon="13.4875467"><ele>126.0</ele><time>2026-05-03T09:11:37.595Z</time></trkpt><trkpt lat="46.024695" lon="13.4876417"><ele>126.0</ele><time>2026-05-03T09:11:38.595Z</time></trkpt><trkpt lat="46.0247867" lon="13.4877167"><ele>126.0</ele><time>2026-05-03T09:11:39.593Z</time></trkpt><trkpt lat="46.0248933" lon="13.4877817"><ele>126.0</ele><time>2026-05-03T09:11:40.593Z</time></trkpt><trkpt lat="46.025" lon="13.487845"><ele>126.0</ele><time>2026-05-03T09:11:41.593Z</time></trkpt><trkpt lat="46.0250933" lon="13.4879183"><ele>126.0</ele><time>2026-05-03T09:11:42.593Z</time></trkpt><trkpt lat="46.0251733" lon="13.4880083"><ele>129.33333333333334</ele><time>2026-05-03T09:11:43.593Z</time></trkpt><trkpt lat="46.0252383" lon="13.4881167"><ele>132.66666666666666</ele><time>2026-05-03T09:11:44.594Z</time></trkpt><trkpt lat="46.0252967" lon="13.4882267"><ele>136.0</ele><time>2026-05-03T09:11:45.596Z</time></trkpt><trkpt lat="46.0253567" lon="13.4883083"><ele>139.33333333333331</ele><time>2026-05-03T09:11:46.594Z</time></trkpt><trkpt lat="46.0254217" lon="13.4883667"><ele>142.66666666666666</ele><time>2026-05-03T09:11:47.593Z</time></trkpt><trkpt lat="46.0254967" lon="13.4884083"><ele>146.0</ele><time>2026-05-03T09:11:48.595Z</time></trkpt><trkpt lat="46.0255917" lon="13.48842"><ele>146.0</ele><time>2026-05-03T09:11:49.593Z</time></trkpt><trkpt lat="46.0256867" lon="13.4884417"><ele>146.0</ele><time>2026-05-03T09:11:50.595Z</time></trkpt><trkpt lat="46.02579" lon="13.488425"><ele>146.0</ele><time>2026-05-03T09:11:51.594Z</time></trkpt><trkpt lat="46.02589" lon="13.4884"><ele>146.0</ele><time>2026-05-03T09:11:52.594Z</time></trkpt><trkpt lat="46.0259817" lon="13.4883833"><ele>146.0</ele><time>2026-05-03T09:11:53.595Z</time></trkpt><trkpt lat="46.02606" lon="13.4884"><ele>148.5</ele><time>2026-05-03T09:11:54.595Z</time></trkpt><trkpt lat="46.0261267" lon="13.4884367"><ele>151.0</ele><time>2026-05-03T09:11:55.594Z</time></trkpt><trkpt lat="46.0261683" lon="13.48851"><ele>153.5</ele><time>2026-05-03T09:11:56.593Z</time></trkpt><trkpt lat="46.026205" lon="13.488615"><ele>156.0</ele><time>2026-05-03T09:11:57.593Z</time></trkpt><trkpt lat="46.0262467" lon="13.488735"><ele>158.5</ele><time>2026-05-03T09:11:58.593Z</time></trkpt><trkpt lat="46.0263067" lon="13.4888533"><ele>161.0</ele><time>2026-05-03T09:11:59.593Z</time></trkpt><trkpt lat="46.0263633" lon="13.48898"><ele>161.33333333333331</ele><time>2026-05-03T09:12:00.594Z</time></trkpt><trkpt lat="46.0264067" lon="13.4891083"><ele>161.66666666666666</ele><time>2026-05-03T09:12:01.594Z</time></trkpt><trkpt lat="46.0264317" lon="13.4892317"><ele>162.0</ele><time>2026-05-03T09:12:02.594Z</time></trkpt><trkpt lat="46.0264333" lon="13.4893567"><ele>162.33333333333334</ele><time>2026-05-03T09:12:03.593Z</time></trkpt><trkpt lat="46.026465" lon="13.489465"><ele>162.66666666666669</ele><time>2026-05-03T09:12:04.594Z</time></trkpt><trkpt lat="46.02652" lon="13.4895633"><ele>163.0</ele><time>2026-05-03T09:12:05.593Z</time></trkpt><trkpt lat="46.02661" lon="13.4896383"><ele>167.4</ele><time>2026-05-03T09:12:06.596Z</time></trkpt><trkpt lat="46.0267" lon="13.4897217"><ele>171.8</ele><time>2026-05-03T09:12:07.594Z</time></trkpt><trkpt lat="46.0267767" lon="13.48983"><ele>176.2</ele><time>2026-05-03T09:12:08.594Z</time></trkpt><trkpt lat="46.0268433" lon="13.48996"><ele>180.6</ele><time>2026-05-03T09:12:09.594Z</time></trkpt><trkpt lat="46.0269167" lon="13.490085"><ele>185.0</ele><time>2026-05-03T09:12:10.594Z</time></trkpt><trkpt lat="46.0269917" lon="13.49021"><ele>185.0</ele><time>2026-05-03T09:12:11.594Z</time></trkpt><trkpt lat="46.027075" lon="13.4903317"><ele>185.0</ele><time>2026-05-03T09:12:12.594Z</time></trkpt><trkpt lat="46.027165" lon="13.4904467"><ele>185.0</ele><time>2026-05-03T09:12:13.594Z</time></trkpt><trkpt lat="46.027255" lon="13.4905583"><ele>185.0</ele><time>2026-05-03T09:12:14.595Z</time></trkpt><trkpt lat="46.0273383" lon="13.4906783"><ele>182.5</ele><time>2026-05-03T09:12:15.594Z</time></trkpt><trkpt lat="46.02742" lon="13.4908033"><ele>180.0</ele><time>2026-05-03T09:12:16.593Z</time></trkpt><trkpt lat="46.02751" lon="13.4909267"><ele>177.5</ele><time>2026-05-03T09:12:17.595Z</time></trkpt><trkpt lat="46.0276" lon="13.491055"><ele>175.0</ele><time>2026-05-03T09:12:18.595Z</time></trkpt><trkpt lat="46.027695" lon="13.4911783"><ele>180.75</ele><time>2026-05-03T09:12:19.594Z</time></trkpt><trkpt lat="46.02778" lon="13.4913217"><ele>186.5</ele><time>2026-05-03T09:12:20.594Z</time></trkpt><trkpt lat="46.027855" lon="13.4914683"><ele>192.25</ele><time>2026-05-03T09:12:21.595Z</time></trkpt><trkpt lat="46.02794" lon="13.4915867"><ele>198.0</ele><time>2026-05-03T09:12:22.593Z</time></trkpt><trkpt lat="46.028035" lon="13.4916633"><ele>198.0</ele><time>2026-05-03T09:12:23.595Z</time></trkpt><trkpt lat="46.0281267" lon="13.4917317"><ele>198.0</ele><time>2026-05-03T09:12:24.594Z</time></trkpt><trkpt lat="46.02822" lon="13.4918"><ele>198.0</ele><time>2026-05-03T09:12:25.594Z</time></trkpt><trkpt lat="46.0283117" lon="13.4918867"><ele>198.0</ele><time>2026-05-03T09:12:26.595Z</time></trkpt><trkpt lat="46.0284033" lon="13.4920033"><ele>198.0</ele><time>2026-05-03T09:12:27.594Z</time></trkpt><trkpt lat="46.0285017" lon="13.4921217"><ele>204.25</ele><time>2026-05-03T09:12:28.594Z</time></trkpt><trkpt lat="46.0286033" lon="13.4922383"><ele>210.5</ele><time>2026-05-03T09:12:29.594Z</time></trkpt><trkpt lat="46.0287183" lon="13.4923283"><ele>216.75</ele><time>2026-05-03T09:12:30.597Z</time></trkpt><trkpt lat="46.028835" lon="13.4924"><ele>223.0</ele><time>2026-05-03T09:12:31.593Z</time></trkpt><trkpt lat="46.0289667" lon="13.4924783"><ele>223.0</ele><time>2026-05-03T09:12:32.594Z</time></trkpt><trkpt lat="46.0290883" lon="13.49255"><ele>223.0</ele><time>2026-05-03T09:12:33.594Z</time></trkpt><trkpt lat="46.0291917" lon="13.4926033"><ele>223.0</ele><time>2026-05-03T09:12:34.596Z</time></trkpt><trkpt lat="46.0292733" lon="13.492675"><ele>223.0</ele><time>2026-05-03T09:12:35.595Z</time></trkpt><trkpt lat="46.02933" lon="13.4927783"><ele>223.0</ele><time>2026-05-03T09:12:36.594Z</time></trkpt><trkpt lat="46.0293683" lon="13.492875"><ele>222.8</ele><time>2026-05-03T09:12:37.594Z</time></trkpt><trkpt lat="46.02938" lon="13.4929717"><ele>222.60000000000002</ele><time>2026-05-03T09:12:38.594Z</time></trkpt><trkpt lat="46.0293117" lon="13.4931267"><ele>222.39999999999998</ele><time>2026-05-03T09:12:40.599Z</time></trkpt><trkpt lat="46.0292383" lon="13.493205"><ele>222.2</ele><time>2026-05-03T09:12:41.595Z</time></trkpt><trkpt lat="46.0291383" lon="13.4932733"><ele>222.0</ele><time>2026-05-03T09:12:42.595Z</time></trkpt><trkpt lat="46.029045" lon="13.4933633"><ele>222.0</ele><time>2026-05-03T09:12:43.594Z</time></trkpt><trkpt lat="46.0289567" lon="13.4934717"><ele>222.0</ele><time>2026-05-03T09:12:44.594Z</time></trkpt><trkpt lat="46.028885" lon="13.4935917"><ele>222.0</ele><time>2026-05-03T09:12:45.595Z</time></trkpt><trkpt lat="46.0288333" lon="13.4937317"><ele>222.0</ele><time>2026-05-03T09:12:46.596Z</time></trkpt><trkpt lat="46.028805" lon="13.4938833"><ele>222.0</ele><time>2026-05-03T09:12:47.593Z</time></trkpt><trkpt lat="46.0287983" lon="13.4940433"><ele>224.75</ele><time>2026-05-03T09:12:48.594Z</time></trkpt><trkpt lat="46.0287967" lon="13.494205"><ele>227.5</ele><time>2026-05-03T09:12:49.594Z</time></trkpt><trkpt lat="46.0287617" lon="13.4943617"><ele>230.25</ele><time>2026-05-03T09:12:50.594Z</time></trkpt><trkpt lat="46.0287117" lon="13.49451"><ele>233.0</ele><time>2026-05-03T09:12:51.595Z</time></trkpt><trkpt lat="46.0286517" lon="13.49465"><ele>234.2</ele><time>2026-05-03T09:12:52.593Z</time></trkpt><trkpt lat="46.0286017" lon="13.4947833"><ele>235.4</ele><time>2026-05-03T09:12:53.594Z</time></trkpt><trkpt lat="46.02857" lon="13.49491"><ele>236.59999999999997</ele><time>2026-05-03T09:12:54.593Z</time></trkpt><trkpt lat="46.0285583" lon="13.49504"><ele>237.79999999999998</ele><time>2026-05-03T09:12:55.594Z</time></trkpt><trkpt lat="46.028565" lon="13.4951783"><ele>239.0</ele><time>2026-05-03T09:12:56.595Z</time></trkpt><trkpt lat="46.0285767" lon="13.49533"><ele>239.0</ele><time>2026-05-03T09:12:57.595Z</time></trkpt><trkpt lat="46.0285833" lon="13.4954967"><ele>239.0</ele><time>2026-05-03T09:12:58.595Z</time></trkpt><trkpt lat="46.028595" lon="13.4956717"><ele>239.0</ele><time>2026-05-03T09:12:59.593Z</time></trkpt><trkpt lat="46.0286033" lon="13.4958417"><ele>239.0</ele><time>2026-05-03T09:13:00.594Z</time></trkpt><trkpt lat="46.0286133" lon="13.4959933"><ele>239.00000000000003</ele><time>2026-05-03T09:13:01.594Z</time></trkpt><trkpt lat="46.0286217" lon="13.496125"><ele>239.0</ele><time>2026-05-03T09:13:02.595Z</time></trkpt><trkpt lat="46.02862" lon="13.49625"><ele>239.0</ele><time>2026-05-03T09:13:03.595Z</time></trkpt><trkpt lat="46.028605" lon="13.49636"><ele>239.0</ele><time>2026-05-03T09:13:04.595Z</time></trkpt><trkpt lat="46.0285883" lon="13.4964617"><ele>239.00000000000003</ele><time>2026-05-03T09:13:05.595Z</time></trkpt><trkpt lat="46.0285533" lon="13.49655"><ele>239.0</ele><time>2026-05-03T09:13:06.595Z</time></trkpt><trkpt lat="46.028515" lon="13.496625"><ele>240.50000000000003</ele><time>2026-05-03T09:13:07.595Z</time></trkpt><trkpt lat="46.0284317" lon="13.4966817"><ele>242.0</ele><time>2026-05-03T09:13:08.596Z</time></trkpt><trkpt lat="46.028335" lon="13.4967283"><ele>243.5</ele><time>2026-05-03T09:13:09.595Z</time></trkpt><trkpt lat="46.02825" lon="13.496775"><ele>245.0</ele><time>2026-05-03T09:13:10.594Z</time></trkpt><trkpt lat="46.02818" lon="13.49684"><ele>246.50000000000003</ele><time>2026-05-03T09:13:11.593Z</time></trkpt><trkpt lat="46.02813" lon="13.4969283"><ele>248.0</ele><time>2026-05-03T09:13:12.593Z</time></trkpt><trkpt lat="46.0281067" lon="13.497035"><ele>243.4</ele><time>2026-05-03T09:13:13.594Z</time></trkpt><trkpt lat="46.02811" lon="13.497155"><ele>238.8</ele><time>2026-05-03T09:13:14.594Z</time></trkpt><trkpt lat="46.0281233" lon="13.4973017"><ele>234.2</ele><time>2026-05-03T09:13:15.594Z</time></trkpt><trkpt lat="46.0281467" lon="13.4974733"><ele>229.6</ele><time>2026-05-03T09:13:16.593Z</time></trkpt><trkpt lat="46.02817" lon="13.497665"><ele>225.0</ele><time>2026-05-03T09:13:17.593Z</time></trkpt><trkpt lat="46.0281933" lon="13.4978667"><ele>224.25</ele><time>2026-05-03T09:13:18.593Z</time></trkpt><trkpt lat="46.0282083" lon="13.4980717"><ele>223.5</ele><time>2026-05-03T09:13:19.593Z</time></trkpt><trkpt lat="46.0282383" lon="13.498275"><ele>222.75</ele><time>2026-05-03T09:13:20.595Z</time></trkpt><trkpt lat="46.0282917" lon="13.4984667"><ele>222.0</ele><time>2026-05-03T09:13:21.594Z</time></trkpt><trkpt lat="46.028355" lon="13.4986533"><ele>226.2</ele><time>2026-05-03T09:13:22.594Z</time></trkpt><trkpt lat="46.028415" lon="13.4988267"><ele>230.39999999999998</ele><time>2026-05-03T09:13:23.593Z</time></trkpt><trkpt lat="46.02847" lon="13.498975"><ele>234.60000000000002</ele><time>2026-05-03T09:13:24.596Z</time></trkpt><trkpt lat="46.028515" lon="13.499095"><ele>238.8</ele><time>2026-05-03T09:13:25.594Z</time></trkpt><trkpt lat="46.0285583" lon="13.49919"><ele>243.0</ele><time>2026-05-03T09:13:26.594Z</time></trkpt><trkpt lat="46.02861" lon="13.49926"><ele>243.0</ele><time>2026-05-03T09:13:27.593Z</time></trkpt><trkpt lat="46.028675" lon="13.49931"><ele>243.0</ele><time>2026-05-03T09:13:28.594Z</time></trkpt><trkpt lat="46.0287417" lon="13.49936"><ele>243.0</ele><time>2026-05-03T09:13:29.594Z</time></trkpt><trkpt lat="46.0288017" lon="13.49942"><ele>243.0</ele><time>2026-05-03T09:13:30.595Z</time></trkpt><trkpt lat="46.0288583" lon="13.4994933"><ele>243.0</ele><time>2026-05-03T09:13:31.594Z</time></trkpt><trkpt lat="46.0289" lon="13.499585"><ele>243.0</ele><time>2026-05-03T09:13:32.594Z</time></trkpt><trkpt lat="46.028925" lon="13.499695"><ele>241.66666666666666</ele><time>2026-05-03T09:13:33.594Z</time></trkpt><trkpt lat="46.0289267" lon="13.4998183"><ele>240.33333333333331</ele><time>2026-05-03T09:13:34.594Z</time></trkpt><trkpt lat="46.0289383" lon="13.4999417"><ele>239.0</ele><time>2026-05-03T09:13:35.595Z</time></trkpt><trkpt lat="46.0289583" lon="13.500065"><ele>237.66666666666666</ele><time>2026-05-03T09:13:36.595Z</time></trkpt><trkpt lat="46.0289967" lon="13.5001817"><ele>236.33333333333331</ele><time>2026-05-03T09:13:37.594Z</time></trkpt><trkpt lat="46.029045" lon="13.50029"><ele>235.0</ele><time>2026-05-03T09:13:38.596Z</time></trkpt><trkpt lat="46.0290877" lon="13.5003913"><ele>233.83333333333331</ele><time>2026-05-03T09:13:39.594Z</time></trkpt><trkpt lat="46.0291352" lon="13.5004818"><ele>232.66666666666666</ele><time>2026-05-03T09:13:40.595Z</time></trkpt><trkpt lat="46.0291837" lon="13.5005712"><ele>231.5</ele><time>2026-05-03T09:13:41.594Z</time></trkpt><trkpt lat="46.0292214" lon="13.5006638"><ele>230.33333333333331</ele><time>2026-05-03T09:13:42.594Z</time></trkpt><trkpt lat="46.0292405" lon="13.500762"><ele>229.16666666666666</ele><time>2026-05-03T09:13:43.594Z</time></trkpt><trkpt lat="46.0292512" lon="13.5008588"><ele>228.0</ele><time>2026-05-03T09:13:44.595Z</time></trkpt><trkpt lat="46.0292789" lon="13.5010116"><ele>228.0</ele><time>2026-05-03T09:13:46.594Z</time></trkpt><trkpt lat="46.029362" lon="13.5011158"><ele>228.0</ele><time>2026-05-03T09:13:48.595Z</time></trkpt><trkpt lat="46.0294309" lon="13.5011431"><ele>228.0</ele><time>2026-05-03T09:13:49.594Z</time></trkpt><trkpt lat="46.0295057" lon="13.5011501"><ele>228.0</ele><time>2026-05-03T09:13:50.594Z</time></trkpt><trkpt lat="46.029586" lon="13.501144"><ele>228.0</ele><time>2026-05-03T09:13:51.593Z</time></trkpt><trkpt lat="46.029674" lon="13.5011367"><ele>228.0</ele><time>2026-05-03T09:13:52.593Z</time></trkpt><trkpt lat="46.0297691" lon="13.5011307"><ele>228.0</ele><time>2026-05-03T09:13:53.594Z</time></trkpt><trkpt lat="46.0298675" lon="13.5011192"><ele>228.0</ele><time>2026-05-03T09:13:54.596Z</time></trkpt><trkpt lat="46.0299634" lon="13.5010941"><ele>228.0</ele><time>2026-05-03T09:13:55.594Z</time></trkpt><trkpt lat="46.0300554" lon="13.5010773"><ele>228.0</ele><time>2026-05-03T09:13:56.594Z</time></trkpt><trkpt lat="46.030144" lon="13.5010857"><ele>228.0</ele><time>2026-05-03T09:13:57.594Z</time></trkpt><trkpt lat="46.0302283" lon="13.5011214"><ele>225.60000000000002</ele><time>2026-05-03T09:13:58.593Z</time></trkpt><trkpt lat="46.0303105" lon="13.5011709"><ele>223.20000000000002</ele><time>2026-05-03T09:13:59.594Z</time></trkpt><trkpt lat="46.0303932" lon="13.5012306"><ele>220.8</ele><time>2026-05-03T09:14:00.594Z</time></trkpt><trkpt lat="46.0304812" lon="13.5012777"><ele>218.4</ele><time>2026-05-03T09:14:01.594Z</time></trkpt><trkpt lat="46.030568" lon="13.5013242"><ele>216.0</ele><time>2026-05-03T09:14:02.595Z</time></trkpt><trkpt lat="46.0306487" lon="13.501374"><ele>214.66666666666666</ele><time>2026-05-03T09:14:03.595Z</time></trkpt><trkpt lat="46.0307157" lon="13.5014383"><ele>213.33333333333331</ele><time>2026-05-03T09:14:04.595Z</time></trkpt><trkpt lat="46.030765" lon="13.5015214"><ele>212.0</ele><time>2026-05-03T09:14:05.6Z</time></trkpt><trkpt lat="46.0307985" lon="13.5016023"><ele>210.66666666666666</ele><time>2026-05-03T09:14:06.596Z</time></trkpt><trkpt lat="46.0308691" lon="13.5017179"><ele>209.33333333333331</ele><time>2026-05-03T09:14:08.595Z</time></trkpt><trkpt lat="46.0309765" lon="13.5017945"><ele>208.0</ele><time>2026-05-03T09:14:10.594Z</time></trkpt><trkpt lat="46.0310552" lon="13.5018374"><ele>206.8</ele><time>2026-05-03T09:14:11.593Z</time></trkpt><trkpt lat="46.0311462" lon="13.5019016"><ele>205.60000000000002</ele><time>2026-05-03T09:14:12.594Z</time></trkpt><trkpt lat="46.0312408" lon="13.5019691"><ele>204.39999999999998</ele><time>2026-05-03T09:14:13.593Z</time></trkpt><trkpt lat="46.0313257" lon="13.5020584"><ele>203.2</ele><time>2026-05-03T09:14:14.597Z</time></trkpt><trkpt lat="46.0314022" lon="13.5021514"><ele>202.0</ele><time>2026-05-03T09:14:15.593Z</time></trkpt><trkpt lat="46.031464" lon="13.5022498"><ele>201.8</ele><time>2026-05-03T09:14:16.595Z</time></trkpt><trkpt lat="46.0315058" lon="13.502361"><ele>201.6</ele><time>2026-05-03T09:14:17.594Z</time></trkpt><trkpt lat="46.0315395" lon="13.5024735"><ele>201.4</ele><time>2026-05-03T09:14:18.593Z</time></trkpt><trkpt lat="46.0315761" lon="13.5025867"><ele>201.20000000000002</ele><time>2026-05-03T09:14:19.596Z</time></trkpt><trkpt lat="46.0316283" lon="13.5026985"><ele>201.0</ele><time>2026-05-03T09:14:20.594Z</time></trkpt><trkpt lat="46.0316962" lon="13.5028099"><ele>201.0</ele><time>2026-05-03T09:14:21.598Z</time></trkpt><trkpt lat="46.0317841" lon="13.5029046"><ele>201.0</ele><time>2026-05-03T09:14:22.593Z</time></trkpt><trkpt lat="46.0318924" lon="13.5029836"><ele>201.0</ele><time>2026-05-03T09:14:23.594Z</time></trkpt><trkpt lat="46.032006" lon="13.5030589"><ele>201.0</ele><time>2026-05-03T09:14:24.595Z</time></trkpt><trkpt lat="46.0321199" lon="13.5031352"><ele>201.4</ele><time>2026-05-03T09:14:25.595Z</time></trkpt><trkpt lat="46.0322267" lon="13.503216"><ele>201.8</ele><time>2026-05-03T09:14:26.597Z</time></trkpt><trkpt lat="46.0323155" lon="13.5033151"><ele>202.20000000000002</ele><time>2026-05-03T09:14:27.594Z</time></trkpt><trkpt lat="46.0323869" lon="13.5034263"><ele>202.60000000000002</ele><time>2026-05-03T09:14:28.593Z</time></trkpt><trkpt lat="46.0324404" lon="13.5035315"><ele>203.0</ele><time>2026-05-03T09:14:29.594Z</time></trkpt><trkpt lat="46.0324819" lon="13.5036223"><ele>203.0</ele><time>2026-05-03T09:14:30.593Z</time></trkpt><trkpt lat="46.032539" lon="13.5037463"><ele>203.0</ele><time>2026-05-03T09:14:32.595Z</time></trkpt><trkpt lat="46.032567" lon="13.5038358"><ele>203.0</ele><time>2026-05-03T09:14:35.594Z</time></trkpt><trkpt lat="46.0326048" lon="13.5039251"><ele>203.0</ele><time>2026-05-03T09:14:38.596Z</time></trkpt><trkpt lat="46.0326505" lon="13.5040541"><ele>203.0</ele><time>2026-05-03T09:14:40.594Z</time></trkpt><trkpt lat="46.0327302" lon="13.5041893"><ele>202.2</ele><time>2026-05-03T09:14:42.594Z</time></trkpt><trkpt lat="46.0327816" lon="13.5042645"><ele>201.4</ele><time>2026-05-03T09:14:43.596Z</time></trkpt><trkpt lat="46.0328387" lon="13.5043446"><ele>200.6</ele><time>2026-05-03T09:14:44.595Z</time></trkpt><trkpt lat="46.0329067" lon="13.5044299"><ele>199.79999999999998</ele><time>2026-05-03T09:14:45.595Z</time></trkpt><trkpt lat="46.0329983" lon="13.5045017"><ele>199.0</ele><time>2026-05-03T09:14:46.593Z</time></trkpt><trkpt lat="46.033085" lon="13.5045833"><ele>200.0</ele><time>2026-05-03T09:14:47.595Z</time></trkpt><trkpt lat="46.0331767" lon="13.5046533"><ele>201.0</ele><time>2026-05-03T09:14:48.595Z</time></trkpt><trkpt lat="46.0332667" lon="13.5047167"><ele>202.0</ele><time>2026-05-03T09:14:49.595Z</time></trkpt><trkpt lat="46.03336" lon="13.5047817"><ele>203.0</ele><time>2026-05-03T09:14:50.594Z</time></trkpt><trkpt lat="46.0334333" lon="13.504865"><ele>204.0</ele><time>2026-05-03T09:14:51.593Z</time></trkpt><trkpt lat="46.033525" lon="13.5049183"><ele>204.0</ele><time>2026-05-03T09:14:52.595Z</time></trkpt><trkpt lat="46.0336167" lon="13.504965"><ele>204.0</ele><time>2026-05-03T09:14:53.598Z</time></trkpt><trkpt lat="46.033685" lon="13.5050217"><ele>204.0</ele><time>2026-05-03T09:14:54.595Z</time></trkpt><trkpt lat="46.0337383" lon="13.5050783"><ele>204.0</ele><time>2026-05-03T09:14:55.595Z</time></trkpt><trkpt lat="46.033825" lon="13.50514"><ele>204.0</ele><time>2026-05-03T09:14:57.595Z</time></trkpt><trkpt lat="46.03389" lon="13.5050517"><ele>204.0</ele><time>2026-05-03T09:15:00.594Z</time></trkpt><trkpt lat="46.03394" lon="13.5049717"><ele>204.0</ele><time>2026-05-03T09:15:02.596Z</time></trkpt><trkpt lat="46.0340683" lon="13.5048783"><ele>204.0</ele><time>2026-05-03T09:15:04.594Z</time></trkpt><trkpt lat="46.0341333" lon="13.504785"><ele>204.0</ele><time>2026-05-03T09:15:05.594Z</time></trkpt><trkpt lat="46.0341883" lon="13.5046767"><ele>204.0</ele><time>2026-05-03T09:15:06.595Z</time></trkpt><trkpt lat="46.034225" lon="13.504565"><ele>204.0</ele><time>2026-05-03T09:15:07.594Z</time></trkpt><trkpt lat="46.0342667" lon="13.5044883"><ele>203.2</ele><time>2026-05-03T09:15:08.594Z</time></trkpt><trkpt lat="46.03436" lon="13.5043933"><ele>202.39999999999998</ele><time>2026-05-03T09:15:10.594Z</time></trkpt><trkpt lat="46.0344967" lon="13.50443"><ele>201.6</ele><time>2026-05-03T09:15:12.594Z</time></trkpt><trkpt lat="46.0345817" lon="13.5044933"><ele>200.8</ele><time>2026-05-03T09:15:13.594Z</time></trkpt><trkpt lat="46.0346717" lon="13.5045317"><ele>200.0</ele><time>2026-05-03T09:15:14.599Z</time></trkpt><trkpt lat="46.0347783" lon="13.5045517"><ele>200.0</ele><time>2026-05-03T09:15:15.595Z</time></trkpt><trkpt lat="46.0348833" lon="13.5045717"><ele>200.0</ele><time>2026-05-03T09:15:16.593Z</time></trkpt><trkpt lat="46.0349817" lon="13.5046"><ele>200.0</ele><time>2026-05-03T09:15:17.594Z</time></trkpt><trkpt lat="46.0350883" lon="13.504605"><ele>200.0</ele><time>2026-05-03T09:15:18.595Z</time></trkpt><trkpt lat="46.0352" lon="13.5045717"><ele>200.0</ele><time>2026-05-03T09:15:19.595Z</time></trkpt><trkpt lat="46.0353017" lon="13.504535"><ele>199.16666666666669</ele><time>2026-05-03T09:15:20.594Z</time></trkpt><trkpt lat="46.0353983" lon="13.5045233"><ele>198.33333333333334</ele><time>2026-05-03T09:15:21.594Z</time></trkpt><trkpt lat="46.0354933" lon="13.504525"><ele>197.5</ele><time>2026-05-03T09:15:22.595Z</time></trkpt><trkpt lat="46.0355767" lon="13.5045117"><ele>196.66666666666669</ele><time>2026-05-03T09:15:23.595Z</time></trkpt><trkpt lat="46.035645" lon="13.5044633"><ele>195.83333333333334</ele><time>2026-05-03T09:15:24.594Z</time></trkpt><trkpt lat="46.0357033" lon="13.5043917"><ele>195.0</ele><time>2026-05-03T09:15:25.596Z</time></trkpt><trkpt lat="46.0357467" lon="13.5042867"><ele>195.0</ele><time>2026-05-03T09:15:26.595Z</time></trkpt><trkpt lat="46.0357983" lon="13.5041583"><ele>195.0</ele><time>2026-05-03T09:15:27.594Z</time></trkpt><trkpt lat="46.0358533" lon="13.5039917"><ele>195.0</ele><time>2026-05-03T09:15:28.594Z</time></trkpt><trkpt lat="46.0359133" lon="13.5038317"><ele>195.0</ele><time>2026-05-03T09:15:29.596Z</time></trkpt><trkpt lat="46.035965" lon="13.5037017"><ele>193.66666666666666</ele><time>2026-05-03T09:15:30.595Z</time></trkpt><trkpt lat="46.036005" lon="13.5035967"><ele>192.33333333333334</ele><time>2026-05-03T09:15:31.596Z</time></trkpt><trkpt lat="46.0360317" lon="13.5035133"><ele>191.0</ele><time>2026-05-03T09:15:32.595Z</time></trkpt><trkpt lat="46.0360833" lon="13.5034283"><ele>189.66666666666669</ele><time>2026-05-03T09:15:34.596Z</time></trkpt><trkpt lat="46.0361467" lon="13.5034267"><ele>188.33333333333334</ele><time>2026-05-03T09:15:36.595Z</time></trkpt><trkpt lat="46.03623" lon="13.5035017"><ele>187.0</ele><time>2026-05-03T09:15:38.595Z</time></trkpt><trkpt lat="46.0362767" lon="13.5035717"><ele>187.0</ele><time>2026-05-03T09:15:39.594Z</time></trkpt><trkpt lat="46.0363283" lon="13.5036267"><ele>187.0</ele><time>2026-05-03T09:15:40.595Z</time></trkpt><trkpt lat="46.0363817" lon="13.50369"><ele>187.0</ele><time>2026-05-03T09:15:41.594Z</time></trkpt><trkpt lat="46.0364433" lon="13.5037633"><ele>187.0</ele><time>2026-05-03T09:15:42.594Z</time></trkpt><trkpt lat="46.036505" lon="13.5038383"><ele>187.0</ele><time>2026-05-03T09:15:43.596Z</time></trkpt><trkpt lat="46.036565" lon="13.5039183"><ele>187.0</ele><time>2026-05-03T09:15:44.596Z</time></trkpt><trkpt lat="46.0366167" lon="13.5040033"><ele>191.33333333333334</ele><time>2026-05-03T09:15:45.595Z</time></trkpt><trkpt lat="46.03666" lon="13.5040983"><ele>195.66666666666669</ele><time>2026-05-03T09:15:46.594Z</time></trkpt><trkpt lat="46.0367033" lon="13.5042083"><ele>200.0</ele><time>2026-05-03T09:15:47.596Z</time></trkpt><trkpt lat="46.03675" lon="13.5043233"><ele>204.33333333333334</ele><time>2026-05-03T09:15:48.596Z</time></trkpt><trkpt lat="46.036785" lon="13.50444"><ele>208.66666666666666</ele><time>2026-05-03T09:15:49.594Z</time></trkpt><trkpt lat="46.0368183" lon="13.504545"><ele>213.0</ele><time>2026-05-03T09:15:50.596Z</time></trkpt><trkpt lat="46.0368467" lon="13.504655"><ele>216.8</ele><time>2026-05-03T09:15:51.595Z</time></trkpt><trkpt lat="46.0368833" lon="13.5047617"><ele>220.60000000000002</ele><time>2026-05-03T09:15:52.595Z</time></trkpt><trkpt lat="46.03691" lon="13.504855"><ele>224.39999999999998</ele><time>2026-05-03T09:15:53.595Z</time></trkpt><trkpt lat="46.0369721" lon="13.5049751"><ele>228.2</ele><time>2026-05-03T09:15:55.595Z</time></trkpt><trkpt lat="46.0370482" lon="13.5050481"><ele>232.0</ele><time>2026-05-03T09:15:57.594Z</time></trkpt><trkpt lat="46.0371601" lon="13.5050792"><ele>232.00000000000003</ele><time>2026-05-03T09:15:59.595Z</time></trkpt><trkpt lat="46.0372266" lon="13.5050962"><ele>232.0</ele><time>2026-05-03T09:16:00.595Z</time></trkpt><trkpt lat="46.0372932" lon="13.5051167"><ele>232.00000000000003</ele><time>2026-05-03T09:16:01.597Z</time></trkpt><trkpt lat="46.0373604" lon="13.5051367"><ele>232.00000000000003</ele><time>2026-05-03T09:16:02.595Z</time></trkpt><trkpt lat="46.0374334" lon="13.5051392"><ele>232.0</ele><time>2026-05-03T09:16:03.594Z</time></trkpt><trkpt lat="46.0375069" lon="13.5051365"><ele>232.00000000000003</ele><time>2026-05-03T09:16:04.598Z</time></trkpt><trkpt lat="46.0375771" lon="13.5051233"><ele>232.00000000000003</ele><time>2026-05-03T09:16:05.595Z</time></trkpt><trkpt lat="46.0376419" lon="13.505108"><ele>234.2</ele><time>2026-05-03T09:16:06.595Z</time></trkpt><trkpt lat="46.0377577" lon="13.5050879"><ele>236.39999999999998</ele><time>2026-05-03T09:16:08.595Z</time></trkpt><trkpt lat="46.0378486" lon="13.5051265"><ele>238.60000000000002</ele><time>2026-05-03T09:16:10.594Z</time></trkpt><trkpt lat="46.0379235" lon="13.5052281"><ele>240.8</ele><time>2026-05-03T09:16:12.595Z</time></trkpt><trkpt lat="46.0379753" lon="13.5053617"><ele>243.0</ele><time>2026-05-03T09:16:14.596Z</time></trkpt><trkpt lat="46.0380372" lon="13.5055051"><ele>243.0</ele><time>2026-05-03T09:16:16.594Z</time></trkpt><trkpt lat="46.0380956" lon="13.505641"><ele>243.0</ele><time>2026-05-03T09:16:18.594Z</time></trkpt><trkpt lat="46.0381783" lon="13.5057354"><ele>243.0</ele><time>2026-05-03T09:16:20.595Z</time></trkpt><trkpt lat="46.0382858" lon="13.505807"><ele>243.0</ele><time>2026-05-03T09:16:22.596Z</time></trkpt><trkpt lat="46.0383951" lon="13.5058915"><ele>241.0</ele><time>2026-05-03T09:16:24.594Z</time></trkpt><trkpt lat="46.0384884" lon="13.506001"><ele>239.0</ele><time>2026-05-03T09:16:26.595Z</time></trkpt><trkpt lat="46.0385393" lon="13.5060557"><ele>237.0</ele><time>2026-05-03T09:16:27.593Z</time></trkpt><trkpt lat="46.0385965" lon="13.5061063"><ele>235.0</ele><time>2026-05-03T09:16:28.594Z</time></trkpt><trkpt lat="46.0386569" lon="13.5061503"><ele>233.0</ele><time>2026-05-03T09:16:29.593Z</time></trkpt><trkpt lat="46.0387281" lon="13.5061703"><ele>231.0</ele><time>2026-05-03T09:16:30.594Z</time></trkpt><trkpt lat="46.038801" lon="13.5061733"><ele>231.0</ele><time>2026-05-03T09:16:31.595Z</time></trkpt><trkpt lat="46.0388673" lon="13.5061578"><ele>231.0</ele><time>2026-05-03T09:16:32.594Z</time></trkpt><trkpt lat="46.0389321" lon="13.5061255"><ele>231.0</ele><time>2026-05-03T09:16:33.594Z</time></trkpt><trkpt lat="46.0390012" lon="13.5060772"><ele>231.0</ele><time>2026-05-03T09:16:34.593Z</time></trkpt><trkpt lat="46.0390732" lon="13.5060267"><ele>231.0</ele><time>2026-05-03T09:16:35.595Z</time></trkpt><trkpt lat="46.0391425" lon="13.5059733"><ele>231.0</ele><time>2026-05-03T09:16:36.593Z</time></trkpt><trkpt lat="46.0392061" lon="13.5059133"><ele>231.0</ele><time>2026-05-03T09:16:37.594Z</time></trkpt><trkpt lat="46.0392648" lon="13.5058462"><ele>231.0</ele><time>2026-05-03T09:16:38.594Z</time></trkpt><trkpt lat="46.039321" lon="13.5057703"><ele>231.0</ele><time>2026-05-03T09:16:39.594Z</time></trkpt><trkpt lat="46.0393739" lon="13.5056881"><ele>231.0</ele><time>2026-05-03T09:16:40.594Z</time></trkpt><trkpt lat="46.0394285" lon="13.5056026"><ele>231.0</ele><time>2026-05-03T09:16:41.593Z</time></trkpt><trkpt lat="46.0394865" lon="13.5055144"><ele>231.0</ele><time>2026-05-03T09:16:42.594Z</time></trkpt><trkpt lat="46.039545" lon="13.505422"><ele>231.0</ele><time>2026-05-03T09:16:43.595Z</time></trkpt><trkpt lat="46.0396018" lon="13.5053278"><ele>227.66666666666666</ele><time>2026-05-03T09:16:44.593Z</time></trkpt><trkpt lat="46.0396494" lon="13.5052255"><ele>224.33333333333331</ele><time>2026-05-03T09:16:45.593Z</time></trkpt><trkpt lat="46.0396906" lon="13.5051304"><ele>221.0</ele><time>2026-05-03T09:16:46.595Z</time></trkpt><trkpt lat="46.0397239" lon="13.5050493"><ele>217.66666666666666</ele><time>2026-05-03T09:16:47.594Z</time></trkpt><trkpt lat="46.0397694" lon="13.504951"><ele>214.33333333333331</ele><time>2026-05-03T09:16:49.594Z</time></trkpt><trkpt lat="46.0398409" lon="13.5049796"><ele>211.0</ele><time>2026-05-03T09:16:53.594Z</time></trkpt><trkpt lat="46.0398046" lon="13.5050746"><ele>210.99999999999997</ele><time>2026-05-03T09:16:56.595Z</time></trkpt><trkpt lat="46.0397571" lon="13.5051592"><ele>211.0</ele><time>2026-05-03T09:16:58.593Z</time></trkpt><trkpt lat="46.0397185" lon="13.5052546"><ele>211.0</ele><time>2026-05-03T09:17:00.595Z</time></trkpt><trkpt lat="46.0396815" lon="13.5053827"><ele>211.0</ele><time>2026-05-03T09:17:02.596Z</time></trkpt><trkpt lat="46.0396583" lon="13.5055066"><ele>210.99999999999997</ele><time>2026-05-03T09:17:04.599Z</time></trkpt><trkpt lat="46.0396375" lon="13.5056107"><ele>211.0</ele><time>2026-05-03T09:17:06.594Z</time></trkpt><trkpt lat="46.0396167" lon="13.5057074"><ele>215.0</ele><time>2026-05-03T09:17:09.694Z</time></trkpt><trkpt lat="46.0395846" lon="13.5058279"><ele>219.0</ele><time>2026-05-03T09:17:11.58Z</time></trkpt><trkpt lat="46.0395366" lon="13.5059436"><ele>223.00000000000003</ele><time>2026-05-03T09:17:13.674Z</time></trkpt><trkpt lat="46.0394917" lon="13.5060599"><ele>227.0</ele><time>2026-05-03T09:17:15.622Z</time></trkpt><trkpt lat="46.0394421" lon="13.506169"><ele>231.0</ele><time>2026-05-03T09:17:17.598Z</time></trkpt><trkpt lat="46.0394024" lon="13.5063095"><ele>233.33333333333334</ele><time>2026-05-03T09:17:18.594Z</time></trkpt><trkpt lat="46.0393495" lon="13.5064262"><ele>235.66666666666669</ele><time>2026-05-03T09:17:19.594Z</time></trkpt><trkpt lat="46.0392892" lon="13.5065205"><ele>238.0</ele><time>2026-05-03T09:17:20.594Z</time></trkpt><trkpt lat="46.0392288" lon="13.5065965"><ele>240.33333333333334</ele><time>2026-05-03T09:17:21.594Z</time></trkpt><trkpt lat="46.039172" lon="13.5066649"><ele>242.66666666666669</ele><time>2026-05-03T09:17:22.594Z</time></trkpt><trkpt lat="46.0391202" lon="13.5067311"><ele>245.0</ele><time>2026-05-03T09:17:23.595Z</time></trkpt><trkpt lat="46.0390692" lon="13.5067934"><ele>245.00000000000003</ele><time>2026-05-03T09:17:24.596Z</time></trkpt><trkpt lat="46.038982" lon="13.5068908"><ele>245.0</ele><time>2026-05-03T09:17:26.594Z</time></trkpt><trkpt lat="46.0389165" lon="13.506962"><ele>245.0</ele><time>2026-05-03T09:17:28.594Z</time></trkpt><trkpt lat="46.0389527" lon="13.5070526"><ele>245.0</ele><time>2026-05-03T09:17:33.595Z</time></trkpt><trkpt lat="46.0390208" lon="13.5070464"><ele>245.00000000000003</ele><time>2026-05-03T09:17:35.594Z</time></trkpt><trkpt lat="46.0391074" lon="13.5069852"><ele>245.0</ele><time>2026-05-03T09:17:37.593Z</time></trkpt><trkpt lat="46.0391815" lon="13.5068895"><ele>246.4</ele><time>2026-05-03T09:17:39.595Z</time></trkpt><trkpt lat="46.0392567" lon="13.5067704"><ele>247.8</ele><time>2026-05-03T09:17:41.595Z</time></trkpt><trkpt lat="46.0393376" lon="13.5066499"><ele>249.2</ele><time>2026-05-03T09:17:43.593Z</time></trkpt><trkpt lat="46.0394274" lon="13.5065295"><ele>250.6</ele><time>2026-05-03T09:17:45.594Z</time></trkpt><trkpt lat="46.0394755" lon="13.5064668"><ele>252.0</ele><time>2026-05-03T09:17:46.595Z</time></trkpt><trkpt lat="46.0395634" lon="13.5063558"><ele>247.8</ele><time>2026-05-03T09:17:48.594Z</time></trkpt><trkpt lat="46.0396458" lon="13.5062388"><ele>243.6</ele><time>2026-05-03T09:17:50.595Z</time></trkpt><trkpt lat="46.0397346" lon="13.506115"><ele>239.40000000000003</ele><time>2026-05-03T09:17:52.594Z</time></trkpt><trkpt lat="46.039783" lon="13.5060455"><ele>235.20000000000002</ele><time>2026-05-03T09:17:53.594Z</time></trkpt><trkpt lat="46.039828" lon="13.5059768"><ele>231.0</ele><time>2026-05-03T09:17:54.594Z</time></trkpt><trkpt lat="46.0399152" lon="13.5058492"><ele>236.4</ele><time>2026-05-03T09:17:56.594Z</time></trkpt><trkpt lat="46.0400077" lon="13.5057494"><ele>241.8</ele><time>2026-05-03T09:17:58.594Z</time></trkpt><trkpt lat="46.0401011" lon="13.5056987"><ele>247.20000000000002</ele><time>2026-05-03T09:18:00.594Z</time></trkpt><trkpt lat="46.0401823" lon="13.5056748"><ele>252.60000000000002</ele><time>2026-05-03T09:18:02.595Z</time></trkpt><trkpt lat="46.0402691" lon="13.5056792"><ele>258.0</ele><time>2026-05-03T09:18:04.594Z</time></trkpt><trkpt lat="46.0403808" lon="13.5056789"><ele>258.0</ele><time>2026-05-03T09:18:06.595Z</time></trkpt><trkpt lat="46.0404919" lon="13.5056829"><ele>258.0</ele><time>2026-05-03T09:18:08.596Z</time></trkpt><trkpt lat="46.0405753" lon="13.5056963"><ele>258.0</ele><time>2026-05-03T09:18:10.595Z</time></trkpt><trkpt lat="46.0406436" lon="13.5057364"><ele>258.0</ele><time>2026-05-03T09:18:12.594Z</time></trkpt><trkpt lat="46.0407121" lon="13.5057977"><ele>258.0</ele><time>2026-05-03T09:18:14.596Z</time></trkpt><trkpt lat="46.0408001" lon="13.5058703"><ele>260.2</ele><time>2026-05-03T09:18:16.594Z</time></trkpt><trkpt lat="46.0409188" lon="13.5059383"><ele>262.4</ele><time>2026-05-03T09:18:18.594Z</time></trkpt><trkpt lat="46.0409812" lon="13.505965"><ele>264.59999999999997</ele><time>2026-05-03T09:18:19.594Z</time></trkpt><trkpt lat="46.0410923" lon="13.5060068"><ele>266.8</ele><time>2026-05-03T09:18:21.594Z</time></trkpt><trkpt lat="46.041181" lon="13.5060446"><ele>269.0</ele><time>2026-05-03T09:18:23.595Z</time></trkpt><trkpt lat="46.0412766" lon="13.5060878"><ele>269.0</ele><time>2026-05-03T09:18:25.595Z</time></trkpt><trkpt lat="46.0413934" lon="13.5061345"><ele>269.0</ele><time>2026-05-03T09:18:27.596Z</time></trkpt><trkpt lat="46.0414592" lon="13.5061437"><ele>269.0</ele><time>2026-05-03T09:18:28.594Z</time></trkpt><trkpt lat="46.0415264" lon="13.5061522"><ele>269.0</ele><time>2026-05-03T09:18:29.594Z</time></trkpt><trkpt lat="46.0415919" lon="13.5061713"><ele>269.0</ele><time>2026-05-03T09:18:30.595Z</time></trkpt><trkpt lat="46.041654" lon="13.5062072"><ele>269.0</ele><time>2026-05-03T09:18:31.594Z</time></trkpt><trkpt lat="46.0417192" lon="13.5062544"><ele>272.6666666666667</ele><time>2026-05-03T09:18:32.595Z</time></trkpt><trkpt lat="46.0417969" lon="13.5063028"><ele>276.33333333333337</ele><time>2026-05-03T09:18:33.594Z</time></trkpt><trkpt lat="46.0418729" lon="13.5063499"><ele>280.0</ele><time>2026-05-03T09:18:34.596Z</time></trkpt><trkpt lat="46.0419575" lon="13.5063913"><ele>283.6666666666667</ele><time>2026-05-03T09:18:35.594Z</time></trkpt><trkpt lat="46.0420408" lon="13.5064205"><ele>287.3333333333333</ele><time>2026-05-03T09:18:36.596Z</time></trkpt><trkpt lat="46.0421227" lon="13.5064465"><ele>291.0</ele><time>2026-05-03T09:18:37.594Z</time></trkpt><trkpt lat="46.042198" lon="13.5064738"><ele>291.0</ele><time>2026-05-03T09:18:38.594Z</time></trkpt><trkpt lat="46.0422631" lon="13.5065046"><ele>291.0</ele><time>2026-05-03T09:18:39.596Z</time></trkpt><trkpt lat="46.0423729" lon="13.5065691"><ele>291.0</ele><time>2026-05-03T09:18:41.595Z</time></trkpt><trkpt lat="46.0424858" lon="13.50661"><ele>291.0</ele><time>2026-05-03T09:18:43.594Z</time></trkpt><trkpt lat="46.0426147" lon="13.5065842"><ele>291.0</ele><time>2026-05-03T09:18:45.596Z</time></trkpt><trkpt lat="46.0426851" lon="13.5065468"><ele>291.0</ele><time>2026-05-03T09:18:46.594Z</time></trkpt><trkpt lat="46.0427659" lon="13.5065119"><ele>291.0</ele><time>2026-05-03T09:18:47.594Z</time></trkpt><trkpt lat="46.0428613" lon="13.506485"><ele>291.0</ele><time>2026-05-03T09:18:48.595Z</time></trkpt><trkpt lat="46.0429362" lon="13.5064907"><ele>291.0</ele><time>2026-05-03T09:18:49.593Z</time></trkpt><trkpt lat="46.0430023" lon="13.5065199"><ele>291.0</ele><time>2026-05-03T09:18:50.594Z</time></trkpt><trkpt lat="46.043057" lon="13.5065704"><ele>291.0</ele><time>2026-05-03T09:18:51.593Z</time></trkpt><trkpt lat="46.043133" lon="13.5067005"><ele>291.0</ele><time>2026-05-03T09:18:53.595Z</time></trkpt><trkpt lat="46.0431803" lon="13.5068435"><ele>291.0</ele><time>2026-05-03T09:18:55.594Z</time></trkpt><trkpt lat="46.0432382" lon="13.5069865"><ele>291.0</ele><time>2026-05-03T09:18:57.593Z</time></trkpt><trkpt lat="46.0432778" lon="13.5070595"><ele>291.0</ele><time>2026-05-03T09:18:58.593Z</time></trkpt><trkpt lat="46.0433241" lon="13.5071248"><ele>291.0</ele><time>2026-05-03T09:18:59.594Z</time></trkpt><trkpt lat="46.043376" lon="13.5071814"><ele>291.0</ele><time>2026-05-03T09:19:00.593Z</time></trkpt><trkpt lat="46.0434322" lon="13.5072337"><ele>293.2</ele><time>2026-05-03T09:19:01.594Z</time></trkpt><trkpt lat="46.0434888" lon="13.5072849"><ele>295.40000000000003</ele><time>2026-05-03T09:19:02.595Z</time></trkpt><trkpt lat="46.0435775" lon="13.5073896"><ele>297.6</ele><time>2026-05-03T09:19:04.594Z</time></trkpt><trkpt lat="46.0436321" lon="13.5075081"><ele>299.8</ele><time>2026-05-03T09:19:06.594Z</time></trkpt><trkpt lat="46.0436711" lon="13.5076348"><ele>302.0</ele><time>2026-05-03T09:19:08.594Z</time></trkpt><trkpt lat="46.0437169" lon="13.5077796"><ele>306.0</ele><time>2026-05-03T09:19:10.593Z</time></trkpt><trkpt lat="46.0437235" lon="13.5079478"><ele>310.0</ele><time>2026-05-03T09:19:12.594Z</time></trkpt><trkpt lat="46.0437326" lon="13.5081058"><ele>314.0</ele><time>2026-05-03T09:19:14.595Z</time></trkpt><trkpt lat="46.0437588" lon="13.508268"><ele>318.0</ele><time>2026-05-03T09:19:16.595Z</time></trkpt><trkpt lat="46.0437874" lon="13.5084376"><ele>318.0</ele><time>2026-05-03T09:19:18.594Z</time></trkpt><trkpt lat="46.0438039" lon="13.5086213"><ele>318.0</ele><time>2026-05-03T09:19:20.595Z</time></trkpt><trkpt lat="46.0438117" lon="13.5087164"><ele>318.0</ele><time>2026-05-03T09:19:21.595Z</time></trkpt><trkpt lat="46.0438225" lon="13.5088097"><ele>318.0</ele><time>2026-05-03T09:19:22.595Z</time></trkpt><trkpt lat="46.0438366" lon="13.5089039"><ele>318.0</ele><time>2026-05-03T09:19:23.596Z</time></trkpt><trkpt lat="46.0438567" lon="13.509001"><ele>318.0</ele><time>2026-05-03T09:19:24.593Z</time></trkpt><trkpt lat="46.0438997" lon="13.5090963"><ele>318.1666666666667</ele><time>2026-05-03T09:19:25.594Z</time></trkpt><trkpt lat="46.0439504" lon="13.5091895"><ele>318.3333333333333</ele><time>2026-05-03T09:19:26.599Z</time></trkpt><trkpt lat="46.0440018" lon="13.509281"><ele>318.5</ele><time>2026-05-03T09:19:27.596Z</time></trkpt><trkpt lat="46.0440481" lon="13.5093724"><ele>318.66666666666663</ele><time>2026-05-03T09:19:28.595Z</time></trkpt><trkpt lat="46.0440872" lon="13.5094657"><ele>318.8333333333333</ele><time>2026-05-03T09:19:29.595Z</time></trkpt><trkpt lat="46.0441233" lon="13.5095619"><ele>319.0</ele><time>2026-05-03T09:19:30.596Z</time></trkpt><trkpt lat="46.0441592" lon="13.5096601"><ele>318.0</ele><time>2026-05-03T09:19:31.595Z</time></trkpt><trkpt lat="46.0441923" lon="13.509759"><ele>317.0</ele><time>2026-05-03T09:19:32.594Z</time></trkpt><trkpt lat="46.0442231" lon="13.5098616"><ele>316.0</ele><time>2026-05-03T09:19:33.594Z</time></trkpt><trkpt lat="46.0442449" lon="13.5099677"><ele>315.0</ele><time>2026-05-03T09:19:34.595Z</time></trkpt><trkpt lat="46.044268" lon="13.5100649"><ele>314.0</ele><time>2026-05-03T09:19:35.595Z</time></trkpt><trkpt lat="46.0442916" lon="13.5101509"><ele>313.0</ele><time>2026-05-03T09:19:36.594Z</time></trkpt><trkpt lat="46.0443387" lon="13.5103053"><ele>314.8</ele><time>2026-05-03T09:19:38.595Z</time></trkpt><trkpt lat="46.0443659" lon="13.5104527"><ele>316.6</ele><time>2026-05-03T09:19:40.594Z</time></trkpt><trkpt lat="46.0443936" lon="13.5106005"><ele>318.40000000000003</ele><time>2026-05-03T09:19:42.594Z</time></trkpt><trkpt lat="46.0444151" lon="13.5107581"><ele>320.20000000000005</ele><time>2026-05-03T09:19:44.594Z</time></trkpt><trkpt lat="46.0444135" lon="13.5109343"><ele>322.0</ele><time>2026-05-03T09:19:46.594Z</time></trkpt><trkpt lat="46.0444013" lon="13.5111034"><ele>322.5</ele><time>2026-05-03T09:19:48.594Z</time></trkpt><trkpt lat="46.0444356" lon="13.5112438"><ele>323.0</ele><time>2026-05-03T09:19:50.594Z</time></trkpt><trkpt lat="46.0444606" lon="13.5113681"><ele>323.5</ele><time>2026-05-03T09:19:52.595Z</time></trkpt><trkpt lat="46.0444639" lon="13.5114701"><ele>324.0</ele><time>2026-05-03T09:19:54.594Z</time></trkpt><trkpt lat="46.0444185" lon="13.5115349"><ele>324.5</ele><time>2026-05-03T09:19:59.594Z</time></trkpt><trkpt lat="46.0443856" lon="13.5114513"><ele>325.0</ele><time>2026-05-03T09:20:02.595Z</time></trkpt><trkpt lat="46.0443678" lon="13.5112888"><ele>324.5</ele><time>2026-05-03T09:20:04.595Z</time></trkpt><trkpt lat="46.044367" lon="13.5111736"><ele>324.0</ele><time>2026-05-03T09:20:05.595Z</time></trkpt><trkpt lat="46.0443646" lon="13.5110447"><ele>323.5</ele><time>2026-05-03T09:20:06.595Z</time></trkpt><trkpt lat="46.0443572" lon="13.5109259"><ele>323.0</ele><time>2026-05-03T09:20:07.595Z</time></trkpt><trkpt lat="46.0443384" lon="13.5108168"><ele>322.5</ele><time>2026-05-03T09:20:08.595Z</time></trkpt><trkpt lat="46.0443211" lon="13.5107172"><ele>322.0</ele><time>2026-05-03T09:20:09.594Z</time></trkpt><trkpt lat="46.0442957" lon="13.5106291"><ele>322.0</ele><time>2026-05-03T09:20:10.595Z</time></trkpt><trkpt lat="46.0442626" lon="13.5105468"><ele>322.0</ele><time>2026-05-03T09:20:11.595Z</time></trkpt><trkpt lat="46.0442249" lon="13.5104588"><ele>322.0</ele><time>2026-05-03T09:20:12.594Z</time></trkpt><trkpt lat="46.0441846" lon="13.5103688"><ele>322.0</ele><time>2026-05-03T09:20:13.595Z</time></trkpt><trkpt lat="46.0441366" lon="13.5102791"><ele>322.0</ele><time>2026-05-03T09:20:14.595Z</time></trkpt><trkpt lat="46.0440903" lon="13.5101909"><ele>322.0</ele><time>2026-05-03T09:20:15.594Z</time></trkpt><trkpt lat="46.0440437" lon="13.510103"><ele>322.0</ele><time>2026-05-03T09:20:16.594Z</time></trkpt><trkpt lat="46.0439986" lon="13.5100166"><ele>322.20000000000005</ele><time>2026-05-03T09:20:17.595Z</time></trkpt><trkpt lat="46.0439564" lon="13.509933"><ele>322.4</ele><time>2026-05-03T09:20:18.594Z</time></trkpt><trkpt lat="46.0438893" lon="13.5097897"><ele>322.6</ele><time>2026-05-03T09:20:20.593Z</time></trkpt><trkpt lat="46.0438264" lon="13.5096502"><ele>322.79999999999995</ele><time>2026-05-03T09:20:22.595Z</time></trkpt><trkpt lat="46.0437733" lon="13.5095053"><ele>323.0</ele><time>2026-05-03T09:20:24.595Z</time></trkpt><trkpt lat="46.0437196" lon="13.5093361"><ele>322.42857142857144</ele><time>2026-05-03T09:20:26.595Z</time></trkpt><trkpt lat="46.0436936" lon="13.5092451"><ele>321.8571428571429</ele><time>2026-05-03T09:20:27.595Z</time></trkpt><trkpt lat="46.04367" lon="13.5091502"><ele>321.28571428571433</ele><time>2026-05-03T09:20:28.594Z</time></trkpt><trkpt lat="46.043648" lon="13.5090505"><ele>320.7142857142857</ele><time>2026-05-03T09:20:29.598Z</time></trkpt><trkpt lat="46.0436265" lon="13.5089508"><ele>320.1428571428571</ele><time>2026-05-03T09:20:30.595Z</time></trkpt><trkpt lat="46.0436078" lon="13.5088426"><ele>319.5714285714286</ele><time>2026-05-03T09:20:31.594Z</time></trkpt><trkpt lat="46.0435915" lon="13.5087349"><ele>319.0</ele><time>2026-05-03T09:20:32.596Z</time></trkpt><trkpt lat="46.0435777" lon="13.5086327"><ele>318.8333333333333</ele><time>2026-05-03T09:20:33.594Z</time></trkpt><trkpt lat="46.0435697" lon="13.5085409"><ele>318.66666666666663</ele><time>2026-05-03T09:20:34.594Z</time></trkpt><trkpt lat="46.0435469" lon="13.5083919"><ele>318.5</ele><time>2026-05-03T09:20:36.595Z</time></trkpt><trkpt lat="46.0435057" lon="13.5082795"><ele>318.3333333333333</ele><time>2026-05-03T09:20:38.596Z</time></trkpt><trkpt lat="46.0434532" lon="13.5082127"><ele>318.1666666666667</ele><time>2026-05-03T09:20:40.597Z</time></trkpt><trkpt lat="46.0433866" lon="13.50822"><ele>318.0</ele><time>2026-05-03T09:20:43.595Z</time></trkpt><trkpt lat="46.043353" lon="13.5083022"><ele>318.0</ele><time>2026-05-03T09:20:45.595Z</time></trkpt><trkpt lat="46.0433586" lon="13.5084056"><ele>318.0</ele><time>2026-05-03T09:20:47.594Z</time></trkpt><trkpt lat="46.0434079" lon="13.5085092"><ele>318.0</ele><time>2026-05-03T09:20:49.596Z</time></trkpt><trkpt lat="46.0434593" lon="13.5086439"><ele>318.0</ele><time>2026-05-03T09:20:51.595Z</time></trkpt><trkpt lat="46.043497" lon="13.508781"><ele>318.0</ele><time>2026-05-03T09:20:53.595Z</time></trkpt><trkpt lat="46.0435225" lon="13.5089358"><ele>318.2</ele><time>2026-05-03T09:20:55.594Z</time></trkpt><trkpt lat="46.0435376" lon="13.5090934"><ele>318.4</ele><time>2026-05-03T09:20:57.594Z</time></trkpt><trkpt lat="46.0435441" lon="13.5092548"><ele>318.59999999999997</ele><time>2026-05-03T09:20:59.594Z</time></trkpt><trkpt lat="46.0435492" lon="13.5094193"><ele>318.8</ele><time>2026-05-03T09:21:01.597Z</time></trkpt><trkpt lat="46.0435745" lon="13.5095767"><ele>319.0</ele><time>2026-05-03T09:21:03.595Z</time></trkpt><trkpt lat="46.0436236" lon="13.5097456"><ele>319.5714285714286</ele><time>2026-05-03T09:21:05.596Z</time></trkpt><trkpt lat="46.0436534" lon="13.5098372"><ele>320.1428571428571</ele><time>2026-05-03T09:21:06.595Z</time></trkpt><trkpt lat="46.0436818" lon="13.5099321"><ele>320.7142857142857</ele><time>2026-05-03T09:21:07.595Z</time></trkpt><trkpt lat="46.0437095" lon="13.510029"><ele>321.28571428571433</ele><time>2026-05-03T09:21:08.595Z</time></trkpt><trkpt lat="46.0437328" lon="13.5101254"><ele>321.8571428571429</ele><time>2026-05-03T09:21:09.595Z</time></trkpt><trkpt lat="46.0437503" lon="13.5102221"><ele>322.42857142857144</ele><time>2026-05-03T09:21:10.595Z</time></trkpt><trkpt lat="46.0437661" lon="13.5103137"><ele>323.0</ele><time>2026-05-03T09:21:11.594Z</time></trkpt><trkpt lat="46.043772" lon="13.510475"><ele>323.0</ele><time>2026-05-03T09:21:13.595Z</time></trkpt><trkpt lat="46.0437267" lon="13.5105946"><ele>323.0</ele><time>2026-05-03T09:21:15.594Z</time></trkpt><trkpt lat="46.0436572" lon="13.5107264"><ele>323.0</ele><time>2026-05-03T09:21:17.594Z</time></trkpt><trkpt lat="46.043629" lon="13.5108137"><ele>323.0</ele><time>2026-05-03T09:21:18.594Z</time></trkpt><trkpt lat="46.0436121" lon="13.5109181"><ele>323.0</ele><time>2026-05-03T09:21:19.596Z</time></trkpt><trkpt lat="46.0436037" lon="13.5110355"><ele>323.0</ele><time>2026-05-03T09:21:20.595Z</time></trkpt><trkpt lat="46.0435999" lon="13.5111631"><ele>324.1666666666667</ele><time>2026-05-03T09:21:21.594Z</time></trkpt><trkpt lat="46.0435984" lon="13.511296"><ele>325.33333333333337</ele><time>2026-05-03T09:21:22.596Z</time></trkpt><trkpt lat="46.0435972" lon="13.5114221"><ele>326.5</ele><time>2026-05-03T09:21:23.594Z</time></trkpt><trkpt lat="46.0435948" lon="13.5115342"><ele>327.6666666666667</ele><time>2026-05-03T09:21:24.594Z</time></trkpt><trkpt lat="46.0435831" lon="13.5116313"><ele>328.8333333333333</ele><time>2026-05-03T09:21:25.595Z</time></trkpt><trkpt lat="46.0435458" lon="13.5117121"><ele>330.0</ele><time>2026-05-03T09:21:26.594Z</time></trkpt><trkpt lat="46.0434971" lon="13.5117725"><ele>330.0</ele><time>2026-05-03T09:21:27.594Z</time></trkpt><trkpt lat="46.0434326" lon="13.5118127"><ele>330.0</ele><time>2026-05-03T09:21:28.594Z</time></trkpt><trkpt lat="46.0433578" lon="13.5118356"><ele>330.0</ele><time>2026-05-03T09:21:29.596Z</time></trkpt><trkpt lat="46.0432468" lon="13.5118265"><ele>330.0</ele><time>2026-05-03T09:21:30.594Z</time></trkpt><trkpt lat="46.0431239" lon="13.5117871"><ele>330.0</ele><time>2026-05-03T09:21:31.594Z</time></trkpt><trkpt lat="46.042991" lon="13.5117503"><ele>329.25</ele><time>2026-05-03T09:21:32.594Z</time></trkpt><trkpt lat="46.0428639" lon="13.5117135"><ele>328.5</ele><time>2026-05-03T09:21:33.594Z</time></trkpt><trkpt lat="46.0427419" lon="13.511685"><ele>327.75</ele><time>2026-05-03T09:21:34.595Z</time></trkpt><trkpt lat="46.0426167" lon="13.5116533"><ele>327.0</ele><time>2026-05-03T09:21:35.596Z</time></trkpt><trkpt lat="46.0424959" lon="13.511622"><ele>323.75</ele><time>2026-05-03T09:21:36.594Z</time></trkpt><trkpt lat="46.0423826" lon="13.5115954"><ele>320.5</ele><time>2026-05-03T09:21:37.594Z</time></trkpt><trkpt lat="46.0422633" lon="13.5115683"><ele>317.25</ele><time>2026-05-03T09:21:38.595Z</time></trkpt><trkpt lat="46.0421467" lon="13.5115583"><ele>314.0</ele><time>2026-05-03T09:21:39.596Z</time></trkpt><trkpt lat="46.042025" lon="13.5115783"><ele>314.0</ele><time>2026-05-03T09:21:40.597Z</time></trkpt><trkpt lat="46.0419033" lon="13.5116433"><ele>314.0</ele><time>2026-05-03T09:21:41.595Z</time></trkpt><trkpt lat="46.0417933" lon="13.511755"><ele>314.0</ele><time>2026-05-03T09:21:42.594Z</time></trkpt><trkpt lat="46.0416833" lon="13.511865"><ele>314.0</ele><time>2026-05-03T09:21:43.594Z</time></trkpt><trkpt lat="46.0415717" lon="13.511945"><ele>314.8</ele><time>2026-05-03T09:21:44.595Z</time></trkpt><trkpt lat="46.04147" lon="13.512025"><ele>315.59999999999997</ele><time>2026-05-03T09:21:45.595Z</time></trkpt><trkpt lat="46.0413833" lon="13.5121017"><ele>316.4</ele><time>2026-05-03T09:21:46.596Z</time></trkpt><trkpt lat="46.041305" lon="13.5121717"><ele>317.2</ele><time>2026-05-03T09:21:47.594Z</time></trkpt><trkpt lat="46.0412417" lon="13.51223"><ele>318.0</ele><time>2026-05-03T09:21:48.595Z</time></trkpt><trkpt lat="46.0411833" lon="13.51227"><ele>318.0</ele><time>2026-05-03T09:21:49.594Z</time></trkpt><trkpt lat="46.0410933" lon="13.5122217"><ele>318.0</ele><time>2026-05-03T09:21:51.594Z</time></trkpt><trkpt lat="46.0411317" lon="13.5120867"><ele>318.0</ele><time>2026-05-03T09:21:53.594Z</time></trkpt><trkpt lat="46.0412083" lon="13.5120383"><ele>318.0</ele><time>2026-05-03T09:21:54.594Z</time></trkpt><trkpt lat="46.0413133" lon="13.511995"><ele>318.0</ele><time>2026-05-03T09:21:55.594Z</time></trkpt><trkpt lat="46.0414033" lon="13.5119267"><ele>317.0</ele><time>2026-05-03T09:21:56.595Z</time></trkpt><trkpt lat="46.0414967" lon="13.5118133"><ele>316.0</ele><time>2026-05-03T09:21:57.595Z</time></trkpt><trkpt lat="46.0415917" lon="13.5116833"><ele>315.0</ele><time>2026-05-03T09:21:58.595Z</time></trkpt><trkpt lat="46.0416833" lon="13.5115633"><ele>314.0</ele><time>2026-05-03T09:21:59.595Z</time></trkpt><trkpt lat="46.04177" lon="13.5114517"><ele>314.0</ele><time>2026-05-03T09:22:00.595Z</time></trkpt><trkpt lat="46.0418733" lon="13.5113583"><ele>314.0</ele><time>2026-05-03T09:22:01.597Z</time></trkpt><trkpt lat="46.04198" lon="13.5113083"><ele>314.0</ele><time>2026-05-03T09:22:02.594Z</time></trkpt><trkpt lat="46.04208" lon="13.511285"><ele>314.0</ele><time>2026-05-03T09:22:03.595Z</time></trkpt><trkpt lat="46.0421533" lon="13.5112333"><ele>314.0</ele><time>2026-05-03T09:22:04.596Z</time></trkpt><trkpt lat="46.0422183" lon="13.51118"><ele>311.1666666666667</ele><time>2026-05-03T09:22:05.594Z</time></trkpt><trkpt lat="46.042275" lon="13.5111233"><ele>308.33333333333337</ele><time>2026-05-03T09:22:06.594Z</time></trkpt><trkpt lat="46.0423083" lon="13.5109917"><ele>305.5</ele><time>2026-05-03T09:22:08.595Z</time></trkpt><trkpt lat="46.0422083" lon="13.51093"><ele>302.6666666666667</ele><time>2026-05-03T09:22:10.594Z</time></trkpt><trkpt lat="46.042135" lon="13.51094"><ele>299.8333333333333</ele><time>2026-05-03T09:22:11.593Z</time></trkpt><trkpt lat="46.0420367" lon="13.5109617"><ele>297.0</ele><time>2026-05-03T09:22:12.593Z</time></trkpt><trkpt lat="46.0419283" lon="13.5109867"><ele>297.0</ele><time>2026-05-03T09:22:13.594Z</time></trkpt><trkpt lat="46.0418133" lon="13.5110233"><ele>297.0</ele><time>2026-05-03T09:22:14.595Z</time></trkpt><trkpt lat="46.0417033" lon="13.5110833"><ele>297.0</ele><time>2026-05-03T09:22:15.594Z</time></trkpt><trkpt lat="46.0415983" lon="13.5111783"><ele>297.0</ele><time>2026-05-03T09:22:16.593Z</time></trkpt><trkpt lat="46.041505" lon="13.5113017"><ele>299.2</ele><time>2026-05-03T09:22:17.594Z</time></trkpt><trkpt lat="46.041415" lon="13.51141"><ele>301.4</ele><time>2026-05-03T09:22:18.593Z</time></trkpt><trkpt lat="46.0413317" lon="13.511505"><ele>303.6</ele><time>2026-05-03T09:22:19.594Z</time></trkpt><trkpt lat="46.0412467" lon="13.5115767"><ele>305.8</ele><time>2026-05-03T09:22:20.593Z</time></trkpt><trkpt lat="46.0411483" lon="13.51161"><ele>308.0</ele><time>2026-05-03T09:22:21.594Z</time></trkpt><trkpt lat="46.0410667" lon="13.5116333"><ele>308.0</ele><time>2026-05-03T09:22:22.593Z</time></trkpt><trkpt lat="46.0409767" lon="13.5116283"><ele>308.0</ele><time>2026-05-03T09:22:23.595Z</time></trkpt><trkpt lat="46.0408817" lon="13.5115567"><ele>308.0</ele><time>2026-05-03T09:22:24.594Z</time></trkpt><trkpt lat="46.04079" lon="13.5114333"><ele>308.0</ele><time>2026-05-03T09:22:25.594Z</time></trkpt><trkpt lat="46.0407133" lon="13.511295"><ele>308.0</ele><time>2026-05-03T09:22:26.595Z</time></trkpt><trkpt lat="46.0406483" lon="13.5111467"><ele>303.6</ele><time>2026-05-03T09:22:27.595Z</time></trkpt><trkpt lat="46.040585" lon="13.5110083"><ele>299.20000000000005</ele><time>2026-05-03T09:22:28.595Z</time></trkpt><trkpt lat="46.0405267" lon="13.510905"><ele>294.8</ele><time>2026-05-03T09:22:29.595Z</time></trkpt><trkpt lat="46.0404533" lon="13.5108467"><ele>290.40000000000003</ele><time>2026-05-03T09:22:30.594Z</time></trkpt><trkpt lat="46.0403633" lon="13.5108217"><ele>286.0</ele><time>2026-05-03T09:22:31.594Z</time></trkpt><trkpt lat="46.0402733" lon="13.5108533"><ele>286.0</ele><time>2026-05-03T09:22:32.594Z</time></trkpt><trkpt lat="46.0401833" lon="13.51093"><ele>286.0</ele><time>2026-05-03T09:22:33.594Z</time></trkpt><trkpt lat="46.040095" lon="13.511055"><ele>286.0</ele><time>2026-05-03T09:22:34.594Z</time></trkpt><trkpt lat="46.0400067" lon="13.5111467"><ele>286.0</ele><time>2026-05-03T09:22:35.594Z</time></trkpt><trkpt lat="46.03991" lon="13.5111867"><ele>286.0</ele><time>2026-05-03T09:22:36.593Z</time></trkpt><trkpt lat="46.0398133" lon="13.51118"><ele>285.0</ele><time>2026-05-03T09:22:37.594Z</time></trkpt><trkpt lat="46.03972" lon="13.5111367"><ele>284.0</ele><time>2026-05-03T09:22:38.593Z</time></trkpt><trkpt lat="46.03962" lon="13.511085"><ele>283.0</ele><time>2026-05-03T09:22:39.594Z</time></trkpt><trkpt lat="46.039515" lon="13.5109933"><ele>282.0</ele><time>2026-05-03T09:22:40.594Z</time></trkpt><trkpt lat="46.0394083" lon="13.510905"><ele>282.0</ele><time>2026-05-03T09:22:41.594Z</time></trkpt><trkpt lat="46.0393017" lon="13.51083"><ele>282.0</ele><time>2026-05-03T09:22:42.594Z</time></trkpt><trkpt lat="46.0391833" lon="13.5107583"><ele>282.0</ele><time>2026-05-03T09:22:43.595Z</time></trkpt><trkpt lat="46.0390533" lon="13.5107283"><ele>282.0</ele><time>2026-05-03T09:22:44.595Z</time></trkpt><trkpt lat="46.0389017" lon="13.5107467"><ele>281.25</ele><time>2026-05-03T09:22:45.593Z</time></trkpt><trkpt lat="46.038755" lon="13.51079"><ele>280.5</ele><time>2026-05-03T09:22:46.593Z</time></trkpt><trkpt lat="46.038615" lon="13.5107933"><ele>279.75</ele><time>2026-05-03T09:22:47.596Z</time></trkpt><trkpt lat="46.0384817" lon="13.5107867"><ele>279.0</ele><time>2026-05-03T09:22:48.594Z</time></trkpt><trkpt lat="46.038355" lon="13.51077"><ele>276.25</ele><time>2026-05-03T09:22:49.595Z</time></trkpt><trkpt lat="46.038235" lon="13.5107633"><ele>273.5</ele><time>2026-05-03T09:22:50.594Z</time></trkpt><trkpt lat="46.038125" lon="13.5107217"><ele>270.75</ele><time>2026-05-03T09:22:51.593Z</time></trkpt><trkpt lat="46.0380217" lon="13.5106533"><ele>268.0</ele><time>2026-05-03T09:22:52.593Z</time></trkpt><trkpt lat="46.0379133" lon="13.51061"><ele>268.0</ele><time>2026-05-03T09:22:53.594Z</time></trkpt><trkpt lat="46.03781" lon="13.5106083"><ele>268.0</ele><time>2026-05-03T09:22:54.594Z</time></trkpt><trkpt lat="46.03771" lon="13.5106533"><ele>268.0</ele><time>2026-05-03T09:22:55.595Z</time></trkpt><trkpt lat="46.0376117" lon="13.5107683"><ele>268.0</ele><time>2026-05-03T09:22:56.596Z</time></trkpt><trkpt lat="46.0375117" lon="13.5108617"><ele>265.6</ele><time>2026-05-03T09:22:57.595Z</time></trkpt><trkpt lat="46.0374183" lon="13.5109417"><ele>263.20000000000005</ele><time>2026-05-03T09:22:58.593Z</time></trkpt><trkpt lat="46.0373167" lon="13.5109733"><ele>260.8</ele><time>2026-05-03T09:22:59.593Z</time></trkpt><trkpt lat="46.0372183" lon="13.510975"><ele>258.40000000000003</ele><time>2026-05-03T09:23:00.593Z</time></trkpt><trkpt lat="46.0371167" lon="13.51094"><ele>256.0</ele><time>2026-05-03T09:23:01.593Z</time></trkpt><trkpt lat="46.037015" lon="13.5108717"><ele>256.0</ele><time>2026-05-03T09:23:02.594Z</time></trkpt><trkpt lat="46.0369217" lon="13.5107983"><ele>256.0</ele><time>2026-05-03T09:23:03.593Z</time></trkpt><trkpt lat="46.0368283" lon="13.5107567"><ele>256.0</ele><time>2026-05-03T09:23:04.593Z</time></trkpt><trkpt lat="46.0367333" lon="13.5107617"><ele>256.0</ele><time>2026-05-03T09:23:05.593Z</time></trkpt><trkpt lat="46.036645" lon="13.51083"><ele>256.0</ele><time>2026-05-03T09:23:06.594Z</time></trkpt><trkpt lat="46.0365533" lon="13.5109367"><ele>258.0</ele><time>2026-05-03T09:23:07.594Z</time></trkpt><trkpt lat="46.0364683" lon="13.5110683"><ele>260.0</ele><time>2026-05-03T09:23:08.594Z</time></trkpt><trkpt lat="46.03637" lon="13.5111717"><ele>262.0</ele><time>2026-05-03T09:23:09.594Z</time></trkpt><trkpt lat="46.0362817" lon="13.5112683"><ele>264.0</ele><time>2026-05-03T09:23:10.594Z</time></trkpt><trkpt lat="46.036205" lon="13.511345"><ele>264.0</ele><time>2026-05-03T09:23:11.593Z</time></trkpt><trkpt lat="46.0361267" lon="13.5114"><ele>264.0</ele><time>2026-05-03T09:23:12.593Z</time></trkpt><trkpt lat="46.0360383" lon="13.5113783"><ele>264.0</ele><time>2026-05-03T09:23:13.598Z</time></trkpt><trkpt lat="46.035955" lon="13.5113417"><ele>264.0</ele><time>2026-05-03T09:23:14.595Z</time></trkpt><trkpt lat="46.0358517" lon="13.51128"><ele>264.0</ele><time>2026-05-03T09:23:15.594Z</time></trkpt><trkpt lat="46.03574" lon="13.5112083"><ele>263.5</ele><time>2026-05-03T09:23:16.593Z</time></trkpt><trkpt lat="46.03562" lon="13.5112083"><ele>263.0</ele><time>2026-05-03T09:23:17.595Z</time></trkpt><trkpt lat="46.035485" lon="13.51122"><ele>262.5</ele><time>2026-05-03T09:23:18.594Z</time></trkpt><trkpt lat="46.0353483" lon="13.5112717"><ele>262.0</ele><time>2026-05-03T09:23:19.594Z</time></trkpt><trkpt lat="46.0352083" lon="13.511325"><ele>262.0</ele><time>2026-05-03T09:23:20.593Z</time></trkpt><trkpt lat="46.0350733" lon="13.51137"><ele>262.0</ele><time>2026-05-03T09:23:21.594Z</time></trkpt><trkpt lat="46.0349417" lon="13.5113933"><ele>262.0</ele><time>2026-05-03T09:23:22.595Z</time></trkpt><trkpt lat="46.03482" lon="13.5114167"><ele>262.0</ele><time>2026-05-03T09:23:23.596Z</time></trkpt><trkpt lat="46.0347117" lon="13.5114067"><ele>261.2</ele><time>2026-05-03T09:23:24.594Z</time></trkpt><trkpt lat="46.0346117" lon="13.5113983"><ele>260.4</ele><time>2026-05-03T09:23:25.593Z</time></trkpt><trkpt lat="46.0345183" lon="13.5113483"><ele>259.6</ele><time>2026-05-03T09:23:26.594Z</time></trkpt><trkpt lat="46.0344367" lon="13.5112533"><ele>258.8</ele><time>2026-05-03T09:23:27.594Z</time></trkpt><trkpt lat="46.034375" lon="13.5111133"><ele>258.0</ele><time>2026-05-03T09:23:28.594Z</time></trkpt><trkpt lat="46.03431" lon="13.5109533"><ele>256.2</ele><time>2026-05-03T09:23:29.594Z</time></trkpt><trkpt lat="46.0342433" lon="13.51083"><ele>254.4</ele><time>2026-05-03T09:23:30.594Z</time></trkpt><trkpt lat="46.0341667" lon="13.5107367"><ele>252.59999999999997</ele><time>2026-05-03T09:23:31.594Z</time></trkpt><trkpt lat="46.0340833" lon="13.5106883"><ele>250.79999999999998</ele><time>2026-05-03T09:23:32.595Z</time></trkpt><trkpt lat="46.0339817" lon="13.5106883"><ele>249.0</ele><time>2026-05-03T09:23:33.593Z</time></trkpt><trkpt lat="46.033865" lon="13.5107267"><ele>249.0</ele><time>2026-05-03T09:23:34.594Z</time></trkpt><trkpt lat="46.0337583" lon="13.5107583"><ele>248.99999999999997</ele><time>2026-05-03T09:23:35.594Z</time></trkpt><trkpt lat="46.0336517" lon="13.5107633"><ele>248.99999999999997</ele><time>2026-05-03T09:23:36.593Z</time></trkpt><trkpt lat="46.0335483" lon="13.5107383"><ele>249.0</ele><time>2026-05-03T09:23:37.595Z</time></trkpt><trkpt lat="46.0334433" lon="13.5106633"><ele>249.0</ele><time>2026-05-03T09:23:38.594Z</time></trkpt><trkpt lat="46.0333267" lon="13.51058"><ele>248.5</ele><time>2026-05-03T09:23:39.594Z</time></trkpt><trkpt lat="46.0332033" lon="13.5104833"><ele>248.0</ele><time>2026-05-03T09:23:40.595Z</time></trkpt><trkpt lat="46.0330667" lon="13.5104083"><ele>247.5</ele><time>2026-05-03T09:23:41.595Z</time></trkpt><trkpt lat="46.0329367" lon="13.5103417"><ele>247.0</ele><time>2026-05-03T09:23:42.594Z</time></trkpt><trkpt lat="46.0328117" lon="13.51028"><ele>244.75</ele><time>2026-05-03T09:23:43.595Z</time></trkpt><trkpt lat="46.03269" lon="13.510215"><ele>242.5</ele><time>2026-05-03T09:23:44.596Z</time></trkpt><trkpt lat="46.0325717" lon="13.5101883"><ele>240.25</ele><time>2026-05-03T09:23:45.595Z</time></trkpt><trkpt lat="46.0324583" lon="13.5101833"><ele>238.0</ele><time>2026-05-03T09:23:46.594Z</time></trkpt><trkpt lat="46.0323517" lon="13.510185"><ele>238.0</ele><time>2026-05-03T09:23:47.595Z</time></trkpt><trkpt lat="46.0322517" lon="13.510155"><ele>238.0</ele><time>2026-05-03T09:23:48.595Z</time></trkpt><trkpt lat="46.03216" lon="13.5101083"><ele>238.0</ele><time>2026-05-03T09:23:49.595Z</time></trkpt><trkpt lat="46.0320667" lon="13.5100267"><ele>238.0</ele><time>2026-05-03T09:23:50.595Z</time></trkpt><trkpt lat="46.0319867" lon="13.5099167"><ele>238.0</ele><time>2026-05-03T09:23:51.594Z</time></trkpt><trkpt lat="46.0319183" lon="13.5098117"><ele>238.0</ele><time>2026-05-03T09:23:52.594Z</time></trkpt><trkpt lat="46.03183" lon="13.509735"><ele>238.0</ele><time>2026-05-03T09:23:53.595Z</time></trkpt><trkpt lat="46.031725" lon="13.5096967"><ele>238.0</ele><time>2026-05-03T09:23:54.598Z</time></trkpt><trkpt lat="46.0316033" lon="13.5096917"><ele>238.0</ele><time>2026-05-03T09:23:55.594Z</time></trkpt><trkpt lat="46.03148" lon="13.5097133"><ele>239.4</ele><time>2026-05-03T09:23:56.594Z</time></trkpt><trkpt lat="46.0313783" lon="13.5096717"><ele>240.8</ele><time>2026-05-03T09:23:57.595Z</time></trkpt><trkpt lat="46.03129" lon="13.5095783"><ele>242.2</ele><time>2026-05-03T09:23:58.595Z</time></trkpt><trkpt lat="46.0312" lon="13.5094817"><ele>243.6</ele><time>2026-05-03T09:23:59.597Z</time></trkpt><trkpt lat="46.0311233" lon="13.5093867"><ele>245.0</ele><time>2026-05-03T09:24:00.595Z</time></trkpt><trkpt lat="46.03106" lon="13.50929"><ele>241.50000000000003</ele><time>2026-05-03T09:24:01.596Z</time></trkpt><trkpt lat="46.0309883" lon="13.509235"><ele>238.0</ele><time>2026-05-03T09:24:02.597Z</time></trkpt><trkpt lat="46.0309133" lon="13.50923"><ele>234.5</ele><time>2026-05-03T09:24:03.595Z</time></trkpt><trkpt lat="46.0308317" lon="13.509265"><ele>231.0</ele><time>2026-05-03T09:24:04.596Z</time></trkpt><trkpt lat="46.03074" lon="13.509295"><ele>227.50000000000003</ele><time>2026-05-03T09:24:05.594Z</time></trkpt><trkpt lat="46.0306467" lon="13.509285"><ele>224.0</ele><time>2026-05-03T09:24:06.595Z</time></trkpt><trkpt lat="46.0305467" lon="13.5092417"><ele>224.0</ele><time>2026-05-03T09:24:07.595Z</time></trkpt><trkpt lat="46.0304517" lon="13.5091583"><ele>224.0</ele><time>2026-05-03T09:24:08.595Z</time></trkpt><trkpt lat="46.0303583" lon="13.5090483"><ele>224.0</ele><time>2026-05-03T09:24:09.596Z</time></trkpt><trkpt lat="46.0302517" lon="13.50894"><ele>224.0</ele><time>2026-05-03T09:24:10.595Z</time></trkpt><trkpt lat="46.0301283" lon="13.5088733"><ele>224.0</ele><time>2026-05-03T09:24:11.595Z</time></trkpt><trkpt lat="46.03001" lon="13.5088"><ele>224.0</ele><time>2026-05-03T09:24:12.596Z</time></trkpt><trkpt lat="46.0298967" lon="13.5087283"><ele>224.0</ele><time>2026-05-03T09:24:13.595Z</time></trkpt><trkpt lat="46.0297983" lon="13.5086517"><ele>224.0</ele><time>2026-05-03T09:24:14.597Z</time></trkpt><trkpt lat="46.0297283" lon="13.5085617"><ele>221.6</ele><time>2026-05-03T09:24:15.596Z</time></trkpt><trkpt lat="46.02968" lon="13.5084467"><ele>219.2</ele><time>2026-05-03T09:24:16.595Z</time></trkpt><trkpt lat="46.0296483" lon="13.5083067"><ele>216.79999999999998</ele><time>2026-05-03T09:24:17.595Z</time></trkpt><trkpt lat="46.029625" lon="13.5081517"><ele>214.39999999999998</ele><time>2026-05-03T09:24:18.595Z</time></trkpt><trkpt lat="46.029615" lon="13.5079967"><ele>212.0</ele><time>2026-05-03T09:24:19.596Z</time></trkpt><trkpt lat="46.0296" lon="13.5078483"><ele>210.00000000000003</ele><time>2026-05-03T09:24:20.595Z</time></trkpt><trkpt lat="46.0295717" lon="13.50771"><ele>208.0</ele><time>2026-05-03T09:24:21.595Z</time></trkpt><trkpt lat="46.0295233" lon="13.507595"><ele>206.0</ele><time>2026-05-03T09:24:22.594Z</time></trkpt><trkpt lat="46.0294633" lon="13.5075033"><ele>204.0</ele><time>2026-05-03T09:24:23.594Z</time></trkpt><trkpt lat="46.0293967" lon="13.507435"><ele>202.00000000000003</ele><time>2026-05-03T09:24:24.595Z</time></trkpt><trkpt lat="46.0293167" lon="13.5074"><ele>200.0</ele><time>2026-05-03T09:24:25.594Z</time></trkpt><trkpt lat="46.029205" lon="13.50742"><ele>198.25</ele><time>2026-05-03T09:24:26.594Z</time></trkpt><trkpt lat="46.0290767" lon="13.5074633"><ele>196.5</ele><time>2026-05-03T09:24:27.596Z</time></trkpt><trkpt lat="46.0289367" lon="13.5074917"><ele>194.75</ele><time>2026-05-03T09:24:28.594Z</time></trkpt><trkpt lat="46.028795" lon="13.50751"><ele>193.0</ele><time>2026-05-03T09:24:29.594Z</time></trkpt><trkpt lat="46.0286667" lon="13.5075133"><ele>193.0</ele><time>2026-05-03T09:24:30.593Z</time></trkpt><trkpt lat="46.0285567" lon="13.5074767"><ele>193.0</ele><time>2026-05-03T09:24:31.594Z</time></trkpt><trkpt lat="46.0284633" lon="13.5074183"><ele>193.0</ele><time>2026-05-03T09:24:32.594Z</time></trkpt><trkpt lat="46.02838" lon="13.507375"><ele>193.0</ele><time>2026-05-03T09:24:33.595Z</time></trkpt><trkpt lat="46.0283067" lon="13.50739"><ele>193.0</ele><time>2026-05-03T09:24:34.596Z</time></trkpt><trkpt lat="46.0282417" lon="13.507445"><ele>193.33333333333331</ele><time>2026-05-03T09:24:35.595Z</time></trkpt><trkpt lat="46.0281917" lon="13.507525"><ele>193.66666666666666</ele><time>2026-05-03T09:24:36.595Z</time></trkpt><trkpt lat="46.0281667" lon="13.5076217"><ele>194.0</ele><time>2026-05-03T09:24:37.595Z</time></trkpt><trkpt lat="46.0281717" lon="13.5077217"><ele>194.33333333333331</ele><time>2026-05-03T09:24:38.594Z</time></trkpt><trkpt lat="46.0282033" lon="13.5078283"><ele>194.66666666666666</ele><time>2026-05-03T09:24:39.593Z</time></trkpt><trkpt lat="46.02825" lon="13.5079517"><ele>195.0</ele><time>2026-05-03T09:24:40.593Z</time></trkpt><trkpt lat="46.0282983" lon="13.5080883"><ele>194.6</ele><time>2026-05-03T09:24:41.593Z</time></trkpt><trkpt lat="46.0283283" lon="13.5082433"><ele>194.2</ele><time>2026-05-03T09:24:42.594Z</time></trkpt><trkpt lat="46.0283433" lon="13.5084033"><ele>193.8</ele><time>2026-05-03T09:24:43.593Z</time></trkpt><trkpt lat="46.02835" lon="13.5085567"><ele>193.4</ele><time>2026-05-03T09:24:44.595Z</time></trkpt><trkpt lat="46.0283417" lon="13.5087067"><ele>193.0</ele><time>2026-05-03T09:24:45.593Z</time></trkpt><trkpt lat="46.02833" lon="13.5088483"><ele>191.66666666666666</ele><time>2026-05-03T09:24:46.594Z</time></trkpt><trkpt lat="46.0283317" lon="13.5089783"><ele>190.33333333333331</ele><time>2026-05-03T09:24:47.595Z</time></trkpt><trkpt lat="46.0283267" lon="13.5090983"><ele>189.0</ele><time>2026-05-03T09:24:48.594Z</time></trkpt><trkpt lat="46.0283283" lon="13.50921"><ele>187.66666666666666</ele><time>2026-05-03T09:24:49.597Z</time></trkpt><trkpt lat="46.0283683" lon="13.5092967"><ele>186.33333333333331</ele><time>2026-05-03T09:24:50.595Z</time></trkpt><trkpt lat="46.0284233" lon="13.5093683"><ele>185.0</ele><time>2026-05-03T09:24:51.595Z</time></trkpt><trkpt lat="46.0284983" lon="13.5094183"><ele>185.0</ele><time>2026-05-03T09:24:52.594Z</time></trkpt><trkpt lat="46.0285767" lon="13.5094767"><ele>185.0</ele><time>2026-05-03T09:24:53.594Z</time></trkpt><trkpt lat="46.0286483" lon="13.5095517"><ele>185.0</ele><time>2026-05-03T09:24:54.594Z</time></trkpt><trkpt lat="46.028705" lon="13.5096517"><ele>185.0</ele><time>2026-05-03T09:24:55.594Z</time></trkpt><trkpt lat="46.028735" lon="13.5097683"><ele>185.0</ele><time>2026-05-03T09:24:56.594Z</time></trkpt><trkpt lat="46.0287483" lon="13.5098867"><ele>185.0</ele><time>2026-05-03T09:24:57.594Z</time></trkpt><trkpt lat="46.0287567" lon="13.5100117"><ele>184.66666666666666</ele><time>2026-05-03T09:24:58.595Z</time></trkpt><trkpt lat="46.0287517" lon="13.5101533"><ele>184.33333333333331</ele><time>2026-05-03T09:24:59.595Z</time></trkpt><trkpt lat="46.0287383" lon="13.5102767"><ele>184.0</ele><time>2026-05-03T09:25:00.594Z</time></trkpt><trkpt lat="46.0286867" lon="13.5103833"><ele>183.66666666666666</ele><time>2026-05-03T09:25:01.595Z</time></trkpt><trkpt lat="46.0286183" lon="13.5104583"><ele>183.33333333333334</ele><time>2026-05-03T09:25:02.595Z</time></trkpt><trkpt lat="46.0285383" lon="13.5104983"><ele>183.0</ele><time>2026-05-03T09:25:03.593Z</time></trkpt><trkpt lat="46.0284417" lon="13.5104717"><ele>183.0</ele><time>2026-05-03T09:25:04.594Z</time></trkpt><trkpt lat="46.028355" lon="13.51044"><ele>183.0</ele><time>2026-05-03T09:25:05.596Z</time></trkpt><trkpt lat="46.0282667" lon="13.51041"><ele>183.0</ele><time>2026-05-03T09:25:06.595Z</time></trkpt><trkpt lat="46.02818" lon="13.510425"><ele>183.0</ele><time>2026-05-03T09:25:07.593Z</time></trkpt><trkpt lat="46.0281033" lon="13.5104683"><ele>183.0</ele><time>2026-05-03T09:25:08.595Z</time></trkpt><trkpt lat="46.02804" lon="13.5105583"><ele>183.0</ele><time>2026-05-03T09:25:09.594Z</time></trkpt><trkpt lat="46.0279833" lon="13.5106517"><ele>180.66666666666666</ele><time>2026-05-03T09:25:10.594Z</time></trkpt><trkpt lat="46.027935" lon="13.5107617"><ele>178.33333333333334</ele><time>2026-05-03T09:25:11.593Z</time></trkpt><trkpt lat="46.0278883" lon="13.5108767"><ele>176.0</ele><time>2026-05-03T09:25:12.595Z</time></trkpt><trkpt lat="46.0278167" lon="13.51094"><ele>173.66666666666669</ele><time>2026-05-03T09:25:13.594Z</time></trkpt><trkpt lat="46.027745" lon="13.5109633"><ele>171.33333333333334</ele><time>2026-05-03T09:25:14.594Z</time></trkpt><trkpt lat="46.0276667" lon="13.5109367"><ele>169.0</ele><time>2026-05-03T09:25:15.594Z</time></trkpt><trkpt lat="46.027585" lon="13.5108817"><ele>169.0</ele><time>2026-05-03T09:25:16.593Z</time></trkpt><trkpt lat="46.027525" lon="13.5107717"><ele>169.0</ele><time>2026-05-03T09:25:17.594Z</time></trkpt><trkpt lat="46.0274617" lon="13.5106483"><ele>169.0</ele><time>2026-05-03T09:25:18.594Z</time></trkpt><trkpt lat="46.027385" lon="13.5105333"><ele>169.0</ele><time>2026-05-03T09:25:19.594Z</time></trkpt><trkpt lat="46.027315" lon="13.5104333"><ele>169.0</ele><time>2026-05-03T09:25:20.594Z</time></trkpt><trkpt lat="46.0272433" lon="13.5103617"><ele>169.0</ele><time>2026-05-03T09:25:21.594Z</time></trkpt><trkpt lat="46.02717" lon="13.5103083"><ele>169.0</ele><time>2026-05-03T09:25:22.594Z</time></trkpt><trkpt lat="46.0270967" lon="13.5102667"><ele>169.0</ele><time>2026-05-03T09:25:23.599Z</time></trkpt><trkpt lat="46.027005" lon="13.510285"><ele>169.0</ele><time>2026-05-03T09:25:24.594Z</time></trkpt><trkpt lat="46.026915" lon="13.5103683"><ele>169.0</ele><time>2026-05-03T09:25:25.595Z</time></trkpt><trkpt lat="46.026805" lon="13.51044"><ele>169.0</ele><time>2026-05-03T09:25:26.594Z</time></trkpt><trkpt lat="46.0266933" lon="13.51049"><ele>169.0</ele><time>2026-05-03T09:25:27.594Z</time></trkpt><trkpt lat="46.0265833" lon="13.51053"><ele>169.0</ele><time>2026-05-03T09:25:28.595Z</time></trkpt><trkpt lat="46.0264717" lon="13.5105617"><ele>169.0</ele><time>2026-05-03T09:25:29.602Z</time></trkpt><trkpt lat="46.0263633" lon="13.5105817"><ele>163.75</ele><time>2026-05-03T09:25:30.596Z</time></trkpt><trkpt lat="46.0262583" lon="13.5106483"><ele>158.5</ele><time>2026-05-03T09:25:31.595Z</time></trkpt><trkpt lat="46.0261517" lon="13.5107333"><ele>153.25</ele><time>2026-05-03T09:25:32.595Z</time></trkpt><trkpt lat="46.02606" lon="13.51086"><ele>148.0</ele><time>2026-05-03T09:25:33.594Z</time></trkpt><trkpt lat="46.0259767" lon="13.5109933"><ele>148.0</ele><time>2026-05-03T09:25:34.594Z</time></trkpt><trkpt lat="46.02589" lon="13.5111083"><ele>148.0</ele><time>2026-05-03T09:25:35.598Z</time></trkpt><trkpt lat="46.0258167" lon="13.5112283"><ele>148.0</ele><time>2026-05-03T09:25:36.595Z</time></trkpt><trkpt lat="46.0257367" lon="13.5113283"><ele>148.0</ele><time>2026-05-03T09:25:37.593Z</time></trkpt><trkpt lat="46.0256483" lon="13.5113883"><ele>148.0</ele><time>2026-05-03T09:25:38.595Z</time></trkpt><trkpt lat="46.025555" lon="13.51141"><ele>147.20000000000002</ele><time>2026-05-03T09:25:39.593Z</time></trkpt><trkpt lat="46.0254517" lon="13.5114017"><ele>146.4</ele><time>2026-05-03T09:25:40.594Z</time></trkpt><trkpt lat="46.0253467" lon="13.5113733"><ele>145.60000000000002</ele><time>2026-05-03T09:25:41.595Z</time></trkpt><trkpt lat="46.02524" lon="13.51135"><ele>144.8</ele><time>2026-05-03T09:25:42.595Z</time></trkpt><trkpt lat="46.0251317" lon="13.511345"><ele>144.0</ele><time>2026-05-03T09:25:43.595Z</time></trkpt><trkpt lat="46.0250217" lon="13.5113667"><ele>142.6</ele><time>2026-05-03T09:25:44.595Z</time></trkpt><trkpt lat="46.0249167" lon="13.51142"><ele>141.2</ele><time>2026-05-03T09:25:45.594Z</time></trkpt><trkpt lat="46.02483" lon="13.5115217"><ele>139.79999999999998</ele><time>2026-05-03T09:25:46.595Z</time></trkpt><trkpt lat="46.024765" lon="13.51166"><ele>138.4</ele><time>2026-05-03T09:25:47.595Z</time></trkpt><trkpt lat="46.02469" lon="13.511775"><ele>137.0</ele><time>2026-05-03T09:25:48.594Z</time></trkpt><trkpt lat="46.024605" lon="13.5118533"><ele>137.0</ele><time>2026-05-03T09:25:49.594Z</time></trkpt><trkpt lat="46.0245167" lon="13.5119083"><ele>137.0</ele><time>2026-05-03T09:25:50.594Z</time></trkpt><trkpt lat="46.0244067" lon="13.5119183"><ele>137.0</ele><time>2026-05-03T09:25:51.594Z</time></trkpt><trkpt lat="46.0242967" lon="13.5119217"><ele>137.0</ele><time>2026-05-03T09:25:52.594Z</time></trkpt><trkpt lat="46.0241867" lon="13.5119383"><ele>137.0</ele><time>2026-05-03T09:25:53.594Z</time></trkpt><trkpt lat="46.0240783" lon="13.5119817"><ele>135.25</ele><time>2026-05-03T09:25:54.594Z</time></trkpt><trkpt lat="46.0239617" lon="13.51204"><ele>133.5</ele><time>2026-05-03T09:25:55.593Z</time></trkpt><trkpt lat="46.0238467" lon="13.51216"><ele>131.75</ele><time>2026-05-03T09:25:56.595Z</time></trkpt><trkpt lat="46.023735" lon="13.512295"><ele>130.0</ele><time>2026-05-03T09:25:57.594Z</time></trkpt><trkpt lat="46.0236283" lon="13.5124217"><ele>130.0</ele><time>2026-05-03T09:25:58.594Z</time></trkpt><trkpt lat="46.0235183" lon="13.5125483"><ele>130.0</ele><time>2026-05-03T09:25:59.594Z</time></trkpt><trkpt lat="46.023405" lon="13.5126783"><ele>130.0</ele><time>2026-05-03T09:26:00.594Z</time></trkpt><trkpt lat="46.0233033" lon="13.5128283"><ele>130.0</ele><time>2026-05-03T09:26:01.594Z</time></trkpt><trkpt lat="46.0232133" lon="13.512985"><ele>127.6</ele><time>2026-05-03T09:26:02.597Z</time></trkpt><trkpt lat="46.0231267" lon="13.5131317"><ele>125.2</ele><time>2026-05-03T09:26:03.593Z</time></trkpt><trkpt lat="46.0230517" lon="13.5132583"><ele>122.80000000000001</ele><time>2026-05-03T09:26:04.594Z</time></trkpt><trkpt lat="46.0229817" lon="13.5133517"><ele>120.4</ele><time>2026-05-03T09:26:05.596Z</time></trkpt><trkpt lat="46.0229283" lon="13.5134317"><ele>118.0</ele><time>2026-05-03T09:26:06.594Z</time></trkpt><trkpt lat="46.0228933" lon="13.51351"><ele>118.00000000000001</ele><time>2026-05-03T09:26:07.594Z</time></trkpt><trkpt lat="46.0228683" lon="13.5135983"><ele>118.0</ele><time>2026-05-03T09:26:08.595Z</time></trkpt><trkpt lat="46.0228633" lon="13.5136917"><ele>118.0</ele><time>2026-05-03T09:26:09.594Z</time></trkpt><trkpt lat="46.0228783" lon="13.5137967"><ele>118.0</ele><time>2026-05-03T09:26:10.595Z</time></trkpt><trkpt lat="46.0229033" lon="13.5139217"><ele>118.00000000000001</ele><time>2026-05-03T09:26:11.594Z</time></trkpt><trkpt lat="46.0229217" lon="13.5140717"><ele>118.0</ele><time>2026-05-03T09:26:12.595Z</time></trkpt><trkpt lat="46.022945" lon="13.51424"><ele>115.25</ele><time>2026-05-03T09:26:13.594Z</time></trkpt><trkpt lat="46.0229683" lon="13.514425"><ele>112.5</ele><time>2026-05-03T09:26:14.594Z</time></trkpt><trkpt lat="46.02301" lon="13.5146133"><ele>109.75</ele><time>2026-05-03T09:26:15.594Z</time></trkpt><trkpt lat="46.0230583" lon="13.5148167"><ele>107.0</ele><time>2026-05-03T09:26:16.595Z</time></trkpt><trkpt lat="46.0231017" lon="13.5150283"><ele>107.0</ele><time>2026-05-03T09:26:17.594Z</time></trkpt><trkpt lat="46.0231333" lon="13.51524"><ele>107.0</ele><time>2026-05-03T09:26:18.593Z</time></trkpt><trkpt lat="46.02316" lon="13.5154533"><ele>107.0</ele><time>2026-05-03T09:26:19.594Z</time></trkpt><trkpt lat="46.0231867" lon="13.5156583"><ele>107.0</ele><time>2026-05-03T09:26:20.595Z</time></trkpt><trkpt lat="46.0232183" lon="13.5158583"><ele>108.75</ele><time>2026-05-03T09:26:21.594Z</time></trkpt><trkpt lat="46.0232467" lon="13.516045"><ele>110.5</ele><time>2026-05-03T09:26:22.594Z</time></trkpt><trkpt lat="46.0232883" lon="13.5162117"><ele>112.25</ele><time>2026-05-03T09:26:23.595Z</time></trkpt><trkpt lat="46.02337" lon="13.51634"><ele>114.0</ele><time>2026-05-03T09:26:24.594Z</time></trkpt><trkpt lat="46.0234717" lon="13.5164567"><ele>114.75</ele><time>2026-05-03T09:26:25.596Z</time></trkpt><trkpt lat="46.0235883" lon="13.5165567"><ele>115.5</ele><time>2026-05-03T09:26:26.596Z</time></trkpt><trkpt lat="46.0237167" lon="13.5166467"><ele>116.25</ele><time>2026-05-03T09:26:27.595Z</time></trkpt><trkpt lat="46.0238467" lon="13.5167367"><ele>117.0</ele><time>2026-05-03T09:26:28.594Z</time></trkpt><trkpt lat="46.0239817" lon="13.5168283"><ele>117.0</ele><time>2026-05-03T09:26:29.594Z</time></trkpt><trkpt lat="46.0241233" lon="13.516915"><ele>117.0</ele><time>2026-05-03T09:26:30.594Z</time></trkpt><trkpt lat="46.0242633" lon="13.5170017"><ele>117.0</ele><time>2026-05-03T09:26:31.595Z</time></trkpt><trkpt lat="46.0244033" lon="13.5170817"><ele>119.5</ele><time>2026-05-03T09:26:32.594Z</time></trkpt><trkpt lat="46.02454" lon="13.5171717"><ele>122.0</ele><time>2026-05-03T09:26:33.595Z</time></trkpt><trkpt lat="46.0246733" lon="13.5172667"><ele>124.5</ele><time>2026-05-03T09:26:34.595Z</time></trkpt><trkpt lat="46.0247917" lon="13.5173817"><ele>127.0</ele><time>2026-05-03T09:26:35.594Z</time></trkpt><trkpt lat="46.0249017" lon="13.5175117"><ele>126.25</ele><time>2026-05-03T09:26:36.593Z</time></trkpt><trkpt lat="46.0250233" lon="13.5176267"><ele>125.5</ele><time>2026-05-03T09:26:37.594Z</time></trkpt><trkpt lat="46.0251467" lon="13.5177467"><ele>124.75</ele><time>2026-05-03T09:26:38.595Z</time></trkpt><trkpt lat="46.0252767" lon="13.5178533"><ele>124.0</ele><time>2026-05-03T09:26:39.594Z</time></trkpt><trkpt lat="46.0254117" lon="13.517955"><ele>125.25</ele><time>2026-05-03T09:26:40.595Z</time></trkpt><trkpt lat="46.0255433" lon="13.5180517"><ele>126.5</ele><time>2026-05-03T09:26:41.595Z</time></trkpt><trkpt lat="46.0256633" lon="13.51815"><ele>127.75</ele><time>2026-05-03T09:26:42.594Z</time></trkpt><trkpt lat="46.0257667" lon="13.5182467"><ele>129.0</ele><time>2026-05-03T09:26:43.595Z</time></trkpt><trkpt lat="46.02586" lon="13.5183317"><ele>129.0</ele><time>2026-05-03T09:26:44.595Z</time></trkpt><trkpt lat="46.0259317" lon="13.5184283"><ele>129.0</ele><time>2026-05-03T09:26:45.594Z</time></trkpt><trkpt lat="46.0259867" lon="13.5185483"><ele>129.0</ele><time>2026-05-03T09:26:46.595Z</time></trkpt><trkpt lat="46.02603" lon="13.5186917"><ele>129.0</ele><time>2026-05-03T09:26:47.596Z</time></trkpt><trkpt lat="46.0261017" lon="13.5188267"><ele>129.0</ele><time>2026-05-03T09:26:48.596Z</time></trkpt><trkpt lat="46.02618" lon="13.51897"><ele>135.25</ele><time>2026-05-03T09:26:49.594Z</time></trkpt><trkpt lat="46.0262767" lon="13.5191033"><ele>141.5</ele><time>2026-05-03T09:26:50.594Z</time></trkpt><trkpt lat="46.026375" lon="13.51925"><ele>147.75</ele><time>2026-05-03T09:26:51.595Z</time></trkpt><trkpt lat="46.02646" lon="13.5194117"><ele>154.0</ele><time>2026-05-03T09:26:52.594Z</time></trkpt><trkpt lat="46.0265433" lon="13.5195733"><ele>149.75</ele><time>2026-05-03T09:26:53.595Z</time></trkpt><trkpt lat="46.026615" lon="13.5197333"><ele>145.5</ele><time>2026-05-03T09:26:54.595Z</time></trkpt><trkpt lat="46.0266767" lon="13.5198967"><ele>141.25</ele><time>2026-05-03T09:26:55.594Z</time></trkpt><trkpt lat="46.0267217" lon="13.5200717"><ele>137.0</ele><time>2026-05-03T09:26:56.595Z</time></trkpt><trkpt lat="46.0267717" lon="13.52024"><ele>137.0</ele><time>2026-05-03T09:26:57.594Z</time></trkpt><trkpt lat="46.0268383" lon="13.5203733"><ele>137.0</ele><time>2026-05-03T09:26:58.595Z</time></trkpt><trkpt lat="46.0269017" lon="13.5204783"><ele>137.0</ele><time>2026-05-03T09:26:59.594Z</time></trkpt><trkpt lat="46.0269583" lon="13.5205583"><ele>137.0</ele><time>2026-05-03T09:27:00.594Z</time></trkpt><trkpt lat="46.0269983" lon="13.5206317"><ele>137.0</ele><time>2026-05-03T09:27:01.594Z</time></trkpt><trkpt lat="46.027045" lon="13.5207083"><ele>137.0</ele><time>2026-05-03T09:27:02.594Z</time></trkpt><trkpt lat="46.0270917" lon="13.5207967"><ele>142.39999999999998</ele><time>2026-05-03T09:27:03.594Z</time></trkpt><trkpt lat="46.027135" lon="13.52091"><ele>147.79999999999998</ele><time>2026-05-03T09:27:04.595Z</time></trkpt><trkpt lat="46.0272167" lon="13.521025"><ele>153.2</ele><time>2026-05-03T09:27:05.595Z</time></trkpt><trkpt lat="46.0273067" lon="13.52113"><ele>158.6</ele><time>2026-05-03T09:27:06.595Z</time></trkpt><trkpt lat="46.0273883" lon="13.5212367"><ele>164.0</ele><time>2026-05-03T09:27:07.594Z</time></trkpt><trkpt lat="46.027445" lon="13.521375"><ele>162.0</ele><time>2026-05-03T09:27:08.595Z</time></trkpt><trkpt lat="46.0274767" lon="13.52155"><ele>160.0</ele><time>2026-05-03T09:27:09.594Z</time></trkpt><trkpt lat="46.0275183" lon="13.52174"><ele>158.0</ele><time>2026-05-03T09:27:10.594Z</time></trkpt><trkpt lat="46.027555" lon="13.521935"><ele>156.0</ele><time>2026-05-03T09:27:11.594Z</time></trkpt><trkpt lat="46.0275667" lon="13.5221267"><ele>156.0</ele><time>2026-05-03T09:27:12.594Z</time></trkpt><trkpt lat="46.02758" lon="13.522295"><ele>156.0</ele><time>2026-05-03T09:27:13.594Z</time></trkpt><trkpt lat="46.02758" lon="13.5224567"><ele>156.0</ele><time>2026-05-03T09:27:14.594Z</time></trkpt><trkpt lat="46.0275967" lon="13.52261"><ele>156.0</ele><time>2026-05-03T09:27:15.595Z</time></trkpt><trkpt lat="46.0276367" lon="13.5227633"><ele>161.0</ele><time>2026-05-03T09:27:16.595Z</time></trkpt><trkpt lat="46.0277067" lon="13.5229117"><ele>166.0</ele><time>2026-05-03T09:27:17.595Z</time></trkpt><trkpt lat="46.0278017" lon="13.5230517"><ele>171.0</ele><time>2026-05-03T09:27:18.595Z</time></trkpt><trkpt lat="46.027885" lon="13.5232133"><ele>176.0</ele><time>2026-05-03T09:27:19.595Z</time></trkpt><trkpt lat="46.0279783" lon="13.5233867"><ele>176.0</ele><time>2026-05-03T09:27:20.595Z</time></trkpt><trkpt lat="46.0280683" lon="13.5235517"><ele>176.0</ele><time>2026-05-03T09:27:21.595Z</time></trkpt><trkpt lat="46.0281583" lon="13.5236933"><ele>176.0</ele><time>2026-05-03T09:27:22.595Z</time></trkpt><trkpt lat="46.0282417" lon="13.5238167"><ele>176.0</ele><time>2026-05-03T09:27:23.594Z</time></trkpt><trkpt lat="46.02833" lon="13.5239067"><ele>171.60000000000002</ele><time>2026-05-03T09:27:24.594Z</time></trkpt><trkpt lat="46.0284067" lon="13.5239933"><ele>167.20000000000002</ele><time>2026-05-03T09:27:25.595Z</time></trkpt><trkpt lat="46.0284567" lon="13.5240933"><ele>162.8</ele><time>2026-05-03T09:27:26.596Z</time></trkpt><trkpt lat="46.0284867" lon="13.5242133"><ele>158.4</ele><time>2026-05-03T09:27:27.594Z</time></trkpt><trkpt lat="46.028505" lon="13.524365"><ele>154.0</ele><time>2026-05-03T09:27:28.594Z</time></trkpt><trkpt lat="46.028525" lon="13.52453"><ele>157.0</ele><time>2026-05-03T09:27:29.595Z</time></trkpt><trkpt lat="46.02855" lon="13.5247133"><ele>160.0</ele><time>2026-05-03T09:27:30.594Z</time></trkpt><trkpt lat="46.0285833" lon="13.5248933"><ele>163.0</ele><time>2026-05-03T09:27:31.597Z</time></trkpt><trkpt lat="46.0286317" lon="13.5250567"><ele>166.0</ele><time>2026-05-03T09:27:32.594Z</time></trkpt><trkpt lat="46.0286633" lon="13.5252067"><ele>166.0</ele><time>2026-05-03T09:27:33.596Z</time></trkpt><trkpt lat="46.0286867" lon="13.5253283"><ele>166.0</ele><time>2026-05-03T09:27:34.595Z</time></trkpt><trkpt lat="46.0287217" lon="13.5254283"><ele>166.0</ele><time>2026-05-03T09:27:35.594Z</time></trkpt><trkpt lat="46.028765" lon="13.5255033"><ele>166.0</ele><time>2026-05-03T09:27:36.594Z</time></trkpt><trkpt lat="46.028825" lon="13.5255417"><ele>166.0</ele><time>2026-05-03T09:27:37.594Z</time></trkpt><trkpt lat="46.0289117" lon="13.5255283"><ele>166.0</ele><time>2026-05-03T09:27:38.595Z</time></trkpt><trkpt lat="46.0289783" lon="13.5255433"><ele>164.5</ele><time>2026-05-03T09:27:39.595Z</time></trkpt><trkpt lat="46.0290383" lon="13.5256033"><ele>163.0</ele><time>2026-05-03T09:27:40.594Z</time></trkpt><trkpt lat="46.0290983" lon="13.5256817"><ele>161.5</ele><time>2026-05-03T09:27:41.595Z</time></trkpt><trkpt lat="46.0291467" lon="13.5257867"><ele>160.0</ele><time>2026-05-03T09:27:42.595Z</time></trkpt><trkpt lat="46.0291767" lon="13.5259183"><ele>158.5</ele><time>2026-05-03T09:27:43.595Z</time></trkpt><trkpt lat="46.0291983" lon="13.5260717"><ele>157.0</ele><time>2026-05-03T09:27:44.594Z</time></trkpt><trkpt lat="46.029225" lon="13.526235"><ele>157.0</ele><time>2026-05-03T09:27:45.594Z</time></trkpt><trkpt lat="46.0292833" lon="13.526385"><ele>157.0</ele><time>2026-05-03T09:27:46.595Z</time></trkpt><trkpt lat="46.0293567" lon="13.526515"><ele>157.0</ele><time>2026-05-03T09:27:47.595Z</time></trkpt><trkpt lat="46.0294417" lon="13.5266367"><ele>157.0</ele><time>2026-05-03T09:27:48.594Z</time></trkpt><trkpt lat="46.0295283" lon="13.5267567"><ele>157.0</ele><time>2026-05-03T09:27:49.595Z</time></trkpt><trkpt lat="46.0296117" lon="13.526885"><ele>157.0</ele><time>2026-05-03T09:27:50.594Z</time></trkpt><trkpt lat="46.0297" lon="13.5270083"><ele>157.0</ele><time>2026-05-03T09:27:51.594Z</time></trkpt><trkpt lat="46.0297833" lon="13.5271383"><ele>157.0</ele><time>2026-05-03T09:27:52.595Z</time></trkpt><trkpt lat="46.0298583" lon="13.52728"><ele>159.75</ele><time>2026-05-03T09:27:53.594Z</time></trkpt><trkpt lat="46.0299383" lon="13.527415"><ele>162.5</ele><time>2026-05-03T09:27:54.595Z</time></trkpt><trkpt lat="46.0300017" lon="13.5275783"><ele>165.25</ele><time>2026-05-03T09:27:55.596Z</time></trkpt><trkpt lat="46.0300633" lon="13.5277283"><ele>168.0</ele><time>2026-05-03T09:27:56.597Z</time></trkpt><trkpt lat="46.0301233" lon="13.52787"><ele>163.8</ele><time>2026-05-03T09:27:57.594Z</time></trkpt><trkpt lat="46.0301633" lon="13.5280067"><ele>159.60000000000002</ele><time>2026-05-03T09:27:58.595Z</time></trkpt><trkpt lat="46.0301917" lon="13.5281533"><ele>155.39999999999998</ele><time>2026-05-03T09:27:59.595Z</time></trkpt><trkpt lat="46.030205" lon="13.5283"><ele>151.2</ele><time>2026-05-03T09:28:00.595Z</time></trkpt><trkpt lat="46.030225" lon="13.5284333"><ele>147.0</ele><time>2026-05-03T09:28:01.596Z</time></trkpt><trkpt lat="46.0302683" lon="13.5285233"><ele>147.0</ele><time>2026-05-03T09:28:02.595Z</time></trkpt><trkpt lat="46.03033" lon="13.5285867"><ele>147.0</ele><time>2026-05-03T09:28:03.594Z</time></trkpt><trkpt lat="46.03041" lon="13.5286067"><ele>147.0</ele><time>2026-05-03T09:28:04.595Z</time></trkpt><trkpt lat="46.0304867" lon="13.5285917"><ele>147.0</ele><time>2026-05-03T09:28:05.594Z</time></trkpt><trkpt lat="46.030555" lon="13.5285333"><ele>147.0</ele><time>2026-05-03T09:28:06.595Z</time></trkpt><trkpt lat="46.03061" lon="13.5284383"><ele>147.0</ele><time>2026-05-03T09:28:07.594Z</time></trkpt><trkpt lat="46.03063" lon="13.528325"><ele>147.0</ele><time>2026-05-03T09:28:08.594Z</time></trkpt><trkpt lat="46.0306233" lon="13.5281883"><ele>147.0</ele><time>2026-05-03T09:28:09.593Z</time></trkpt><trkpt lat="46.030575" lon="13.5280133"><ele>147.0</ele><time>2026-05-03T09:28:10.593Z</time></trkpt><trkpt lat="46.0305667" lon="13.5278233"><ele>147.0</ele><time>2026-05-03T09:28:11.595Z</time></trkpt><trkpt lat="46.03054" lon="13.5276317"><ele>146.5</ele><time>2026-05-03T09:28:12.594Z</time></trkpt><trkpt lat="46.03051" lon="13.52747"><ele>146.0</ele><time>2026-05-03T09:28:13.593Z</time></trkpt><trkpt lat="46.03047" lon="13.527345"><ele>145.5</ele><time>2026-05-03T09:28:14.595Z</time></trkpt><trkpt lat="46.03042" lon="13.5272533"><ele>145.0</ele><time>2026-05-03T09:28:15.594Z</time></trkpt><trkpt lat="46.0303833" lon="13.5271733"><ele>144.5</ele><time>2026-05-03T09:28:16.595Z</time></trkpt><trkpt lat="46.03039" lon="13.5270483"><ele>144.0</ele><time>2026-05-03T09:28:18.595Z</time></trkpt><trkpt lat="46.0304783" lon="13.5270683"><ele>143.8</ele><time>2026-05-03T09:28:21.594Z</time></trkpt><trkpt lat="46.0305583" lon="13.5271733"><ele>143.60000000000002</ele><time>2026-05-03T09:28:23.594Z</time></trkpt><trkpt lat="46.0306267" lon="13.527255"><ele>143.4</ele><time>2026-05-03T09:28:24.593Z</time></trkpt><trkpt lat="46.0307" lon="13.5273917"><ele>143.20000000000002</ele><time>2026-05-03T09:28:25.595Z</time></trkpt><trkpt lat="46.0307617" lon="13.527525"><ele>143.0</ele><time>2026-05-03T09:28:26.596Z</time></trkpt><trkpt lat="46.0308067" lon="13.527665"><ele>146.60000000000002</ele><time>2026-05-03T09:28:27.593Z</time></trkpt><trkpt lat="46.0308683" lon="13.52778"><ele>150.20000000000002</ele><time>2026-05-03T09:28:28.595Z</time></trkpt><trkpt lat="46.03093" lon="13.52787"><ele>153.8</ele><time>2026-05-03T09:28:29.595Z</time></trkpt><trkpt lat="46.0309983" lon="13.5279267"><ele>157.4</ele><time>2026-05-03T09:28:30.594Z</time></trkpt><trkpt lat="46.03108" lon="13.52796"><ele>161.0</ele><time>2026-05-03T09:28:31.595Z</time></trkpt><trkpt lat="46.0311933" lon="13.5279533"><ele>161.0</ele><time>2026-05-03T09:28:32.594Z</time></trkpt><trkpt lat="46.0313167" lon="13.5279283"><ele>161.0</ele><time>2026-05-03T09:28:33.593Z</time></trkpt><trkpt lat="46.0314333" lon="13.5279133"><ele>161.0</ele><time>2026-05-03T09:28:34.594Z</time></trkpt><trkpt lat="46.0315433" lon="13.52792"><ele>161.0</ele><time>2026-05-03T09:28:35.593Z</time></trkpt><trkpt lat="46.03166" lon="13.5279383"><ele>163.75</ele><time>2026-05-03T09:28:36.595Z</time></trkpt><trkpt lat="46.0317733" lon="13.527985"><ele>166.5</ele><time>2026-05-03T09:28:37.593Z</time></trkpt><trkpt lat="46.0318917" lon="13.5280417"><ele>169.25</ele><time>2026-05-03T09:28:38.595Z</time></trkpt><trkpt lat="46.0320083" lon="13.5281"><ele>172.0</ele><time>2026-05-03T09:28:39.594Z</time></trkpt><trkpt lat="46.03212" lon="13.5281667"><ele>172.0</ele><time>2026-05-03T09:28:40.595Z</time></trkpt><trkpt lat="46.0322267" lon="13.5282233"><ele>172.0</ele><time>2026-05-03T09:28:41.594Z</time></trkpt><trkpt lat="46.0323283" lon="13.5282517"><ele>172.0</ele><time>2026-05-03T09:28:42.593Z</time></trkpt><trkpt lat="46.032415" lon="13.5282683"><ele>172.0</ele><time>2026-05-03T09:28:43.594Z</time></trkpt><trkpt lat="46.0324867" lon="13.528295"><ele>172.0</ele><time>2026-05-03T09:28:44.595Z</time></trkpt><trkpt lat="46.0325467" lon="13.52835"><ele>172.0</ele><time>2026-05-03T09:28:45.595Z</time></trkpt><trkpt lat="46.0325717" lon="13.5285017"><ele>172.0</ele><time>2026-05-03T09:28:47.593Z</time></trkpt><trkpt lat="46.0324767" lon="13.5286283"><ele>172.0</ele><time>2026-05-03T09:28:49.594Z</time></trkpt><trkpt lat="46.0323917" lon="13.5286817"><ele>172.0</ele><time>2026-05-03T09:28:50.594Z</time></trkpt><trkpt lat="46.0322867" lon="13.52873"><ele>172.0</ele><time>2026-05-03T09:28:51.593Z</time></trkpt><trkpt lat="46.032165" lon="13.5287817"><ele>176.25</ele><time>2026-05-03T09:28:52.593Z</time></trkpt><trkpt lat="46.0320317" lon="13.5288417"><ele>180.5</ele><time>2026-05-03T09:28:53.593Z</time></trkpt><trkpt lat="46.031895" lon="13.5289033"><ele>184.75</ele><time>2026-05-03T09:28:54.593Z</time></trkpt><trkpt lat="46.0317767" lon="13.528955"><ele>189.0</ele><time>2026-05-03T09:28:55.594Z</time></trkpt><trkpt lat="46.03168" lon="13.528995"><ele>185.33333333333334</ele><time>2026-05-03T09:28:56.594Z</time></trkpt><trkpt lat="46.0315967" lon="13.5290033"><ele>181.66666666666666</ele><time>2026-05-03T09:28:57.594Z</time></trkpt><trkpt lat="46.0315133" lon="13.5289967"><ele>178.0</ele><time>2026-05-03T09:28:58.593Z</time></trkpt><trkpt lat="46.0314283" lon="13.5290183"><ele>174.33333333333331</ele><time>2026-05-03T09:28:59.594Z</time></trkpt><trkpt lat="46.0313517" lon="13.52904"><ele>170.66666666666666</ele><time>2026-05-03T09:29:00.595Z</time></trkpt><trkpt lat="46.0312833" lon="13.5290717"><ele>167.0</ele><time>2026-05-03T09:29:01.594Z</time></trkpt><trkpt lat="46.0312217" lon="13.529115"><ele>167.0</ele><time>2026-05-03T09:29:02.594Z</time></trkpt><trkpt lat="46.031165" lon="13.5291683"><ele>167.0</ele><time>2026-05-03T09:29:03.594Z</time></trkpt><trkpt lat="46.03114" lon="13.52934"><ele>167.0</ele><time>2026-05-03T09:29:05.593Z</time></trkpt><trkpt lat="46.0311917" lon="13.5294933"><ele>167.0</ele><time>2026-05-03T09:29:07.595Z</time></trkpt><trkpt lat="46.0312883" lon="13.5295183"><ele>167.0</ele><time>2026-05-03T09:29:08.595Z</time></trkpt><trkpt lat="46.0313917" lon="13.5295067"><ele>167.0</ele><time>2026-05-03T09:29:09.593Z</time></trkpt><trkpt lat="46.0314883" lon="13.5294983"><ele>167.0</ele><time>2026-05-03T09:29:10.593Z</time></trkpt><trkpt lat="46.03159" lon="13.529475"><ele>167.0</ele><time>2026-05-03T09:29:11.595Z</time></trkpt><trkpt lat="46.0316867" lon="13.5294817"><ele>167.0</ele><time>2026-05-03T09:29:12.595Z</time></trkpt><trkpt lat="46.0317733" lon="13.529505"><ele>167.0</ele><time>2026-05-03T09:29:13.593Z</time></trkpt><trkpt lat="46.031865" lon="13.5295117"><ele>169.5</ele><time>2026-05-03T09:29:14.595Z</time></trkpt><trkpt lat="46.0319533" lon="13.5295283"><ele>172.0</ele><time>2026-05-03T09:29:15.594Z</time></trkpt><trkpt lat="46.03204" lon="13.529545"><ele>174.5</ele><time>2026-05-03T09:29:16.593Z</time></trkpt><trkpt lat="46.032125" lon="13.5295583"><ele>177.0</ele><time>2026-05-03T09:29:17.595Z</time></trkpt><trkpt lat="46.0322033" lon="13.5295933"><ele>179.5</ele><time>2026-05-03T09:29:18.594Z</time></trkpt><trkpt lat="46.0322867" lon="13.5296333"><ele>182.0</ele><time>2026-05-03T09:29:19.594Z</time></trkpt><trkpt lat="46.0323767" lon="13.5296717"><ele>184.8</ele><time>2026-05-03T09:29:20.594Z</time></trkpt><trkpt lat="46.032475" lon="13.529715"><ele>187.6</ele><time>2026-05-03T09:29:21.594Z</time></trkpt><trkpt lat="46.0325717" lon="13.5297583"><ele>190.4</ele><time>2026-05-03T09:29:22.593Z</time></trkpt><trkpt lat="46.0326633" lon="13.5298117"><ele>193.20000000000002</ele><time>2026-05-03T09:29:23.594Z</time></trkpt><trkpt lat="46.0327483" lon="13.5298667"><ele>196.0</ele><time>2026-05-03T09:29:24.594Z</time></trkpt><trkpt lat="46.032815" lon="13.5299367"><ele>195.99999999999997</ele><time>2026-05-03T09:29:25.594Z</time></trkpt><trkpt lat="46.03287" lon="13.530015"><ele>196.0</ele><time>2026-05-03T09:29:26.594Z</time></trkpt><trkpt lat="46.0329167" lon="13.5301083"><ele>196.0</ele><time>2026-05-03T09:29:27.593Z</time></trkpt><trkpt lat="46.032935" lon="13.530225"><ele>196.0</ele><time>2026-05-03T09:29:28.593Z</time></trkpt><trkpt lat="46.0329617" lon="13.5303467"><ele>195.99999999999997</ele><time>2026-05-03T09:29:29.595Z</time></trkpt><trkpt lat="46.0329917" lon="13.5304733"><ele>196.0</ele><time>2026-05-03T09:29:30.594Z</time></trkpt><trkpt lat="46.033025" lon="13.5305833"><ele>195.0</ele><time>2026-05-03T09:29:31.593Z</time></trkpt><trkpt lat="46.0330633" lon="13.5306733"><ele>194.0</ele><time>2026-05-03T09:29:32.595Z</time></trkpt><trkpt lat="46.0331267" lon="13.53075"><ele>193.0</ele><time>2026-05-03T09:29:33.595Z</time></trkpt><trkpt lat="46.0332133" lon="13.5308217"><ele>192.0</ele><time>2026-05-03T09:29:34.594Z</time></trkpt><trkpt lat="46.0333017" lon="13.5309167"><ele>191.0</ele><time>2026-05-03T09:29:35.595Z</time></trkpt><trkpt lat="46.0333983" lon="13.5310017"><ele>194.0</ele><time>2026-05-03T09:29:36.595Z</time></trkpt><trkpt lat="46.03349" lon="13.5310817"><ele>197.0</ele><time>2026-05-03T09:29:37.597Z</time></trkpt><trkpt lat="46.03358" lon="13.5311617"><ele>200.0</ele><time>2026-05-03T09:29:38.596Z</time></trkpt><trkpt lat="46.0336583" lon="13.531255"><ele>203.0</ele><time>2026-05-03T09:29:39.594Z</time></trkpt><trkpt lat="46.033735" lon="13.5313433"><ele>206.0</ele><time>2026-05-03T09:29:40.596Z</time></trkpt><trkpt lat="46.03379" lon="13.5314633"><ele>206.0</ele><time>2026-05-03T09:29:41.593Z</time></trkpt><trkpt lat="46.0338233" lon="13.53161"><ele>206.0</ele><time>2026-05-03T09:29:42.596Z</time></trkpt><trkpt lat="46.0338517" lon="13.5317683"><ele>206.0</ele><time>2026-05-03T09:29:43.598Z</time></trkpt><trkpt lat="46.0338967" lon="13.5319067"><ele>206.0</ele><time>2026-05-03T09:29:44.595Z</time></trkpt><trkpt lat="46.033955" lon="13.53203"><ele>206.0</ele><time>2026-05-03T09:29:45.595Z</time></trkpt><trkpt lat="46.03401" lon="13.5321383"><ele>209.50000000000003</ele><time>2026-05-03T09:29:46.593Z</time></trkpt><trkpt lat="46.0340567" lon="13.532235"><ele>213.0</ele><time>2026-05-03T09:29:47.596Z</time></trkpt><trkpt lat="46.0340917" lon="13.5323267"><ele>216.5</ele><time>2026-05-03T09:29:48.595Z</time></trkpt><trkpt lat="46.03409" lon="13.5324217"><ele>220.0</ele><time>2026-05-03T09:29:49.594Z</time></trkpt><trkpt lat="46.0340233" lon="13.53253"><ele>223.50000000000003</ele><time>2026-05-03T09:29:51.593Z</time></trkpt><trkpt lat="46.033905" lon="13.5325067"><ele>227.0</ele><time>2026-05-03T09:29:53.593Z</time></trkpt><trkpt lat="46.03384" lon="13.532455"><ele>227.0</ele><time>2026-05-03T09:29:54.593Z</time></trkpt><trkpt lat="46.0337667" lon="13.5324017"><ele>227.0</ele><time>2026-05-03T09:29:55.595Z</time></trkpt><trkpt lat="46.0336717" lon="13.5323117"><ele>227.0</ele><time>2026-05-03T09:29:56.596Z</time></trkpt><trkpt lat="46.03354" lon="13.5322333"><ele>227.0</ele><time>2026-05-03T09:29:57.594Z</time></trkpt><trkpt lat="46.0333983" lon="13.53216"><ele>227.25</ele><time>2026-05-03T09:29:58.593Z</time></trkpt><trkpt lat="46.033265" lon="13.53209"><ele>227.5</ele><time>2026-05-03T09:29:59.593Z</time></trkpt><trkpt lat="46.0331283" lon="13.5320083"><ele>227.75</ele><time>2026-05-03T09:30:00.593Z</time></trkpt><trkpt lat="46.0329917" lon="13.531945"><ele>228.0</ele><time>2026-05-03T09:30:01.594Z</time></trkpt><trkpt lat="46.03288" lon="13.5318833"><ele>225.0</ele><time>2026-05-03T09:30:02.595Z</time></trkpt><trkpt lat="46.0327833" lon="13.5318267"><ele>222.0</ele><time>2026-05-03T09:30:03.593Z</time></trkpt><trkpt lat="46.0327033" lon="13.5317883"><ele>219.0</ele><time>2026-05-03T09:30:04.593Z</time></trkpt><trkpt lat="46.032645" lon="13.531745"><ele>216.0</ele><time>2026-05-03T09:30:05.593Z</time></trkpt><trkpt lat="46.0325633" lon="13.531735"><ele>213.0</ele><time>2026-05-03T09:30:07.595Z</time></trkpt><trkpt lat="46.0325717" lon="13.5318467"><ele>210.0</ele><time>2026-05-03T09:30:10.594Z</time></trkpt><trkpt lat="46.03264" lon="13.531875"><ele>210.0</ele><time>2026-05-03T09:30:11.593Z</time></trkpt><trkpt lat="46.0327283" lon="13.5319117"><ele>210.0</ele><time>2026-05-03T09:30:12.593Z</time></trkpt><trkpt lat="46.0327983" lon="13.531995"><ele>210.0</ele><time>2026-05-03T09:30:13.594Z</time></trkpt><trkpt lat="46.032885" lon="13.5320883"><ele>210.0</ele><time>2026-05-03T09:30:14.595Z</time></trkpt><trkpt lat="46.03296" lon="13.5322233"><ele>210.0</ele><time>2026-05-03T09:30:15.595Z</time></trkpt><trkpt lat="46.0330483" lon="13.532355"><ele>214.25</ele><time>2026-05-03T09:30:16.594Z</time></trkpt><trkpt lat="46.0331383" lon="13.5324933"><ele>218.5</ele><time>2026-05-03T09:30:17.594Z</time></trkpt><trkpt lat="46.0332383" lon="13.5326183"><ele>222.75</ele><time>2026-05-03T09:30:18.593Z</time></trkpt><trkpt lat="46.0333267" lon="13.5327467"><ele>227.0</ele><time>2026-05-03T09:30:19.595Z</time></trkpt><trkpt lat="46.033415" lon="13.53289"><ele>232.5</ele><time>2026-05-03T09:30:20.597Z</time></trkpt><trkpt lat="46.0334967" lon="13.5330383"><ele>238.0</ele><time>2026-05-03T09:30:21.595Z</time></trkpt><trkpt lat="46.03357" lon="13.5331917"><ele>243.5</ele><time>2026-05-03T09:30:22.596Z</time></trkpt><trkpt lat="46.0336517" lon="13.5333417"><ele>249.0</ele><time>2026-05-03T09:30:23.595Z</time></trkpt><trkpt lat="46.0337283" lon="13.5334983"><ele>249.0</ele><time>2026-05-03T09:30:24.594Z</time></trkpt><trkpt lat="46.0338017" lon="13.5336617"><ele>249.0</ele><time>2026-05-03T09:30:25.594Z</time></trkpt><trkpt lat="46.0338683" lon="13.5338333"><ele>249.0</ele><time>2026-05-03T09:30:26.595Z</time></trkpt><trkpt lat="46.0339333" lon="13.53401"><ele>249.0</ele><time>2026-05-03T09:30:27.593Z</time></trkpt><trkpt lat="46.033995" lon="13.5341867"><ele>249.75</ele><time>2026-05-03T09:30:28.593Z</time></trkpt><trkpt lat="46.0340717" lon="13.534355"><ele>250.5</ele><time>2026-05-03T09:30:29.593Z</time></trkpt><trkpt lat="46.0341583" lon="13.5345167"><ele>251.25</ele><time>2026-05-03T09:30:30.594Z</time></trkpt><trkpt lat="46.0342483" lon="13.5346717"><ele>252.0</ele><time>2026-05-03T09:30:31.594Z</time></trkpt><trkpt lat="46.0343417" lon="13.5348117"><ele>258.0</ele><time>2026-05-03T09:30:32.594Z</time></trkpt><trkpt lat="46.0344533" lon="13.5349283"><ele>264.0</ele><time>2026-05-03T09:30:33.593Z</time></trkpt><trkpt lat="46.0345633" lon="13.5350333"><ele>270.0</ele><time>2026-05-03T09:30:34.595Z</time></trkpt><trkpt lat="46.0346733" lon="13.535145"><ele>276.0</ele><time>2026-05-03T09:30:35.593Z</time></trkpt><trkpt lat="46.0347733" lon="13.5352733"><ele>276.0</ele><time>2026-05-03T09:30:36.594Z</time></trkpt><trkpt lat="46.034875" lon="13.5353817"><ele>276.0</ele><time>2026-05-03T09:30:37.594Z</time></trkpt><trkpt lat="46.0349783" lon="13.5354483"><ele>276.0</ele><time>2026-05-03T09:30:38.594Z</time></trkpt><trkpt lat="46.0350683" lon="13.5355183"><ele>276.0</ele><time>2026-05-03T09:30:39.593Z</time></trkpt><trkpt lat="46.035135" lon="13.5356217"><ele>276.0</ele><time>2026-05-03T09:30:40.594Z</time></trkpt><trkpt lat="46.03518" lon="13.5357483"><ele>277.5</ele><time>2026-05-03T09:30:41.594Z</time></trkpt><trkpt lat="46.0352233" lon="13.5358967"><ele>279.0</ele><time>2026-05-03T09:30:42.593Z</time></trkpt><trkpt lat="46.035275" lon="13.5360583"><ele>280.5</ele><time>2026-05-03T09:30:43.594Z</time></trkpt><trkpt lat="46.035335" lon="13.5362183"><ele>282.0</ele><time>2026-05-03T09:30:44.594Z</time></trkpt><trkpt lat="46.0354017" lon="13.5363583"><ele>287.2</ele><time>2026-05-03T09:30:45.594Z</time></trkpt><trkpt lat="46.0354717" lon="13.5364833"><ele>292.4</ele><time>2026-05-03T09:30:46.594Z</time></trkpt><trkpt lat="46.0355367" lon="13.5365933"><ele>297.6</ele><time>2026-05-03T09:30:47.593Z</time></trkpt><trkpt lat="46.03559" lon="13.5367033"><ele>302.8</ele><time>2026-05-03T09:30:48.593Z</time></trkpt><trkpt lat="46.035605" lon="13.536835"><ele>308.0</ele><time>2026-05-03T09:30:49.595Z</time></trkpt><trkpt lat="46.0356017" lon="13.5369867"><ele>309.4</ele><time>2026-05-03T09:30:50.595Z</time></trkpt><trkpt lat="46.0356217" lon="13.5371433"><ele>310.8</ele><time>2026-05-03T09:30:51.596Z</time></trkpt><trkpt lat="46.0356567" lon="13.5373067"><ele>312.2</ele><time>2026-05-03T09:30:52.597Z</time></trkpt><trkpt lat="46.0356833" lon="13.537465"><ele>313.6</ele><time>2026-05-03T09:30:53.593Z</time></trkpt><trkpt lat="46.0356817" lon="13.5376117"><ele>315.0</ele><time>2026-05-03T09:30:54.593Z</time></trkpt><trkpt lat="46.0356883" lon="13.537745"><ele>315.0</ele><time>2026-05-03T09:30:55.594Z</time></trkpt><trkpt lat="46.0356733" lon="13.53788"><ele>315.0</ele><time>2026-05-03T09:30:56.595Z</time></trkpt><trkpt lat="46.0356217" lon="13.5380133"><ele>315.0</ele><time>2026-05-03T09:30:57.593Z</time></trkpt><trkpt lat="46.0355733" lon="13.5381683"><ele>315.0</ele><time>2026-05-03T09:30:58.594Z</time></trkpt><trkpt lat="46.0355783" lon="13.53833"><ele>315.0</ele><time>2026-05-03T09:30:59.595Z</time></trkpt><trkpt lat="46.0355783" lon="13.538505"><ele>315.0</ele><time>2026-05-03T09:31:00.595Z</time></trkpt><trkpt lat="46.03556" lon="13.5386867"><ele>315.0</ele><time>2026-05-03T09:31:01.595Z</time></trkpt><trkpt lat="46.035525" lon="13.5388733"><ele>315.0</ele><time>2026-05-03T09:31:02.595Z</time></trkpt><trkpt lat="46.035485" lon="13.53906"><ele>315.0</ele><time>2026-05-03T09:31:03.595Z</time></trkpt><trkpt lat="46.035455" lon="13.539245"><ele>312.5</ele><time>2026-05-03T09:31:04.594Z</time></trkpt><trkpt lat="46.0354183" lon="13.5394383"><ele>310.0</ele><time>2026-05-03T09:31:05.595Z</time></trkpt><trkpt lat="46.0353917" lon="13.539635"><ele>307.5</ele><time>2026-05-03T09:31:06.593Z</time></trkpt><trkpt lat="46.035345" lon="13.5398333"><ele>305.0</ele><time>2026-05-03T09:31:07.594Z</time></trkpt><trkpt lat="46.0353183" lon="13.5400233"><ele>305.0</ele><time>2026-05-03T09:31:08.594Z</time></trkpt><trkpt lat="46.0353083" lon="13.5401917"><ele>305.0</ele><time>2026-05-03T09:31:09.593Z</time></trkpt><trkpt lat="46.0352783" lon="13.54035"><ele>305.0</ele><time>2026-05-03T09:31:10.594Z</time></trkpt><trkpt lat="46.0352367" lon="13.5405133"><ele>305.0</ele><time>2026-05-03T09:31:11.595Z</time></trkpt><trkpt lat="46.0352133" lon="13.54069"><ele>305.0</ele><time>2026-05-03T09:31:12.595Z</time></trkpt><trkpt lat="46.0352167" lon="13.540875"><ele>305.0</ele><time>2026-05-03T09:31:13.595Z</time></trkpt><trkpt lat="46.0352317" lon="13.541065"><ele>305.0</ele><time>2026-05-03T09:31:14.595Z</time></trkpt><trkpt lat="46.0352483" lon="13.5412583"><ele>305.0</ele><time>2026-05-03T09:31:15.595Z</time></trkpt><trkpt lat="46.0352583" lon="13.5414567"><ele>305.5</ele><time>2026-05-03T09:31:16.594Z</time></trkpt><trkpt lat="46.03529" lon="13.5416417"><ele>306.0</ele><time>2026-05-03T09:31:17.594Z</time></trkpt><trkpt lat="46.0353383" lon="13.541815"><ele>306.5</ele><time>2026-05-03T09:31:18.593Z</time></trkpt><trkpt lat="46.0353867" lon="13.5419817"><ele>307.0</ele><time>2026-05-03T09:31:19.593Z</time></trkpt><trkpt lat="46.0354417" lon="13.54214"><ele>307.25</ele><time>2026-05-03T09:31:20.596Z</time></trkpt><trkpt lat="46.0355017" lon="13.5422867"><ele>307.5</ele><time>2026-05-03T09:31:21.594Z</time></trkpt><trkpt lat="46.0355667" lon="13.5424283"><ele>307.75</ele><time>2026-05-03T09:31:22.594Z</time></trkpt><trkpt lat="46.0356267" lon="13.5425633"><ele>308.0</ele><time>2026-05-03T09:31:23.593Z</time></trkpt><trkpt lat="46.035665" lon="13.5427017"><ele>308.0</ele><time>2026-05-03T09:31:24.593Z</time></trkpt><trkpt lat="46.0356867" lon="13.5428483"><ele>308.0</ele><time>2026-05-03T09:31:25.593Z</time></trkpt><trkpt lat="46.0357033" lon="13.543005"><ele>308.0</ele><time>2026-05-03T09:31:26.596Z</time></trkpt><trkpt lat="46.0357417" lon="13.5431533"><ele>308.0</ele><time>2026-05-03T09:31:27.594Z</time></trkpt><trkpt lat="46.0357983" lon="13.5432817"><ele>308.0</ele><time>2026-05-03T09:31:28.593Z</time></trkpt><trkpt lat="46.03588" lon="13.5433717"><ele>311.4</ele><time>2026-05-03T09:31:29.595Z</time></trkpt><trkpt lat="46.0359517" lon="13.54346"><ele>314.8</ele><time>2026-05-03T09:31:30.595Z</time></trkpt><trkpt lat="46.03604" lon="13.5434917"><ele>318.2</ele><time>2026-05-03T09:31:31.595Z</time></trkpt><trkpt lat="46.0361167" lon="13.5435383"><ele>321.6</ele><time>2026-05-03T09:31:32.595Z</time></trkpt><trkpt lat="46.03621" lon="13.5435567"><ele>325.0</ele><time>2026-05-03T09:31:33.594Z</time></trkpt><trkpt lat="46.03631" lon="13.5435433"><ele>325.0</ele><time>2026-05-03T09:31:34.593Z</time></trkpt><trkpt lat="46.0364133" lon="13.543505"><ele>325.0</ele><time>2026-05-03T09:31:35.594Z</time></trkpt><trkpt lat="46.036515" lon="13.54345"><ele>325.0</ele><time>2026-05-03T09:31:36.594Z</time></trkpt><trkpt lat="46.0366167" lon="13.5434"><ele>325.0</ele><time>2026-05-03T09:31:37.594Z</time></trkpt><trkpt lat="46.0367133" lon="13.5433567"><ele>325.0</ele><time>2026-05-03T09:31:38.595Z</time></trkpt><trkpt lat="46.0367883" lon="13.5432917"><ele>326.8333333333333</ele><time>2026-05-03T09:31:39.594Z</time></trkpt><trkpt lat="46.0368483" lon="13.5432233"><ele>328.66666666666663</ele><time>2026-05-03T09:31:40.594Z</time></trkpt><trkpt lat="46.03689" lon="13.5431517"><ele>330.5</ele><time>2026-05-03T09:31:41.595Z</time></trkpt><trkpt lat="46.0369067" lon="13.5430217"><ele>332.3333333333333</ele><time>2026-05-03T09:31:43.594Z</time></trkpt><trkpt lat="46.0368417" lon="13.5428933"><ele>334.1666666666667</ele><time>2026-05-03T09:31:45.594Z</time></trkpt><trkpt lat="46.0368117" lon="13.54276"><ele>336.0</ele><time>2026-05-03T09:31:47.595Z</time></trkpt><trkpt lat="46.0368533" lon="13.5426783"><ele>336.0</ele><time>2026-05-03T09:31:49.596Z</time></trkpt><trkpt lat="46.03694" lon="13.5427967"><ele>336.0</ele><time>2026-05-03T09:31:51.594Z</time></trkpt><trkpt lat="46.0369683" lon="13.542915"><ele>336.0</ele><time>2026-05-03T09:31:52.593Z</time></trkpt><trkpt lat="46.03701" lon="13.5430167"><ele>336.0</ele><time>2026-05-03T09:31:53.593Z</time></trkpt><trkpt lat="46.0370517" lon="13.5431083"><ele>336.0</ele><time>2026-05-03T09:31:54.593Z</time></trkpt><trkpt lat="46.0371367" lon="13.5431867"><ele>336.0</ele><time>2026-05-03T09:31:56.594Z</time></trkpt><trkpt lat="46.03719" lon="13.5431033"><ele>336.0</ele><time>2026-05-03T09:31:58.594Z</time></trkpt><trkpt lat="46.0371983" lon="13.5429433"><ele>336.0</ele><time>2026-05-03T09:32:00.595Z</time></trkpt><trkpt lat="46.037265" lon="13.5428383"><ele>336.0</ele><time>2026-05-03T09:32:02.595Z</time></trkpt><trkpt lat="46.0373783" lon="13.54285"><ele>336.0</ele><time>2026-05-03T09:32:04.595Z</time></trkpt><trkpt lat="46.0374217" lon="13.54293"><ele>336.8</ele><time>2026-05-03T09:32:05.595Z</time></trkpt><trkpt lat="46.037445" lon="13.543045"><ele>337.6</ele><time>2026-05-03T09:32:06.595Z</time></trkpt><trkpt lat="46.0374667" lon="13.54317"><ele>338.4</ele><time>2026-05-03T09:32:07.594Z</time></trkpt><trkpt lat="46.0375017" lon="13.5432867"><ele>339.2</ele><time>2026-05-03T09:32:08.595Z</time></trkpt><trkpt lat="46.03753" lon="13.543425"><ele>340.0</ele><time>2026-05-03T09:32:09.596Z</time></trkpt><trkpt lat="46.0375733" lon="13.5435567"><ele>343.4</ele><time>2026-05-03T09:32:10.594Z</time></trkpt><trkpt lat="46.03762" lon="13.54368"><ele>346.8</ele><time>2026-05-03T09:32:11.595Z</time></trkpt><trkpt lat="46.037695" lon="13.5437817"><ele>350.20000000000005</ele><time>2026-05-03T09:32:12.595Z</time></trkpt><trkpt lat="46.0377833" lon="13.5438717"><ele>353.6</ele><time>2026-05-03T09:32:13.596Z</time></trkpt><trkpt lat="46.0378483" lon="13.5439867"><ele>357.0</ele><time>2026-05-03T09:32:14.596Z</time></trkpt><trkpt lat="46.0378833" lon="13.5441233"><ele>358.0</ele><time>2026-05-03T09:32:15.594Z</time></trkpt><trkpt lat="46.0378867" lon="13.544265"><ele>359.0</ele><time>2026-05-03T09:32:16.594Z</time></trkpt><trkpt lat="46.0378917" lon="13.5443983"><ele>360.0</ele><time>2026-05-03T09:32:17.595Z</time></trkpt><trkpt lat="46.037885" lon="13.544525"><ele>361.0</ele><time>2026-05-03T09:32:18.595Z</time></trkpt><trkpt lat="46.0378717" lon="13.54465"><ele>362.0</ele><time>2026-05-03T09:32:19.594Z</time></trkpt><trkpt lat="46.0378617" lon="13.5447767"><ele>362.8</ele><time>2026-05-03T09:32:20.594Z</time></trkpt><trkpt lat="46.0378367" lon="13.5449117"><ele>363.6</ele><time>2026-05-03T09:32:21.595Z</time></trkpt><trkpt lat="46.0378083" lon="13.5450533"><ele>364.40000000000003</ele><time>2026-05-03T09:32:22.594Z</time></trkpt><trkpt lat="46.0377733" lon="13.5452067"><ele>365.20000000000005</ele><time>2026-05-03T09:32:23.594Z</time></trkpt><trkpt lat="46.037705" lon="13.54535"><ele>366.0</ele><time>2026-05-03T09:32:24.595Z</time></trkpt><trkpt lat="46.0376317" lon="13.545485"><ele>367.0</ele><time>2026-05-03T09:32:25.595Z</time></trkpt><trkpt lat="46.037555" lon="13.54563"><ele>368.0</ele><time>2026-05-03T09:32:26.594Z</time></trkpt><trkpt lat="46.0375" lon="13.545795"><ele>369.0</ele><time>2026-05-03T09:32:27.596Z</time></trkpt><trkpt lat="46.03746" lon="13.5459767"><ele>370.0</ele><time>2026-05-03T09:32:28.595Z</time></trkpt><trkpt lat="46.0374133" lon="13.5461533"><ele>371.25</ele><time>2026-05-03T09:32:29.595Z</time></trkpt><trkpt lat="46.037385" lon="13.546325"><ele>372.5</ele><time>2026-05-03T09:32:30.595Z</time></trkpt><trkpt lat="46.037355" lon="13.546485"><ele>373.75</ele><time>2026-05-03T09:32:31.595Z</time></trkpt><trkpt lat="46.0373433" lon="13.546645"><ele>375.0</ele><time>2026-05-03T09:32:32.594Z</time></trkpt><trkpt lat="46.0373267" lon="13.5468067"><ele>375.0</ele><time>2026-05-03T09:32:33.594Z</time></trkpt><trkpt lat="46.0373133" lon="13.5469583"><ele>375.0</ele><time>2026-05-03T09:32:34.596Z</time></trkpt><trkpt lat="46.037305" lon="13.5470917"><ele>375.0</ele><time>2026-05-03T09:32:35.594Z</time></trkpt><trkpt lat="46.03731" lon="13.54722"><ele>375.0</ele><time>2026-05-03T09:32:36.595Z</time></trkpt><trkpt lat="46.03734" lon="13.54734"><ele>375.0</ele><time>2026-05-03T09:32:37.595Z</time></trkpt><trkpt lat="46.0374133" lon="13.5474483"><ele>376.5</ele><time>2026-05-03T09:32:38.596Z</time></trkpt><trkpt lat="46.0374933" lon="13.5475633"><ele>378.0</ele><time>2026-05-03T09:32:39.595Z</time></trkpt><trkpt lat="46.0375683" lon="13.5477"><ele>379.5</ele><time>2026-05-03T09:32:40.595Z</time></trkpt><trkpt lat="46.0376417" lon="13.54784"><ele>381.0</ele><time>2026-05-03T09:32:41.596Z</time></trkpt><trkpt lat="46.0377017" lon="13.547985"><ele>383.5</ele><time>2026-05-03T09:32:42.594Z</time></trkpt><trkpt lat="46.0377633" lon="13.5481383"><ele>386.0</ele><time>2026-05-03T09:32:43.595Z</time></trkpt><trkpt lat="46.03781" lon="13.5483017"><ele>388.5</ele><time>2026-05-03T09:32:44.595Z</time></trkpt><trkpt lat="46.0378467" lon="13.5484683"><ele>391.0</ele><time>2026-05-03T09:32:45.594Z</time></trkpt><trkpt lat="46.03788" lon="13.5486283"><ele>391.4</ele><time>2026-05-03T09:32:46.594Z</time></trkpt><trkpt lat="46.0378967" lon="13.54878"><ele>391.8</ele><time>2026-05-03T09:32:47.594Z</time></trkpt><trkpt lat="46.0379167" lon="13.5489183"><ele>392.2</ele><time>2026-05-03T09:32:48.595Z</time></trkpt><trkpt lat="46.0379483" lon="13.5490283"><ele>392.59999999999997</ele><time>2026-05-03T09:32:49.594Z</time></trkpt><trkpt lat="46.038025" lon="13.5491083"><ele>393.0</ele><time>2026-05-03T09:32:50.595Z</time></trkpt><trkpt lat="46.0380767" lon="13.5491883"><ele>393.0</ele><time>2026-05-03T09:32:51.594Z</time></trkpt><trkpt lat="46.0381617" lon="13.5492617"><ele>393.0</ele><time>2026-05-03T09:32:52.596Z</time></trkpt><trkpt lat="46.038265" lon="13.5493117"><ele>393.0</ele><time>2026-05-03T09:32:53.596Z</time></trkpt><trkpt lat="46.0383583" lon="13.5493583"><ele>393.0</ele><time>2026-05-03T09:32:54.594Z</time></trkpt><trkpt lat="46.0384367" lon="13.5494"><ele>393.0</ele><time>2026-05-03T09:32:55.596Z</time></trkpt><trkpt lat="46.038515" lon="13.54944"><ele>393.59999999999997</ele><time>2026-05-03T09:32:56.597Z</time></trkpt><trkpt lat="46.0385917" lon="13.549475"><ele>394.2</ele><time>2026-05-03T09:32:57.595Z</time></trkpt><trkpt lat="46.0386667" lon="13.549525"><ele>394.8</ele><time>2026-05-03T09:32:58.594Z</time></trkpt><trkpt lat="46.0387517" lon="13.549575"><ele>395.4</ele><time>2026-05-03T09:32:59.595Z</time></trkpt><trkpt lat="46.0388233" lon="13.5496617"><ele>396.0</ele><time>2026-05-03T09:33:00.595Z</time></trkpt><trkpt lat="46.0388967" lon="13.54979"><ele>397.4</ele><time>2026-05-03T09:33:01.596Z</time></trkpt><trkpt lat="46.0389667" lon="13.549935"><ele>398.8</ele><time>2026-05-03T09:33:02.594Z</time></trkpt><trkpt lat="46.039025" lon="13.550085"><ele>400.2</ele><time>2026-05-03T09:33:03.593Z</time></trkpt><trkpt lat="46.0390883" lon="13.55021"><ele>401.59999999999997</ele><time>2026-05-03T09:33:04.594Z</time></trkpt><trkpt lat="46.039135" lon="13.550315"><ele>403.0</ele><time>2026-05-03T09:33:05.595Z</time></trkpt><trkpt lat="46.0391867" lon="13.55041"><ele>405.2</ele><time>2026-05-03T09:33:06.594Z</time></trkpt><trkpt lat="46.039235" lon="13.55051"><ele>407.4</ele><time>2026-05-03T09:33:07.595Z</time></trkpt><trkpt lat="46.0392833" lon="13.5506217"><ele>409.59999999999997</ele><time>2026-05-03T09:33:08.594Z</time></trkpt><trkpt lat="46.0393267" lon="13.5507467"><ele>411.79999999999995</ele><time>2026-05-03T09:33:09.595Z</time></trkpt><trkpt lat="46.0393467" lon="13.55089"><ele>414.0</ele><time>2026-05-03T09:33:10.597Z</time></trkpt><trkpt lat="46.0393833" lon="13.5510317"><ele>414.0</ele><time>2026-05-03T09:33:11.595Z</time></trkpt><trkpt lat="46.0394233" lon="13.5511767"><ele>414.0</ele><time>2026-05-03T09:33:12.594Z</time></trkpt><trkpt lat="46.0394467" lon="13.5513283"><ele>414.0</ele><time>2026-05-03T09:33:13.594Z</time></trkpt><trkpt lat="46.0394633" lon="13.5514717"><ele>414.0</ele><time>2026-05-03T09:33:14.595Z</time></trkpt><trkpt lat="46.0394533" lon="13.5516117"><ele>414.0</ele><time>2026-05-03T09:33:15.594Z</time></trkpt><trkpt lat="46.0394483" lon="13.5517567"><ele>414.1666666666667</ele><time>2026-05-03T09:33:16.595Z</time></trkpt><trkpt lat="46.039425" lon="13.5518983"><ele>414.33333333333337</ele><time>2026-05-03T09:33:17.597Z</time></trkpt><trkpt lat="46.0393767" lon="13.5520267"><ele>414.5</ele><time>2026-05-03T09:33:18.595Z</time></trkpt><trkpt lat="46.0393633" lon="13.55214"><ele>414.6666666666667</ele><time>2026-05-03T09:33:19.594Z</time></trkpt><trkpt lat="46.039385" lon="13.5522383"><ele>414.83333333333337</ele><time>2026-05-03T09:33:20.594Z</time></trkpt><trkpt lat="46.039425" lon="13.5523333"><ele>415.0</ele><time>2026-05-03T09:33:21.594Z</time></trkpt><trkpt lat="46.0394733" lon="13.5524417"><ele>415.25</ele><time>2026-05-03T09:33:22.595Z</time></trkpt><trkpt lat="46.0395433" lon="13.55256"><ele>415.5</ele><time>2026-05-03T09:33:23.595Z</time></trkpt><trkpt lat="46.039615" lon="13.5526967"><ele>415.75</ele><time>2026-05-03T09:33:24.594Z</time></trkpt><trkpt lat="46.039685" lon="13.5528317"><ele>416.0</ele><time>2026-05-03T09:33:25.594Z</time></trkpt><trkpt lat="46.0397433" lon="13.552965"><ele>416.0</ele><time>2026-05-03T09:33:26.595Z</time></trkpt><trkpt lat="46.0398033" lon="13.553095"><ele>416.0</ele><time>2026-05-03T09:33:27.594Z</time></trkpt><trkpt lat="46.039865" lon="13.55322"><ele>416.0</ele><time>2026-05-03T09:33:28.594Z</time></trkpt><trkpt lat="46.039935" lon="13.5533183"><ele>416.0</ele><time>2026-05-03T09:33:29.595Z</time></trkpt><trkpt lat="46.040015" lon="13.55339"><ele>416.0</ele><time>2026-05-03T09:33:30.594Z</time></trkpt><trkpt lat="46.0400767" lon="13.55348"><ele>416.0</ele><time>2026-05-03T09:33:31.594Z</time></trkpt><trkpt lat="46.0401267" lon="13.5535933"><ele>416.0</ele><time>2026-05-03T09:33:32.594Z</time></trkpt><trkpt lat="46.0401583" lon="13.55374"><ele>416.0</ele><time>2026-05-03T09:33:33.594Z</time></trkpt><trkpt lat="46.0401933" lon="13.5538883"><ele>416.0</ele><time>2026-05-03T09:33:34.596Z</time></trkpt><trkpt lat="46.0402333" lon="13.5540367"><ele>416.0</ele><time>2026-05-03T09:33:35.594Z</time></trkpt><trkpt lat="46.040275" lon="13.5541833"><ele>416.0</ele><time>2026-05-03T09:33:36.594Z</time></trkpt><trkpt lat="46.0403133" lon="13.5543433"><ele>416.0</ele><time>2026-05-03T09:33:37.594Z</time></trkpt><trkpt lat="46.0403383" lon="13.554525"><ele>416.0</ele><time>2026-05-03T09:33:38.595Z</time></trkpt><trkpt lat="46.0403717" lon="13.5547083"><ele>416.0</ele><time>2026-05-03T09:33:39.595Z</time></trkpt><trkpt lat="46.0404167" lon="13.5548817"><ele>413.0</ele><time>2026-05-03T09:33:40.597Z</time></trkpt><trkpt lat="46.040445" lon="13.5550483"><ele>410.0</ele><time>2026-05-03T09:33:41.594Z</time></trkpt><trkpt lat="46.0404783" lon="13.5551967"><ele>407.0</ele><time>2026-05-03T09:33:42.593Z</time></trkpt><trkpt lat="46.0405233" lon="13.5553317"><ele>404.0</ele><time>2026-05-03T09:33:43.594Z</time></trkpt><trkpt lat="46.04057" lon="13.5554483"><ele>401.0</ele><time>2026-05-03T09:33:44.595Z</time></trkpt><trkpt lat="46.0406233" lon="13.5555517"><ele>399.8</ele><time>2026-05-03T09:33:45.594Z</time></trkpt><trkpt lat="46.0407017" lon="13.5556117"><ele>398.6</ele><time>2026-05-03T09:33:46.595Z</time></trkpt><trkpt lat="46.0408033" lon="13.5556367"><ele>397.4</ele><time>2026-05-03T09:33:47.596Z</time></trkpt><trkpt lat="46.0409083" lon="13.5556733"><ele>396.2</ele><time>2026-05-03T09:33:48.595Z</time></trkpt><trkpt lat="46.0410083" lon="13.5557417"><ele>395.0</ele><time>2026-05-03T09:33:49.594Z</time></trkpt><trkpt lat="46.0410933" lon="13.55587"><ele>400.2</ele><time>2026-05-03T09:33:50.595Z</time></trkpt><trkpt lat="46.0411867" lon="13.555975"><ele>405.4</ele><time>2026-05-03T09:33:51.594Z</time></trkpt><trkpt lat="46.041275" lon="13.55607"><ele>410.6</ele><time>2026-05-03T09:33:52.595Z</time></trkpt><trkpt lat="46.0413417" lon="13.5561667"><ele>415.8</ele><time>2026-05-03T09:33:53.595Z</time></trkpt><trkpt lat="46.04138" lon="13.556255"><ele>421.0</ele><time>2026-05-03T09:33:54.596Z</time></trkpt><trkpt lat="46.0414067" lon="13.5563867"><ele>422.20000000000005</ele><time>2026-05-03T09:33:56.594Z</time></trkpt><trkpt lat="46.0413167" lon="13.5564467"><ele>423.40000000000003</ele><time>2026-05-03T09:33:58.595Z</time></trkpt><trkpt lat="46.0412033" lon="13.556445"><ele>424.6</ele><time>2026-05-03T09:34:00.595Z</time></trkpt><trkpt lat="46.0411267" lon="13.556385"><ele>425.8</ele><time>2026-05-03T09:34:01.597Z</time></trkpt><trkpt lat="46.0410467" lon="13.556295"><ele>427.0</ele><time>2026-05-03T09:34:02.594Z</time></trkpt><trkpt lat="46.040955" lon="13.5562133"><ele>427.0</ele><time>2026-05-03T09:34:03.595Z</time></trkpt><trkpt lat="46.0408833" lon="13.5561717"><ele>427.00000000000006</ele><time>2026-05-03T09:34:04.594Z</time></trkpt><trkpt lat="46.04082" lon="13.5561833"><ele>427.00000000000006</ele><time>2026-05-03T09:34:05.594Z</time></trkpt><trkpt lat="46.0407667" lon="13.5563217"><ele>427.0</ele><time>2026-05-03T09:34:07.595Z</time></trkpt><trkpt lat="46.0408167" lon="13.5565117"><ele>427.0</ele><time>2026-05-03T09:34:09.594Z</time></trkpt><trkpt lat="46.0408717" lon="13.55663"><ele>427.0</ele><time>2026-05-03T09:34:10.595Z</time></trkpt><trkpt lat="46.0409417" lon="13.5567817"><ele>427.0</ele><time>2026-05-03T09:34:11.596Z</time></trkpt><trkpt lat="46.04102" lon="13.5569317"><ele>427.0</ele><time>2026-05-03T09:34:12.594Z</time></trkpt><trkpt lat="46.0411017" lon="13.5570733"><ele>427.0</ele><time>2026-05-03T09:34:13.596Z</time></trkpt><trkpt lat="46.0411717" lon="13.5572117"><ele>427.0</ele><time>2026-05-03T09:34:14.596Z</time></trkpt><trkpt lat="46.0412317" lon="13.557355"><ele>427.0</ele><time>2026-05-03T09:34:15.595Z</time></trkpt><trkpt lat="46.0412733" lon="13.5575133"><ele>427.0</ele><time>2026-05-03T09:34:16.594Z</time></trkpt><trkpt lat="46.0412883" lon="13.55768"><ele>427.0</ele><time>2026-05-03T09:34:17.596Z</time></trkpt><trkpt lat="46.0412817" lon="13.55785"><ele>426.20000000000005</ele><time>2026-05-03T09:34:18.594Z</time></trkpt><trkpt lat="46.0413133" lon="13.5579883"><ele>425.40000000000003</ele><time>2026-05-03T09:34:19.594Z</time></trkpt><trkpt lat="46.04137" lon="13.5581"><ele>424.6</ele><time>2026-05-03T09:34:20.596Z</time></trkpt><trkpt lat="46.041425" lon="13.5582017"><ele>423.79999999999995</ele><time>2026-05-03T09:34:21.594Z</time></trkpt><trkpt lat="46.041465" lon="13.5583083"><ele>423.0</ele><time>2026-05-03T09:34:22.594Z</time></trkpt><trkpt lat="46.0414933" lon="13.5584233"><ele>423.0</ele><time>2026-05-03T09:34:23.594Z</time></trkpt><trkpt lat="46.04153" lon="13.5585333"><ele>423.0</ele><time>2026-05-03T09:34:24.595Z</time></trkpt><trkpt lat="46.04155" lon="13.5586417"><ele>423.0</ele><time>2026-05-03T09:34:25.594Z</time></trkpt><trkpt lat="46.0415167" lon="13.55882"><ele>423.0</ele><time>2026-05-03T09:34:26.596Z</time></trkpt><trkpt lat="46.0415067" lon="13.5589917"><ele>423.0</ele><time>2026-05-03T09:34:27.595Z</time></trkpt><trkpt lat="46.0415317" lon="13.5591433"><ele>421.79999999999995</ele><time>2026-05-03T09:34:28.595Z</time></trkpt><trkpt lat="46.0415717" lon="13.5592783"><ele>420.6</ele><time>2026-05-03T09:34:29.595Z</time></trkpt><trkpt lat="46.0416267" lon="13.5594033"><ele>419.4</ele><time>2026-05-03T09:34:30.596Z</time></trkpt><trkpt lat="46.041685" lon="13.5595183"><ele>418.20000000000005</ele><time>2026-05-03T09:34:31.595Z</time></trkpt><trkpt lat="46.041735" lon="13.5596283"><ele>417.0</ele><time>2026-05-03T09:34:32.594Z</time></trkpt><trkpt lat="46.04177" lon="13.559755"><ele>424.20000000000005</ele><time>2026-05-03T09:34:33.595Z</time></trkpt><trkpt lat="46.0417883" lon="13.5598933"><ele>431.4</ele><time>2026-05-03T09:34:34.594Z</time></trkpt><trkpt lat="46.0418367" lon="13.5599983"><ele>438.59999999999997</ele><time>2026-05-03T09:34:35.595Z</time></trkpt><trkpt lat="46.0418333" lon="13.5601483"><ele>445.79999999999995</ele><time>2026-05-03T09:34:36.596Z</time></trkpt><trkpt lat="46.0418283" lon="13.5603"><ele>453.0</ele><time>2026-05-03T09:34:37.595Z</time></trkpt><trkpt lat="46.0417817" lon="13.5604683"><ele>455.4</ele><time>2026-05-03T09:34:38.596Z</time></trkpt><trkpt lat="46.04174" lon="13.5606317"><ele>457.79999999999995</ele><time>2026-05-03T09:34:39.594Z</time></trkpt><trkpt lat="46.041685" lon="13.5607867"><ele>460.2</ele><time>2026-05-03T09:34:40.595Z</time></trkpt><trkpt lat="46.0416433" lon="13.5609267"><ele>462.6</ele><time>2026-05-03T09:34:41.595Z</time></trkpt><trkpt lat="46.0416033" lon="13.5610583"><ele>465.0</ele><time>2026-05-03T09:34:42.593Z</time></trkpt><trkpt lat="46.0415517" lon="13.5611933"><ele>458.25</ele><time>2026-05-03T09:34:43.594Z</time></trkpt><trkpt lat="46.041495" lon="13.5613417"><ele>451.5</ele><time>2026-05-03T09:34:44.593Z</time></trkpt><trkpt lat="46.0414433" lon="13.5614967"><ele>444.75</ele><time>2026-05-03T09:34:45.593Z</time></trkpt><trkpt lat="46.0413817" lon="13.56166"><ele>438.0</ele><time>2026-05-03T09:34:46.593Z</time></trkpt><trkpt lat="46.0413283" lon="13.5618233"><ele>438.0</ele><time>2026-05-03T09:34:47.594Z</time></trkpt><trkpt lat="46.0412867" lon="13.5619967"><ele>438.0</ele><time>2026-05-03T09:34:48.595Z</time></trkpt><trkpt lat="46.0412283" lon="13.562165"><ele>438.0</ele><time>2026-05-03T09:34:49.593Z</time></trkpt><trkpt lat="46.0411683" lon="13.5623333"><ele>438.0</ele><time>2026-05-03T09:34:50.593Z</time></trkpt><trkpt lat="46.0410967" lon="13.562505"><ele>441.5</ele><time>2026-05-03T09:34:51.593Z</time></trkpt><trkpt lat="46.0410333" lon="13.562685"><ele>445.0</ele><time>2026-05-03T09:34:52.593Z</time></trkpt><trkpt lat="46.0409817" lon="13.562865"><ele>448.5</ele><time>2026-05-03T09:34:53.594Z</time></trkpt><trkpt lat="46.0409383" lon="13.5630417"><ele>452.0</ele><time>2026-05-03T09:34:54.593Z</time></trkpt><trkpt lat="46.0408767" lon="13.56321"><ele>452.0</ele><time>2026-05-03T09:34:55.593Z</time></trkpt><trkpt lat="46.0408317" lon="13.5633833"><ele>452.0</ele><time>2026-05-03T09:34:56.594Z</time></trkpt><trkpt lat="46.0407883" lon="13.56356"><ele>452.0</ele><time>2026-05-03T09:34:57.596Z</time></trkpt><trkpt lat="46.0407267" lon="13.5637317"><ele>452.0</ele><time>2026-05-03T09:34:58.594Z</time></trkpt><trkpt lat="46.0406617" lon="13.5639"><ele>452.0</ele><time>2026-05-03T09:34:59.594Z</time></trkpt><trkpt lat="46.040585" lon="13.56407"><ele>452.0</ele><time>2026-05-03T09:35:00.593Z</time></trkpt><trkpt lat="46.0404967" lon="13.5642417"><ele>452.0</ele><time>2026-05-03T09:35:01.595Z</time></trkpt><trkpt lat="46.04041" lon="13.56441"><ele>452.0</ele><time>2026-05-03T09:35:02.594Z</time></trkpt><trkpt lat="46.0403283" lon="13.56458"><ele>457.5</ele><time>2026-05-03T09:35:03.594Z</time></trkpt><trkpt lat="46.040245" lon="13.5647533"><ele>463.0</ele><time>2026-05-03T09:35:04.594Z</time></trkpt><trkpt lat="46.0401627" lon="13.5649179"><ele>468.5</ele><time>2026-05-03T09:35:05.595Z</time></trkpt><trkpt lat="46.0400888" lon="13.5650751"><ele>474.0</ele><time>2026-05-03T09:35:06.594Z</time></trkpt><trkpt lat="46.0400166" lon="13.5652226"><ele>475.75</ele><time>2026-05-03T09:35:07.594Z</time></trkpt><trkpt lat="46.0399448" lon="13.5653685"><ele>477.5</ele><time>2026-05-03T09:35:08.596Z</time></trkpt><trkpt lat="46.0398766" lon="13.5655114"><ele>479.25</ele><time>2026-05-03T09:35:09.593Z</time></trkpt><trkpt lat="46.0398256" lon="13.5656642"><ele>481.0</ele><time>2026-05-03T09:35:10.594Z</time></trkpt><trkpt lat="46.0397654" lon="13.5658038"><ele>481.0</ele><time>2026-05-03T09:35:11.593Z</time></trkpt><trkpt lat="46.0396954" lon="13.5659324"><ele>481.0</ele><time>2026-05-03T09:35:12.594Z</time></trkpt><trkpt lat="46.0396132" lon="13.5660259"><ele>481.0</ele><time>2026-05-03T09:35:13.595Z</time></trkpt><trkpt lat="46.0395192" lon="13.56608"><ele>481.0</ele><time>2026-05-03T09:35:14.593Z</time></trkpt><trkpt lat="46.0394158" lon="13.5660998"><ele>481.0</ele><time>2026-05-03T09:35:15.594Z</time></trkpt><trkpt lat="46.039312" lon="13.566114"><ele>481.0</ele><time>2026-05-03T09:35:16.593Z</time></trkpt><trkpt lat="46.0392138" lon="13.5661598"><ele>481.0</ele><time>2026-05-03T09:35:17.594Z</time></trkpt><trkpt lat="46.0391141" lon="13.566208"><ele>481.0</ele><time>2026-05-03T09:35:18.593Z</time></trkpt><trkpt lat="46.0390076" lon="13.5662266"><ele>481.0</ele><time>2026-05-03T09:35:19.596Z</time></trkpt><trkpt lat="46.0388953" lon="13.5662226"><ele>481.0</ele><time>2026-05-03T09:35:20.595Z</time></trkpt><trkpt lat="46.0387854" lon="13.5662082"><ele>481.6</ele><time>2026-05-03T09:35:21.595Z</time></trkpt><trkpt lat="46.0386789" lon="13.5661939"><ele>482.20000000000005</ele><time>2026-05-03T09:35:22.596Z</time></trkpt><trkpt lat="46.0385753" lon="13.5661689"><ele>482.79999999999995</ele><time>2026-05-03T09:35:23.594Z</time></trkpt><trkpt lat="46.0384837" lon="13.5661202"><ele>483.4</ele><time>2026-05-03T09:35:24.595Z</time></trkpt><trkpt lat="46.0384103" lon="13.5660355"><ele>484.0</ele><time>2026-05-03T09:35:25.593Z</time></trkpt><trkpt lat="46.0383515" lon="13.5659205"><ele>484.00000000000006</ele><time>2026-05-03T09:35:26.594Z</time></trkpt><trkpt lat="46.0383039" lon="13.5657962"><ele>484.0</ele><time>2026-05-03T09:35:27.593Z</time></trkpt><trkpt lat="46.0382465" lon="13.5656848"><ele>484.0</ele><time>2026-05-03T09:35:28.594Z</time></trkpt><trkpt lat="46.0381776" lon="13.5656034"><ele>484.0</ele><time>2026-05-03T09:35:29.594Z</time></trkpt><trkpt lat="46.0381127" lon="13.5655404"><ele>484.00000000000006</ele><time>2026-05-03T09:35:30.593Z</time></trkpt><trkpt lat="46.0380549" lon="13.5655031"><ele>484.0</ele><time>2026-05-03T09:35:31.593Z</time></trkpt><trkpt lat="46.0379633" lon="13.5655217"><ele>482.00000000000006</ele><time>2026-05-03T09:35:33.594Z</time></trkpt><trkpt lat="46.0379033" lon="13.5655617"><ele>480.0</ele><time>2026-05-03T09:35:36.595Z</time></trkpt><trkpt lat="46.037955" lon="13.5654917"><ele>478.0</ele><time>2026-05-03T09:36:32.595Z</time></trkpt><trkpt lat="46.03791" lon="13.5655667"><ele>476.0</ele><time>2026-05-03T09:36:48.595Z</time></trkpt><trkpt lat="46.0378583" lon="13.56562"><ele>474.00000000000006</ele><time>2026-05-03T09:37:23.594Z</time></trkpt><trkpt lat="46.03779" lon="13.5657483"><ele>472.0</ele><time>2026-05-03T09:37:25.596Z</time></trkpt><trkpt lat="46.0377333" lon="13.565845"><ele>472.0</ele><time>2026-05-03T09:37:26.595Z</time></trkpt><trkpt lat="46.0376533" lon="13.5659467"><ele>472.00000000000006</ele><time>2026-05-03T09:37:27.593Z</time></trkpt><trkpt lat="46.037565" lon="13.5660317"><ele>472.00000000000006</ele><time>2026-05-03T09:37:28.594Z</time></trkpt><trkpt lat="46.0374817" lon="13.566105"><ele>472.0</ele><time>2026-05-03T09:37:29.595Z</time></trkpt><trkpt lat="46.0374" lon="13.5661667"><ele>472.0</ele><time>2026-05-03T09:37:30.594Z</time></trkpt><trkpt lat="46.0373183" lon="13.5662167"><ele>473.50000000000006</ele><time>2026-05-03T09:37:31.594Z</time></trkpt><trkpt lat="46.0372367" lon="13.5662433"><ele>475.0</ele><time>2026-05-03T09:37:32.595Z</time></trkpt><trkpt lat="46.0371717" lon="13.56626"><ele>476.5</ele><time>2026-05-03T09:37:33.593Z</time></trkpt><trkpt lat="46.0370733" lon="13.566265"><ele>478.0</ele><time>2026-05-03T09:37:35.594Z</time></trkpt><trkpt lat="46.0369767" lon="13.5662717"><ele>479.50000000000006</ele><time>2026-05-03T09:37:37.594Z</time></trkpt><trkpt lat="46.0369117" lon="13.566245"><ele>481.0</ele><time>2026-05-03T09:37:38.595Z</time></trkpt><trkpt lat="46.0368333" lon="13.5662217"><ele>481.0</ele><time>2026-05-03T09:37:39.593Z</time></trkpt><trkpt lat="46.0367433" lon="13.5662033"><ele>481.0</ele><time>2026-05-03T09:37:40.595Z</time></trkpt><trkpt lat="46.0366467" lon="13.5662133"><ele>481.0</ele><time>2026-05-03T09:37:41.596Z</time></trkpt><trkpt lat="46.0365483" lon="13.5662683"><ele>481.0</ele><time>2026-05-03T09:37:42.594Z</time></trkpt><trkpt lat="46.036445" lon="13.5663083"><ele>481.0</ele><time>2026-05-03T09:37:43.594Z</time></trkpt><trkpt lat="46.036355" lon="13.566335"><ele>482.00000000000006</ele><time>2026-05-03T09:37:44.595Z</time></trkpt><trkpt lat="46.03628" lon="13.566355"><ele>483.0</ele><time>2026-05-03T09:37:45.594Z</time></trkpt><trkpt lat="46.0362017" lon="13.5663633"><ele>484.0</ele><time>2026-05-03T09:37:47.594Z</time></trkpt><trkpt lat="46.0361633" lon="13.56646"><ele>485.0</ele><time>2026-05-03T09:37:49.595Z</time></trkpt><trkpt lat="46.0360967" lon="13.56656"><ele>486.00000000000006</ele><time>2026-05-03T09:37:51.594Z</time></trkpt><trkpt lat="46.03602" lon="13.5666717"><ele>487.0</ele><time>2026-05-03T09:37:53.595Z</time></trkpt><trkpt lat="46.0359617" lon="13.5667933"><ele>487.00000000000006</ele><time>2026-05-03T09:37:55.595Z</time></trkpt><trkpt lat="46.0359233" lon="13.56687"><ele>487.0</ele><time>2026-05-03T09:37:57.596Z</time></trkpt><trkpt lat="46.0358533" lon="13.566985"><ele>487.0</ele><time>2026-05-03T09:38:00.595Z</time></trkpt><trkpt lat="46.0357883" lon="13.5670833"><ele>487.0</ele><time>2026-05-03T09:38:02.595Z</time></trkpt><trkpt lat="46.0357183" lon="13.5671433"><ele>487.00000000000006</ele><time>2026-05-03T09:38:04.594Z</time></trkpt><trkpt lat="46.035635" lon="13.5671817"><ele>487.0</ele><time>2026-05-03T09:38:07.594Z</time></trkpt><trkpt lat="46.0355567" lon="13.5672083"><ele>486.8571428571429</ele><time>2026-05-03T09:38:09.595Z</time></trkpt><trkpt lat="46.0354867" lon="13.5672233"><ele>486.71428571428567</ele><time>2026-05-03T09:38:11.594Z</time></trkpt><trkpt lat="46.03542" lon="13.5672483"><ele>486.57142857142856</ele><time>2026-05-03T09:38:13.594Z</time></trkpt><trkpt lat="46.0353567" lon="13.5672917"><ele>486.42857142857144</ele><time>2026-05-03T09:38:15.595Z</time></trkpt><trkpt lat="46.035295" lon="13.567335"><ele>486.28571428571433</ele><time>2026-05-03T09:38:17.595Z</time></trkpt><trkpt lat="46.0352333" lon="13.5674067"><ele>486.1428571428571</ele><time>2026-05-03T09:38:19.595Z</time></trkpt><trkpt lat="46.0351783" lon="13.567495"><ele>486.0</ele><time>2026-05-03T09:38:21.595Z</time></trkpt><trkpt lat="46.0351183" lon="13.56763"><ele>486.0</ele><time>2026-05-03T09:38:23.594Z</time></trkpt><trkpt lat="46.0350817" lon="13.5677167"><ele>486.0</ele><time>2026-05-03T09:38:24.595Z</time></trkpt><trkpt lat="46.0350433" lon="13.5678033"><ele>486.0</ele><time>2026-05-03T09:38:25.595Z</time></trkpt><trkpt lat="46.035005" lon="13.567885"><ele>486.0</ele><time>2026-05-03T09:38:26.595Z</time></trkpt><trkpt lat="46.0349467" lon="13.5680267"><ele>486.0</ele><time>2026-05-03T09:38:28.596Z</time></trkpt><trkpt lat="46.0348917" lon="13.5681517"><ele>486.0</ele><time>2026-05-03T09:38:30.596Z</time></trkpt><trkpt lat="46.034845" lon="13.56828"><ele>483.6</ele><time>2026-05-03T09:38:32.595Z</time></trkpt><trkpt lat="46.0347933" lon="13.568405"><ele>481.20000000000005</ele><time>2026-05-03T09:38:35.594Z</time></trkpt><trkpt lat="46.0347567" lon="13.5685367"><ele>478.79999999999995</ele><time>2026-05-03T09:38:37.596Z</time></trkpt><trkpt lat="46.0347283" lon="13.5686217"><ele>476.4</ele><time>2026-05-03T09:38:38.595Z</time></trkpt><trkpt lat="46.0346767" lon="13.5687783"><ele>474.0</ele><time>2026-05-03T09:38:40.594Z</time></trkpt><trkpt lat="46.0346417" lon="13.5688683"><ele>473.6666666666667</ele><time>2026-05-03T09:38:41.595Z</time></trkpt><trkpt lat="46.0346133" lon="13.5689517"><ele>473.33333333333337</ele><time>2026-05-03T09:38:42.596Z</time></trkpt><trkpt lat="46.0345667" lon="13.5690667"><ele>473.0</ele><time>2026-05-03T09:38:44.596Z</time></trkpt><trkpt lat="46.0345017" lon="13.56914"><ele>472.6666666666667</ele><time>2026-05-03T09:38:46.594Z</time></trkpt><trkpt lat="46.034445" lon="13.5692017"><ele>472.33333333333337</ele><time>2026-05-03T09:38:48.595Z</time></trkpt><trkpt lat="46.0343783" lon="13.5692533"><ele>472.0</ele><time>2026-05-03T09:38:50.596Z</time></trkpt><trkpt lat="46.0342767" lon="13.5692933"><ele>472.00000000000006</ele><time>2026-05-03T09:38:52.594Z</time></trkpt><trkpt lat="46.0341633" lon="13.5693367"><ele>472.0</ele><time>2026-05-03T09:38:54.596Z</time></trkpt><trkpt lat="46.0341" lon="13.5693767"><ele>472.0</ele><time>2026-05-03T09:38:55.595Z</time></trkpt><trkpt lat="46.034035" lon="13.569415"><ele>472.0</ele><time>2026-05-03T09:38:56.596Z</time></trkpt><trkpt lat="46.0339767" lon="13.5694617"><ele>472.00000000000006</ele><time>2026-05-03T09:38:57.595Z</time></trkpt><trkpt lat="46.0339267" lon="13.5695183"><ele>472.0</ele><time>2026-05-03T09:38:58.595Z</time></trkpt><trkpt lat="46.0338433" lon="13.569635"><ele>468.50000000000006</ele><time>2026-05-03T09:39:00.595Z</time></trkpt><trkpt lat="46.0337733" lon="13.5697217"><ele>465.0</ele><time>2026-05-03T09:39:02.596Z</time></trkpt><trkpt lat="46.0337067" lon="13.56978"><ele>461.5</ele><time>2026-05-03T09:39:04.595Z</time></trkpt><trkpt lat="46.0336433" lon="13.569835"><ele>458.0</ele><time>2026-05-03T09:39:06.595Z</time></trkpt><trkpt lat="46.03358" lon="13.56989"><ele>454.50000000000006</ele><time>2026-05-03T09:39:08.596Z</time></trkpt><trkpt lat="46.0335152" lon="13.5699467"><ele>451.0</ele><time>2026-05-03T09:39:10.595Z</time></trkpt><trkpt lat="46.0334379" lon="13.5700089"><ele>451.00000000000006</ele><time>2026-05-03T09:39:13.595Z</time></trkpt><trkpt lat="46.0333918" lon="13.5700961"><ele>451.0</ele><time>2026-05-03T09:39:17.664Z</time></trkpt><trkpt lat="46.0333326" lon="13.570201"><ele>451.0</ele><time>2026-05-03T09:39:20.614Z</time></trkpt><trkpt lat="46.0332772" lon="13.5702665"><ele>451.0</ele><time>2026-05-03T09:39:22.652Z</time></trkpt><trkpt lat="46.0332283" lon="13.5703628"><ele>451.00000000000006</ele><time>2026-05-03T09:39:25.62Z</time></trkpt><trkpt lat="46.0332042" lon="13.5704831"><ele>451.0</ele><time>2026-05-03T09:39:28.678Z</time></trkpt><trkpt lat="46.0331642" lon="13.5706095"><ele>446.83333333333337</ele><time>2026-05-03T09:39:31.681Z</time></trkpt><trkpt lat="46.0331306" lon="13.5706864"><ele>442.6666666666667</ele><time>2026-05-03T09:39:33.685Z</time></trkpt><trkpt lat="46.0330806" lon="13.5707889"><ele>438.5</ele><time>2026-05-03T09:39:36.626Z</time></trkpt><trkpt lat="46.0330369" lon="13.5708858"><ele>434.33333333333337</ele><time>2026-05-03T09:39:39.707Z</time></trkpt><trkpt lat="46.0329864" lon="13.5709917"><ele>430.1666666666667</ele><time>2026-05-03T09:39:42.651Z</time></trkpt><trkpt lat="46.0329336" lon="13.5710726"><ele>426.0</ele><time>2026-05-03T09:39:44.63Z</time></trkpt><trkpt lat="46.0328651" lon="13.5711581"><ele>427.5</ele><time>2026-05-03T09:39:47.666Z</time></trkpt><trkpt lat="46.0328153" lon="13.5712627"><ele>429.0</ele><time>2026-05-03T09:39:50.609Z</time></trkpt><trkpt lat="46.0327737" lon="13.5713327"><ele>430.5</ele><time>2026-05-03T09:39:52.588Z</time></trkpt><trkpt lat="46.0327092" lon="13.5714057"><ele>432.0</ele><time>2026-05-03T09:39:54.595Z</time></trkpt><trkpt lat="46.0326566" lon="13.5714663"><ele>433.5</ele><time>2026-05-03T09:39:56.622Z</time></trkpt><trkpt lat="46.0325905" lon="13.5715362"><ele>435.0</ele><time>2026-05-03T09:39:58.66Z</time></trkpt><trkpt lat="46.0324825" lon="13.571687"><ele>432.0</ele><time>2026-05-03T09:40:00.595Z</time></trkpt><trkpt lat="46.0324028" lon="13.571816"><ele>429.0</ele><time>2026-05-03T09:40:01.594Z</time></trkpt><trkpt lat="46.0323269" lon="13.5719441"><ele>426.0</ele><time>2026-05-03T09:40:02.596Z</time></trkpt><trkpt lat="46.0322481" lon="13.57207"><ele>423.0</ele><time>2026-05-03T09:40:03.594Z</time></trkpt><trkpt lat="46.032166" lon="13.5721953"><ele>423.0</ele><time>2026-05-03T09:40:04.594Z</time></trkpt><trkpt lat="46.0320772" lon="13.572325"><ele>423.0</ele><time>2026-05-03T09:40:05.595Z</time></trkpt><trkpt lat="46.0319797" lon="13.5724564"><ele>423.0</ele><time>2026-05-03T09:40:06.594Z</time></trkpt><trkpt lat="46.031873" lon="13.572584"><ele>423.0</ele><time>2026-05-03T09:40:07.597Z</time></trkpt><trkpt lat="46.0317548" lon="13.5727041"><ele>422.0</ele><time>2026-05-03T09:40:08.595Z</time></trkpt><trkpt lat="46.0316328" lon="13.572811"><ele>421.0</ele><time>2026-05-03T09:40:09.596Z</time></trkpt><trkpt lat="46.0315126" lon="13.5729124"><ele>420.0</ele><time>2026-05-03T09:40:10.595Z</time></trkpt><trkpt lat="46.0314013" lon="13.5730035"><ele>419.0</ele><time>2026-05-03T09:40:11.596Z</time></trkpt><trkpt lat="46.0312971" lon="13.5730878"><ele>419.0</ele><time>2026-05-03T09:40:12.597Z</time></trkpt><trkpt lat="46.0311958" lon="13.5731743"><ele>419.0</ele><time>2026-05-03T09:40:13.597Z</time></trkpt><trkpt lat="46.0311001" lon="13.5732771"><ele>419.0</ele><time>2026-05-03T09:40:14.596Z</time></trkpt><trkpt lat="46.0310167" lon="13.5733991"><ele>419.0</ele><time>2026-05-03T09:40:15.594Z</time></trkpt><trkpt lat="46.0309522" lon="13.5735281"><ele>418.99999999999994</ele><time>2026-05-03T09:40:16.595Z</time></trkpt><trkpt lat="46.0308936" lon="13.5736325"><ele>419.0</ele><time>2026-05-03T09:40:17.596Z</time></trkpt><trkpt lat="46.0308368" lon="13.5736969"><ele>419.0</ele><time>2026-05-03T09:40:18.595Z</time></trkpt><trkpt lat="46.0307743" lon="13.5737202"><ele>419.0</ele><time>2026-05-03T09:40:19.595Z</time></trkpt><trkpt lat="46.0307081" lon="13.5736949"><ele>418.99999999999994</ele><time>2026-05-03T09:40:20.596Z</time></trkpt><trkpt lat="46.0306459" lon="13.5736273"><ele>419.0</ele><time>2026-05-03T09:40:21.595Z</time></trkpt><trkpt lat="46.0305803" lon="13.5735655"><ele>419.4</ele><time>2026-05-03T09:40:22.595Z</time></trkpt><trkpt lat="46.0305104" lon="13.5735378"><ele>419.79999999999995</ele><time>2026-05-03T09:40:23.596Z</time></trkpt><trkpt lat="46.0304355" lon="13.5735371"><ele>420.20000000000005</ele><time>2026-05-03T09:40:24.595Z</time></trkpt><trkpt lat="46.0303559" lon="13.5735676"><ele>420.6</ele><time>2026-05-03T09:40:25.597Z</time></trkpt><trkpt lat="46.0302611" lon="13.5736733"><ele>421.0</ele><time>2026-05-03T09:40:26.597Z</time></trkpt><trkpt lat="46.0301589" lon="13.5738101"><ele>421.0</ele><time>2026-05-03T09:40:27.595Z</time></trkpt><trkpt lat="46.0300558" lon="13.5739467"><ele>421.0</ele><time>2026-05-03T09:40:28.596Z</time></trkpt><trkpt lat="46.0299538" lon="13.5740671"><ele>421.0</ele><time>2026-05-03T09:40:29.595Z</time></trkpt><trkpt lat="46.0298611" lon="13.5741754"><ele>421.0</ele><time>2026-05-03T09:40:30.595Z</time></trkpt><trkpt lat="46.0297761" lon="13.57427"><ele>421.4</ele><time>2026-05-03T09:40:31.595Z</time></trkpt><trkpt lat="46.0296956" lon="13.5743481"><ele>421.8</ele><time>2026-05-03T09:40:32.596Z</time></trkpt><trkpt lat="46.0296208" lon="13.5744121"><ele>422.2</ele><time>2026-05-03T09:40:33.595Z</time></trkpt><trkpt lat="46.0295437" lon="13.574465"><ele>422.59999999999997</ele><time>2026-05-03T09:40:34.595Z</time></trkpt><trkpt lat="46.0294583" lon="13.5745033"><ele>423.0</ele><time>2026-05-03T09:40:35.597Z</time></trkpt><trkpt lat="46.02937" lon="13.5745417"><ele>423.0</ele><time>2026-05-03T09:40:36.596Z</time></trkpt><trkpt lat="46.0292783" lon="13.574585"><ele>423.0</ele><time>2026-05-03T09:40:37.595Z</time></trkpt><trkpt lat="46.0291817" lon="13.5746317"><ele>423.0</ele><time>2026-05-03T09:40:38.596Z</time></trkpt><trkpt lat="46.0290783" lon="13.574665"><ele>423.0</ele><time>2026-05-03T09:40:39.596Z</time></trkpt><trkpt lat="46.0289783" lon="13.5746967"><ele>423.0</ele><time>2026-05-03T09:40:40.595Z</time></trkpt><trkpt lat="46.0288717" lon="13.5747117"><ele>421.75</ele><time>2026-05-03T09:40:41.595Z</time></trkpt><trkpt lat="46.0287567" lon="13.5746783"><ele>420.5</ele><time>2026-05-03T09:40:42.595Z</time></trkpt><trkpt lat="46.0286383" lon="13.5746133"><ele>419.25</ele><time>2026-05-03T09:40:43.595Z</time></trkpt><trkpt lat="46.0285333" lon="13.5745067"><ele>418.0</ele><time>2026-05-03T09:40:44.596Z</time></trkpt><trkpt lat="46.0284183" lon="13.574445"><ele>415.59999999999997</ele><time>2026-05-03T09:40:45.594Z</time></trkpt><trkpt lat="46.02832" lon="13.5743967"><ele>413.2</ele><time>2026-05-03T09:40:46.596Z</time></trkpt><trkpt lat="46.02823" lon="13.5743683"><ele>410.8</ele><time>2026-05-03T09:40:47.597Z</time></trkpt><trkpt lat="46.0281483" lon="13.57439"><ele>408.4</ele><time>2026-05-03T09:40:48.595Z</time></trkpt><trkpt lat="46.0280717" lon="13.574475"><ele>406.0</ele><time>2026-05-03T09:40:49.597Z</time></trkpt><trkpt lat="46.02799" lon="13.5745817"><ele>406.0</ele><time>2026-05-03T09:40:50.597Z</time></trkpt><trkpt lat="46.0279067" lon="13.574675"><ele>406.0</ele><time>2026-05-03T09:40:51.595Z</time></trkpt><trkpt lat="46.02782" lon="13.5747483"><ele>406.0</ele><time>2026-05-03T09:40:52.595Z</time></trkpt><trkpt lat="46.0277233" lon="13.5747917"><ele>406.0</ele><time>2026-05-03T09:40:53.596Z</time></trkpt><trkpt lat="46.0276217" lon="13.5748117"><ele>406.0</ele><time>2026-05-03T09:40:54.595Z</time></trkpt><trkpt lat="46.0275067" lon="13.57481"><ele>403.6</ele><time>2026-05-03T09:40:55.596Z</time></trkpt><trkpt lat="46.02739" lon="13.574785"><ele>401.20000000000005</ele><time>2026-05-03T09:40:56.596Z</time></trkpt><trkpt lat="46.0272817" lon="13.5747583"><ele>398.79999999999995</ele><time>2026-05-03T09:40:57.595Z</time></trkpt><trkpt lat="46.02718" lon="13.5747367"><ele>396.4</ele><time>2026-05-03T09:40:58.596Z</time></trkpt><trkpt lat="46.02708" lon="13.5747267"><ele>394.0</ele><time>2026-05-03T09:40:59.596Z</time></trkpt><trkpt lat="46.0269833" lon="13.5747683"><ele>394.0</ele><time>2026-05-03T09:41:00.595Z</time></trkpt><trkpt lat="46.0268967" lon="13.57483"><ele>394.0</ele><time>2026-05-03T09:41:01.598Z</time></trkpt><trkpt lat="46.0268017" lon="13.5748983"><ele>394.0</ele><time>2026-05-03T09:41:02.597Z</time></trkpt><trkpt lat="46.0266917" lon="13.57494"><ele>394.0</ele><time>2026-05-03T09:41:03.595Z</time></trkpt><trkpt lat="46.0265633" lon="13.57496"><ele>394.0</ele><time>2026-05-03T09:41:04.595Z</time></trkpt><trkpt lat="46.0264233" lon="13.5749433"><ele>396.0</ele><time>2026-05-03T09:41:05.594Z</time></trkpt><trkpt lat="46.0262783" lon="13.574925"><ele>398.0</ele><time>2026-05-03T09:41:06.594Z</time></trkpt><trkpt lat="46.0261267" lon="13.57495"><ele>400.0</ele><time>2026-05-03T09:41:07.594Z</time></trkpt><trkpt lat="46.02597" lon="13.5750133"><ele>400.0</ele><time>2026-05-03T09:41:08.595Z</time></trkpt><trkpt lat="46.0258133" lon="13.57508"><ele>400.0</ele><time>2026-05-03T09:41:09.595Z</time></trkpt><trkpt lat="46.0256617" lon="13.5751567"><ele>400.0</ele><time>2026-05-03T09:41:10.595Z</time></trkpt><trkpt lat="46.0255117" lon="13.575235"><ele>401.25</ele><time>2026-05-03T09:41:11.595Z</time></trkpt><trkpt lat="46.025375" lon="13.57531"><ele>402.5</ele><time>2026-05-03T09:41:12.595Z</time></trkpt><trkpt lat="46.0252433" lon="13.57538"><ele>403.75</ele><time>2026-05-03T09:41:13.596Z</time></trkpt><trkpt lat="46.025115" lon="13.5754383"><ele>405.0</ele><time>2026-05-03T09:41:14.595Z</time></trkpt><trkpt lat="46.0249883" lon="13.5754767"><ele>400.4</ele><time>2026-05-03T09:41:15.594Z</time></trkpt><trkpt lat="46.024875" lon="13.5755467"><ele>395.8</ele><time>2026-05-03T09:41:16.594Z</time></trkpt><trkpt lat="46.02476" lon="13.5755617"><ele>391.20000000000005</ele><time>2026-05-03T09:41:17.596Z</time></trkpt><trkpt lat="46.0246567" lon="13.5755683"><ele>386.6</ele><time>2026-05-03T09:41:18.595Z</time></trkpt><trkpt lat="46.024565" lon="13.575595"><ele>382.0</ele><time>2026-05-03T09:41:19.594Z</time></trkpt><trkpt lat="46.0244833" lon="13.5755983"><ele>382.0</ele><time>2026-05-03T09:41:20.594Z</time></trkpt><trkpt lat="46.0244167" lon="13.5756067"><ele>382.0</ele><time>2026-05-03T09:41:21.594Z</time></trkpt><trkpt lat="46.0243383" lon="13.5756133"><ele>382.0</ele><time>2026-05-03T09:41:23.595Z</time></trkpt><trkpt lat="46.02437" lon="13.5756933"><ele>382.0</ele><time>2026-05-03T09:41:29.596Z</time></trkpt><trkpt lat="46.024495" lon="13.5757217"><ele>382.0</ele><time>2026-05-03T09:41:31.596Z</time></trkpt><trkpt lat="46.024595" lon="13.575715"><ele>382.0</ele><time>2026-05-03T09:41:32.597Z</time></trkpt><trkpt lat="46.0247083" lon="13.5757217"><ele>382.0</ele><time>2026-05-03T09:41:33.594Z</time></trkpt><trkpt lat="46.0248367" lon="13.57572"><ele>382.0</ele><time>2026-05-03T09:41:34.596Z</time></trkpt><trkpt lat="46.0249633" lon="13.5757183"><ele>382.0</ele><time>2026-05-03T09:41:35.594Z</time></trkpt><trkpt lat="46.025085" lon="13.5757217"><ele>382.0</ele><time>2026-05-03T09:41:36.592Z</time></trkpt><trkpt lat="46.02521" lon="13.57572"><ele>381.0</ele><time>2026-05-03T09:41:37.594Z</time></trkpt><trkpt lat="46.0253367" lon="13.575685"><ele>380.0</ele><time>2026-05-03T09:41:38.593Z</time></trkpt><trkpt lat="46.0254533" lon="13.5756467"><ele>379.0</ele><time>2026-05-03T09:41:39.595Z</time></trkpt><trkpt lat="46.025565" lon="13.57561"><ele>378.0</ele><time>2026-05-03T09:41:40.595Z</time></trkpt><trkpt lat="46.025675" lon="13.5756067"><ele>378.0</ele><time>2026-05-03T09:41:41.593Z</time></trkpt><trkpt lat="46.0258" lon="13.575625"><ele>378.0</ele><time>2026-05-03T09:41:42.594Z</time></trkpt><trkpt lat="46.0259217" lon="13.5756617"><ele>378.0</ele><time>2026-05-03T09:41:43.593Z</time></trkpt><trkpt lat="46.0260317" lon="13.57571"><ele>378.0</ele><time>2026-05-03T09:41:44.594Z</time></trkpt><trkpt lat="46.026125" lon="13.5757883"><ele>374.25</ele><time>2026-05-03T09:41:45.594Z</time></trkpt><trkpt lat="46.0261967" lon="13.5759"><ele>370.5</ele><time>2026-05-03T09:41:46.593Z</time></trkpt><trkpt lat="46.02625" lon="13.5760483"><ele>366.75</ele><time>2026-05-03T09:41:47.594Z</time></trkpt><trkpt lat="46.0262817" lon="13.5762167"><ele>363.0</ele><time>2026-05-03T09:41:48.593Z</time></trkpt><trkpt lat="46.0263233" lon="13.576375"><ele>364.25</ele><time>2026-05-03T09:41:49.594Z</time></trkpt><trkpt lat="46.0263867" lon="13.5765183"><ele>365.5</ele><time>2026-05-03T09:41:50.594Z</time></trkpt><trkpt lat="46.0264867" lon="13.5766467"><ele>366.75</ele><time>2026-05-03T09:41:51.594Z</time></trkpt><trkpt lat="46.0266083" lon="13.5767733"><ele>368.0</ele><time>2026-05-03T09:41:52.593Z</time></trkpt><trkpt lat="46.026705" lon="13.5769233"><ele>357.6666666666667</ele><time>2026-05-03T09:41:53.595Z</time></trkpt><trkpt lat="46.02681" lon="13.577075"><ele>347.3333333333333</ele><time>2026-05-03T09:41:54.594Z</time></trkpt><trkpt lat="46.0269217" lon="13.577225"><ele>337.0</ele><time>2026-05-03T09:41:55.594Z</time></trkpt><trkpt lat="46.0270383" lon="13.57737"><ele>337.0</ele><time>2026-05-03T09:41:56.597Z</time></trkpt><trkpt lat="46.0271483" lon="13.577495"><ele>337.0</ele><time>2026-05-03T09:41:57.595Z</time></trkpt><trkpt lat="46.0272567" lon="13.577595"><ele>337.0</ele><time>2026-05-03T09:41:58.595Z</time></trkpt><trkpt lat="46.02735" lon="13.577685"><ele>337.0</ele><time>2026-05-03T09:41:59.594Z</time></trkpt><trkpt lat="46.0274483" lon="13.5777433"><ele>341.8</ele><time>2026-05-03T09:42:00.596Z</time></trkpt><trkpt lat="46.0275433" lon="13.5777983"><ele>346.6</ele><time>2026-05-03T09:42:01.595Z</time></trkpt><trkpt lat="46.0276383" lon="13.5778233"><ele>351.40000000000003</ele><time>2026-05-03T09:42:02.594Z</time></trkpt><trkpt lat="46.02774" lon="13.5777833"><ele>356.20000000000005</ele><time>2026-05-03T09:42:03.594Z</time></trkpt><trkpt lat="46.0278433" lon="13.57778"><ele>361.0</ele><time>2026-05-03T09:42:04.595Z</time></trkpt><trkpt lat="46.0279567" lon="13.5777733"><ele>361.0</ele><time>2026-05-03T09:42:05.594Z</time></trkpt><trkpt lat="46.028055" lon="13.5777883"><ele>361.0</ele><time>2026-05-03T09:42:06.594Z</time></trkpt><trkpt lat="46.0281417" lon="13.577845"><ele>361.0</ele><time>2026-05-03T09:42:07.596Z</time></trkpt><trkpt lat="46.0282217" lon="13.5779517"><ele>361.0</ele><time>2026-05-03T09:42:08.595Z</time></trkpt><trkpt lat="46.0283083" lon="13.5780983"><ele>361.0</ele><time>2026-05-03T09:42:09.594Z</time></trkpt><trkpt lat="46.0283883" lon="13.5782733"><ele>361.0</ele><time>2026-05-03T09:42:10.594Z</time></trkpt><trkpt lat="46.028455" lon="13.578465"><ele>361.0</ele><time>2026-05-03T09:42:11.595Z</time></trkpt><trkpt lat="46.0285067" lon="13.578655"><ele>361.0</ele><time>2026-05-03T09:42:12.595Z</time></trkpt><trkpt lat="46.0285467" lon="13.5788467"><ele>361.0</ele><time>2026-05-03T09:42:13.594Z</time></trkpt><trkpt lat="46.028575" lon="13.5790483"><ele>344.5</ele><time>2026-05-03T09:42:14.594Z</time></trkpt><trkpt lat="46.0286367" lon="13.5792317"><ele>328.0</ele><time>2026-05-03T09:42:15.593Z</time></trkpt><trkpt lat="46.0287233" lon="13.579415"><ele>311.5</ele><time>2026-05-03T09:42:16.593Z</time></trkpt><trkpt lat="46.02881" lon="13.5795983"><ele>295.0</ele><time>2026-05-03T09:42:17.594Z</time></trkpt><trkpt lat="46.0289017" lon="13.5797633"><ele>295.0</ele><time>2026-05-03T09:42:18.594Z</time></trkpt><trkpt lat="46.0290083" lon="13.5798867"><ele>295.0</ele><time>2026-05-03T09:42:19.594Z</time></trkpt><trkpt lat="46.0290917" lon="13.5800317"><ele>295.0</ele><time>2026-05-03T09:42:20.594Z</time></trkpt><trkpt lat="46.0291533" lon="13.5801883"><ele>295.0</ele><time>2026-05-03T09:42:21.593Z</time></trkpt><trkpt lat="46.0291917" lon="13.580355"><ele>299.0</ele><time>2026-05-03T09:42:22.593Z</time></trkpt><trkpt lat="46.029225" lon="13.5805283"><ele>303.0</ele><time>2026-05-03T09:42:23.593Z</time></trkpt><trkpt lat="46.0292733" lon="13.580675"><ele>307.0</ele><time>2026-05-03T09:42:24.594Z</time></trkpt><trkpt lat="46.0293117" lon="13.580815"><ele>311.0</ele><time>2026-05-03T09:42:25.595Z</time></trkpt><trkpt lat="46.0293383" lon="13.5809517"><ele>315.0</ele><time>2026-05-03T09:42:26.594Z</time></trkpt><trkpt lat="46.0293533" lon="13.5810833"><ele>316.3333333333333</ele><time>2026-05-03T09:42:27.594Z</time></trkpt><trkpt lat="46.0293417" lon="13.58121"><ele>317.6666666666667</ele><time>2026-05-03T09:42:28.593Z</time></trkpt><trkpt lat="46.02932" lon="13.5813317"><ele>319.0</ele><time>2026-05-03T09:42:29.594Z</time></trkpt><trkpt lat="46.0292983" lon="13.5814517"><ele>320.33333333333337</ele><time>2026-05-03T09:42:30.593Z</time></trkpt><trkpt lat="46.0293067" lon="13.581565"><ele>321.6666666666667</ele><time>2026-05-03T09:42:31.593Z</time></trkpt><trkpt lat="46.029345" lon="13.581665"><ele>323.0</ele><time>2026-05-03T09:42:32.593Z</time></trkpt><trkpt lat="46.0294133" lon="13.5817467"><ele>323.0</ele><time>2026-05-03T09:42:33.593Z</time></trkpt><trkpt lat="46.02952" lon="13.5818133"><ele>323.0</ele><time>2026-05-03T09:42:34.594Z</time></trkpt><trkpt lat="46.029665" lon="13.5818983"><ele>323.0</ele><time>2026-05-03T09:42:35.593Z</time></trkpt><trkpt lat="46.0298" lon="13.5819867"><ele>323.0</ele><time>2026-05-03T09:42:36.594Z</time></trkpt><trkpt lat="46.0299317" lon="13.5820767"><ele>316.0</ele><time>2026-05-03T09:42:37.594Z</time></trkpt><trkpt lat="46.030055" lon="13.5821633"><ele>309.0</ele><time>2026-05-03T09:42:38.594Z</time></trkpt><trkpt lat="46.03017" lon="13.5822383"><ele>302.0</ele><time>2026-05-03T09:42:39.593Z</time></trkpt><trkpt lat="46.03028" lon="13.5823067"><ele>295.0</ele><time>2026-05-03T09:42:40.593Z</time></trkpt><trkpt lat="46.03038" lon="13.58237"><ele>295.0</ele><time>2026-05-03T09:42:41.593Z</time></trkpt><trkpt lat="46.030475" lon="13.5824133"><ele>295.0</ele><time>2026-05-03T09:42:42.595Z</time></trkpt><trkpt lat="46.030555" lon="13.582475"><ele>295.0</ele><time>2026-05-03T09:42:43.594Z</time></trkpt><trkpt lat="46.0306317" lon="13.582545"><ele>295.0</ele><time>2026-05-03T09:42:44.595Z</time></trkpt><trkpt lat="46.030665" lon="13.5826483"><ele>295.0</ele><time>2026-05-03T09:42:45.594Z</time></trkpt><trkpt lat="46.0306883" lon="13.5827617"><ele>295.0</ele><time>2026-05-03T09:42:46.593Z</time></trkpt><trkpt lat="46.0306967" lon="13.5828883"><ele>291.0</ele><time>2026-05-03T09:42:47.595Z</time></trkpt><trkpt lat="46.0307" lon="13.5830317"><ele>287.0</ele><time>2026-05-03T09:42:48.593Z</time></trkpt><trkpt lat="46.0306983" lon="13.5831867"><ele>283.0</ele><time>2026-05-03T09:42:49.594Z</time></trkpt><trkpt lat="46.0306833" lon="13.5833533"><ele>279.0</ele><time>2026-05-03T09:42:50.594Z</time></trkpt><trkpt lat="46.0306783" lon="13.5835133"><ele>275.0</ele><time>2026-05-03T09:42:51.593Z</time></trkpt><trkpt lat="46.0306717" lon="13.5836767"><ele>275.4</ele><time>2026-05-03T09:42:52.593Z</time></trkpt><trkpt lat="46.0306533" lon="13.5838217"><ele>275.8</ele><time>2026-05-03T09:42:53.594Z</time></trkpt><trkpt lat="46.0306117" lon="13.583945"><ele>276.2</ele><time>2026-05-03T09:42:54.594Z</time></trkpt><trkpt lat="46.03056" lon="13.5840533"><ele>276.6</ele><time>2026-05-03T09:42:55.594Z</time></trkpt><trkpt lat="46.0305033" lon="13.584155"><ele>277.0</ele><time>2026-05-03T09:42:56.594Z</time></trkpt><trkpt lat="46.0304433" lon="13.5842533"><ele>277.0</ele><time>2026-05-03T09:42:57.594Z</time></trkpt><trkpt lat="46.0303833" lon="13.5843433"><ele>277.0</ele><time>2026-05-03T09:42:58.593Z</time></trkpt><trkpt lat="46.0303333" lon="13.584435"><ele>277.0</ele><time>2026-05-03T09:42:59.595Z</time></trkpt><trkpt lat="46.0302933" lon="13.58453"><ele>277.0</ele><time>2026-05-03T09:43:00.593Z</time></trkpt><trkpt lat="46.0302667" lon="13.58464"><ele>277.0</ele><time>2026-05-03T09:43:01.595Z</time></trkpt><trkpt lat="46.0302517" lon="13.58476"><ele>277.0</ele><time>2026-05-03T09:43:02.595Z</time></trkpt><trkpt lat="46.03025" lon="13.584895"><ele>278.2</ele><time>2026-05-03T09:43:03.594Z</time></trkpt><trkpt lat="46.0302567" lon="13.5850367"><ele>279.4</ele><time>2026-05-03T09:43:04.593Z</time></trkpt><trkpt lat="46.0302667" lon="13.585175"><ele>280.6</ele><time>2026-05-03T09:43:05.594Z</time></trkpt><trkpt lat="46.0302883" lon="13.5853033"><ele>281.8</ele><time>2026-05-03T09:43:06.594Z</time></trkpt><trkpt lat="46.0303317" lon="13.585425"><ele>283.0</ele><time>2026-05-03T09:43:07.594Z</time></trkpt><trkpt lat="46.030375" lon="13.585545"><ele>279.2</ele><time>2026-05-03T09:43:08.594Z</time></trkpt><trkpt lat="46.0304183" lon="13.585665"><ele>275.4</ele><time>2026-05-03T09:43:09.594Z</time></trkpt><trkpt lat="46.0304667" lon="13.5857867"><ele>271.59999999999997</ele><time>2026-05-03T09:43:10.594Z</time></trkpt><trkpt lat="46.0305083" lon="13.58591"><ele>267.8</ele><time>2026-05-03T09:43:11.594Z</time></trkpt><trkpt lat="46.03055" lon="13.5860383"><ele>264.0</ele><time>2026-05-03T09:43:12.593Z</time></trkpt><trkpt lat="46.0305967" lon="13.5861717"><ele>261.59999999999997</ele><time>2026-05-03T09:43:13.594Z</time></trkpt><trkpt lat="46.030635" lon="13.58631"><ele>259.2</ele><time>2026-05-03T09:43:14.594Z</time></trkpt><trkpt lat="46.0306517" lon="13.5864483"><ele>256.79999999999995</ele><time>2026-05-03T09:43:15.594Z</time></trkpt><trkpt lat="46.0306533" lon="13.5865833"><ele>254.39999999999998</ele><time>2026-05-03T09:43:16.594Z</time></trkpt><trkpt lat="46.03066" lon="13.5867167"><ele>252.0</ele><time>2026-05-03T09:43:17.594Z</time></trkpt><trkpt lat="46.03067" lon="13.5868517"><ele>252.0</ele><time>2026-05-03T09:43:18.594Z</time></trkpt><trkpt lat="46.0306867" lon="13.586995"><ele>252.0</ele><time>2026-05-03T09:43:19.594Z</time></trkpt><trkpt lat="46.03071" lon="13.5871483"><ele>252.0</ele><time>2026-05-03T09:43:20.595Z</time></trkpt><trkpt lat="46.0307483" lon="13.58731"><ele>252.0</ele><time>2026-05-03T09:43:21.594Z</time></trkpt><trkpt lat="46.030785" lon="13.5874717"><ele>252.0</ele><time>2026-05-03T09:43:22.594Z</time></trkpt><trkpt lat="46.0308167" lon="13.5876317"><ele>255.6</ele><time>2026-05-03T09:43:23.594Z</time></trkpt><trkpt lat="46.03084" lon="13.5877917"><ele>259.2</ele><time>2026-05-03T09:43:24.593Z</time></trkpt><trkpt lat="46.0308683" lon="13.587945"><ele>262.8</ele><time>2026-05-03T09:43:25.593Z</time></trkpt><trkpt lat="46.0308933" lon="13.5880983"><ele>266.4</ele><time>2026-05-03T09:43:26.595Z</time></trkpt><trkpt lat="46.0309083" lon="13.588255"><ele>270.0</ele><time>2026-05-03T09:43:27.594Z</time></trkpt><trkpt lat="46.0309083" lon="13.5884067"><ele>270.0</ele><time>2026-05-03T09:43:28.593Z</time></trkpt><trkpt lat="46.030895" lon="13.58856"><ele>270.0</ele><time>2026-05-03T09:43:29.594Z</time></trkpt><trkpt lat="46.030885" lon="13.5887083"><ele>270.0</ele><time>2026-05-03T09:43:30.594Z</time></trkpt><trkpt lat="46.0308817" lon="13.5888617"><ele>270.0</ele><time>2026-05-03T09:43:31.595Z</time></trkpt><trkpt lat="46.0308767" lon="13.5890167"><ele>270.0</ele><time>2026-05-03T09:43:32.594Z</time></trkpt><trkpt lat="46.0308783" lon="13.5891683"><ele>268.8</ele><time>2026-05-03T09:43:33.593Z</time></trkpt><trkpt lat="46.0309083" lon="13.5893133"><ele>267.6</ele><time>2026-05-03T09:43:34.594Z</time></trkpt><trkpt lat="46.0309567" lon="13.5894517"><ele>266.4</ele><time>2026-05-03T09:43:35.593Z</time></trkpt><trkpt lat="46.031005" lon="13.5895883"><ele>265.2</ele><time>2026-05-03T09:43:36.593Z</time></trkpt><trkpt lat="46.0310617" lon="13.58972"><ele>264.0</ele><time>2026-05-03T09:43:37.594Z</time></trkpt><trkpt lat="46.0311367" lon="13.58984"><ele>261.4</ele><time>2026-05-03T09:43:38.595Z</time></trkpt><trkpt lat="46.03122" lon="13.589945"><ele>258.79999999999995</ele><time>2026-05-03T09:43:39.593Z</time></trkpt><trkpt lat="46.0313017" lon="13.5900383"><ele>256.20000000000005</ele><time>2026-05-03T09:43:40.593Z</time></trkpt><trkpt lat="46.0313867" lon="13.5901017"><ele>253.60000000000002</ele><time>2026-05-03T09:43:41.595Z</time></trkpt><trkpt lat="46.031465" lon="13.5901367"><ele>251.0</ele><time>2026-05-03T09:43:42.593Z</time></trkpt><trkpt lat="46.031535" lon="13.590155"><ele>251.0</ele><time>2026-05-03T09:43:43.593Z</time></trkpt><trkpt lat="46.0316117" lon="13.59024"><ele>251.00000000000003</ele><time>2026-05-03T09:43:45.594Z</time></trkpt><trkpt lat="46.0315783" lon="13.59032"><ele>251.00000000000003</ele><time>2026-05-03T09:43:47.595Z</time></trkpt><trkpt lat="46.0314533" lon="13.590275"><ele>251.0</ele><time>2026-05-03T09:43:49.595Z</time></trkpt><trkpt lat="46.0313633" lon="13.5902133"><ele>251.0</ele><time>2026-05-03T09:43:50.595Z</time></trkpt><trkpt lat="46.03127" lon="13.5901967"><ele>251.0</ele><time>2026-05-03T09:43:51.594Z</time></trkpt><trkpt lat="46.0311683" lon="13.5901917"><ele>251.00000000000003</ele><time>2026-05-03T09:43:52.594Z</time></trkpt><trkpt lat="46.0310583" lon="13.59017"><ele>251.00000000000003</ele><time>2026-05-03T09:43:53.595Z</time></trkpt><trkpt lat="46.030945" lon="13.5901433"><ele>251.0</ele><time>2026-05-03T09:43:54.596Z</time></trkpt><trkpt lat="46.0308333" lon="13.5901017"><ele>251.0</ele><time>2026-05-03T09:43:55.595Z</time></trkpt><trkpt lat="46.0307333" lon="13.5900283"><ele>243.5</ele><time>2026-05-03T09:43:56.594Z</time></trkpt><trkpt lat="46.0306267" lon="13.5899583"><ele>236.0</ele><time>2026-05-03T09:43:57.594Z</time></trkpt><trkpt lat="46.0305083" lon="13.58989"><ele>228.5</ele><time>2026-05-03T09:43:58.595Z</time></trkpt><trkpt lat="46.0304167" lon="13.58976"><ele>221.0</ele><time>2026-05-03T09:43:59.595Z</time></trkpt><trkpt lat="46.0303233" lon="13.5896267"><ele>223.5</ele><time>2026-05-03T09:44:00.595Z</time></trkpt><trkpt lat="46.0302367" lon="13.5894883"><ele>226.0</ele><time>2026-05-03T09:44:01.594Z</time></trkpt><trkpt lat="46.030175" lon="13.5893233"><ele>228.5</ele><time>2026-05-03T09:44:02.596Z</time></trkpt><trkpt lat="46.0301133" lon="13.5891667"><ele>231.0</ele><time>2026-05-03T09:44:03.595Z</time></trkpt><trkpt lat="46.0300917" lon="13.58899"><ele>231.0</ele><time>2026-05-03T09:44:04.595Z</time></trkpt><trkpt lat="46.0300567" lon="13.5887967"><ele>231.0</ele><time>2026-05-03T09:44:05.595Z</time></trkpt><trkpt lat="46.0300117" lon="13.5886033"><ele>231.0</ele><time>2026-05-03T09:44:06.595Z</time></trkpt><trkpt lat="46.02995" lon="13.5884183"><ele>231.0</ele><time>2026-05-03T09:44:07.594Z</time></trkpt><trkpt lat="46.0298867" lon="13.588235"><ele>224.0</ele><time>2026-05-03T09:44:08.596Z</time></trkpt><trkpt lat="46.0298367" lon="13.5880633"><ele>217.0</ele><time>2026-05-03T09:44:09.595Z</time></trkpt><trkpt lat="46.0297967" lon="13.587905"><ele>210.0</ele><time>2026-05-03T09:44:10.594Z</time></trkpt><trkpt lat="46.0297683" lon="13.58774"><ele>203.0</ele><time>2026-05-03T09:44:11.595Z</time></trkpt><trkpt lat="46.0297383" lon="13.5875667"><ele>203.0</ele><time>2026-05-03T09:44:12.595Z</time></trkpt><trkpt lat="46.0297317" lon="13.587385"><ele>203.0</ele><time>2026-05-03T09:44:13.596Z</time></trkpt><trkpt lat="46.029705" lon="13.587215"><ele>203.0</ele><time>2026-05-03T09:44:14.594Z</time></trkpt><trkpt lat="46.0296683" lon="13.5870533"><ele>203.0</ele><time>2026-05-03T09:44:15.593Z</time></trkpt><trkpt lat="46.0296367" lon="13.5869033"><ele>204.33333333333334</ele><time>2026-05-03T09:44:16.594Z</time></trkpt><trkpt lat="46.0296133" lon="13.5867667"><ele>205.66666666666669</ele><time>2026-05-03T09:44:17.595Z</time></trkpt><trkpt lat="46.029595" lon="13.586655"><ele>207.0</ele><time>2026-05-03T09:44:18.595Z</time></trkpt><trkpt lat="46.029585" lon="13.58656"><ele>208.33333333333331</ele><time>2026-05-03T09:44:19.593Z</time></trkpt><trkpt lat="46.0295017" lon="13.5864633"><ele>209.66666666666666</ele><time>2026-05-03T09:44:21.593Z</time></trkpt><trkpt lat="46.0294267" lon="13.586515"><ele>211.0</ele><time>2026-05-03T09:44:23.594Z</time></trkpt><trkpt lat="46.0294267" lon="13.5867117"><ele>211.0</ele><time>2026-05-03T09:44:25.596Z</time></trkpt><trkpt lat="46.0294767" lon="13.58686"><ele>211.0</ele><time>2026-05-03T09:44:26.594Z</time></trkpt><trkpt lat="46.0295017" lon="13.5870067"><ele>211.0</ele><time>2026-05-03T09:44:27.594Z</time></trkpt><trkpt lat="46.02951" lon="13.5871767"><ele>211.0</ele><time>2026-05-03T09:44:28.594Z</time></trkpt><trkpt lat="46.0294983" lon="13.5873533"><ele>209.0</ele><time>2026-05-03T09:44:29.594Z</time></trkpt><trkpt lat="46.0294717" lon="13.5875267"><ele>207.0</ele><time>2026-05-03T09:44:30.594Z</time></trkpt><trkpt lat="46.02944" lon="13.5877083"><ele>205.0</ele><time>2026-05-03T09:44:31.593Z</time></trkpt><trkpt lat="46.0294383" lon="13.5878983"><ele>203.0</ele><time>2026-05-03T09:44:32.594Z</time></trkpt><trkpt lat="46.0294267" lon="13.5880933"><ele>202.0</ele><time>2026-05-03T09:44:33.594Z</time></trkpt><trkpt lat="46.0294067" lon="13.5882833"><ele>201.0</ele><time>2026-05-03T09:44:34.595Z</time></trkpt><trkpt lat="46.0293817" lon="13.588465"><ele>200.0</ele><time>2026-05-03T09:44:35.595Z</time></trkpt><trkpt lat="46.0293617" lon="13.5886367"><ele>199.0</ele><time>2026-05-03T09:44:36.593Z</time></trkpt><trkpt lat="46.0293433" lon="13.5888033"><ele>198.79999999999998</ele><time>2026-05-03T09:44:37.595Z</time></trkpt><trkpt lat="46.0293217" lon="13.58896"><ele>198.6</ele><time>2026-05-03T09:44:38.594Z</time></trkpt><trkpt lat="46.029295" lon="13.589115"><ele>198.4</ele><time>2026-05-03T09:44:39.593Z</time></trkpt><trkpt lat="46.029275" lon="13.58927"><ele>198.2</ele><time>2026-05-03T09:44:40.595Z</time></trkpt><trkpt lat="46.0292683" lon="13.589425"><ele>198.0</ele><time>2026-05-03T09:44:41.594Z</time></trkpt><trkpt lat="46.0292717" lon="13.5895933"><ele>196.25</ele><time>2026-05-03T09:44:42.595Z</time></trkpt><trkpt lat="46.0293133" lon="13.589765"><ele>194.5</ele><time>2026-05-03T09:44:43.595Z</time></trkpt><trkpt lat="46.0293533" lon="13.5899367"><ele>192.75</ele><time>2026-05-03T09:44:44.595Z</time></trkpt><trkpt lat="46.0293933" lon="13.590105"><ele>191.0</ele><time>2026-05-03T09:44:45.594Z</time></trkpt><trkpt lat="46.02941" lon="13.5902933"><ele>188.0</ele><time>2026-05-03T09:44:46.594Z</time></trkpt><trkpt lat="46.0294567" lon="13.5904583"><ele>185.0</ele><time>2026-05-03T09:44:47.594Z</time></trkpt><trkpt lat="46.029515" lon="13.59062"><ele>182.0</ele><time>2026-05-03T09:44:48.593Z</time></trkpt><trkpt lat="46.0295783" lon="13.5907867"><ele>179.0</ele><time>2026-05-03T09:44:49.596Z</time></trkpt><trkpt lat="46.0296483" lon="13.5909467"><ele>179.0</ele><time>2026-05-03T09:44:50.594Z</time></trkpt><trkpt lat="46.0297033" lon="13.591105"><ele>179.0</ele><time>2026-05-03T09:44:51.593Z</time></trkpt><trkpt lat="46.029755" lon="13.591255"><ele>179.0</ele><time>2026-05-03T09:44:52.593Z</time></trkpt><trkpt lat="46.0298083" lon="13.59137"><ele>179.0</ele><time>2026-05-03T09:44:53.594Z</time></trkpt><trkpt lat="46.0298533" lon="13.591505"><ele>179.0</ele><time>2026-05-03T09:44:54.594Z</time></trkpt><trkpt lat="46.0299133" lon="13.5916267"><ele>180.79999999999998</ele><time>2026-05-03T09:44:55.597Z</time></trkpt><trkpt lat="46.0299883" lon="13.5917233"><ele>182.6</ele><time>2026-05-03T09:44:56.595Z</time></trkpt><trkpt lat="46.0300783" lon="13.5917883"><ele>184.4</ele><time>2026-05-03T09:44:57.594Z</time></trkpt><trkpt lat="46.030185" lon="13.5918383"><ele>186.2</ele><time>2026-05-03T09:44:58.596Z</time></trkpt><trkpt lat="46.0303033" lon="13.5918967"><ele>188.0</ele><time>2026-05-03T09:44:59.594Z</time></trkpt><trkpt lat="46.030425" lon="13.5919617"><ele>182.25</ele><time>2026-05-03T09:45:00.594Z</time></trkpt><trkpt lat="46.0305583" lon="13.5920117"><ele>176.5</ele><time>2026-05-03T09:45:01.595Z</time></trkpt><trkpt lat="46.0306917" lon="13.592055"><ele>170.75</ele><time>2026-05-03T09:45:02.596Z</time></trkpt><trkpt lat="46.0308167" lon="13.5921033"><ele>165.0</ele><time>2026-05-03T09:45:03.594Z</time></trkpt><trkpt lat="46.03094" lon="13.592145"><ele>165.0</ele><time>2026-05-03T09:45:04.595Z</time></trkpt><trkpt lat="46.0310567" lon="13.5922"><ele>165.0</ele><time>2026-05-03T09:45:05.596Z</time></trkpt><trkpt lat="46.0311767" lon="13.59225"><ele>165.0</ele><time>2026-05-03T09:45:06.595Z</time></trkpt><trkpt lat="46.0313017" lon="13.5922883"><ele>165.0</ele><time>2026-05-03T09:45:07.594Z</time></trkpt><trkpt lat="46.0314267" lon="13.5923317"><ele>165.0</ele><time>2026-05-03T09:45:08.595Z</time></trkpt><trkpt lat="46.0315533" lon="13.5923567"><ele>165.0</ele><time>2026-05-03T09:45:09.594Z</time></trkpt><trkpt lat="46.0316817" lon="13.5923683"><ele>165.0</ele><time>2026-05-03T09:45:10.594Z</time></trkpt><trkpt lat="46.0318083" lon="13.592385"><ele>165.0</ele><time>2026-05-03T09:45:11.595Z</time></trkpt><trkpt lat="46.0319367" lon="13.592375"><ele>165.75</ele><time>2026-05-03T09:45:12.594Z</time></trkpt><trkpt lat="46.0320583" lon="13.5923433"><ele>166.5</ele><time>2026-05-03T09:45:13.595Z</time></trkpt><trkpt lat="46.0321717" lon="13.5923233"><ele>167.25</ele><time>2026-05-03T09:45:14.595Z</time></trkpt><trkpt lat="46.0322817" lon="13.5922867"><ele>168.0</ele><time>2026-05-03T09:45:15.594Z</time></trkpt><trkpt lat="46.032375" lon="13.5922267"><ele>168.0</ele><time>2026-05-03T09:45:16.594Z</time></trkpt><trkpt lat="46.0324717" lon="13.5921983"><ele>168.0</ele><time>2026-05-03T09:45:17.594Z</time></trkpt><trkpt lat="46.0325667" lon="13.5922133"><ele>168.0</ele><time>2026-05-03T09:45:18.595Z</time></trkpt><trkpt lat="46.0326467" lon="13.59227"><ele>168.0</ele><time>2026-05-03T09:45:19.594Z</time></trkpt><trkpt lat="46.0327133" lon="13.59238"><ele>168.0</ele><time>2026-05-03T09:45:20.594Z</time></trkpt><trkpt lat="46.032785" lon="13.5925"><ele>166.60000000000002</ele><time>2026-05-03T09:45:21.595Z</time></trkpt><trkpt lat="46.0328683" lon="13.5926067"><ele>165.20000000000002</ele><time>2026-05-03T09:45:22.595Z</time></trkpt><trkpt lat="46.0329583" lon="13.5926983"><ele>163.8</ele><time>2026-05-03T09:45:23.594Z</time></trkpt><trkpt lat="46.0330483" lon="13.5927933"><ele>162.4</ele><time>2026-05-03T09:45:24.595Z</time></trkpt><trkpt lat="46.033145" lon="13.592865"><ele>161.0</ele><time>2026-05-03T09:45:25.594Z</time></trkpt><trkpt lat="46.03325" lon="13.592925"><ele>158.4</ele><time>2026-05-03T09:45:26.596Z</time></trkpt><trkpt lat="46.0333517" lon="13.5929967"><ele>155.8</ele><time>2026-05-03T09:45:27.593Z</time></trkpt><trkpt lat="46.0334517" lon="13.5930583"><ele>153.20000000000002</ele><time>2026-05-03T09:45:28.594Z</time></trkpt><trkpt lat="46.0335533" lon="13.5931183"><ele>150.60000000000002</ele><time>2026-05-03T09:45:29.595Z</time></trkpt><trkpt lat="46.0336567" lon="13.5931767"><ele>148.0</ele><time>2026-05-03T09:45:30.594Z</time></trkpt><trkpt lat="46.0337567" lon="13.593235"><ele>148.0</ele><time>2026-05-03T09:45:31.594Z</time></trkpt><trkpt lat="46.033855" lon="13.59328"><ele>148.0</ele><time>2026-05-03T09:45:32.596Z</time></trkpt><trkpt lat="46.0339467" lon="13.5933317"><ele>148.0</ele><time>2026-05-03T09:45:33.593Z</time></trkpt><trkpt lat="46.0340383" lon="13.59338"><ele>148.0</ele><time>2026-05-03T09:45:34.595Z</time></trkpt><trkpt lat="46.0341217" lon="13.593435"><ele>148.0</ele><time>2026-05-03T09:45:35.594Z</time></trkpt><trkpt lat="46.0342017" lon="13.593485"><ele>149.16666666666669</ele><time>2026-05-03T09:45:36.595Z</time></trkpt><trkpt lat="46.0342733" lon="13.5935367"><ele>150.33333333333334</ele><time>2026-05-03T09:45:37.595Z</time></trkpt><trkpt lat="46.034345" lon="13.5935783"><ele>151.5</ele><time>2026-05-03T09:45:38.595Z</time></trkpt><trkpt lat="46.0344217" lon="13.5936033"><ele>152.66666666666666</ele><time>2026-05-03T09:45:39.595Z</time></trkpt><trkpt lat="46.034495" lon="13.5936267"><ele>153.83333333333331</ele><time>2026-05-03T09:45:40.594Z</time></trkpt><trkpt lat="46.0345583" lon="13.5936333"><ele>155.0</ele><time>2026-05-03T09:45:41.594Z</time></trkpt><trkpt lat="46.0346567" lon="13.59363"><ele>155.0</ele><time>2026-05-03T09:45:43.595Z</time></trkpt><trkpt lat="46.0347417" lon="13.5936167"><ele>155.0</ele><time>2026-05-03T09:45:45.594Z</time></trkpt><trkpt lat="46.0348467" lon="13.5935917"><ele>155.0</ele><time>2026-05-03T09:45:47.595Z</time></trkpt><trkpt lat="46.03496" lon="13.5935433"><ele>155.0</ele><time>2026-05-03T09:45:49.595Z</time></trkpt><trkpt lat="46.0350233" lon="13.5934917"><ele>155.0</ele><time>2026-05-03T09:45:50.595Z</time></trkpt><trkpt lat="46.0351" lon="13.5934133"><ele>153.6</ele><time>2026-05-03T09:45:51.595Z</time></trkpt><trkpt lat="46.0351783" lon="13.5933117"><ele>152.2</ele><time>2026-05-03T09:45:52.595Z</time></trkpt><trkpt lat="46.0352567" lon="13.5932067"><ele>150.8</ele><time>2026-05-03T09:45:53.594Z</time></trkpt><trkpt lat="46.0353367" lon="13.593105"><ele>149.4</ele><time>2026-05-03T09:45:54.596Z</time></trkpt><trkpt lat="46.03542" lon="13.5929983"><ele>148.0</ele><time>2026-05-03T09:45:55.595Z</time></trkpt><trkpt lat="46.0355" lon="13.59289"><ele>154.0</ele><time>2026-05-03T09:45:56.595Z</time></trkpt><trkpt lat="46.035575" lon="13.5927717"><ele>160.0</ele><time>2026-05-03T09:45:57.596Z</time></trkpt><trkpt lat="46.0356367" lon="13.5926383"><ele>166.0</ele><time>2026-05-03T09:45:58.594Z</time></trkpt><trkpt lat="46.0356917" lon="13.5924833"><ele>172.0</ele><time>2026-05-03T09:45:59.595Z</time></trkpt><trkpt lat="46.03575" lon="13.5923233"><ele>172.0</ele><time>2026-05-03T09:46:00.595Z</time></trkpt><trkpt lat="46.0357933" lon="13.5921517"><ele>172.0</ele><time>2026-05-03T09:46:01.594Z</time></trkpt><trkpt lat="46.0358383" lon="13.5919683"><ele>172.0</ele><time>2026-05-03T09:46:02.594Z</time></trkpt><trkpt lat="46.03589" lon="13.5917783"><ele>172.0</ele><time>2026-05-03T09:46:03.594Z</time></trkpt><trkpt lat="46.0359333" lon="13.5915783"><ele>166.75</ele><time>2026-05-03T09:46:04.595Z</time></trkpt><trkpt lat="46.0359917" lon="13.5913783"><ele>161.5</ele><time>2026-05-03T09:46:05.594Z</time></trkpt><trkpt lat="46.0360617" lon="13.5911967"><ele>156.25</ele><time>2026-05-03T09:46:06.594Z</time></trkpt><trkpt lat="46.0361217" lon="13.5910233"><ele>151.0</ele><time>2026-05-03T09:46:07.595Z</time></trkpt><trkpt lat="46.036185" lon="13.5908583"><ele>151.0</ele><time>2026-05-03T09:46:08.595Z</time></trkpt><trkpt lat="46.0362417" lon="13.5907"><ele>151.0</ele><time>2026-05-03T09:46:09.594Z</time></trkpt><trkpt lat="46.036305" lon="13.5905483"><ele>151.0</ele><time>2026-05-03T09:46:10.595Z</time></trkpt><trkpt lat="46.0363667" lon="13.59039"><ele>151.0</ele><time>2026-05-03T09:46:11.595Z</time></trkpt><trkpt lat="46.03645" lon="13.5902433"><ele>157.25</ele><time>2026-05-03T09:46:12.594Z</time></trkpt><trkpt lat="46.0365383" lon="13.5900983"><ele>163.5</ele><time>2026-05-03T09:46:13.594Z</time></trkpt><trkpt lat="46.03662" lon="13.5899367"><ele>169.75</ele><time>2026-05-03T09:46:14.594Z</time></trkpt><trkpt lat="46.036695" lon="13.589775"><ele>176.0</ele><time>2026-05-03T09:46:15.595Z</time></trkpt><trkpt lat="46.0367667" lon="13.5896167"><ele>166.5</ele><time>2026-05-03T09:46:16.595Z</time></trkpt><trkpt lat="46.0368417" lon="13.58947"><ele>157.0</ele><time>2026-05-03T09:46:17.595Z</time></trkpt><trkpt lat="46.0369217" lon="13.58934"><ele>147.5</ele><time>2026-05-03T09:46:18.594Z</time></trkpt><trkpt lat="46.0370033" lon="13.589215"><ele>138.0</ele><time>2026-05-03T09:46:19.595Z</time></trkpt><trkpt lat="46.0370833" lon="13.5891"><ele>138.0</ele><time>2026-05-03T09:46:20.595Z</time></trkpt><trkpt lat="46.0371683" lon="13.589"><ele>138.0</ele><time>2026-05-03T09:46:21.595Z</time></trkpt><trkpt lat="46.0372733" lon="13.5889133"><ele>138.0</ele><time>2026-05-03T09:46:22.595Z</time></trkpt><trkpt lat="46.0373817" lon="13.5888217"><ele>138.0</ele><time>2026-05-03T09:46:23.595Z</time></trkpt><trkpt lat="46.0374817" lon="13.5887033"><ele>132.0</ele><time>2026-05-03T09:46:24.595Z</time></trkpt><trkpt lat="46.0375617" lon="13.5885667"><ele>126.0</ele><time>2026-05-03T09:46:25.595Z</time></trkpt><trkpt lat="46.03763" lon="13.5884233"><ele>120.0</ele><time>2026-05-03T09:46:26.595Z</time></trkpt><trkpt lat="46.0377017" lon="13.5882817"><ele>114.0</ele><time>2026-05-03T09:46:27.595Z</time></trkpt><trkpt lat="46.0377867" lon="13.58817"><ele>114.0</ele><time>2026-05-03T09:46:28.594Z</time></trkpt><trkpt lat="46.0378833" lon="13.5880883"><ele>114.0</ele><time>2026-05-03T09:46:29.594Z</time></trkpt><trkpt lat="46.03798" lon="13.5880233"><ele>114.0</ele><time>2026-05-03T09:46:30.594Z</time></trkpt><trkpt lat="46.03808" lon="13.587995"><ele>114.0</ele><time>2026-05-03T09:46:31.595Z</time></trkpt><trkpt lat="46.0381867" lon="13.5879967"><ele>114.0</ele><time>2026-05-03T09:46:32.594Z</time></trkpt><trkpt lat="46.0383017" lon="13.588015"><ele>108.75</ele><time>2026-05-03T09:46:33.595Z</time></trkpt><trkpt lat="46.03843" lon="13.5880317"><ele>103.5</ele><time>2026-05-03T09:46:34.595Z</time></trkpt><trkpt lat="46.0385517" lon="13.5880583"><ele>98.25</ele><time>2026-05-03T09:46:35.594Z</time></trkpt><trkpt lat="46.038665" lon="13.5880667"><ele>93.0</ele><time>2026-05-03T09:46:36.594Z</time></trkpt><trkpt lat="46.0387783" lon="13.588065"><ele>93.0</ele><time>2026-05-03T09:46:37.594Z</time></trkpt><trkpt lat="46.0388917" lon="13.5880667"><ele>93.0</ele><time>2026-05-03T09:46:38.595Z</time></trkpt><trkpt lat="46.0390017" lon="13.5880467"><ele>93.0</ele><time>2026-05-03T09:46:39.594Z</time></trkpt><trkpt lat="46.0391117" lon="13.5880167"><ele>93.0</ele><time>2026-05-03T09:46:40.596Z</time></trkpt><trkpt lat="46.0392167" lon="13.5879867"><ele>93.0</ele><time>2026-05-03T09:46:41.594Z</time></trkpt><trkpt lat="46.0393167" lon="13.587965"><ele>91.80000000000001</ele><time>2026-05-03T09:46:42.594Z</time></trkpt><trkpt lat="46.0394183" lon="13.5879417"><ele>90.6</ele><time>2026-05-03T09:46:43.594Z</time></trkpt><trkpt lat="46.03952" lon="13.58792"><ele>89.4</ele><time>2026-05-03T09:46:44.594Z</time></trkpt><trkpt lat="46.0396217" lon="13.58792"><ele>88.19999999999999</ele><time>2026-05-03T09:46:45.595Z</time></trkpt><trkpt lat="46.0397183" lon="13.5879233"><ele>87.0</ele><time>2026-05-03T09:46:46.595Z</time></trkpt><trkpt lat="46.0398067" lon="13.587935"><ele>87.0</ele><time>2026-05-03T09:46:47.594Z</time></trkpt><trkpt lat="46.03989" lon="13.58795"><ele>87.0</ele><time>2026-05-03T09:46:48.594Z</time></trkpt><trkpt lat="46.0399683" lon="13.587965"><ele>87.0</ele><time>2026-05-03T09:46:49.594Z</time></trkpt><trkpt lat="46.04005" lon="13.587985"><ele>87.0</ele><time>2026-05-03T09:46:50.596Z</time></trkpt><trkpt lat="46.04013" lon="13.5880033"><ele>87.0</ele><time>2026-05-03T09:46:51.594Z</time></trkpt><trkpt lat="46.04021" lon="13.5879883"><ele>87.0</ele><time>2026-05-03T09:46:52.595Z</time></trkpt><trkpt lat="46.0402883" lon="13.5879467"><ele>86.39999999999999</ele><time>2026-05-03T09:46:53.596Z</time></trkpt><trkpt lat="46.0403717" lon="13.5879"><ele>85.8</ele><time>2026-05-03T09:46:54.594Z</time></trkpt><trkpt lat="46.0404683" lon="13.58788"><ele>85.2</ele><time>2026-05-03T09:46:55.594Z</time></trkpt><trkpt lat="46.040575" lon="13.58788"><ele>84.6</ele><time>2026-05-03T09:46:56.596Z</time></trkpt><trkpt lat="46.0406867" lon="13.58788"><ele>84.0</ele><time>2026-05-03T09:46:57.594Z</time></trkpt><trkpt lat="46.0407967" lon="13.587875"><ele>84.80000000000001</ele><time>2026-05-03T09:46:58.594Z</time></trkpt><trkpt lat="46.0409083" lon="13.5878667"><ele>85.60000000000001</ele><time>2026-05-03T09:46:59.594Z</time></trkpt><trkpt lat="46.0410183" lon="13.58786"><ele>86.4</ele><time>2026-05-03T09:47:00.594Z</time></trkpt><trkpt lat="46.0411233" lon="13.587825"><ele>87.2</ele><time>2026-05-03T09:47:01.596Z</time></trkpt><trkpt lat="46.0412117" lon="13.5877533"><ele>88.0</ele><time>2026-05-03T09:47:02.594Z</time></trkpt><trkpt lat="46.041295" lon="13.58768"><ele>88.0</ele><time>2026-05-03T09:47:03.593Z</time></trkpt><trkpt lat="46.0413817" lon="13.58767"><ele>88.0</ele><time>2026-05-03T09:47:04.594Z</time></trkpt><trkpt lat="46.0414583" lon="13.5877017"><ele>88.0</ele><time>2026-05-03T09:47:05.594Z</time></trkpt><trkpt lat="46.0415333" lon="13.5877667"><ele>88.0</ele><time>2026-05-03T09:47:06.593Z</time></trkpt><trkpt lat="46.0416067" lon="13.58786"><ele>88.0</ele><time>2026-05-03T09:47:07.595Z</time></trkpt><trkpt lat="46.0416867" lon="13.587955"><ele>87.60000000000001</ele><time>2026-05-03T09:47:08.595Z</time></trkpt><trkpt lat="46.04178" lon="13.5880283"><ele>87.2</ele><time>2026-05-03T09:47:09.595Z</time></trkpt><trkpt lat="46.0418817" lon="13.5880717"><ele>86.8</ele><time>2026-05-03T09:47:10.594Z</time></trkpt><trkpt lat="46.0419933" lon="13.5880717"><ele>86.4</ele><time>2026-05-03T09:47:11.594Z</time></trkpt><trkpt lat="46.0421083" lon="13.5880433"><ele>86.0</ele><time>2026-05-03T09:47:12.595Z</time></trkpt><trkpt lat="46.0422183" lon="13.58802"><ele>86.0</ele><time>2026-05-03T09:47:13.594Z</time></trkpt><trkpt lat="46.04232" lon="13.588035"><ele>86.0</ele><time>2026-05-03T09:47:14.595Z</time></trkpt><trkpt lat="46.0424233" lon="13.5880867"><ele>86.0</ele><time>2026-05-03T09:47:15.595Z</time></trkpt><trkpt lat="46.042535" lon="13.588145"><ele>86.0</ele><time>2026-05-03T09:47:16.595Z</time></trkpt><trkpt lat="46.042645" lon="13.5882233"><ele>88.0</ele><time>2026-05-03T09:47:17.594Z</time></trkpt><trkpt lat="46.0427567" lon="13.5882933"><ele>90.0</ele><time>2026-05-03T09:47:18.594Z</time></trkpt><trkpt lat="46.042835" lon="13.5884267"><ele>92.0</ele><time>2026-05-03T09:47:19.595Z</time></trkpt><trkpt lat="46.0429167" lon="13.5885383"><ele>94.0</ele><time>2026-05-03T09:47:20.596Z</time></trkpt><trkpt lat="46.0430067" lon="13.5886317"><ele>94.0</ele><time>2026-05-03T09:47:21.595Z</time></trkpt><trkpt lat="46.043105" lon="13.5886933"><ele>94.0</ele><time>2026-05-03T09:47:22.594Z</time></trkpt><trkpt lat="46.04321" lon="13.588725"><ele>94.0</ele><time>2026-05-03T09:47:23.595Z</time></trkpt><trkpt lat="46.0433283" lon="13.5887083"><ele>94.0</ele><time>2026-05-03T09:47:24.594Z</time></trkpt><trkpt lat="46.0434433" lon="13.5886933"><ele>94.0</ele><time>2026-05-03T09:47:25.594Z</time></trkpt><trkpt lat="46.0435683" lon="13.5887217"><ele>94.0</ele><time>2026-05-03T09:47:26.594Z</time></trkpt><trkpt lat="46.0436983" lon="13.588725"><ele>94.0</ele><time>2026-05-03T09:47:27.594Z</time></trkpt><trkpt lat="46.04383" lon="13.5887567"><ele>94.0</ele><time>2026-05-03T09:47:28.595Z</time></trkpt><trkpt lat="46.04396" lon="13.5888083"><ele>94.0</ele><time>2026-05-03T09:47:29.595Z</time></trkpt><trkpt lat="46.044095" lon="13.58887"><ele>93.5</ele><time>2026-05-03T09:47:30.595Z</time></trkpt><trkpt lat="46.0442283" lon="13.5889417"><ele>93.0</ele><time>2026-05-03T09:47:31.595Z</time></trkpt><trkpt lat="46.0443633" lon="13.58901"><ele>92.5</ele><time>2026-05-03T09:47:32.597Z</time></trkpt><trkpt lat="46.0444983" lon="13.58908"><ele>92.0</ele><time>2026-05-03T09:47:33.594Z</time></trkpt><trkpt lat="46.04463" lon="13.58915"><ele>92.0</ele><time>2026-05-03T09:47:34.595Z</time></trkpt><trkpt lat="46.04476" lon="13.5892217"><ele>92.0</ele><time>2026-05-03T09:47:35.595Z</time></trkpt><trkpt lat="46.0448783" lon="13.5892833"><ele>92.0</ele><time>2026-05-03T09:47:36.594Z</time></trkpt><trkpt lat="46.044985" lon="13.589355"><ele>92.0</ele><time>2026-05-03T09:47:37.595Z</time></trkpt><trkpt lat="46.0450917" lon="13.58944"><ele>91.5</ele><time>2026-05-03T09:47:38.595Z</time></trkpt><trkpt lat="46.0451783" lon="13.5895683"><ele>91.0</ele><time>2026-05-03T09:47:39.595Z</time></trkpt><trkpt lat="46.0452667" lon="13.589705"><ele>90.5</ele><time>2026-05-03T09:47:40.595Z</time></trkpt><trkpt lat="46.0453567" lon="13.58983"><ele>90.0</ele><time>2026-05-03T09:47:41.595Z</time></trkpt><trkpt lat="46.04546" lon="13.589935"><ele>90.0</ele><time>2026-05-03T09:47:42.594Z</time></trkpt><trkpt lat="46.0455817" lon="13.5900333"><ele>90.0</ele><time>2026-05-03T09:47:43.594Z</time></trkpt><trkpt lat="46.045715" lon="13.590125"><ele>90.0</ele><time>2026-05-03T09:47:44.595Z</time></trkpt><trkpt lat="46.0458367" lon="13.590225"><ele>90.0</ele><time>2026-05-03T09:47:45.594Z</time></trkpt><trkpt lat="46.0459617" lon="13.5903283"><ele>88.66666666666667</ele><time>2026-05-03T09:47:46.596Z</time></trkpt><trkpt lat="46.046105" lon="13.5904167"><ele>87.33333333333334</ele><time>2026-05-03T09:47:47.595Z</time></trkpt><trkpt lat="46.0462483" lon="13.5905017"><ele>86.0</ele><time>2026-05-03T09:47:48.594Z</time></trkpt><trkpt lat="46.04638" lon="13.5906017"><ele>86.0</ele><time>2026-05-03T09:47:49.594Z</time></trkpt><trkpt lat="46.0465067" lon="13.5907"><ele>86.0</ele><time>2026-05-03T09:47:50.594Z</time></trkpt><trkpt lat="46.0466317" lon="13.5907983"><ele>86.0</ele><time>2026-05-03T09:47:51.595Z</time></trkpt><trkpt lat="46.0467567" lon="13.5908783"><ele>86.0</ele><time>2026-05-03T09:47:52.595Z</time></trkpt><trkpt lat="46.0468767" lon="13.5909533"><ele>86.6</ele><time>2026-05-03T09:47:53.594Z</time></trkpt><trkpt lat="46.0469917" lon="13.5910217"><ele>87.19999999999999</ele><time>2026-05-03T09:47:54.595Z</time></trkpt><trkpt lat="46.047105" lon="13.5910533"><ele>87.80000000000001</ele><time>2026-05-03T09:47:55.594Z</time></trkpt><trkpt lat="46.0472117" lon="13.5910867"><ele>88.4</ele><time>2026-05-03T09:47:56.594Z</time></trkpt><trkpt lat="46.0473" lon="13.5911483"><ele>89.0</ele><time>2026-05-03T09:47:57.594Z</time></trkpt><trkpt lat="46.0473667" lon="13.5912217"><ele>89.0</ele><time>2026-05-03T09:47:58.594Z</time></trkpt><trkpt lat="46.04742" lon="13.5912933"><ele>89.0</ele><time>2026-05-03T09:47:59.595Z</time></trkpt><trkpt lat="46.0475217" lon="13.591335"><ele>89.0</ele><time>2026-05-03T09:48:01.594Z</time></trkpt><trkpt lat="46.0476467" lon="13.5912817"><ele>89.0</ele><time>2026-05-03T09:48:03.596Z</time></trkpt><trkpt lat="46.0477233" lon="13.5912333"><ele>89.0</ele><time>2026-05-03T09:48:04.595Z</time></trkpt><trkpt lat="46.047805" lon="13.5911883"><ele>89.83333333333334</ele><time>2026-05-03T09:48:05.594Z</time></trkpt><trkpt lat="46.0478883" lon="13.591155"><ele>90.66666666666667</ele><time>2026-05-03T09:48:06.594Z</time></trkpt><trkpt lat="46.047965" lon="13.5911133"><ele>91.5</ele><time>2026-05-03T09:48:07.596Z</time></trkpt><trkpt lat="46.0480433" lon="13.5910783"><ele>92.33333333333333</ele><time>2026-05-03T09:48:08.595Z</time></trkpt><trkpt lat="46.0481267" lon="13.5910667"><ele>93.16666666666666</ele><time>2026-05-03T09:48:09.594Z</time></trkpt><trkpt lat="46.048205" lon="13.5910733"><ele>94.0</ele><time>2026-05-03T09:48:10.596Z</time></trkpt><trkpt lat="46.0482833" lon="13.5911017"><ele>95.66666666666666</ele><time>2026-05-03T09:48:11.595Z</time></trkpt><trkpt lat="46.0483483" lon="13.59113"><ele>97.33333333333333</ele><time>2026-05-03T09:48:12.596Z</time></trkpt><trkpt lat="46.0484483" lon="13.5911167"><ele>99.0</ele><time>2026-05-03T09:48:14.593Z</time></trkpt><trkpt lat="46.0485033" lon="13.5910233"><ele>100.66666666666666</ele><time>2026-05-03T09:48:16.594Z</time></trkpt><trkpt lat="46.048515" lon="13.59089"><ele>102.33333333333333</ele><time>2026-05-03T09:48:18.594Z</time></trkpt><trkpt lat="46.048455" lon="13.59078"><ele>104.0</ele><time>2026-05-03T09:48:20.593Z</time></trkpt><trkpt lat="46.0483933" lon="13.5907267"><ele>104.0</ele><time>2026-05-03T09:48:21.593Z</time></trkpt><trkpt lat="46.0482967" lon="13.59066"><ele>104.0</ele><time>2026-05-03T09:48:22.594Z</time></trkpt><trkpt lat="46.048205" lon="13.5905717"><ele>104.0</ele><time>2026-05-03T09:48:23.594Z</time></trkpt><trkpt lat="46.0480967" lon="13.5905033"><ele>104.0</ele><time>2026-05-03T09:48:24.595Z</time></trkpt><trkpt lat="46.0479867" lon="13.5904367"><ele>104.4</ele><time>2026-05-03T09:48:25.595Z</time></trkpt><trkpt lat="46.0478917" lon="13.5903483"><ele>104.80000000000001</ele><time>2026-05-03T09:48:26.594Z</time></trkpt><trkpt lat="46.047815" lon="13.5902367"><ele>105.19999999999999</ele><time>2026-05-03T09:48:27.593Z</time></trkpt><trkpt lat="46.0477417" lon="13.5901433"><ele>105.6</ele><time>2026-05-03T09:48:28.594Z</time></trkpt><trkpt lat="46.0476883" lon="13.5900133"><ele>106.0</ele><time>2026-05-03T09:48:29.594Z</time></trkpt><trkpt lat="46.0476367" lon="13.58992"><ele>106.00000000000001</ele><time>2026-05-03T09:48:30.593Z</time></trkpt><trkpt lat="46.0475883" lon="13.589835"><ele>106.0</ele><time>2026-05-03T09:48:31.594Z</time></trkpt><trkpt lat="46.0475517" lon="13.5897583"><ele>106.0</ele><time>2026-05-03T09:48:32.595Z</time></trkpt><trkpt lat="46.047575" lon="13.5896067"><ele>106.0</ele><time>2026-05-03T09:48:34.594Z</time></trkpt><trkpt lat="46.047605" lon="13.5895233"><ele>106.00000000000001</ele><time>2026-05-03T09:48:35.594Z</time></trkpt><trkpt lat="46.0476917" lon="13.5893983"><ele>106.0</ele><time>2026-05-03T09:48:36.594Z</time></trkpt><trkpt lat="46.0477617" lon="13.58927"><ele>109.5</ele><time>2026-05-03T09:48:37.595Z</time></trkpt><trkpt lat="46.0478283" lon="13.5891283"><ele>113.0</ele><time>2026-05-03T09:48:38.595Z</time></trkpt><trkpt lat="46.0478933" lon="13.5889667"><ele>116.5</ele><time>2026-05-03T09:48:39.593Z</time></trkpt><trkpt lat="46.0479667" lon="13.5888117"><ele>120.0</ele><time>2026-05-03T09:48:40.593Z</time></trkpt><trkpt lat="46.0480567" lon="13.5886767"><ele>122.0</ele><time>2026-05-03T09:48:41.593Z</time></trkpt><trkpt lat="46.0481383" lon="13.5885367"><ele>124.0</ele><time>2026-05-03T09:48:42.594Z</time></trkpt><trkpt lat="46.0482233" lon="13.5884"><ele>126.0</ele><time>2026-05-03T09:48:43.595Z</time></trkpt><trkpt lat="46.04832" lon="13.5882867"><ele>128.0</ele><time>2026-05-03T09:48:44.594Z</time></trkpt><trkpt lat="46.0484067" lon="13.588165"><ele>128.0</ele><time>2026-05-03T09:48:45.593Z</time></trkpt><trkpt lat="46.0484917" lon="13.5880367"><ele>128.0</ele><time>2026-05-03T09:48:46.593Z</time></trkpt><trkpt lat="46.04856" lon="13.5878883"><ele>128.0</ele><time>2026-05-03T09:48:47.595Z</time></trkpt><trkpt lat="46.0486183" lon="13.5877417"><ele>128.0</ele><time>2026-05-03T09:48:48.593Z</time></trkpt><trkpt lat="46.0486533" lon="13.5875917"><ele>130.0</ele><time>2026-05-03T09:48:49.595Z</time></trkpt><trkpt lat="46.0486983" lon="13.5874783"><ele>132.0</ele><time>2026-05-03T09:48:50.595Z</time></trkpt><trkpt lat="46.0487667" lon="13.5874"><ele>134.0</ele><time>2026-05-03T09:48:51.593Z</time></trkpt><trkpt lat="46.048845" lon="13.5873167"><ele>136.0</ele><time>2026-05-03T09:48:52.593Z</time></trkpt><trkpt lat="46.04894" lon="13.58722"><ele>138.0</ele><time>2026-05-03T09:48:53.594Z</time></trkpt><trkpt lat="46.049045" lon="13.58709"><ele>139.25</ele><time>2026-05-03T09:48:54.594Z</time></trkpt><trkpt lat="46.049155" lon="13.5869633"><ele>140.5</ele><time>2026-05-03T09:48:55.594Z</time></trkpt><trkpt lat="46.0492667" lon="13.5868433"><ele>141.75</ele><time>2026-05-03T09:48:56.595Z</time></trkpt><trkpt lat="46.04937" lon="13.5867217"><ele>143.0</ele><time>2026-05-03T09:48:57.595Z</time></trkpt><trkpt lat="46.0494617" lon="13.5865917"><ele>143.0</ele><time>2026-05-03T09:48:58.594Z</time></trkpt><trkpt lat="46.049545" lon="13.5864483"><ele>143.0</ele><time>2026-05-03T09:48:59.595Z</time></trkpt><trkpt lat="46.0496183" lon="13.58631"><ele>143.0</ele><time>2026-05-03T09:49:00.595Z</time></trkpt><trkpt lat="46.0496833" lon="13.5861933"><ele>143.0</ele><time>2026-05-03T09:49:01.594Z</time></trkpt><trkpt lat="46.0497367" lon="13.58608"><ele>143.0</ele><time>2026-05-03T09:49:02.594Z</time></trkpt><trkpt lat="46.04977" lon="13.58598"><ele>143.0</ele><time>2026-05-03T09:49:03.593Z</time></trkpt><trkpt lat="46.049795" lon="13.5858417"><ele>143.0</ele><time>2026-05-03T09:49:05.595Z</time></trkpt><trkpt lat="46.0498233" lon="13.5859633"><ele>143.0</ele><time>2026-05-03T09:49:09.593Z</time></trkpt><trkpt lat="46.049775" lon="13.58606"><ele>143.0</ele><time>2026-05-03T09:49:10.593Z</time></trkpt><trkpt lat="46.0497517" lon="13.5861583"><ele>143.0</ele><time>2026-05-03T09:49:11.594Z</time></trkpt><trkpt lat="46.0497333" lon="13.5862867"><ele>143.0</ele><time>2026-05-03T09:49:12.595Z</time></trkpt><trkpt lat="46.0496983" lon="13.5864267"><ele>143.0</ele><time>2026-05-03T09:49:13.595Z</time></trkpt><trkpt lat="46.049675" lon="13.58658"><ele>143.0</ele><time>2026-05-03T09:49:14.593Z</time></trkpt><trkpt lat="46.04964" lon="13.5867317"><ele>143.0</ele><time>2026-05-03T09:49:15.594Z</time></trkpt><trkpt lat="46.0495867" lon="13.586865"><ele>143.0</ele><time>2026-05-03T09:49:16.595Z</time></trkpt><trkpt lat="46.049525" lon="13.5869683"><ele>143.0</ele><time>2026-05-03T09:49:17.594Z</time></trkpt><trkpt lat="46.0494717" lon="13.5870533"><ele>143.0</ele><time>2026-05-03T09:49:18.594Z</time></trkpt><trkpt lat="46.0494383" lon="13.5871317"><ele>143.0</ele><time>2026-05-03T09:49:19.593Z</time></trkpt><trkpt lat="46.04945" lon="13.587265"><ele>143.0</ele><time>2026-05-03T09:49:21.593Z</time></trkpt><trkpt lat="46.0495317" lon="13.5872617"><ele>143.0</ele><time>2026-05-03T09:49:23.593Z</time></trkpt><trkpt lat="46.0495883" lon="13.5871767"><ele>143.0</ele><time>2026-05-03T09:49:24.594Z</time></trkpt><trkpt lat="46.0496467" lon="13.5870833"><ele>143.0</ele><time>2026-05-03T09:49:25.593Z</time></trkpt><trkpt lat="46.0497183" lon="13.586985"><ele>143.0</ele><time>2026-05-03T09:49:26.596Z</time></trkpt><trkpt lat="46.0497867" lon="13.5868667"><ele>143.0</ele><time>2026-05-03T09:49:27.594Z</time></trkpt><trkpt lat="46.049845" lon="13.5867283"><ele>143.0</ele><time>2026-05-03T09:49:28.594Z</time></trkpt><trkpt lat="46.0499" lon="13.5865883"><ele>143.0</ele><time>2026-05-03T09:49:29.594Z</time></trkpt><trkpt lat="46.0499617" lon="13.5864533"><ele>143.0</ele><time>2026-05-03T09:49:30.594Z</time></trkpt><trkpt lat="46.0500333" lon="13.58633"><ele>144.20000000000002</ele><time>2026-05-03T09:49:31.594Z</time></trkpt><trkpt lat="46.0501033" lon="13.5862367"><ele>145.4</ele><time>2026-05-03T09:49:32.594Z</time></trkpt><trkpt lat="46.050185" lon="13.5861583"><ele>146.60000000000002</ele><time>2026-05-03T09:49:33.593Z</time></trkpt><trkpt lat="46.0502767" lon="13.586115"><ele>147.8</ele><time>2026-05-03T09:49:34.594Z</time></trkpt><trkpt lat="46.0503817" lon="13.5860767"><ele>149.0</ele><time>2026-05-03T09:49:35.594Z</time></trkpt><trkpt lat="46.0504867" lon="13.5860217"><ele>149.0</ele><time>2026-05-03T09:49:36.595Z</time></trkpt><trkpt lat="46.0505767" lon="13.5859217"><ele>149.0</ele><time>2026-05-03T09:49:37.595Z</time></trkpt><trkpt lat="46.0506533" lon="13.585795"><ele>149.0</ele><time>2026-05-03T09:49:38.595Z</time></trkpt><trkpt lat="46.0507317" lon="13.5856867"><ele>149.0</ele><time>2026-05-03T09:49:39.594Z</time></trkpt><trkpt lat="46.050805" lon="13.5855867"><ele>149.0</ele><time>2026-05-03T09:49:40.595Z</time></trkpt><trkpt lat="46.0508733" lon="13.585495"><ele>151.16666666666666</ele><time>2026-05-03T09:49:41.598Z</time></trkpt><trkpt lat="46.0509167" lon="13.5853917"><ele>153.33333333333331</ele><time>2026-05-03T09:49:42.593Z</time></trkpt><trkpt lat="46.0509467" lon="13.585265"><ele>155.5</ele><time>2026-05-03T09:49:43.593Z</time></trkpt><trkpt lat="46.05096" lon="13.5851467"><ele>157.66666666666666</ele><time>2026-05-03T09:49:44.595Z</time></trkpt><trkpt lat="46.0509733" lon="13.5850517"><ele>159.83333333333334</ele><time>2026-05-03T09:49:45.593Z</time></trkpt><trkpt lat="46.0510567" lon="13.5849783"><ele>162.0</ele><time>2026-05-03T09:49:47.595Z</time></trkpt><trkpt lat="46.0511167" lon="13.5850883"><ele>162.0</ele><time>2026-05-03T09:49:49.596Z</time></trkpt><trkpt lat="46.0511033" lon="13.585275"><ele>162.0</ele><time>2026-05-03T09:49:51.594Z</time></trkpt><trkpt lat="46.0510633" lon="13.5853917"><ele>162.0</ele><time>2026-05-03T09:49:52.594Z</time></trkpt><trkpt lat="46.0510217" lon="13.5855133"><ele>162.0</ele><time>2026-05-03T09:49:53.593Z</time></trkpt><trkpt lat="46.0509667" lon="13.5856317"><ele>162.0</ele><time>2026-05-03T09:49:54.594Z</time></trkpt><trkpt lat="46.0509067" lon="13.5857567"><ele>161.4</ele><time>2026-05-03T09:49:55.593Z</time></trkpt><trkpt lat="46.05085" lon="13.585885"><ele>160.79999999999998</ele><time>2026-05-03T09:49:56.594Z</time></trkpt><trkpt lat="46.0508017" lon="13.5860117"><ele>160.2</ele><time>2026-05-03T09:49:57.595Z</time></trkpt><trkpt lat="46.0507617" lon="13.5861317"><ele>159.6</ele><time>2026-05-03T09:49:58.594Z</time></trkpt><trkpt lat="46.0507283" lon="13.586245"><ele>159.0</ele><time>2026-05-03T09:49:59.595Z</time></trkpt><trkpt lat="46.0507" lon="13.5863433"><ele>159.0</ele><time>2026-05-03T09:50:00.594Z</time></trkpt><trkpt lat="46.0507083" lon="13.58649"><ele>159.0</ele><time>2026-05-03T09:50:02.594Z</time></trkpt><trkpt lat="46.050805" lon="13.5864517"><ele>159.0</ele><time>2026-05-03T09:50:05.594Z</time></trkpt><trkpt lat="46.0508267" lon="13.586345"><ele>159.0</ele><time>2026-05-03T09:50:06.595Z</time></trkpt><trkpt lat="46.0508533" lon="13.586255"><ele>159.0</ele><time>2026-05-03T09:50:07.594Z</time></trkpt><trkpt lat="46.0509067" lon="13.58618"><ele>159.0</ele><time>2026-05-03T09:50:08.595Z</time></trkpt><trkpt lat="46.050965" lon="13.5861"><ele>162.2</ele><time>2026-05-03T09:50:09.593Z</time></trkpt><trkpt lat="46.0510383" lon="13.5860267"><ele>165.4</ele><time>2026-05-03T09:50:10.595Z</time></trkpt><trkpt lat="46.0511167" lon="13.5859567"><ele>168.6</ele><time>2026-05-03T09:50:11.594Z</time></trkpt><trkpt lat="46.05119" lon="13.5858717"><ele>171.8</ele><time>2026-05-03T09:50:12.594Z</time></trkpt><trkpt lat="46.0512517" lon="13.5857633"><ele>175.0</ele><time>2026-05-03T09:50:13.594Z</time></trkpt><trkpt lat="46.0512883" lon="13.58565"><ele>175.0</ele><time>2026-05-03T09:50:14.596Z</time></trkpt><trkpt lat="46.0513067" lon="13.585545"><ele>175.0</ele><time>2026-05-03T09:50:15.593Z</time></trkpt><trkpt lat="46.0513283" lon="13.5854583"><ele>175.0</ele><time>2026-05-03T09:50:16.594Z</time></trkpt><trkpt lat="46.0514033" lon="13.5853733"><ele>175.0</ele><time>2026-05-03T09:50:18.593Z</time></trkpt><trkpt lat="46.0514583" lon="13.58544"><ele>175.0</ele><time>2026-05-03T09:50:20.594Z</time></trkpt><trkpt lat="46.0514317" lon="13.585595"><ele>175.0</ele><time>2026-05-03T09:50:22.594Z</time></trkpt><trkpt lat="46.0513883" lon="13.5857083"><ele>175.0</ele><time>2026-05-03T09:50:23.594Z</time></trkpt><trkpt lat="46.05133" lon="13.5858467"><ele>175.0</ele><time>2026-05-03T09:50:24.593Z</time></trkpt><trkpt lat="46.0512783" lon="13.5860017"><ele>175.0</ele><time>2026-05-03T09:50:25.595Z</time></trkpt><trkpt lat="46.05123" lon="13.5861483"><ele>175.0</ele><time>2026-05-03T09:50:26.596Z</time></trkpt><trkpt lat="46.05118" lon="13.5862733"><ele>175.0</ele><time>2026-05-03T09:50:27.594Z</time></trkpt><trkpt lat="46.05113" lon="13.5863633"><ele>176.8</ele><time>2026-05-03T09:50:28.595Z</time></trkpt><trkpt lat="46.0511117" lon="13.5865433"><ele>178.6</ele><time>2026-05-03T09:50:30.594Z</time></trkpt><trkpt lat="46.0511233" lon="13.5866567"><ele>180.39999999999998</ele><time>2026-05-03T09:50:31.594Z</time></trkpt><trkpt lat="46.05115" lon="13.586785"><ele>182.2</ele><time>2026-05-03T09:50:32.595Z</time></trkpt><trkpt lat="46.05117" lon="13.5869133"><ele>184.0</ele><time>2026-05-03T09:50:33.594Z</time></trkpt><trkpt lat="46.0511983" lon="13.5870283"><ele>185.16666666666669</ele><time>2026-05-03T09:50:34.593Z</time></trkpt><trkpt lat="46.0512033" lon="13.5871433"><ele>186.33333333333334</ele><time>2026-05-03T09:50:35.594Z</time></trkpt><trkpt lat="46.05118" lon="13.58726"><ele>187.5</ele><time>2026-05-03T09:50:36.595Z</time></trkpt><trkpt lat="46.05114" lon="13.5873733"><ele>188.66666666666666</ele><time>2026-05-03T09:50:37.595Z</time></trkpt><trkpt lat="46.0510967" lon="13.5874867"><ele>189.83333333333331</ele><time>2026-05-03T09:50:38.595Z</time></trkpt><trkpt lat="46.0510517" lon="13.5875917"><ele>191.0</ele><time>2026-05-03T09:50:39.595Z</time></trkpt><trkpt lat="46.0510267" lon="13.5876933"><ele>191.0</ele><time>2026-05-03T09:50:40.594Z</time></trkpt><trkpt lat="46.0510017" lon="13.5877867"><ele>191.0</ele><time>2026-05-03T09:50:41.593Z</time></trkpt><trkpt lat="46.05099" lon="13.5878817"><ele>191.0</ele><time>2026-05-03T09:50:42.594Z</time></trkpt><trkpt lat="46.050995" lon="13.587975"><ele>191.0</ele><time>2026-05-03T09:50:43.594Z</time></trkpt><trkpt lat="46.0510017" lon="13.58807"><ele>191.0</ele><time>2026-05-03T09:50:44.595Z</time></trkpt><trkpt lat="46.0510133" lon="13.5881683"><ele>191.0</ele><time>2026-05-03T09:50:45.594Z</time></trkpt><trkpt lat="46.0510267" lon="13.5882633"><ele>191.0</ele><time>2026-05-03T09:50:46.594Z</time></trkpt><trkpt lat="46.0510333" lon="13.58836"><ele>193.16666666666666</ele><time>2026-05-03T09:50:47.594Z</time></trkpt><trkpt lat="46.05102" lon="13.588455"><ele>195.33333333333331</ele><time>2026-05-03T09:50:48.595Z</time></trkpt><trkpt lat="46.0509767" lon="13.588605"><ele>197.5</ele><time>2026-05-03T09:50:50.595Z</time></trkpt><trkpt lat="46.0509667" lon="13.5887"><ele>199.66666666666666</ele><time>2026-05-03T09:50:52.594Z</time></trkpt><trkpt lat="46.0510333" lon="13.5887417"><ele>201.83333333333334</ele><time>2026-05-03T09:50:55.596Z</time></trkpt><trkpt lat="46.05109" lon="13.58866"><ele>204.0</ele><time>2026-05-03T09:50:57.595Z</time></trkpt><trkpt lat="46.0511267" lon="13.5884983"><ele>204.0</ele><time>2026-05-03T09:50:59.595Z</time></trkpt><trkpt lat="46.0511483" lon="13.5883883"><ele>204.0</ele><time>2026-05-03T09:51:00.593Z</time></trkpt><trkpt lat="46.051175" lon="13.588275"><ele>204.0</ele><time>2026-05-03T09:51:01.596Z</time></trkpt><trkpt lat="46.0512083" lon="13.5881717"><ele>204.0</ele><time>2026-05-03T09:51:02.596Z</time></trkpt><trkpt lat="46.05125" lon="13.588085"><ele>204.0</ele><time>2026-05-03T09:51:03.594Z</time></trkpt><trkpt lat="46.0512967" lon="13.58801"><ele>204.0</ele><time>2026-05-03T09:51:04.595Z</time></trkpt><trkpt lat="46.0513467" lon="13.587945"><ele>204.0</ele><time>2026-05-03T09:51:05.594Z</time></trkpt><trkpt lat="46.0514033" lon="13.5878883"><ele>204.0</ele><time>2026-05-03T09:51:06.598Z</time></trkpt><trkpt lat="46.05147" lon="13.58784"><ele>204.0</ele><time>2026-05-03T09:51:07.595Z</time></trkpt><trkpt lat="46.0515383" lon="13.5877883"><ele>204.0</ele><time>2026-05-03T09:51:08.595Z</time></trkpt><trkpt lat="46.0516017" lon="13.5877267"><ele>204.0</ele><time>2026-05-03T09:51:09.595Z</time></trkpt><trkpt lat="46.0516583" lon="13.587655"><ele>204.0</ele><time>2026-05-03T09:51:10.594Z</time></trkpt><trkpt lat="46.0517083" lon="13.5875767"><ele>204.0</ele><time>2026-05-03T09:51:11.595Z</time></trkpt><trkpt lat="46.05176" lon="13.5874933"><ele>207.2</ele><time>2026-05-03T09:51:12.595Z</time></trkpt><trkpt lat="46.0518167" lon="13.5874067"><ele>210.39999999999998</ele><time>2026-05-03T09:51:13.596Z</time></trkpt><trkpt lat="46.05188" lon="13.5873133"><ele>213.6</ele><time>2026-05-03T09:51:14.595Z</time></trkpt><trkpt lat="46.0519567" lon="13.587225"><ele>216.8</ele><time>2026-05-03T09:51:15.594Z</time></trkpt><trkpt lat="46.052035" lon="13.5871333"><ele>220.0</ele><time>2026-05-03T09:51:16.594Z</time></trkpt><trkpt lat="46.0521" lon="13.5870333"><ele>219.16666666666666</ele><time>2026-05-03T09:51:17.595Z</time></trkpt><trkpt lat="46.0521533" lon="13.5869367"><ele>218.33333333333331</ele><time>2026-05-03T09:51:18.594Z</time></trkpt><trkpt lat="46.0521867" lon="13.586835"><ele>217.5</ele><time>2026-05-03T09:51:19.594Z</time></trkpt><trkpt lat="46.0522133" lon="13.5867317"><ele>216.66666666666669</ele><time>2026-05-03T09:51:20.595Z</time></trkpt><trkpt lat="46.0522383" lon="13.5866383"><ele>215.83333333333334</ele><time>2026-05-03T09:51:21.595Z</time></trkpt><trkpt lat="46.0522967" lon="13.5865183"><ele>215.0</ele><time>2026-05-03T09:51:23.595Z</time></trkpt><trkpt lat="46.0523967" lon="13.5864717"><ele>215.00000000000003</ele><time>2026-05-03T09:51:25.596Z</time></trkpt><trkpt lat="46.052495" lon="13.5864833"><ele>215.0</ele><time>2026-05-03T09:51:27.593Z</time></trkpt><trkpt lat="46.0525167" lon="13.5865867"><ele>215.0</ele><time>2026-05-03T09:51:30.595Z</time></trkpt><trkpt lat="46.0524783" lon="13.586675"><ele>215.0</ele><time>2026-05-03T09:51:32.595Z</time></trkpt><trkpt lat="46.0523967" lon="13.5868017"><ele>215.00000000000003</ele><time>2026-05-03T09:51:34.595Z</time></trkpt><trkpt lat="46.0523567" lon="13.5868817"><ele>215.0</ele><time>2026-05-03T09:51:35.594Z</time></trkpt><trkpt lat="46.0523273" lon="13.5869757"><ele>215.83333333333334</ele><time>2026-05-03T09:51:36.595Z</time></trkpt><trkpt lat="46.0523054" lon="13.5870787"><ele>216.66666666666669</ele><time>2026-05-03T09:51:37.595Z</time></trkpt><trkpt lat="46.0522874" lon="13.5871929"><ele>217.5</ele><time>2026-05-03T09:51:38.595Z</time></trkpt><trkpt lat="46.0522667" lon="13.5873161"><ele>218.33333333333331</ele><time>2026-05-03T09:51:39.594Z</time></trkpt><trkpt lat="46.0522419" lon="13.5874424"><ele>219.16666666666666</ele><time>2026-05-03T09:51:40.595Z</time></trkpt><trkpt lat="46.0522168" lon="13.5875715"><ele>220.0</ele><time>2026-05-03T09:51:41.594Z</time></trkpt><trkpt lat="46.0521935" lon="13.5877028"><ele>220.0</ele><time>2026-05-03T09:51:42.595Z</time></trkpt><trkpt lat="46.0521621" lon="13.5878367"><ele>220.0</ele><time>2026-05-03T09:51:43.594Z</time></trkpt><trkpt lat="46.0521226" lon="13.5879655"><ele>220.0</ele><time>2026-05-03T09:51:44.596Z</time></trkpt><trkpt lat="46.0520721" lon="13.5880885"><ele>220.0</ele><time>2026-05-03T09:51:45.594Z</time></trkpt><trkpt lat="46.0520267" lon="13.5882092"><ele>220.0</ele><time>2026-05-03T09:51:46.596Z</time></trkpt><trkpt lat="46.0519886" lon="13.5883338"><ele>221.66666666666666</ele><time>2026-05-03T09:51:47.594Z</time></trkpt><trkpt lat="46.0519629" lon="13.5884514"><ele>223.33333333333331</ele><time>2026-05-03T09:51:48.595Z</time></trkpt><trkpt lat="46.0519494" lon="13.588561"><ele>225.0</ele><time>2026-05-03T09:51:49.595Z</time></trkpt><trkpt lat="46.0519356" lon="13.5886538"><ele>226.66666666666669</ele><time>2026-05-03T09:51:50.596Z</time></trkpt><trkpt lat="46.051934" lon="13.5887637"><ele>228.33333333333334</ele><time>2026-05-03T09:51:52.595Z</time></trkpt><trkpt lat="46.0520151" lon="13.5887655"><ele>230.0</ele><time>2026-05-03T09:51:55.595Z</time></trkpt><trkpt lat="46.0520559" lon="13.5886551"><ele>230.00000000000003</ele><time>2026-05-03T09:51:57.594Z</time></trkpt><trkpt lat="46.0520697" lon="13.5885662"><ele>230.0</ele><time>2026-05-03T09:51:58.594Z</time></trkpt><trkpt lat="46.0520908" lon="13.5884703"><ele>230.0</ele><time>2026-05-03T09:51:59.595Z</time></trkpt><trkpt lat="46.052127" lon="13.5883773"><ele>230.0</ele><time>2026-05-03T09:52:00.595Z</time></trkpt><trkpt lat="46.0521777" lon="13.5882915"><ele>230.00000000000003</ele><time>2026-05-03T09:52:01.594Z</time></trkpt><trkpt lat="46.0522418" lon="13.5882067"><ele>230.0</ele><time>2026-05-03T09:52:02.595Z</time></trkpt><trkpt lat="46.0523192" lon="13.5881208"><ele>230.0</ele><time>2026-05-03T09:52:03.595Z</time></trkpt><trkpt lat="46.0524061" lon="13.5880332"><ele>230.0</ele><time>2026-05-03T09:52:04.595Z</time></trkpt><trkpt lat="46.0524934" lon="13.5879396"><ele>230.0</ele><time>2026-05-03T09:52:05.594Z</time></trkpt><trkpt lat="46.0525728" lon="13.5878512"><ele>230.0</ele><time>2026-05-03T09:52:06.594Z</time></trkpt><trkpt lat="46.0526386" lon="13.5877785"><ele>230.0</ele><time>2026-05-03T09:52:07.596Z</time></trkpt><trkpt lat="46.0526958" lon="13.5877105"><ele>233.33333333333334</ele><time>2026-05-03T09:52:08.594Z</time></trkpt><trkpt lat="46.0527487" lon="13.5876375"><ele>236.66666666666669</ele><time>2026-05-03T09:52:09.594Z</time></trkpt><trkpt lat="46.0527994" lon="13.5875556"><ele>240.0</ele><time>2026-05-03T09:52:10.595Z</time></trkpt><trkpt lat="46.0528479" lon="13.5874694"><ele>243.33333333333331</ele><time>2026-05-03T09:52:11.594Z</time></trkpt><trkpt lat="46.0529031" lon="13.5873869"><ele>246.66666666666666</ele><time>2026-05-03T09:52:12.595Z</time></trkpt><trkpt lat="46.0529661" lon="13.587303"><ele>250.0</ele><time>2026-05-03T09:52:13.595Z</time></trkpt><trkpt lat="46.0530331" lon="13.5872153"><ele>250.0</ele><time>2026-05-03T09:52:14.595Z</time></trkpt><trkpt lat="46.0530981" lon="13.5871131"><ele>250.0</ele><time>2026-05-03T09:52:15.594Z</time></trkpt><trkpt lat="46.053166" lon="13.5870142"><ele>250.0</ele><time>2026-05-03T09:52:16.594Z</time></trkpt><trkpt lat="46.0532334" lon="13.5869326"><ele>250.0</ele><time>2026-05-03T09:52:17.594Z</time></trkpt><trkpt lat="46.053304" lon="13.5868614"><ele>250.0</ele><time>2026-05-03T09:52:18.595Z</time></trkpt><trkpt lat="46.0533792" lon="13.5867903"><ele>253.33333333333331</ele><time>2026-05-03T09:52:19.594Z</time></trkpt><trkpt lat="46.0534549" lon="13.5867147"><ele>256.66666666666663</ele><time>2026-05-03T09:52:20.594Z</time></trkpt><trkpt lat="46.0535302" lon="13.5866391"><ele>260.0</ele><time>2026-05-03T09:52:21.594Z</time></trkpt><trkpt lat="46.0535997" lon="13.5865621"><ele>263.3333333333333</ele><time>2026-05-03T09:52:22.596Z</time></trkpt><trkpt lat="46.0536649" lon="13.5864851"><ele>266.6666666666667</ele><time>2026-05-03T09:52:23.594Z</time></trkpt><trkpt lat="46.0537257" lon="13.5864029"><ele>270.0</ele><time>2026-05-03T09:52:24.595Z</time></trkpt><trkpt lat="46.0537793" lon="13.5863189"><ele>270.0</ele><time>2026-05-03T09:52:25.594Z</time></trkpt><trkpt lat="46.0538242" lon="13.586224"><ele>270.0</ele><time>2026-05-03T09:52:26.594Z</time></trkpt><trkpt lat="46.0538639" lon="13.5861199"><ele>270.0</ele><time>2026-05-03T09:52:27.594Z</time></trkpt><trkpt lat="46.0538998" lon="13.5860152"><ele>270.0</ele><time>2026-05-03T09:52:28.594Z</time></trkpt><trkpt lat="46.0539289" lon="13.585912"><ele>270.0</ele><time>2026-05-03T09:52:29.594Z</time></trkpt><trkpt lat="46.0539501" lon="13.5858108"><ele>270.0</ele><time>2026-05-03T09:52:30.595Z</time></trkpt><trkpt lat="46.0539639" lon="13.5857106"><ele>269.0</ele><time>2026-05-03T09:52:31.594Z</time></trkpt><trkpt lat="46.0539655" lon="13.5856043"><ele>268.0</ele><time>2026-05-03T09:52:32.595Z</time></trkpt><trkpt lat="46.0539629" lon="13.5854929"><ele>267.0</ele><time>2026-05-03T09:52:33.594Z</time></trkpt><trkpt lat="46.0539685" lon="13.585377"><ele>266.0</ele><time>2026-05-03T09:52:34.595Z</time></trkpt><trkpt lat="46.0539809" lon="13.5852572"><ele>265.0</ele><time>2026-05-03T09:52:35.595Z</time></trkpt><trkpt lat="46.0539894" lon="13.5851345"><ele>264.0</ele><time>2026-05-03T09:52:36.594Z</time></trkpt><trkpt lat="46.0539899" lon="13.5850105"><ele>264.0</ele><time>2026-05-03T09:52:37.594Z</time></trkpt><trkpt lat="46.0539793" lon="13.5848918"><ele>264.0</ele><time>2026-05-03T09:52:38.595Z</time></trkpt><trkpt lat="46.0539617" lon="13.5847774"><ele>264.0</ele><time>2026-05-03T09:52:39.595Z</time></trkpt><trkpt lat="46.0539399" lon="13.5846128"><ele>264.0</ele><time>2026-05-03T09:52:41.594Z</time></trkpt><trkpt lat="46.0539318" lon="13.5844796"><ele>264.0</ele><time>2026-05-03T09:52:43.594Z</time></trkpt><trkpt lat="46.0539584" lon="13.5843809"><ele>264.0</ele><time>2026-05-03T09:52:45.594Z</time></trkpt><trkpt lat="46.054002" lon="13.5844753"><ele>264.0</ele><time>2026-05-03T09:52:49.594Z</time></trkpt><trkpt lat="46.0540048" lon="13.584624"><ele>264.0</ele><time>2026-05-03T09:52:51.595Z</time></trkpt><trkpt lat="46.0540538" lon="13.584793"><ele>264.0</ele><time>2026-05-03T09:52:53.595Z</time></trkpt><trkpt lat="46.0540959" lon="13.5848953"><ele>264.0</ele><time>2026-05-03T09:52:54.594Z</time></trkpt><trkpt lat="46.0541479" lon="13.5850137"><ele>264.0</ele><time>2026-05-03T09:52:55.594Z</time></trkpt><trkpt lat="46.0541961" lon="13.5851415"><ele>271.4</ele><time>2026-05-03T09:52:56.596Z</time></trkpt><trkpt lat="46.0542486" lon="13.5852641"><ele>278.79999999999995</ele><time>2026-05-03T09:52:57.595Z</time></trkpt><trkpt lat="46.0542954" lon="13.5853802"><ele>286.20000000000005</ele><time>2026-05-03T09:52:58.595Z</time></trkpt><trkpt lat="46.0543438" lon="13.5854888"><ele>293.6</ele><time>2026-05-03T09:52:59.594Z</time></trkpt><trkpt lat="46.0543833" lon="13.5856007"><ele>301.0</ele><time>2026-05-03T09:53:00.595Z</time></trkpt><trkpt lat="46.0544175" lon="13.5857115"><ele>301.0</ele><time>2026-05-03T09:53:01.595Z</time></trkpt><trkpt lat="46.0544348" lon="13.5858302"><ele>301.0</ele><time>2026-05-03T09:53:02.595Z</time></trkpt><trkpt lat="46.0544378" lon="13.5859614"><ele>301.0</ele><time>2026-05-03T09:53:03.594Z</time></trkpt><trkpt lat="46.0544365" lon="13.5860992"><ele>301.0</ele><time>2026-05-03T09:53:04.594Z</time></trkpt><trkpt lat="46.0544376" lon="13.5862366"><ele>301.0</ele><time>2026-05-03T09:53:05.594Z</time></trkpt><trkpt lat="46.0544422" lon="13.5863646"><ele>302.6</ele><time>2026-05-03T09:53:06.594Z</time></trkpt><trkpt lat="46.0544425" lon="13.5864877"><ele>304.20000000000005</ele><time>2026-05-03T09:53:07.594Z</time></trkpt><trkpt lat="46.0544339" lon="13.5866099"><ele>305.79999999999995</ele><time>2026-05-03T09:53:08.597Z</time></trkpt><trkpt lat="46.0544044" lon="13.5867365"><ele>307.4</ele><time>2026-05-03T09:53:09.595Z</time></trkpt><trkpt lat="46.0543643" lon="13.5868702"><ele>309.0</ele><time>2026-05-03T09:53:10.594Z</time></trkpt><trkpt lat="46.0543209" lon="13.587016"><ele>312.2</ele><time>2026-05-03T09:53:11.594Z</time></trkpt><trkpt lat="46.0542802" lon="13.587167"><ele>315.4</ele><time>2026-05-03T09:53:12.594Z</time></trkpt><trkpt lat="46.0542398" lon="13.5873154"><ele>318.6</ele><time>2026-05-03T09:53:13.594Z</time></trkpt><trkpt lat="46.0541958" lon="13.5874627"><ele>321.8</ele><time>2026-05-03T09:53:14.595Z</time></trkpt><trkpt lat="46.0541538" lon="13.5876099"><ele>325.0</ele><time>2026-05-03T09:53:15.595Z</time></trkpt><trkpt lat="46.0541167" lon="13.5877547"><ele>320.8333333333333</ele><time>2026-05-03T09:53:16.595Z</time></trkpt><trkpt lat="46.0540802" lon="13.5878934"><ele>316.66666666666663</ele><time>2026-05-03T09:53:17.594Z</time></trkpt><trkpt lat="46.0540485" lon="13.5880313"><ele>312.5</ele><time>2026-05-03T09:53:18.594Z</time></trkpt><trkpt lat="46.0540289" lon="13.5881548"><ele>308.3333333333333</ele><time>2026-05-03T09:53:19.595Z</time></trkpt><trkpt lat="46.0540129" lon="13.5882559"><ele>304.1666666666667</ele><time>2026-05-03T09:53:20.594Z</time></trkpt><trkpt lat="46.0539999" lon="13.5883772"><ele>300.0</ele><time>2026-05-03T09:53:22.594Z</time></trkpt><trkpt lat="46.0540547" lon="13.5882695"><ele>300.0</ele><time>2026-05-03T09:53:37.639Z</time></trkpt><trkpt lat="46.054073" lon="13.5881732"><ele>300.0</ele><time>2026-05-03T09:53:38.604Z</time></trkpt><trkpt lat="46.0541176" lon="13.5880416"><ele>300.0</ele><time>2026-05-03T09:53:39.654Z</time></trkpt><trkpt lat="46.0541864" lon="13.5879156"><ele>300.0</ele><time>2026-05-03T09:53:40.673Z</time></trkpt><trkpt lat="46.0542397" lon="13.5877999"><ele>300.0</ele><time>2026-05-03T09:53:41.595Z</time></trkpt><trkpt lat="46.0542886" lon="13.5877169"><ele>306.25</ele><time>2026-05-03T09:53:42.504Z</time></trkpt><trkpt lat="46.0543843" lon="13.58759"><ele>312.5</ele><time>2026-05-03T09:53:43.594Z</time></trkpt><trkpt lat="46.0544692" lon="13.5874774"><ele>318.75</ele><time>2026-05-03T09:53:44.594Z</time></trkpt><trkpt lat="46.0545487" lon="13.587368"><ele>325.0</ele><time>2026-05-03T09:53:45.595Z</time></trkpt><trkpt lat="46.0546186" lon="13.5872617"><ele>325.0</ele><time>2026-05-03T09:53:46.594Z</time></trkpt><trkpt lat="46.0546857" lon="13.5871644"><ele>325.0</ele><time>2026-05-03T09:53:47.597Z</time></trkpt><trkpt lat="46.0547551" lon="13.5870748"><ele>325.0</ele><time>2026-05-03T09:53:48.594Z</time></trkpt><trkpt lat="46.0548231" lon="13.586991"><ele>325.0</ele><time>2026-05-03T09:53:49.594Z</time></trkpt><trkpt lat="46.0548903" lon="13.5869146"><ele>325.0</ele><time>2026-05-03T09:53:50.594Z</time></trkpt><trkpt lat="46.054956" lon="13.5868401"><ele>325.0</ele><time>2026-05-03T09:53:51.594Z</time></trkpt><trkpt lat="46.0550153" lon="13.5867678"><ele>328.3333333333333</ele><time>2026-05-03T09:53:52.595Z</time></trkpt><trkpt lat="46.0550626" lon="13.5867001"><ele>331.66666666666663</ele><time>2026-05-03T09:53:53.594Z</time></trkpt><trkpt lat="46.0551205" lon="13.586561"><ele>335.0</ele><time>2026-05-03T09:53:55.595Z</time></trkpt><trkpt lat="46.0551391" lon="13.586473"><ele>338.3333333333333</ele><time>2026-05-03T09:53:56.595Z</time></trkpt><trkpt lat="46.0551591" lon="13.5863775"><ele>341.6666666666667</ele><time>2026-05-03T09:53:57.593Z</time></trkpt><trkpt lat="46.0551847" lon="13.5862788"><ele>345.0</ele><time>2026-05-03T09:53:58.594Z</time></trkpt><trkpt lat="46.0552184" lon="13.5861818"><ele>344.8333333333333</ele><time>2026-05-03T09:53:59.595Z</time></trkpt><trkpt lat="46.0552581" lon="13.5860897"><ele>344.6666666666667</ele><time>2026-05-03T09:54:00.594Z</time></trkpt><trkpt lat="46.0552948" lon="13.5860001"><ele>344.5</ele><time>2026-05-03T09:54:01.596Z</time></trkpt><trkpt lat="46.0553185" lon="13.5859038"><ele>344.33333333333337</ele><time>2026-05-03T09:54:02.595Z</time></trkpt><trkpt lat="46.0553309" lon="13.5858099"><ele>344.1666666666667</ele><time>2026-05-03T09:54:03.594Z</time></trkpt><trkpt lat="46.0553135" lon="13.5856415"><ele>344.0</ele><time>2026-05-03T09:54:05.596Z</time></trkpt><trkpt lat="46.0552459" lon="13.5854942"><ele>344.00000000000006</ele><time>2026-05-03T09:54:07.595Z</time></trkpt><trkpt lat="46.0552038" lon="13.5854214"><ele>344.0</ele><time>2026-05-03T09:54:08.593Z</time></trkpt><trkpt lat="46.0551655" lon="13.5853431"><ele>344.0</ele><time>2026-05-03T09:54:09.594Z</time></trkpt><trkpt lat="46.0551379" lon="13.5852565"><ele>344.0</ele><time>2026-05-03T09:54:10.593Z</time></trkpt><trkpt lat="46.0551178" lon="13.5851634"><ele>344.0</ele><time>2026-05-03T09:54:11.595Z</time></trkpt><trkpt lat="46.0551023" lon="13.585063"><ele>344.00000000000006</ele><time>2026-05-03T09:54:12.596Z</time></trkpt><trkpt lat="46.0550931" lon="13.5849546"><ele>344.0</ele><time>2026-05-03T09:54:13.594Z</time></trkpt><trkpt lat="46.0550943" lon="13.5848425"><ele>344.4</ele><time>2026-05-03T09:54:14.594Z</time></trkpt><trkpt lat="46.0550954" lon="13.5847444"><ele>344.79999999999995</ele><time>2026-05-03T09:54:15.593Z</time></trkpt><trkpt lat="46.0551039" lon="13.5845739"><ele>345.20000000000005</ele><time>2026-05-03T09:54:17.593Z</time></trkpt><trkpt lat="46.0551579" lon="13.5844412"><ele>345.6</ele><time>2026-05-03T09:54:19.594Z</time></trkpt><trkpt lat="46.055258" lon="13.5843282"><ele>346.0</ele><time>2026-05-03T09:54:21.593Z</time></trkpt><trkpt lat="46.0553236" lon="13.5842791"><ele>346.0</ele><time>2026-05-03T09:54:22.595Z</time></trkpt><trkpt lat="46.0553864" lon="13.5842234"><ele>346.0</ele><time>2026-05-03T09:54:23.595Z</time></trkpt><trkpt lat="46.0554413" lon="13.5841662"><ele>346.0</ele><time>2026-05-03T09:54:24.593Z</time></trkpt><trkpt lat="46.0554852" lon="13.5840949"><ele>346.0</ele><time>2026-05-03T09:54:25.593Z</time></trkpt><trkpt lat="46.0555163" lon="13.5840094"><ele>346.0</ele><time>2026-05-03T09:54:26.594Z</time></trkpt><trkpt lat="46.0555309" lon="13.5838345"><ele>346.0</ele><time>2026-05-03T09:54:28.594Z</time></trkpt><trkpt lat="46.0554957" lon="13.5836652"><ele>345.5</ele><time>2026-05-03T09:54:30.595Z</time></trkpt><trkpt lat="46.0554766" lon="13.5835701"><ele>345.0</ele><time>2026-05-03T09:54:31.595Z</time></trkpt><trkpt lat="46.0554695" lon="13.5834267"><ele>344.5</ele><time>2026-05-03T09:54:33.593Z</time></trkpt><trkpt lat="46.0555366" lon="13.5833166"><ele>344.0</ele><time>2026-05-03T09:54:35.594Z</time></trkpt><trkpt lat="46.0555909" lon="13.5832665"><ele>343.5</ele><time>2026-05-03T09:54:36.593Z</time></trkpt><trkpt lat="46.0556523" lon="13.5832212"><ele>343.0</ele><time>2026-05-03T09:54:37.594Z</time></trkpt><trkpt lat="46.0557218" lon="13.5831753"><ele>351.0</ele><time>2026-05-03T09:54:38.594Z</time></trkpt><trkpt lat="46.055801" lon="13.5831192"><ele>359.0</ele><time>2026-05-03T09:54:39.594Z</time></trkpt><trkpt lat="46.0558861" lon="13.5830513"><ele>367.0</ele><time>2026-05-03T09:54:40.594Z</time></trkpt><trkpt lat="46.0559666" lon="13.5829575"><ele>375.0</ele><time>2026-05-03T09:54:41.594Z</time></trkpt><trkpt lat="46.056037" lon="13.5828682"><ele>383.0</ele><time>2026-05-03T09:54:42.593Z</time></trkpt><trkpt lat="46.0560969" lon="13.5828031"><ele>383.0</ele><time>2026-05-03T09:54:43.594Z</time></trkpt><trkpt lat="46.0561709" lon="13.5827073"><ele>383.0</ele><time>2026-05-03T09:54:45.594Z</time></trkpt><trkpt lat="46.0561306" lon="13.5825805"><ele>383.0</ele><time>2026-05-03T09:54:48.593Z</time></trkpt><trkpt lat="46.0560683" lon="13.5825253"><ele>383.0</ele><time>2026-05-03T09:54:49.593Z</time></trkpt><trkpt lat="46.0560064" lon="13.5824559"><ele>383.0</ele><time>2026-05-03T09:54:50.595Z</time></trkpt><trkpt lat="46.0559458" lon="13.5823718"><ele>383.0</ele><time>2026-05-03T09:54:51.594Z</time></trkpt><trkpt lat="46.0558837" lon="13.582274"><ele>383.0</ele><time>2026-05-03T09:54:52.593Z</time></trkpt><trkpt lat="46.0558243" lon="13.5821677"><ele>383.0</ele><time>2026-05-03T09:54:53.597Z</time></trkpt><trkpt lat="46.0557695" lon="13.5820629"><ele>383.0</ele><time>2026-05-03T09:54:54.593Z</time></trkpt><trkpt lat="46.0557321" lon="13.5819571"><ele>383.0</ele><time>2026-05-03T09:54:55.594Z</time></trkpt><trkpt lat="46.0557081" lon="13.5818489"><ele>383.0</ele><time>2026-05-03T09:54:56.594Z</time></trkpt><trkpt lat="46.0556956" lon="13.5817365"><ele>383.0</ele><time>2026-05-03T09:54:57.593Z</time></trkpt><trkpt lat="46.0556894" lon="13.5816154"><ele>377.0</ele><time>2026-05-03T09:54:58.595Z</time></trkpt><trkpt lat="46.0556847" lon="13.5814876"><ele>371.0</ele><time>2026-05-03T09:54:59.594Z</time></trkpt><trkpt lat="46.0556794" lon="13.5813567"><ele>365.0</ele><time>2026-05-03T09:55:00.594Z</time></trkpt><trkpt lat="46.0556784" lon="13.5812263"><ele>359.0</ele><time>2026-05-03T09:55:01.594Z</time></trkpt><trkpt lat="46.0556857" lon="13.581112"><ele>353.0</ele><time>2026-05-03T09:55:02.595Z</time></trkpt><trkpt lat="46.0557155" lon="13.5810179"><ele>347.0</ele><time>2026-05-03T09:55:03.593Z</time></trkpt><trkpt lat="46.0557613" lon="13.5809329"><ele>355.1666666666667</ele><time>2026-05-03T09:55:04.595Z</time></trkpt><trkpt lat="46.0558152" lon="13.5808466"><ele>363.33333333333337</ele><time>2026-05-03T09:55:05.593Z</time></trkpt><trkpt lat="46.0558724" lon="13.5807551"><ele>371.5</ele><time>2026-05-03T09:55:06.594Z</time></trkpt><trkpt lat="46.0559197" lon="13.5806528"><ele>379.6666666666667</ele><time>2026-05-03T09:55:07.593Z</time></trkpt><trkpt lat="46.0559522" lon="13.5805317"><ele>387.8333333333333</ele><time>2026-05-03T09:55:08.594Z</time></trkpt><trkpt lat="46.0559746" lon="13.5803997"><ele>396.0</ele><time>2026-05-03T09:55:09.594Z</time></trkpt><trkpt lat="46.0559883" lon="13.5802593"><ele>396.0</ele><time>2026-05-03T09:55:10.594Z</time></trkpt><trkpt lat="46.0559957" lon="13.5801155"><ele>396.0</ele><time>2026-05-03T09:55:11.594Z</time></trkpt><trkpt lat="46.0560076" lon="13.5799723"><ele>396.0</ele><time>2026-05-03T09:55:12.593Z</time></trkpt><trkpt lat="46.0560259" lon="13.5798418"><ele>396.0</ele><time>2026-05-03T09:55:13.593Z</time></trkpt><trkpt lat="46.0560484" lon="13.5797314"><ele>396.0</ele><time>2026-05-03T09:55:14.594Z</time></trkpt><trkpt lat="46.0560721" lon="13.57963"><ele>396.0</ele><time>2026-05-03T09:55:15.594Z</time></trkpt><trkpt lat="46.0561064" lon="13.5795328"><ele>393.6</ele><time>2026-05-03T09:55:16.593Z</time></trkpt><trkpt lat="46.0561514" lon="13.5794363"><ele>391.20000000000005</ele><time>2026-05-03T09:55:17.593Z</time></trkpt><trkpt lat="46.0562042" lon="13.5793323"><ele>388.79999999999995</ele><time>2026-05-03T09:55:18.593Z</time></trkpt><trkpt lat="46.0562616" lon="13.579217"><ele>386.4</ele><time>2026-05-03T09:55:19.594Z</time></trkpt><trkpt lat="46.0563161" lon="13.5790899"><ele>384.0</ele><time>2026-05-03T09:55:20.595Z</time></trkpt><trkpt lat="46.0563686" lon="13.5789626"><ele>384.0</ele><time>2026-05-03T09:55:21.594Z</time></trkpt><trkpt lat="46.0564165" lon="13.5788396"><ele>384.0</ele><time>2026-05-03T09:55:22.593Z</time></trkpt><trkpt lat="46.0564451" lon="13.5787107"><ele>384.0</ele><time>2026-05-03T09:55:23.594Z</time></trkpt><trkpt lat="46.0564665" lon="13.5785802"><ele>384.0</ele><time>2026-05-03T09:55:24.593Z</time></trkpt><trkpt lat="46.0564913" lon="13.5784572"><ele>384.0</ele><time>2026-05-03T09:55:25.594Z</time></trkpt><trkpt lat="46.0565222" lon="13.5783441"><ele>382.0</ele><time>2026-05-03T09:55:26.594Z</time></trkpt><trkpt lat="46.0565515" lon="13.5782344"><ele>380.0</ele><time>2026-05-03T09:55:27.594Z</time></trkpt><trkpt lat="46.0565754" lon="13.5781325"><ele>378.0</ele><time>2026-05-03T09:55:28.594Z</time></trkpt><trkpt lat="46.0565887" lon="13.5780279"><ele>376.0</ele><time>2026-05-03T09:55:29.595Z</time></trkpt><trkpt lat="46.0565924" lon="13.5779085"><ele>374.0</ele><time>2026-05-03T09:55:30.594Z</time></trkpt><trkpt lat="46.0565947" lon="13.5777816"><ele>372.0</ele><time>2026-05-03T09:55:31.595Z</time></trkpt><trkpt lat="46.0566088" lon="13.5776635"><ele>380.1666666666667</ele><time>2026-05-03T09:55:32.596Z</time></trkpt><trkpt lat="46.0566351" lon="13.5775557"><ele>388.33333333333337</ele><time>2026-05-03T09:55:33.594Z</time></trkpt><trkpt lat="46.0566727" lon="13.5774673"><ele>396.5</ele><time>2026-05-03T09:55:34.593Z</time></trkpt><trkpt lat="46.0567253" lon="13.5774099"><ele>404.6666666666667</ele><time>2026-05-03T09:55:35.595Z</time></trkpt><trkpt lat="46.0568495" lon="13.5773556"><ele>412.83333333333337</ele><time>2026-05-03T09:55:37.594Z</time></trkpt><trkpt lat="46.056925" lon="13.5773517"><ele>421.0</ele><time>2026-05-03T09:55:38.594Z</time></trkpt><trkpt lat="46.0570072" lon="13.5773519"><ele>421.00000000000006</ele><time>2026-05-03T09:55:39.593Z</time></trkpt><trkpt lat="46.0570823" lon="13.5773334"><ele>421.0</ele><time>2026-05-03T09:55:40.595Z</time></trkpt><trkpt lat="46.0571484" lon="13.5772938"><ele>421.0</ele><time>2026-05-03T09:55:41.595Z</time></trkpt><trkpt lat="46.0572001" lon="13.5772321"><ele>421.0</ele><time>2026-05-03T09:55:42.593Z</time></trkpt><trkpt lat="46.0572302" lon="13.5770775"><ele>421.00000000000006</ele><time>2026-05-03T09:55:44.595Z</time></trkpt><trkpt lat="46.0572145" lon="13.5769744"><ele>421.0</ele><time>2026-05-03T09:55:45.593Z</time></trkpt><trkpt lat="46.0571993" lon="13.5768681"><ele>417.6666666666667</ele><time>2026-05-03T09:55:46.595Z</time></trkpt><trkpt lat="46.0571863" lon="13.5767588"><ele>414.33333333333337</ele><time>2026-05-03T09:55:47.595Z</time></trkpt><trkpt lat="46.0571869" lon="13.5766435"><ele>411.0</ele><time>2026-05-03T09:55:48.594Z</time></trkpt><trkpt lat="46.0572088" lon="13.5765354"><ele>407.66666666666663</ele><time>2026-05-03T09:55:49.594Z</time></trkpt><trkpt lat="46.0572459" lon="13.5764318"><ele>404.3333333333333</ele><time>2026-05-03T09:55:50.594Z</time></trkpt><trkpt lat="46.0573032" lon="13.5763331"><ele>401.0</ele><time>2026-05-03T09:55:51.594Z</time></trkpt><trkpt lat="46.0573828" lon="13.5762465"><ele>408.4</ele><time>2026-05-03T09:55:52.595Z</time></trkpt><trkpt lat="46.0574607" lon="13.5761695"><ele>415.8</ele><time>2026-05-03T09:55:53.594Z</time></trkpt><trkpt lat="46.0575356" lon="13.5761032"><ele>423.19999999999993</ele><time>2026-05-03T09:55:54.594Z</time></trkpt><trkpt lat="46.0576136" lon="13.5760492"><ele>430.59999999999997</ele><time>2026-05-03T09:55:55.593Z</time></trkpt><trkpt lat="46.0577016" lon="13.5760151"><ele>438.0</ele><time>2026-05-03T09:55:56.594Z</time></trkpt><trkpt lat="46.0577946" lon="13.575989"><ele>438.0</ele><time>2026-05-03T09:55:57.593Z</time></trkpt><trkpt lat="46.057886" lon="13.575969"><ele>438.0</ele><time>2026-05-03T09:55:58.594Z</time></trkpt><trkpt lat="46.0579626" lon="13.5759463"><ele>438.0</ele><time>2026-05-03T09:55:59.595Z</time></trkpt><trkpt lat="46.0580264" lon="13.5759156"><ele>438.0</ele><time>2026-05-03T09:56:00.595Z</time></trkpt><trkpt lat="46.0581148" lon="13.5758166"><ele>438.0</ele><time>2026-05-03T09:56:02.595Z</time></trkpt><trkpt lat="46.0581324" lon="13.5756766"><ele>438.0</ele><time>2026-05-03T09:56:04.595Z</time></trkpt><trkpt lat="46.0580549" lon="13.5754718"><ele>436.0</ele><time>2026-05-03T09:56:06.593Z</time></trkpt><trkpt lat="46.0580079" lon="13.5753455"><ele>433.99999999999994</ele><time>2026-05-03T09:56:07.594Z</time></trkpt><trkpt lat="46.0579554" lon="13.5752072"><ele>431.99999999999994</ele><time>2026-05-03T09:56:08.595Z</time></trkpt><trkpt lat="46.0579137" lon="13.575065"><ele>430.0</ele><time>2026-05-03T09:56:09.593Z</time></trkpt><trkpt lat="46.0578799" lon="13.5749222"><ele>428.0</ele><time>2026-05-03T09:56:10.596Z</time></trkpt><trkpt lat="46.0578583" lon="13.5747908"><ele>427.99999999999994</ele><time>2026-05-03T09:56:11.594Z</time></trkpt><trkpt lat="46.057848" lon="13.5746678"><ele>428.0</ele><time>2026-05-03T09:56:12.594Z</time></trkpt><trkpt lat="46.0578524" lon="13.5745472"><ele>428.0</ele><time>2026-05-03T09:56:13.595Z</time></trkpt><trkpt lat="46.0578649" lon="13.5744259"><ele>428.0</ele><time>2026-05-03T09:56:14.595Z</time></trkpt><trkpt lat="46.0578865" lon="13.5743008"><ele>427.99999999999994</ele><time>2026-05-03T09:56:15.595Z</time></trkpt><trkpt lat="46.0579141" lon="13.5741682"><ele>428.0</ele><time>2026-05-03T09:56:16.596Z</time></trkpt><trkpt lat="46.0579454" lon="13.5740392"><ele>427.79999999999995</ele><time>2026-05-03T09:56:17.593Z</time></trkpt><trkpt lat="46.0579851" lon="13.5739163"><ele>427.59999999999997</ele><time>2026-05-03T09:56:18.595Z</time></trkpt><trkpt lat="46.0580325" lon="13.5738028"><ele>427.40000000000003</ele><time>2026-05-03T09:56:19.594Z</time></trkpt><trkpt lat="46.0580878" lon="13.5736982"><ele>427.20000000000005</ele><time>2026-05-03T09:56:20.595Z</time></trkpt><trkpt lat="46.0581434" lon="13.5735848"><ele>427.0</ele><time>2026-05-03T09:56:21.594Z</time></trkpt><trkpt lat="46.058197" lon="13.5734608"><ele>429.0</ele><time>2026-05-03T09:56:22.593Z</time></trkpt><trkpt lat="46.0582494" lon="13.5733345"><ele>431.00000000000006</ele><time>2026-05-03T09:56:23.595Z</time></trkpt><trkpt lat="46.0583015" lon="13.5732026"><ele>433.00000000000006</ele><time>2026-05-03T09:56:24.595Z</time></trkpt><trkpt lat="46.0583469" lon="13.5730705"><ele>435.0</ele><time>2026-05-03T09:56:25.596Z</time></trkpt><trkpt lat="46.0583847" lon="13.5729397"><ele>437.0</ele><time>2026-05-03T09:56:26.595Z</time></trkpt><trkpt lat="46.0584176" lon="13.5728082"><ele>441.16666666666663</ele><time>2026-05-03T09:56:27.594Z</time></trkpt><trkpt lat="46.0584454" lon="13.5726708"><ele>445.3333333333333</ele><time>2026-05-03T09:56:28.594Z</time></trkpt><trkpt lat="46.0584671" lon="13.5725339"><ele>449.5</ele><time>2026-05-03T09:56:29.593Z</time></trkpt><trkpt lat="46.0584877" lon="13.5724043"><ele>453.66666666666663</ele><time>2026-05-03T09:56:30.593Z</time></trkpt><trkpt lat="46.0585057" lon="13.5722943"><ele>457.8333333333333</ele><time>2026-05-03T09:56:31.595Z</time></trkpt><trkpt lat="46.0585197" lon="13.5722"><ele>462.0</ele><time>2026-05-03T09:56:32.594Z</time></trkpt><trkpt lat="46.0585544" lon="13.5720675"><ele>462.0</ele><time>2026-05-03T09:56:34.594Z</time></trkpt><trkpt lat="46.0586233" lon="13.5720534"><ele>462.0</ele><time>2026-05-03T09:56:36.594Z</time></trkpt><trkpt lat="46.0586619" lon="13.5721687"><ele>462.0</ele><time>2026-05-03T09:56:38.596Z</time></trkpt><trkpt lat="46.0586428" lon="13.5723447"><ele>462.0</ele><time>2026-05-03T09:56:40.594Z</time></trkpt><trkpt lat="46.0586299" lon="13.5724445"><ele>462.0</ele><time>2026-05-03T09:56:41.595Z</time></trkpt><trkpt lat="46.0586108" lon="13.5725511"><ele>462.0</ele><time>2026-05-03T09:56:43.641Z</time></trkpt><trkpt lat="46.0586166" lon="13.5726491"><ele>463.8</ele><time>2026-05-03T09:56:44.664Z</time></trkpt><trkpt lat="46.0586357" lon="13.5728688"><ele>465.6</ele><time>2026-05-03T09:56:45.687Z</time></trkpt><trkpt lat="46.058644" lon="13.5730051"><ele>467.40000000000003</ele><time>2026-05-03T09:56:46.605Z</time></trkpt><trkpt lat="46.0586133" lon="13.5731299"><ele>469.20000000000005</ele><time>2026-05-03T09:56:47.595Z</time></trkpt><trkpt lat="46.0585684" lon="13.5732661"><ele>471.0</ele><time>2026-05-03T09:56:48.596Z</time></trkpt><trkpt lat="46.0585365" lon="13.5733898"><ele>471.0</ele><time>2026-05-03T09:56:49.596Z</time></trkpt><trkpt lat="46.0585244" lon="13.5734984"><ele>471.0</ele><time>2026-05-03T09:56:50.594Z</time></trkpt><trkpt lat="46.0585341" lon="13.5736034"><ele>471.0</ele><time>2026-05-03T09:56:51.594Z</time></trkpt><trkpt lat="46.0585725" lon="13.5737143"><ele>471.0</ele><time>2026-05-03T09:56:52.594Z</time></trkpt><trkpt lat="46.0586062" lon="13.5738328"><ele>471.0</ele><time>2026-05-03T09:56:53.593Z</time></trkpt><trkpt lat="46.0586302" lon="13.5739545"><ele>471.0</ele><time>2026-05-03T09:56:54.595Z</time></trkpt><trkpt lat="46.0586437" lon="13.5740741"><ele>471.0</ele><time>2026-05-03T09:56:55.594Z</time></trkpt><trkpt lat="46.0586547" lon="13.574179"><ele>471.0</ele><time>2026-05-03T09:56:56.595Z</time></trkpt><trkpt lat="46.058694" lon="13.574324"><ele>471.0</ele><time>2026-05-03T09:56:58.595Z</time></trkpt><trkpt lat="46.0587576" lon="13.5743744"><ele>471.0</ele><time>2026-05-03T09:57:00.595Z</time></trkpt><trkpt lat="46.0588412" lon="13.5743219"><ele>471.0</ele><time>2026-05-03T09:57:02.594Z</time></trkpt><trkpt lat="46.0589084" lon="13.5741815"><ele>471.0</ele><time>2026-05-03T09:57:04.594Z</time></trkpt><trkpt lat="46.058933" lon="13.5740969"><ele>471.0</ele><time>2026-05-03T09:57:05.594Z</time></trkpt><trkpt lat="46.058921" lon="13.5739066"><ele>471.0</ele><time>2026-05-03T09:57:07.595Z</time></trkpt><trkpt lat="46.0589147" lon="13.5737997"><ele>471.0</ele><time>2026-05-03T09:57:08.594Z</time></trkpt><trkpt lat="46.0589215" lon="13.5736846"><ele>471.0</ele><time>2026-05-03T09:57:09.594Z</time></trkpt><trkpt lat="46.0589296" lon="13.573574"><ele>471.0</ele><time>2026-05-03T09:57:10.593Z</time></trkpt><trkpt lat="46.0589334" lon="13.5734664"><ele>471.0</ele><time>2026-05-03T09:57:11.596Z</time></trkpt><trkpt lat="46.0589291" lon="13.5733584"><ele>471.0</ele><time>2026-05-03T09:57:12.594Z</time></trkpt><trkpt lat="46.0589301" lon="13.5732494"><ele>471.0</ele><time>2026-05-03T09:57:13.594Z</time></trkpt><trkpt lat="46.0589492" lon="13.5731389"><ele>471.0</ele><time>2026-05-03T09:57:14.594Z</time></trkpt><trkpt lat="46.0589802" lon="13.5730299"><ele>471.0</ele><time>2026-05-03T09:57:15.594Z</time></trkpt><trkpt lat="46.0590129" lon="13.5729169"><ele>471.0</ele><time>2026-05-03T09:57:16.595Z</time></trkpt><trkpt lat="46.0590463" lon="13.5728024"><ele>469.5</ele><time>2026-05-03T09:57:17.595Z</time></trkpt><trkpt lat="46.0590797" lon="13.5726991"><ele>468.0</ele><time>2026-05-03T09:57:18.594Z</time></trkpt><trkpt lat="46.0591109" lon="13.572609"><ele>466.5</ele><time>2026-05-03T09:57:19.594Z</time></trkpt><trkpt lat="46.0591495" lon="13.5725265"><ele>465.0</ele><time>2026-05-03T09:57:20.598Z</time></trkpt><trkpt lat="46.0591944" lon="13.5724556"><ele>463.5</ele><time>2026-05-03T09:57:21.595Z</time></trkpt><trkpt lat="46.0592425" lon="13.5723892"><ele>462.0</ele><time>2026-05-03T09:57:22.596Z</time></trkpt><trkpt lat="46.0593236" lon="13.5722952"><ele>468.0</ele><time>2026-05-03T09:57:24.595Z</time></trkpt><trkpt lat="46.0593875" lon="13.572327"><ele>474.0</ele><time>2026-05-03T09:57:27.594Z</time></trkpt><trkpt lat="46.0593804" lon="13.5724359"><ele>480.0</ele><time>2026-05-03T09:57:29.595Z</time></trkpt><trkpt lat="46.0593244" lon="13.5725952"><ele>486.0</ele><time>2026-05-03T09:57:31.596Z</time></trkpt><trkpt lat="46.0592924" lon="13.5726877"><ele>492.0</ele><time>2026-05-03T09:57:32.595Z</time></trkpt><trkpt lat="46.059268" lon="13.5727816"><ele>498.0</ele><time>2026-05-03T09:57:33.593Z</time></trkpt><trkpt lat="46.0592581" lon="13.5728742"><ele>498.5</ele><time>2026-05-03T09:57:34.595Z</time></trkpt><trkpt lat="46.0592575" lon="13.5729686"><ele>499.0</ele><time>2026-05-03T09:57:35.594Z</time></trkpt><trkpt lat="46.0592825" lon="13.5730591"><ele>499.5</ele><time>2026-05-03T09:57:36.595Z</time></trkpt><trkpt lat="46.0593366" lon="13.5731453"><ele>500.0</ele><time>2026-05-03T09:57:37.595Z</time></trkpt><trkpt lat="46.0594134" lon="13.5732296"><ele>500.5</ele><time>2026-05-03T09:57:38.594Z</time></trkpt><trkpt lat="46.0594916" lon="13.5733148"><ele>501.0</ele><time>2026-05-03T09:57:39.594Z</time></trkpt><trkpt lat="46.0595619" lon="13.573405"><ele>501.0</ele><time>2026-05-03T09:57:40.595Z</time></trkpt><trkpt lat="46.0596219" lon="13.5734996"><ele>501.0</ele><time>2026-05-03T09:57:41.595Z</time></trkpt><trkpt lat="46.0596617" lon="13.5735988"><ele>501.0</ele><time>2026-05-03T09:57:42.593Z</time></trkpt><trkpt lat="46.0596776" lon="13.573699"><ele>501.0</ele><time>2026-05-03T09:57:43.595Z</time></trkpt><trkpt lat="46.0596736" lon="13.5738084"><ele>501.0</ele><time>2026-05-03T09:57:44.594Z</time></trkpt><trkpt lat="46.0596713" lon="13.573926"><ele>501.0</ele><time>2026-05-03T09:57:45.594Z</time></trkpt><trkpt lat="46.0596643" lon="13.5740476"><ele>501.0</ele><time>2026-05-03T09:57:46.594Z</time></trkpt><trkpt lat="46.0596543" lon="13.5741593"><ele>501.0</ele><time>2026-05-03T09:57:47.595Z</time></trkpt><trkpt lat="46.0596377" lon="13.5742632"><ele>501.0</ele><time>2026-05-03T09:57:48.595Z</time></trkpt><trkpt lat="46.0596174" lon="13.5743639"><ele>501.0</ele><time>2026-05-03T09:57:49.594Z</time></trkpt><trkpt lat="46.059598" lon="13.574455"><ele>501.0</ele><time>2026-05-03T09:57:50.594Z</time></trkpt><trkpt lat="46.0595761" lon="13.5746071"><ele>501.0</ele><time>2026-05-03T09:57:52.596Z</time></trkpt><trkpt lat="46.059582" lon="13.5747127"><ele>501.0</ele><time>2026-05-03T09:57:55.594Z</time></trkpt><trkpt lat="46.0596833" lon="13.5747867"><ele>501.0</ele><time>2026-05-03T10:00:20.593Z</time></trkpt><trkpt lat="46.0597217" lon="13.5746983"><ele>501.0</ele><time>2026-05-03T10:00:22.594Z</time></trkpt><trkpt lat="46.0597433" lon="13.5745717"><ele>501.0</ele><time>2026-05-03T10:00:24.594Z</time></trkpt><trkpt lat="46.0598933" lon="13.5742183"><ele>500.6666666666667</ele><time>2026-05-03T10:00:29.594Z</time></trkpt><trkpt lat="46.05991" lon="13.5741167"><ele>500.33333333333337</ele><time>2026-05-03T10:00:31.594Z</time></trkpt><trkpt lat="46.05995" lon="13.57392"><ele>500.0</ele><time>2026-05-03T10:00:58.593Z</time></trkpt><trkpt lat="46.059975" lon="13.5738217"><ele>499.6666666666667</ele><time>2026-05-03T10:00:59.594Z</time></trkpt><trkpt lat="46.0600083" lon="13.5737333"><ele>499.33333333333337</ele><time>2026-05-03T10:01:00.594Z</time></trkpt><trkpt lat="46.0600467" lon="13.57366"><ele>499.0</ele><time>2026-05-03T10:01:01.594Z</time></trkpt><trkpt lat="46.0601317" lon="13.5735517"><ele>504.4</ele><time>2026-05-03T10:01:03.593Z</time></trkpt><trkpt lat="46.0602567" lon="13.57349"><ele>509.79999999999995</ele><time>2026-05-03T10:01:05.594Z</time></trkpt><trkpt lat="46.0603267" lon="13.5734417"><ele>515.2</ele><time>2026-05-03T10:01:06.593Z</time></trkpt><trkpt lat="46.060405" lon="13.5733883"><ele>520.6</ele><time>2026-05-03T10:01:07.597Z</time></trkpt><trkpt lat="46.060485" lon="13.5733217"><ele>526.0</ele><time>2026-05-03T10:01:08.595Z</time></trkpt><trkpt lat="46.0605533" lon="13.5732417"><ele>526.0</ele><time>2026-05-03T10:01:09.595Z</time></trkpt><trkpt lat="46.0606183" lon="13.5731517"><ele>526.0</ele><time>2026-05-03T10:01:10.595Z</time></trkpt><trkpt lat="46.0606717" lon="13.5730583"><ele>526.0</ele><time>2026-05-03T10:01:11.594Z</time></trkpt><trkpt lat="46.060725" lon="13.5729733"><ele>526.0</ele><time>2026-05-03T10:01:12.595Z</time></trkpt><trkpt lat="46.0607783" lon="13.5729"><ele>526.0</ele><time>2026-05-03T10:01:13.594Z</time></trkpt><trkpt lat="46.0608317" lon="13.5728383"><ele>526.0</ele><time>2026-05-03T10:01:14.595Z</time></trkpt><trkpt lat="46.0608867" lon="13.57279"><ele>528.1666666666667</ele><time>2026-05-03T10:01:15.595Z</time></trkpt><trkpt lat="46.060955" lon="13.572755"><ele>530.3333333333334</ele><time>2026-05-03T10:01:16.594Z</time></trkpt><trkpt lat="46.0610267" lon="13.5727217"><ele>532.5</ele><time>2026-05-03T10:01:17.596Z</time></trkpt><trkpt lat="46.0610967" lon="13.5726883"><ele>534.6666666666666</ele><time>2026-05-03T10:01:18.594Z</time></trkpt><trkpt lat="46.0611567" lon="13.5726483"><ele>536.8333333333333</ele><time>2026-05-03T10:01:19.594Z</time></trkpt><trkpt lat="46.0612217" lon="13.5725883"><ele>539.0</ele><time>2026-05-03T10:01:20.594Z</time></trkpt><trkpt lat="46.0613033" lon="13.5725167"><ele>539.0</ele><time>2026-05-03T10:01:21.594Z</time></trkpt><trkpt lat="46.06138" lon="13.5724267"><ele>539.0</ele><time>2026-05-03T10:01:22.594Z</time></trkpt><trkpt lat="46.06145" lon="13.5723433"><ele>539.0</ele><time>2026-05-03T10:01:23.594Z</time></trkpt><trkpt lat="46.0615117" lon="13.5722633"><ele>539.0</ele><time>2026-05-03T10:01:24.593Z</time></trkpt><trkpt lat="46.061555" lon="13.5721767"><ele>539.0</ele><time>2026-05-03T10:01:25.593Z</time></trkpt><trkpt lat="46.0615783" lon="13.5720867"><ele>539.0</ele><time>2026-05-03T10:01:26.594Z</time></trkpt><trkpt lat="46.0615983" lon="13.5719067"><ele>538.8333333333333</ele><time>2026-05-03T10:01:28.594Z</time></trkpt><trkpt lat="46.0615967" lon="13.571795"><ele>538.6666666666666</ele><time>2026-05-03T10:01:29.595Z</time></trkpt><trkpt lat="46.061585" lon="13.5716867"><ele>538.5</ele><time>2026-05-03T10:01:30.594Z</time></trkpt><trkpt lat="46.0615867" lon="13.571575"><ele>538.3333333333334</ele><time>2026-05-03T10:01:31.595Z</time></trkpt><trkpt lat="46.06161" lon="13.5714733"><ele>538.1666666666667</ele><time>2026-05-03T10:01:32.594Z</time></trkpt><trkpt lat="46.0616533" lon="13.57138"><ele>538.0</ele><time>2026-05-03T10:01:33.594Z</time></trkpt><trkpt lat="46.061705" lon="13.57129"><ele>540.8333333333334</ele><time>2026-05-03T10:01:34.593Z</time></trkpt><trkpt lat="46.0617517" lon="13.5712233"><ele>543.6666666666667</ele><time>2026-05-03T10:01:35.593Z</time></trkpt><trkpt lat="46.0618217" lon="13.57116"><ele>546.5</ele><time>2026-05-03T10:01:37.593Z</time></trkpt><trkpt lat="46.0618633" lon="13.5712467"><ele>549.3333333333334</ele><time>2026-05-03T10:01:40.593Z</time></trkpt><trkpt lat="46.0618017" lon="13.571305"><ele>552.1666666666666</ele><time>2026-05-03T10:01:42.593Z</time></trkpt><trkpt lat="46.061725" lon="13.571395"><ele>555.0</ele><time>2026-05-03T10:01:44.595Z</time></trkpt><trkpt lat="46.061735" lon="13.5715467"><ele>555.0000000000001</ele><time>2026-05-03T10:01:46.593Z</time></trkpt><trkpt lat="46.061755" lon="13.5716467"><ele>555.0</ele><time>2026-05-03T10:01:47.594Z</time></trkpt><trkpt lat="46.06178" lon="13.5717317"><ele>555.0</ele><time>2026-05-03T10:01:48.594Z</time></trkpt><trkpt lat="46.0617983" lon="13.5718217"><ele>555.0</ele><time>2026-05-03T10:01:49.593Z</time></trkpt><trkpt lat="46.06182" lon="13.57196"><ele>555.0</ele><time>2026-05-03T10:01:51.594Z</time></trkpt><trkpt lat="46.0618817" lon="13.5719983"><ele>555.0000000000001</ele><time>2026-05-03T10:01:53.593Z</time></trkpt><trkpt lat="46.0619417" lon="13.5719283"><ele>555.0</ele><time>2026-05-03T10:01:56.596Z</time></trkpt><trkpt lat="46.06195" lon="13.5717933"><ele>555.0000000000001</ele><time>2026-05-03T10:01:58.593Z</time></trkpt><trkpt lat="46.0619367" lon="13.57169"><ele>555.0</ele><time>2026-05-03T10:01:59.593Z</time></trkpt><trkpt lat="46.0619417" lon="13.5715783"><ele>555.0</ele><time>2026-05-03T10:02:00.594Z</time></trkpt><trkpt lat="46.06195" lon="13.57147"><ele>555.0</ele><time>2026-05-03T10:02:01.593Z</time></trkpt><trkpt lat="46.0619833" lon="13.5713817"><ele>555.0</ele><time>2026-05-03T10:02:02.593Z</time></trkpt><trkpt lat="46.0620233" lon="13.5713017"><ele>555.0000000000001</ele><time>2026-05-03T10:02:03.593Z</time></trkpt><trkpt lat="46.0620733" lon="13.5712433"><ele>555.0</ele><time>2026-05-03T10:02:04.594Z</time></trkpt><trkpt lat="46.0621417" lon="13.5712033"><ele>556.0</ele><time>2026-05-03T10:02:05.595Z</time></trkpt><trkpt lat="46.062235" lon="13.5711767"><ele>557.0</ele><time>2026-05-03T10:02:06.594Z</time></trkpt><trkpt lat="46.0623367" lon="13.5711667"><ele>558.0</ele><time>2026-05-03T10:02:07.594Z</time></trkpt><trkpt lat="46.062425" lon="13.5711483"><ele>559.0</ele><time>2026-05-03T10:02:08.595Z</time></trkpt><trkpt lat="46.0625" lon="13.5711433"><ele>560.0</ele><time>2026-05-03T10:02:09.593Z</time></trkpt><trkpt lat="46.0625817" lon="13.5710917"><ele>560.0</ele><time>2026-05-03T10:02:11.593Z</time></trkpt><trkpt lat="46.0625767" lon="13.5709983"><ele>560.0</ele><time>2026-05-03T10:02:13.595Z</time></trkpt><trkpt lat="46.0624967" lon="13.57092"><ele>560.0</ele><time>2026-05-03T10:02:15.594Z</time></trkpt><trkpt lat="46.06242" lon="13.5708583"><ele>560.0</ele><time>2026-05-03T10:02:16.594Z</time></trkpt><trkpt lat="46.062335" lon="13.5707783"><ele>560.0</ele><time>2026-05-03T10:02:17.594Z</time></trkpt><trkpt lat="46.0622583" lon="13.5706783"><ele>560.0</ele><time>2026-05-03T10:02:18.595Z</time></trkpt><trkpt lat="46.0621883" lon="13.5705783"><ele>560.0</ele><time>2026-05-03T10:02:19.594Z</time></trkpt><trkpt lat="46.0621233" lon="13.5704733"><ele>560.0</ele><time>2026-05-03T10:02:20.595Z</time></trkpt><trkpt lat="46.062075" lon="13.5703633"><ele>560.0</ele><time>2026-05-03T10:02:21.593Z</time></trkpt><trkpt lat="46.062025" lon="13.5702733"><ele>560.0</ele><time>2026-05-03T10:02:22.593Z</time></trkpt><trkpt lat="46.062015" lon="13.5701783"><ele>560.0</ele><time>2026-05-03T10:02:23.593Z</time></trkpt><trkpt lat="46.0620167" lon="13.570085"><ele>561.0</ele><time>2026-05-03T10:02:24.594Z</time></trkpt><trkpt lat="46.0620483" lon="13.5699967"><ele>562.0</ele><time>2026-05-03T10:02:25.596Z</time></trkpt><trkpt lat="46.062095" lon="13.5699067"><ele>563.0</ele><time>2026-05-03T10:02:26.594Z</time></trkpt><trkpt lat="46.0621483" lon="13.5698233"><ele>564.0</ele><time>2026-05-03T10:02:27.594Z</time></trkpt><trkpt lat="46.0622067" lon="13.5697517"><ele>565.0</ele><time>2026-05-03T10:02:28.595Z</time></trkpt><trkpt lat="46.0622583" lon="13.5696667"><ele>566.0</ele><time>2026-05-03T10:02:29.594Z</time></trkpt><trkpt lat="46.062305" lon="13.569575"><ele>564.2</ele><time>2026-05-03T10:02:30.595Z</time></trkpt><trkpt lat="46.0623417" lon="13.5694717"><ele>562.4000000000001</ele><time>2026-05-03T10:02:31.595Z</time></trkpt><trkpt lat="46.06237" lon="13.56933"><ele>560.6</ele><time>2026-05-03T10:02:32.595Z</time></trkpt><trkpt lat="46.0624017" lon="13.569205"><ele>558.8000000000001</ele><time>2026-05-03T10:02:33.595Z</time></trkpt><trkpt lat="46.0624183" lon="13.5690683"><ele>557.0</ele><time>2026-05-03T10:02:34.594Z</time></trkpt><trkpt lat="46.06244" lon="13.5689467"><ele>563.3333333333333</ele><time>2026-05-03T10:02:35.594Z</time></trkpt><trkpt lat="46.0624767" lon="13.5688517"><ele>569.6666666666666</ele><time>2026-05-03T10:02:36.595Z</time></trkpt><trkpt lat="46.0625117" lon="13.5687467"><ele>576.0</ele><time>2026-05-03T10:02:37.594Z</time></trkpt><trkpt lat="46.0625667" lon="13.568655"><ele>582.3333333333334</ele><time>2026-05-03T10:02:38.597Z</time></trkpt><trkpt lat="46.0626283" lon="13.56857"><ele>588.6666666666667</ele><time>2026-05-03T10:02:39.593Z</time></trkpt><trkpt lat="46.0626867" lon="13.5684733"><ele>595.0</ele><time>2026-05-03T10:02:40.594Z</time></trkpt><trkpt lat="46.0627317" lon="13.5683667"><ele>595.0</ele><time>2026-05-03T10:02:41.594Z</time></trkpt><trkpt lat="46.0627767" lon="13.5682833"><ele>595.0</ele><time>2026-05-03T10:02:42.594Z</time></trkpt><trkpt lat="46.0628267" lon="13.568135"><ele>595.0</ele><time>2026-05-03T10:02:44.594Z</time></trkpt><trkpt lat="46.0628533" lon="13.5680167"><ele>595.0</ele><time>2026-05-03T10:02:46.594Z</time></trkpt><trkpt lat="46.06289" lon="13.5679233"><ele>595.0</ele><time>2026-05-03T10:03:00.593Z</time></trkpt><trkpt lat="46.0628667" lon="13.568055"><ele>595.0</ele><time>2026-05-03T10:03:06.593Z</time></trkpt><trkpt lat="46.0628033" lon="13.5682133"><ele>595.0</ele><time>2026-05-03T10:03:08.594Z</time></trkpt><trkpt lat="46.062775" lon="13.5683267"><ele>595.0</ele><time>2026-05-03T10:03:09.594Z</time></trkpt><trkpt lat="46.06274" lon="13.568435"><ele>595.0</ele><time>2026-05-03T10:03:10.593Z</time></trkpt><trkpt lat="46.062695" lon="13.56855"><ele>595.0</ele><time>2026-05-03T10:03:11.596Z</time></trkpt><trkpt lat="46.0626567" lon="13.568655"><ele>595.0</ele><time>2026-05-03T10:03:12.594Z</time></trkpt><trkpt lat="46.0626267" lon="13.5687467"><ele>595.0</ele><time>2026-05-03T10:03:13.593Z</time></trkpt><trkpt lat="46.0626" lon="13.5688667"><ele>595.0</ele><time>2026-05-03T10:03:15.595Z</time></trkpt><trkpt lat="46.06261" lon="13.5690417"><ele>595.0</ele><time>2026-05-03T10:03:17.594Z</time></trkpt><trkpt lat="46.06262" lon="13.5691633"><ele>595.0</ele><time>2026-05-03T10:03:18.594Z</time></trkpt><trkpt lat="46.06261" lon="13.5692783"><ele>595.0</ele><time>2026-05-03T10:03:19.595Z</time></trkpt><trkpt lat="46.0625963" lon="13.5693955"><ele>595.0</ele><time>2026-05-03T10:03:20.595Z</time></trkpt><trkpt lat="46.0625849" lon="13.5695088"><ele>595.0</ele><time>2026-05-03T10:03:21.594Z</time></trkpt><trkpt lat="46.0625822" lon="13.5696115"><ele>595.0</ele><time>2026-05-03T10:03:22.594Z</time></trkpt><trkpt lat="46.0625906" lon="13.5697038"><ele>595.0</ele><time>2026-05-03T10:03:23.595Z</time></trkpt><trkpt lat="46.062632" lon="13.5698434"><ele>595.0</ele><time>2026-05-03T10:03:25.593Z</time></trkpt><trkpt lat="46.0627315" lon="13.5699294"><ele>595.0</ele><time>2026-05-03T10:03:27.595Z</time></trkpt><trkpt lat="46.0627954" lon="13.5699768"><ele>595.0</ele><time>2026-05-03T10:03:28.593Z</time></trkpt><trkpt lat="46.0628634" lon="13.5700342"><ele>595.0</ele><time>2026-05-03T10:03:29.595Z</time></trkpt><trkpt lat="46.0629379" lon="13.5700955"><ele>595.0</ele><time>2026-05-03T10:03:30.595Z</time></trkpt><trkpt lat="46.0630248" lon="13.5701486"><ele>595.0</ele><time>2026-05-03T10:03:31.594Z</time></trkpt><trkpt lat="46.0631127" lon="13.5701954"><ele>595.0</ele><time>2026-05-03T10:03:32.594Z</time></trkpt><trkpt lat="46.0631992" lon="13.5702438"><ele>595.0</ele><time>2026-05-03T10:03:33.594Z</time></trkpt><trkpt lat="46.0632886" lon="13.5702875"><ele>595.0</ele><time>2026-05-03T10:03:34.594Z</time></trkpt><trkpt lat="46.0633817" lon="13.5703281"><ele>596.4</ele><time>2026-05-03T10:03:35.594Z</time></trkpt><trkpt lat="46.0634765" lon="13.5703687"><ele>597.8</ele><time>2026-05-03T10:03:36.594Z</time></trkpt><trkpt lat="46.0635731" lon="13.5704134"><ele>599.2</ele><time>2026-05-03T10:03:37.595Z</time></trkpt><trkpt lat="46.06367" lon="13.5704557"><ele>600.6</ele><time>2026-05-03T10:03:38.594Z</time></trkpt><trkpt lat="46.0637647" lon="13.5704879"><ele>602.0</ele><time>2026-05-03T10:03:39.596Z</time></trkpt><trkpt lat="46.0638535" lon="13.5705054"><ele>602.0</ele><time>2026-05-03T10:03:40.594Z</time></trkpt><trkpt lat="46.0639341" lon="13.5705214"><ele>602.0</ele><time>2026-05-03T10:03:41.595Z</time></trkpt><trkpt lat="46.0640042" lon="13.5705318"><ele>602.0</ele><time>2026-05-03T10:03:42.595Z</time></trkpt><trkpt lat="46.0640975" lon="13.5705717"><ele>602.0</ele><time>2026-05-03T10:03:44.594Z</time></trkpt><trkpt lat="46.0641322" lon="13.5706729"><ele>602.0</ele><time>2026-05-03T10:03:46.593Z</time></trkpt><trkpt lat="46.0641073" lon="13.5707922"><ele>602.0</ele><time>2026-05-03T10:03:48.593Z</time></trkpt><trkpt lat="46.0640028" lon="13.5709443"><ele>602.0</ele><time>2026-05-03T10:03:50.594Z</time></trkpt><trkpt lat="46.0639309" lon="13.5710323"><ele>602.0</ele><time>2026-05-03T10:03:51.594Z</time></trkpt><trkpt lat="46.063873" lon="13.5711031"><ele>602.0</ele><time>2026-05-03T10:03:52.596Z</time></trkpt><trkpt lat="46.063826" lon="13.5711701"><ele>602.0</ele><time>2026-05-03T10:03:53.594Z</time></trkpt><trkpt lat="46.063791" lon="13.5712479"><ele>602.0</ele><time>2026-05-03T10:03:54.594Z</time></trkpt><trkpt lat="46.0637576" lon="13.5713314"><ele>602.0</ele><time>2026-05-03T10:03:55.594Z</time></trkpt><trkpt lat="46.0637162" lon="13.571434"><ele>603.8000000000001</ele><time>2026-05-03T10:03:56.594Z</time></trkpt><trkpt lat="46.0636687" lon="13.5715539"><ele>605.6</ele><time>2026-05-03T10:03:57.594Z</time></trkpt><trkpt lat="46.0636191" lon="13.5716821"><ele>607.4000000000001</ele><time>2026-05-03T10:03:58.593Z</time></trkpt><trkpt lat="46.0635658" lon="13.5718176"><ele>609.2</ele><time>2026-05-03T10:03:59.595Z</time></trkpt><trkpt lat="46.0635087" lon="13.5719443"><ele>611.0</ele><time>2026-05-03T10:04:00.594Z</time></trkpt><trkpt lat="46.0634558" lon="13.5720447"><ele>612.3333333333333</ele><time>2026-05-03T10:04:01.593Z</time></trkpt><trkpt lat="46.0634166" lon="13.5721213"><ele>613.6666666666666</ele><time>2026-05-03T10:04:02.594Z</time></trkpt><trkpt lat="46.0633945" lon="13.5722481"><ele>615.0</ele><time>2026-05-03T10:04:04.596Z</time></trkpt><trkpt lat="46.0634275" lon="13.5724064"><ele>616.3333333333334</ele><time>2026-05-03T10:04:06.595Z</time></trkpt><trkpt lat="46.0634567" lon="13.5724938"><ele>617.6666666666667</ele><time>2026-05-03T10:04:07.594Z</time></trkpt><trkpt lat="46.0635181" lon="13.5726138"><ele>619.0</ele><time>2026-05-03T10:04:09.595Z</time></trkpt><trkpt lat="46.0635875" lon="13.572607"><ele>619.0</ele><time>2026-05-03T10:04:12.595Z</time></trkpt><trkpt lat="46.0635822" lon="13.572495"><ele>619.0</ele><time>2026-05-03T10:04:14.594Z</time></trkpt><trkpt lat="46.0635671" lon="13.5723276"><ele>619.0</ele><time>2026-05-03T10:04:16.594Z</time></trkpt><trkpt lat="46.0635977" lon="13.5722152"><ele>619.0</ele><time>2026-05-03T10:04:18.595Z</time></trkpt><trkpt lat="46.0636647" lon="13.5722377"><ele>619.0</ele><time>2026-05-03T10:04:20.595Z</time></trkpt><trkpt lat="46.0637171" lon="13.5723031"><ele>619.0</ele><time>2026-05-03T10:04:22.595Z</time></trkpt><trkpt lat="46.063723" lon="13.5724358"><ele>619.0</ele><time>2026-05-03T10:04:24.594Z</time></trkpt><trkpt lat="46.063786" lon="13.5724469"><ele>619.0</ele><time>2026-05-03T10:04:28.595Z</time></trkpt><trkpt lat="46.063786" lon="13.5723147"><ele>619.0</ele><time>2026-05-03T10:04:30.594Z</time></trkpt><trkpt lat="46.0638033" lon="13.57214"><ele>619.0</ele><time>2026-05-03T10:04:32.594Z</time></trkpt><trkpt lat="46.0638983" lon="13.57201"><ele>619.0</ele><time>2026-05-03T10:04:34.594Z</time></trkpt><trkpt lat="46.0639583" lon="13.5719567"><ele>617.6666666666667</ele><time>2026-05-03T10:04:35.595Z</time></trkpt><trkpt lat="46.0640267" lon="13.5718983"><ele>616.3333333333334</ele><time>2026-05-03T10:04:36.595Z</time></trkpt><trkpt lat="46.0640833" lon="13.5718317"><ele>615.0</ele><time>2026-05-03T10:04:37.595Z</time></trkpt><trkpt lat="46.0641367" lon="13.571755"><ele>613.6666666666666</ele><time>2026-05-03T10:04:38.596Z</time></trkpt><trkpt lat="46.06418" lon="13.5716633"><ele>612.3333333333333</ele><time>2026-05-03T10:04:39.595Z</time></trkpt><trkpt lat="46.0642417" lon="13.571575"><ele>611.0</ele><time>2026-05-03T10:04:40.596Z</time></trkpt><trkpt lat="46.0643" lon="13.5714933"><ele>613.6666666666666</ele><time>2026-05-03T10:04:41.594Z</time></trkpt><trkpt lat="46.0643583" lon="13.5714283"><ele>616.3333333333333</ele><time>2026-05-03T10:04:42.594Z</time></trkpt><trkpt lat="46.0644183" lon="13.5713817"><ele>619.0</ele><time>2026-05-03T10:04:43.598Z</time></trkpt><trkpt lat="46.064485" lon="13.571345"><ele>621.6666666666666</ele><time>2026-05-03T10:04:44.595Z</time></trkpt><trkpt lat="46.0645567" lon="13.5713117"><ele>624.3333333333334</ele><time>2026-05-03T10:04:45.594Z</time></trkpt><trkpt lat="46.0646233" lon="13.571265"><ele>627.0</ele><time>2026-05-03T10:04:46.594Z</time></trkpt><trkpt lat="46.0647083" lon="13.5711567"><ele>627.0</ele><time>2026-05-03T10:04:48.594Z</time></trkpt><trkpt lat="46.0647683" lon="13.5710983"><ele>627.0</ele><time>2026-05-03T10:04:50.595Z</time></trkpt><trkpt lat="46.0648033" lon="13.5712333"><ele>627.0</ele><time>2026-05-03T10:04:53.593Z</time></trkpt><trkpt lat="46.0647217" lon="13.571385"><ele>627.0</ele><time>2026-05-03T10:04:55.594Z</time></trkpt><trkpt lat="46.0646417" lon="13.5714583"><ele>627.0</ele><time>2026-05-03T10:04:56.596Z</time></trkpt><trkpt lat="46.0645583" lon="13.5715217"><ele>629.1666666666666</ele><time>2026-05-03T10:04:57.594Z</time></trkpt><trkpt lat="46.064485" lon="13.5715817"><ele>631.3333333333334</ele><time>2026-05-03T10:04:58.596Z</time></trkpt><trkpt lat="46.064425" lon="13.57165"><ele>633.5</ele><time>2026-05-03T10:04:59.594Z</time></trkpt><trkpt lat="46.064375" lon="13.5717417"><ele>635.6666666666667</ele><time>2026-05-03T10:05:00.595Z</time></trkpt><trkpt lat="46.0643633" lon="13.571835"><ele>637.8333333333334</ele><time>2026-05-03T10:05:01.596Z</time></trkpt><trkpt lat="46.0643767" lon="13.5719383"><ele>640.0</ele><time>2026-05-03T10:05:02.595Z</time></trkpt><trkpt lat="46.0644233" lon="13.5720617"><ele>640.0</ele><time>2026-05-03T10:05:04.595Z</time></trkpt><trkpt lat="46.0645067" lon="13.5720133"><ele>640.0</ele><time>2026-05-03T10:05:06.595Z</time></trkpt><trkpt lat="46.064525" lon="13.5718983"><ele>640.0</ele><time>2026-05-03T10:05:08.594Z</time></trkpt><trkpt lat="46.0645683" lon="13.5718167"><ele>640.0</ele><time>2026-05-03T10:05:10.594Z</time></trkpt><trkpt lat="46.06461" lon="13.5719133"><ele>640.0</ele><time>2026-05-03T10:05:12.594Z</time></trkpt><trkpt lat="46.0646183" lon="13.5720183"><ele>640.0</ele><time>2026-05-03T10:05:13.595Z</time></trkpt><trkpt lat="46.06463" lon="13.5721167"><ele>640.8333333333334</ele><time>2026-05-03T10:05:14.594Z</time></trkpt><trkpt lat="46.0646617" lon="13.5722"><ele>641.6666666666667</ele><time>2026-05-03T10:05:15.595Z</time></trkpt><trkpt lat="46.0647017" lon="13.5722933"><ele>642.5</ele><time>2026-05-03T10:05:16.596Z</time></trkpt><trkpt lat="46.0647383" lon="13.5723967"><ele>643.3333333333334</ele><time>2026-05-03T10:05:17.596Z</time></trkpt><trkpt lat="46.06477" lon="13.57249"><ele>644.1666666666666</ele><time>2026-05-03T10:05:18.597Z</time></trkpt><trkpt lat="46.0648417" lon="13.5726033"><ele>645.0</ele><time>2026-05-03T10:05:20.595Z</time></trkpt><trkpt lat="46.06491" lon="13.5725667"><ele>646.6666666666666</ele><time>2026-05-03T10:05:22.596Z</time></trkpt><trkpt lat="46.064985" lon="13.5725583"><ele>648.3333333333334</ele><time>2026-05-03T10:05:25.595Z</time></trkpt><trkpt lat="46.065075" lon="13.5725083"><ele>650.0</ele><time>2026-05-03T10:05:27.594Z</time></trkpt><trkpt lat="46.06514" lon="13.57247"><ele>651.6666666666667</ele><time>2026-05-03T10:05:30.594Z</time></trkpt><trkpt lat="46.0650783" lon="13.572425"><ele>653.3333333333334</ele><time>2026-05-03T10:05:34.595Z</time></trkpt><trkpt lat="46.0650317" lon="13.57252"><ele>655.0</ele><time>2026-05-03T10:05:37.595Z</time></trkpt><trkpt lat="46.0649617" lon="13.572555"><ele>655.0</ele><time>2026-05-03T10:05:39.594Z</time></trkpt><trkpt lat="46.0648733" lon="13.5725633"><ele>645.0</ele><time>2026-05-03T10:05:41.594Z</time></trkpt><trkpt lat="46.0647967" lon="13.5725233"><ele>645.0</ele><time>2026-05-03T10:05:43.595Z</time></trkpt><trkpt lat="46.0647333" lon="13.5725183"><ele>645.0</ele><time>2026-05-03T10:05:47.594Z</time></trkpt></trkseg><trkseg><trkpt lat="46.0648317" lon="13.5725517"><ele>647.0</ele><time>2026-05-03T10:43:30.595Z</time></trkpt><trkpt lat="46.06504" lon="13.57245"><ele>649.0</ele><time>2026-05-03T10:43:34.594Z</time></trkpt><trkpt lat="46.0650783" lon="13.57236"><ele>651.0</ele><time>2026-05-03T10:43:35.594Z</time></trkpt><trkpt lat="46.0650933" lon="13.5722617"><ele>653.0</ele><time>2026-05-03T10:43:36.595Z</time></trkpt><trkpt lat="46.0650867" lon="13.5721617"><ele>655.0</ele><time>2026-05-03T10:43:37.595Z</time></trkpt><trkpt lat="46.0650733" lon="13.5720633"><ele>655.4285714285714</ele><time>2026-05-03T10:43:38.595Z</time></trkpt><trkpt lat="46.0650567" lon="13.5719683"><ele>655.8571428571429</ele><time>2026-05-03T10:43:39.594Z</time></trkpt><trkpt lat="46.0650417" lon="13.5718733"><ele>656.2857142857142</ele><time>2026-05-03T10:43:40.593Z</time></trkpt><trkpt lat="46.065035" lon="13.5717733"><ele>656.7142857142858</ele><time>2026-05-03T10:43:41.596Z</time></trkpt><trkpt lat="46.06507" lon="13.57166"><ele>657.1428571428571</ele><time>2026-05-03T10:43:43.594Z</time></trkpt><trkpt lat="46.065155" lon="13.5716833"><ele>657.5714285714286</ele><time>2026-05-03T10:43:45.594Z</time></trkpt><trkpt lat="46.06521" lon="13.5717367"><ele>658.0</ele><time>2026-05-03T10:43:46.594Z</time></trkpt><trkpt lat="46.0652833" lon="13.571795"><ele>658.0</ele><time>2026-05-03T10:43:47.596Z</time></trkpt><trkpt lat="46.0653667" lon="13.5718483"><ele>658.0</ele><time>2026-05-03T10:43:48.595Z</time></trkpt><trkpt lat="46.065445" lon="13.5719033"><ele>658.0</ele><time>2026-05-03T10:43:49.594Z</time></trkpt><trkpt lat="46.06551" lon="13.5719367"><ele>658.0</ele><time>2026-05-03T10:43:50.596Z</time></trkpt><trkpt lat="46.06559" lon="13.5719"><ele>658.0</ele><time>2026-05-03T10:43:52.594Z</time></trkpt><trkpt lat="46.0655467" lon="13.5717867"><ele>658.0</ele><time>2026-05-03T10:43:54.594Z</time></trkpt><trkpt lat="46.0654883" lon="13.5717367"><ele>658.0</ele><time>2026-05-03T10:43:55.594Z</time></trkpt><trkpt lat="46.0654167" lon="13.57168"><ele>658.0</ele><time>2026-05-03T10:43:56.594Z</time></trkpt><trkpt lat="46.0653517" lon="13.5716233"><ele>658.0</ele><time>2026-05-03T10:43:57.593Z</time></trkpt><trkpt lat="46.0653083" lon="13.5715533"><ele>658.0</ele><time>2026-05-03T10:43:58.596Z</time></trkpt><trkpt lat="46.06531" lon="13.5714367"><ele>658.0</ele><time>2026-05-03T10:44:00.594Z</time></trkpt><trkpt lat="46.0654033" lon="13.5714317"><ele>658.0</ele><time>2026-05-03T10:44:02.595Z</time></trkpt><trkpt lat="46.06548" lon="13.571485"><ele>658.0</ele><time>2026-05-03T10:44:03.595Z</time></trkpt><trkpt lat="46.065565" lon="13.57154"><ele>658.0</ele><time>2026-05-03T10:44:04.595Z</time></trkpt><trkpt lat="46.0656633" lon="13.5716067"><ele>658.0</ele><time>2026-05-03T10:44:05.595Z</time></trkpt><trkpt lat="46.0657733" lon="13.5716767"><ele>658.0</ele><time>2026-05-03T10:44:06.594Z</time></trkpt><trkpt lat="46.0658867" lon="13.57175"><ele>658.0</ele><time>2026-05-03T10:44:07.594Z</time></trkpt><trkpt lat="46.0660017" lon="13.5718217"><ele>663.5</ele><time>2026-05-03T10:44:08.595Z</time></trkpt><trkpt lat="46.0661167" lon="13.571875"><ele>669.0</ele><time>2026-05-03T10:44:09.596Z</time></trkpt><trkpt lat="46.0662317" lon="13.5719017"><ele>674.5</ele><time>2026-05-03T10:44:10.595Z</time></trkpt><trkpt lat="46.066345" lon="13.5719067"><ele>680.0</ele><time>2026-05-03T10:44:11.594Z</time></trkpt><trkpt lat="46.0664633" lon="13.5718867"><ele>680.0</ele><time>2026-05-03T10:44:12.594Z</time></trkpt><trkpt lat="46.0665733" lon="13.5718517"><ele>680.0</ele><time>2026-05-03T10:44:13.596Z</time></trkpt><trkpt lat="46.066665" lon="13.5718167"><ele>680.0</ele><time>2026-05-03T10:44:14.595Z</time></trkpt><trkpt lat="46.06675" lon="13.5717733"><ele>680.0</ele><time>2026-05-03T10:44:15.594Z</time></trkpt><trkpt lat="46.0668233" lon="13.5717133"><ele>680.0</ele><time>2026-05-03T10:44:16.595Z</time></trkpt><trkpt lat="46.0668933" lon="13.5716633"><ele>682.5</ele><time>2026-05-03T10:44:17.596Z</time></trkpt><trkpt lat="46.0669617" lon="13.5716367"><ele>685.0</ele><time>2026-05-03T10:44:18.595Z</time></trkpt><trkpt lat="46.067035" lon="13.57168"><ele>687.5</ele><time>2026-05-03T10:44:19.596Z</time></trkpt><trkpt lat="46.0670983" lon="13.571715"><ele>690.0</ele><time>2026-05-03T10:44:20.594Z</time></trkpt><trkpt lat="46.06718" lon="13.57178"><ele>692.5</ele><time>2026-05-03T10:44:21.594Z</time></trkpt><trkpt lat="46.0672767" lon="13.5718683"><ele>695.0</ele><time>2026-05-03T10:44:22.595Z</time></trkpt><trkpt lat="46.06739" lon="13.5719583"><ele>694.0</ele><time>2026-05-03T10:44:23.596Z</time></trkpt><trkpt lat="46.067505" lon="13.57205"><ele>693.0</ele><time>2026-05-03T10:44:24.595Z</time></trkpt><trkpt lat="46.067635" lon="13.5721367"><ele>692.0</ele><time>2026-05-03T10:44:25.594Z</time></trkpt><trkpt lat="46.0677667" lon="13.572225"><ele>691.0</ele><time>2026-05-03T10:44:26.597Z</time></trkpt><trkpt lat="46.0678933" lon="13.57231"><ele>691.0</ele><time>2026-05-03T10:44:27.594Z</time></trkpt><trkpt lat="46.0680017" lon="13.5723967"><ele>691.0</ele><time>2026-05-03T10:44:28.594Z</time></trkpt><trkpt lat="46.0680867" lon="13.572485"><ele>691.0</ele><time>2026-05-03T10:44:29.594Z</time></trkpt><trkpt lat="46.068145" lon="13.572585"><ele>691.0</ele><time>2026-05-03T10:44:30.593Z</time></trkpt><trkpt lat="46.0681817" lon="13.5727017"><ele>691.0</ele><time>2026-05-03T10:44:31.594Z</time></trkpt><trkpt lat="46.06821" lon="13.57284"><ele>692.0</ele><time>2026-05-03T10:44:32.595Z</time></trkpt><trkpt lat="46.0682283" lon="13.5729817"><ele>693.0</ele><time>2026-05-03T10:44:33.593Z</time></trkpt><trkpt lat="46.0682267" lon="13.5731317"><ele>694.0</ele><time>2026-05-03T10:44:34.593Z</time></trkpt><trkpt lat="46.0682067" lon="13.5732733"><ele>695.0</ele><time>2026-05-03T10:44:35.593Z</time></trkpt><trkpt lat="46.0681583" lon="13.573405"><ele>696.0</ele><time>2026-05-03T10:44:36.594Z</time></trkpt><trkpt lat="46.06811" lon="13.5735217"><ele>696.0</ele><time>2026-05-03T10:44:37.594Z</time></trkpt><trkpt lat="46.0680833" lon="13.5736267"><ele>696.0</ele><time>2026-05-03T10:44:38.594Z</time></trkpt><trkpt lat="46.068065" lon="13.5737333"><ele>696.0</ele><time>2026-05-03T10:44:39.594Z</time></trkpt><trkpt lat="46.068065" lon="13.5738617"><ele>696.0</ele><time>2026-05-03T10:44:40.596Z</time></trkpt><trkpt lat="46.068095" lon="13.5739817"><ele>696.0</ele><time>2026-05-03T10:44:41.595Z</time></trkpt><trkpt lat="46.0681033" lon="13.5740733"><ele>696.0</ele><time>2026-05-03T10:44:42.593Z</time></trkpt><trkpt lat="46.0681833" lon="13.5741367"><ele>697.8333333333334</ele><time>2026-05-03T10:44:44.597Z</time></trkpt><trkpt lat="46.0682433" lon="13.5740717"><ele>699.6666666666666</ele><time>2026-05-03T10:44:46.593Z</time></trkpt><trkpt lat="46.0682417" lon="13.57396"><ele>701.5</ele><time>2026-05-03T10:44:47.596Z</time></trkpt><trkpt lat="46.0682583" lon="13.573835"><ele>703.3333333333333</ele><time>2026-05-03T10:44:48.594Z</time></trkpt><trkpt lat="46.0682817" lon="13.57372"><ele>705.1666666666666</ele><time>2026-05-03T10:44:49.596Z</time></trkpt><trkpt lat="46.0683183" lon="13.5736283"><ele>707.0</ele><time>2026-05-03T10:44:50.594Z</time></trkpt><trkpt lat="46.0684317" lon="13.57366"><ele>709.1428571428571</ele><time>2026-05-03T10:44:52.595Z</time></trkpt><trkpt lat="46.0684767" lon="13.5737267"><ele>711.2857142857142</ele><time>2026-05-03T10:44:53.594Z</time></trkpt><trkpt lat="46.068505" lon="13.5738367"><ele>713.4285714285714</ele><time>2026-05-03T10:44:54.594Z</time></trkpt><trkpt lat="46.0685217" lon="13.5739467"><ele>715.5714285714286</ele><time>2026-05-03T10:44:55.594Z</time></trkpt><trkpt lat="46.0685467" lon="13.574035"><ele>717.7142857142857</ele><time>2026-05-03T10:44:56.595Z</time></trkpt><trkpt lat="46.068605" lon="13.5740767"><ele>719.8571428571429</ele><time>2026-05-03T10:44:58.596Z</time></trkpt><trkpt lat="46.0686417" lon="13.573985"><ele>722.0</ele><time>2026-05-03T10:45:00.594Z</time></trkpt><trkpt lat="46.0686467" lon="13.5737717"><ele>721.25</ele><time>2026-05-03T10:45:02.596Z</time></trkpt><trkpt lat="46.0686483" lon="13.5735783"><ele>720.5</ele><time>2026-05-03T10:45:03.594Z</time></trkpt><trkpt lat="46.0686567" lon="13.5733833"><ele>719.75</ele><time>2026-05-03T10:45:04.595Z</time></trkpt><trkpt lat="46.0686683" lon="13.5731733"><ele>719.0</ele><time>2026-05-03T10:45:05.596Z</time></trkpt><trkpt lat="46.0686767" lon="13.5729617"><ele>718.0</ele><time>2026-05-03T10:45:06.594Z</time></trkpt><trkpt lat="46.0686717" lon="13.5727717"><ele>717.0</ele><time>2026-05-03T10:45:07.595Z</time></trkpt><trkpt lat="46.0686617" lon="13.5725867"><ele>716.0</ele><time>2026-05-03T10:45:08.595Z</time></trkpt><trkpt lat="46.0686417" lon="13.572415"><ele>715.0</ele><time>2026-05-03T10:45:09.594Z</time></trkpt><trkpt lat="46.0686167" lon="13.5722683"><ele>715.0</ele><time>2026-05-03T10:45:10.596Z</time></trkpt><trkpt lat="46.0685967" lon="13.57214"><ele>715.0</ele><time>2026-05-03T10:45:11.595Z</time></trkpt><trkpt lat="46.0685833" lon="13.572015"><ele>715.0</ele><time>2026-05-03T10:45:12.595Z</time></trkpt><trkpt lat="46.0686017" lon="13.5719033"><ele>715.0</ele><time>2026-05-03T10:45:13.595Z</time></trkpt><trkpt lat="46.0686317" lon="13.5717883"><ele>715.0</ele><time>2026-05-03T10:45:14.595Z</time></trkpt><trkpt lat="46.0686667" lon="13.5716683"><ele>715.0</ele><time>2026-05-03T10:45:15.595Z</time></trkpt><trkpt lat="46.0686933" lon="13.5715467"><ele>717.4</ele><time>2026-05-03T10:45:16.594Z</time></trkpt><trkpt lat="46.0687" lon="13.5714167"><ele>719.8</ele><time>2026-05-03T10:45:17.595Z</time></trkpt><trkpt lat="46.0686617" lon="13.5712817"><ele>722.2</ele><time>2026-05-03T10:45:18.595Z</time></trkpt><trkpt lat="46.0686233" lon="13.5711433"><ele>724.6</ele><time>2026-05-03T10:45:19.593Z</time></trkpt><trkpt lat="46.06859" lon="13.5710033"><ele>727.0</ele><time>2026-05-03T10:45:20.594Z</time></trkpt><trkpt lat="46.0685667" lon="13.5708567"><ele>728.6</ele><time>2026-05-03T10:45:21.594Z</time></trkpt><trkpt lat="46.068555" lon="13.570705"><ele>730.2</ele><time>2026-05-03T10:45:22.594Z</time></trkpt><trkpt lat="46.0685667" lon="13.5705483"><ele>731.8</ele><time>2026-05-03T10:45:23.593Z</time></trkpt><trkpt lat="46.0685833" lon="13.5703967"><ele>733.4</ele><time>2026-05-03T10:45:24.594Z</time></trkpt><trkpt lat="46.0686" lon="13.5702533"><ele>735.0</ele><time>2026-05-03T10:45:25.593Z</time></trkpt><trkpt lat="46.0686083" lon="13.5701083"><ele>735.0</ele><time>2026-05-03T10:45:26.594Z</time></trkpt><trkpt lat="46.0686" lon="13.5699567"><ele>735.0</ele><time>2026-05-03T10:45:27.594Z</time></trkpt><trkpt lat="46.0685717" lon="13.56981"><ele>735.0</ele><time>2026-05-03T10:45:28.594Z</time></trkpt><trkpt lat="46.0685283" lon="13.5696533"><ele>735.0</ele><time>2026-05-03T10:45:29.594Z</time></trkpt><trkpt lat="46.0684867" lon="13.569485"><ele>734.5</ele><time>2026-05-03T10:45:30.595Z</time></trkpt><trkpt lat="46.0684267" lon="13.5693267"><ele>734.0</ele><time>2026-05-03T10:45:31.595Z</time></trkpt><trkpt lat="46.0683767" lon="13.5691567"><ele>733.5</ele><time>2026-05-03T10:45:32.595Z</time></trkpt><trkpt lat="46.068305" lon="13.5689967"><ele>733.0</ele><time>2026-05-03T10:45:33.594Z</time></trkpt><trkpt lat="46.06824" lon="13.5688533"><ele>732.6666666666667</ele><time>2026-05-03T10:45:34.594Z</time></trkpt><trkpt lat="46.0681967" lon="13.5687233"><ele>732.3333333333334</ele><time>2026-05-03T10:45:35.595Z</time></trkpt><trkpt lat="46.068175" lon="13.568595"><ele>732.0</ele><time>2026-05-03T10:45:36.594Z</time></trkpt><trkpt lat="46.0681767" lon="13.5684717"><ele>731.6666666666666</ele><time>2026-05-03T10:45:37.595Z</time></trkpt><trkpt lat="46.0681867" lon="13.5683617"><ele>731.3333333333333</ele><time>2026-05-03T10:45:38.595Z</time></trkpt><trkpt lat="46.0682567" lon="13.5682833"><ele>731.0</ele><time>2026-05-03T10:45:39.595Z</time></trkpt><trkpt lat="46.0683467" lon="13.5681967"><ele>731.0</ele><time>2026-05-03T10:45:40.595Z</time></trkpt><trkpt lat="46.0684233" lon="13.5680933"><ele>731.0</ele><time>2026-05-03T10:45:41.594Z</time></trkpt><trkpt lat="46.0684733" lon="13.5679667"><ele>731.0</ele><time>2026-05-03T10:45:42.593Z</time></trkpt><trkpt lat="46.0685133" lon="13.5678167"><ele>731.0</ele><time>2026-05-03T10:45:43.594Z</time></trkpt><trkpt lat="46.0685617" lon="13.56768"><ele>731.0</ele><time>2026-05-03T10:45:44.594Z</time></trkpt><trkpt lat="46.0686183" lon="13.5675817"><ele>731.8333333333333</ele><time>2026-05-03T10:45:45.594Z</time></trkpt><trkpt lat="46.0686867" lon="13.5675117"><ele>732.6666666666666</ele><time>2026-05-03T10:45:46.594Z</time></trkpt><trkpt lat="46.0687467" lon="13.5674667"><ele>733.5</ele><time>2026-05-03T10:45:47.594Z</time></trkpt><trkpt lat="46.0688117" lon="13.5673933"><ele>734.3333333333334</ele><time>2026-05-03T10:45:49.597Z</time></trkpt><trkpt lat="46.0688917" lon="13.5673367"><ele>735.1666666666667</ele><time>2026-05-03T10:45:52.593Z</time></trkpt><trkpt lat="46.0689233" lon="13.5672483"><ele>736.0</ele><time>2026-05-03T10:45:56.594Z</time></trkpt><trkpt lat="46.0689133" lon="13.567095"><ele>736.6666666666667</ele><time>2026-05-03T10:46:07.594Z</time></trkpt><trkpt lat="46.0689383" lon="13.5670017"><ele>737.3333333333334</ele><time>2026-05-03T10:46:09.595Z</time></trkpt><trkpt lat="46.068995" lon="13.5668633"><ele>738.0</ele><time>2026-05-03T10:46:11.594Z</time></trkpt><trkpt lat="46.0690267" lon="13.5667567"><ele>738.6666666666666</ele><time>2026-05-03T10:46:12.594Z</time></trkpt><trkpt lat="46.0690467" lon="13.5666433"><ele>739.3333333333333</ele><time>2026-05-03T10:46:13.594Z</time></trkpt><trkpt lat="46.0690533" lon="13.5665233"><ele>740.0</ele><time>2026-05-03T10:46:14.595Z</time></trkpt><trkpt lat="46.0690583" lon="13.5664033"><ele>740.0</ele><time>2026-05-03T10:46:15.594Z</time></trkpt><trkpt lat="46.0690517" lon="13.566285"><ele>740.0</ele><time>2026-05-03T10:46:16.594Z</time></trkpt><trkpt lat="46.069035" lon="13.56618"><ele>740.0</ele><time>2026-05-03T10:46:17.594Z</time></trkpt><trkpt lat="46.0689883" lon="13.5661017"><ele>740.0</ele><time>2026-05-03T10:46:18.595Z</time></trkpt><trkpt lat="46.0689283" lon="13.56602"><ele>740.0</ele><time>2026-05-03T10:46:19.594Z</time></trkpt><trkpt lat="46.0688633" lon="13.56593"><ele>740.0</ele><time>2026-05-03T10:46:20.595Z</time></trkpt><trkpt lat="46.0687983" lon="13.5658467"><ele>739.0</ele><time>2026-05-03T10:46:21.594Z</time></trkpt><trkpt lat="46.06875" lon="13.5657733"><ele>738.0</ele><time>2026-05-03T10:46:22.595Z</time></trkpt><trkpt lat="46.0686917" lon="13.5657167"><ele>737.0</ele><time>2026-05-03T10:46:23.595Z</time></trkpt><trkpt lat="46.06861" lon="13.565705"><ele>736.0</ele><time>2026-05-03T10:46:25.594Z</time></trkpt><trkpt lat="46.06849" lon="13.5657617"><ele>735.0</ele><time>2026-05-03T10:46:27.594Z</time></trkpt><trkpt lat="46.06842" lon="13.5657917"><ele>734.0</ele><time>2026-05-03T10:46:28.595Z</time></trkpt><trkpt lat="46.0683417" lon="13.5658283"><ele>736.0</ele><time>2026-05-03T10:46:29.596Z</time></trkpt><trkpt lat="46.068255" lon="13.5658833"><ele>738.0</ele><time>2026-05-03T10:46:30.595Z</time></trkpt><trkpt lat="46.068175" lon="13.5659417"><ele>740.0</ele><time>2026-05-03T10:46:31.596Z</time></trkpt><trkpt lat="46.0680933" lon="13.5660083"><ele>742.0</ele><time>2026-05-03T10:46:32.596Z</time></trkpt><trkpt lat="46.0680083" lon="13.5660717"><ele>744.0</ele><time>2026-05-03T10:46:33.596Z</time></trkpt><trkpt lat="46.0679283" lon="13.5661133"><ele>744.0</ele><time>2026-05-03T10:46:34.594Z</time></trkpt><trkpt lat="46.06785" lon="13.5661417"><ele>744.0</ele><time>2026-05-03T10:46:35.595Z</time></trkpt><trkpt lat="46.0677667" lon="13.5661433"><ele>744.0</ele><time>2026-05-03T10:46:36.596Z</time></trkpt><trkpt lat="46.0676783" lon="13.5661383"><ele>744.0</ele><time>2026-05-03T10:46:37.596Z</time></trkpt><trkpt lat="46.067595" lon="13.5661117"><ele>744.0</ele><time>2026-05-03T10:46:38.594Z</time></trkpt><trkpt lat="46.0675283" lon="13.5660617"><ele>744.0</ele><time>2026-05-03T10:46:39.594Z</time></trkpt><trkpt lat="46.0674667" lon="13.5660017"><ele>744.0</ele><time>2026-05-03T10:46:40.593Z</time></trkpt><trkpt lat="46.067415" lon="13.565935"><ele>744.0</ele><time>2026-05-03T10:46:41.595Z</time></trkpt><trkpt lat="46.0673883" lon="13.5658517"><ele>744.0</ele><time>2026-05-03T10:46:42.594Z</time></trkpt><trkpt lat="46.0674067" lon="13.5657333"><ele>744.0</ele><time>2026-05-03T10:46:43.595Z</time></trkpt><trkpt lat="46.0674217" lon="13.5655967"><ele>744.0</ele><time>2026-05-03T10:46:44.595Z</time></trkpt><trkpt lat="46.0674817" lon="13.5654233"><ele>744.0</ele><time>2026-05-03T10:46:45.593Z</time></trkpt><trkpt lat="46.067525" lon="13.5652583"><ele>744.8333333333334</ele><time>2026-05-03T10:46:46.594Z</time></trkpt><trkpt lat="46.0675683" lon="13.5651183"><ele>745.6666666666666</ele><time>2026-05-03T10:46:47.594Z</time></trkpt><trkpt lat="46.0675867" lon="13.5649917"><ele>746.5</ele><time>2026-05-03T10:46:48.594Z</time></trkpt><trkpt lat="46.0675783" lon="13.5648783"><ele>747.3333333333333</ele><time>2026-05-03T10:46:49.594Z</time></trkpt><trkpt lat="46.067555" lon="13.5647683"><ele>748.1666666666666</ele><time>2026-05-03T10:46:50.594Z</time></trkpt><trkpt lat="46.067535" lon="13.56467"><ele>749.0</ele><time>2026-05-03T10:46:51.595Z</time></trkpt><trkpt lat="46.06754" lon="13.5645767"><ele>750.5</ele><time>2026-05-03T10:46:52.593Z</time></trkpt><trkpt lat="46.0675817" lon="13.564495"><ele>752.0</ele><time>2026-05-03T10:46:53.595Z</time></trkpt><trkpt lat="46.067635" lon="13.564415"><ele>753.5</ele><time>2026-05-03T10:46:54.594Z</time></trkpt><trkpt lat="46.067705" lon="13.5643383"><ele>755.0</ele><time>2026-05-03T10:46:55.595Z</time></trkpt><trkpt lat="46.0677767" lon="13.564245"><ele>756.5</ele><time>2026-05-03T10:46:56.594Z</time></trkpt><trkpt lat="46.0678517" lon="13.5641283"><ele>758.0</ele><time>2026-05-03T10:46:57.594Z</time></trkpt><trkpt lat="46.067925" lon="13.5640017"><ele>758.0</ele><time>2026-05-03T10:46:58.595Z</time></trkpt><trkpt lat="46.0680017" lon="13.563885"><ele>758.0</ele><time>2026-05-03T10:46:59.594Z</time></trkpt><trkpt lat="46.0680617" lon="13.563755"><ele>758.0</ele><time>2026-05-03T10:47:00.594Z</time></trkpt><trkpt lat="46.068115" lon="13.5636217"><ele>758.0</ele><time>2026-05-03T10:47:01.594Z</time></trkpt><trkpt lat="46.0681633" lon="13.56348"><ele>758.0</ele><time>2026-05-03T10:47:02.594Z</time></trkpt><trkpt lat="46.068215" lon="13.56333"><ele>756.2</ele><time>2026-05-03T10:47:03.593Z</time></trkpt><trkpt lat="46.06827" lon="13.563175"><ele>754.4</ele><time>2026-05-03T10:47:04.594Z</time></trkpt><trkpt lat="46.06831" lon="13.5630283"><ele>752.6</ele><time>2026-05-03T10:47:05.596Z</time></trkpt><trkpt lat="46.06835" lon="13.56289"><ele>750.8000000000001</ele><time>2026-05-03T10:47:06.594Z</time></trkpt><trkpt lat="46.0683917" lon="13.5627667"><ele>749.0</ele><time>2026-05-03T10:47:07.594Z</time></trkpt><trkpt lat="46.0684367" lon="13.562645"><ele>749.0</ele><time>2026-05-03T10:47:08.596Z</time></trkpt><trkpt lat="46.0684783" lon="13.5625183"><ele>749.0</ele><time>2026-05-03T10:47:09.594Z</time></trkpt><trkpt lat="46.0685" lon="13.5623867"><ele>749.0</ele><time>2026-05-03T10:47:10.594Z</time></trkpt><trkpt lat="46.06852" lon="13.5622467"><ele>749.0</ele><time>2026-05-03T10:47:11.594Z</time></trkpt><trkpt lat="46.0685467" lon="13.5621"><ele>749.0</ele><time>2026-05-03T10:47:12.594Z</time></trkpt><trkpt lat="46.068565" lon="13.5619517"><ele>750.2</ele><time>2026-05-03T10:47:13.594Z</time></trkpt><trkpt lat="46.068585" lon="13.5618067"><ele>751.4000000000001</ele><time>2026-05-03T10:47:14.594Z</time></trkpt><trkpt lat="46.0686117" lon="13.5616617"><ele>752.6</ele><time>2026-05-03T10:47:15.594Z</time></trkpt><trkpt lat="46.0686317" lon="13.5615033"><ele>753.8</ele><time>2026-05-03T10:47:16.594Z</time></trkpt><trkpt lat="46.068645" lon="13.5613383"><ele>755.0</ele><time>2026-05-03T10:47:17.595Z</time></trkpt><trkpt lat="46.068655" lon="13.5611667"><ele>755.4</ele><time>2026-05-03T10:47:18.595Z</time></trkpt><trkpt lat="46.0686867" lon="13.5610017"><ele>755.8</ele><time>2026-05-03T10:47:19.594Z</time></trkpt><trkpt lat="46.0686933" lon="13.5608433"><ele>756.2</ele><time>2026-05-03T10:47:20.594Z</time></trkpt><trkpt lat="46.0687017" lon="13.5606867"><ele>756.6</ele><time>2026-05-03T10:47:21.595Z</time></trkpt><trkpt lat="46.0687117" lon="13.5605333"><ele>757.0</ele><time>2026-05-03T10:47:22.595Z</time></trkpt><trkpt lat="46.0687333" lon="13.560385"><ele>756.6</ele><time>2026-05-03T10:47:23.596Z</time></trkpt><trkpt lat="46.06875" lon="13.56024"><ele>756.2</ele><time>2026-05-03T10:47:24.594Z</time></trkpt><trkpt lat="46.0687683" lon="13.56009"><ele>755.8</ele><time>2026-05-03T10:47:25.594Z</time></trkpt><trkpt lat="46.0687833" lon="13.5599283"><ele>755.4</ele><time>2026-05-03T10:47:26.594Z</time></trkpt><trkpt lat="46.06879" lon="13.5597783"><ele>755.0</ele><time>2026-05-03T10:47:27.594Z</time></trkpt><trkpt lat="46.06881" lon="13.5596417"><ele>754.3333333333333</ele><time>2026-05-03T10:47:28.596Z</time></trkpt><trkpt lat="46.0688267" lon="13.5595133"><ele>753.6666666666666</ele><time>2026-05-03T10:47:29.596Z</time></trkpt><trkpt lat="46.06885" lon="13.55939"><ele>753.0</ele><time>2026-05-03T10:47:30.596Z</time></trkpt><trkpt lat="46.06886" lon="13.55927"><ele>752.3333333333334</ele><time>2026-05-03T10:47:31.594Z</time></trkpt><trkpt lat="46.068855" lon="13.55916"><ele>751.6666666666667</ele><time>2026-05-03T10:47:32.594Z</time></trkpt><trkpt lat="46.0688517" lon="13.5590483"><ele>751.0</ele><time>2026-05-03T10:47:33.595Z</time></trkpt><trkpt lat="46.068835" lon="13.558935"><ele>751.0</ele><time>2026-05-03T10:47:34.594Z</time></trkpt><trkpt lat="46.068817" lon="13.5588124"><ele>751.0</ele><time>2026-05-03T10:47:35.594Z</time></trkpt><trkpt lat="46.0688015" lon="13.5586855"><ele>751.0</ele><time>2026-05-03T10:47:36.595Z</time></trkpt><trkpt lat="46.0687817" lon="13.5585624"><ele>751.0</ele><time>2026-05-03T10:47:37.596Z</time></trkpt><trkpt lat="46.0687737" lon="13.5584344"><ele>751.0</ele><time>2026-05-03T10:47:38.596Z</time></trkpt><trkpt lat="46.0687973" lon="13.5582937"><ele>750.5999999999999</ele><time>2026-05-03T10:47:39.595Z</time></trkpt><trkpt lat="46.0688356" lon="13.5581549"><ele>750.2</ele><time>2026-05-03T10:47:40.596Z</time></trkpt><trkpt lat="46.0688721" lon="13.5580226"><ele>749.8</ele><time>2026-05-03T10:47:41.595Z</time></trkpt><trkpt lat="46.0688986" lon="13.5578955"><ele>749.4000000000001</ele><time>2026-05-03T10:47:42.595Z</time></trkpt><trkpt lat="46.068929" lon="13.5577708"><ele>749.0</ele><time>2026-05-03T10:47:43.595Z</time></trkpt><trkpt lat="46.0689637" lon="13.5576442"><ele>748.8333333333333</ele><time>2026-05-03T10:47:44.596Z</time></trkpt><trkpt lat="46.0689978" lon="13.5575251"><ele>748.6666666666666</ele><time>2026-05-03T10:47:45.595Z</time></trkpt><trkpt lat="46.0690304" lon="13.5574084"><ele>748.5</ele><time>2026-05-03T10:47:46.594Z</time></trkpt><trkpt lat="46.0690649" lon="13.557293"><ele>748.3333333333334</ele><time>2026-05-03T10:47:47.595Z</time></trkpt><trkpt lat="46.0690962" lon="13.5571681"><ele>748.1666666666667</ele><time>2026-05-03T10:47:48.596Z</time></trkpt><trkpt lat="46.0691279" lon="13.5570416"><ele>748.0</ele><time>2026-05-03T10:47:49.596Z</time></trkpt><trkpt lat="46.0691604" lon="13.5569176"><ele>740.4</ele><time>2026-05-03T10:47:50.595Z</time></trkpt><trkpt lat="46.0691862" lon="13.5567873"><ele>732.8</ele><time>2026-05-03T10:47:51.594Z</time></trkpt><trkpt lat="46.0692157" lon="13.5566389"><ele>725.2</ele><time>2026-05-03T10:47:52.595Z</time></trkpt><trkpt lat="46.0692467" lon="13.5564776"><ele>717.6</ele><time>2026-05-03T10:47:53.595Z</time></trkpt><trkpt lat="46.0692752" lon="13.5563082"><ele>710.0</ele><time>2026-05-03T10:47:54.596Z</time></trkpt><trkpt lat="46.0693029" lon="13.5561358"><ele>710.0</ele><time>2026-05-03T10:47:55.596Z</time></trkpt><trkpt lat="46.0693316" lon="13.5559693"><ele>710.0</ele><time>2026-05-03T10:47:56.596Z</time></trkpt><trkpt lat="46.0693715" lon="13.5558091"><ele>710.0</ele><time>2026-05-03T10:47:57.595Z</time></trkpt><trkpt lat="46.0694187" lon="13.5556561"><ele>710.0</ele><time>2026-05-03T10:47:58.595Z</time></trkpt><trkpt lat="46.0694671" lon="13.555505"><ele>709.5</ele><time>2026-05-03T10:47:59.596Z</time></trkpt><trkpt lat="46.0695124" lon="13.5553526"><ele>709.0</ele><time>2026-05-03T10:48:00.595Z</time></trkpt><trkpt lat="46.069558" lon="13.5552021"><ele>708.5</ele><time>2026-05-03T10:48:01.595Z</time></trkpt><trkpt lat="46.0696108" lon="13.5550531"><ele>708.0</ele><time>2026-05-03T10:48:02.595Z</time></trkpt><trkpt lat="46.0696563" lon="13.5549174"><ele>708.0</ele><time>2026-05-03T10:48:03.594Z</time></trkpt><trkpt lat="46.0696928" lon="13.5548009"><ele>708.0</ele><time>2026-05-03T10:48:04.595Z</time></trkpt><trkpt lat="46.0697315" lon="13.5546878"><ele>708.0</ele><time>2026-05-03T10:48:05.594Z</time></trkpt><trkpt lat="46.0697624" lon="13.5545592"><ele>708.0</ele><time>2026-05-03T10:48:06.594Z</time></trkpt><trkpt lat="46.0697835" lon="13.5544153"><ele>708.0</ele><time>2026-05-03T10:48:07.594Z</time></trkpt><trkpt lat="46.0697937" lon="13.5542697"><ele>708.3333333333334</ele><time>2026-05-03T10:48:08.594Z</time></trkpt><trkpt lat="46.0698119" lon="13.554142"><ele>708.6666666666666</ele><time>2026-05-03T10:48:09.593Z</time></trkpt><trkpt lat="46.0698423" lon="13.5540249"><ele>709.0</ele><time>2026-05-03T10:48:10.592Z</time></trkpt><trkpt lat="46.0698783" lon="13.5539079"><ele>709.3333333333333</ele><time>2026-05-03T10:48:11.593Z</time></trkpt><trkpt lat="46.0699059" lon="13.5537935"><ele>709.6666666666666</ele><time>2026-05-03T10:48:12.594Z</time></trkpt><trkpt lat="46.0699208" lon="13.55366"><ele>710.0</ele><time>2026-05-03T10:48:13.593Z</time></trkpt><trkpt lat="46.0699268" lon="13.5535202"><ele>710.2</ele><time>2026-05-03T10:48:14.594Z</time></trkpt><trkpt lat="46.0699271" lon="13.5533678"><ele>710.4</ele><time>2026-05-03T10:48:15.594Z</time></trkpt><trkpt lat="46.069935" lon="13.5532104"><ele>710.5999999999999</ele><time>2026-05-03T10:48:16.593Z</time></trkpt><trkpt lat="46.0699561" lon="13.5530462"><ele>710.8</ele><time>2026-05-03T10:48:17.593Z</time></trkpt><trkpt lat="46.0699871" lon="13.5528827"><ele>711.0</ele><time>2026-05-03T10:48:18.593Z</time></trkpt><trkpt lat="46.0700169" lon="13.5527152"><ele>705.5999999999999</ele><time>2026-05-03T10:48:19.594Z</time></trkpt><trkpt lat="46.0700465" lon="13.5525606"><ele>700.2</ele><time>2026-05-03T10:48:20.593Z</time></trkpt><trkpt lat="46.0700778" lon="13.5524181"><ele>694.8</ele><time>2026-05-03T10:48:21.593Z</time></trkpt><trkpt lat="46.0701069" lon="13.5522794"><ele>689.4000000000001</ele><time>2026-05-03T10:48:22.594Z</time></trkpt><trkpt lat="46.0701397" lon="13.5521607"><ele>684.0</ele><time>2026-05-03T10:48:23.594Z</time></trkpt><trkpt lat="46.0701661" lon="13.552037"><ele>684.0</ele><time>2026-05-03T10:48:24.593Z</time></trkpt><trkpt lat="46.0701812" lon="13.5519085"><ele>684.0</ele><time>2026-05-03T10:48:25.593Z</time></trkpt><trkpt lat="46.070183" lon="13.5517818"><ele>684.0</ele><time>2026-05-03T10:48:26.594Z</time></trkpt><trkpt lat="46.0701723" lon="13.5516563"><ele>684.0</ele><time>2026-05-03T10:48:27.592Z</time></trkpt><trkpt lat="46.0701543" lon="13.5515365"><ele>684.0</ele><time>2026-05-03T10:48:28.594Z</time></trkpt><trkpt lat="46.0701341" lon="13.5514163"><ele>684.0</ele><time>2026-05-03T10:48:29.594Z</time></trkpt><trkpt lat="46.070111" lon="13.5513022"><ele>683.5714285714286</ele><time>2026-05-03T10:48:30.593Z</time></trkpt><trkpt lat="46.0700858" lon="13.5511944"><ele>683.1428571428571</ele><time>2026-05-03T10:48:31.595Z</time></trkpt><trkpt lat="46.0700607" lon="13.5511019"><ele>682.7142857142858</ele><time>2026-05-03T10:48:32.595Z</time></trkpt><trkpt lat="46.0700324" lon="13.5510203"><ele>682.2857142857142</ele><time>2026-05-03T10:48:33.593Z</time></trkpt><trkpt lat="46.0699922" lon="13.5509388"><ele>681.8571428571429</ele><time>2026-05-03T10:48:34.594Z</time></trkpt><trkpt lat="46.0699411" lon="13.5508673"><ele>681.4285714285714</ele><time>2026-05-03T10:48:35.596Z</time></trkpt><trkpt lat="46.0698863" lon="13.5508013"><ele>681.0</ele><time>2026-05-03T10:48:36.593Z</time></trkpt><trkpt lat="46.0698157" lon="13.5507334"><ele>681.0</ele><time>2026-05-03T10:48:37.596Z</time></trkpt><trkpt lat="46.0697337" lon="13.5506605"><ele>681.0</ele><time>2026-05-03T10:48:38.594Z</time></trkpt><trkpt lat="46.0696398" lon="13.5505824"><ele>681.0</ele><time>2026-05-03T10:48:39.593Z</time></trkpt><trkpt lat="46.069543" lon="13.5505069"><ele>681.0</ele><time>2026-05-03T10:48:40.594Z</time></trkpt><trkpt lat="46.0694468" lon="13.5504356"><ele>681.0</ele><time>2026-05-03T10:48:41.594Z</time></trkpt><trkpt lat="46.0693558" lon="13.5503564"><ele>678.8</ele><time>2026-05-03T10:48:42.594Z</time></trkpt><trkpt lat="46.0692799" lon="13.5502722"><ele>676.5999999999999</ele><time>2026-05-03T10:48:43.594Z</time></trkpt><trkpt lat="46.0692078" lon="13.5501792"><ele>674.4</ele><time>2026-05-03T10:48:44.594Z</time></trkpt><trkpt lat="46.0691358" lon="13.5500874"><ele>672.2</ele><time>2026-05-03T10:48:45.594Z</time></trkpt><trkpt lat="46.0690589" lon="13.5499958"><ele>670.0</ele><time>2026-05-03T10:48:46.594Z</time></trkpt><trkpt lat="46.0689737" lon="13.5499005"><ele>668.4</ele><time>2026-05-03T10:48:47.594Z</time></trkpt><trkpt lat="46.0688894" lon="13.549804"><ele>666.8</ele><time>2026-05-03T10:48:48.594Z</time></trkpt><trkpt lat="46.0688048" lon="13.5497023"><ele>665.2</ele><time>2026-05-03T10:48:49.594Z</time></trkpt><trkpt lat="46.068733" lon="13.5496041"><ele>663.6</ele><time>2026-05-03T10:48:50.595Z</time></trkpt><trkpt lat="46.0686662" lon="13.5495172"><ele>662.0</ele><time>2026-05-03T10:48:51.594Z</time></trkpt><trkpt lat="46.0686045" lon="13.5494517"><ele>660.1428571428571</ele><time>2026-05-03T10:48:52.593Z</time></trkpt><trkpt lat="46.0685424" lon="13.5494023"><ele>658.2857142857142</ele><time>2026-05-03T10:48:53.593Z</time></trkpt><trkpt lat="46.0684758" lon="13.5493711"><ele>656.4285714285713</ele><time>2026-05-03T10:48:54.594Z</time></trkpt><trkpt lat="46.0684049" lon="13.5493509"><ele>654.5714285714286</ele><time>2026-05-03T10:48:55.594Z</time></trkpt><trkpt lat="46.0683336" lon="13.5493582"><ele>652.7142857142857</ele><time>2026-05-03T10:48:56.594Z</time></trkpt><trkpt lat="46.0682648" lon="13.5493922"><ele>650.8571428571428</ele><time>2026-05-03T10:48:57.593Z</time></trkpt><trkpt lat="46.0682001" lon="13.5494456"><ele>649.0</ele><time>2026-05-03T10:48:58.593Z</time></trkpt><trkpt lat="46.0681374" lon="13.5495249"><ele>645.5</ele><time>2026-05-03T10:48:59.596Z</time></trkpt><trkpt lat="46.0680768" lon="13.5496271"><ele>642.0</ele><time>2026-05-03T10:49:00.594Z</time></trkpt><trkpt lat="46.0680221" lon="13.5497375"><ele>638.5</ele><time>2026-05-03T10:49:01.596Z</time></trkpt><trkpt lat="46.0679749" lon="13.5498378"><ele>635.0</ele><time>2026-05-03T10:49:02.594Z</time></trkpt><trkpt lat="46.0679301" lon="13.549927"><ele>631.5</ele><time>2026-05-03T10:49:03.594Z</time></trkpt><trkpt lat="46.0678942" lon="13.5500143"><ele>628.0</ele><time>2026-05-03T10:49:04.594Z</time></trkpt><trkpt lat="46.0678651" lon="13.5501082"><ele>628.0</ele><time>2026-05-03T10:49:05.594Z</time></trkpt><trkpt lat="46.0678334" lon="13.5502085"><ele>628.0</ele><time>2026-05-03T10:49:06.594Z</time></trkpt><trkpt lat="46.0678077" lon="13.5503052"><ele>628.0</ele><time>2026-05-03T10:49:07.594Z</time></trkpt><trkpt lat="46.0677857" lon="13.550408"><ele>628.0</ele><time>2026-05-03T10:49:08.595Z</time></trkpt><trkpt lat="46.0677654" lon="13.550514"><ele>628.0</ele><time>2026-05-03T10:49:09.595Z</time></trkpt><trkpt lat="46.0677465" lon="13.5506245"><ele>628.0</ele><time>2026-05-03T10:49:10.595Z</time></trkpt><trkpt lat="46.0677381" lon="13.5507326"><ele>631.2</ele><time>2026-05-03T10:49:11.594Z</time></trkpt><trkpt lat="46.0677369" lon="13.5508262"><ele>634.4</ele><time>2026-05-03T10:49:12.595Z</time></trkpt><trkpt lat="46.0677363" lon="13.5509957"><ele>637.6</ele><time>2026-05-03T10:49:14.595Z</time></trkpt><trkpt lat="46.067713" lon="13.5511453"><ele>640.8000000000001</ele><time>2026-05-03T10:49:16.595Z</time></trkpt><trkpt lat="46.0676805" lon="13.5512548"><ele>644.0</ele><time>2026-05-03T10:49:18.594Z</time></trkpt><trkpt lat="46.0676059" lon="13.5513186"><ele>642.6</ele><time>2026-05-03T10:49:20.594Z</time></trkpt><trkpt lat="46.0675411" lon="13.5513172"><ele>641.2</ele><time>2026-05-03T10:49:21.595Z</time></trkpt><trkpt lat="46.067449" lon="13.5512519"><ele>639.8000000000001</ele><time>2026-05-03T10:49:22.593Z</time></trkpt><trkpt lat="46.0673513" lon="13.5511691"><ele>638.4000000000001</ele><time>2026-05-03T10:49:23.593Z</time></trkpt><trkpt lat="46.067264" lon="13.5510787"><ele>637.0</ele><time>2026-05-03T10:49:24.594Z</time></trkpt><trkpt lat="46.0671806" lon="13.550993"><ele>637.0</ele><time>2026-05-03T10:49:25.594Z</time></trkpt><trkpt lat="46.0671022" lon="13.5509209"><ele>637.0</ele><time>2026-05-03T10:49:26.593Z</time></trkpt><trkpt lat="46.0670331" lon="13.5508641"><ele>637.0</ele><time>2026-05-03T10:49:27.593Z</time></trkpt><trkpt lat="46.0669701" lon="13.550826"><ele>637.0</ele><time>2026-05-03T10:49:28.593Z</time></trkpt><trkpt lat="46.0669089" lon="13.5507953"><ele>637.0</ele><time>2026-05-03T10:49:29.595Z</time></trkpt><trkpt lat="46.0667933" lon="13.5507743"><ele>637.0</ele><time>2026-05-03T10:49:31.594Z</time></trkpt><trkpt lat="46.0667329" lon="13.5508037"><ele>637.0</ele><time>2026-05-03T10:49:32.593Z</time></trkpt><trkpt lat="46.066674" lon="13.5508481"><ele>637.0</ele><time>2026-05-03T10:49:33.593Z</time></trkpt><trkpt lat="46.0666169" lon="13.5508982"><ele>637.0</ele><time>2026-05-03T10:49:34.593Z</time></trkpt><trkpt lat="46.0665792" lon="13.550971"><ele>637.0</ele><time>2026-05-03T10:49:35.594Z</time></trkpt><trkpt lat="46.0664918" lon="13.5510507"><ele>637.0</ele><time>2026-05-03T10:49:37.593Z</time></trkpt><trkpt lat="46.0663788" lon="13.5510314"><ele>637.0</ele><time>2026-05-03T10:49:39.593Z</time></trkpt><trkpt lat="46.0662745" lon="13.5508954"><ele>637.2</ele><time>2026-05-03T10:49:41.594Z</time></trkpt><trkpt lat="46.0662421" lon="13.5507579"><ele>637.4000000000001</ele><time>2026-05-03T10:49:42.593Z</time></trkpt><trkpt lat="46.0662011" lon="13.5506261"><ele>637.5999999999999</ele><time>2026-05-03T10:49:43.593Z</time></trkpt><trkpt lat="46.0661589" lon="13.550499"><ele>637.8</ele><time>2026-05-03T10:49:44.594Z</time></trkpt><trkpt lat="46.0661201" lon="13.5503615"><ele>638.0</ele><time>2026-05-03T10:49:45.593Z</time></trkpt><trkpt lat="46.0660737" lon="13.5501997"><ele>638.0</ele><time>2026-05-03T10:49:46.594Z</time></trkpt><trkpt lat="46.0660187" lon="13.5500388"><ele>638.0</ele><time>2026-05-03T10:49:47.594Z</time></trkpt><trkpt lat="46.0659558" lon="13.54988"><ele>638.0</ele><time>2026-05-03T10:49:48.594Z</time></trkpt><trkpt lat="46.0658913" lon="13.5497434"><ele>638.0</ele><time>2026-05-03T10:49:49.593Z</time></trkpt><trkpt lat="46.0658238" lon="13.5496279"><ele>636.1666666666666</ele><time>2026-05-03T10:49:50.595Z</time></trkpt><trkpt lat="46.0657647" lon="13.5495219"><ele>634.3333333333333</ele><time>2026-05-03T10:49:51.593Z</time></trkpt><trkpt lat="46.0657057" lon="13.5494321"><ele>632.5</ele><time>2026-05-03T10:49:52.594Z</time></trkpt><trkpt lat="46.0656397" lon="13.5493579"><ele>630.6666666666666</ele><time>2026-05-03T10:49:53.595Z</time></trkpt><trkpt lat="46.0655535" lon="13.5493122"><ele>628.8333333333334</ele><time>2026-05-03T10:49:54.593Z</time></trkpt><trkpt lat="46.0654671" lon="13.549276"><ele>627.0</ele><time>2026-05-03T10:49:55.596Z</time></trkpt><trkpt lat="46.0653862" lon="13.549248"><ele>627.0</ele><time>2026-05-03T10:49:56.595Z</time></trkpt><trkpt lat="46.0653018" lon="13.549234"><ele>627.0</ele><time>2026-05-03T10:49:57.594Z</time></trkpt><trkpt lat="46.0652204" lon="13.5492383"><ele>627.0</ele><time>2026-05-03T10:49:58.594Z</time></trkpt><trkpt lat="46.0651415" lon="13.5492505"><ele>627.0</ele><time>2026-05-03T10:49:59.595Z</time></trkpt><trkpt lat="46.0650638" lon="13.5492809"><ele>627.0</ele><time>2026-05-03T10:50:00.593Z</time></trkpt><trkpt lat="46.0649915" lon="13.5493276"><ele>627.0</ele><time>2026-05-03T10:50:01.594Z</time></trkpt><trkpt lat="46.0649213" lon="13.5493735"><ele>629.0</ele><time>2026-05-03T10:50:02.594Z</time></trkpt><trkpt lat="46.0648596" lon="13.5494142"><ele>631.0</ele><time>2026-05-03T10:50:03.593Z</time></trkpt><trkpt lat="46.0647967" lon="13.5494343"><ele>633.0</ele><time>2026-05-03T10:50:04.593Z</time></trkpt><trkpt lat="46.064699" lon="13.5494263"><ele>635.0</ele><time>2026-05-03T10:50:06.594Z</time></trkpt><trkpt lat="46.0646149" lon="13.549365"><ele>637.0</ele><time>2026-05-03T10:50:08.594Z</time></trkpt><trkpt lat="46.0645717" lon="13.5492778"><ele>639.0</ele><time>2026-05-03T10:50:09.593Z</time></trkpt><trkpt lat="46.0645176" lon="13.5491859"><ele>639.0</ele><time>2026-05-03T10:50:10.596Z</time></trkpt><trkpt lat="46.0644559" lon="13.5490835"><ele>639.0</ele><time>2026-05-03T10:50:11.595Z</time></trkpt><trkpt lat="46.0643834" lon="13.5489946"><ele>639.0</ele><time>2026-05-03T10:50:12.593Z</time></trkpt><trkpt lat="46.0643015" lon="13.5489214"><ele>639.0</ele><time>2026-05-03T10:50:13.593Z</time></trkpt><trkpt lat="46.0642075" lon="13.5488614"><ele>639.0</ele><time>2026-05-03T10:50:14.594Z</time></trkpt><trkpt lat="46.0641143" lon="13.5488191"><ele>637.3333333333334</ele><time>2026-05-03T10:50:15.595Z</time></trkpt><trkpt lat="46.0640226" lon="13.5487879"><ele>635.6666666666666</ele><time>2026-05-03T10:50:16.594Z</time></trkpt><trkpt lat="46.063934" lon="13.5487566"><ele>634.0</ele><time>2026-05-03T10:50:17.595Z</time></trkpt><trkpt lat="46.0638475" lon="13.5487255"><ele>632.3333333333333</ele><time>2026-05-03T10:50:18.594Z</time></trkpt><trkpt lat="46.0637651" lon="13.5486935"><ele>630.6666666666666</ele><time>2026-05-03T10:50:19.594Z</time></trkpt><trkpt lat="46.0637059" lon="13.5486386"><ele>629.0</ele><time>2026-05-03T10:50:20.596Z</time></trkpt><trkpt lat="46.0636563" lon="13.5485668"><ele>629.0</ele><time>2026-05-03T10:50:21.594Z</time></trkpt><trkpt lat="46.0636042" lon="13.5485012"><ele>629.0</ele><time>2026-05-03T10:50:22.595Z</time></trkpt><trkpt lat="46.0635525" lon="13.5484258"><ele>629.0</ele><time>2026-05-03T10:50:23.595Z</time></trkpt><trkpt lat="46.0634931" lon="13.5483297"><ele>629.0</ele><time>2026-05-03T10:50:24.595Z</time></trkpt><trkpt lat="46.0634242" lon="13.5482284"><ele>629.0</ele><time>2026-05-03T10:50:25.596Z</time></trkpt><trkpt lat="46.0633508" lon="13.5481418"><ele>629.0</ele><time>2026-05-03T10:50:26.596Z</time></trkpt><trkpt lat="46.0632423" lon="13.5480633"><ele>632.2</ele><time>2026-05-03T10:50:27.595Z</time></trkpt><trkpt lat="46.0631222" lon="13.5479921"><ele>635.4</ele><time>2026-05-03T10:50:28.596Z</time></trkpt><trkpt lat="46.0630203" lon="13.5479286"><ele>638.6</ele><time>2026-05-03T10:50:29.594Z</time></trkpt><trkpt lat="46.0629284" lon="13.547858"><ele>641.8</ele><time>2026-05-03T10:50:30.595Z</time></trkpt><trkpt lat="46.0628511" lon="13.5477735"><ele>645.0</ele><time>2026-05-03T10:50:31.594Z</time></trkpt><trkpt lat="46.0627959" lon="13.5476657"><ele>645.0</ele><time>2026-05-03T10:50:32.596Z</time></trkpt><trkpt lat="46.0627605" lon="13.5475391"><ele>645.0</ele><time>2026-05-03T10:50:33.594Z</time></trkpt><trkpt lat="46.0627406" lon="13.5474028"><ele>645.0</ele><time>2026-05-03T10:50:34.595Z</time></trkpt><trkpt lat="46.0627082" lon="13.5472691"><ele>645.0</ele><time>2026-05-03T10:50:35.595Z</time></trkpt><trkpt lat="46.0626655" lon="13.547142"><ele>645.0</ele><time>2026-05-03T10:50:36.594Z</time></trkpt><trkpt lat="46.0626127" lon="13.5470134"><ele>644.4</ele><time>2026-05-03T10:50:37.594Z</time></trkpt><trkpt lat="46.062558" lon="13.5468857"><ele>643.8</ele><time>2026-05-03T10:50:38.596Z</time></trkpt><trkpt lat="46.0625051" lon="13.5467564"><ele>643.2</ele><time>2026-05-03T10:50:39.596Z</time></trkpt><trkpt lat="46.0624566" lon="13.5466241"><ele>642.6</ele><time>2026-05-03T10:50:40.595Z</time></trkpt><trkpt lat="46.0624152" lon="13.5464853"><ele>642.0</ele><time>2026-05-03T10:50:41.596Z</time></trkpt><trkpt lat="46.0623801" lon="13.5463536"><ele>642.0</ele><time>2026-05-03T10:50:42.594Z</time></trkpt><trkpt lat="46.0623465" lon="13.5462385"><ele>642.0</ele><time>2026-05-03T10:50:43.595Z</time></trkpt><trkpt lat="46.0623117" lon="13.5461429"><ele>642.0</ele><time>2026-05-03T10:50:44.595Z</time></trkpt><trkpt lat="46.0622669" lon="13.5460763"><ele>642.0</ele><time>2026-05-03T10:50:45.594Z</time></trkpt><trkpt lat="46.0621509" lon="13.5459963"><ele>642.0</ele><time>2026-05-03T10:50:47.596Z</time></trkpt><trkpt lat="46.0620782" lon="13.5459729"><ele>642.0</ele><time>2026-05-03T10:50:48.594Z</time></trkpt><trkpt lat="46.0620049" lon="13.5459531"><ele>640.8333333333334</ele><time>2026-05-03T10:50:49.597Z</time></trkpt><trkpt lat="46.0619308" lon="13.5459342"><ele>639.6666666666666</ele><time>2026-05-03T10:50:50.595Z</time></trkpt><trkpt lat="46.0618442" lon="13.5459128"><ele>638.5</ele><time>2026-05-03T10:50:51.594Z</time></trkpt><trkpt lat="46.0617626" lon="13.545888"><ele>637.3333333333333</ele><time>2026-05-03T10:50:52.595Z</time></trkpt><trkpt lat="46.0616931" lon="13.5458521"><ele>636.1666666666666</ele><time>2026-05-03T10:50:53.595Z</time></trkpt><trkpt lat="46.0616217" lon="13.5458155"><ele>635.0</ele><time>2026-05-03T10:50:54.594Z</time></trkpt><trkpt lat="46.0615529" lon="13.5457721"><ele>635.0</ele><time>2026-05-03T10:50:55.596Z</time></trkpt><trkpt lat="46.0614911" lon="13.545711"><ele>635.0</ele><time>2026-05-03T10:50:56.596Z</time></trkpt><trkpt lat="46.0614386" lon="13.5456345"><ele>635.0</ele><time>2026-05-03T10:50:57.596Z</time></trkpt><trkpt lat="46.0613928" lon="13.5455371"><ele>635.0</ele><time>2026-05-03T10:50:58.594Z</time></trkpt><trkpt lat="46.0613519" lon="13.5454295"><ele>635.0</ele><time>2026-05-03T10:50:59.596Z</time></trkpt><trkpt lat="46.0613092" lon="13.545313"><ele>635.0</ele><time>2026-05-03T10:51:00.594Z</time></trkpt><trkpt lat="46.0612668" lon="13.545187"><ele>632.3333333333333</ele><time>2026-05-03T10:51:01.596Z</time></trkpt><trkpt lat="46.0612311" lon="13.5450589"><ele>629.6666666666666</ele><time>2026-05-03T10:51:02.595Z</time></trkpt><trkpt lat="46.0612024" lon="13.544938"><ele>627.0</ele><time>2026-05-03T10:51:03.594Z</time></trkpt><trkpt lat="46.0611751" lon="13.5448242"><ele>624.3333333333334</ele><time>2026-05-03T10:51:04.594Z</time></trkpt><trkpt lat="46.0611512" lon="13.5447186"><ele>621.6666666666667</ele><time>2026-05-03T10:51:05.596Z</time></trkpt><trkpt lat="46.0611263" lon="13.5446128"><ele>619.0</ele><time>2026-05-03T10:51:06.595Z</time></trkpt><trkpt lat="46.061098" lon="13.5445052"><ele>616.3333333333334</ele><time>2026-05-03T10:51:07.595Z</time></trkpt><trkpt lat="46.0610607" lon="13.5443929"><ele>613.6666666666667</ele><time>2026-05-03T10:51:08.595Z</time></trkpt><trkpt lat="46.0610154" lon="13.5442837"><ele>611.0</ele><time>2026-05-03T10:51:09.594Z</time></trkpt><trkpt lat="46.06096" lon="13.5441736"><ele>608.3333333333334</ele><time>2026-05-03T10:51:10.595Z</time></trkpt><trkpt lat="46.0609053" lon="13.544068"><ele>605.6666666666666</ele><time>2026-05-03T10:51:11.594Z</time></trkpt><trkpt lat="46.0608544" lon="13.543964"><ele>603.0</ele><time>2026-05-03T10:51:12.594Z</time></trkpt><trkpt lat="46.0608056" lon="13.5438598"><ele>604.0</ele><time>2026-05-03T10:51:13.594Z</time></trkpt><trkpt lat="46.0607528" lon="13.5437621"><ele>605.0</ele><time>2026-05-03T10:51:14.596Z</time></trkpt><trkpt lat="46.0606922" lon="13.5436633"><ele>606.0</ele><time>2026-05-03T10:51:15.595Z</time></trkpt><trkpt lat="46.0606408" lon="13.5435494"><ele>607.0</ele><time>2026-05-03T10:51:16.594Z</time></trkpt><trkpt lat="46.0605952" lon="13.5434294"><ele>608.0</ele><time>2026-05-03T10:51:17.595Z</time></trkpt><trkpt lat="46.0605518" lon="13.5433029"><ele>608.0</ele><time>2026-05-03T10:51:18.595Z</time></trkpt><trkpt lat="46.060507" lon="13.543178"><ele>608.0</ele><time>2026-05-03T10:51:19.595Z</time></trkpt><trkpt lat="46.0604615" lon="13.5430446"><ele>608.0</ele><time>2026-05-03T10:51:20.596Z</time></trkpt><trkpt lat="46.0604117" lon="13.5429129"><ele>608.0</ele><time>2026-05-03T10:51:21.595Z</time></trkpt><trkpt lat="46.0603594" lon="13.5427826"><ele>608.0</ele><time>2026-05-03T10:51:22.595Z</time></trkpt><trkpt lat="46.0603086" lon="13.5426641"><ele>605.3333333333333</ele><time>2026-05-03T10:51:23.594Z</time></trkpt><trkpt lat="46.0602629" lon="13.5425546"><ele>602.6666666666666</ele><time>2026-05-03T10:51:24.594Z</time></trkpt><trkpt lat="46.0602186" lon="13.5424549"><ele>600.0</ele><time>2026-05-03T10:51:25.595Z</time></trkpt><trkpt lat="46.0601667" lon="13.5423743"><ele>597.3333333333334</ele><time>2026-05-03T10:51:26.595Z</time></trkpt><trkpt lat="46.0601092" lon="13.5422863"><ele>594.6666666666667</ele><time>2026-05-03T10:51:27.597Z</time></trkpt><trkpt lat="46.0600506" lon="13.5422041"><ele>592.0</ele><time>2026-05-03T10:51:28.595Z</time></trkpt><trkpt lat="46.0599875" lon="13.5421364"><ele>591.0</ele><time>2026-05-03T10:51:29.595Z</time></trkpt><trkpt lat="46.0599279" lon="13.5420619"><ele>590.0</ele><time>2026-05-03T10:51:30.594Z</time></trkpt><trkpt lat="46.0598698" lon="13.5419798"><ele>589.0</ele><time>2026-05-03T10:51:31.594Z</time></trkpt><trkpt lat="46.0598164" lon="13.5418914"><ele>588.0</ele><time>2026-05-03T10:51:32.595Z</time></trkpt><trkpt lat="46.0597689" lon="13.5417933"><ele>587.0</ele><time>2026-05-03T10:51:33.595Z</time></trkpt><trkpt lat="46.0597188" lon="13.5416866"><ele>586.0</ele><time>2026-05-03T10:51:34.594Z</time></trkpt><trkpt lat="46.059673" lon="13.5415873"><ele>586.0</ele><time>2026-05-03T10:51:35.594Z</time></trkpt><trkpt lat="46.059612" lon="13.5414784"><ele>586.0</ele><time>2026-05-03T10:51:36.595Z</time></trkpt><trkpt lat="46.0595606" lon="13.5413797"><ele>586.0</ele><time>2026-05-03T10:51:37.595Z</time></trkpt><trkpt lat="46.0595162" lon="13.5412952"><ele>586.0</ele><time>2026-05-03T10:51:38.597Z</time></trkpt><trkpt lat="46.0594725" lon="13.5412176"><ele>586.0</ele><time>2026-05-03T10:51:39.594Z</time></trkpt><trkpt lat="46.0594228" lon="13.5411385"><ele>586.0</ele><time>2026-05-03T10:51:40.594Z</time></trkpt><trkpt lat="46.0593751" lon="13.5410556"><ele>582.6</ele><time>2026-05-03T10:51:41.594Z</time></trkpt><trkpt lat="46.0593233" lon="13.5409709"><ele>579.2</ele><time>2026-05-03T10:51:42.595Z</time></trkpt><trkpt lat="46.0592578" lon="13.5408589"><ele>575.8</ele><time>2026-05-03T10:51:43.595Z</time></trkpt><trkpt lat="46.0591989" lon="13.5407566"><ele>572.4</ele><time>2026-05-03T10:51:44.595Z</time></trkpt><trkpt lat="46.0591389" lon="13.5406541"><ele>569.0</ele><time>2026-05-03T10:51:45.594Z</time></trkpt><trkpt lat="46.0590792" lon="13.5405568"><ele>569.0</ele><time>2026-05-03T10:51:46.593Z</time></trkpt><trkpt lat="46.0590213" lon="13.5404662"><ele>569.0</ele><time>2026-05-03T10:51:47.595Z</time></trkpt><trkpt lat="46.0589598" lon="13.5403809"><ele>569.0</ele><time>2026-05-03T10:51:48.595Z</time></trkpt><trkpt lat="46.0589016" lon="13.5403003"><ele>569.0</ele><time>2026-05-03T10:51:49.595Z</time></trkpt><trkpt lat="46.0588418" lon="13.5401966"><ele>569.0</ele><time>2026-05-03T10:51:50.595Z</time></trkpt><trkpt lat="46.0587952" lon="13.5401074"><ele>569.0</ele><time>2026-05-03T10:51:51.595Z</time></trkpt><trkpt lat="46.0587617" lon="13.5400058"><ele>566.0</ele><time>2026-05-03T10:51:52.594Z</time></trkpt><trkpt lat="46.0587342" lon="13.5399213"><ele>563.0</ele><time>2026-05-03T10:51:53.595Z</time></trkpt><trkpt lat="46.0586726" lon="13.5397893"><ele>560.0</ele><time>2026-05-03T10:51:55.596Z</time></trkpt><trkpt lat="46.0585505" lon="13.5397202"><ele>557.0</ele><time>2026-05-03T10:51:57.594Z</time></trkpt><trkpt lat="46.0584667" lon="13.5397089"><ele>554.0</ele><time>2026-05-03T10:51:58.595Z</time></trkpt><trkpt lat="46.0583769" lon="13.539702"><ele>554.0</ele><time>2026-05-03T10:51:59.595Z</time></trkpt><trkpt lat="46.0582888" lon="13.5396975"><ele>554.0</ele><time>2026-05-03T10:52:00.595Z</time></trkpt><trkpt lat="46.0582093" lon="13.5396995"><ele>554.0</ele><time>2026-05-03T10:52:01.594Z</time></trkpt><trkpt lat="46.0581349" lon="13.5397123"><ele>554.0</ele><time>2026-05-03T10:52:02.595Z</time></trkpt><trkpt lat="46.0580616" lon="13.5397374"><ele>554.0</ele><time>2026-05-03T10:52:03.594Z</time></trkpt><trkpt lat="46.0579924" lon="13.5397754"><ele>554.0</ele><time>2026-05-03T10:52:04.595Z</time></trkpt><trkpt lat="46.0579224" lon="13.539823"><ele>551.1666666666666</ele><time>2026-05-03T10:52:05.594Z</time></trkpt><trkpt lat="46.0578615" lon="13.5398796"><ele>548.3333333333333</ele><time>2026-05-03T10:52:06.595Z</time></trkpt><trkpt lat="46.0578063" lon="13.5399395"><ele>545.5</ele><time>2026-05-03T10:52:07.594Z</time></trkpt><trkpt lat="46.0577484" lon="13.5400103"><ele>542.6666666666666</ele><time>2026-05-03T10:52:08.596Z</time></trkpt><trkpt lat="46.0576819" lon="13.5400858"><ele>539.8333333333334</ele><time>2026-05-03T10:52:09.594Z</time></trkpt><trkpt lat="46.0576174" lon="13.5401698"><ele>537.0</ele><time>2026-05-03T10:52:10.596Z</time></trkpt><trkpt lat="46.0575574" lon="13.5402644"><ele>537.0</ele><time>2026-05-03T10:52:11.595Z</time></trkpt><trkpt lat="46.057502" lon="13.5403675"><ele>537.0</ele><time>2026-05-03T10:52:12.594Z</time></trkpt><trkpt lat="46.0574562" lon="13.5404747"><ele>537.0</ele><time>2026-05-03T10:52:13.595Z</time></trkpt><trkpt lat="46.0574163" lon="13.5405734"><ele>537.0</ele><time>2026-05-03T10:52:14.595Z</time></trkpt><trkpt lat="46.0573751" lon="13.5406645"><ele>537.0</ele><time>2026-05-03T10:52:15.595Z</time></trkpt><trkpt lat="46.0573249" lon="13.5407523"><ele>537.0</ele><time>2026-05-03T10:52:16.596Z</time></trkpt><trkpt lat="46.0572655" lon="13.5408326"><ele>533.4</ele><time>2026-05-03T10:52:17.594Z</time></trkpt><trkpt lat="46.057191" lon="13.5409027"><ele>529.8000000000001</ele><time>2026-05-03T10:52:18.594Z</time></trkpt><trkpt lat="46.0571086" lon="13.5409701"><ele>526.2</ele><time>2026-05-03T10:52:19.596Z</time></trkpt><trkpt lat="46.0570236" lon="13.5410352"><ele>522.6</ele><time>2026-05-03T10:52:20.596Z</time></trkpt><trkpt lat="46.0569427" lon="13.5411029"><ele>519.0</ele><time>2026-05-03T10:52:21.594Z</time></trkpt><trkpt lat="46.0568685" lon="13.5411779"><ele>520.8333333333334</ele><time>2026-05-03T10:52:22.594Z</time></trkpt><trkpt lat="46.0568001" lon="13.5412551"><ele>522.6666666666666</ele><time>2026-05-03T10:52:23.595Z</time></trkpt><trkpt lat="46.0567386" lon="13.5413283"><ele>524.5</ele><time>2026-05-03T10:52:24.595Z</time></trkpt><trkpt lat="46.0566828" lon="13.5414051"><ele>526.3333333333333</ele><time>2026-05-03T10:52:25.596Z</time></trkpt><trkpt lat="46.0566288" lon="13.541487"><ele>528.1666666666666</ele><time>2026-05-03T10:52:26.595Z</time></trkpt><trkpt lat="46.0565779" lon="13.5415693"><ele>530.0</ele><time>2026-05-03T10:52:27.595Z</time></trkpt><trkpt lat="46.0565301" lon="13.5416566"><ele>524.4</ele><time>2026-05-03T10:52:28.595Z</time></trkpt><trkpt lat="46.0564927" lon="13.5417401"><ele>518.8</ele><time>2026-05-03T10:52:29.596Z</time></trkpt><trkpt lat="46.0564359" lon="13.5418853"><ele>513.2</ele><time>2026-05-03T10:52:31.595Z</time></trkpt><trkpt lat="46.0563953" lon="13.5419708"><ele>507.6</ele><time>2026-05-03T10:52:33.595Z</time></trkpt><trkpt lat="46.0563545" lon="13.5418491"><ele>502.0</ele><time>2026-05-03T10:52:37.594Z</time></trkpt><trkpt lat="46.0563692" lon="13.5416859"><ele>502.00000000000006</ele><time>2026-05-03T10:52:39.595Z</time></trkpt><trkpt lat="46.0563879" lon="13.5415899"><ele>502.0</ele><time>2026-05-03T10:52:40.595Z</time></trkpt><trkpt lat="46.0564085" lon="13.5414862"><ele>502.0</ele><time>2026-05-03T10:52:41.595Z</time></trkpt><trkpt lat="46.0564404" lon="13.5413699"><ele>502.0</ele><time>2026-05-03T10:52:42.594Z</time></trkpt><trkpt lat="46.0564831" lon="13.5412515"><ele>502.00000000000006</ele><time>2026-05-03T10:52:43.595Z</time></trkpt><trkpt lat="46.0565342" lon="13.541141"><ele>502.0</ele><time>2026-05-03T10:52:44.595Z</time></trkpt><trkpt lat="46.0565983" lon="13.5410567"><ele>500.6666666666667</ele><time>2026-05-03T10:52:45.593Z</time></trkpt><trkpt lat="46.0566383" lon="13.5409683"><ele>499.33333333333337</ele><time>2026-05-03T10:52:46.596Z</time></trkpt><trkpt lat="46.056665" lon="13.5408817"><ele>498.0</ele><time>2026-05-03T10:52:47.596Z</time></trkpt><trkpt lat="46.0566617" lon="13.5407867"><ele>496.66666666666663</ele><time>2026-05-03T10:52:48.594Z</time></trkpt><trkpt lat="46.056635" lon="13.5406867"><ele>495.3333333333333</ele><time>2026-05-03T10:52:49.593Z</time></trkpt><trkpt lat="46.056605" lon="13.5405767"><ele>494.0</ele><time>2026-05-03T10:52:50.594Z</time></trkpt><trkpt lat="46.0565733" lon="13.5404433"><ele>493.75</ele><time>2026-05-03T10:52:51.594Z</time></trkpt><trkpt lat="46.056515" lon="13.5402933"><ele>493.5</ele><time>2026-05-03T10:52:52.594Z</time></trkpt><trkpt lat="46.05643" lon="13.5401367"><ele>493.25</ele><time>2026-05-03T10:52:53.594Z</time></trkpt><trkpt lat="46.05633" lon="13.54"><ele>493.0</ele><time>2026-05-03T10:52:54.594Z</time></trkpt><trkpt lat="46.0562533" lon="13.539845"><ele>493.0</ele><time>2026-05-03T10:52:55.594Z</time></trkpt><trkpt lat="46.0561983" lon="13.5396883"><ele>493.0</ele><time>2026-05-03T10:52:56.596Z</time></trkpt><trkpt lat="46.0561483" lon="13.5395383"><ele>493.0</ele><time>2026-05-03T10:52:57.594Z</time></trkpt><trkpt lat="46.0561067" lon="13.53937"><ele>493.0</ele><time>2026-05-03T10:52:58.595Z</time></trkpt><trkpt lat="46.0560917" lon="13.5391983"><ele>493.5</ele><time>2026-05-03T10:52:59.595Z</time></trkpt><trkpt lat="46.0560783" lon="13.5390083"><ele>494.0</ele><time>2026-05-03T10:53:00.595Z</time></trkpt><trkpt lat="46.056065" lon="13.53882"><ele>494.5</ele><time>2026-05-03T10:53:01.594Z</time></trkpt><trkpt lat="46.0560667" lon="13.5386317"><ele>495.0</ele><time>2026-05-03T10:53:02.595Z</time></trkpt><trkpt lat="46.0560817" lon="13.5384433"><ele>495.0</ele><time>2026-05-03T10:53:03.594Z</time></trkpt><trkpt lat="46.056095" lon="13.53828"><ele>495.0</ele><time>2026-05-03T10:53:04.595Z</time></trkpt><trkpt lat="46.0561133" lon="13.53813"><ele>495.0</ele><time>2026-05-03T10:53:05.594Z</time></trkpt><trkpt lat="46.0561333" lon="13.5379983"><ele>495.0</ele><time>2026-05-03T10:53:06.594Z</time></trkpt><trkpt lat="46.0561583" lon="13.5378767"><ele>495.0</ele><time>2026-05-03T10:53:07.596Z</time></trkpt><trkpt lat="46.0561767" lon="13.5377717"><ele>494.5</ele><time>2026-05-03T10:53:08.594Z</time></trkpt><trkpt lat="46.0561933" lon="13.5376783"><ele>494.0</ele><time>2026-05-03T10:53:09.594Z</time></trkpt><trkpt lat="46.05622" lon="13.5375267"><ele>493.5</ele><time>2026-05-03T10:53:11.595Z</time></trkpt><trkpt lat="46.0562433" lon="13.5374267"><ele>493.0</ele><time>2026-05-03T10:53:13.594Z</time></trkpt><trkpt lat="46.056235" lon="13.5373233"><ele>492.5</ele><time>2026-05-03T10:53:16.595Z</time></trkpt><trkpt lat="46.0562833" lon="13.537245"><ele>492.0</ele><time>2026-05-03T10:53:35.595Z</time></trkpt><trkpt lat="46.0563183" lon="13.537165"><ele>492.0</ele><time>2026-05-03T10:53:38.595Z</time></trkpt><trkpt lat="46.0563583" lon="13.5370883"><ele>492.0</ele><time>2026-05-03T10:53:44.594Z</time></trkpt></trkseg><trkseg><trkpt lat="46.05629" lon="13.5370567"><ele>492.0</ele><time>2026-05-03T11:41:18.337Z</time></trkpt><trkpt lat="46.0564" lon="13.5370633"><ele>492.0</ele><time>2026-05-03T11:42:58.593Z</time></trkpt><trkpt lat="46.0564733" lon="13.536995"><ele>492.0</ele><time>2026-05-03T11:43:01.593Z</time></trkpt><trkpt lat="46.0565267" lon="13.53694"><ele>492.0</ele><time>2026-05-03T11:43:03.594Z</time></trkpt><trkpt lat="46.0566067" lon="13.5368917"><ele>492.0</ele><time>2026-05-03T11:43:06.593Z</time></trkpt><trkpt lat="46.05668" lon="13.536855"><ele>492.0</ele><time>2026-05-03T11:43:09.593Z</time></trkpt><trkpt lat="46.056755" lon="13.536805"><ele>491.5</ele><time>2026-05-03T11:43:12.592Z</time></trkpt><trkpt lat="46.0568333" lon="13.5367333"><ele>491.0</ele><time>2026-05-03T11:43:15.593Z</time></trkpt><trkpt lat="46.05688" lon="13.5366667"><ele>490.5</ele><time>2026-05-03T11:43:17.593Z</time></trkpt><trkpt lat="46.05693" lon="13.5365883"><ele>490.0</ele><time>2026-05-03T11:43:19.596Z</time></trkpt><trkpt lat="46.056985" lon="13.5364917"><ele>489.5</ele><time>2026-05-03T11:43:21.593Z</time></trkpt><trkpt lat="46.05705" lon="13.5363733"><ele>489.0</ele><time>2026-05-03T11:43:23.594Z</time></trkpt><trkpt lat="46.0571217" lon="13.536245"><ele>487.75</ele><time>2026-05-03T11:43:25.595Z</time></trkpt><trkpt lat="46.0572083" lon="13.536105"><ele>486.5</ele><time>2026-05-03T11:43:27.594Z</time></trkpt><trkpt lat="46.0573033" lon="13.5359917"><ele>485.25</ele><time>2026-05-03T11:43:29.593Z</time></trkpt><trkpt lat="46.05742" lon="13.5359033"><ele>484.0</ele><time>2026-05-03T11:43:31.594Z</time></trkpt><trkpt lat="46.0575067" lon="13.5358533"><ele>484.00000000000006</ele><time>2026-05-03T11:43:32.595Z</time></trkpt><trkpt lat="46.05758" lon="13.5358167"><ele>484.0</ele><time>2026-05-03T11:43:33.593Z</time></trkpt><trkpt lat="46.0576683" lon="13.5357683"><ele>484.0</ele><time>2026-05-03T11:43:34.593Z</time></trkpt><trkpt lat="46.0577467" lon="13.53575"><ele>484.0</ele><time>2026-05-03T11:43:35.593Z</time></trkpt><trkpt lat="46.0578268" lon="13.5357386"><ele>484.00000000000006</ele><time>2026-05-03T11:43:36.594Z</time></trkpt><trkpt lat="46.0579074" lon="13.5357376"><ele>484.0</ele><time>2026-05-03T11:43:37.594Z</time></trkpt><trkpt lat="46.057994" lon="13.5357344"><ele>484.00000000000006</ele><time>2026-05-03T11:43:38.595Z</time></trkpt><trkpt lat="46.0580737" lon="13.535731"><ele>484.0</ele><time>2026-05-03T11:43:39.594Z</time></trkpt><trkpt lat="46.0581496" lon="13.5357202"><ele>484.0</ele><time>2026-05-03T11:43:40.594Z</time></trkpt><trkpt lat="46.058262" lon="13.535714"><ele>484.0</ele><time>2026-05-03T11:43:42.596Z</time></trkpt><trkpt lat="46.058332" lon="13.5356702"><ele>484.00000000000006</ele><time>2026-05-03T11:43:44.594Z</time></trkpt><trkpt lat="46.0583496" lon="13.5355503"><ele>484.0</ele><time>2026-05-03T11:43:46.594Z</time></trkpt><trkpt lat="46.0583123" lon="13.5354452"><ele>481.00000000000006</ele><time>2026-05-03T11:43:48.593Z</time></trkpt><trkpt lat="46.0582498" lon="13.5353779"><ele>478.0</ele><time>2026-05-03T11:43:50.596Z</time></trkpt><trkpt lat="46.0581627" lon="13.5353317"><ele>475.0</ele><time>2026-05-03T11:43:52.593Z</time></trkpt><trkpt lat="46.0580629" lon="13.5352671"><ele>472.0</ele><time>2026-05-03T11:43:54.594Z</time></trkpt><trkpt lat="46.0580056" lon="13.5352272"><ele>469.00000000000006</ele><time>2026-05-03T11:43:55.593Z</time></trkpt><trkpt lat="46.0579447" lon="13.5351795"><ele>466.0</ele><time>2026-05-03T11:43:56.594Z</time></trkpt><trkpt lat="46.0578843" lon="13.5351256"><ele>466.0</ele><time>2026-05-03T11:43:57.594Z</time></trkpt><trkpt lat="46.0578221" lon="13.5350682"><ele>466.0</ele><time>2026-05-03T11:43:58.593Z</time></trkpt><trkpt lat="46.0577609" lon="13.5350071"><ele>466.0</ele><time>2026-05-03T11:43:59.593Z</time></trkpt><trkpt lat="46.0577015" lon="13.5349443"><ele>466.0</ele><time>2026-05-03T11:44:00.595Z</time></trkpt><trkpt lat="46.0576386" lon="13.5348879"><ele>466.0</ele><time>2026-05-03T11:44:01.593Z</time></trkpt><trkpt lat="46.057573" lon="13.5348429"><ele>466.0</ele><time>2026-05-03T11:44:02.595Z</time></trkpt><trkpt lat="46.057504" lon="13.5348076"><ele>466.0</ele><time>2026-05-03T11:44:03.594Z</time></trkpt><trkpt lat="46.0574335" lon="13.5347822"><ele>465.57142857142856</ele><time>2026-05-03T11:44:04.593Z</time></trkpt><trkpt lat="46.0573603" lon="13.5347651"><ele>465.1428571428571</ele><time>2026-05-03T11:44:05.593Z</time></trkpt><trkpt lat="46.0572843" lon="13.5347626"><ele>464.71428571428567</ele><time>2026-05-03T11:44:06.593Z</time></trkpt><trkpt lat="46.0572074" lon="13.5347685"><ele>464.2857142857143</ele><time>2026-05-03T11:44:07.594Z</time></trkpt><trkpt lat="46.0571327" lon="13.5347754"><ele>463.8571428571428</ele><time>2026-05-03T11:44:08.595Z</time></trkpt><trkpt lat="46.0570621" lon="13.5347809"><ele>463.4285714285714</ele><time>2026-05-03T11:44:09.593Z</time></trkpt><trkpt lat="46.0569922" lon="13.5347893"><ele>463.0</ele><time>2026-05-03T11:44:10.593Z</time></trkpt><trkpt lat="46.0569214" lon="13.5347879"><ele>463.00000000000006</ele><time>2026-05-03T11:44:11.595Z</time></trkpt><trkpt lat="46.0568469" lon="13.5347824"><ele>463.0</ele><time>2026-05-03T11:44:12.594Z</time></trkpt><trkpt lat="46.0567699" lon="13.5347755"><ele>463.0</ele><time>2026-05-03T11:44:13.594Z</time></trkpt><trkpt lat="46.0566932" lon="13.5347667"><ele>463.0</ele><time>2026-05-03T11:44:14.594Z</time></trkpt><trkpt lat="46.056619" lon="13.5347536"><ele>463.00000000000006</ele><time>2026-05-03T11:44:15.594Z</time></trkpt><trkpt lat="46.0565405" lon="13.5347306"><ele>463.0</ele><time>2026-05-03T11:44:16.593Z</time></trkpt><trkpt lat="46.0564719" lon="13.5347182"><ele>462.6666666666667</ele><time>2026-05-03T11:44:17.594Z</time></trkpt><trkpt lat="46.0564015" lon="13.5347042"><ele>462.33333333333337</ele><time>2026-05-03T11:44:18.593Z</time></trkpt><trkpt lat="46.0563283" lon="13.5346725"><ele>462.0</ele><time>2026-05-03T11:44:19.593Z</time></trkpt><trkpt lat="46.0562513" lon="13.5346262"><ele>461.66666666666663</ele><time>2026-05-03T11:44:20.595Z</time></trkpt><trkpt lat="46.056173" lon="13.5345842"><ele>461.3333333333333</ele><time>2026-05-03T11:44:21.593Z</time></trkpt><trkpt lat="46.0560981" lon="13.5345298"><ele>461.0</ele><time>2026-05-03T11:44:22.595Z</time></trkpt><trkpt lat="46.0560282" lon="13.5344577"><ele>458.6</ele><time>2026-05-03T11:44:23.594Z</time></trkpt><trkpt lat="46.0559639" lon="13.5343722"><ele>456.20000000000005</ele><time>2026-05-03T11:44:24.594Z</time></trkpt><trkpt lat="46.0559074" lon="13.5342721"><ele>453.79999999999995</ele><time>2026-05-03T11:44:25.594Z</time></trkpt><trkpt lat="46.055851" lon="13.5341707"><ele>451.4</ele><time>2026-05-03T11:44:26.595Z</time></trkpt><trkpt lat="46.0557887" lon="13.5340644"><ele>449.0</ele><time>2026-05-03T11:44:27.593Z</time></trkpt><trkpt lat="46.0557285" lon="13.5339573"><ele>449.0</ele><time>2026-05-03T11:44:28.593Z</time></trkpt><trkpt lat="46.0556637" lon="13.5338609"><ele>449.0</ele><time>2026-05-03T11:44:29.594Z</time></trkpt><trkpt lat="46.0555933" lon="13.5337657"><ele>449.0</ele><time>2026-05-03T11:44:30.593Z</time></trkpt><trkpt lat="46.0555188" lon="13.5336701"><ele>449.0</ele><time>2026-05-03T11:44:31.594Z</time></trkpt><trkpt lat="46.0554309" lon="13.5335788"><ele>449.0</ele><time>2026-05-03T11:44:32.595Z</time></trkpt><trkpt lat="46.0553378" lon="13.5334942"><ele>445.79999999999995</ele><time>2026-05-03T11:44:33.593Z</time></trkpt><trkpt lat="46.055256" lon="13.533402"><ele>442.59999999999997</ele><time>2026-05-03T11:44:34.594Z</time></trkpt><trkpt lat="46.0551845" lon="13.5333212"><ele>439.4</ele><time>2026-05-03T11:44:35.594Z</time></trkpt><trkpt lat="46.0551141" lon="13.5332584"><ele>436.2</ele><time>2026-05-03T11:44:36.594Z</time></trkpt><trkpt lat="46.0550437" lon="13.5331974"><ele>433.0</ele><time>2026-05-03T11:44:37.593Z</time></trkpt><trkpt lat="46.0549607" lon="13.533133"><ele>434.2</ele><time>2026-05-03T11:44:38.594Z</time></trkpt><trkpt lat="46.0548612" lon="13.5330663"><ele>435.4</ele><time>2026-05-03T11:44:39.593Z</time></trkpt><trkpt lat="46.0547612" lon="13.5330001"><ele>436.59999999999997</ele><time>2026-05-03T11:44:40.593Z</time></trkpt><trkpt lat="46.0546611" lon="13.5329387"><ele>437.79999999999995</ele><time>2026-05-03T11:44:41.595Z</time></trkpt><trkpt lat="46.0545579" lon="13.5328689"><ele>439.0</ele><time>2026-05-03T11:44:42.594Z</time></trkpt><trkpt lat="46.0544518" lon="13.5327954"><ele>435.0</ele><time>2026-05-03T11:44:43.595Z</time></trkpt><trkpt lat="46.0543493" lon="13.5327234"><ele>431.0</ele><time>2026-05-03T11:44:44.595Z</time></trkpt><trkpt lat="46.05425" lon="13.5326676"><ele>427.0</ele><time>2026-05-03T11:44:45.595Z</time></trkpt><trkpt lat="46.0541631" lon="13.5326201"><ele>423.0</ele><time>2026-05-03T11:44:46.594Z</time></trkpt><trkpt lat="46.0540746" lon="13.5325838"><ele>419.0</ele><time>2026-05-03T11:44:47.594Z</time></trkpt><trkpt lat="46.0539904" lon="13.5325606"><ele>418.66666666666663</ele><time>2026-05-03T11:44:48.594Z</time></trkpt><trkpt lat="46.0539116" lon="13.5325475"><ele>418.3333333333333</ele><time>2026-05-03T11:44:49.594Z</time></trkpt><trkpt lat="46.0538405" lon="13.5325421"><ele>418.0</ele><time>2026-05-03T11:44:50.594Z</time></trkpt><trkpt lat="46.053772" lon="13.5325359"><ele>417.66666666666663</ele><time>2026-05-03T11:44:51.594Z</time></trkpt><trkpt lat="46.0536687" lon="13.5325298"><ele>417.3333333333333</ele><time>2026-05-03T11:44:53.595Z</time></trkpt><trkpt lat="46.0536382" lon="13.5324065"><ele>417.0</ele><time>2026-05-03T11:44:56.595Z</time></trkpt><trkpt lat="46.0537005" lon="13.5323488"><ele>417.0</ele><time>2026-05-03T11:44:58.595Z</time></trkpt><trkpt lat="46.0538273" lon="13.5323263"><ele>417.0</ele><time>2026-05-03T11:45:00.594Z</time></trkpt><trkpt lat="46.05391" lon="13.5323048"><ele>417.0</ele><time>2026-05-03T11:45:01.594Z</time></trkpt><trkpt lat="46.0540383" lon="13.53227"><ele>417.0</ele><time>2026-05-03T11:45:02.594Z</time></trkpt><trkpt lat="46.0541367" lon="13.5322283"><ele>417.0</ele><time>2026-05-03T11:45:03.595Z</time></trkpt><trkpt lat="46.0542333" lon="13.53214"><ele>412.0</ele><time>2026-05-03T11:45:04.595Z</time></trkpt><trkpt lat="46.0543233" lon="13.53205"><ele>407.0</ele><time>2026-05-03T11:45:05.595Z</time></trkpt><trkpt lat="46.0544217" lon="13.5319967"><ele>402.0</ele><time>2026-05-03T11:45:06.595Z</time></trkpt><trkpt lat="46.05452" lon="13.531975"><ele>397.0</ele><time>2026-05-03T11:45:07.595Z</time></trkpt><trkpt lat="46.054615" lon="13.53196"><ele>392.0</ele><time>2026-05-03T11:45:08.596Z</time></trkpt><trkpt lat="46.054705" lon="13.5320317"><ele>395.49999999999994</ele><time>2026-05-03T11:45:09.595Z</time></trkpt><trkpt lat="46.0547917" lon="13.5321083"><ele>399.0</ele><time>2026-05-03T11:45:10.594Z</time></trkpt><trkpt lat="46.05488" lon="13.532185"><ele>402.5</ele><time>2026-05-03T11:45:11.596Z</time></trkpt><trkpt lat="46.0549517" lon="13.5322683"><ele>406.0</ele><time>2026-05-03T11:45:12.593Z</time></trkpt><trkpt lat="46.0550167" lon="13.5323333"><ele>409.49999999999994</ele><time>2026-05-03T11:45:13.593Z</time></trkpt><trkpt lat="46.0550833" lon="13.5323733"><ele>413.0</ele><time>2026-05-03T11:45:14.595Z</time></trkpt><trkpt lat="46.055225" lon="13.5323317"><ele>413.0</ele><time>2026-05-03T11:45:15.594Z</time></trkpt><trkpt lat="46.05534" lon="13.5322933"><ele>413.0</ele><time>2026-05-03T11:45:16.594Z</time></trkpt><trkpt lat="46.0554367" lon="13.5322917"><ele>413.0</ele><time>2026-05-03T11:45:17.594Z</time></trkpt><trkpt lat="46.0555367" lon="13.5322433"><ele>413.0</ele><time>2026-05-03T11:45:18.596Z</time></trkpt><trkpt lat="46.0556317" lon="13.5321417"><ele>413.0</ele><time>2026-05-03T11:45:19.594Z</time></trkpt><trkpt lat="46.0557317" lon="13.5320467"><ele>407.4</ele><time>2026-05-03T11:45:20.594Z</time></trkpt><trkpt lat="46.0558317" lon="13.5319667"><ele>401.79999999999995</ele><time>2026-05-03T11:45:21.593Z</time></trkpt><trkpt lat="46.0559217" lon="13.5319"><ele>396.2</ele><time>2026-05-03T11:45:22.594Z</time></trkpt><trkpt lat="46.0560133" lon="13.5318433"><ele>390.6</ele><time>2026-05-03T11:45:23.594Z</time></trkpt><trkpt lat="46.0560733" lon="13.5317917"><ele>385.0</ele><time>2026-05-03T11:45:24.594Z</time></trkpt><trkpt lat="46.0561417" lon="13.5316633"><ele>385.00000000000006</ele><time>2026-05-03T11:45:26.596Z</time></trkpt><trkpt lat="46.0561083" lon="13.5315367"><ele>385.0</ele><time>2026-05-03T11:45:28.594Z</time></trkpt><trkpt lat="46.05602" lon="13.5315117"><ele>385.0</ele><time>2026-05-03T11:45:30.594Z</time></trkpt><trkpt lat="46.0559517" lon="13.5315517"><ele>385.0</ele><time>2026-05-03T11:45:31.593Z</time></trkpt><trkpt lat="46.0558817" lon="13.531595"><ele>385.00000000000006</ele><time>2026-05-03T11:45:32.595Z</time></trkpt><trkpt lat="46.0558017" lon="13.53164"><ele>385.0</ele><time>2026-05-03T11:45:33.593Z</time></trkpt><trkpt lat="46.0557217" lon="13.5316817"><ele>385.6666666666667</ele><time>2026-05-03T11:45:34.594Z</time></trkpt><trkpt lat="46.0556383" lon="13.5317133"><ele>386.33333333333337</ele><time>2026-05-03T11:45:35.594Z</time></trkpt><trkpt lat="46.0555633" lon="13.5317983"><ele>387.0</ele><time>2026-05-03T11:45:36.594Z</time></trkpt><trkpt lat="46.0554833" lon="13.5318717"><ele>387.66666666666663</ele><time>2026-05-03T11:45:37.595Z</time></trkpt><trkpt lat="46.0553933" lon="13.53191"><ele>388.3333333333333</ele><time>2026-05-03T11:45:38.595Z</time></trkpt><trkpt lat="46.0553217" lon="13.531945"><ele>389.0</ele><time>2026-05-03T11:45:39.595Z</time></trkpt><trkpt lat="46.0552567" lon="13.5319617"><ele>389.0</ele><time>2026-05-03T11:45:40.594Z</time></trkpt><trkpt lat="46.0551933" lon="13.5319467"><ele>389.0</ele><time>2026-05-03T11:45:41.594Z</time></trkpt><trkpt lat="46.0551333" lon="13.5317917"><ele>389.0</ele><time>2026-05-03T11:45:43.594Z</time></trkpt><trkpt lat="46.05507" lon="13.5316767"><ele>389.0</ele><time>2026-05-03T11:45:44.595Z</time></trkpt><trkpt lat="46.054995" lon="13.531595"><ele>389.0</ele><time>2026-05-03T11:45:45.594Z</time></trkpt><trkpt lat="46.0549067" lon="13.53154"><ele>389.6</ele><time>2026-05-03T11:45:46.593Z</time></trkpt><trkpt lat="46.05481" lon="13.5314733"><ele>390.2</ele><time>2026-05-03T11:45:47.594Z</time></trkpt><trkpt lat="46.0547233" lon="13.5314383"><ele>390.8</ele><time>2026-05-03T11:45:48.593Z</time></trkpt><trkpt lat="46.0546167" lon="13.53142"><ele>391.40000000000003</ele><time>2026-05-03T11:45:49.593Z</time></trkpt><trkpt lat="46.0545" lon="13.531405"><ele>392.0</ele><time>2026-05-03T11:45:50.595Z</time></trkpt><trkpt lat="46.054375" lon="13.5314267"><ele>392.0</ele><time>2026-05-03T11:45:51.593Z</time></trkpt><trkpt lat="46.054245" lon="13.5314367"><ele>392.0</ele><time>2026-05-03T11:45:52.594Z</time></trkpt><trkpt lat="46.0541167" lon="13.531445"><ele>392.0</ele><time>2026-05-03T11:45:53.594Z</time></trkpt><trkpt lat="46.0540033" lon="13.53146"><ele>392.0</ele><time>2026-05-03T11:45:54.594Z</time></trkpt><trkpt lat="46.0538933" lon="13.5314033"><ele>391.20000000000005</ele><time>2026-05-03T11:45:55.593Z</time></trkpt><trkpt lat="46.053795" lon="13.5313767"><ele>390.4</ele><time>2026-05-03T11:45:56.594Z</time></trkpt><trkpt lat="46.0536967" lon="13.5313217"><ele>389.6</ele><time>2026-05-03T11:45:57.594Z</time></trkpt><trkpt lat="46.0535917" lon="13.531325"><ele>388.79999999999995</ele><time>2026-05-03T11:45:58.593Z</time></trkpt><trkpt lat="46.05349" lon="13.5313833"><ele>388.0</ele><time>2026-05-03T11:45:59.594Z</time></trkpt><trkpt lat="46.0534" lon="13.5314333"><ele>388.0</ele><time>2026-05-03T11:46:00.594Z</time></trkpt><trkpt lat="46.0533083" lon="13.5314233"><ele>388.0</ele><time>2026-05-03T11:46:01.594Z</time></trkpt><trkpt lat="46.0532233" lon="13.5313767"><ele>388.0</ele><time>2026-05-03T11:46:02.594Z</time></trkpt><trkpt lat="46.0531633" lon="13.5312983"><ele>388.0</ele><time>2026-05-03T11:46:03.594Z</time></trkpt><trkpt lat="46.0531217" lon="13.5311683"><ele>388.0</ele><time>2026-05-03T11:46:04.595Z</time></trkpt><trkpt lat="46.0531167" lon="13.531035"><ele>391.75</ele><time>2026-05-03T11:46:05.595Z</time></trkpt><trkpt lat="46.05313" lon="13.5308917"><ele>395.5</ele><time>2026-05-03T11:46:06.594Z</time></trkpt><trkpt lat="46.0531483" lon="13.5307217"><ele>399.25</ele><time>2026-05-03T11:46:07.594Z</time></trkpt><trkpt lat="46.0532067" lon="13.530535"><ele>403.0</ele><time>2026-05-03T11:46:08.594Z</time></trkpt><trkpt lat="46.05327" lon="13.5303467"><ele>393.25</ele><time>2026-05-03T11:46:09.595Z</time></trkpt><trkpt lat="46.053335" lon="13.5301533"><ele>383.5</ele><time>2026-05-03T11:46:10.595Z</time></trkpt><trkpt lat="46.053385" lon="13.5299567"><ele>373.75</ele><time>2026-05-03T11:46:11.594Z</time></trkpt><trkpt lat="46.0534267" lon="13.5297583"><ele>364.0</ele><time>2026-05-03T11:46:12.594Z</time></trkpt><trkpt lat="46.0534933" lon="13.5296083"><ele>364.5</ele><time>2026-05-03T11:46:13.596Z</time></trkpt><trkpt lat="46.0535717" lon="13.5294683"><ele>365.0</ele><time>2026-05-03T11:46:14.594Z</time></trkpt><trkpt lat="46.0536667" lon="13.5293367"><ele>365.5</ele><time>2026-05-03T11:46:15.597Z</time></trkpt><trkpt lat="46.0537733" lon="13.529215"><ele>366.0</ele><time>2026-05-03T11:46:16.595Z</time></trkpt><trkpt lat="46.0538817" lon="13.529105"><ele>366.0</ele><time>2026-05-03T11:46:17.594Z</time></trkpt><trkpt lat="46.05396" lon="13.5289817"><ele>366.0</ele><time>2026-05-03T11:46:18.594Z</time></trkpt><trkpt lat="46.05399" lon="13.52884"><ele>366.0</ele><time>2026-05-03T11:46:19.595Z</time></trkpt><trkpt lat="46.0539667" lon="13.528685"><ele>366.0</ele><time>2026-05-03T11:46:20.594Z</time></trkpt><trkpt lat="46.0539417" lon="13.52854"><ele>366.0</ele><time>2026-05-03T11:46:21.595Z</time></trkpt><trkpt lat="46.0538783" lon="13.5284083"><ele>365.1666666666667</ele><time>2026-05-03T11:46:22.594Z</time></trkpt><trkpt lat="46.05383" lon="13.5283033"><ele>364.3333333333333</ele><time>2026-05-03T11:46:23.595Z</time></trkpt><trkpt lat="46.0537633" lon="13.5282067"><ele>363.5</ele><time>2026-05-03T11:46:24.594Z</time></trkpt><trkpt lat="46.0537083" lon="13.528105"><ele>362.66666666666663</ele><time>2026-05-03T11:46:25.594Z</time></trkpt><trkpt lat="46.0536783" lon="13.5279983"><ele>361.8333333333333</ele><time>2026-05-03T11:46:26.595Z</time></trkpt><trkpt lat="46.0536733" lon="13.52788"><ele>361.0</ele><time>2026-05-03T11:46:27.593Z</time></trkpt><trkpt lat="46.0537233" lon="13.5277383"><ele>361.0</ele><time>2026-05-03T11:46:28.594Z</time></trkpt><trkpt lat="46.0537733" lon="13.527575"><ele>361.0</ele><time>2026-05-03T11:46:29.593Z</time></trkpt><trkpt lat="46.0538283" lon="13.5273967"><ele>361.0</ele><time>2026-05-03T11:46:30.594Z</time></trkpt><trkpt lat="46.0538633" lon="13.5271967"><ele>361.0</ele><time>2026-05-03T11:46:31.595Z</time></trkpt><trkpt lat="46.0538683" lon="13.5269867"><ele>359.66666666666663</ele><time>2026-05-03T11:46:32.595Z</time></trkpt><trkpt lat="46.053865" lon="13.5267583"><ele>358.3333333333333</ele><time>2026-05-03T11:46:33.594Z</time></trkpt><trkpt lat="46.0538717" lon="13.5265233"><ele>357.0</ele><time>2026-05-03T11:46:34.594Z</time></trkpt><trkpt lat="46.0538733" lon="13.52629"><ele>356.5</ele><time>2026-05-03T11:46:35.595Z</time></trkpt><trkpt lat="46.0538617" lon="13.5260667"><ele>356.0</ele><time>2026-05-03T11:46:36.595Z</time></trkpt><trkpt lat="46.0538417" lon="13.525855"><ele>355.5</ele><time>2026-05-03T11:46:37.593Z</time></trkpt><trkpt lat="46.0538183" lon="13.5256583"><ele>355.0</ele><time>2026-05-03T11:46:38.595Z</time></trkpt><trkpt lat="46.0538" lon="13.5254733"><ele>354.0</ele><time>2026-05-03T11:46:39.594Z</time></trkpt><trkpt lat="46.0537917" lon="13.5252983"><ele>353.0</ele><time>2026-05-03T11:46:40.594Z</time></trkpt><trkpt lat="46.053795" lon="13.52514"><ele>352.0</ele><time>2026-05-03T11:46:41.594Z</time></trkpt><trkpt lat="46.0538183" lon="13.5249983"><ele>351.0</ele><time>2026-05-03T11:46:42.593Z</time></trkpt><trkpt lat="46.0538583" lon="13.524875"><ele>350.0</ele><time>2026-05-03T11:46:43.594Z</time></trkpt><trkpt lat="46.0539" lon="13.5247633"><ele>350.0</ele><time>2026-05-03T11:46:44.595Z</time></trkpt><trkpt lat="46.0539567" lon="13.5246683"><ele>350.0</ele><time>2026-05-03T11:46:45.593Z</time></trkpt><trkpt lat="46.0540367" lon="13.524595"><ele>350.0</ele><time>2026-05-03T11:46:46.594Z</time></trkpt><trkpt lat="46.054105" lon="13.5244917"><ele>350.0</ele><time>2026-05-03T11:46:47.594Z</time></trkpt><trkpt lat="46.054145" lon="13.52434"><ele>350.0</ele><time>2026-05-03T11:46:48.594Z</time></trkpt><trkpt lat="46.0541783" lon="13.5241617"><ele>340.75</ele><time>2026-05-03T11:46:49.594Z</time></trkpt><trkpt lat="46.0541883" lon="13.5239633"><ele>331.5</ele><time>2026-05-03T11:46:50.594Z</time></trkpt><trkpt lat="46.0542233" lon="13.5237633"><ele>322.25</ele><time>2026-05-03T11:46:51.594Z</time></trkpt><trkpt lat="46.0542767" lon="13.5235683"><ele>313.0</ele><time>2026-05-03T11:46:52.594Z</time></trkpt><trkpt lat="46.0543267" lon="13.52339"><ele>312.5</ele><time>2026-05-03T11:46:53.594Z</time></trkpt><trkpt lat="46.0543583" lon="13.5232267"><ele>312.0</ele><time>2026-05-03T11:46:54.593Z</time></trkpt><trkpt lat="46.0544117" lon="13.5230783"><ele>311.5</ele><time>2026-05-03T11:46:55.594Z</time></trkpt><trkpt lat="46.0544833" lon="13.522925"><ele>311.0</ele><time>2026-05-03T11:46:56.594Z</time></trkpt><trkpt lat="46.054525" lon="13.5227633"><ele>310.0</ele><time>2026-05-03T11:46:57.594Z</time></trkpt><trkpt lat="46.0545317" lon="13.52259"><ele>309.0</ele><time>2026-05-03T11:46:58.594Z</time></trkpt><trkpt lat="46.05454" lon="13.5224117"><ele>308.0</ele><time>2026-05-03T11:46:59.595Z</time></trkpt><trkpt lat="46.0545533" lon="13.52223"><ele>307.0</ele><time>2026-05-03T11:47:00.596Z</time></trkpt><trkpt lat="46.0545433" lon="13.52204"><ele>306.0</ele><time>2026-05-03T11:47:01.593Z</time></trkpt><trkpt lat="46.0545483" lon="13.5218433"><ele>305.0</ele><time>2026-05-03T11:47:02.595Z</time></trkpt><trkpt lat="46.0545067" lon="13.5216717"><ele>304.0</ele><time>2026-05-03T11:47:03.593Z</time></trkpt><trkpt lat="46.0545083" lon="13.5214933"><ele>303.0</ele><time>2026-05-03T11:47:04.594Z</time></trkpt><trkpt lat="46.0544833" lon="13.52134"><ele>300.4</ele><time>2026-05-03T11:47:05.593Z</time></trkpt><trkpt lat="46.0544717" lon="13.521185"><ele>297.8</ele><time>2026-05-03T11:47:06.593Z</time></trkpt><trkpt lat="46.054465" lon="13.5210517"><ele>295.2</ele><time>2026-05-03T11:47:07.595Z</time></trkpt><trkpt lat="46.0544217" lon="13.5209283"><ele>292.6</ele><time>2026-05-03T11:47:08.594Z</time></trkpt><trkpt lat="46.05436" lon="13.5208233"><ele>290.0</ele><time>2026-05-03T11:47:09.594Z</time></trkpt><trkpt lat="46.05428" lon="13.5207417"><ele>290.0</ele><time>2026-05-03T11:47:10.593Z</time></trkpt><trkpt lat="46.0541883" lon="13.5206783"><ele>290.0</ele><time>2026-05-03T11:47:11.594Z</time></trkpt><trkpt lat="46.0541167" lon="13.520625"><ele>290.0</ele><time>2026-05-03T11:47:12.595Z</time></trkpt><trkpt lat="46.0540433" lon="13.5205967"><ele>290.0</ele><time>2026-05-03T11:47:13.595Z</time></trkpt><trkpt lat="46.053975" lon="13.52058"><ele>290.0</ele><time>2026-05-03T11:47:14.594Z</time></trkpt><trkpt lat="46.0538817" lon="13.520525"><ele>290.0</ele><time>2026-05-03T11:47:16.593Z</time></trkpt><trkpt lat="46.0539183" lon="13.52039"><ele>291.0</ele><time>2026-05-03T11:47:18.593Z</time></trkpt><trkpt lat="46.0539783" lon="13.5203583"><ele>292.0</ele><time>2026-05-03T11:47:19.594Z</time></trkpt><trkpt lat="46.0540583" lon="13.52036"><ele>293.0</ele><time>2026-05-03T11:47:20.594Z</time></trkpt><trkpt lat="46.0541383" lon="13.5203533"><ele>294.0</ele><time>2026-05-03T11:47:21.595Z</time></trkpt><trkpt lat="46.0542267" lon="13.5203267"><ele>295.0</ele><time>2026-05-03T11:47:22.593Z</time></trkpt><trkpt lat="46.0543317" lon="13.5202867"><ele>296.0</ele><time>2026-05-03T11:47:23.593Z</time></trkpt><trkpt lat="46.0544383" lon="13.5202733"><ele>293.40000000000003</ele><time>2026-05-03T11:47:24.594Z</time></trkpt><trkpt lat="46.054545" lon="13.52024"><ele>290.8</ele><time>2026-05-03T11:47:25.594Z</time></trkpt><trkpt lat="46.0546617" lon="13.5201983"><ele>288.20000000000005</ele><time>2026-05-03T11:47:26.594Z</time></trkpt><trkpt lat="46.05475" lon="13.5201267"><ele>285.6</ele><time>2026-05-03T11:47:27.593Z</time></trkpt><trkpt lat="46.054815" lon="13.5200067"><ele>283.0</ele><time>2026-05-03T11:47:28.593Z</time></trkpt><trkpt lat="46.05485" lon="13.519875"><ele>283.0</ele><time>2026-05-03T11:47:29.594Z</time></trkpt><trkpt lat="46.0548817" lon="13.5197183"><ele>283.0</ele><time>2026-05-03T11:47:30.593Z</time></trkpt><trkpt lat="46.054925" lon="13.519565"><ele>283.0</ele><time>2026-05-03T11:47:31.593Z</time></trkpt><trkpt lat="46.0549867" lon="13.5194083"><ele>283.0</ele><time>2026-05-03T11:47:32.594Z</time></trkpt><trkpt lat="46.0550667" lon="13.5192617"><ele>283.0</ele><time>2026-05-03T11:47:33.593Z</time></trkpt><trkpt lat="46.0551333" lon="13.5190883"><ele>283.0</ele><time>2026-05-03T11:47:34.595Z</time></trkpt><trkpt lat="46.0552133" lon="13.518945"><ele>283.0</ele><time>2026-05-03T11:47:35.594Z</time></trkpt><trkpt lat="46.055275" lon="13.518795"><ele>283.0</ele><time>2026-05-03T11:47:36.594Z</time></trkpt><trkpt lat="46.0553033" lon="13.51863"><ele>283.0</ele><time>2026-05-03T11:47:37.594Z</time></trkpt><trkpt lat="46.0553483" lon="13.5184833"><ele>283.0</ele><time>2026-05-03T11:47:38.594Z</time></trkpt><trkpt lat="46.0554233" lon="13.518335"><ele>283.0</ele><time>2026-05-03T11:47:39.593Z</time></trkpt><trkpt lat="46.0555033" lon="13.5181883"><ele>283.0</ele><time>2026-05-03T11:47:40.594Z</time></trkpt><trkpt lat="46.0555567" lon="13.5180417"><ele>286.0</ele><time>2026-05-03T11:47:41.595Z</time></trkpt><trkpt lat="46.0555917" lon="13.5178717"><ele>289.0</ele><time>2026-05-03T11:47:42.593Z</time></trkpt><trkpt lat="46.0556183" lon="13.51769"><ele>292.0</ele><time>2026-05-03T11:47:43.594Z</time></trkpt><trkpt lat="46.0556767" lon="13.5175233"><ele>295.0</ele><time>2026-05-03T11:47:44.596Z</time></trkpt><trkpt lat="46.055735" lon="13.51735"><ele>289.75</ele><time>2026-05-03T11:47:45.595Z</time></trkpt><trkpt lat="46.0557917" lon="13.5171917"><ele>284.5</ele><time>2026-05-03T11:47:46.595Z</time></trkpt><trkpt lat="46.0558383" lon="13.5170233"><ele>279.25</ele><time>2026-05-03T11:47:47.596Z</time></trkpt><trkpt lat="46.0558983" lon="13.5168683"><ele>274.0</ele><time>2026-05-03T11:47:48.594Z</time></trkpt><trkpt lat="46.055985" lon="13.516735"><ele>274.0</ele><time>2026-05-03T11:47:49.596Z</time></trkpt><trkpt lat="46.0560517" lon="13.5165817"><ele>274.0</ele><time>2026-05-03T11:47:50.595Z</time></trkpt><trkpt lat="46.0561117" lon="13.5164417"><ele>274.0</ele><time>2026-05-03T11:47:51.594Z</time></trkpt><trkpt lat="46.0561867" lon="13.5163133"><ele>274.0</ele><time>2026-05-03T11:47:52.595Z</time></trkpt><trkpt lat="46.056245" lon="13.5161833"><ele>275.4</ele><time>2026-05-03T11:47:53.593Z</time></trkpt><trkpt lat="46.0562967" lon="13.5160517"><ele>276.79999999999995</ele><time>2026-05-03T11:47:54.593Z</time></trkpt><trkpt lat="46.0563683" lon="13.5159283"><ele>278.20000000000005</ele><time>2026-05-03T11:47:55.594Z</time></trkpt><trkpt lat="46.0564417" lon="13.515805"><ele>279.6</ele><time>2026-05-03T11:47:56.594Z</time></trkpt><trkpt lat="46.0565133" lon="13.5156833"><ele>281.0</ele><time>2026-05-03T11:47:57.594Z</time></trkpt><trkpt lat="46.0565667" lon="13.5155567"><ele>281.0</ele><time>2026-05-03T11:47:58.594Z</time></trkpt><trkpt lat="46.0566167" lon="13.515425"><ele>281.0</ele><time>2026-05-03T11:47:59.596Z</time></trkpt><trkpt lat="46.056665" lon="13.51529"><ele>281.0</ele><time>2026-05-03T11:48:00.595Z</time></trkpt><trkpt lat="46.0567017" lon="13.515145"><ele>281.0</ele><time>2026-05-03T11:48:01.597Z</time></trkpt><trkpt lat="46.0567317" lon="13.5149867"><ele>281.0</ele><time>2026-05-03T11:48:02.595Z</time></trkpt><trkpt lat="46.0567683" lon="13.514845"><ele>278.8</ele><time>2026-05-03T11:48:03.594Z</time></trkpt><trkpt lat="46.05681" lon="13.51472"><ele>276.6</ele><time>2026-05-03T11:48:04.594Z</time></trkpt><trkpt lat="46.056875" lon="13.51462"><ele>274.4</ele><time>2026-05-03T11:48:05.593Z</time></trkpt><trkpt lat="46.0569233" lon="13.514505"><ele>272.2</ele><time>2026-05-03T11:48:06.594Z</time></trkpt><trkpt lat="46.0569533" lon="13.514365"><ele>270.0</ele><time>2026-05-03T11:48:07.594Z</time></trkpt><trkpt lat="46.05697" lon="13.5142083"><ele>268.75</ele><time>2026-05-03T11:48:08.594Z</time></trkpt><trkpt lat="46.0569967" lon="13.5140483"><ele>267.5</ele><time>2026-05-03T11:48:09.594Z</time></trkpt><trkpt lat="46.057055" lon="13.5139017"><ele>266.25</ele><time>2026-05-03T11:48:10.594Z</time></trkpt><trkpt lat="46.0571267" lon="13.513765"><ele>265.0</ele><time>2026-05-03T11:48:11.594Z</time></trkpt><trkpt lat="46.0572083" lon="13.5136283"><ele>263.5</ele><time>2026-05-03T11:48:12.593Z</time></trkpt><trkpt lat="46.0572683" lon="13.5134833"><ele>262.0</ele><time>2026-05-03T11:48:13.595Z</time></trkpt><trkpt lat="46.05734" lon="13.5133367"><ele>260.5</ele><time>2026-05-03T11:48:14.594Z</time></trkpt><trkpt lat="46.05743" lon="13.5131967"><ele>259.0</ele><time>2026-05-03T11:48:15.594Z</time></trkpt><trkpt lat="46.0574983" lon="13.5130467"><ele>256.5</ele><time>2026-05-03T11:48:16.594Z</time></trkpt><trkpt lat="46.0575767" lon="13.5128983"><ele>254.0</ele><time>2026-05-03T11:48:17.594Z</time></trkpt><trkpt lat="46.0576317" lon="13.5127467"><ele>251.5</ele><time>2026-05-03T11:48:18.595Z</time></trkpt><trkpt lat="46.0576617" lon="13.5125933"><ele>249.0</ele><time>2026-05-03T11:48:19.596Z</time></trkpt><trkpt lat="46.0576983" lon="13.512435"><ele>249.0</ele><time>2026-05-03T11:48:20.595Z</time></trkpt><trkpt lat="46.0577633" lon="13.5122967"><ele>249.0</ele><time>2026-05-03T11:48:21.594Z</time></trkpt><trkpt lat="46.057875" lon="13.5121783"><ele>249.0</ele><time>2026-05-03T11:48:22.593Z</time></trkpt><trkpt lat="46.0580117" lon="13.5120967"><ele>249.0</ele><time>2026-05-03T11:48:23.598Z</time></trkpt><trkpt lat="46.05809" lon="13.5119917"><ele>249.39999999999998</ele><time>2026-05-03T11:48:24.593Z</time></trkpt><trkpt lat="46.0581667" lon="13.51189"><ele>249.79999999999998</ele><time>2026-05-03T11:48:25.594Z</time></trkpt><trkpt lat="46.0582367" lon="13.5117967"><ele>250.20000000000002</ele><time>2026-05-03T11:48:26.594Z</time></trkpt><trkpt lat="46.0582883" lon="13.5116917"><ele>250.60000000000002</ele><time>2026-05-03T11:48:27.593Z</time></trkpt><trkpt lat="46.058335" lon="13.511555"><ele>251.0</ele><time>2026-05-03T11:48:28.595Z</time></trkpt><trkpt lat="46.0583883" lon="13.5114117"><ele>251.0</ele><time>2026-05-03T11:48:29.595Z</time></trkpt><trkpt lat="46.0583883" lon="13.5112417"><ele>251.0</ele><time>2026-05-03T11:48:30.595Z</time></trkpt><trkpt lat="46.0583733" lon="13.5110583"><ele>251.0</ele><time>2026-05-03T11:48:31.595Z</time></trkpt><trkpt lat="46.0583117" lon="13.5108617"><ele>251.0</ele><time>2026-05-03T11:48:32.595Z</time></trkpt><trkpt lat="46.05825" lon="13.5106667"><ele>244.75</ele><time>2026-05-03T11:48:33.595Z</time></trkpt><trkpt lat="46.0581883" lon="13.5104767"><ele>238.5</ele><time>2026-05-03T11:48:34.594Z</time></trkpt><trkpt lat="46.058115" lon="13.510295"><ele>232.25</ele><time>2026-05-03T11:48:35.596Z</time></trkpt><trkpt lat="46.0580633" lon="13.5101117"><ele>226.0</ele><time>2026-05-03T11:48:36.594Z</time></trkpt><trkpt lat="46.0580183" lon="13.509935"><ele>224.25</ele><time>2026-05-03T11:48:37.595Z</time></trkpt><trkpt lat="46.0579767" lon="13.509775"><ele>222.5</ele><time>2026-05-03T11:48:38.594Z</time></trkpt><trkpt lat="46.0579617" lon="13.5096033"><ele>220.75</ele><time>2026-05-03T11:48:39.593Z</time></trkpt><trkpt lat="46.057955" lon="13.509435"><ele>219.0</ele><time>2026-05-03T11:48:40.594Z</time></trkpt><trkpt lat="46.0579683" lon="13.50929"><ele>218.66666666666666</ele><time>2026-05-03T11:48:41.594Z</time></trkpt><trkpt lat="46.05798" lon="13.50917"><ele>218.33333333333331</ele><time>2026-05-03T11:48:42.594Z</time></trkpt><trkpt lat="46.0579917" lon="13.509065"><ele>218.0</ele><time>2026-05-03T11:48:43.594Z</time></trkpt><trkpt lat="46.05795" lon="13.5089333"><ele>217.66666666666666</ele><time>2026-05-03T11:48:45.595Z</time></trkpt><trkpt lat="46.057885" lon="13.5089167"><ele>217.33333333333331</ele><time>2026-05-03T11:48:47.596Z</time></trkpt><trkpt lat="46.05787" lon="13.5090267"><ele>217.0</ele><time>2026-05-03T11:48:48.596Z</time></trkpt><trkpt lat="46.0578517" lon="13.5091667"><ele>217.0</ele><time>2026-05-03T11:48:50.595Z</time></trkpt><trkpt lat="46.0578233" lon="13.5093183"><ele>217.0</ele><time>2026-05-03T11:48:51.595Z</time></trkpt><trkpt lat="46.0577883" lon="13.50946"><ele>217.0</ele><time>2026-05-03T11:48:52.594Z</time></trkpt><trkpt lat="46.0577483" lon="13.5096117"><ele>217.0</ele><time>2026-05-03T11:48:53.595Z</time></trkpt><trkpt lat="46.0577383" lon="13.509765"><ele>217.0</ele><time>2026-05-03T11:48:54.594Z</time></trkpt><trkpt lat="46.057735" lon="13.5099017"><ele>217.39999999999998</ele><time>2026-05-03T11:48:55.594Z</time></trkpt><trkpt lat="46.0577217" lon="13.5100133"><ele>217.79999999999998</ele><time>2026-05-03T11:48:56.595Z</time></trkpt><trkpt lat="46.0576417" lon="13.510115"><ele>218.2</ele><time>2026-05-03T11:48:58.593Z</time></trkpt><trkpt lat="46.0575667" lon="13.5100367"><ele>218.6</ele><time>2026-05-03T11:49:00.594Z</time></trkpt><trkpt lat="46.05756" lon="13.5099133"><ele>219.0</ele><time>2026-05-03T11:49:01.595Z</time></trkpt><trkpt lat="46.05754" lon="13.5097633"><ele>219.0</ele><time>2026-05-03T11:49:02.595Z</time></trkpt><trkpt lat="46.05748" lon="13.509595"><ele>219.0</ele><time>2026-05-03T11:49:03.597Z</time></trkpt><trkpt lat="46.0574183" lon="13.50941"><ele>219.0</ele><time>2026-05-03T11:49:04.593Z</time></trkpt><trkpt lat="46.057345" lon="13.509215"><ele>219.0</ele><time>2026-05-03T11:49:05.593Z</time></trkpt><trkpt lat="46.0572683" lon="13.5090117"><ele>214.5</ele><time>2026-05-03T11:49:06.594Z</time></trkpt><trkpt lat="46.0571983" lon="13.5088217"><ele>210.0</ele><time>2026-05-03T11:49:07.595Z</time></trkpt><trkpt lat="46.0571467" lon="13.508645"><ele>205.5</ele><time>2026-05-03T11:49:08.595Z</time></trkpt><trkpt lat="46.05709" lon="13.508495"><ele>201.0</ele><time>2026-05-03T11:49:09.594Z</time></trkpt><trkpt lat="46.0570417" lon="13.5083517"><ele>199.0</ele><time>2026-05-03T11:49:10.594Z</time></trkpt><trkpt lat="46.0570217" lon="13.508195"><ele>197.0</ele><time>2026-05-03T11:49:11.594Z</time></trkpt><trkpt lat="46.0570167" lon="13.5080233"><ele>195.0</ele><time>2026-05-03T11:49:12.595Z</time></trkpt><trkpt lat="46.05703" lon="13.5078417"><ele>193.0</ele><time>2026-05-03T11:49:13.595Z</time></trkpt><trkpt lat="46.0570183" lon="13.507655"><ele>191.5</ele><time>2026-05-03T11:49:14.595Z</time></trkpt><trkpt lat="46.0569933" lon="13.5074717"><ele>190.0</ele><time>2026-05-03T11:49:15.595Z</time></trkpt><trkpt lat="46.0569567" lon="13.507305"><ele>188.5</ele><time>2026-05-03T11:49:16.594Z</time></trkpt><trkpt lat="46.0569317" lon="13.507145"><ele>187.0</ele><time>2026-05-03T11:49:17.595Z</time></trkpt><trkpt lat="46.0569317" lon="13.50698"><ele>185.5</ele><time>2026-05-03T11:49:18.595Z</time></trkpt><trkpt lat="46.0569383" lon="13.5068117"><ele>184.0</ele><time>2026-05-03T11:49:19.593Z</time></trkpt><trkpt lat="46.0569517" lon="13.5066283"><ele>182.5</ele><time>2026-05-03T11:49:20.594Z</time></trkpt><trkpt lat="46.0569883" lon="13.506445"><ele>181.0</ele><time>2026-05-03T11:49:21.594Z</time></trkpt><trkpt lat="46.0570167" lon="13.5062467"><ele>178.0</ele><time>2026-05-03T11:49:22.595Z</time></trkpt><trkpt lat="46.05704" lon="13.506045"><ele>175.0</ele><time>2026-05-03T11:49:23.596Z</time></trkpt><trkpt lat="46.0570717" lon="13.5058433"><ele>172.0</ele><time>2026-05-03T11:49:24.595Z</time></trkpt><trkpt lat="46.0571133" lon="13.5056467"><ele>169.0</ele><time>2026-05-03T11:49:25.594Z</time></trkpt><trkpt lat="46.0571583" lon="13.5054483"><ele>164.75</ele><time>2026-05-03T11:49:26.595Z</time></trkpt><trkpt lat="46.0572183" lon="13.5052567"><ele>160.5</ele><time>2026-05-03T11:49:27.594Z</time></trkpt><trkpt lat="46.05729" lon="13.5050667"><ele>156.25</ele><time>2026-05-03T11:49:28.594Z</time></trkpt><trkpt lat="46.0573467" lon="13.5048733"><ele>152.0</ele><time>2026-05-03T11:49:29.596Z</time></trkpt><trkpt lat="46.0574083" lon="13.5046933"><ele>156.5</ele><time>2026-05-03T11:49:30.594Z</time></trkpt><trkpt lat="46.0574617" lon="13.504515"><ele>161.0</ele><time>2026-05-03T11:49:31.594Z</time></trkpt><trkpt lat="46.0575" lon="13.5043317"><ele>165.5</ele><time>2026-05-03T11:49:32.595Z</time></trkpt><trkpt lat="46.0575167" lon="13.5041417"><ele>170.0</ele><time>2026-05-03T11:49:33.594Z</time></trkpt><trkpt lat="46.0575333" lon="13.503945"><ele>167.5</ele><time>2026-05-03T11:49:34.594Z</time></trkpt><trkpt lat="46.0575617" lon="13.5037467"><ele>165.0</ele><time>2026-05-03T11:49:35.594Z</time></trkpt><trkpt lat="46.0575817" lon="13.5035467"><ele>162.5</ele><time>2026-05-03T11:49:36.595Z</time></trkpt><trkpt lat="46.0576117" lon="13.503355"><ele>160.0</ele><time>2026-05-03T11:49:37.594Z</time></trkpt><trkpt lat="46.0576333" lon="13.5031733"><ele>160.0</ele><time>2026-05-03T11:49:38.595Z</time></trkpt><trkpt lat="46.057675" lon="13.5029983"><ele>160.0</ele><time>2026-05-03T11:49:39.594Z</time></trkpt><trkpt lat="46.057685" lon="13.50283"><ele>160.0</ele><time>2026-05-03T11:49:40.594Z</time></trkpt><trkpt lat="46.0577083" lon="13.502665"><ele>160.0</ele><time>2026-05-03T11:49:41.595Z</time></trkpt><trkpt lat="46.057735" lon="13.502495"><ele>158.25</ele><time>2026-05-03T11:49:42.594Z</time></trkpt><trkpt lat="46.0577467" lon="13.5023217"><ele>156.5</ele><time>2026-05-03T11:49:43.594Z</time></trkpt><trkpt lat="46.05776" lon="13.50214"><ele>154.75</ele><time>2026-05-03T11:49:44.594Z</time></trkpt><trkpt lat="46.0577433" lon="13.50196"><ele>153.0</ele><time>2026-05-03T11:49:45.593Z</time></trkpt><trkpt lat="46.057725" lon="13.5017733"><ele>153.0</ele><time>2026-05-03T11:49:46.593Z</time></trkpt><trkpt lat="46.0576833" lon="13.5015967"><ele>153.0</ele><time>2026-05-03T11:49:47.594Z</time></trkpt><trkpt lat="46.057615" lon="13.5014467"><ele>153.0</ele><time>2026-05-03T11:49:48.594Z</time></trkpt><trkpt lat="46.0575133" lon="13.5013133"><ele>153.0</ele><time>2026-05-03T11:49:49.594Z</time></trkpt><trkpt lat="46.0574067" lon="13.5011817"><ele>148.25</ele><time>2026-05-03T11:49:50.594Z</time></trkpt><trkpt lat="46.0572967" lon="13.5010617"><ele>143.5</ele><time>2026-05-03T11:49:51.594Z</time></trkpt><trkpt lat="46.0571817" lon="13.50094"><ele>138.75</ele><time>2026-05-03T11:49:52.594Z</time></trkpt><trkpt lat="46.0570767" lon="13.5008183"><ele>134.0</ele><time>2026-05-03T11:49:53.594Z</time></trkpt><trkpt lat="46.0569767" lon="13.5006783"><ele>134.0</ele><time>2026-05-03T11:49:54.595Z</time></trkpt><trkpt lat="46.0568767" lon="13.500545"><ele>134.0</ele><time>2026-05-03T11:49:55.596Z</time></trkpt><trkpt lat="46.0567933" lon="13.5003933"><ele>134.0</ele><time>2026-05-03T11:49:56.595Z</time></trkpt><trkpt lat="46.0567017" lon="13.500265"><ele>134.0</ele><time>2026-05-03T11:49:57.595Z</time></trkpt><trkpt lat="46.0566233" lon="13.5001333"><ele>135.6</ele><time>2026-05-03T11:49:58.594Z</time></trkpt><trkpt lat="46.056575" lon="13.4999967"><ele>137.2</ele><time>2026-05-03T11:49:59.595Z</time></trkpt><trkpt lat="46.05654" lon="13.4998717"><ele>138.79999999999998</ele><time>2026-05-03T11:50:00.594Z</time></trkpt><trkpt lat="46.0565" lon="13.4997717"><ele>140.4</ele><time>2026-05-03T11:50:01.595Z</time></trkpt><trkpt lat="46.056465" lon="13.4996267"><ele>142.0</ele><time>2026-05-03T11:50:03.594Z</time></trkpt><trkpt lat="46.056385" lon="13.4996067"><ele>142.0</ele><time>2026-05-03T11:50:05.595Z</time></trkpt><trkpt lat="46.0563517" lon="13.4997183"><ele>142.0</ele><time>2026-05-03T11:50:07.595Z</time></trkpt><trkpt lat="46.0563817" lon="13.499825"><ele>142.0</ele><time>2026-05-03T11:50:08.594Z</time></trkpt><trkpt lat="46.0564183" lon="13.4999217"><ele>142.0</ele><time>2026-05-03T11:50:09.597Z</time></trkpt><trkpt lat="46.0564433" lon="13.5000333"><ele>142.0</ele><time>2026-05-03T11:50:10.595Z</time></trkpt><trkpt lat="46.0564683" lon="13.5001383"><ele>142.0</ele><time>2026-05-03T11:50:11.595Z</time></trkpt><trkpt lat="46.0564817" lon="13.5002383"><ele>142.0</ele><time>2026-05-03T11:50:12.595Z</time></trkpt><trkpt lat="46.0564633" lon="13.5003717"><ele>142.0</ele><time>2026-05-03T11:50:14.595Z</time></trkpt><trkpt lat="46.0563867" lon="13.5003483"><ele>142.0</ele><time>2026-05-03T11:50:17.594Z</time></trkpt><trkpt lat="46.056365" lon="13.500255"><ele>142.0</ele><time>2026-05-03T11:50:18.593Z</time></trkpt><trkpt lat="46.0563433" lon="13.500155"><ele>142.0</ele><time>2026-05-03T11:50:19.594Z</time></trkpt><trkpt lat="46.0563033" lon="13.500055"><ele>142.0</ele><time>2026-05-03T11:50:20.595Z</time></trkpt><trkpt lat="46.056245" lon="13.4999417"><ele>142.0</ele><time>2026-05-03T11:50:21.595Z</time></trkpt><trkpt lat="46.0562067" lon="13.49978"><ele>142.0</ele><time>2026-05-03T11:50:22.594Z</time></trkpt><trkpt lat="46.0561733" lon="13.49961"><ele>142.0</ele><time>2026-05-03T11:50:23.594Z</time></trkpt><trkpt lat="46.05615" lon="13.499435"><ele>142.0</ele><time>2026-05-03T11:50:24.594Z</time></trkpt><trkpt lat="46.0561267" lon="13.499265"><ele>140.0</ele><time>2026-05-03T11:50:25.594Z</time></trkpt><trkpt lat="46.0561067" lon="13.4990983"><ele>138.0</ele><time>2026-05-03T11:50:26.596Z</time></trkpt><trkpt lat="46.0560867" lon="13.49894"><ele>136.0</ele><time>2026-05-03T11:50:27.594Z</time></trkpt><trkpt lat="46.0560567" lon="13.4987967"><ele>134.0</ele><time>2026-05-03T11:50:28.595Z</time></trkpt><trkpt lat="46.05601" lon="13.498665"><ele>132.0</ele><time>2026-05-03T11:50:29.595Z</time></trkpt><trkpt lat="46.0559683" lon="13.4985383"><ele>129.83333333333334</ele><time>2026-05-03T11:50:30.594Z</time></trkpt><trkpt lat="46.05594" lon="13.4984267"><ele>127.66666666666666</ele><time>2026-05-03T11:50:31.595Z</time></trkpt><trkpt lat="46.0559033" lon="13.4983217"><ele>125.5</ele><time>2026-05-03T11:50:32.595Z</time></trkpt><trkpt lat="46.0558517" lon="13.4982117"><ele>123.33333333333333</ele><time>2026-05-03T11:50:33.594Z</time></trkpt><trkpt lat="46.05581" lon="13.4981167"><ele>121.16666666666666</ele><time>2026-05-03T11:50:34.594Z</time></trkpt><trkpt lat="46.0557533" lon="13.4979833"><ele>119.0</ele><time>2026-05-03T11:50:36.593Z</time></trkpt><trkpt lat="46.0557783" lon="13.497885"><ele>117.83333333333333</ele><time>2026-05-03T11:50:40.593Z</time></trkpt><trkpt lat="46.0557233" lon="13.4978267"><ele>116.66666666666666</ele><time>2026-05-03T11:50:44.594Z</time></trkpt><trkpt lat="46.0556783" lon="13.4979083"><ele>115.5</ele><time>2026-05-03T11:50:48.595Z</time></trkpt><trkpt lat="46.0557533" lon="13.4979367"><ele>114.33333333333334</ele><time>2026-05-03T11:50:51.597Z</time></trkpt><trkpt lat="46.0558567" lon="13.4978817"><ele>113.16666666666667</ele><time>2026-05-03T11:50:53.594Z</time></trkpt><trkpt lat="46.0559183" lon="13.49784"><ele>112.0</ele><time>2026-05-03T11:50:54.593Z</time></trkpt><trkpt lat="46.05599" lon="13.4978117"><ele>111.0</ele><time>2026-05-03T11:50:55.593Z</time></trkpt><trkpt lat="46.0560733" lon="13.497765"><ele>109.99999999999999</ele><time>2026-05-03T11:50:56.594Z</time></trkpt><trkpt lat="46.056165" lon="13.49771"><ele>108.99999999999999</ele><time>2026-05-03T11:50:57.593Z</time></trkpt><trkpt lat="46.056255" lon="13.4976633"><ele>108.0</ele><time>2026-05-03T11:50:58.595Z</time></trkpt><trkpt lat="46.0563417" lon="13.4976167"><ele>107.0</ele><time>2026-05-03T11:50:59.593Z</time></trkpt><trkpt lat="46.0564333" lon="13.49759"><ele>106.99999999999999</ele><time>2026-05-03T11:51:00.594Z</time></trkpt><trkpt lat="46.056525" lon="13.4975683"><ele>107.0</ele><time>2026-05-03T11:51:01.593Z</time></trkpt><trkpt lat="46.0566133" lon="13.4975517"><ele>107.0</ele><time>2026-05-03T11:51:02.594Z</time></trkpt><trkpt lat="46.0567033" lon="13.4975417"><ele>107.0</ele><time>2026-05-03T11:51:03.593Z</time></trkpt><trkpt lat="46.0567917" lon="13.4975417"><ele>106.99999999999999</ele><time>2026-05-03T11:51:04.598Z</time></trkpt><trkpt lat="46.0568783" lon="13.49754"><ele>107.0</ele><time>2026-05-03T11:51:05.593Z</time></trkpt><trkpt lat="46.0569633" lon="13.4975383"><ele>108.19999999999999</ele><time>2026-05-03T11:51:06.593Z</time></trkpt><trkpt lat="46.0570533" lon="13.4975433"><ele>109.39999999999999</ele><time>2026-05-03T11:51:07.593Z</time></trkpt><trkpt lat="46.057145" lon="13.497565"><ele>110.60000000000001</ele><time>2026-05-03T11:51:08.595Z</time></trkpt><trkpt lat="46.057225" lon="13.4976217"><ele>111.80000000000001</ele><time>2026-05-03T11:51:09.594Z</time></trkpt><trkpt lat="46.05731" lon="13.497685"><ele>113.0</ele><time>2026-05-03T11:51:10.596Z</time></trkpt><trkpt lat="46.057395" lon="13.49775"><ele>112.0</ele><time>2026-05-03T11:51:11.594Z</time></trkpt><trkpt lat="46.0574867" lon="13.4977983"><ele>111.00000000000001</ele><time>2026-05-03T11:51:12.599Z</time></trkpt><trkpt lat="46.057585" lon="13.4978583"><ele>110.00000000000001</ele><time>2026-05-03T11:51:13.593Z</time></trkpt><trkpt lat="46.0576967" lon="13.4978867"><ele>109.0</ele><time>2026-05-03T11:51:14.595Z</time></trkpt><trkpt lat="46.0578083" lon="13.49789"><ele>108.0</ele><time>2026-05-03T11:51:15.594Z</time></trkpt><trkpt lat="46.0579167" lon="13.497925"><ele>111.0</ele><time>2026-05-03T11:51:16.595Z</time></trkpt><trkpt lat="46.05802" lon="13.49797"><ele>114.00000000000001</ele><time>2026-05-03T11:51:17.594Z</time></trkpt><trkpt lat="46.0581233" lon="13.498005"><ele>117.00000000000001</ele><time>2026-05-03T11:51:18.593Z</time></trkpt><trkpt lat="46.0582183" lon="13.498065"><ele>120.0</ele><time>2026-05-03T11:51:19.594Z</time></trkpt><trkpt lat="46.0583117" lon="13.4981317"><ele>123.0</ele><time>2026-05-03T11:51:20.594Z</time></trkpt><trkpt lat="46.0584017" lon="13.4981883"><ele>123.0</ele><time>2026-05-03T11:51:21.593Z</time></trkpt><trkpt lat="46.0584833" lon="13.4982467"><ele>123.00000000000001</ele><time>2026-05-03T11:51:22.593Z</time></trkpt><trkpt lat="46.0585517" lon="13.4983217"><ele>123.00000000000001</ele><time>2026-05-03T11:51:23.594Z</time></trkpt><trkpt lat="46.0586233" lon="13.498405"><ele>123.0</ele><time>2026-05-03T11:51:24.596Z</time></trkpt><trkpt lat="46.05868" lon="13.4985083"><ele>123.0</ele><time>2026-05-03T11:51:25.594Z</time></trkpt><trkpt lat="46.05872" lon="13.4986333"><ele>130.60000000000002</ele><time>2026-05-03T11:51:26.594Z</time></trkpt><trkpt lat="46.0587517" lon="13.498765"><ele>138.20000000000002</ele><time>2026-05-03T11:51:27.595Z</time></trkpt><trkpt lat="46.05879" lon="13.4989017"><ele>145.8</ele><time>2026-05-03T11:51:28.593Z</time></trkpt><trkpt lat="46.0588467" lon="13.4990167"><ele>153.4</ele><time>2026-05-03T11:51:29.594Z</time></trkpt><trkpt lat="46.0588983" lon="13.4991467"><ele>161.0</ele><time>2026-05-03T11:51:30.594Z</time></trkpt><trkpt lat="46.0589367" lon="13.4992933"><ele>161.0</ele><time>2026-05-03T11:51:31.593Z</time></trkpt><trkpt lat="46.0589667" lon="13.4994483"><ele>161.0</ele><time>2026-05-03T11:51:32.594Z</time></trkpt><trkpt lat="46.0589967" lon="13.4996083"><ele>161.0</ele><time>2026-05-03T11:51:33.594Z</time></trkpt><trkpt lat="46.05903" lon="13.4997733"><ele>161.0</ele><time>2026-05-03T11:51:34.593Z</time></trkpt><trkpt lat="46.05907" lon="13.49994"><ele>166.0</ele><time>2026-05-03T11:51:35.595Z</time></trkpt><trkpt lat="46.0590933" lon="13.50011"><ele>171.0</ele><time>2026-05-03T11:51:36.594Z</time></trkpt><trkpt lat="46.0591033" lon="13.500285"><ele>176.0</ele><time>2026-05-03T11:51:37.594Z</time></trkpt><trkpt lat="46.0591233" lon="13.5004633"><ele>181.0</ele><time>2026-05-03T11:51:38.596Z</time></trkpt><trkpt lat="46.0591433" lon="13.5006317"><ele>175.75</ele><time>2026-05-03T11:51:39.594Z</time></trkpt><trkpt lat="46.0591633" lon="13.500795"><ele>170.5</ele><time>2026-05-03T11:51:40.593Z</time></trkpt><trkpt lat="46.0591967" lon="13.5009567"><ele>165.25</ele><time>2026-05-03T11:51:41.595Z</time></trkpt><trkpt lat="46.0592483" lon="13.50111"><ele>160.0</ele><time>2026-05-03T11:51:42.593Z</time></trkpt><trkpt lat="46.0593" lon="13.5012617"><ele>160.0</ele><time>2026-05-03T11:51:43.593Z</time></trkpt><trkpt lat="46.0593417" lon="13.5014183"><ele>160.0</ele><time>2026-05-03T11:51:44.594Z</time></trkpt><trkpt lat="46.0594083" lon="13.50155"><ele>160.0</ele><time>2026-05-03T11:51:45.593Z</time></trkpt><trkpt lat="46.05948" lon="13.5016717"><ele>160.0</ele><time>2026-05-03T11:51:46.595Z</time></trkpt><trkpt lat="46.05957" lon="13.5017733"><ele>160.0</ele><time>2026-05-03T11:51:47.594Z</time></trkpt><trkpt lat="46.0596817" lon="13.5018483"><ele>160.0</ele><time>2026-05-03T11:51:48.594Z</time></trkpt><trkpt lat="46.0598117" lon="13.5019017"><ele>160.0</ele><time>2026-05-03T11:51:49.594Z</time></trkpt><trkpt lat="46.0599333" lon="13.50196"><ele>160.0</ele><time>2026-05-03T11:51:50.594Z</time></trkpt><trkpt lat="46.06005" lon="13.5020283"><ele>155.25</ele><time>2026-05-03T11:51:51.593Z</time></trkpt><trkpt lat="46.0601667" lon="13.502105"><ele>150.5</ele><time>2026-05-03T11:51:52.598Z</time></trkpt><trkpt lat="46.0602867" lon="13.5021833"><ele>145.75</ele><time>2026-05-03T11:51:53.594Z</time></trkpt><trkpt lat="46.0604067" lon="13.5022633"><ele>141.0</ele><time>2026-05-03T11:51:54.594Z</time></trkpt><trkpt lat="46.0605283" lon="13.5023483"><ele>141.0</ele><time>2026-05-03T11:51:55.593Z</time></trkpt><trkpt lat="46.060655" lon="13.5024333"><ele>141.0</ele><time>2026-05-03T11:51:56.595Z</time></trkpt><trkpt lat="46.0607783" lon="13.5025133"><ele>141.0</ele><time>2026-05-03T11:51:57.596Z</time></trkpt><trkpt lat="46.0609083" lon="13.50259"><ele>141.0</ele><time>2026-05-03T11:51:58.597Z</time></trkpt><trkpt lat="46.06103" lon="13.5026767"><ele>142.5</ele><time>2026-05-03T11:51:59.597Z</time></trkpt><trkpt lat="46.061145" lon="13.5027867"><ele>144.0</ele><time>2026-05-03T11:52:00.595Z</time></trkpt><trkpt lat="46.06126" lon="13.5028933"><ele>145.5</ele><time>2026-05-03T11:52:01.597Z</time></trkpt><trkpt lat="46.0613633" lon="13.5030033"><ele>147.0</ele><time>2026-05-03T11:52:02.598Z</time></trkpt><trkpt lat="46.06146" lon="13.5031183"><ele>147.0</ele><time>2026-05-03T11:52:03.594Z</time></trkpt><trkpt lat="46.0615317" lon="13.503245"><ele>147.0</ele><time>2026-05-03T11:52:04.594Z</time></trkpt><trkpt lat="46.061595" lon="13.5033867"><ele>147.0</ele><time>2026-05-03T11:52:05.595Z</time></trkpt><trkpt lat="46.0616467" lon="13.5035383"><ele>147.0</ele><time>2026-05-03T11:52:06.594Z</time></trkpt><trkpt lat="46.0616767" lon="13.5037033"><ele>143.0</ele><time>2026-05-03T11:52:07.595Z</time></trkpt><trkpt lat="46.0616983" lon="13.50387"><ele>139.0</ele><time>2026-05-03T11:52:08.596Z</time></trkpt><trkpt lat="46.061725" lon="13.50403"><ele>135.0</ele><time>2026-05-03T11:52:09.594Z</time></trkpt><trkpt lat="46.0617467" lon="13.5041783"><ele>131.0</ele><time>2026-05-03T11:52:10.595Z</time></trkpt><trkpt lat="46.0617317" lon="13.5043217"><ele>127.0</ele><time>2026-05-03T11:52:11.594Z</time></trkpt><trkpt lat="46.0616933" lon="13.5044567"><ele>125.39999999999999</ele><time>2026-05-03T11:52:12.595Z</time></trkpt><trkpt lat="46.06164" lon="13.504595"><ele>123.79999999999998</ele><time>2026-05-03T11:52:13.594Z</time></trkpt><trkpt lat="46.0615783" lon="13.5047317"><ele>122.2</ele><time>2026-05-03T11:52:14.595Z</time></trkpt><trkpt lat="46.0615067" lon="13.5048517"><ele>120.6</ele><time>2026-05-03T11:52:15.594Z</time></trkpt><trkpt lat="46.0614317" lon="13.5049783"><ele>119.0</ele><time>2026-05-03T11:52:16.594Z</time></trkpt><trkpt lat="46.06136" lon="13.5051"><ele>121.66666666666666</ele><time>2026-05-03T11:52:17.595Z</time></trkpt><trkpt lat="46.06129" lon="13.505195"><ele>124.33333333333333</ele><time>2026-05-03T11:52:18.594Z</time></trkpt><trkpt lat="46.0612333" lon="13.5052967"><ele>127.0</ele><time>2026-05-03T11:52:19.596Z</time></trkpt><trkpt lat="46.0611817" lon="13.5053767"><ele>129.66666666666666</ele><time>2026-05-03T11:52:20.596Z</time></trkpt><trkpt lat="46.0611267" lon="13.50545"><ele>132.33333333333334</ele><time>2026-05-03T11:52:21.594Z</time></trkpt><trkpt lat="46.0610767" lon="13.5055217"><ele>135.0</ele><time>2026-05-03T11:52:22.594Z</time></trkpt><trkpt lat="46.0610183" lon="13.5055967"><ele>135.0</ele><time>2026-05-03T11:52:23.597Z</time></trkpt><trkpt lat="46.0609517" lon="13.5056633"><ele>135.0</ele><time>2026-05-03T11:52:24.594Z</time></trkpt><trkpt lat="46.06088" lon="13.50574"><ele>135.0</ele><time>2026-05-03T11:52:25.595Z</time></trkpt><trkpt lat="46.0607933" lon="13.5058367"><ele>135.0</ele><time>2026-05-03T11:52:26.595Z</time></trkpt><trkpt lat="46.0607117" lon="13.505905"><ele>135.0</ele><time>2026-05-03T11:52:27.596Z</time></trkpt><trkpt lat="46.06066" lon="13.506015"><ele>142.6</ele><time>2026-05-03T11:52:28.594Z</time></trkpt><trkpt lat="46.0606133" lon="13.506135"><ele>150.2</ele><time>2026-05-03T11:52:29.594Z</time></trkpt><trkpt lat="46.0605567" lon="13.506245"><ele>157.8</ele><time>2026-05-03T11:52:30.594Z</time></trkpt><trkpt lat="46.0605" lon="13.5063583"><ele>165.4</ele><time>2026-05-03T11:52:31.595Z</time></trkpt><trkpt lat="46.0604433" lon="13.50647"><ele>173.0</ele><time>2026-05-03T11:52:32.596Z</time></trkpt><trkpt lat="46.0603933" lon="13.5065833"><ele>173.0</ele><time>2026-05-03T11:52:33.594Z</time></trkpt><trkpt lat="46.0603483" lon="13.50669"><ele>173.0</ele><time>2026-05-03T11:52:34.595Z</time></trkpt><trkpt lat="46.0603167" lon="13.5068"><ele>173.0</ele><time>2026-05-03T11:52:35.595Z</time></trkpt><trkpt lat="46.0602933" lon="13.50692"><ele>173.0</ele><time>2026-05-03T11:52:36.595Z</time></trkpt><trkpt lat="46.06028" lon="13.5070333"><ele>173.0</ele><time>2026-05-03T11:52:37.595Z</time></trkpt><trkpt lat="46.060275" lon="13.5071633"><ele>173.0</ele><time>2026-05-03T11:52:38.596Z</time></trkpt><trkpt lat="46.0602767" lon="13.5073167"><ele>173.75</ele><time>2026-05-03T11:52:39.596Z</time></trkpt><trkpt lat="46.0602867" lon="13.50748"><ele>174.5</ele><time>2026-05-03T11:52:40.595Z</time></trkpt><trkpt lat="46.0603133" lon="13.5076533"><ele>175.25</ele><time>2026-05-03T11:52:41.596Z</time></trkpt><trkpt lat="46.0603483" lon="13.5078217"><ele>176.0</ele><time>2026-05-03T11:52:42.595Z</time></trkpt><trkpt lat="46.06039" lon="13.5079867"><ele>176.0</ele><time>2026-05-03T11:52:43.596Z</time></trkpt><trkpt lat="46.0604433" lon="13.5081483"><ele>176.0</ele><time>2026-05-03T11:52:44.596Z</time></trkpt><trkpt lat="46.0604933" lon="13.5083083"><ele>176.0</ele><time>2026-05-03T11:52:45.595Z</time></trkpt><trkpt lat="46.0605417" lon="13.5084667"><ele>176.0</ele><time>2026-05-03T11:52:46.595Z</time></trkpt><trkpt lat="46.06059" lon="13.50863"><ele>179.0</ele><time>2026-05-03T11:52:47.595Z</time></trkpt><trkpt lat="46.06063" lon="13.5088067"><ele>182.0</ele><time>2026-05-03T11:52:48.595Z</time></trkpt><trkpt lat="46.06066" lon="13.5089933"><ele>185.0</ele><time>2026-05-03T11:52:49.595Z</time></trkpt><trkpt lat="46.0606967" lon="13.5091733"><ele>188.0</ele><time>2026-05-03T11:52:50.596Z</time></trkpt><trkpt lat="46.0607367" lon="13.5093517"><ele>188.0</ele><time>2026-05-03T11:52:51.597Z</time></trkpt><trkpt lat="46.0607817" lon="13.5095267"><ele>188.0</ele><time>2026-05-03T11:52:52.596Z</time></trkpt><trkpt lat="46.0608367" lon="13.5096933"><ele>188.0</ele><time>2026-05-03T11:52:53.596Z</time></trkpt><trkpt lat="46.0608967" lon="13.509855"><ele>188.0</ele><time>2026-05-03T11:52:54.595Z</time></trkpt><trkpt lat="46.06097" lon="13.5100083"><ele>182.5</ele><time>2026-05-03T11:52:55.594Z</time></trkpt><trkpt lat="46.0610483" lon="13.510155"><ele>177.0</ele><time>2026-05-03T11:52:56.595Z</time></trkpt><trkpt lat="46.0611417" lon="13.5102883"><ele>171.5</ele><time>2026-05-03T11:52:57.594Z</time></trkpt><trkpt lat="46.0612317" lon="13.5104267"><ele>166.0</ele><time>2026-05-03T11:52:58.595Z</time></trkpt><trkpt lat="46.06134" lon="13.510555"><ele>166.0</ele><time>2026-05-03T11:52:59.595Z</time></trkpt><trkpt lat="46.0614433" lon="13.5106867"><ele>166.0</ele><time>2026-05-03T11:53:00.594Z</time></trkpt><trkpt lat="46.0615433" lon="13.5108233"><ele>166.0</ele><time>2026-05-03T11:53:01.594Z</time></trkpt><trkpt lat="46.0616333" lon="13.510965"><ele>166.0</ele><time>2026-05-03T11:53:02.595Z</time></trkpt><trkpt lat="46.0617133" lon="13.5111117"><ele>160.5</ele><time>2026-05-03T11:53:03.597Z</time></trkpt><trkpt lat="46.0618033" lon="13.511255"><ele>155.0</ele><time>2026-05-03T11:53:04.594Z</time></trkpt><trkpt lat="46.061885" lon="13.511405"><ele>149.5</ele><time>2026-05-03T11:53:05.596Z</time></trkpt><trkpt lat="46.0619617" lon="13.5115517"><ele>144.0</ele><time>2026-05-03T11:53:06.596Z</time></trkpt><trkpt lat="46.0620217" lon="13.5116867"><ele>144.0</ele><time>2026-05-03T11:53:07.595Z</time></trkpt><trkpt lat="46.062065" lon="13.5118117"><ele>144.0</ele><time>2026-05-03T11:53:08.596Z</time></trkpt><trkpt lat="46.06209" lon="13.511935"><ele>144.0</ele><time>2026-05-03T11:53:09.595Z</time></trkpt><trkpt lat="46.0621117" lon="13.5120533"><ele>144.0</ele><time>2026-05-03T11:53:10.595Z</time></trkpt><trkpt lat="46.0621167" lon="13.5121783"><ele>144.0</ele><time>2026-05-03T11:53:11.595Z</time></trkpt><trkpt lat="46.0620967" lon="13.5123067"><ele>144.0</ele><time>2026-05-03T11:53:12.595Z</time></trkpt><trkpt lat="46.0620433" lon="13.51245"><ele>145.0</ele><time>2026-05-03T11:53:13.594Z</time></trkpt><trkpt lat="46.0619867" lon="13.5126033"><ele>146.0</ele><time>2026-05-03T11:53:14.596Z</time></trkpt><trkpt lat="46.061925" lon="13.5127583"><ele>147.0</ele><time>2026-05-03T11:53:15.593Z</time></trkpt><trkpt lat="46.061865" lon="13.5129183"><ele>148.0</ele><time>2026-05-03T11:53:16.594Z</time></trkpt><trkpt lat="46.0618083" lon="13.5130867"><ele>145.5</ele><time>2026-05-03T11:53:17.597Z</time></trkpt><trkpt lat="46.0617533" lon="13.5132633"><ele>143.0</ele><time>2026-05-03T11:53:18.594Z</time></trkpt><trkpt lat="46.0617033" lon="13.5134467"><ele>140.5</ele><time>2026-05-03T11:53:19.594Z</time></trkpt><trkpt lat="46.06165" lon="13.5136217"><ele>138.0</ele><time>2026-05-03T11:53:20.594Z</time></trkpt><trkpt lat="46.06161" lon="13.5137833"><ele>136.8</ele><time>2026-05-03T11:53:21.595Z</time></trkpt><trkpt lat="46.061585" lon="13.51394"><ele>135.60000000000002</ele><time>2026-05-03T11:53:22.595Z</time></trkpt><trkpt lat="46.0615717" lon="13.51409"><ele>134.39999999999998</ele><time>2026-05-03T11:53:23.597Z</time></trkpt><trkpt lat="46.0615683" lon="13.5142383"><ele>133.2</ele><time>2026-05-03T11:53:24.594Z</time></trkpt><trkpt lat="46.0615883" lon="13.5143833"><ele>132.0</ele><time>2026-05-03T11:53:25.593Z</time></trkpt><trkpt lat="46.0616317" lon="13.5145467"><ele>133.75</ele><time>2026-05-03T11:53:26.595Z</time></trkpt><trkpt lat="46.0616783" lon="13.514725"><ele>135.5</ele><time>2026-05-03T11:53:27.593Z</time></trkpt><trkpt lat="46.06172" lon="13.5149033"><ele>137.25</ele><time>2026-05-03T11:53:28.594Z</time></trkpt><trkpt lat="46.061755" lon="13.5150717"><ele>139.0</ele><time>2026-05-03T11:53:29.595Z</time></trkpt><trkpt lat="46.0618" lon="13.5152283"><ele>139.0</ele><time>2026-05-03T11:53:30.593Z</time></trkpt><trkpt lat="46.0618517" lon="13.5153967"><ele>139.0</ele><time>2026-05-03T11:53:31.595Z</time></trkpt><trkpt lat="46.06191" lon="13.5155667"><ele>139.0</ele><time>2026-05-03T11:53:32.595Z</time></trkpt><trkpt lat="46.0619533" lon="13.5157417"><ele>139.0</ele><time>2026-05-03T11:53:33.595Z</time></trkpt><trkpt lat="46.061995" lon="13.5159117"><ele>142.75</ele><time>2026-05-03T11:53:34.593Z</time></trkpt><trkpt lat="46.06204" lon="13.5160833"><ele>146.5</ele><time>2026-05-03T11:53:35.594Z</time></trkpt><trkpt lat="46.0620883" lon="13.5162617"><ele>150.25</ele><time>2026-05-03T11:53:36.594Z</time></trkpt><trkpt lat="46.0621517" lon="13.51645"><ele>154.0</ele><time>2026-05-03T11:53:37.594Z</time></trkpt><trkpt lat="46.0621917" lon="13.516635"><ele>157.75</ele><time>2026-05-03T11:53:38.594Z</time></trkpt><trkpt lat="46.0622367" lon="13.5168133"><ele>161.5</ele><time>2026-05-03T11:53:39.593Z</time></trkpt><trkpt lat="46.0622717" lon="13.5169883"><ele>165.25</ele><time>2026-05-03T11:53:40.595Z</time></trkpt><trkpt lat="46.0623017" lon="13.51717"><ele>169.0</ele><time>2026-05-03T11:53:41.594Z</time></trkpt><trkpt lat="46.06233" lon="13.5173583"><ele>172.0</ele><time>2026-05-03T11:53:42.594Z</time></trkpt><trkpt lat="46.0623567" lon="13.5175483"><ele>175.0</ele><time>2026-05-03T11:53:43.595Z</time></trkpt><trkpt lat="46.0623933" lon="13.5177383"><ele>178.0</ele><time>2026-05-03T11:53:44.595Z</time></trkpt><trkpt lat="46.0624317" lon="13.5179383"><ele>181.0</ele><time>2026-05-03T11:53:45.593Z</time></trkpt><trkpt lat="46.0624733" lon="13.5181417"><ele>174.33333333333334</ele><time>2026-05-03T11:53:46.595Z</time></trkpt><trkpt lat="46.06252" lon="13.5183533"><ele>167.66666666666666</ele><time>2026-05-03T11:53:47.595Z</time></trkpt><trkpt lat="46.062575" lon="13.5185583"><ele>161.0</ele><time>2026-05-03T11:53:48.594Z</time></trkpt><trkpt lat="46.0626283" lon="13.518765"><ele>161.0</ele><time>2026-05-03T11:53:49.595Z</time></trkpt><trkpt lat="46.0627" lon="13.5189583"><ele>161.0</ele><time>2026-05-03T11:53:50.596Z</time></trkpt><trkpt lat="46.0627583" lon="13.51914"><ele>161.0</ele><time>2026-05-03T11:53:51.594Z</time></trkpt><trkpt lat="46.06281" lon="13.5193117"><ele>161.0</ele><time>2026-05-03T11:53:52.595Z</time></trkpt><trkpt lat="46.0628733" lon="13.5194683"><ele>166.25</ele><time>2026-05-03T11:53:53.595Z</time></trkpt><trkpt lat="46.0629333" lon="13.51963"><ele>171.5</ele><time>2026-05-03T11:53:54.595Z</time></trkpt><trkpt lat="46.0629883" lon="13.5197917"><ele>176.75</ele><time>2026-05-03T11:53:55.595Z</time></trkpt><trkpt lat="46.0630667" lon="13.5199383"><ele>182.0</ele><time>2026-05-03T11:53:56.596Z</time></trkpt><trkpt lat="46.0631383" lon="13.5200817"><ele>182.0</ele><time>2026-05-03T11:53:57.594Z</time></trkpt><trkpt lat="46.0632167" lon="13.5202083"><ele>182.0</ele><time>2026-05-03T11:53:58.593Z</time></trkpt><trkpt lat="46.063305" lon="13.5203267"><ele>182.0</ele><time>2026-05-03T11:53:59.595Z</time></trkpt><trkpt lat="46.0634033" lon="13.5204367"><ele>182.0</ele><time>2026-05-03T11:54:00.594Z</time></trkpt><trkpt lat="46.0635083" lon="13.5205333"><ele>177.25</ele><time>2026-05-03T11:54:01.595Z</time></trkpt><trkpt lat="46.063625" lon="13.52062"><ele>172.5</ele><time>2026-05-03T11:54:02.594Z</time></trkpt><trkpt lat="46.0637317" lon="13.52071"><ele>167.75</ele><time>2026-05-03T11:54:03.594Z</time></trkpt><trkpt lat="46.06384" lon="13.520795"><ele>163.0</ele><time>2026-05-03T11:54:04.594Z</time></trkpt><trkpt lat="46.0639517" lon="13.5208817"><ele>163.0</ele><time>2026-05-03T11:54:05.594Z</time></trkpt><trkpt lat="46.0640483" lon="13.52098"><ele>163.0</ele><time>2026-05-03T11:54:06.595Z</time></trkpt><trkpt lat="46.06414" lon="13.5210867"><ele>163.0</ele><time>2026-05-03T11:54:07.594Z</time></trkpt><trkpt lat="46.0642333" lon="13.5211967"><ele>163.0</ele><time>2026-05-03T11:54:08.595Z</time></trkpt><trkpt lat="46.06432" lon="13.5213217"><ele>162.0</ele><time>2026-05-03T11:54:09.595Z</time></trkpt><trkpt lat="46.0644" lon="13.5214517"><ele>161.0</ele><time>2026-05-03T11:54:10.595Z</time></trkpt><trkpt lat="46.0644867" lon="13.52158"><ele>160.0</ele><time>2026-05-03T11:54:11.595Z</time></trkpt><trkpt lat="46.06459" lon="13.5217067"><ele>159.0</ele><time>2026-05-03T11:54:12.596Z</time></trkpt><trkpt lat="46.0646867" lon="13.52184"><ele>159.0</ele><time>2026-05-03T11:54:13.595Z</time></trkpt><trkpt lat="46.0647817" lon="13.521975"><ele>159.0</ele><time>2026-05-03T11:54:14.595Z</time></trkpt><trkpt lat="46.06487" lon="13.5221117"><ele>159.0</ele><time>2026-05-03T11:54:15.594Z</time></trkpt><trkpt lat="46.064945" lon="13.5222633"><ele>159.0</ele><time>2026-05-03T11:54:16.596Z</time></trkpt><trkpt lat="46.0649983" lon="13.52243"><ele>158.5</ele><time>2026-05-03T11:54:17.596Z</time></trkpt><trkpt lat="46.0650533" lon="13.5226017"><ele>158.0</ele><time>2026-05-03T11:54:18.593Z</time></trkpt><trkpt lat="46.0651067" lon="13.522785"><ele>157.5</ele><time>2026-05-03T11:54:19.596Z</time></trkpt><trkpt lat="46.065155" lon="13.5229733"><ele>157.0</ele><time>2026-05-03T11:54:20.597Z</time></trkpt><trkpt lat="46.0651967" lon="13.523165"><ele>157.0</ele><time>2026-05-03T11:54:21.594Z</time></trkpt><trkpt lat="46.06524" lon="13.523355"><ele>157.0</ele><time>2026-05-03T11:54:22.595Z</time></trkpt><trkpt lat="46.06532" lon="13.5235183"><ele>157.0</ele><time>2026-05-03T11:54:23.594Z</time></trkpt><trkpt lat="46.0653683" lon="13.5236917"><ele>157.0</ele><time>2026-05-03T11:54:24.594Z</time></trkpt><trkpt lat="46.065445" lon="13.5238433"><ele>158.25</ele><time>2026-05-03T11:54:25.594Z</time></trkpt><trkpt lat="46.065525" lon="13.5239917"><ele>159.5</ele><time>2026-05-03T11:54:26.595Z</time></trkpt><trkpt lat="46.0655967" lon="13.5241433"><ele>160.75</ele><time>2026-05-03T11:54:27.594Z</time></trkpt><trkpt lat="46.0656733" lon="13.5242917"><ele>162.0</ele><time>2026-05-03T11:54:28.594Z</time></trkpt><trkpt lat="46.0657567" lon="13.52443"><ele>159.5</ele><time>2026-05-03T11:54:29.595Z</time></trkpt><trkpt lat="46.0658533" lon="13.52455"><ele>157.0</ele><time>2026-05-03T11:54:30.594Z</time></trkpt><trkpt lat="46.065945" lon="13.52467"><ele>154.5</ele><time>2026-05-03T11:54:31.595Z</time></trkpt><trkpt lat="46.0660267" lon="13.5248"><ele>152.0</ele><time>2026-05-03T11:54:32.596Z</time></trkpt><trkpt lat="46.06611" lon="13.5249383"><ele>152.0</ele><time>2026-05-03T11:54:33.593Z</time></trkpt><trkpt lat="46.06617" lon="13.5251117"><ele>152.0</ele><time>2026-05-03T11:54:34.597Z</time></trkpt><trkpt lat="46.06624" lon="13.52529"><ele>152.0</ele><time>2026-05-03T11:54:35.594Z</time></trkpt><trkpt lat="46.066315" lon="13.52546"><ele>152.0</ele><time>2026-05-03T11:54:36.595Z</time></trkpt><trkpt lat="46.0663767" lon="13.5256317"><ele>158.5</ele><time>2026-05-03T11:54:37.595Z</time></trkpt><trkpt lat="46.0664433" lon="13.5257933"><ele>165.0</ele><time>2026-05-03T11:54:38.594Z</time></trkpt><trkpt lat="46.0665083" lon="13.5259483"><ele>171.5</ele><time>2026-05-03T11:54:39.594Z</time></trkpt><trkpt lat="46.0665583" lon="13.526105"><ele>178.0</ele><time>2026-05-03T11:54:40.594Z</time></trkpt><trkpt lat="46.0665817" lon="13.5262717"><ele>180.0</ele><time>2026-05-03T11:54:41.595Z</time></trkpt><trkpt lat="46.0665967" lon="13.5264433"><ele>182.0</ele><time>2026-05-03T11:54:42.595Z</time></trkpt><trkpt lat="46.0666017" lon="13.5266217"><ele>184.0</ele><time>2026-05-03T11:54:43.594Z</time></trkpt><trkpt lat="46.0665983" lon="13.52681"><ele>186.0</ele><time>2026-05-03T11:54:44.595Z</time></trkpt><trkpt lat="46.06657" lon="13.5270033"><ele>187.75</ele><time>2026-05-03T11:54:45.594Z</time></trkpt><trkpt lat="46.06656" lon="13.5271867"><ele>189.5</ele><time>2026-05-03T11:54:46.595Z</time></trkpt><trkpt lat="46.0665183" lon="13.52737"><ele>191.25</ele><time>2026-05-03T11:54:47.595Z</time></trkpt><trkpt lat="46.06647" lon="13.5275433"><ele>193.0</ele><time>2026-05-03T11:54:48.594Z</time></trkpt><trkpt lat="46.0664217" lon="13.5277133"><ele>193.0</ele><time>2026-05-03T11:54:49.594Z</time></trkpt><trkpt lat="46.066375" lon="13.52789"><ele>193.0</ele><time>2026-05-03T11:54:50.594Z</time></trkpt><trkpt lat="46.06633" lon="13.5280667"><ele>193.0</ele><time>2026-05-03T11:54:51.594Z</time></trkpt><trkpt lat="46.0662917" lon="13.5282367"><ele>193.0</ele><time>2026-05-03T11:54:52.595Z</time></trkpt><trkpt lat="46.066265" lon="13.5284233"><ele>192.75</ele><time>2026-05-03T11:54:53.596Z</time></trkpt><trkpt lat="46.0662333" lon="13.5286167"><ele>192.5</ele><time>2026-05-03T11:54:54.595Z</time></trkpt><trkpt lat="46.0662167" lon="13.528805"><ele>192.25</ele><time>2026-05-03T11:54:55.596Z</time></trkpt><trkpt lat="46.066205" lon="13.5289817"><ele>192.0</ele><time>2026-05-03T11:54:56.597Z</time></trkpt><trkpt lat="46.0662017" lon="13.5291633"><ele>192.0</ele><time>2026-05-03T11:54:57.594Z</time></trkpt><trkpt lat="46.066205" lon="13.5293333"><ele>192.0</ele><time>2026-05-03T11:54:58.596Z</time></trkpt><trkpt lat="46.0662167" lon="13.5294833"><ele>192.0</ele><time>2026-05-03T11:54:59.594Z</time></trkpt><trkpt lat="46.0662283" lon="13.5296167"><ele>192.0</ele><time>2026-05-03T11:55:00.597Z</time></trkpt><trkpt lat="46.0662433" lon="13.52974"><ele>192.0</ele><time>2026-05-03T11:55:01.594Z</time></trkpt><trkpt lat="46.0662683" lon="13.52986"><ele>193.8</ele><time>2026-05-03T11:55:02.597Z</time></trkpt><trkpt lat="46.0662967" lon="13.52998"><ele>195.6</ele><time>2026-05-03T11:55:03.594Z</time></trkpt><trkpt lat="46.0663267" lon="13.5301067"><ele>197.4</ele><time>2026-05-03T11:55:04.595Z</time></trkpt><trkpt lat="46.066335" lon="13.5302367"><ele>199.20000000000002</ele><time>2026-05-03T11:55:05.594Z</time></trkpt><trkpt lat="46.06636" lon="13.5303567"><ele>201.0</ele><time>2026-05-03T11:55:06.594Z</time></trkpt><trkpt lat="46.0664317" lon="13.5304483"><ele>205.0</ele><time>2026-05-03T11:55:07.594Z</time></trkpt><trkpt lat="46.06651" lon="13.5305317"><ele>209.0</ele><time>2026-05-03T11:55:08.595Z</time></trkpt><trkpt lat="46.0665883" lon="13.5306033"><ele>213.00000000000003</ele><time>2026-05-03T11:55:09.595Z</time></trkpt><trkpt lat="46.066685" lon="13.5306517"><ele>217.0</ele><time>2026-05-03T11:55:10.594Z</time></trkpt><trkpt lat="46.0667767" lon="13.5306933"><ele>221.0</ele><time>2026-05-03T11:55:11.594Z</time></trkpt><trkpt lat="46.0668817" lon="13.530725"><ele>209.20000000000002</ele><time>2026-05-03T11:55:12.594Z</time></trkpt><trkpt lat="46.0670183" lon="13.5307217"><ele>197.40000000000003</ele><time>2026-05-03T11:55:13.594Z</time></trkpt><trkpt lat="46.067105" lon="13.5307033"><ele>185.6</ele><time>2026-05-03T11:55:14.595Z</time></trkpt><trkpt lat="46.0672" lon="13.53067"><ele>173.8</ele><time>2026-05-03T11:55:15.594Z</time></trkpt><trkpt lat="46.067265" lon="13.5306317"><ele>162.0</ele><time>2026-05-03T11:55:16.594Z</time></trkpt><trkpt lat="46.0674017" lon="13.5305967"><ele>158.5</ele><time>2026-05-03T11:55:17.594Z</time></trkpt><trkpt lat="46.0675933" lon="13.5305483"><ele>155.0</ele><time>2026-05-03T11:55:18.594Z</time></trkpt><trkpt lat="46.067695" lon="13.5305117"><ele>151.5</ele><time>2026-05-03T11:55:19.594Z</time></trkpt><trkpt lat="46.0678083" lon="13.530475"><ele>148.0</ele><time>2026-05-03T11:55:20.595Z</time></trkpt><trkpt lat="46.067995" lon="13.53043"><ele>148.0</ele><time>2026-05-03T11:55:21.595Z</time></trkpt><trkpt lat="46.068105" lon="13.5304"><ele>148.0</ele><time>2026-05-03T11:55:22.594Z</time></trkpt><trkpt lat="46.06821" lon="13.53037"><ele>148.0</ele><time>2026-05-03T11:55:23.594Z</time></trkpt><trkpt lat="46.0683083" lon="13.5303467"><ele>148.0</ele><time>2026-05-03T11:55:24.594Z</time></trkpt><trkpt lat="46.0684" lon="13.5303567"><ele>148.0</ele><time>2026-05-03T11:55:25.596Z</time></trkpt><trkpt lat="46.0684867" lon="13.5304167"><ele>147.75</ele><time>2026-05-03T11:55:27.595Z</time></trkpt><trkpt lat="46.068575" lon="13.5304733"><ele>147.5</ele><time>2026-05-03T11:55:28.594Z</time></trkpt><trkpt lat="46.0686683" lon="13.53063"><ele>147.25</ele><time>2026-05-03T11:55:29.596Z</time></trkpt><trkpt lat="46.0687633" lon="13.5307667"><ele>147.0</ele><time>2026-05-03T11:55:30.595Z</time></trkpt><trkpt lat="46.0688567" lon="13.5309017"><ele>147.0</ele><time>2026-05-03T11:55:31.595Z</time></trkpt><trkpt lat="46.0689467" lon="13.5310333"><ele>147.0</ele><time>2026-05-03T11:55:32.595Z</time></trkpt><trkpt lat="46.0690367" lon="13.53115"><ele>147.0</ele><time>2026-05-03T11:55:33.595Z</time></trkpt><trkpt lat="46.069105" lon="13.53126"><ele>147.0</ele><time>2026-05-03T11:55:34.594Z</time></trkpt><trkpt lat="46.0691533" lon="13.5313833"><ele>146.83333333333334</ele><time>2026-05-03T11:55:35.595Z</time></trkpt><trkpt lat="46.069205" lon="13.5315033"><ele>146.66666666666666</ele><time>2026-05-03T11:55:36.594Z</time></trkpt><trkpt lat="46.0692367" lon="13.5316317"><ele>146.5</ele><time>2026-05-03T11:55:37.595Z</time></trkpt><trkpt lat="46.0692583" lon="13.5317433"><ele>146.33333333333331</ele><time>2026-05-03T11:55:38.596Z</time></trkpt><trkpt lat="46.0692617" lon="13.5318517"><ele>146.16666666666666</ele><time>2026-05-03T11:55:39.594Z</time></trkpt><trkpt lat="46.0692433" lon="13.5319683"><ele>146.0</ele><time>2026-05-03T11:55:40.595Z</time></trkpt><trkpt lat="46.0692133" lon="13.5320917"><ele>147.6</ele><time>2026-05-03T11:55:41.594Z</time></trkpt><trkpt lat="46.069185" lon="13.5322233"><ele>149.2</ele><time>2026-05-03T11:55:42.594Z</time></trkpt><trkpt lat="46.06917" lon="13.5323683"><ele>150.8</ele><time>2026-05-03T11:55:43.595Z</time></trkpt><trkpt lat="46.06916" lon="13.53253"><ele>152.4</ele><time>2026-05-03T11:55:44.594Z</time></trkpt><trkpt lat="46.069155" lon="13.532695"><ele>154.0</ele><time>2026-05-03T11:55:45.593Z</time></trkpt><trkpt lat="46.0691433" lon="13.5328633"><ele>156.75</ele><time>2026-05-03T11:55:46.595Z</time></trkpt><trkpt lat="46.0691417" lon="13.5330283"><ele>159.5</ele><time>2026-05-03T11:55:47.595Z</time></trkpt><trkpt lat="46.0691683" lon="13.5331917"><ele>162.25</ele><time>2026-05-03T11:55:48.594Z</time></trkpt><trkpt lat="46.06921" lon="13.5333517"><ele>165.0</ele><time>2026-05-03T11:55:49.595Z</time></trkpt><trkpt lat="46.0692417" lon="13.5335333"><ele>165.0</ele><time>2026-05-03T11:55:50.595Z</time></trkpt><trkpt lat="46.0693" lon="13.533695"><ele>165.0</ele><time>2026-05-03T11:55:51.595Z</time></trkpt><trkpt lat="46.069355" lon="13.533855"><ele>165.0</ele><time>2026-05-03T11:55:52.596Z</time></trkpt><trkpt lat="46.0694083" lon="13.5340217"><ele>165.0</ele><time>2026-05-03T11:55:53.595Z</time></trkpt><trkpt lat="46.0694633" lon="13.53418"><ele>169.5</ele><time>2026-05-03T11:55:54.594Z</time></trkpt><trkpt lat="46.06952" lon="13.534345"><ele>174.0</ele><time>2026-05-03T11:55:55.595Z</time></trkpt><trkpt lat="46.0695867" lon="13.5344967"><ele>178.5</ele><time>2026-05-03T11:55:56.595Z</time></trkpt><trkpt lat="46.069655" lon="13.5346483"><ele>183.0</ele><time>2026-05-03T11:55:57.595Z</time></trkpt><trkpt lat="46.0697183" lon="13.5348"><ele>187.2</ele><time>2026-05-03T11:55:58.594Z</time></trkpt><trkpt lat="46.0697817" lon="13.534935"><ele>191.4</ele><time>2026-05-03T11:55:59.595Z</time></trkpt><trkpt lat="46.0698383" lon="13.5350517"><ele>195.6</ele><time>2026-05-03T11:56:00.595Z</time></trkpt><trkpt lat="46.0699033" lon="13.535145"><ele>199.79999999999998</ele><time>2026-05-03T11:56:01.595Z</time></trkpt><trkpt lat="46.069975" lon="13.5352283"><ele>204.0</ele><time>2026-05-03T11:56:02.595Z</time></trkpt><trkpt lat="46.07007" lon="13.5352867"><ele>199.6</ele><time>2026-05-03T11:56:03.595Z</time></trkpt><trkpt lat="46.07014" lon="13.535345"><ele>195.2</ele><time>2026-05-03T11:56:04.594Z</time></trkpt><trkpt lat="46.0702133" lon="13.5353933"><ele>190.79999999999998</ele><time>2026-05-03T11:56:05.595Z</time></trkpt><trkpt lat="46.0702883" lon="13.535445"><ele>186.39999999999998</ele><time>2026-05-03T11:56:06.594Z</time></trkpt><trkpt lat="46.0703833" lon="13.5354933"><ele>182.0</ele><time>2026-05-03T11:56:07.596Z</time></trkpt><trkpt lat="46.0705083" lon="13.53553"><ele>182.0</ele><time>2026-05-03T11:56:08.594Z</time></trkpt><trkpt lat="46.0705983" lon="13.535565"><ele>182.0</ele><time>2026-05-03T11:56:09.592Z</time></trkpt><trkpt lat="46.07068" lon="13.535575"><ele>182.0</ele><time>2026-05-03T11:56:10.594Z</time></trkpt><trkpt lat="46.0708383" lon="13.53557"><ele>182.0</ele><time>2026-05-03T11:56:11.596Z</time></trkpt><trkpt lat="46.07095" lon="13.53557"><ele>182.0</ele><time>2026-05-03T11:56:12.594Z</time></trkpt><trkpt lat="46.071055" lon="13.5355633"><ele>178.25</ele><time>2026-05-03T11:56:13.593Z</time></trkpt><trkpt lat="46.0711633" lon="13.535545"><ele>174.5</ele><time>2026-05-03T11:56:14.595Z</time></trkpt><trkpt lat="46.071265" lon="13.53552"><ele>170.75</ele><time>2026-05-03T11:56:15.593Z</time></trkpt><trkpt lat="46.0714033" lon="13.5354717"><ele>167.0</ele><time>2026-05-03T11:56:16.594Z</time></trkpt><trkpt lat="46.0714983" lon="13.5354533"><ele>167.0</ele><time>2026-05-03T11:56:17.595Z</time></trkpt><trkpt lat="46.0715933" lon="13.5354283"><ele>167.0</ele><time>2026-05-03T11:56:18.594Z</time></trkpt><trkpt lat="46.0716883" lon="13.5354267"><ele>167.0</ele><time>2026-05-03T11:56:19.593Z</time></trkpt><trkpt lat="46.0717783" lon="13.5354283"><ele>167.0</ele><time>2026-05-03T11:56:20.595Z</time></trkpt><trkpt lat="46.071885" lon="13.5354667"><ele>167.0</ele><time>2026-05-03T11:56:21.594Z</time></trkpt><trkpt lat="46.072075" lon="13.5354967"><ele>165.66666666666666</ele><time>2026-05-03T11:56:22.594Z</time></trkpt><trkpt lat="46.0721883" lon="13.53555"><ele>164.33333333333334</ele><time>2026-05-03T11:56:23.595Z</time></trkpt><trkpt lat="46.0723233" lon="13.5356383"><ele>163.0</ele><time>2026-05-03T11:56:24.594Z</time></trkpt><trkpt lat="46.072555" lon="13.5356867"><ele>162.0</ele><time>2026-05-03T11:56:25.593Z</time></trkpt><trkpt lat="46.0727267" lon="13.5357583"><ele>161.0</ele><time>2026-05-03T11:56:26.594Z</time></trkpt><trkpt lat="46.0728433" lon="13.5358533"><ele>160.0</ele><time>2026-05-03T11:56:27.593Z</time></trkpt><trkpt lat="46.0729583" lon="13.5359483"><ele>159.0</ele><time>2026-05-03T11:56:28.594Z</time></trkpt><trkpt lat="46.0730533" lon="13.5360367"><ele>159.0</ele><time>2026-05-03T11:56:29.594Z</time></trkpt><trkpt lat="46.073145" lon="13.5361317"><ele>159.0</ele><time>2026-05-03T11:56:30.594Z</time></trkpt><trkpt lat="46.0732433" lon="13.5362267"><ele>159.0</ele><time>2026-05-03T11:56:31.595Z</time></trkpt><trkpt lat="46.07335" lon="13.5363317"><ele>159.0</ele><time>2026-05-03T11:56:32.595Z</time></trkpt><trkpt lat="46.07345" lon="13.5364417"><ele>160.0</ele><time>2026-05-03T11:56:33.593Z</time></trkpt><trkpt lat="46.0735633" lon="13.53657"><ele>161.0</ele><time>2026-05-03T11:56:34.595Z</time></trkpt><trkpt lat="46.0736583" lon="13.5367"><ele>162.0</ele><time>2026-05-03T11:56:35.594Z</time></trkpt><trkpt lat="46.07375" lon="13.5368367"><ele>163.0</ele><time>2026-05-03T11:56:36.594Z</time></trkpt><trkpt lat="46.07384" lon="13.5369833"><ele>161.25</ele><time>2026-05-03T11:56:37.597Z</time></trkpt><trkpt lat="46.0739183" lon="13.5371317"><ele>159.5</ele><time>2026-05-03T11:56:38.594Z</time></trkpt><trkpt lat="46.0739933" lon="13.53729"><ele>157.75</ele><time>2026-05-03T11:56:39.593Z</time></trkpt><trkpt lat="46.0740617" lon="13.5374483"><ele>156.0</ele><time>2026-05-03T11:56:40.594Z</time></trkpt><trkpt lat="46.0741267" lon="13.5376067"><ele>156.0</ele><time>2026-05-03T11:56:41.594Z</time></trkpt><trkpt lat="46.0742" lon="13.537755"><ele>156.0</ele><time>2026-05-03T11:56:42.594Z</time></trkpt><trkpt lat="46.074295" lon="13.53788"><ele>156.0</ele><time>2026-05-03T11:56:43.593Z</time></trkpt><trkpt lat="46.0743683" lon="13.5380117"><ele>156.0</ele><time>2026-05-03T11:56:44.595Z</time></trkpt><trkpt lat="46.0744683" lon="13.5381283"><ele>161.0</ele><time>2026-05-03T11:56:45.593Z</time></trkpt><trkpt lat="46.0745717" lon="13.5382517"><ele>166.0</ele><time>2026-05-03T11:56:46.594Z</time></trkpt><trkpt lat="46.07467" lon="13.5383667"><ele>171.0</ele><time>2026-05-03T11:56:47.593Z</time></trkpt><trkpt lat="46.0747717" lon="13.538485"><ele>176.0</ele><time>2026-05-03T11:56:48.594Z</time></trkpt><trkpt lat="46.07488" lon="13.538605"><ele>173.25</ele><time>2026-05-03T11:56:49.595Z</time></trkpt><trkpt lat="46.0749883" lon="13.5387283"><ele>170.5</ele><time>2026-05-03T11:56:50.596Z</time></trkpt><trkpt lat="46.0750817" lon="13.5388567"><ele>167.75</ele><time>2026-05-03T11:56:51.595Z</time></trkpt><trkpt lat="46.07518" lon="13.5389783"><ele>165.0</ele><time>2026-05-03T11:56:52.594Z</time></trkpt><trkpt lat="46.07529" lon="13.5390933"><ele>165.0</ele><time>2026-05-03T11:56:53.593Z</time></trkpt><trkpt lat="46.0754" lon="13.5392033"><ele>165.0</ele><time>2026-05-03T11:56:54.593Z</time></trkpt><trkpt lat="46.0755033" lon="13.5393183"><ele>165.0</ele><time>2026-05-03T11:56:55.593Z</time></trkpt><trkpt lat="46.0756167" lon="13.5394267"><ele>165.0</ele><time>2026-05-03T11:56:56.594Z</time></trkpt><trkpt lat="46.07572" lon="13.5395317"><ele>165.5</ele><time>2026-05-03T11:56:57.594Z</time></trkpt><trkpt lat="46.07584" lon="13.53963"><ele>166.0</ele><time>2026-05-03T11:56:58.594Z</time></trkpt><trkpt lat="46.0759517" lon="13.53972"><ele>166.5</ele><time>2026-05-03T11:56:59.595Z</time></trkpt><trkpt lat="46.0760483" lon="13.5398033"><ele>167.0</ele><time>2026-05-03T11:57:00.594Z</time></trkpt><trkpt lat="46.0761417" lon="13.539895"><ele>167.0</ele><time>2026-05-03T11:57:01.593Z</time></trkpt><trkpt lat="46.0762233" lon="13.5399967"><ele>167.0</ele><time>2026-05-03T11:57:02.594Z</time></trkpt><trkpt lat="46.0762917" lon="13.540105"><ele>167.0</ele><time>2026-05-03T11:57:03.593Z</time></trkpt><trkpt lat="46.0763467" lon="13.5402167"><ele>167.0</ele><time>2026-05-03T11:57:04.593Z</time></trkpt><trkpt lat="46.076375" lon="13.5403433"><ele>167.0</ele><time>2026-05-03T11:57:05.593Z</time></trkpt><trkpt lat="46.0763917" lon="13.5404817"><ele>172.8</ele><time>2026-05-03T11:57:06.593Z</time></trkpt><trkpt lat="46.0764083" lon="13.5406283"><ele>178.6</ele><time>2026-05-03T11:57:07.594Z</time></trkpt><trkpt lat="46.0764167" lon="13.540765"><ele>184.4</ele><time>2026-05-03T11:57:08.594Z</time></trkpt><trkpt lat="46.07642" lon="13.5408883"><ele>190.20000000000002</ele><time>2026-05-03T11:57:09.593Z</time></trkpt><trkpt lat="46.0764117" lon="13.5410133"><ele>196.0</ele><time>2026-05-03T11:57:10.596Z</time></trkpt><trkpt lat="46.0763933" lon="13.5411383"><ele>200.60000000000002</ele><time>2026-05-03T11:57:11.594Z</time></trkpt><trkpt lat="46.0763867" lon="13.541265"><ele>205.2</ele><time>2026-05-03T11:57:12.595Z</time></trkpt><trkpt lat="46.07639" lon="13.5413917"><ele>209.79999999999998</ele><time>2026-05-03T11:57:13.594Z</time></trkpt><trkpt lat="46.07642" lon="13.541525"><ele>214.39999999999998</ele><time>2026-05-03T11:57:14.595Z</time></trkpt><trkpt lat="46.076455" lon="13.5416533"><ele>219.0</ele><time>2026-05-03T11:57:15.593Z</time></trkpt><trkpt lat="46.0764933" lon="13.54179"><ele>219.0</ele><time>2026-05-03T11:57:16.593Z</time></trkpt><trkpt lat="46.0765217" lon="13.541935"><ele>218.99999999999997</ele><time>2026-05-03T11:57:17.594Z</time></trkpt><trkpt lat="46.0765683" lon="13.5420783"><ele>218.99999999999997</ele><time>2026-05-03T11:57:18.594Z</time></trkpt><trkpt lat="46.0766367" lon="13.54221"><ele>219.0</ele><time>2026-05-03T11:57:19.593Z</time></trkpt><trkpt lat="46.0766917" lon="13.542355"><ele>219.0</ele><time>2026-05-03T11:57:20.595Z</time></trkpt><trkpt lat="46.0767667" lon="13.5424917"><ele>214.6</ele><time>2026-05-03T11:57:21.593Z</time></trkpt><trkpt lat="46.07682" lon="13.5426283"><ele>210.2</ele><time>2026-05-03T11:57:22.593Z</time></trkpt><trkpt lat="46.076895" lon="13.542745"><ele>205.79999999999998</ele><time>2026-05-03T11:57:23.594Z</time></trkpt><trkpt lat="46.0769867" lon="13.5428317"><ele>201.39999999999998</ele><time>2026-05-03T11:57:24.594Z</time></trkpt><trkpt lat="46.0770567" lon="13.5429317"><ele>197.0</ele><time>2026-05-03T11:57:25.594Z</time></trkpt><trkpt lat="46.0771317" lon="13.5430217"><ele>197.0</ele><time>2026-05-03T11:57:26.594Z</time></trkpt><trkpt lat="46.0772083" lon="13.5431233"><ele>197.0</ele><time>2026-05-03T11:57:27.593Z</time></trkpt><trkpt lat="46.077285" lon="13.543225"><ele>197.0</ele><time>2026-05-03T11:57:28.593Z</time></trkpt><trkpt lat="46.07738" lon="13.543315"><ele>197.0</ele><time>2026-05-03T11:57:29.593Z</time></trkpt><trkpt lat="46.0774817" lon="13.5434033"><ele>197.0</ele><time>2026-05-03T11:57:30.594Z</time></trkpt><trkpt lat="46.07756" lon="13.5435017"><ele>190.25</ele><time>2026-05-03T11:57:31.593Z</time></trkpt><trkpt lat="46.0776617" lon="13.5435683"><ele>183.5</ele><time>2026-05-03T11:57:32.595Z</time></trkpt><trkpt lat="46.0777717" lon="13.5436167"><ele>176.75</ele><time>2026-05-03T11:57:33.594Z</time></trkpt><trkpt lat="46.0778833" lon="13.5436433"><ele>170.0</ele><time>2026-05-03T11:57:34.594Z</time></trkpt><trkpt lat="46.0780117" lon="13.5436667"><ele>170.0</ele><time>2026-05-03T11:57:35.593Z</time></trkpt><trkpt lat="46.0781283" lon="13.543685"><ele>170.0</ele><time>2026-05-03T11:57:36.593Z</time></trkpt><trkpt lat="46.078245" lon="13.5437067"><ele>170.0</ele><time>2026-05-03T11:57:37.595Z</time></trkpt><trkpt lat="46.07836" lon="13.543735"><ele>170.0</ele><time>2026-05-03T11:57:38.594Z</time></trkpt><trkpt lat="46.078475" lon="13.5437683"><ele>173.4</ele><time>2026-05-03T11:57:39.594Z</time></trkpt><trkpt lat="46.0785883" lon="13.5438133"><ele>176.8</ele><time>2026-05-03T11:57:40.594Z</time></trkpt><trkpt lat="46.0787167" lon="13.5438433"><ele>180.2</ele><time>2026-05-03T11:57:41.594Z</time></trkpt><trkpt lat="46.0788233" lon="13.543875"><ele>183.6</ele><time>2026-05-03T11:57:42.594Z</time></trkpt><trkpt lat="46.07891" lon="13.5439"><ele>187.0</ele><time>2026-05-03T11:57:43.593Z</time></trkpt><trkpt lat="46.079015" lon="13.5439183"><ele>185.0</ele><time>2026-05-03T11:57:44.593Z</time></trkpt><trkpt lat="46.0791467" lon="13.543945"><ele>183.0</ele><time>2026-05-03T11:57:45.593Z</time></trkpt><trkpt lat="46.0793083" lon="13.543985"><ele>181.0</ele><time>2026-05-03T11:57:46.594Z</time></trkpt><trkpt lat="46.0794617" lon="13.5440333"><ele>181.0</ele><time>2026-05-03T11:57:47.593Z</time></trkpt><trkpt lat="46.0796133" lon="13.5440733"><ele>181.0</ele><time>2026-05-03T11:57:48.594Z</time></trkpt><trkpt lat="46.0797533" lon="13.544115"><ele>181.0</ele><time>2026-05-03T11:57:49.594Z</time></trkpt><trkpt lat="46.0798883" lon="13.5441467"><ele>181.0</ele><time>2026-05-03T11:57:50.594Z</time></trkpt><trkpt lat="46.080025" lon="13.5441667"><ele>179.4</ele><time>2026-05-03T11:57:51.593Z</time></trkpt><trkpt lat="46.080135" lon="13.5441983"><ele>177.8</ele><time>2026-05-03T11:57:52.593Z</time></trkpt><trkpt lat="46.0802333" lon="13.5442367"><ele>176.20000000000002</ele><time>2026-05-03T11:57:53.595Z</time></trkpt><trkpt lat="46.0803117" lon="13.5442767"><ele>174.60000000000002</ele><time>2026-05-03T11:57:54.593Z</time></trkpt><trkpt lat="46.0803967" lon="13.54431"><ele>173.0</ele><time>2026-05-03T11:57:55.595Z</time></trkpt><trkpt lat="46.0804967" lon="13.5443417"><ele>173.0</ele><time>2026-05-03T11:57:56.594Z</time></trkpt><trkpt lat="46.08061" lon="13.5443633"><ele>173.0</ele><time>2026-05-03T11:57:57.594Z</time></trkpt><trkpt lat="46.0807633" lon="13.544385"><ele>173.0</ele><time>2026-05-03T11:57:58.593Z</time></trkpt><trkpt lat="46.0808867" lon="13.5444083"><ele>173.0</ele><time>2026-05-03T11:57:59.594Z</time></trkpt><trkpt lat="46.0809983" lon="13.5444267"><ele>169.66666666666666</ele><time>2026-05-03T11:58:00.595Z</time></trkpt><trkpt lat="46.081135" lon="13.544425"><ele>166.33333333333334</ele><time>2026-05-03T11:58:01.594Z</time></trkpt><trkpt lat="46.0812633" lon="13.5444233"><ele>163.0</ele><time>2026-05-03T11:58:02.597Z</time></trkpt><trkpt lat="46.081525" lon="13.5444183"><ele>162.4</ele><time>2026-05-03T11:58:04.595Z</time></trkpt><trkpt lat="46.0816667" lon="13.5444417"><ele>161.8</ele><time>2026-05-03T11:58:05.596Z</time></trkpt><trkpt lat="46.0817667" lon="13.5444483"><ele>161.2</ele><time>2026-05-03T11:58:06.593Z</time></trkpt><trkpt lat="46.08186" lon="13.54445"><ele>160.6</ele><time>2026-05-03T11:58:07.593Z</time></trkpt><trkpt lat="46.08194" lon="13.544445"><ele>160.0</ele><time>2026-05-03T11:58:08.595Z</time></trkpt><trkpt lat="46.08202" lon="13.5444517"><ele>160.0</ele><time>2026-05-03T11:58:09.594Z</time></trkpt><trkpt lat="46.082085" lon="13.5444917"><ele>160.0</ele><time>2026-05-03T11:58:10.593Z</time></trkpt><trkpt lat="46.0821467" lon="13.5445567"><ele>160.0</ele><time>2026-05-03T11:58:11.594Z</time></trkpt><trkpt lat="46.0822133" lon="13.544725"><ele>160.0</ele><time>2026-05-03T11:58:13.596Z</time></trkpt><trkpt lat="46.08222" lon="13.5448383"><ele>160.0</ele><time>2026-05-03T11:58:14.595Z</time></trkpt><trkpt lat="46.0822317" lon="13.544965"><ele>160.0</ele><time>2026-05-03T11:58:15.595Z</time></trkpt><trkpt lat="46.0822517" lon="13.5451183"><ele>160.6</ele><time>2026-05-03T11:58:16.594Z</time></trkpt><trkpt lat="46.08227" lon="13.54526"><ele>161.2</ele><time>2026-05-03T11:58:17.594Z</time></trkpt><trkpt lat="46.0823067" lon="13.54539"><ele>161.8</ele><time>2026-05-03T11:58:18.596Z</time></trkpt><trkpt lat="46.0823433" lon="13.5455117"><ele>162.4</ele><time>2026-05-03T11:58:19.595Z</time></trkpt><trkpt lat="46.0824017" lon="13.5456283"><ele>163.0</ele><time>2026-05-03T11:58:20.595Z</time></trkpt><trkpt lat="46.0824667" lon="13.5457483"><ele>163.0</ele><time>2026-05-03T11:58:21.595Z</time></trkpt><trkpt lat="46.0825133" lon="13.5458817"><ele>163.0</ele><time>2026-05-03T11:58:22.594Z</time></trkpt><trkpt lat="46.0825433" lon="13.5460267"><ele>163.0</ele><time>2026-05-03T11:58:23.594Z</time></trkpt><trkpt lat="46.08256" lon="13.546175"><ele>163.0</ele><time>2026-05-03T11:58:24.596Z</time></trkpt><trkpt lat="46.0825717" lon="13.546325"><ele>163.0</ele><time>2026-05-03T11:58:25.596Z</time></trkpt><trkpt lat="46.0825783" lon="13.54648"><ele>164.75</ele><time>2026-05-03T11:58:26.594Z</time></trkpt><trkpt lat="46.08259" lon="13.54664"><ele>166.5</ele><time>2026-05-03T11:58:27.594Z</time></trkpt><trkpt lat="46.0826" lon="13.54681"><ele>168.25</ele><time>2026-05-03T11:58:28.595Z</time></trkpt><trkpt lat="46.0826033" lon="13.546985"><ele>170.0</ele><time>2026-05-03T11:58:29.594Z</time></trkpt><trkpt lat="46.0826033" lon="13.5471417"><ele>169.6</ele><time>2026-05-03T11:58:30.595Z</time></trkpt><trkpt lat="46.0826" lon="13.54729"><ele>169.2</ele><time>2026-05-03T11:58:31.594Z</time></trkpt><trkpt lat="46.082585" lon="13.5474433"><ele>168.8</ele><time>2026-05-03T11:58:32.595Z</time></trkpt><trkpt lat="46.0825683" lon="13.5476"><ele>168.4</ele><time>2026-05-03T11:58:33.594Z</time></trkpt><trkpt lat="46.0825417" lon="13.5477567"><ele>168.0</ele><time>2026-05-03T11:58:34.594Z</time></trkpt><trkpt lat="46.0824967" lon="13.54791"><ele>168.0</ele><time>2026-05-03T11:58:35.595Z</time></trkpt><trkpt lat="46.0824483" lon="13.548065"><ele>168.0</ele><time>2026-05-03T11:58:36.594Z</time></trkpt><trkpt lat="46.0823883" lon="13.5482117"><ele>168.0</ele><time>2026-05-03T11:58:37.595Z</time></trkpt><trkpt lat="46.0823167" lon="13.5483533"><ele>168.0</ele><time>2026-05-03T11:58:38.594Z</time></trkpt><trkpt lat="46.082265" lon="13.5484933"><ele>179.25</ele><time>2026-05-03T11:58:39.593Z</time></trkpt><trkpt lat="46.0822033" lon="13.5486383"><ele>190.5</ele><time>2026-05-03T11:58:40.593Z</time></trkpt><trkpt lat="46.0821283" lon="13.5487917"><ele>201.75</ele><time>2026-05-03T11:58:41.597Z</time></trkpt><trkpt lat="46.08205" lon="13.5489517"><ele>213.0</ele><time>2026-05-03T11:58:42.594Z</time></trkpt><trkpt lat="46.0819783" lon="13.5491117"><ele>213.0</ele><time>2026-05-03T11:58:43.595Z</time></trkpt><trkpt lat="46.0819183" lon="13.5492783"><ele>213.0</ele><time>2026-05-03T11:58:44.594Z</time></trkpt><trkpt lat="46.0818483" lon="13.5494467"><ele>213.0</ele><time>2026-05-03T11:58:45.594Z</time></trkpt><trkpt lat="46.0817883" lon="13.549605"><ele>213.0</ele><time>2026-05-03T11:58:46.595Z</time></trkpt><trkpt lat="46.0817433" lon="13.5497483"><ele>212.60000000000002</ele><time>2026-05-03T11:58:47.594Z</time></trkpt><trkpt lat="46.0817167" lon="13.54988"><ele>212.20000000000002</ele><time>2026-05-03T11:58:48.593Z</time></trkpt><trkpt lat="46.0817117" lon="13.5500233"><ele>211.8</ele><time>2026-05-03T11:58:49.595Z</time></trkpt><trkpt lat="46.0817267" lon="13.5501817"><ele>211.4</ele><time>2026-05-03T11:58:50.595Z</time></trkpt><trkpt lat="46.08174" lon="13.5503217"><ele>211.0</ele><time>2026-05-03T11:58:51.593Z</time></trkpt><trkpt lat="46.08177" lon="13.5504533"><ele>217.20000000000002</ele><time>2026-05-03T11:58:52.594Z</time></trkpt><trkpt lat="46.0818117" lon="13.5505783"><ele>223.4</ele><time>2026-05-03T11:58:53.596Z</time></trkpt><trkpt lat="46.0818633" lon="13.5507117"><ele>229.6</ele><time>2026-05-03T11:58:54.594Z</time></trkpt><trkpt lat="46.0819083" lon="13.55084"><ele>235.8</ele><time>2026-05-03T11:58:55.593Z</time></trkpt><trkpt lat="46.081955" lon="13.5509467"><ele>242.0</ele><time>2026-05-03T11:58:56.594Z</time></trkpt><trkpt lat="46.0820267" lon="13.55102"><ele>242.0</ele><time>2026-05-03T11:58:57.593Z</time></trkpt><trkpt lat="46.0821017" lon="13.551105"><ele>242.0</ele><time>2026-05-03T11:58:58.594Z</time></trkpt><trkpt lat="46.0821883" lon="13.5512067"><ele>242.0</ele><time>2026-05-03T11:58:59.594Z</time></trkpt><trkpt lat="46.08227" lon="13.5513217"><ele>242.0</ele><time>2026-05-03T11:59:00.594Z</time></trkpt><trkpt lat="46.08237" lon="13.5514367"><ele>242.0</ele><time>2026-05-03T11:59:01.593Z</time></trkpt><trkpt lat="46.0824583" lon="13.5515667"><ele>227.75</ele><time>2026-05-03T11:59:02.595Z</time></trkpt><trkpt lat="46.0825633" lon="13.551685"><ele>213.5</ele><time>2026-05-03T11:59:03.594Z</time></trkpt><trkpt lat="46.0826717" lon="13.55179"><ele>199.25</ele><time>2026-05-03T11:59:04.594Z</time></trkpt><trkpt lat="46.08277" lon="13.5518833"><ele>185.0</ele><time>2026-05-03T11:59:05.593Z</time></trkpt><trkpt lat="46.0828833" lon="13.5519583"><ele>184.0</ele><time>2026-05-03T11:59:06.594Z</time></trkpt><trkpt lat="46.0829883" lon="13.552045"><ele>183.0</ele><time>2026-05-03T11:59:07.595Z</time></trkpt><trkpt lat="46.0830633" lon="13.552145"><ele>182.0</ele><time>2026-05-03T11:59:08.594Z</time></trkpt><trkpt lat="46.0831433" lon="13.552255"><ele>181.0</ele><time>2026-05-03T11:59:09.594Z</time></trkpt><trkpt lat="46.0832167" lon="13.552365"><ele>180.0</ele><time>2026-05-03T11:59:10.595Z</time></trkpt><trkpt lat="46.083315" lon="13.5524567"><ele>180.0</ele><time>2026-05-03T11:59:11.593Z</time></trkpt><trkpt lat="46.0833617" lon="13.55256"><ele>180.0</ele><time>2026-05-03T11:59:12.595Z</time></trkpt><trkpt lat="46.0834133" lon="13.55266"><ele>180.0</ele><time>2026-05-03T11:59:13.594Z</time></trkpt><trkpt lat="46.0834383" lon="13.55276"><ele>180.0</ele><time>2026-05-03T11:59:14.594Z</time></trkpt><trkpt lat="46.08345" lon="13.5528567"><ele>180.0</ele><time>2026-05-03T11:59:15.593Z</time></trkpt><trkpt lat="46.0834467" lon="13.5529583"><ele>180.0</ele><time>2026-05-03T11:59:16.596Z</time></trkpt><trkpt lat="46.0834117" lon="13.55307"><ele>184.25</ele><time>2026-05-03T11:59:17.594Z</time></trkpt><trkpt lat="46.0833917" lon="13.5532"><ele>188.5</ele><time>2026-05-03T11:59:18.595Z</time></trkpt><trkpt lat="46.0833667" lon="13.553365"><ele>192.75</ele><time>2026-05-03T11:59:19.594Z</time></trkpt><trkpt lat="46.08336" lon="13.5535567"><ele>197.0</ele><time>2026-05-03T11:59:20.594Z</time></trkpt><trkpt lat="46.0833533" lon="13.5537567"><ele>197.25</ele><time>2026-05-03T11:59:21.595Z</time></trkpt><trkpt lat="46.0833667" lon="13.5539717"><ele>197.5</ele><time>2026-05-03T11:59:22.593Z</time></trkpt><trkpt lat="46.0833817" lon="13.5541733"><ele>197.75</ele><time>2026-05-03T11:59:23.595Z</time></trkpt><trkpt lat="46.0833917" lon="13.554395"><ele>198.0</ele><time>2026-05-03T11:59:24.594Z</time></trkpt><trkpt lat="46.0834" lon="13.5546083"><ele>198.0</ele><time>2026-05-03T11:59:25.595Z</time></trkpt><trkpt lat="46.0834067" lon="13.5548217"><ele>198.0</ele><time>2026-05-03T11:59:26.594Z</time></trkpt><trkpt lat="46.0834133" lon="13.5550283"><ele>198.0</ele><time>2026-05-03T11:59:27.593Z</time></trkpt><trkpt lat="46.0834217" lon="13.5552167"><ele>198.0</ele><time>2026-05-03T11:59:28.594Z</time></trkpt><trkpt lat="46.0834483" lon="13.5553867"><ele>198.75</ele><time>2026-05-03T11:59:29.593Z</time></trkpt><trkpt lat="46.083495" lon="13.5555383"><ele>199.5</ele><time>2026-05-03T11:59:30.594Z</time></trkpt><trkpt lat="46.0835517" lon="13.5556783"><ele>200.25</ele><time>2026-05-03T11:59:31.593Z</time></trkpt><trkpt lat="46.0836167" lon="13.5558117"><ele>201.0</ele><time>2026-05-03T11:59:32.597Z</time></trkpt><trkpt lat="46.0836983" lon="13.5559517"><ele>201.0</ele><time>2026-05-03T11:59:33.594Z</time></trkpt><trkpt lat="46.0837967" lon="13.5560883"><ele>201.0</ele><time>2026-05-03T11:59:34.595Z</time></trkpt><trkpt lat="46.0838917" lon="13.5562267"><ele>201.0</ele><time>2026-05-03T11:59:35.593Z</time></trkpt><trkpt lat="46.0839767" lon="13.5563683"><ele>201.0</ele><time>2026-05-03T11:59:36.593Z</time></trkpt><trkpt lat="46.0840617" lon="13.5565217"><ele>197.25</ele><time>2026-05-03T11:59:37.594Z</time></trkpt><trkpt lat="46.08413" lon="13.5566767"><ele>193.5</ele><time>2026-05-03T11:59:38.594Z</time></trkpt><trkpt lat="46.0841817" lon="13.5568333"><ele>189.75</ele><time>2026-05-03T11:59:39.597Z</time></trkpt><trkpt lat="46.084215" lon="13.5569967"><ele>186.0</ele><time>2026-05-03T11:59:40.593Z</time></trkpt><trkpt lat="46.0842433" lon="13.5571667"><ele>186.0</ele><time>2026-05-03T11:59:41.594Z</time></trkpt><trkpt lat="46.08428" lon="13.55733"><ele>186.0</ele><time>2026-05-03T11:59:42.593Z</time></trkpt><trkpt lat="46.084315" lon="13.557475"><ele>186.0</ele><time>2026-05-03T11:59:43.594Z</time></trkpt><trkpt lat="46.08437" lon="13.5575983"><ele>186.0</ele><time>2026-05-03T11:59:44.595Z</time></trkpt><trkpt lat="46.08444" lon="13.5577283"><ele>186.0</ele><time>2026-05-03T11:59:45.593Z</time></trkpt><trkpt lat="46.0845167" lon="13.55786"><ele>192.25</ele><time>2026-05-03T11:59:46.595Z</time></trkpt><trkpt lat="46.0846083" lon="13.5579917"><ele>198.5</ele><time>2026-05-03T11:59:47.594Z</time></trkpt><trkpt lat="46.0846983" lon="13.5581333"><ele>204.75</ele><time>2026-05-03T11:59:48.594Z</time></trkpt><trkpt lat="46.0847767" lon="13.5582717"><ele>211.0</ele><time>2026-05-03T11:59:49.595Z</time></trkpt><trkpt lat="46.0848517" lon="13.5583933"><ele>211.0</ele><time>2026-05-03T11:59:50.598Z</time></trkpt><trkpt lat="46.0849217" lon="13.558505"><ele>211.0</ele><time>2026-05-03T11:59:51.595Z</time></trkpt><trkpt lat="46.08496" lon="13.558625"><ele>211.0</ele><time>2026-05-03T11:59:52.594Z</time></trkpt><trkpt lat="46.0849917" lon="13.55876"><ele>211.0</ele><time>2026-05-03T11:59:53.593Z</time></trkpt><trkpt lat="46.08502" lon="13.558915"><ele>211.0</ele><time>2026-05-03T11:59:54.595Z</time></trkpt><trkpt lat="46.08504" lon="13.55908"><ele>212.75</ele><time>2026-05-03T11:59:55.595Z</time></trkpt><trkpt lat="46.0850383" lon="13.5592583"><ele>214.5</ele><time>2026-05-03T11:59:56.595Z</time></trkpt><trkpt lat="46.0850383" lon="13.5594333"><ele>216.25</ele><time>2026-05-03T11:59:57.595Z</time></trkpt><trkpt lat="46.085055" lon="13.5596"><ele>218.0</ele><time>2026-05-03T11:59:58.594Z</time></trkpt><trkpt lat="46.0850767" lon="13.5597567"><ele>218.0</ele><time>2026-05-03T11:59:59.595Z</time></trkpt><trkpt lat="46.0851117" lon="13.5599183"><ele>218.0</ele><time>2026-05-03T12:00:00.594Z</time></trkpt><trkpt lat="46.0851517" lon="13.5600783"><ele>218.0</ele><time>2026-05-03T12:00:01.595Z</time></trkpt><trkpt lat="46.085205" lon="13.56024"><ele>218.0</ele><time>2026-05-03T12:00:02.595Z</time></trkpt><trkpt lat="46.0852783" lon="13.560395"><ele>225.0</ele><time>2026-05-03T12:00:03.593Z</time></trkpt><trkpt lat="46.0853567" lon="13.5605533"><ele>232.0</ele><time>2026-05-03T12:00:04.594Z</time></trkpt><trkpt lat="46.085425" lon="13.5606983"><ele>239.0</ele><time>2026-05-03T12:00:05.594Z</time></trkpt><trkpt lat="46.08548" lon="13.5608517"><ele>246.0</ele><time>2026-05-03T12:00:06.593Z</time></trkpt><trkpt lat="46.08554" lon="13.561"><ele>246.0</ele><time>2026-05-03T12:00:07.594Z</time></trkpt><trkpt lat="46.0855967" lon="13.5611483"><ele>246.0</ele><time>2026-05-03T12:00:08.594Z</time></trkpt><trkpt lat="46.0856483" lon="13.5613183"><ele>246.0</ele><time>2026-05-03T12:00:09.593Z</time></trkpt><trkpt lat="46.0857083" lon="13.5614967"><ele>246.0</ele><time>2026-05-03T12:00:10.593Z</time></trkpt><trkpt lat="46.0857783" lon="13.5616867"><ele>241.25</ele><time>2026-05-03T12:00:11.593Z</time></trkpt><trkpt lat="46.0858467" lon="13.5618583"><ele>236.5</ele><time>2026-05-03T12:00:12.594Z</time></trkpt><trkpt lat="46.0859333" lon="13.5620083"><ele>231.75</ele><time>2026-05-03T12:00:13.594Z</time></trkpt><trkpt lat="46.0860167" lon="13.56217"><ele>227.0</ele><time>2026-05-03T12:00:14.595Z</time></trkpt><trkpt lat="46.086135" lon="13.5623083"><ele>227.0</ele><time>2026-05-03T12:00:15.594Z</time></trkpt><trkpt lat="46.08623" lon="13.5624633"><ele>227.0</ele><time>2026-05-03T12:00:16.594Z</time></trkpt><trkpt lat="46.086325" lon="13.5626167"><ele>227.0</ele><time>2026-05-03T12:00:17.594Z</time></trkpt><trkpt lat="46.086395" lon="13.5627767"><ele>227.0</ele><time>2026-05-03T12:00:18.595Z</time></trkpt><trkpt lat="46.086445" lon="13.5629517"><ele>232.25</ele><time>2026-05-03T12:00:19.595Z</time></trkpt><trkpt lat="46.08649" lon="13.5631267"><ele>237.5</ele><time>2026-05-03T12:00:20.594Z</time></trkpt><trkpt lat="46.0865117" lon="13.5633183"><ele>242.75</ele><time>2026-05-03T12:00:21.594Z</time></trkpt><trkpt lat="46.0865383" lon="13.563505"><ele>248.0</ele><time>2026-05-03T12:00:22.594Z</time></trkpt><trkpt lat="46.08657" lon="13.563685"><ele>239.25</ele><time>2026-05-03T12:00:23.594Z</time></trkpt><trkpt lat="46.0866367" lon="13.5638467"><ele>230.5</ele><time>2026-05-03T12:00:24.595Z</time></trkpt><trkpt lat="46.0866883" lon="13.5640017"><ele>221.75</ele><time>2026-05-03T12:00:25.595Z</time></trkpt><trkpt lat="46.08676" lon="13.5641467"><ele>213.0</ele><time>2026-05-03T12:00:26.595Z</time></trkpt><trkpt lat="46.08684" lon="13.5642883"><ele>213.0</ele><time>2026-05-03T12:00:27.593Z</time></trkpt><trkpt lat="46.086915" lon="13.5644183"><ele>213.0</ele><time>2026-05-03T12:00:28.593Z</time></trkpt><trkpt lat="46.0869733" lon="13.5645367"><ele>213.0</ele><time>2026-05-03T12:00:29.595Z</time></trkpt><trkpt lat="46.0870133" lon="13.5646517"><ele>213.0</ele><time>2026-05-03T12:00:30.595Z</time></trkpt><trkpt lat="46.0870217" lon="13.5647733"><ele>213.0</ele><time>2026-05-03T12:00:31.595Z</time></trkpt><trkpt lat="46.0870117" lon="13.5649067"><ele>215.25</ele><time>2026-05-03T12:00:32.598Z</time></trkpt><trkpt lat="46.0869933" lon="13.5650567"><ele>217.5</ele><time>2026-05-03T12:00:33.595Z</time></trkpt><trkpt lat="46.086975" lon="13.5652233"><ele>219.75</ele><time>2026-05-03T12:00:34.594Z</time></trkpt><trkpt lat="46.0869617" lon="13.565415"><ele>222.0</ele><time>2026-05-03T12:00:35.594Z</time></trkpt><trkpt lat="46.0869567" lon="13.5656217"><ele>222.25</ele><time>2026-05-03T12:00:36.593Z</time></trkpt><trkpt lat="46.086965" lon="13.5658367"><ele>222.5</ele><time>2026-05-03T12:00:37.594Z</time></trkpt><trkpt lat="46.08697" lon="13.566035"><ele>222.75</ele><time>2026-05-03T12:00:38.595Z</time></trkpt><trkpt lat="46.086995" lon="13.5662333"><ele>223.0</ele><time>2026-05-03T12:00:39.593Z</time></trkpt><trkpt lat="46.087015" lon="13.5664217"><ele>223.0</ele><time>2026-05-03T12:00:40.595Z</time></trkpt><trkpt lat="46.0870333" lon="13.566625"><ele>223.0</ele><time>2026-05-03T12:00:41.595Z</time></trkpt><trkpt lat="46.0870817" lon="13.5668233"><ele>223.0</ele><time>2026-05-03T12:00:42.595Z</time></trkpt><trkpt lat="46.0871067" lon="13.5669983"><ele>223.0</ele><time>2026-05-03T12:00:43.595Z</time></trkpt><trkpt lat="46.0871333" lon="13.56717"><ele>222.75</ele><time>2026-05-03T12:00:44.595Z</time></trkpt><trkpt lat="46.08717" lon="13.5673433"><ele>222.5</ele><time>2026-05-03T12:00:45.595Z</time></trkpt><trkpt lat="46.08723" lon="13.5674983"><ele>222.25</ele><time>2026-05-03T12:00:46.596Z</time></trkpt><trkpt lat="46.0872833" lon="13.5676483"><ele>222.0</ele><time>2026-05-03T12:00:47.595Z</time></trkpt><trkpt lat="46.087355" lon="13.567795"><ele>220.5</ele><time>2026-05-03T12:00:48.594Z</time></trkpt><trkpt lat="46.087445" lon="13.5679317"><ele>219.0</ele><time>2026-05-03T12:00:49.594Z</time></trkpt><trkpt lat="46.087545" lon="13.5680567"><ele>217.5</ele><time>2026-05-03T12:00:50.594Z</time></trkpt><trkpt lat="46.08765" lon="13.5681833"><ele>216.0</ele><time>2026-05-03T12:00:51.593Z</time></trkpt><trkpt lat="46.087755" lon="13.5682967"><ele>216.0</ele><time>2026-05-03T12:00:52.595Z</time></trkpt><trkpt lat="46.0878433" lon="13.56841"><ele>216.0</ele><time>2026-05-03T12:00:53.594Z</time></trkpt><trkpt lat="46.0879167" lon="13.5685333"><ele>216.0</ele><time>2026-05-03T12:00:54.594Z</time></trkpt><trkpt lat="46.0879767" lon="13.5686667"><ele>216.0</ele><time>2026-05-03T12:00:55.596Z</time></trkpt><trkpt lat="46.0880267" lon="13.5688183"><ele>221.25</ele><time>2026-05-03T12:00:56.595Z</time></trkpt><trkpt lat="46.0880933" lon="13.5689933"><ele>226.5</ele><time>2026-05-03T12:00:57.595Z</time></trkpt><trkpt lat="46.088155" lon="13.5691833"><ele>231.75</ele><time>2026-05-03T12:00:58.595Z</time></trkpt><trkpt lat="46.0882067" lon="13.5693683"><ele>237.0</ele><time>2026-05-03T12:00:59.594Z</time></trkpt><trkpt lat="46.088235" lon="13.5695417"><ele>242.25</ele><time>2026-05-03T12:01:00.594Z</time></trkpt><trkpt lat="46.0882383" lon="13.5696933"><ele>247.5</ele><time>2026-05-03T12:01:01.595Z</time></trkpt><trkpt lat="46.08823" lon="13.5698517"><ele>252.75</ele><time>2026-05-03T12:01:02.595Z</time></trkpt><trkpt lat="46.0882067" lon="13.570025"><ele>258.0</ele><time>2026-05-03T12:01:03.596Z</time></trkpt><trkpt lat="46.0881833" lon="13.5702117"><ele>259.0</ele><time>2026-05-03T12:01:04.597Z</time></trkpt><trkpt lat="46.0881783" lon="13.570415"><ele>260.0</ele><time>2026-05-03T12:01:05.594Z</time></trkpt><trkpt lat="46.0881583" lon="13.5706217"><ele>261.0</ele><time>2026-05-03T12:01:06.594Z</time></trkpt><trkpt lat="46.08813" lon="13.570835"><ele>262.0</ele><time>2026-05-03T12:01:07.594Z</time></trkpt><trkpt lat="46.088095" lon="13.571035"><ele>259.75</ele><time>2026-05-03T12:01:08.595Z</time></trkpt><trkpt lat="46.08806" lon="13.5712333"><ele>257.5</ele><time>2026-05-03T12:01:09.596Z</time></trkpt><trkpt lat="46.0880267" lon="13.5714367"><ele>255.25</ele><time>2026-05-03T12:01:10.594Z</time></trkpt><trkpt lat="46.087985" lon="13.5716283"><ele>253.0</ele><time>2026-05-03T12:01:11.595Z</time></trkpt><trkpt lat="46.0879433" lon="13.57182"><ele>253.0</ele><time>2026-05-03T12:01:12.595Z</time></trkpt><trkpt lat="46.0878983" lon="13.572005"><ele>253.0</ele><time>2026-05-03T12:01:13.595Z</time></trkpt><trkpt lat="46.0878467" lon="13.5721683"><ele>253.0</ele><time>2026-05-03T12:01:14.596Z</time></trkpt><trkpt lat="46.0878067" lon="13.57232"><ele>253.0</ele><time>2026-05-03T12:01:15.595Z</time></trkpt><trkpt lat="46.0877817" lon="13.57248"><ele>250.4</ele><time>2026-05-03T12:01:16.596Z</time></trkpt><trkpt lat="46.087745" lon="13.5726283"><ele>247.8</ele><time>2026-05-03T12:01:17.595Z</time></trkpt><trkpt lat="46.08771" lon="13.5727733"><ele>245.2</ele><time>2026-05-03T12:01:18.595Z</time></trkpt><trkpt lat="46.0876633" lon="13.5729067"><ele>242.6</ele><time>2026-05-03T12:01:19.595Z</time></trkpt><trkpt lat="46.087625" lon="13.5730417"><ele>240.0</ele><time>2026-05-03T12:01:20.596Z</time></trkpt><trkpt lat="46.0876067" lon="13.5731467"><ele>237.0</ele><time>2026-05-03T12:01:21.596Z</time></trkpt><trkpt lat="46.0876033" lon="13.573245"><ele>234.0</ele><time>2026-05-03T12:01:22.595Z</time></trkpt><trkpt lat="46.0876383" lon="13.5734067"><ele>231.0</ele><time>2026-05-03T12:01:24.596Z</time></trkpt><trkpt lat="46.0877017" lon="13.573475"><ele>228.0</ele><time>2026-05-03T12:01:25.595Z</time></trkpt><trkpt lat="46.08781" lon="13.5735067"><ele>225.0</ele><time>2026-05-03T12:01:26.595Z</time></trkpt><trkpt lat="46.0879367" lon="13.57351"><ele>225.0</ele><time>2026-05-03T12:01:27.594Z</time></trkpt><trkpt lat="46.0880917" lon="13.5735033"><ele>225.0</ele><time>2026-05-03T12:01:28.595Z</time></trkpt><trkpt lat="46.0882017" lon="13.573515"><ele>225.0</ele><time>2026-05-03T12:01:29.596Z</time></trkpt><trkpt lat="46.0882583" lon="13.5735833"><ele>225.0</ele><time>2026-05-03T12:01:30.595Z</time></trkpt><trkpt lat="46.0883567" lon="13.573665"><ele>224.6</ele><time>2026-05-03T12:01:31.596Z</time></trkpt><trkpt lat="46.0883917" lon="13.5737667"><ele>224.2</ele><time>2026-05-03T12:01:32.595Z</time></trkpt><trkpt lat="46.0884183" lon="13.57386"><ele>223.8</ele><time>2026-05-03T12:01:33.594Z</time></trkpt><trkpt lat="46.0884633" lon="13.573945"><ele>223.4</ele><time>2026-05-03T12:01:34.598Z</time></trkpt><trkpt lat="46.08854" lon="13.574045"><ele>223.0</ele><time>2026-05-03T12:01:36.597Z</time></trkpt><trkpt lat="46.0886683" lon="13.5739683"><ele>222.99999999999997</ele><time>2026-05-03T12:01:38.596Z</time></trkpt><trkpt lat="46.088745" lon="13.5738967"><ele>223.0</ele><time>2026-05-03T12:01:39.595Z</time></trkpt><trkpt lat="46.0888067" lon="13.5738267"><ele>223.0</ele><time>2026-05-03T12:01:40.596Z</time></trkpt><trkpt lat="46.0888583" lon="13.5737417"><ele>223.0</ele><time>2026-05-03T12:01:41.594Z</time></trkpt><trkpt lat="46.0889217" lon="13.5737017"><ele>222.99999999999997</ele><time>2026-05-03T12:01:42.596Z</time></trkpt><trkpt lat="46.089" lon="13.573705"><ele>223.0</ele><time>2026-05-03T12:01:43.595Z</time></trkpt><trkpt lat="46.089075" lon="13.5737233"><ele>222.2</ele><time>2026-05-03T12:01:44.597Z</time></trkpt><trkpt lat="46.0891383" lon="13.5737533"><ele>221.4</ele><time>2026-05-03T12:01:45.595Z</time></trkpt><trkpt lat="46.0892133" lon="13.5738"><ele>220.59999999999997</ele><time>2026-05-03T12:01:46.596Z</time></trkpt><trkpt lat="46.0892967" lon="13.5738817"><ele>219.79999999999998</ele><time>2026-05-03T12:01:47.595Z</time></trkpt><trkpt lat="46.0893983" lon="13.57401"><ele>219.0</ele><time>2026-05-03T12:01:48.594Z</time></trkpt><trkpt lat="46.08948" lon="13.5741233"><ele>219.0</ele><time>2026-05-03T12:01:49.596Z</time></trkpt><trkpt lat="46.089535" lon="13.5742517"><ele>218.99999999999997</ele><time>2026-05-03T12:01:50.595Z</time></trkpt><trkpt lat="46.0895817" lon="13.5743533"><ele>218.99999999999997</ele><time>2026-05-03T12:01:51.595Z</time></trkpt><trkpt lat="46.0896167" lon="13.5744567"><ele>219.0</ele><time>2026-05-03T12:01:52.596Z</time></trkpt><trkpt lat="46.0896533" lon="13.5745583"><ele>219.0</ele><time>2026-05-03T12:01:53.596Z</time></trkpt><trkpt lat="46.0896883" lon="13.5747133"><ele>218.2</ele><time>2026-05-03T12:01:55.595Z</time></trkpt><trkpt lat="46.08977" lon="13.5747433"><ele>217.39999999999998</ele><time>2026-05-03T12:01:57.596Z</time></trkpt><trkpt lat="46.0898983" lon="13.5747217"><ele>216.6</ele><time>2026-05-03T12:01:59.597Z</time></trkpt><trkpt lat="46.09" lon="13.5747333"><ele>215.8</ele><time>2026-05-03T12:02:01.596Z</time></trkpt><trkpt lat="46.090095" lon="13.5748433"><ele>215.0</ele><time>2026-05-03T12:02:03.595Z</time></trkpt><trkpt lat="46.0901533" lon="13.5749367"><ele>215.00000000000003</ele><time>2026-05-03T12:02:04.594Z</time></trkpt><trkpt lat="46.0902067" lon="13.5750367"><ele>215.0</ele><time>2026-05-03T12:02:05.594Z</time></trkpt><trkpt lat="46.0902533" lon="13.57514"><ele>215.0</ele><time>2026-05-03T12:02:06.595Z</time></trkpt><trkpt lat="46.0903" lon="13.575245"><ele>215.0</ele><time>2026-05-03T12:02:07.593Z</time></trkpt><trkpt lat="46.0903367" lon="13.5753533"><ele>215.00000000000003</ele><time>2026-05-03T12:02:08.595Z</time></trkpt><trkpt lat="46.0903733" lon="13.575465"><ele>215.0</ele><time>2026-05-03T12:02:09.594Z</time></trkpt><trkpt lat="46.090425" lon="13.575575"><ele>219.75</ele><time>2026-05-03T12:02:10.594Z</time></trkpt><trkpt lat="46.09048" lon="13.5756917"><ele>224.5</ele><time>2026-05-03T12:02:11.594Z</time></trkpt><trkpt lat="46.0905367" lon="13.5758467"><ele>229.25</ele><time>2026-05-03T12:02:12.594Z</time></trkpt><trkpt lat="46.09059" lon="13.5760083"><ele>234.0</ele><time>2026-05-03T12:02:13.594Z</time></trkpt><trkpt lat="46.0906483" lon="13.5761617"><ele>236.16666666666666</ele><time>2026-05-03T12:02:14.595Z</time></trkpt><trkpt lat="46.0906867" lon="13.5762917"><ele>238.33333333333331</ele><time>2026-05-03T12:02:15.593Z</time></trkpt><trkpt lat="46.0907133" lon="13.5764033"><ele>240.5</ele><time>2026-05-03T12:02:16.593Z</time></trkpt><trkpt lat="46.090755" lon="13.5765017"><ele>242.66666666666666</ele><time>2026-05-03T12:02:17.597Z</time></trkpt><trkpt lat="46.0908033" lon="13.5765717"><ele>244.83333333333331</ele><time>2026-05-03T12:02:18.594Z</time></trkpt><trkpt lat="46.0908483" lon="13.576645"><ele>247.0</ele><time>2026-05-03T12:02:19.593Z</time></trkpt><trkpt lat="46.0909167" lon="13.5767"><ele>241.33333333333331</ele><time>2026-05-03T12:02:20.593Z</time></trkpt><trkpt lat="46.0909817" lon="13.576735"><ele>235.66666666666666</ele><time>2026-05-03T12:02:21.594Z</time></trkpt><trkpt lat="46.09107" lon="13.57674"><ele>230.0</ele><time>2026-05-03T12:02:22.594Z</time></trkpt><trkpt lat="46.0911233" lon="13.576655"><ele>224.33333333333331</ele><time>2026-05-03T12:02:23.593Z</time></trkpt><trkpt lat="46.0912167" lon="13.5765667"><ele>218.66666666666666</ele><time>2026-05-03T12:02:24.594Z</time></trkpt><trkpt lat="46.0912883" lon="13.5764717"><ele>213.0</ele><time>2026-05-03T12:02:25.593Z</time></trkpt><trkpt lat="46.0913717" lon="13.5763867"><ele>213.0</ele><time>2026-05-03T12:02:26.595Z</time></trkpt><trkpt lat="46.0914567" lon="13.5763217"><ele>213.0</ele><time>2026-05-03T12:02:27.593Z</time></trkpt><trkpt lat="46.0915367" lon="13.5762767"><ele>213.0</ele><time>2026-05-03T12:02:28.595Z</time></trkpt><trkpt lat="46.0916167" lon="13.5762533"><ele>213.0</ele><time>2026-05-03T12:02:29.593Z</time></trkpt><trkpt lat="46.0916633" lon="13.5763167"><ele>213.0</ele><time>2026-05-03T12:02:30.593Z</time></trkpt><trkpt lat="46.0917183" lon="13.5763867"><ele>213.0</ele><time>2026-05-03T12:02:31.597Z</time></trkpt><trkpt lat="46.09177" lon="13.5764817"><ele>213.8</ele><time>2026-05-03T12:02:32.595Z</time></trkpt><trkpt lat="46.0918367" lon="13.5765917"><ele>214.60000000000002</ele><time>2026-05-03T12:02:33.593Z</time></trkpt><trkpt lat="46.09188" lon="13.576725"><ele>215.39999999999998</ele><time>2026-05-03T12:02:34.594Z</time></trkpt><trkpt lat="46.0919217" lon="13.5768333"><ele>216.2</ele><time>2026-05-03T12:02:35.593Z</time></trkpt><trkpt lat="46.0919633" lon="13.5769317"><ele>217.0</ele><time>2026-05-03T12:02:36.593Z</time></trkpt><trkpt lat="46.092015" lon="13.5770233"><ele>220.2</ele><time>2026-05-03T12:02:37.594Z</time></trkpt><trkpt lat="46.0920817" lon="13.5771033"><ele>223.39999999999998</ele><time>2026-05-03T12:02:38.596Z</time></trkpt><trkpt lat="46.0921833" lon="13.5771883"><ele>226.60000000000002</ele><time>2026-05-03T12:02:39.593Z</time></trkpt><trkpt lat="46.0922883" lon="13.5772667"><ele>229.8</ele><time>2026-05-03T12:02:40.593Z</time></trkpt><trkpt lat="46.0923833" lon="13.5773583"><ele>233.0</ele><time>2026-05-03T12:02:41.595Z</time></trkpt><trkpt lat="46.092475" lon="13.577455"><ele>233.0</ele><time>2026-05-03T12:02:42.594Z</time></trkpt><trkpt lat="46.0925567" lon="13.5775617"><ele>233.0</ele><time>2026-05-03T12:02:43.596Z</time></trkpt><trkpt lat="46.0926467" lon="13.5776583"><ele>233.0</ele><time>2026-05-03T12:02:44.594Z</time></trkpt><trkpt lat="46.0927483" lon="13.5777267"><ele>233.0</ele><time>2026-05-03T12:02:45.595Z</time></trkpt><trkpt lat="46.0928417" lon="13.5777917"><ele>233.0</ele><time>2026-05-03T12:02:46.595Z</time></trkpt><trkpt lat="46.0929333" lon="13.5778483"><ele>235.8</ele><time>2026-05-03T12:02:47.594Z</time></trkpt><trkpt lat="46.0930267" lon="13.5778983"><ele>238.60000000000002</ele><time>2026-05-03T12:02:48.594Z</time></trkpt><trkpt lat="46.0931167" lon="13.5779467"><ele>241.39999999999998</ele><time>2026-05-03T12:02:49.593Z</time></trkpt><trkpt lat="46.093225" lon="13.578"><ele>244.2</ele><time>2026-05-03T12:02:50.596Z</time></trkpt><trkpt lat="46.0933217" lon="13.5780717"><ele>247.0</ele><time>2026-05-03T12:02:51.593Z</time></trkpt><trkpt lat="46.0934167" lon="13.5781233"><ele>247.0</ele><time>2026-05-03T12:02:52.594Z</time></trkpt><trkpt lat="46.093505" lon="13.5781467"><ele>247.0</ele><time>2026-05-03T12:02:53.595Z</time></trkpt><trkpt lat="46.0935833" lon="13.57817"><ele>247.0</ele><time>2026-05-03T12:02:54.595Z</time></trkpt><trkpt lat="46.0936767" lon="13.578205"><ele>247.0</ele><time>2026-05-03T12:02:55.594Z</time></trkpt><trkpt lat="46.0937883" lon="13.5782617"><ele>247.0</ele><time>2026-05-03T12:02:56.595Z</time></trkpt><trkpt lat="46.09389" lon="13.5783167"><ele>246.99999999999997</ele><time>2026-05-03T12:02:57.593Z</time></trkpt><trkpt lat="46.0939867" lon="13.578355"><ele>247.0</ele><time>2026-05-03T12:02:58.593Z</time></trkpt><trkpt lat="46.0940717" lon="13.578355"><ele>247.0</ele><time>2026-05-03T12:02:59.593Z</time></trkpt><trkpt lat="46.0941583" lon="13.5783417"><ele>247.0</ele><time>2026-05-03T12:03:00.596Z</time></trkpt><trkpt lat="46.0942417" lon="13.578305"><ele>246.99999999999997</ele><time>2026-05-03T12:03:01.594Z</time></trkpt><trkpt lat="46.0943283" lon="13.5782717"><ele>247.0</ele><time>2026-05-03T12:03:02.594Z</time></trkpt><trkpt lat="46.0944067" lon="13.578245"><ele>245.0</ele><time>2026-05-03T12:03:03.594Z</time></trkpt><trkpt lat="46.094475" lon="13.57825"><ele>243.0</ele><time>2026-05-03T12:03:04.597Z</time></trkpt><trkpt lat="46.0945767" lon="13.5783483"><ele>241.0</ele><time>2026-05-03T12:03:06.593Z</time></trkpt><trkpt lat="46.0946417" lon="13.5784283"><ele>239.0</ele><time>2026-05-03T12:03:07.593Z</time></trkpt><trkpt lat="46.0947183" lon="13.5785117"><ele>237.0</ele><time>2026-05-03T12:03:08.593Z</time></trkpt><trkpt lat="46.09481" lon="13.5785983"><ele>234.8</ele><time>2026-05-03T12:03:09.593Z</time></trkpt><trkpt lat="46.0949367" lon="13.5786833"><ele>232.6</ele><time>2026-05-03T12:03:10.595Z</time></trkpt><trkpt lat="46.095025" lon="13.57875"><ele>230.40000000000003</ele><time>2026-05-03T12:03:11.596Z</time></trkpt><trkpt lat="46.0951083" lon="13.5788167"><ele>228.20000000000002</ele><time>2026-05-03T12:03:12.593Z</time></trkpt><trkpt lat="46.09518" lon="13.5788867"><ele>226.0</ele><time>2026-05-03T12:03:13.594Z</time></trkpt><trkpt lat="46.0952317" lon="13.5789583"><ele>230.4</ele><time>2026-05-03T12:03:14.595Z</time></trkpt><trkpt lat="46.0952683" lon="13.57911"><ele>234.8</ele><time>2026-05-03T12:03:16.594Z</time></trkpt><trkpt lat="46.095225" lon="13.5792767"><ele>239.20000000000002</ele><time>2026-05-03T12:03:18.594Z</time></trkpt><trkpt lat="46.0951733" lon="13.5793667"><ele>243.60000000000002</ele><time>2026-05-03T12:03:19.594Z</time></trkpt><trkpt lat="46.0951167" lon="13.5794633"><ele>248.0</ele><time>2026-05-03T12:03:20.597Z</time></trkpt><trkpt lat="46.0950517" lon="13.5795733"><ele>248.0</ele><time>2026-05-03T12:03:21.594Z</time></trkpt><trkpt lat="46.0949867" lon="13.57969"><ele>248.0</ele><time>2026-05-03T12:03:22.593Z</time></trkpt><trkpt lat="46.09491" lon="13.57984"><ele>248.0</ele><time>2026-05-03T12:03:23.594Z</time></trkpt><trkpt lat="46.0948333" lon="13.5799917"><ele>248.0</ele><time>2026-05-03T12:03:24.594Z</time></trkpt><trkpt lat="46.0947617" lon="13.5801083"><ele>251.66666666666669</ele><time>2026-05-03T12:03:25.595Z</time></trkpt><trkpt lat="46.09469" lon="13.580215"><ele>255.33333333333334</ele><time>2026-05-03T12:03:26.594Z</time></trkpt><trkpt lat="46.0946417" lon="13.5803017"><ele>259.0</ele><time>2026-05-03T12:03:27.595Z</time></trkpt><trkpt lat="46.0946117" lon="13.5804017"><ele>262.6666666666667</ele><time>2026-05-03T12:03:28.595Z</time></trkpt><trkpt lat="46.09459" lon="13.580535"><ele>266.3333333333333</ele><time>2026-05-03T12:03:29.594Z</time></trkpt><trkpt lat="46.0945817" lon="13.5806367"><ele>270.0</ele><time>2026-05-03T12:03:30.594Z</time></trkpt><trkpt lat="46.09461" lon="13.5807317"><ele>270.0</ele><time>2026-05-03T12:03:31.593Z</time></trkpt><trkpt lat="46.0946717" lon="13.580855"><ele>270.0</ele><time>2026-05-03T12:03:33.594Z</time></trkpt><trkpt lat="46.094825" lon="13.5808367"><ele>270.0</ele><time>2026-05-03T12:03:35.594Z</time></trkpt><trkpt lat="46.0949367" lon="13.5807883"><ele>270.0</ele><time>2026-05-03T12:03:36.593Z</time></trkpt><trkpt lat="46.095045" lon="13.58072"><ele>266.0</ele><time>2026-05-03T12:03:37.594Z</time></trkpt><trkpt lat="46.09514" lon="13.5806517"><ele>262.0</ele><time>2026-05-03T12:03:38.593Z</time></trkpt><trkpt lat="46.09521" lon="13.5806283"><ele>258.0</ele><time>2026-05-03T12:03:39.593Z</time></trkpt><trkpt lat="46.0952883" lon="13.5806183"><ele>254.0</ele><time>2026-05-03T12:03:40.594Z</time></trkpt><trkpt lat="46.095355" lon="13.5806267"><ele>250.0</ele><time>2026-05-03T12:03:41.593Z</time></trkpt><trkpt lat="46.095495" lon="13.58067"><ele>249.99999999999997</ele><time>2026-05-03T12:03:43.595Z</time></trkpt><trkpt lat="46.0955983" lon="13.58072"><ele>250.0</ele><time>2026-05-03T12:03:44.595Z</time></trkpt><trkpt lat="46.09569" lon="13.580765"><ele>250.0</ele><time>2026-05-03T12:03:45.594Z</time></trkpt><trkpt lat="46.0957717" lon="13.5808083"><ele>250.0</ele><time>2026-05-03T12:03:46.593Z</time></trkpt><trkpt lat="46.0958417" lon="13.5808433"><ele>249.99999999999997</ele><time>2026-05-03T12:03:47.594Z</time></trkpt><trkpt lat="46.0958967" lon="13.580895"><ele>250.0</ele><time>2026-05-03T12:03:48.594Z</time></trkpt><trkpt lat="46.0959467" lon="13.581055"><ele>248.8</ele><time>2026-05-03T12:03:50.594Z</time></trkpt><trkpt lat="46.0959667" lon="13.5811433"><ele>247.6</ele><time>2026-05-03T12:03:51.593Z</time></trkpt><trkpt lat="46.0960083" lon="13.5812983"><ele>246.39999999999998</ele><time>2026-05-03T12:03:53.593Z</time></trkpt><trkpt lat="46.096005" lon="13.581425"><ele>245.2</ele><time>2026-05-03T12:03:55.593Z</time></trkpt><trkpt lat="46.0960967" lon="13.58141"><ele>244.0</ele><time>2026-05-03T12:03:58.593Z</time></trkpt><trkpt lat="46.0962133" lon="13.5813083"><ele>244.0</ele><time>2026-05-03T12:03:59.595Z</time></trkpt><trkpt lat="46.0963517" lon="13.5812067"><ele>243.99999999999997</ele><time>2026-05-03T12:04:00.593Z</time></trkpt><trkpt lat="46.096455" lon="13.5811033"><ele>243.99999999999997</ele><time>2026-05-03T12:04:01.595Z</time></trkpt><trkpt lat="46.0965133" lon="13.5810217"><ele>244.0</ele><time>2026-05-03T12:04:02.595Z</time></trkpt><trkpt lat="46.0965367" lon="13.5809283"><ele>244.0</ele><time>2026-05-03T12:04:03.594Z</time></trkpt><trkpt lat="46.0966267" lon="13.5808367"><ele>244.25</ele><time>2026-05-03T12:04:05.595Z</time></trkpt><trkpt lat="46.09669" lon="13.5808267"><ele>244.5</ele><time>2026-05-03T12:04:06.593Z</time></trkpt><trkpt lat="46.0967867" lon="13.5808917"><ele>244.75</ele><time>2026-05-03T12:04:07.595Z</time></trkpt><trkpt lat="46.0969267" lon="13.5810167"><ele>245.0</ele><time>2026-05-03T12:04:08.595Z</time></trkpt><trkpt lat="46.0970567" lon="13.58114"><ele>248.33333333333334</ele><time>2026-05-03T12:04:09.594Z</time></trkpt><trkpt lat="46.0971567" lon="13.58121"><ele>251.66666666666669</ele><time>2026-05-03T12:04:10.595Z</time></trkpt><trkpt lat="46.0972367" lon="13.5812717"><ele>255.0</ele><time>2026-05-03T12:04:11.595Z</time></trkpt><trkpt lat="46.0972933" lon="13.5813367"><ele>258.3333333333333</ele><time>2026-05-03T12:04:12.594Z</time></trkpt><trkpt lat="46.0973367" lon="13.5814133"><ele>261.66666666666663</ele><time>2026-05-03T12:04:13.594Z</time></trkpt><trkpt lat="46.0973733" lon="13.581495"><ele>265.0</ele><time>2026-05-03T12:04:14.595Z</time></trkpt><trkpt lat="46.0973967" lon="13.5815817"><ele>264.4</ele><time>2026-05-03T12:04:15.593Z</time></trkpt><trkpt lat="46.09742" lon="13.58168"><ele>263.8</ele><time>2026-05-03T12:04:16.594Z</time></trkpt><trkpt lat="46.09743" lon="13.5818317"><ele>263.2</ele><time>2026-05-03T12:04:17.594Z</time></trkpt><trkpt lat="46.0974317" lon="13.5819983"><ele>262.6</ele><time>2026-05-03T12:04:18.594Z</time></trkpt><trkpt lat="46.0974467" lon="13.582155"><ele>262.0</ele><time>2026-05-03T12:04:19.595Z</time></trkpt><trkpt lat="46.09746" lon="13.5823033"><ele>262.0</ele><time>2026-05-03T12:04:20.595Z</time></trkpt><trkpt lat="46.0974733" lon="13.58244"><ele>262.0</ele><time>2026-05-03T12:04:21.594Z</time></trkpt><trkpt lat="46.0974833" lon="13.5825567"><ele>262.0</ele><time>2026-05-03T12:04:22.595Z</time></trkpt><trkpt lat="46.097465" lon="13.58267"><ele>262.0</ele><time>2026-05-03T12:04:23.596Z</time></trkpt><trkpt lat="46.0974117" lon="13.58279"><ele>262.0</ele><time>2026-05-03T12:04:24.593Z</time></trkpt><trkpt lat="46.0973567" lon="13.582925"><ele>268.75</ele><time>2026-05-03T12:04:25.595Z</time></trkpt><trkpt lat="46.0973183" lon="13.58307"><ele>275.5</ele><time>2026-05-03T12:04:26.594Z</time></trkpt><trkpt lat="46.097295" lon="13.5832267"><ele>282.25</ele><time>2026-05-03T12:04:27.594Z</time></trkpt><trkpt lat="46.0972883" lon="13.583405"><ele>289.0</ele><time>2026-05-03T12:04:28.595Z</time></trkpt><trkpt lat="46.097295" lon="13.5835867"><ele>288.8</ele><time>2026-05-03T12:04:29.595Z</time></trkpt><trkpt lat="46.0973067" lon="13.583765"><ele>288.59999999999997</ele><time>2026-05-03T12:04:30.595Z</time></trkpt><trkpt lat="46.0973017" lon="13.5839117"><ele>288.4</ele><time>2026-05-03T12:04:31.593Z</time></trkpt><trkpt lat="46.097285" lon="13.584035"><ele>288.2</ele><time>2026-05-03T12:04:32.595Z</time></trkpt><trkpt lat="46.0972683" lon="13.5841367"><ele>288.0</ele><time>2026-05-03T12:04:33.593Z</time></trkpt><trkpt lat="46.09725" lon="13.5842383"><ele>288.0</ele><time>2026-05-03T12:04:34.593Z</time></trkpt><trkpt lat="46.097275" lon="13.5844"><ele>288.0</ele><time>2026-05-03T12:04:36.593Z</time></trkpt><trkpt lat="46.097375" lon="13.5844883"><ele>288.0</ele><time>2026-05-03T12:04:38.593Z</time></trkpt><trkpt lat="46.0974567" lon="13.5845017"><ele>288.0</ele><time>2026-05-03T12:04:39.594Z</time></trkpt><trkpt lat="46.0975283" lon="13.5844917"><ele>288.0</ele><time>2026-05-03T12:04:40.596Z</time></trkpt><trkpt lat="46.0975617" lon="13.5843667"><ele>283.0</ele><time>2026-05-03T12:04:41.594Z</time></trkpt><trkpt lat="46.0976133" lon="13.5842783"><ele>278.0</ele><time>2026-05-03T12:04:42.594Z</time></trkpt><trkpt lat="46.0976767" lon="13.5841833"><ele>273.0</ele><time>2026-05-03T12:04:43.593Z</time></trkpt><trkpt lat="46.0977317" lon="13.584035"><ele>268.0</ele><time>2026-05-03T12:04:44.594Z</time></trkpt><trkpt lat="46.097795" lon="13.5838733"><ele>263.0</ele><time>2026-05-03T12:04:45.594Z</time></trkpt><trkpt lat="46.0978617" lon="13.5837483"><ele>262.8</ele><time>2026-05-03T12:04:46.594Z</time></trkpt><trkpt lat="46.0979183" lon="13.5836283"><ele>262.6</ele><time>2026-05-03T12:04:47.594Z</time></trkpt><trkpt lat="46.097965" lon="13.5835233"><ele>262.4</ele><time>2026-05-03T12:04:48.594Z</time></trkpt><trkpt lat="46.0980567" lon="13.5834183"><ele>262.2</ele><time>2026-05-03T12:04:50.594Z</time></trkpt><trkpt lat="46.0981533" lon="13.5834633"><ele>262.0</ele><time>2026-05-03T12:04:51.593Z</time></trkpt><trkpt lat="46.0982533" lon="13.583495"><ele>262.2</ele><time>2026-05-03T12:04:52.595Z</time></trkpt><trkpt lat="46.09833" lon="13.5835283"><ele>262.4</ele><time>2026-05-03T12:04:53.593Z</time></trkpt><trkpt lat="46.0984233" lon="13.5835817"><ele>262.6</ele><time>2026-05-03T12:04:54.594Z</time></trkpt><trkpt lat="46.0985317" lon="13.5836433"><ele>262.8</ele><time>2026-05-03T12:04:55.596Z</time></trkpt><trkpt lat="46.0986267" lon="13.5837033"><ele>263.0</ele><time>2026-05-03T12:04:56.595Z</time></trkpt><trkpt lat="46.0987333" lon="13.583785"><ele>263.0</ele><time>2026-05-03T12:04:57.595Z</time></trkpt><trkpt lat="46.098815" lon="13.58389"><ele>263.0</ele><time>2026-05-03T12:04:58.593Z</time></trkpt><trkpt lat="46.09887" lon="13.584015"><ele>263.0</ele><time>2026-05-03T12:04:59.594Z</time></trkpt><trkpt lat="46.0989183" lon="13.5841483"><ele>263.0</ele><time>2026-05-03T12:05:00.595Z</time></trkpt><trkpt lat="46.0989633" lon="13.5842667"><ele>263.0</ele><time>2026-05-03T12:05:01.594Z</time></trkpt><trkpt lat="46.0989967" lon="13.5843783"><ele>263.0</ele><time>2026-05-03T12:05:02.595Z</time></trkpt><trkpt lat="46.0990333" lon="13.584485"><ele>263.0</ele><time>2026-05-03T12:05:03.594Z</time></trkpt><trkpt lat="46.09905" lon="13.5845933"><ele>263.0</ele><time>2026-05-03T12:05:04.593Z</time></trkpt><trkpt lat="46.09904" lon="13.5847"><ele>263.0</ele><time>2026-05-03T12:05:05.595Z</time></trkpt><trkpt lat="46.0990133" lon="13.5848033"><ele>263.0</ele><time>2026-05-03T12:05:06.593Z</time></trkpt><trkpt lat="46.098995" lon="13.5848967"><ele>263.0</ele><time>2026-05-03T12:05:07.595Z</time></trkpt><trkpt lat="46.09896" lon="13.58498"><ele>263.0</ele><time>2026-05-03T12:05:08.596Z</time></trkpt><trkpt lat="46.0988917" lon="13.58505"><ele>263.0</ele><time>2026-05-03T12:05:09.594Z</time></trkpt><trkpt lat="46.0988" lon="13.58511"><ele>263.0</ele><time>2026-05-03T12:05:10.594Z</time></trkpt><trkpt lat="46.0987283" lon="13.5851817"><ele>263.0</ele><time>2026-05-03T12:05:11.594Z</time></trkpt><trkpt lat="46.0986683" lon="13.5852817"><ele>263.0</ele><time>2026-05-03T12:05:12.594Z</time></trkpt><trkpt lat="46.09862" lon="13.585385"><ele>263.0</ele><time>2026-05-03T12:05:13.593Z</time></trkpt><trkpt lat="46.09861" lon="13.5854933"><ele>263.0</ele><time>2026-05-03T12:05:14.595Z</time></trkpt><trkpt lat="46.0986217" lon="13.585595"><ele>263.0</ele><time>2026-05-03T12:05:15.594Z</time></trkpt><trkpt lat="46.0986683" lon="13.5857"><ele>263.0</ele><time>2026-05-03T12:05:16.595Z</time></trkpt><trkpt lat="46.0987067" lon="13.58582"><ele>263.0</ele><time>2026-05-03T12:05:17.594Z</time></trkpt><trkpt lat="46.098725" lon="13.5859533"><ele>263.0</ele><time>2026-05-03T12:05:18.594Z</time></trkpt><trkpt lat="46.0987267" lon="13.586095"><ele>263.0</ele><time>2026-05-03T12:05:19.595Z</time></trkpt><trkpt lat="46.0986917" lon="13.5862333"><ele>263.5</ele><time>2026-05-03T12:05:20.595Z</time></trkpt><trkpt lat="46.09864" lon="13.58636"><ele>264.0</ele><time>2026-05-03T12:05:21.593Z</time></trkpt><trkpt lat="46.0986283" lon="13.5864783"><ele>264.5</ele><time>2026-05-03T12:05:22.595Z</time></trkpt><trkpt lat="46.09865" lon="13.5865967"><ele>265.0</ele><time>2026-05-03T12:05:23.595Z</time></trkpt><trkpt lat="46.0987033" lon="13.5867067"><ele>265.5</ele><time>2026-05-03T12:05:24.594Z</time></trkpt><trkpt lat="46.0987433" lon="13.5868133"><ele>266.0</ele><time>2026-05-03T12:05:25.594Z</time></trkpt><trkpt lat="46.0988267" lon="13.5868967"><ele>266.0</ele><time>2026-05-03T12:05:26.598Z</time></trkpt><trkpt lat="46.0988933" lon="13.5869717"><ele>266.0</ele><time>2026-05-03T12:05:27.593Z</time></trkpt><trkpt lat="46.0989517" lon="13.5870217"><ele>266.0</ele><time>2026-05-03T12:05:28.594Z</time></trkpt><trkpt lat="46.0990183" lon="13.5870033"><ele>266.0</ele><time>2026-05-03T12:05:29.594Z</time></trkpt><trkpt lat="46.0990567" lon="13.5869183"><ele>266.0</ele><time>2026-05-03T12:05:30.595Z</time></trkpt><trkpt lat="46.0990517" lon="13.5868017"><ele>266.0</ele><time>2026-05-03T12:05:31.594Z</time></trkpt><trkpt lat="46.0989967" lon="13.5866717"><ele>266.0</ele><time>2026-05-03T12:05:32.594Z</time></trkpt><trkpt lat="46.09896" lon="13.5865333"><ele>266.0</ele><time>2026-05-03T12:05:33.594Z</time></trkpt><trkpt lat="46.0989683" lon="13.5863683"><ele>266.0</ele><time>2026-05-03T12:05:34.595Z</time></trkpt><trkpt lat="46.098965" lon="13.5861883"><ele>266.0</ele><time>2026-05-03T12:05:35.595Z</time></trkpt><trkpt lat="46.0989667" lon="13.58601"><ele>265.6</ele><time>2026-05-03T12:05:36.593Z</time></trkpt><trkpt lat="46.0989683" lon="13.5858367"><ele>265.20000000000005</ele><time>2026-05-03T12:05:37.595Z</time></trkpt><trkpt lat="46.0989817" lon="13.585665"><ele>264.79999999999995</ele><time>2026-05-03T12:05:38.597Z</time></trkpt><trkpt lat="46.0989917" lon="13.5855133"><ele>264.4</ele><time>2026-05-03T12:05:39.595Z</time></trkpt><trkpt lat="46.0990083" lon="13.585385"><ele>264.0</ele><time>2026-05-03T12:05:40.595Z</time></trkpt><trkpt lat="46.0990317" lon="13.58526"><ele>264.0</ele><time>2026-05-03T12:05:41.595Z</time></trkpt><trkpt lat="46.09903" lon="13.5851317"><ele>264.0</ele><time>2026-05-03T12:05:42.595Z</time></trkpt><trkpt lat="46.0991033" lon="13.5850433"><ele>264.0</ele><time>2026-05-03T12:05:43.594Z</time></trkpt><trkpt lat="46.0991917" lon="13.58496"><ele>264.0</ele><time>2026-05-03T12:05:44.596Z</time></trkpt><trkpt lat="46.0992933" lon="13.5849"><ele>264.0</ele><time>2026-05-03T12:05:45.594Z</time></trkpt><trkpt lat="46.0994133" lon="13.5848683"><ele>261.25</ele><time>2026-05-03T12:05:46.595Z</time></trkpt><trkpt lat="46.099535" lon="13.584845"><ele>258.5</ele><time>2026-05-03T12:05:47.595Z</time></trkpt><trkpt lat="46.0996517" lon="13.584815"><ele>255.75</ele><time>2026-05-03T12:05:48.595Z</time></trkpt><trkpt lat="46.0998083" lon="13.5848467"><ele>253.0</ele><time>2026-05-03T12:05:49.595Z</time></trkpt><trkpt lat="46.0998783" lon="13.58491"><ele>249.2</ele><time>2026-05-03T12:05:50.595Z</time></trkpt><trkpt lat="46.0999617" lon="13.5849983"><ele>245.4</ele><time>2026-05-03T12:05:51.596Z</time></trkpt><trkpt lat="46.1000317" lon="13.5850617"><ele>241.59999999999997</ele><time>2026-05-03T12:05:52.594Z</time></trkpt><trkpt lat="46.1001467" lon="13.5850483"><ele>237.79999999999998</ele><time>2026-05-03T12:05:54.595Z</time></trkpt><trkpt lat="46.1001783" lon="13.5849517"><ele>234.0</ele><time>2026-05-03T12:05:55.594Z</time></trkpt><trkpt lat="46.1000667" lon="13.584725"><ele>234.0</ele><time>2026-05-03T12:05:57.594Z</time></trkpt><trkpt lat="46.0999783" lon="13.5845733"><ele>234.0</ele><time>2026-05-03T12:05:58.594Z</time></trkpt><trkpt lat="46.0999033" lon="13.5843967"><ele>234.0</ele><time>2026-05-03T12:05:59.595Z</time></trkpt><trkpt lat="46.0998033" lon="13.5842033"><ele>234.0</ele><time>2026-05-03T12:06:00.594Z</time></trkpt><trkpt lat="46.0996883" lon="13.584"><ele>233.66666666666669</ele><time>2026-05-03T12:06:01.594Z</time></trkpt><trkpt lat="46.0996017" lon="13.583795"><ele>233.33333333333334</ele><time>2026-05-03T12:06:02.594Z</time></trkpt><trkpt lat="46.0995017" lon="13.5836133"><ele>233.0</ele><time>2026-05-03T12:06:03.594Z</time></trkpt><trkpt lat="46.099435" lon="13.5834467"><ele>233.0</ele><time>2026-05-03T12:06:04.594Z</time></trkpt><trkpt lat="46.0993583" lon="13.5832833"><ele>233.0</ele><time>2026-05-03T12:06:05.594Z</time></trkpt><trkpt lat="46.099325" lon="13.5831117"><ele>233.0</ele><time>2026-05-03T12:06:06.595Z</time></trkpt><trkpt lat="46.0993117" lon="13.5829233"><ele>233.0</ele><time>2026-05-03T12:06:07.594Z</time></trkpt><trkpt lat="46.0992817" lon="13.58272"><ele>228.33333333333334</ele><time>2026-05-03T12:06:08.595Z</time></trkpt><trkpt lat="46.099275" lon="13.5824933"><ele>223.66666666666669</ele><time>2026-05-03T12:06:09.594Z</time></trkpt><trkpt lat="46.0992467" lon="13.582265"><ele>219.0</ele><time>2026-05-03T12:06:10.595Z</time></trkpt><trkpt lat="46.09922" lon="13.5820333"><ele>219.33333333333331</ele><time>2026-05-03T12:06:11.594Z</time></trkpt><trkpt lat="46.0991817" lon="13.58182"><ele>219.66666666666666</ele><time>2026-05-03T12:06:12.595Z</time></trkpt><trkpt lat="46.0991333" lon="13.5816117"><ele>220.0</ele><time>2026-05-03T12:06:13.595Z</time></trkpt><trkpt lat="46.0990767" lon="13.581415"><ele>220.0</ele><time>2026-05-03T12:06:14.594Z</time></trkpt><trkpt lat="46.09901" lon="13.5812217"><ele>220.0</ele><time>2026-05-03T12:06:15.597Z</time></trkpt><trkpt lat="46.0989283" lon="13.5810433"><ele>220.0</ele><time>2026-05-03T12:06:16.594Z</time></trkpt><trkpt lat="46.098855" lon="13.5808767"><ele>220.0</ele><time>2026-05-03T12:06:17.595Z</time></trkpt><trkpt lat="46.098795" lon="13.58072"><ele>219.0</ele><time>2026-05-03T12:06:18.596Z</time></trkpt><trkpt lat="46.0987517" lon="13.5805683"><ele>218.0</ele><time>2026-05-03T12:06:19.595Z</time></trkpt><trkpt lat="46.09872" lon="13.5804283"><ele>217.0</ele><time>2026-05-03T12:06:20.597Z</time></trkpt><trkpt lat="46.0986917" lon="13.5802783"><ele>216.0</ele><time>2026-05-03T12:06:21.597Z</time></trkpt><trkpt lat="46.0986667" lon="13.5801067"><ele>215.0</ele><time>2026-05-03T12:06:22.595Z</time></trkpt><trkpt lat="46.0986283" lon="13.5799133"><ele>215.0</ele><time>2026-05-03T12:06:23.595Z</time></trkpt><trkpt lat="46.09858" lon="13.5797233"><ele>215.0</ele><time>2026-05-03T12:06:24.595Z</time></trkpt><trkpt lat="46.09852" lon="13.5795733"><ele>215.0</ele><time>2026-05-03T12:06:25.595Z</time></trkpt><trkpt lat="46.098425" lon="13.5794317"><ele>215.0</ele><time>2026-05-03T12:06:26.595Z</time></trkpt><trkpt lat="46.0983267" lon="13.5793017"><ele>213.5</ele><time>2026-05-03T12:06:27.594Z</time></trkpt><trkpt lat="46.0982183" lon="13.5791783"><ele>212.0</ele><time>2026-05-03T12:06:28.595Z</time></trkpt><trkpt lat="46.0981033" lon="13.57907"><ele>210.5</ele><time>2026-05-03T12:06:29.595Z</time></trkpt><trkpt lat="46.0979883" lon="13.5789733"><ele>209.0</ele><time>2026-05-03T12:06:30.594Z</time></trkpt><trkpt lat="46.0978567" lon="13.5788967"><ele>209.0</ele><time>2026-05-03T12:06:31.595Z</time></trkpt><trkpt lat="46.097705" lon="13.5788567"><ele>209.0</ele><time>2026-05-03T12:06:32.594Z</time></trkpt><trkpt lat="46.097535" lon="13.57883"><ele>209.0</ele><time>2026-05-03T12:06:33.594Z</time></trkpt><trkpt lat="46.09737" lon="13.5788033"><ele>209.0</ele><time>2026-05-03T12:06:34.594Z</time></trkpt><trkpt lat="46.09721" lon="13.578795"><ele>209.0</ele><time>2026-05-03T12:06:35.594Z</time></trkpt><trkpt lat="46.0970517" lon="13.57878"><ele>209.0</ele><time>2026-05-03T12:06:36.595Z</time></trkpt><trkpt lat="46.0969067" lon="13.5787583"><ele>209.0</ele><time>2026-05-03T12:06:37.595Z</time></trkpt><trkpt lat="46.0967633" lon="13.5787133"><ele>209.0</ele><time>2026-05-03T12:06:38.595Z</time></trkpt><trkpt lat="46.0966367" lon="13.5786383"><ele>209.0</ele><time>2026-05-03T12:06:39.594Z</time></trkpt><trkpt lat="46.09653" lon="13.5785217"><ele>209.0</ele><time>2026-05-03T12:06:40.596Z</time></trkpt><trkpt lat="46.0964383" lon="13.57843"><ele>208.50000000000003</ele><time>2026-05-03T12:06:41.594Z</time></trkpt><trkpt lat="46.09636" lon="13.5783517"><ele>208.0</ele><time>2026-05-03T12:06:42.595Z</time></trkpt><trkpt lat="46.096295" lon="13.5782783"><ele>207.5</ele><time>2026-05-03T12:06:43.594Z</time></trkpt><trkpt lat="46.0962433" lon="13.5782117"><ele>207.0</ele><time>2026-05-03T12:06:44.596Z</time></trkpt><trkpt lat="46.09618" lon="13.57808"><ele>206.50000000000003</ele><time>2026-05-03T12:06:46.594Z</time></trkpt><trkpt lat="46.096115" lon="13.5780933"><ele>206.0</ele><time>2026-05-03T12:06:49.594Z</time></trkpt><trkpt lat="46.09619" lon="13.578185"><ele>206.0</ele><time>2026-05-03T12:06:59.597Z</time></trkpt><trkpt lat="46.096255" lon="13.5782517"><ele>206.0</ele><time>2026-05-03T12:07:00.595Z</time></trkpt><trkpt lat="46.0963433" lon="13.5783567"><ele>206.0</ele><time>2026-05-03T12:07:01.595Z</time></trkpt><trkpt lat="46.0964283" lon="13.57847"><ele>206.0</ele><time>2026-05-03T12:07:02.595Z</time></trkpt><trkpt lat="46.0965033" lon="13.5785583"><ele>206.0</ele><time>2026-05-03T12:07:03.595Z</time></trkpt><trkpt lat="46.0965667" lon="13.5786333"><ele>208.5</ele><time>2026-05-03T12:07:04.595Z</time></trkpt><trkpt lat="46.0966283" lon="13.5786717"><ele>211.0</ele><time>2026-05-03T12:07:05.595Z</time></trkpt><trkpt lat="46.0967233" lon="13.5786117"><ele>213.5</ele><time>2026-05-03T12:07:07.595Z</time></trkpt><trkpt lat="46.096695" lon="13.5783067"><ele>216.0</ele><time>2026-05-03T12:07:10.594Z</time></trkpt><trkpt lat="46.096645" lon="13.57821"><ele>215.20000000000002</ele><time>2026-05-03T12:07:11.595Z</time></trkpt><trkpt lat="46.0965733" lon="13.578115"><ele>214.40000000000003</ele><time>2026-05-03T12:07:12.596Z</time></trkpt><trkpt lat="46.0964883" lon="13.5780133"><ele>213.6</ele><time>2026-05-03T12:07:13.595Z</time></trkpt><trkpt lat="46.0964117" lon="13.577895"><ele>212.8</ele><time>2026-05-03T12:07:14.596Z</time></trkpt><trkpt lat="46.0963417" lon="13.5777767"><ele>212.0</ele><time>2026-05-03T12:07:15.595Z</time></trkpt><trkpt lat="46.09629" lon="13.5776233"><ele>212.0</ele><time>2026-05-03T12:07:16.595Z</time></trkpt><trkpt lat="46.0962367" lon="13.5774567"><ele>212.0</ele><time>2026-05-03T12:07:17.598Z</time></trkpt><trkpt lat="46.0961767" lon="13.5772533"><ele>212.0</ele><time>2026-05-03T12:07:18.596Z</time></trkpt><trkpt lat="46.0961133" lon="13.5770567"><ele>212.0</ele><time>2026-05-03T12:07:19.596Z</time></trkpt><trkpt lat="46.096045" lon="13.5768783"><ele>212.0</ele><time>2026-05-03T12:07:20.596Z</time></trkpt><trkpt lat="46.0959583" lon="13.5767283"><ele>212.0</ele><time>2026-05-03T12:07:21.596Z</time></trkpt><trkpt lat="46.0958617" lon="13.57658"><ele>212.0</ele><time>2026-05-03T12:07:22.596Z</time></trkpt><trkpt lat="46.0957683" lon="13.576425"><ele>212.0</ele><time>2026-05-03T12:07:23.596Z</time></trkpt><trkpt lat="46.0956567" lon="13.5763067"><ele>212.0</ele><time>2026-05-03T12:07:24.595Z</time></trkpt><trkpt lat="46.0955467" lon="13.5761883"><ele>212.0</ele><time>2026-05-03T12:07:25.599Z</time></trkpt><trkpt lat="46.0954367" lon="13.5760683"><ele>212.0</ele><time>2026-05-03T12:07:26.595Z</time></trkpt><trkpt lat="46.0953633" lon="13.5759367"><ele>212.0</ele><time>2026-05-03T12:07:27.597Z</time></trkpt><trkpt lat="46.095295" lon="13.5758183"><ele>216.2</ele><time>2026-05-03T12:07:28.595Z</time></trkpt><trkpt lat="46.095245" lon="13.5756733"><ele>220.39999999999998</ele><time>2026-05-03T12:07:29.595Z</time></trkpt><trkpt lat="46.0952033" lon="13.575515"><ele>224.60000000000002</ele><time>2026-05-03T12:07:30.597Z</time></trkpt><trkpt lat="46.095175" lon="13.57537"><ele>228.8</ele><time>2026-05-03T12:07:31.595Z</time></trkpt><trkpt lat="46.095125" lon="13.575245"><ele>233.0</ele><time>2026-05-03T12:07:32.595Z</time></trkpt><trkpt lat="46.0950567" lon="13.5751317"><ele>234.8</ele><time>2026-05-03T12:07:33.594Z</time></trkpt><trkpt lat="46.094975" lon="13.5750183"><ele>236.60000000000002</ele><time>2026-05-03T12:07:34.596Z</time></trkpt><trkpt lat="46.0949117" lon="13.5748967"><ele>238.39999999999998</ele><time>2026-05-03T12:07:35.594Z</time></trkpt><trkpt lat="46.0948317" lon="13.5748167"><ele>240.2</ele><time>2026-05-03T12:07:36.594Z</time></trkpt><trkpt lat="46.0947417" lon="13.5747667"><ele>242.0</ele><time>2026-05-03T12:07:37.594Z</time></trkpt><trkpt lat="46.094645" lon="13.574765"><ele>242.00000000000003</ele><time>2026-05-03T12:07:38.594Z</time></trkpt><trkpt lat="46.0945583" lon="13.574745"><ele>242.0</ele><time>2026-05-03T12:07:39.597Z</time></trkpt><trkpt lat="46.094475" lon="13.5746883"><ele>242.0</ele><time>2026-05-03T12:07:40.596Z</time></trkpt><trkpt lat="46.09441" lon="13.574615"><ele>242.0</ele><time>2026-05-03T12:07:41.597Z</time></trkpt><trkpt lat="46.09436" lon="13.57455"><ele>242.00000000000003</ele><time>2026-05-03T12:07:42.595Z</time></trkpt><trkpt lat="46.0942683" lon="13.57453"><ele>242.0</ele><time>2026-05-03T12:07:44.594Z</time></trkpt><trkpt lat="46.0941883" lon="13.574555"><ele>242.0</ele><time>2026-05-03T12:07:46.593Z</time></trkpt><trkpt lat="46.0941" lon="13.5745583"><ele>242.0</ele><time>2026-05-03T12:07:47.594Z</time></trkpt><trkpt lat="46.0939933" lon="13.5746067"><ele>242.0</ele><time>2026-05-03T12:07:48.594Z</time></trkpt><trkpt lat="46.0939017" lon="13.57465"><ele>242.0</ele><time>2026-05-03T12:07:49.593Z</time></trkpt><trkpt lat="46.0938233" lon="13.5746667"><ele>242.0</ele><time>2026-05-03T12:07:50.593Z</time></trkpt><trkpt lat="46.0937283" lon="13.574625"><ele>242.50000000000003</ele><time>2026-05-03T12:07:52.594Z</time></trkpt><trkpt lat="46.0937583" lon="13.5744917"><ele>243.0</ele><time>2026-05-03T12:07:54.593Z</time></trkpt><trkpt lat="46.093795" lon="13.57437"><ele>243.5</ele><time>2026-05-03T12:07:55.593Z</time></trkpt><trkpt lat="46.093815" lon="13.57424"><ele>244.0</ele><time>2026-05-03T12:07:56.593Z</time></trkpt><trkpt lat="46.0938033" lon="13.5741183"><ele>244.50000000000003</ele><time>2026-05-03T12:07:57.596Z</time></trkpt><trkpt lat="46.0937817" lon="13.574005"><ele>245.0</ele><time>2026-05-03T12:07:58.593Z</time></trkpt><trkpt lat="46.093785" lon="13.5738517"><ele>245.0</ele><time>2026-05-03T12:08:00.594Z</time></trkpt><trkpt lat="46.09394" lon="13.5737733"><ele>245.0</ele><time>2026-05-03T12:08:02.594Z</time></trkpt><trkpt lat="46.0940367" lon="13.5737067"><ele>245.0</ele><time>2026-05-03T12:08:03.593Z</time></trkpt><trkpt lat="46.09414" lon="13.5735967"><ele>245.0</ele><time>2026-05-03T12:08:04.594Z</time></trkpt><trkpt lat="46.0942233" lon="13.57345"><ele>250.0</ele><time>2026-05-03T12:08:05.595Z</time></trkpt><trkpt lat="46.0943283" lon="13.5733633"><ele>255.0</ele><time>2026-05-03T12:08:06.595Z</time></trkpt><trkpt lat="46.09446" lon="13.573335"><ele>260.0</ele><time>2026-05-03T12:08:07.593Z</time></trkpt><trkpt lat="46.0946083" lon="13.5733233"><ele>265.0</ele><time>2026-05-03T12:08:08.593Z</time></trkpt><trkpt lat="46.094745" lon="13.5732567"><ele>265.0</ele><time>2026-05-03T12:08:09.592Z</time></trkpt><trkpt lat="46.0948717" lon="13.5731117"><ele>265.0</ele><time>2026-05-03T12:08:10.593Z</time></trkpt><trkpt lat="46.094995" lon="13.5729467"><ele>265.0</ele><time>2026-05-03T12:08:11.593Z</time></trkpt><trkpt lat="46.0951067" lon="13.5727917"><ele>268.25</ele><time>2026-05-03T12:08:12.595Z</time></trkpt><trkpt lat="46.0952067" lon="13.5726367"><ele>271.5</ele><time>2026-05-03T12:08:13.594Z</time></trkpt><trkpt lat="46.0952917" lon="13.5724867"><ele>274.75</ele><time>2026-05-03T12:08:14.595Z</time></trkpt><trkpt lat="46.0953533" lon="13.57233"><ele>278.0</ele><time>2026-05-03T12:08:15.594Z</time></trkpt><trkpt lat="46.0953617" lon="13.5721533"><ele>278.0</ele><time>2026-05-03T12:08:16.593Z</time></trkpt><trkpt lat="46.0953933" lon="13.57204"><ele>278.0</ele><time>2026-05-03T12:08:17.595Z</time></trkpt><trkpt lat="46.09542" lon="13.57195"><ele>278.0</ele><time>2026-05-03T12:08:18.593Z</time></trkpt><trkpt lat="46.095505" lon="13.5718733"><ele>278.0</ele><time>2026-05-03T12:08:20.594Z</time></trkpt><trkpt lat="46.0955283" lon="13.5719817"><ele>278.0</ele><time>2026-05-03T12:08:22.594Z</time></trkpt><trkpt lat="46.0954817" lon="13.5720933"><ele>278.0</ele><time>2026-05-03T12:08:23.594Z</time></trkpt><trkpt lat="46.0954067" lon="13.5722333"><ele>278.0</ele><time>2026-05-03T12:08:24.596Z</time></trkpt><trkpt lat="46.0953583" lon="13.572395"><ele>278.0</ele><time>2026-05-03T12:08:25.593Z</time></trkpt><trkpt lat="46.09532" lon="13.5725833"><ele>278.0</ele><time>2026-05-03T12:08:26.594Z</time></trkpt><trkpt lat="46.0952783" lon="13.57277"><ele>278.0</ele><time>2026-05-03T12:08:27.594Z</time></trkpt><trkpt lat="46.0952267" lon="13.5729417"><ele>280.4</ele><time>2026-05-03T12:08:28.594Z</time></trkpt><trkpt lat="46.0951817" lon="13.5730933"><ele>282.8</ele><time>2026-05-03T12:08:29.596Z</time></trkpt><trkpt lat="46.095135" lon="13.5732283"><ele>285.2</ele><time>2026-05-03T12:08:30.593Z</time></trkpt><trkpt lat="46.0951167" lon="13.5733567"><ele>287.6</ele><time>2026-05-03T12:08:31.593Z</time></trkpt><trkpt lat="46.095145" lon="13.5734817"><ele>290.0</ele><time>2026-05-03T12:08:32.595Z</time></trkpt><trkpt lat="46.0951683" lon="13.5735983"><ele>290.0</ele><time>2026-05-03T12:08:33.593Z</time></trkpt><trkpt lat="46.095205" lon="13.5737067"><ele>290.0</ele><time>2026-05-03T12:08:34.594Z</time></trkpt><trkpt lat="46.09527" lon="13.5737783"><ele>290.0</ele><time>2026-05-03T12:08:35.595Z</time></trkpt><trkpt lat="46.0953667" lon="13.5737267"><ele>290.0</ele><time>2026-05-03T12:08:36.593Z</time></trkpt><trkpt lat="46.0954767" lon="13.5736717"><ele>290.0</ele><time>2026-05-03T12:08:37.595Z</time></trkpt><trkpt lat="46.0956" lon="13.5736017"><ele>290.0</ele><time>2026-05-03T12:08:38.595Z</time></trkpt><trkpt lat="46.0957217" lon="13.573515"><ele>290.0</ele><time>2026-05-03T12:08:39.593Z</time></trkpt><trkpt lat="46.0958467" lon="13.5734567"><ele>290.0</ele><time>2026-05-03T12:08:40.597Z</time></trkpt><trkpt lat="46.0959717" lon="13.5734333"><ele>290.0</ele><time>2026-05-03T12:08:41.594Z</time></trkpt><trkpt lat="46.0960717" lon="13.573435"><ele>294.2</ele><time>2026-05-03T12:08:42.595Z</time></trkpt><trkpt lat="46.09616" lon="13.5734733"><ele>298.4</ele><time>2026-05-03T12:08:43.594Z</time></trkpt><trkpt lat="46.0962383" lon="13.5735117"><ele>302.6</ele><time>2026-05-03T12:08:44.594Z</time></trkpt><trkpt lat="46.09631" lon="13.5735217"><ele>306.8</ele><time>2026-05-03T12:08:45.594Z</time></trkpt><trkpt lat="46.0963533" lon="13.5733967"><ele>311.0</ele><time>2026-05-03T12:08:47.594Z</time></trkpt><trkpt lat="46.0962283" lon="13.5732417"><ele>311.0</ele><time>2026-05-03T12:08:49.594Z</time></trkpt><trkpt lat="46.0961333" lon="13.5731717"><ele>311.0</ele><time>2026-05-03T12:08:50.596Z</time></trkpt><trkpt lat="46.0960267" lon="13.5731317"><ele>311.0</ele><time>2026-05-03T12:08:51.593Z</time></trkpt><trkpt lat="46.095925" lon="13.573115"><ele>311.0</ele><time>2026-05-03T12:08:52.593Z</time></trkpt><trkpt lat="46.0958683" lon="13.573045"><ele>311.0</ele><time>2026-05-03T12:08:53.595Z</time></trkpt><trkpt lat="46.09585" lon="13.5728933"><ele>311.0</ele><time>2026-05-03T12:08:55.593Z</time></trkpt><trkpt lat="46.0959317" lon="13.5728517"><ele>311.0</ele><time>2026-05-03T12:08:57.593Z</time></trkpt><trkpt lat="46.0960117" lon="13.5728733"><ele>311.0</ele><time>2026-05-03T12:08:58.596Z</time></trkpt><trkpt lat="46.096125" lon="13.5729583"><ele>311.0</ele><time>2026-05-03T12:08:59.594Z</time></trkpt><trkpt lat="46.0962567" lon="13.5730083"><ele>311.0</ele><time>2026-05-03T12:09:00.593Z</time></trkpt><trkpt lat="46.0963933" lon="13.5730433"><ele>311.0</ele><time>2026-05-03T12:09:01.593Z</time></trkpt><trkpt lat="46.09653" lon="13.5730317"><ele>311.0</ele><time>2026-05-03T12:09:02.594Z</time></trkpt><trkpt lat="46.0966517" lon="13.5730083"><ele>311.0</ele><time>2026-05-03T12:09:03.594Z</time></trkpt><trkpt lat="46.096765" lon="13.5730367"><ele>311.0</ele><time>2026-05-03T12:09:04.595Z</time></trkpt><trkpt lat="46.0968667" lon="13.5731267"><ele>314.5</ele><time>2026-05-03T12:09:05.595Z</time></trkpt><trkpt lat="46.096975" lon="13.5732533"><ele>318.0</ele><time>2026-05-03T12:09:06.594Z</time></trkpt><trkpt lat="46.0970867" lon="13.57337"><ele>321.5</ele><time>2026-05-03T12:09:07.594Z</time></trkpt><trkpt lat="46.0971933" lon="13.5734783"><ele>325.0</ele><time>2026-05-03T12:09:08.593Z</time></trkpt><trkpt lat="46.09728" lon="13.573585"><ele>325.0</ele><time>2026-05-03T12:09:09.596Z</time></trkpt><trkpt lat="46.09735" lon="13.5736783"><ele>325.0</ele><time>2026-05-03T12:09:10.593Z</time></trkpt><trkpt lat="46.0974033" lon="13.5737617"><ele>325.0</ele><time>2026-05-03T12:09:11.595Z</time></trkpt><trkpt lat="46.09748" lon="13.57383"><ele>325.0</ele><time>2026-05-03T12:09:13.594Z</time></trkpt><trkpt lat="46.0974867" lon="13.5736783"><ele>325.0</ele><time>2026-05-03T12:09:15.593Z</time></trkpt><trkpt lat="46.0974533" lon="13.573535"><ele>325.0</ele><time>2026-05-03T12:09:17.598Z</time></trkpt><trkpt lat="46.097415" lon="13.573395"><ele>325.0</ele><time>2026-05-03T12:09:18.594Z</time></trkpt><trkpt lat="46.09733" lon="13.5731483"><ele>325.0</ele><time>2026-05-03T12:09:19.595Z</time></trkpt><trkpt lat="46.0972617" lon="13.5729383"><ele>329.0</ele><time>2026-05-03T12:09:20.594Z</time></trkpt><trkpt lat="46.0972067" lon="13.5727333"><ele>333.0</ele><time>2026-05-03T12:09:21.594Z</time></trkpt><trkpt lat="46.0972017" lon="13.5725217"><ele>337.0</ele><time>2026-05-03T12:09:22.594Z</time></trkpt><trkpt lat="46.0971617" lon="13.572355"><ele>341.0</ele><time>2026-05-03T12:09:23.594Z</time></trkpt><trkpt lat="46.0970967" lon="13.5722033"><ele>341.0</ele><time>2026-05-03T12:09:24.596Z</time></trkpt><trkpt lat="46.0970017" lon="13.57209"><ele>341.0</ele><time>2026-05-03T12:09:25.594Z</time></trkpt><trkpt lat="46.09687" lon="13.572045"><ele>341.0</ele><time>2026-05-03T12:09:26.596Z</time></trkpt><trkpt lat="46.096755" lon="13.57202"><ele>341.0</ele><time>2026-05-03T12:09:27.595Z</time></trkpt><trkpt lat="46.096655" lon="13.572"><ele>342.5</ele><time>2026-05-03T12:09:28.595Z</time></trkpt><trkpt lat="46.096575" lon="13.5719683"><ele>344.0</ele><time>2026-05-03T12:09:29.595Z</time></trkpt><trkpt lat="46.0965033" lon="13.5719283"><ele>345.5</ele><time>2026-05-03T12:09:30.593Z</time></trkpt><trkpt lat="46.096465" lon="13.5718533"><ele>347.0</ele><time>2026-05-03T12:09:31.594Z</time></trkpt><trkpt lat="46.0965483" lon="13.5717633"><ele>348.5</ele><time>2026-05-03T12:09:33.593Z</time></trkpt><trkpt lat="46.096655" lon="13.5717733"><ele>350.0</ele><time>2026-05-03T12:09:34.594Z</time></trkpt><trkpt lat="46.0967783" lon="13.5717717"><ele>350.0</ele><time>2026-05-03T12:09:35.594Z</time></trkpt><trkpt lat="46.096905" lon="13.5717667"><ele>350.0</ele><time>2026-05-03T12:09:36.595Z</time></trkpt><trkpt lat="46.0970217" lon="13.5717733"><ele>350.0</ele><time>2026-05-03T12:09:37.594Z</time></trkpt><trkpt lat="46.0971183" lon="13.571775"><ele>350.0</ele><time>2026-05-03T12:09:38.594Z</time></trkpt><trkpt lat="46.0972" lon="13.5718"><ele>350.0</ele><time>2026-05-03T12:09:39.594Z</time></trkpt><trkpt lat="46.0972667" lon="13.5718367"><ele>350.0</ele><time>2026-05-03T12:09:40.593Z</time></trkpt><trkpt lat="46.0973733" lon="13.5718067"><ele>350.0</ele><time>2026-05-03T12:09:42.593Z</time></trkpt><trkpt lat="46.09733" lon="13.5717167"><ele>350.0</ele><time>2026-05-03T12:09:44.596Z</time></trkpt><trkpt lat="46.09727" lon="13.571655"><ele>350.0</ele><time>2026-05-03T12:09:45.594Z</time></trkpt><trkpt lat="46.0971683" lon="13.57161"><ele>350.0</ele><time>2026-05-03T12:09:46.597Z</time></trkpt><trkpt lat="46.09709" lon="13.5715433"><ele>350.0</ele><time>2026-05-03T12:09:47.594Z</time></trkpt><trkpt lat="46.09703" lon="13.5714783"><ele>350.0</ele><time>2026-05-03T12:09:48.593Z</time></trkpt><trkpt lat="46.0969833" lon="13.5713717"><ele>350.0</ele><time>2026-05-03T12:09:50.593Z</time></trkpt><trkpt lat="46.097035" lon="13.57127"><ele>350.0</ele><time>2026-05-03T12:09:52.594Z</time></trkpt><trkpt lat="46.09709" lon="13.5712017"><ele>350.0</ele><time>2026-05-03T12:09:53.594Z</time></trkpt><trkpt lat="46.0971633" lon="13.571135"><ele>350.0</ele><time>2026-05-03T12:09:54.593Z</time></trkpt><trkpt lat="46.0972383" lon="13.5710783"><ele>350.2</ele><time>2026-05-03T12:09:55.595Z</time></trkpt><trkpt lat="46.0973117" lon="13.5710283"><ele>350.4</ele><time>2026-05-03T12:09:56.594Z</time></trkpt><trkpt lat="46.0973983" lon="13.57096"><ele>350.6</ele><time>2026-05-03T12:09:58.593Z</time></trkpt><trkpt lat="46.0974367" lon="13.5708817"><ele>350.8</ele><time>2026-05-03T12:10:00.596Z</time></trkpt><trkpt lat="46.0974733" lon="13.5707883"><ele>351.0</ele><time>2026-05-03T12:10:02.599Z</time></trkpt><trkpt lat="46.0975833" lon="13.57069"><ele>354.8</ele><time>2026-05-03T12:10:04.594Z</time></trkpt><trkpt lat="46.0976767" lon="13.5706017"><ele>358.6</ele><time>2026-05-03T12:10:06.593Z</time></trkpt><trkpt lat="46.0977483" lon="13.57058"><ele>362.4</ele><time>2026-05-03T12:10:07.595Z</time></trkpt><trkpt lat="46.0978433" lon="13.5705033"><ele>366.2</ele><time>2026-05-03T12:10:09.593Z</time></trkpt><trkpt lat="46.0979333" lon="13.5704533"><ele>370.0</ele><time>2026-05-03T12:10:11.594Z</time></trkpt><trkpt lat="46.097995" lon="13.5704183"><ele>370.0</ele><time>2026-05-03T12:10:12.593Z</time></trkpt><trkpt lat="46.0980567" lon="13.5703667"><ele>370.0</ele><time>2026-05-03T12:10:13.593Z</time></trkpt><trkpt lat="46.098145" lon="13.5702583"><ele>370.0</ele><time>2026-05-03T12:10:15.595Z</time></trkpt><trkpt lat="46.0982" lon="13.5701583"><ele>370.0</ele><time>2026-05-03T12:10:17.593Z</time></trkpt><trkpt lat="46.098155" lon="13.570035"><ele>370.0</ele><time>2026-05-03T12:10:19.595Z</time></trkpt><trkpt lat="46.098095" lon="13.5699467"><ele>369.4</ele><time>2026-05-03T12:10:20.597Z</time></trkpt><trkpt lat="46.0980267" lon="13.5698517"><ele>368.8</ele><time>2026-05-03T12:10:21.595Z</time></trkpt><trkpt lat="46.097955" lon="13.5697633"><ele>368.20000000000005</ele><time>2026-05-03T12:10:22.595Z</time></trkpt><trkpt lat="46.0978783" lon="13.5696733"><ele>367.6</ele><time>2026-05-03T12:10:23.596Z</time></trkpt><trkpt lat="46.0978067" lon="13.5696"><ele>367.0</ele><time>2026-05-03T12:10:24.594Z</time></trkpt><trkpt lat="46.0977433" lon="13.5695183"><ele>367.0</ele><time>2026-05-03T12:10:25.595Z</time></trkpt><trkpt lat="46.0976783" lon="13.5694383"><ele>367.0</ele><time>2026-05-03T12:10:26.596Z</time></trkpt><trkpt lat="46.0976133" lon="13.56937"><ele>367.0</ele><time>2026-05-03T12:10:27.595Z</time></trkpt><trkpt lat="46.097545" lon="13.5693033"><ele>367.0</ele><time>2026-05-03T12:10:28.596Z</time></trkpt><trkpt lat="46.09747" lon="13.569235"><ele>367.0</ele><time>2026-05-03T12:10:29.595Z</time></trkpt><trkpt lat="46.0973983" lon="13.5691667"><ele>367.0</ele><time>2026-05-03T12:10:30.594Z</time></trkpt><trkpt lat="46.09733" lon="13.56911"><ele>367.0</ele><time>2026-05-03T12:10:31.594Z</time></trkpt><trkpt lat="46.097245" lon="13.5690633"><ele>367.0</ele><time>2026-05-03T12:10:32.594Z</time></trkpt><trkpt lat="46.09715" lon="13.5690133"><ele>367.0</ele><time>2026-05-03T12:10:33.593Z</time></trkpt><trkpt lat="46.0970467" lon="13.5689617"><ele>367.0</ele><time>2026-05-03T12:10:34.594Z</time></trkpt><trkpt lat="46.0969383" lon="13.5689083"><ele>367.0</ele><time>2026-05-03T12:10:35.594Z</time></trkpt><trkpt lat="46.0968383" lon="13.5688483"><ele>367.0</ele><time>2026-05-03T12:10:36.594Z</time></trkpt><trkpt lat="46.0967433" lon="13.5687733"><ele>367.0</ele><time>2026-05-03T12:10:37.594Z</time></trkpt><trkpt lat="46.0966533" lon="13.5687083"><ele>367.0</ele><time>2026-05-03T12:10:38.597Z</time></trkpt><trkpt lat="46.096575" lon="13.56863"><ele>367.0</ele><time>2026-05-03T12:10:39.594Z</time></trkpt><trkpt lat="46.0964967" lon="13.5685533"><ele>367.0</ele><time>2026-05-03T12:10:40.594Z</time></trkpt><trkpt lat="46.0964217" lon="13.5684767"><ele>365.3333333333333</ele><time>2026-05-03T12:10:41.593Z</time></trkpt><trkpt lat="46.0963533" lon="13.5684083"><ele>363.66666666666663</ele><time>2026-05-03T12:10:42.595Z</time></trkpt><trkpt lat="46.0962983" lon="13.56833"><ele>362.0</ele><time>2026-05-03T12:10:43.594Z</time></trkpt><trkpt lat="46.0962517" lon="13.5682483"><ele>360.3333333333333</ele><time>2026-05-03T12:10:44.594Z</time></trkpt><trkpt lat="46.09621" lon="13.5681783"><ele>358.6666666666667</ele><time>2026-05-03T12:10:45.594Z</time></trkpt><trkpt lat="46.0961733" lon="13.5680017"><ele>357.0</ele><time>2026-05-03T12:10:47.594Z</time></trkpt><trkpt lat="46.0961717" lon="13.567905"><ele>357.8333333333333</ele><time>2026-05-03T12:10:48.595Z</time></trkpt><trkpt lat="46.09618" lon="13.5677517"><ele>358.6666666666667</ele><time>2026-05-03T12:10:50.6Z</time></trkpt><trkpt lat="46.0962" lon="13.567665"><ele>359.5</ele><time>2026-05-03T12:10:51.593Z</time></trkpt><trkpt lat="46.096225" lon="13.5675683"><ele>360.33333333333337</ele><time>2026-05-03T12:10:52.594Z</time></trkpt><trkpt lat="46.096255" lon="13.567455"><ele>361.1666666666667</ele><time>2026-05-03T12:10:53.594Z</time></trkpt><trkpt lat="46.09628" lon="13.5673333"><ele>362.0</ele><time>2026-05-03T12:10:54.593Z</time></trkpt><trkpt lat="46.096305" lon="13.5672217"><ele>362.0</ele><time>2026-05-03T12:10:55.595Z</time></trkpt><trkpt lat="46.0963133" lon="13.56711"><ele>362.0</ele><time>2026-05-03T12:10:56.595Z</time></trkpt><trkpt lat="46.0963317" lon="13.5670133"><ele>362.0</ele><time>2026-05-03T12:10:57.593Z</time></trkpt><trkpt lat="46.0963733" lon="13.566875"><ele>362.0</ele><time>2026-05-03T12:10:59.595Z</time></trkpt><trkpt lat="46.0963933" lon="13.5667133"><ele>362.0</ele><time>2026-05-03T12:11:01.594Z</time></trkpt><trkpt lat="46.0963983" lon="13.566595"><ele>362.0</ele><time>2026-05-03T12:11:03.594Z</time></trkpt><trkpt lat="46.0963367" lon="13.5664917"><ele>365.0</ele><time>2026-05-03T12:11:06.594Z</time></trkpt><trkpt lat="46.09624" lon="13.566465"><ele>368.0</ele><time>2026-05-03T12:11:08.595Z</time></trkpt><trkpt lat="46.0961217" lon="13.5664633"><ele>371.0</ele><time>2026-05-03T12:11:10.596Z</time></trkpt><trkpt lat="46.0960483" lon="13.5664417"><ele>374.0</ele><time>2026-05-03T12:11:11.595Z</time></trkpt><trkpt lat="46.09597" lon="13.56642"><ele>377.0</ele><time>2026-05-03T12:11:12.598Z</time></trkpt><trkpt lat="46.0958933" lon="13.5664"><ele>380.0</ele><time>2026-05-03T12:11:13.594Z</time></trkpt><trkpt lat="46.09581" lon="13.5663633"><ele>378.33333333333337</ele><time>2026-05-03T12:11:14.595Z</time></trkpt><trkpt lat="46.09572" lon="13.5663"><ele>376.6666666666667</ele><time>2026-05-03T12:11:15.594Z</time></trkpt><trkpt lat="46.0956417" lon="13.5662483"><ele>375.0</ele><time>2026-05-03T12:11:16.594Z</time></trkpt><trkpt lat="46.0955617" lon="13.5661983"><ele>373.3333333333333</ele><time>2026-05-03T12:11:17.594Z</time></trkpt><trkpt lat="46.0954883" lon="13.566155"><ele>371.66666666666663</ele><time>2026-05-03T12:11:18.596Z</time></trkpt><trkpt lat="46.0954217" lon="13.5661067"><ele>370.0</ele><time>2026-05-03T12:11:19.595Z</time></trkpt><trkpt lat="46.095355" lon="13.56605"><ele>374.2</ele><time>2026-05-03T12:11:20.594Z</time></trkpt><trkpt lat="46.0952733" lon="13.5660033"><ele>378.4</ele><time>2026-05-03T12:11:21.595Z</time></trkpt><trkpt lat="46.0951917" lon="13.5659483"><ele>382.6</ele><time>2026-05-03T12:11:22.595Z</time></trkpt><trkpt lat="46.0951" lon="13.5659067"><ele>386.8</ele><time>2026-05-03T12:11:23.596Z</time></trkpt><trkpt lat="46.0949883" lon="13.5658367"><ele>391.0</ele><time>2026-05-03T12:11:24.594Z</time></trkpt><trkpt lat="46.094895" lon="13.565765"><ele>391.1428571428571</ele><time>2026-05-03T12:11:25.595Z</time></trkpt><trkpt lat="46.0948167" lon="13.5657083"><ele>391.2857142857143</ele><time>2026-05-03T12:11:26.596Z</time></trkpt><trkpt lat="46.0947467" lon="13.56564"><ele>391.42857142857144</ele><time>2026-05-03T12:11:27.594Z</time></trkpt><trkpt lat="46.0946817" lon="13.5655883"><ele>391.57142857142856</ele><time>2026-05-03T12:11:28.593Z</time></trkpt><trkpt lat="46.09462" lon="13.5655633"><ele>391.7142857142857</ele><time>2026-05-03T12:11:29.593Z</time></trkpt><trkpt lat="46.0945533" lon="13.56555"><ele>391.85714285714283</ele><time>2026-05-03T12:11:30.596Z</time></trkpt><trkpt lat="46.0944883" lon="13.5655383"><ele>392.0</ele><time>2026-05-03T12:11:31.595Z</time></trkpt><trkpt lat="46.09442" lon="13.5655367"><ele>391.99999999999994</ele><time>2026-05-03T12:11:32.595Z</time></trkpt><trkpt lat="46.0943467" lon="13.5655417"><ele>392.0</ele><time>2026-05-03T12:11:33.594Z</time></trkpt><trkpt lat="46.0942667" lon="13.565575"><ele>392.0</ele><time>2026-05-03T12:11:34.596Z</time></trkpt><trkpt lat="46.0941733" lon="13.5656233"><ele>392.0</ele><time>2026-05-03T12:11:35.595Z</time></trkpt><trkpt lat="46.094085" lon="13.5656767"><ele>391.99999999999994</ele><time>2026-05-03T12:11:36.596Z</time></trkpt><trkpt lat="46.0939967" lon="13.5657233"><ele>392.0</ele><time>2026-05-03T12:11:37.595Z</time></trkpt><trkpt lat="46.0939167" lon="13.5657517"><ele>393.2857142857143</ele><time>2026-05-03T12:11:38.595Z</time></trkpt><trkpt lat="46.0938367" lon="13.5657417"><ele>394.57142857142856</ele><time>2026-05-03T12:11:39.594Z</time></trkpt><trkpt lat="46.0937633" lon="13.5657433"><ele>395.8571428571429</ele><time>2026-05-03T12:11:40.594Z</time></trkpt><trkpt lat="46.093685" lon="13.5657433"><ele>397.1428571428571</ele><time>2026-05-03T12:11:41.596Z</time></trkpt><trkpt lat="46.0936133" lon="13.56573"><ele>398.42857142857144</ele><time>2026-05-03T12:11:42.595Z</time></trkpt><trkpt lat="46.093555" lon="13.5656833"><ele>399.7142857142857</ele><time>2026-05-03T12:11:43.594Z</time></trkpt><trkpt lat="46.0934883" lon="13.5656667"><ele>401.0</ele><time>2026-05-03T12:11:44.596Z</time></trkpt><trkpt lat="46.0933967" lon="13.56559"><ele>400.99999999999994</ele><time>2026-05-03T12:11:46.594Z</time></trkpt><trkpt lat="46.09333" lon="13.565535"><ele>401.0</ele><time>2026-05-03T12:11:48.593Z</time></trkpt><trkpt lat="46.093355" lon="13.5654433"><ele>401.0</ele><time>2026-05-03T12:11:51.594Z</time></trkpt><trkpt lat="46.0933983" lon="13.5653667"><ele>401.0</ele><time>2026-05-03T12:11:53.594Z</time></trkpt><trkpt lat="46.0934483" lon="13.5652883"><ele>400.99999999999994</ele><time>2026-05-03T12:11:55.594Z</time></trkpt><trkpt lat="46.0935317" lon="13.5652"><ele>401.0</ele><time>2026-05-03T12:11:57.594Z</time></trkpt><trkpt lat="46.0936133" lon="13.5651017"><ele>401.8333333333333</ele><time>2026-05-03T12:11:59.594Z</time></trkpt><trkpt lat="46.09367" lon="13.5649983"><ele>402.66666666666663</ele><time>2026-05-03T12:12:01.594Z</time></trkpt><trkpt lat="46.0936767" lon="13.5648883"><ele>403.5</ele><time>2026-05-03T12:12:04.597Z</time></trkpt><trkpt lat="46.0936133" lon="13.5648533"><ele>404.33333333333337</ele><time>2026-05-03T12:12:07.594Z</time></trkpt><trkpt lat="46.0935533" lon="13.5647583"><ele>405.1666666666667</ele><time>2026-05-03T12:12:10.595Z</time></trkpt><trkpt lat="46.093545" lon="13.5646083"><ele>406.0</ele><time>2026-05-03T12:12:12.594Z</time></trkpt><trkpt lat="46.093575" lon="13.5644567"><ele>406.00000000000006</ele><time>2026-05-03T12:12:14.594Z</time></trkpt><trkpt lat="46.093615" lon="13.5643667"><ele>406.0</ele><time>2026-05-03T12:12:15.595Z</time></trkpt><trkpt lat="46.0936467" lon="13.5642717"><ele>406.0</ele><time>2026-05-03T12:12:16.598Z</time></trkpt><trkpt lat="46.093675" lon="13.5641767"><ele>406.0</ele><time>2026-05-03T12:12:17.594Z</time></trkpt><trkpt lat="46.0937083" lon="13.5640367"><ele>406.00000000000006</ele><time>2026-05-03T12:12:19.595Z</time></trkpt><trkpt lat="46.093765" lon="13.5638767"><ele>406.0</ele><time>2026-05-03T12:12:21.596Z</time></trkpt><trkpt lat="46.0938317" lon="13.5637933"><ele>406.00000000000006</ele><time>2026-05-03T12:12:22.595Z</time></trkpt><trkpt lat="46.093905" lon="13.56371"><ele>406.0</ele><time>2026-05-03T12:12:23.594Z</time></trkpt><trkpt lat="46.093995" lon="13.5636283"><ele>406.0</ele><time>2026-05-03T12:12:24.594Z</time></trkpt><trkpt lat="46.094075" lon="13.5635533"><ele>406.0</ele><time>2026-05-03T12:12:25.594Z</time></trkpt><trkpt lat="46.0941333" lon="13.563465"><ele>406.00000000000006</ele><time>2026-05-03T12:12:26.595Z</time></trkpt><trkpt lat="46.0941817" lon="13.5633933"><ele>406.0</ele><time>2026-05-03T12:12:27.595Z</time></trkpt><trkpt lat="46.0942183" lon="13.5633133"><ele>412.50000000000006</ele><time>2026-05-03T12:12:28.597Z</time></trkpt><trkpt lat="46.0942733" lon="13.5631517"><ele>419.0</ele><time>2026-05-03T12:12:30.595Z</time></trkpt><trkpt lat="46.0942933" lon="13.563045"><ele>425.5</ele><time>2026-05-03T12:12:31.595Z</time></trkpt><trkpt lat="46.0943117" lon="13.5629267"><ele>432.0</ele><time>2026-05-03T12:12:32.594Z</time></trkpt><trkpt lat="46.094325" lon="13.56281"><ele>438.50000000000006</ele><time>2026-05-03T12:12:33.594Z</time></trkpt><trkpt lat="46.0943333" lon="13.5627067"><ele>445.0</ele><time>2026-05-03T12:12:34.596Z</time></trkpt><trkpt lat="46.0943233" lon="13.5626117"><ele>446.0</ele><time>2026-05-03T12:12:35.594Z</time></trkpt><trkpt lat="46.094315" lon="13.5625083"><ele>447.0</ele><time>2026-05-03T12:12:36.596Z</time></trkpt><trkpt lat="46.0942783" lon="13.5623783"><ele>448.0</ele><time>2026-05-03T12:12:37.595Z</time></trkpt><trkpt lat="46.0942767" lon="13.562225"><ele>449.0</ele><time>2026-05-03T12:12:39.594Z</time></trkpt><trkpt lat="46.09427" lon="13.56205"><ele>450.0</ele><time>2026-05-03T12:12:41.595Z</time></trkpt><trkpt lat="46.09427" lon="13.561955"><ele>450.3333333333333</ele><time>2026-05-03T12:12:42.594Z</time></trkpt><trkpt lat="46.0943067" lon="13.56179"><ele>450.66666666666663</ele><time>2026-05-03T12:12:44.597Z</time></trkpt><trkpt lat="46.0943433" lon="13.561705"><ele>451.0</ele><time>2026-05-03T12:12:45.595Z</time></trkpt><trkpt lat="46.09438" lon="13.5616233"><ele>451.3333333333333</ele><time>2026-05-03T12:12:46.595Z</time></trkpt><trkpt lat="46.0944067" lon="13.5615367"><ele>451.66666666666663</ele><time>2026-05-03T12:12:47.595Z</time></trkpt><trkpt lat="46.09439" lon="13.5613633"><ele>452.0</ele><time>2026-05-03T12:12:48.594Z</time></trkpt><trkpt lat="46.0944117" lon="13.5612567"><ele>451.66666666666663</ele><time>2026-05-03T12:12:49.595Z</time></trkpt><trkpt lat="46.094425" lon="13.5611533"><ele>451.3333333333333</ele><time>2026-05-03T12:12:50.594Z</time></trkpt><trkpt lat="46.0944283" lon="13.561055"><ele>451.0</ele><time>2026-05-03T12:12:51.595Z</time></trkpt><trkpt lat="46.0944283" lon="13.56096"><ele>450.66666666666663</ele><time>2026-05-03T12:12:52.594Z</time></trkpt><trkpt lat="46.0944" lon="13.5607883"><ele>450.3333333333333</ele><time>2026-05-03T12:12:54.594Z</time></trkpt><trkpt lat="46.0943717" lon="13.5607017"><ele>450.0</ele><time>2026-05-03T12:12:55.595Z</time></trkpt><trkpt lat="46.0943367" lon="13.5606167"><ele>450.0</ele><time>2026-05-03T12:12:56.595Z</time></trkpt><trkpt lat="46.0942917" lon="13.5605217"><ele>450.0</ele><time>2026-05-03T12:12:57.595Z</time></trkpt><trkpt lat="46.0942483" lon="13.560435"><ele>450.0</ele><time>2026-05-03T12:12:58.594Z</time></trkpt><trkpt lat="46.09419" lon="13.5603517"><ele>450.0</ele><time>2026-05-03T12:12:59.595Z</time></trkpt><trkpt lat="46.09413" lon="13.5602783"><ele>450.0</ele><time>2026-05-03T12:13:00.595Z</time></trkpt><trkpt lat="46.0940667" lon="13.5602067"><ele>450.0</ele><time>2026-05-03T12:13:01.595Z</time></trkpt><trkpt lat="46.094" lon="13.5601583"><ele>454.6</ele><time>2026-05-03T12:13:02.594Z</time></trkpt><trkpt lat="46.0939117" lon="13.5601067"><ele>459.2</ele><time>2026-05-03T12:13:03.594Z</time></trkpt><trkpt lat="46.0937867" lon="13.5600167"><ele>463.79999999999995</ele><time>2026-05-03T12:13:04.595Z</time></trkpt><trkpt lat="46.0937167" lon="13.5600017"><ele>468.4</ele><time>2026-05-03T12:13:05.595Z</time></trkpt><trkpt lat="46.093625" lon="13.5599717"><ele>473.0</ele><time>2026-05-03T12:13:06.595Z</time></trkpt><trkpt lat="46.093525" lon="13.5599583"><ele>472.99999999999994</ele><time>2026-05-03T12:13:07.594Z</time></trkpt><trkpt lat="46.0934333" lon="13.5599567"><ele>473.0</ele><time>2026-05-03T12:13:08.595Z</time></trkpt><trkpt lat="46.09335" lon="13.5599567"><ele>473.0</ele><time>2026-05-03T12:13:09.594Z</time></trkpt><trkpt lat="46.0932717" lon="13.5599583"><ele>473.0</ele><time>2026-05-03T12:13:10.595Z</time></trkpt><trkpt lat="46.0931933" lon="13.5599417"><ele>472.99999999999994</ele><time>2026-05-03T12:13:11.596Z</time></trkpt><trkpt lat="46.093115" lon="13.5599267"><ele>473.0</ele><time>2026-05-03T12:13:12.593Z</time></trkpt><trkpt lat="46.0930267" lon="13.5599333"><ele>474.4</ele><time>2026-05-03T12:13:13.594Z</time></trkpt><trkpt lat="46.0929433" lon="13.5599217"><ele>475.79999999999995</ele><time>2026-05-03T12:13:14.594Z</time></trkpt><trkpt lat="46.09285" lon="13.5599183"><ele>477.2</ele><time>2026-05-03T12:13:15.596Z</time></trkpt><trkpt lat="46.0927667" lon="13.5599167"><ele>478.6</ele><time>2026-05-03T12:13:16.595Z</time></trkpt><trkpt lat="46.09269" lon="13.5599167"><ele>480.0</ele><time>2026-05-03T12:13:17.593Z</time></trkpt><trkpt lat="46.0925817" lon="13.5599633"><ele>480.0</ele><time>2026-05-03T12:13:19.595Z</time></trkpt><trkpt lat="46.0925183" lon="13.5600133"><ele>480.0</ele><time>2026-05-03T12:13:21.594Z</time></trkpt><trkpt lat="46.0924383" lon="13.559975"><ele>480.0</ele><time>2026-05-03T12:13:37.594Z</time></trkpt><trkpt lat="46.09242" lon="13.5598217"><ele>480.0</ele><time>2026-05-03T12:13:39.594Z</time></trkpt><trkpt lat="46.09242" lon="13.5597117"><ele>480.0</ele><time>2026-05-03T12:13:40.594Z</time></trkpt><trkpt lat="46.09242" lon="13.559585"><ele>480.0</ele><time>2026-05-03T12:13:41.594Z</time></trkpt><trkpt lat="46.0924217" lon="13.5594633"><ele>480.3333333333333</ele><time>2026-05-03T12:13:42.595Z</time></trkpt><trkpt lat="46.0924333" lon="13.5593467"><ele>480.66666666666663</ele><time>2026-05-03T12:13:43.594Z</time></trkpt><trkpt lat="46.0924517" lon="13.5592433"><ele>481.0</ele><time>2026-05-03T12:13:44.594Z</time></trkpt><trkpt lat="46.0924783" lon="13.559145"><ele>481.3333333333333</ele><time>2026-05-03T12:13:45.594Z</time></trkpt><trkpt lat="46.0925183" lon="13.5590467"><ele>481.66666666666663</ele><time>2026-05-03T12:13:46.595Z</time></trkpt><trkpt lat="46.0925617" lon="13.558935"><ele>482.0</ele><time>2026-05-03T12:13:47.594Z</time></trkpt><trkpt lat="46.0926117" lon="13.558815"><ele>482.0</ele><time>2026-05-03T12:13:48.594Z</time></trkpt><trkpt lat="46.0926667" lon="13.558705"><ele>482.00000000000006</ele><time>2026-05-03T12:13:49.595Z</time></trkpt><trkpt lat="46.0927167" lon="13.558595"><ele>482.00000000000006</ele><time>2026-05-03T12:13:50.595Z</time></trkpt><trkpt lat="46.09276" lon="13.558475"><ele>482.0</ele><time>2026-05-03T12:13:51.595Z</time></trkpt><trkpt lat="46.092785" lon="13.55835"><ele>482.0</ele><time>2026-05-03T12:13:52.598Z</time></trkpt><trkpt lat="46.09281" lon="13.5582133"><ele>480.20000000000005</ele><time>2026-05-03T12:13:53.594Z</time></trkpt><trkpt lat="46.0928333" lon="13.5580833"><ele>478.40000000000003</ele><time>2026-05-03T12:13:54.594Z</time></trkpt><trkpt lat="46.0928517" lon="13.5579467"><ele>476.59999999999997</ele><time>2026-05-03T12:13:55.594Z</time></trkpt><trkpt lat="46.092855" lon="13.5577917"><ele>474.79999999999995</ele><time>2026-05-03T12:13:56.595Z</time></trkpt><trkpt lat="46.0928733" lon="13.5576533"><ele>473.0</ele><time>2026-05-03T12:13:57.595Z</time></trkpt><trkpt lat="46.0928967" lon="13.5575383"><ele>473.14285714285717</ele><time>2026-05-03T12:13:58.594Z</time></trkpt><trkpt lat="46.0929183" lon="13.5574433"><ele>473.2857142857142</ele><time>2026-05-03T12:13:59.596Z</time></trkpt><trkpt lat="46.0929383" lon="13.5573483"><ele>473.4285714285714</ele><time>2026-05-03T12:14:00.594Z</time></trkpt><trkpt lat="46.092955" lon="13.5572467"><ele>473.57142857142856</ele><time>2026-05-03T12:14:01.594Z</time></trkpt><trkpt lat="46.0929633" lon="13.557155"><ele>473.71428571428567</ele><time>2026-05-03T12:14:02.594Z</time></trkpt><trkpt lat="46.0929517" lon="13.556995"><ele>473.8571428571428</ele><time>2026-05-03T12:14:04.594Z</time></trkpt><trkpt lat="46.0929217" lon="13.556915"><ele>473.99999999999994</ele><time>2026-05-03T12:14:05.594Z</time></trkpt><trkpt lat="46.09287" lon="13.5568417"><ele>474.0</ele><time>2026-05-03T12:14:06.595Z</time></trkpt><trkpt lat="46.0928" lon="13.5567533"><ele>474.0</ele><time>2026-05-03T12:14:07.594Z</time></trkpt><trkpt lat="46.0927517" lon="13.55668"><ele>474.0</ele><time>2026-05-03T12:14:08.595Z</time></trkpt><trkpt lat="46.0926817" lon="13.5565233"><ele>474.0</ele><time>2026-05-03T12:14:10.594Z</time></trkpt><trkpt lat="46.0926433" lon="13.5564433"><ele>474.0</ele><time>2026-05-03T12:14:11.594Z</time></trkpt><trkpt lat="46.0926067" lon="13.5563633"><ele>474.0</ele><time>2026-05-03T12:14:12.594Z</time></trkpt><trkpt lat="46.092565" lon="13.5562883"><ele>475.42857142857133</ele><time>2026-05-03T12:14:13.595Z</time></trkpt><trkpt lat="46.09253" lon="13.5561833"><ele>476.85714285714283</ele><time>2026-05-03T12:14:14.596Z</time></trkpt><trkpt lat="46.0924983" lon="13.556085"><ele>478.2857142857142</ele><time>2026-05-03T12:14:15.595Z</time></trkpt><trkpt lat="46.0924767" lon="13.5559917"><ele>479.71428571428567</ele><time>2026-05-03T12:14:16.596Z</time></trkpt><trkpt lat="46.09246" lon="13.5558967"><ele>481.1428571428571</ele><time>2026-05-03T12:14:17.596Z</time></trkpt><trkpt lat="46.0924567" lon="13.5557917"><ele>482.57142857142856</ele><time>2026-05-03T12:14:18.595Z</time></trkpt><trkpt lat="46.0924517" lon="13.5556767"><ele>484.0</ele><time>2026-05-03T12:14:19.595Z</time></trkpt><trkpt lat="46.0924467" lon="13.5555433"><ele>484.00000000000006</ele><time>2026-05-03T12:14:20.594Z</time></trkpt><trkpt lat="46.092425" lon="13.5554267"><ele>484.0</ele><time>2026-05-03T12:14:21.593Z</time></trkpt><trkpt lat="46.092405" lon="13.5553233"><ele>484.0</ele><time>2026-05-03T12:14:22.593Z</time></trkpt><trkpt lat="46.0924017" lon="13.55522"><ele>484.0</ele><time>2026-05-03T12:14:23.596Z</time></trkpt><trkpt lat="46.0924017" lon="13.555115"><ele>484.00000000000006</ele><time>2026-05-03T12:14:24.594Z</time></trkpt><trkpt lat="46.092385" lon="13.554995"><ele>484.0</ele><time>2026-05-03T12:14:25.593Z</time></trkpt><trkpt lat="46.0923633" lon="13.5548683"><ele>481.0</ele><time>2026-05-03T12:14:26.594Z</time></trkpt><trkpt lat="46.092335" lon="13.5547367"><ele>478.0</ele><time>2026-05-03T12:14:27.594Z</time></trkpt><trkpt lat="46.092285" lon="13.5545983"><ele>475.0</ele><time>2026-05-03T12:14:28.594Z</time></trkpt><trkpt lat="46.0922" lon="13.5544467"><ele>472.0</ele><time>2026-05-03T12:14:29.593Z</time></trkpt><trkpt lat="46.0921367" lon="13.5543217"><ele>469.0</ele><time>2026-05-03T12:14:30.593Z</time></trkpt><trkpt lat="46.09208" lon="13.5542083"><ele>469.00000000000006</ele><time>2026-05-03T12:14:31.595Z</time></trkpt><trkpt lat="46.092035" lon="13.5540983"><ele>469.0</ele><time>2026-05-03T12:14:32.596Z</time></trkpt><trkpt lat="46.0920083" lon="13.5539617"><ele>469.0</ele><time>2026-05-03T12:14:34.593Z</time></trkpt><trkpt lat="46.0920083" lon="13.5537983"><ele>469.0</ele><time>2026-05-03T12:14:36.594Z</time></trkpt><trkpt lat="46.0920033" lon="13.553695"><ele>469.00000000000006</ele><time>2026-05-03T12:14:37.594Z</time></trkpt><trkpt lat="46.0919983" lon="13.553595"><ele>469.0</ele><time>2026-05-03T12:14:38.595Z</time></trkpt><trkpt lat="46.0919717" lon="13.553485"><ele>470.33333333333337</ele><time>2026-05-03T12:14:39.594Z</time></trkpt><trkpt lat="46.0919333" lon="13.5533633"><ele>471.6666666666667</ele><time>2026-05-03T12:14:40.595Z</time></trkpt><trkpt lat="46.0919017" lon="13.5532483"><ele>473.0</ele><time>2026-05-03T12:14:41.594Z</time></trkpt><trkpt lat="46.0918917" lon="13.553145"><ele>474.33333333333337</ele><time>2026-05-03T12:14:42.594Z</time></trkpt><trkpt lat="46.0918983" lon="13.5530467"><ele>475.6666666666667</ele><time>2026-05-03T12:14:43.594Z</time></trkpt><trkpt lat="46.0919083" lon="13.5529467"><ele>477.0</ele><time>2026-05-03T12:14:44.6Z</time></trkpt><trkpt lat="46.0919033" lon="13.552845"><ele>477.0</ele><time>2026-05-03T12:14:45.595Z</time></trkpt><trkpt lat="46.091905" lon="13.5527433"><ele>477.0</ele><time>2026-05-03T12:14:46.593Z</time></trkpt><trkpt lat="46.091895" lon="13.55263"><ele>477.0</ele><time>2026-05-03T12:14:47.595Z</time></trkpt><trkpt lat="46.0918917" lon="13.55251"><ele>477.0</ele><time>2026-05-03T12:14:48.593Z</time></trkpt><trkpt lat="46.091875" lon="13.5523867"><ele>477.0</ele><time>2026-05-03T12:14:49.594Z</time></trkpt><trkpt lat="46.0918717" lon="13.5522783"><ele>477.0</ele><time>2026-05-03T12:14:50.594Z</time></trkpt><trkpt lat="46.091875" lon="13.552155"><ele>475.5</ele><time>2026-05-03T12:14:51.593Z</time></trkpt><trkpt lat="46.0918983" lon="13.5520383"><ele>474.0</ele><time>2026-05-03T12:14:52.593Z</time></trkpt><trkpt lat="46.0919317" lon="13.55194"><ele>472.5</ele><time>2026-05-03T12:14:53.594Z</time></trkpt><trkpt lat="46.0919567" lon="13.5518467"><ele>471.0</ele><time>2026-05-03T12:14:54.594Z</time></trkpt><trkpt lat="46.0919783" lon="13.5517583"><ele>469.5</ele><time>2026-05-03T12:14:55.594Z</time></trkpt><trkpt lat="46.0920433" lon="13.5516267"><ele>468.0</ele><time>2026-05-03T12:14:57.594Z</time></trkpt><trkpt lat="46.092075" lon="13.5515167"><ele>468.0</ele><time>2026-05-03T12:14:59.593Z</time></trkpt><trkpt lat="46.0920633" lon="13.5514067"><ele>468.0</ele><time>2026-05-03T12:15:02.595Z</time></trkpt><trkpt lat="46.091995" lon="13.5513733"><ele>468.0</ele><time>2026-05-03T12:15:04.596Z</time></trkpt><trkpt lat="46.0919017" lon="13.5513717"><ele>468.0</ele><time>2026-05-03T12:15:06.594Z</time></trkpt><trkpt lat="46.0918117" lon="13.5513683"><ele>468.0</ele><time>2026-05-03T12:15:08.594Z</time></trkpt><trkpt lat="46.091745" lon="13.5513517"><ele>468.0</ele><time>2026-05-03T12:15:10.593Z</time></trkpt><trkpt lat="46.0916667" lon="13.5513017"><ele>466.3333333333333</ele><time>2026-05-03T12:15:13.594Z</time></trkpt><trkpt lat="46.0916867" lon="13.5511783"><ele>464.66666666666663</ele><time>2026-05-03T12:15:16.593Z</time></trkpt><trkpt lat="46.0917383" lon="13.55105"><ele>463.0</ele><time>2026-05-03T12:15:18.596Z</time></trkpt><trkpt lat="46.0917683" lon="13.5509683"><ele>461.3333333333333</ele><time>2026-05-03T12:15:19.596Z</time></trkpt><trkpt lat="46.0918033" lon="13.5508917"><ele>459.66666666666663</ele><time>2026-05-03T12:15:20.594Z</time></trkpt><trkpt lat="46.0918583" lon="13.55074"><ele>458.0</ele><time>2026-05-03T12:15:22.595Z</time></trkpt><trkpt lat="46.0919167" lon="13.550615"><ele>457.99999999999994</ele><time>2026-05-03T12:15:24.594Z</time></trkpt><trkpt lat="46.09194" lon="13.5505267"><ele>458.0</ele><time>2026-05-03T12:15:26.595Z</time></trkpt><trkpt lat="46.091845" lon="13.5504917"><ele>458.0</ele><time>2026-05-03T12:15:28.594Z</time></trkpt><trkpt lat="46.09183" lon="13.5503567"><ele>458.0</ele><time>2026-05-03T12:15:31.594Z</time></trkpt><trkpt lat="46.0918867" lon="13.55025"><ele>457.99999999999994</ele><time>2026-05-03T12:15:33.593Z</time></trkpt><trkpt lat="46.09189" lon="13.5501383"><ele>458.0</ele><time>2026-05-03T12:15:36.593Z</time></trkpt><trkpt lat="46.0918133" lon="13.5501567"><ele>455.59999999999997</ele><time>2026-05-03T12:15:40.593Z</time></trkpt><trkpt lat="46.0917617" lon="13.550215"><ele>453.19999999999993</ele><time>2026-05-03T12:15:42.595Z</time></trkpt><trkpt lat="46.0916667" lon="13.5502983"><ele>450.8</ele><time>2026-05-03T12:15:44.595Z</time></trkpt><trkpt lat="46.09159" lon="13.5503867"><ele>448.4</ele><time>2026-05-03T12:15:45.595Z</time></trkpt><trkpt lat="46.0914983" lon="13.550485"><ele>446.0</ele><time>2026-05-03T12:15:46.595Z</time></trkpt><trkpt lat="46.0913833" lon="13.5505717"><ele>443.0</ele><time>2026-05-03T12:15:47.593Z</time></trkpt><trkpt lat="46.0912767" lon="13.5506533"><ele>440.0</ele><time>2026-05-03T12:15:48.594Z</time></trkpt><trkpt lat="46.091185" lon="13.5507467"><ele>437.0</ele><time>2026-05-03T12:15:49.594Z</time></trkpt><trkpt lat="46.0910983" lon="13.550855"><ele>434.0</ele><time>2026-05-03T12:15:50.595Z</time></trkpt><trkpt lat="46.091035" lon="13.5509667"><ele>431.0</ele><time>2026-05-03T12:15:51.593Z</time></trkpt><trkpt lat="46.0909917" lon="13.5510567"><ele>431.0</ele><time>2026-05-03T12:15:52.594Z</time></trkpt><trkpt lat="46.0909083" lon="13.5511633"><ele>431.0</ele><time>2026-05-03T12:15:54.593Z</time></trkpt><trkpt lat="46.0908383" lon="13.551165"><ele>431.0</ele><time>2026-05-03T12:15:56.596Z</time></trkpt><trkpt lat="46.09084" lon="13.5510217"><ele>431.0</ele><time>2026-05-03T12:15:58.594Z</time></trkpt><trkpt lat="46.0909117" lon="13.55094"><ele>431.0</ele><time>2026-05-03T12:15:59.596Z</time></trkpt><trkpt lat="46.0910233" lon="13.5508567"><ele>430.99999999999994</ele><time>2026-05-03T12:16:00.594Z</time></trkpt><trkpt lat="46.0910767" lon="13.55076"><ele>431.0</ele><time>2026-05-03T12:16:01.595Z</time></trkpt><trkpt lat="46.09111" lon="13.550645"><ele>431.0</ele><time>2026-05-03T12:16:02.596Z</time></trkpt><trkpt lat="46.09118" lon="13.55055"><ele>431.0</ele><time>2026-05-03T12:16:03.594Z</time></trkpt><trkpt lat="46.0912333" lon="13.5504483"><ele>430.99999999999994</ele><time>2026-05-03T12:16:04.595Z</time></trkpt><trkpt lat="46.0912867" lon="13.5503533"><ele>431.0</ele><time>2026-05-03T12:16:05.593Z</time></trkpt><trkpt lat="46.0913067" lon="13.55025"><ele>428.99999999999994</ele><time>2026-05-03T12:16:06.593Z</time></trkpt><trkpt lat="46.0913033" lon="13.550145"><ele>427.0</ele><time>2026-05-03T12:16:07.594Z</time></trkpt><trkpt lat="46.0912617" lon="13.5500483"><ele>425.0</ele><time>2026-05-03T12:16:08.595Z</time></trkpt><trkpt lat="46.0912167" lon="13.5499433"><ele>423.0</ele><time>2026-05-03T12:16:09.593Z</time></trkpt><trkpt lat="46.0911833" lon="13.54983"><ele>420.99999999999994</ele><time>2026-05-03T12:16:10.597Z</time></trkpt><trkpt lat="46.0911483" lon="13.549705"><ele>419.0</ele><time>2026-05-03T12:16:11.594Z</time></trkpt><trkpt lat="46.0911467" lon="13.5495667"><ele>418.0</ele><time>2026-05-03T12:16:12.595Z</time></trkpt><trkpt lat="46.0911667" lon="13.549415"><ele>417.0</ele><time>2026-05-03T12:16:13.594Z</time></trkpt><trkpt lat="46.0911717" lon="13.54926"><ele>416.0</ele><time>2026-05-03T12:16:14.595Z</time></trkpt><trkpt lat="46.0912083" lon="13.5490983"><ele>415.0</ele><time>2026-05-03T12:16:15.593Z</time></trkpt><trkpt lat="46.0912617" lon="13.5489583"><ele>414.0</ele><time>2026-05-03T12:16:16.594Z</time></trkpt><trkpt lat="46.0913283" lon="13.5488367"><ele>414.0</ele><time>2026-05-03T12:16:17.593Z</time></trkpt><trkpt lat="46.0914083" lon="13.5487417"><ele>414.0</ele><time>2026-05-03T12:16:18.596Z</time></trkpt><trkpt lat="46.09148" lon="13.5486617"><ele>414.0</ele><time>2026-05-03T12:16:19.594Z</time></trkpt><trkpt lat="46.0915717" lon="13.548615"><ele>414.0</ele><time>2026-05-03T12:16:20.596Z</time></trkpt><trkpt lat="46.09169" lon="13.5486067"><ele>414.0</ele><time>2026-05-03T12:16:21.593Z</time></trkpt><trkpt lat="46.0917883" lon="13.548545"><ele>414.5</ele><time>2026-05-03T12:16:22.593Z</time></trkpt><trkpt lat="46.09188" lon="13.5484667"><ele>415.0</ele><time>2026-05-03T12:16:23.593Z</time></trkpt><trkpt lat="46.0919567" lon="13.5483817"><ele>415.5</ele><time>2026-05-03T12:16:24.595Z</time></trkpt><trkpt lat="46.0920267" lon="13.54832"><ele>416.0</ele><time>2026-05-03T12:16:25.595Z</time></trkpt><trkpt lat="46.0920867" lon="13.5482717"><ele>416.5</ele><time>2026-05-03T12:16:26.599Z</time></trkpt><trkpt lat="46.0920933" lon="13.5481367"><ele>417.0</ele><time>2026-05-03T12:16:28.594Z</time></trkpt><trkpt lat="46.0919883" lon="13.5481183"><ele>417.0</ele><time>2026-05-03T12:16:30.594Z</time></trkpt><trkpt lat="46.091905" lon="13.548175"><ele>417.0</ele><time>2026-05-03T12:16:31.594Z</time></trkpt><trkpt lat="46.0918133" lon="13.5482033"><ele>417.0</ele><time>2026-05-03T12:16:32.595Z</time></trkpt><trkpt lat="46.09171" lon="13.5482033"><ele>417.0</ele><time>2026-05-03T12:16:33.594Z</time></trkpt><trkpt lat="46.0915983" lon="13.54823"><ele>417.0</ele><time>2026-05-03T12:16:34.595Z</time></trkpt><trkpt lat="46.09148" lon="13.548195"><ele>415.0</ele><time>2026-05-03T12:16:35.595Z</time></trkpt><trkpt lat="46.091365" lon="13.548135"><ele>413.0</ele><time>2026-05-03T12:16:36.593Z</time></trkpt><trkpt lat="46.091255" lon="13.548085"><ele>411.0</ele><time>2026-05-03T12:16:37.593Z</time></trkpt><trkpt lat="46.0911383" lon="13.5480583"><ele>409.0</ele><time>2026-05-03T12:16:38.594Z</time></trkpt><trkpt lat="46.0910283" lon="13.5480783"><ele>409.0</ele><time>2026-05-03T12:16:39.593Z</time></trkpt><trkpt lat="46.0909067" lon="13.5481667"><ele>409.0</ele><time>2026-05-03T12:16:40.595Z</time></trkpt><trkpt lat="46.09078" lon="13.5482683"><ele>409.0</ele><time>2026-05-03T12:16:41.596Z</time></trkpt><trkpt lat="46.0906483" lon="13.5483583"><ele>409.0</ele><time>2026-05-03T12:16:42.593Z</time></trkpt><trkpt lat="46.09052" lon="13.54844"><ele>406.75</ele><time>2026-05-03T12:16:43.595Z</time></trkpt><trkpt lat="46.0903967" lon="13.5485283"><ele>404.5</ele><time>2026-05-03T12:16:44.594Z</time></trkpt><trkpt lat="46.0902733" lon="13.548615"><ele>402.25</ele><time>2026-05-03T12:16:45.593Z</time></trkpt><trkpt lat="46.0901567" lon="13.5486983"><ele>400.0</ele><time>2026-05-03T12:16:46.594Z</time></trkpt><trkpt lat="46.090055" lon="13.548775"><ele>399.75</ele><time>2026-05-03T12:16:47.595Z</time></trkpt><trkpt lat="46.0899533" lon="13.5488367"><ele>399.5</ele><time>2026-05-03T12:16:48.596Z</time></trkpt><trkpt lat="46.0898517" lon="13.5488483"><ele>399.25</ele><time>2026-05-03T12:16:49.595Z</time></trkpt><trkpt lat="46.0897367" lon="13.5488217"><ele>399.0</ele><time>2026-05-03T12:16:50.595Z</time></trkpt><trkpt lat="46.089615" lon="13.5487617"><ele>397.0</ele><time>2026-05-03T12:16:51.593Z</time></trkpt><trkpt lat="46.0894917" lon="13.5486783"><ele>395.0</ele><time>2026-05-03T12:16:52.595Z</time></trkpt><trkpt lat="46.089365" lon="13.5485733"><ele>393.0</ele><time>2026-05-03T12:16:53.595Z</time></trkpt><trkpt lat="46.0892417" lon="13.5484533"><ele>391.0</ele><time>2026-05-03T12:16:54.595Z</time></trkpt><trkpt lat="46.0891317" lon="13.5483317"><ele>387.75</ele><time>2026-05-03T12:16:55.595Z</time></trkpt><trkpt lat="46.08902" lon="13.5482117"><ele>384.5</ele><time>2026-05-03T12:16:56.595Z</time></trkpt><trkpt lat="46.0889083" lon="13.548095"><ele>381.25</ele><time>2026-05-03T12:16:57.595Z</time></trkpt><trkpt lat="46.0887933" lon="13.5480033"><ele>378.0</ele><time>2026-05-03T12:16:58.595Z</time></trkpt><trkpt lat="46.0886733" lon="13.5479433"><ele>378.0</ele><time>2026-05-03T12:16:59.594Z</time></trkpt><trkpt lat="46.0885617" lon="13.547915"><ele>378.0</ele><time>2026-05-03T12:17:00.594Z</time></trkpt><trkpt lat="46.0884633" lon="13.5479617"><ele>378.0</ele><time>2026-05-03T12:17:01.595Z</time></trkpt><trkpt lat="46.0883683" lon="13.5480433"><ele>378.0</ele><time>2026-05-03T12:17:02.596Z</time></trkpt><trkpt lat="46.0882783" lon="13.5481617"><ele>378.0</ele><time>2026-05-03T12:17:03.593Z</time></trkpt><trkpt lat="46.0882033" lon="13.5482967"><ele>373.0</ele><time>2026-05-03T12:17:04.594Z</time></trkpt><trkpt lat="46.0881433" lon="13.5484667"><ele>368.0</ele><time>2026-05-03T12:17:05.595Z</time></trkpt><trkpt lat="46.0880983" lon="13.5486467"><ele>363.0</ele><time>2026-05-03T12:17:06.595Z</time></trkpt><trkpt lat="46.0880617" lon="13.5488083"><ele>358.0</ele><time>2026-05-03T12:17:07.596Z</time></trkpt><trkpt lat="46.088035" lon="13.548945"><ele>358.0</ele><time>2026-05-03T12:17:08.595Z</time></trkpt><trkpt lat="46.0880267" lon="13.5490767"><ele>358.0</ele><time>2026-05-03T12:17:09.595Z</time></trkpt><trkpt lat="46.08805" lon="13.5491983"><ele>358.0</ele><time>2026-05-03T12:17:10.595Z</time></trkpt><trkpt lat="46.0880983" lon="13.5493183"><ele>358.0</ele><time>2026-05-03T12:17:11.599Z</time></trkpt><trkpt lat="46.0881667" lon="13.54941"><ele>358.0</ele><time>2026-05-03T12:17:12.595Z</time></trkpt><trkpt lat="46.0882767" lon="13.5494317"><ele>361.59999999999997</ele><time>2026-05-03T12:17:13.595Z</time></trkpt><trkpt lat="46.088355" lon="13.5494917"><ele>365.2</ele><time>2026-05-03T12:17:14.595Z</time></trkpt><trkpt lat="46.08841" lon="13.5495817"><ele>368.8</ele><time>2026-05-03T12:17:15.594Z</time></trkpt><trkpt lat="46.088455" lon="13.54968"><ele>372.4</ele><time>2026-05-03T12:17:16.594Z</time></trkpt><trkpt lat="46.088415" lon="13.5498317"><ele>376.0</ele><time>2026-05-03T12:17:18.594Z</time></trkpt><trkpt lat="46.088315" lon="13.5498917"><ele>369.25</ele><time>2026-05-03T12:17:19.595Z</time></trkpt><trkpt lat="46.088165" lon="13.5499417"><ele>362.5</ele><time>2026-05-03T12:17:20.595Z</time></trkpt><trkpt lat="46.0880567" lon="13.5500483"><ele>355.75</ele><time>2026-05-03T12:17:21.594Z</time></trkpt><trkpt lat="46.0879517" lon="13.5501533"><ele>349.0</ele><time>2026-05-03T12:17:22.595Z</time></trkpt><trkpt lat="46.0878433" lon="13.5502617"><ele>347.5</ele><time>2026-05-03T12:17:23.594Z</time></trkpt><trkpt lat="46.0877467" lon="13.550385"><ele>346.0</ele><time>2026-05-03T12:17:24.595Z</time></trkpt><trkpt lat="46.08767" lon="13.55054"><ele>344.5</ele><time>2026-05-03T12:17:25.595Z</time></trkpt><trkpt lat="46.0876083" lon="13.5506967"><ele>343.0</ele><time>2026-05-03T12:17:26.596Z</time></trkpt><trkpt lat="46.0875667" lon="13.550865"><ele>343.0</ele><time>2026-05-03T12:17:27.594Z</time></trkpt><trkpt lat="46.0875417" lon="13.5510133"><ele>343.0</ele><time>2026-05-03T12:17:28.595Z</time></trkpt><trkpt lat="46.0875533" lon="13.551155"><ele>343.0</ele><time>2026-05-03T12:17:29.594Z</time></trkpt><trkpt lat="46.0876283" lon="13.5513117"><ele>343.0</ele><time>2026-05-03T12:17:30.597Z</time></trkpt><trkpt lat="46.087725" lon="13.5514567"><ele>341.0</ele><time>2026-05-03T12:17:31.597Z</time></trkpt><trkpt lat="46.087815" lon="13.551605"><ele>339.0</ele><time>2026-05-03T12:17:32.598Z</time></trkpt><trkpt lat="46.08789" lon="13.5517533"><ele>337.0</ele><time>2026-05-03T12:17:33.597Z</time></trkpt><trkpt lat="46.0879383" lon="13.5519417"><ele>335.0</ele><time>2026-05-03T12:17:34.596Z</time></trkpt><trkpt lat="46.0879783" lon="13.5521533"><ele>338.5</ele><time>2026-05-03T12:17:35.596Z</time></trkpt><trkpt lat="46.088055" lon="13.5523333"><ele>342.0</ele><time>2026-05-03T12:17:36.596Z</time></trkpt><trkpt lat="46.08814" lon="13.5524983"><ele>345.5</ele><time>2026-05-03T12:17:37.595Z</time></trkpt><trkpt lat="46.0882117" lon="13.552685"><ele>349.0</ele><time>2026-05-03T12:17:38.597Z</time></trkpt><trkpt lat="46.0882983" lon="13.5528567"><ele>343.0</ele><time>2026-05-03T12:17:39.594Z</time></trkpt><trkpt lat="46.0884083" lon="13.5530183"><ele>337.0</ele><time>2026-05-03T12:17:40.595Z</time></trkpt><trkpt lat="46.088505" lon="13.553155"><ele>331.0</ele><time>2026-05-03T12:17:41.595Z</time></trkpt><trkpt lat="46.0885983" lon="13.55327"><ele>325.0</ele><time>2026-05-03T12:17:42.594Z</time></trkpt><trkpt lat="46.0886767" lon="13.5533683"><ele>325.0</ele><time>2026-05-03T12:17:43.596Z</time></trkpt><trkpt lat="46.0887367" lon="13.5534667"><ele>325.0</ele><time>2026-05-03T12:17:44.596Z</time></trkpt><trkpt lat="46.088765" lon="13.553575"><ele>325.0</ele><time>2026-05-03T12:17:45.593Z</time></trkpt><trkpt lat="46.0887667" lon="13.5537033"><ele>325.0</ele><time>2026-05-03T12:17:46.593Z</time></trkpt><trkpt lat="46.08876" lon="13.55383"><ele>325.0</ele><time>2026-05-03T12:17:47.594Z</time></trkpt><trkpt lat="46.0887383" lon="13.5540083"><ele>320.3333333333333</ele><time>2026-05-03T12:17:48.593Z</time></trkpt><trkpt lat="46.0887367" lon="13.55423"><ele>315.6666666666667</ele><time>2026-05-03T12:17:49.595Z</time></trkpt><trkpt lat="46.0887417" lon="13.5544367"><ele>311.0</ele><time>2026-05-03T12:17:50.596Z</time></trkpt><trkpt lat="46.0887533" lon="13.5547"><ele>309.6666666666667</ele><time>2026-05-03T12:17:51.594Z</time></trkpt><trkpt lat="46.0887833" lon="13.5549383"><ele>308.3333333333333</ele><time>2026-05-03T12:17:52.595Z</time></trkpt><trkpt lat="46.0888183" lon="13.5551433"><ele>307.0</ele><time>2026-05-03T12:17:53.594Z</time></trkpt><trkpt lat="46.088865" lon="13.5553333"><ele>305.5</ele><time>2026-05-03T12:17:54.595Z</time></trkpt><trkpt lat="46.0889183" lon="13.555505"><ele>304.0</ele><time>2026-05-03T12:17:55.594Z</time></trkpt><trkpt lat="46.0889933" lon="13.5556533"><ele>302.5</ele><time>2026-05-03T12:17:56.595Z</time></trkpt><trkpt lat="46.089055" lon="13.55577"><ele>301.0</ele><time>2026-05-03T12:17:57.594Z</time></trkpt><trkpt lat="46.0890617" lon="13.55591"><ele>301.0</ele><time>2026-05-03T12:17:58.595Z</time></trkpt><trkpt lat="46.08902" lon="13.55604"><ele>301.0</ele><time>2026-05-03T12:17:59.594Z</time></trkpt><trkpt lat="46.0889717" lon="13.5561967"><ele>301.0</ele><time>2026-05-03T12:18:00.595Z</time></trkpt><trkpt lat="46.0889583" lon="13.5563583"><ele>301.0</ele><time>2026-05-03T12:18:01.596Z</time></trkpt><trkpt lat="46.088925" lon="13.55652"><ele>301.0</ele><time>2026-05-03T12:18:02.598Z</time></trkpt><trkpt lat="46.0889017" lon="13.5566533"><ele>300.5</ele><time>2026-05-03T12:18:03.594Z</time></trkpt><trkpt lat="46.0889" lon="13.556765"><ele>300.0</ele><time>2026-05-03T12:18:04.594Z</time></trkpt><trkpt lat="46.0889567" lon="13.5568383"><ele>299.5</ele><time>2026-05-03T12:18:05.594Z</time></trkpt><trkpt lat="46.0890167" lon="13.5569067"><ele>299.0</ele><time>2026-05-03T12:18:06.596Z</time></trkpt><trkpt lat="46.0890683" lon="13.5570433"><ele>298.5</ele><time>2026-05-03T12:18:08.598Z</time></trkpt><trkpt lat="46.0890383" lon="13.5571833"><ele>298.0</ele><time>2026-05-03T12:18:10.595Z</time></trkpt><trkpt lat="46.0889617" lon="13.5573"><ele>298.0</ele><time>2026-05-03T12:18:12.595Z</time></trkpt><trkpt lat="46.08889" lon="13.55737"><ele>298.0</ele><time>2026-05-03T12:18:13.594Z</time></trkpt><trkpt lat="46.0888317" lon="13.55744"><ele>298.0</ele><time>2026-05-03T12:18:14.595Z</time></trkpt><trkpt lat="46.0887917" lon="13.5575283"><ele>298.0</ele><time>2026-05-03T12:18:15.595Z</time></trkpt><trkpt lat="46.0887383" lon="13.557605"><ele>298.0</ele><time>2026-05-03T12:18:16.594Z</time></trkpt><trkpt lat="46.0886633" lon="13.557675"><ele>298.0</ele><time>2026-05-03T12:18:17.595Z</time></trkpt><trkpt lat="46.0885817" lon="13.5577283"><ele>298.0</ele><time>2026-05-03T12:18:18.594Z</time></trkpt><trkpt lat="46.08851" lon="13.5577867"><ele>298.0</ele><time>2026-05-03T12:18:19.594Z</time></trkpt><trkpt lat="46.0884033" lon="13.55777"><ele>298.0</ele><time>2026-05-03T12:18:20.597Z</time></trkpt><trkpt lat="46.088305" lon="13.5577533"><ele>298.0</ele><time>2026-05-03T12:18:21.594Z</time></trkpt><trkpt lat="46.0882067" lon="13.5577317"><ele>298.0</ele><time>2026-05-03T12:18:22.594Z</time></trkpt><trkpt lat="46.0880733" lon="13.5577083"><ele>291.75</ele><time>2026-05-03T12:18:23.596Z</time></trkpt><trkpt lat="46.0879433" lon="13.5577117"><ele>285.5</ele><time>2026-05-03T12:18:24.594Z</time></trkpt><trkpt lat="46.087815" lon="13.557745"><ele>279.25</ele><time>2026-05-03T12:18:25.594Z</time></trkpt><trkpt lat="46.0877117" lon="13.55777"><ele>273.0</ele><time>2026-05-03T12:18:26.594Z</time></trkpt><trkpt lat="46.0876017" lon="13.557785"><ele>273.0</ele><time>2026-05-03T12:18:27.594Z</time></trkpt><trkpt lat="46.0875233" lon="13.5577633"><ele>273.0</ele><time>2026-05-03T12:18:28.594Z</time></trkpt><trkpt lat="46.0875033" lon="13.55762"><ele>273.0</ele><time>2026-05-03T12:18:30.596Z</time></trkpt><trkpt lat="46.0875717" lon="13.5575517"><ele>273.0</ele><time>2026-05-03T12:18:31.595Z</time></trkpt><trkpt lat="46.0876683" lon="13.5575067"><ele>273.0</ele><time>2026-05-03T12:18:32.596Z</time></trkpt><trkpt lat="46.08776" lon="13.5574617"><ele>273.0</ele><time>2026-05-03T12:18:33.595Z</time></trkpt><trkpt lat="46.08784" lon="13.5574083"><ele>273.0</ele><time>2026-05-03T12:18:34.594Z</time></trkpt><trkpt lat="46.0879167" lon="13.5573667"><ele>273.0</ele><time>2026-05-03T12:18:35.597Z</time></trkpt><trkpt lat="46.08799" lon="13.5573583"><ele>273.0</ele><time>2026-05-03T12:18:36.594Z</time></trkpt><trkpt lat="46.0880633" lon="13.5573717"><ele>273.0</ele><time>2026-05-03T12:18:37.594Z</time></trkpt><trkpt lat="46.0881267" lon="13.5573417"><ele>273.0</ele><time>2026-05-03T12:18:39.593Z</time></trkpt><trkpt lat="46.0881367" lon="13.5572483"><ele>273.0</ele><time>2026-05-03T12:18:41.593Z</time></trkpt><trkpt lat="46.08805" lon="13.5571967"><ele>273.0</ele><time>2026-05-03T12:18:43.595Z</time></trkpt><trkpt lat="46.0879617" lon="13.5572217"><ele>273.0</ele><time>2026-05-03T12:18:44.595Z</time></trkpt><trkpt lat="46.0878767" lon="13.557235"><ele>273.0</ele><time>2026-05-03T12:18:45.595Z</time></trkpt><trkpt lat="46.0877217" lon="13.5572433"><ele>273.0</ele><time>2026-05-03T12:18:46.595Z</time></trkpt><trkpt lat="46.0875883" lon="13.5572333"><ele>273.0</ele><time>2026-05-03T12:18:47.594Z</time></trkpt><trkpt lat="46.0874767" lon="13.5572283"><ele>273.0</ele><time>2026-05-03T12:18:48.595Z</time></trkpt><trkpt lat="46.0873717" lon="13.557245"><ele>273.0</ele><time>2026-05-03T12:18:49.594Z</time></trkpt><trkpt lat="46.0872883" lon="13.557255"><ele>273.0</ele><time>2026-05-03T12:18:50.593Z</time></trkpt><trkpt lat="46.0872133" lon="13.557305"><ele>273.0</ele><time>2026-05-03T12:18:51.594Z</time></trkpt><trkpt lat="46.087165" lon="13.55737"><ele>262.5</ele><time>2026-05-03T12:18:52.593Z</time></trkpt><trkpt lat="46.087155" lon="13.5575567"><ele>252.0</ele><time>2026-05-03T12:18:54.593Z</time></trkpt><trkpt lat="46.0871967" lon="13.5577517"><ele>241.5</ele><time>2026-05-03T12:18:55.593Z</time></trkpt><trkpt lat="46.087255" lon="13.5579767"><ele>231.0</ele><time>2026-05-03T12:18:56.594Z</time></trkpt><trkpt lat="46.0873" lon="13.5581967"><ele>227.0</ele><time>2026-05-03T12:18:57.595Z</time></trkpt><trkpt lat="46.08736" lon="13.558445"><ele>223.0</ele><time>2026-05-03T12:18:58.594Z</time></trkpt><trkpt lat="46.0874167" lon="13.558715"><ele>219.0</ele><time>2026-05-03T12:18:59.594Z</time></trkpt><trkpt lat="46.0874733" lon="13.5589667"><ele>219.33333333333331</ele><time>2026-05-03T12:19:00.596Z</time></trkpt><trkpt lat="46.08753" lon="13.5592033"><ele>219.66666666666666</ele><time>2026-05-03T12:19:01.593Z</time></trkpt><trkpt lat="46.0875917" lon="13.55943"><ele>220.0</ele><time>2026-05-03T12:19:02.593Z</time></trkpt><trkpt lat="46.0876983" lon="13.5596417"><ele>220.0</ele><time>2026-05-03T12:19:03.594Z</time></trkpt><trkpt lat="46.0877867" lon="13.5598483"><ele>220.0</ele><time>2026-05-03T12:19:04.593Z</time></trkpt><trkpt lat="46.0878617" lon="13.5600567"><ele>220.0</ele><time>2026-05-03T12:19:05.594Z</time></trkpt><trkpt lat="46.0879267" lon="13.5602733"><ele>213.33333333333331</ele><time>2026-05-03T12:19:06.592Z</time></trkpt><trkpt lat="46.0880033" lon="13.560485"><ele>206.66666666666669</ele><time>2026-05-03T12:19:07.593Z</time></trkpt><trkpt lat="46.0881017" lon="13.5607"><ele>200.0</ele><time>2026-05-03T12:19:08.598Z</time></trkpt><trkpt lat="46.0882217" lon="13.5609183"><ele>200.0</ele><time>2026-05-03T12:19:09.593Z</time></trkpt><trkpt lat="46.08836" lon="13.56112"><ele>200.0</ele><time>2026-05-03T12:19:10.594Z</time></trkpt><trkpt lat="46.0884867" lon="13.5613317"><ele>200.0</ele><time>2026-05-03T12:19:11.594Z</time></trkpt><trkpt lat="46.0886017" lon="13.56155"><ele>200.33333333333334</ele><time>2026-05-03T12:19:12.593Z</time></trkpt><trkpt lat="46.088705" lon="13.5617567"><ele>200.66666666666669</ele><time>2026-05-03T12:19:13.594Z</time></trkpt><trkpt lat="46.0888017" lon="13.5619617"><ele>201.0</ele><time>2026-05-03T12:19:14.595Z</time></trkpt><trkpt lat="46.088895" lon="13.5621783"><ele>201.0</ele><time>2026-05-03T12:19:15.593Z</time></trkpt><trkpt lat="46.0889733" lon="13.562405"><ele>201.0</ele><time>2026-05-03T12:19:16.594Z</time></trkpt><trkpt lat="46.08903" lon="13.5626583"><ele>201.0</ele><time>2026-05-03T12:19:17.594Z</time></trkpt><trkpt lat="46.08908" lon="13.5628983"><ele>210.66666666666669</ele><time>2026-05-03T12:19:18.593Z</time></trkpt><trkpt lat="46.0891033" lon="13.5631467"><ele>220.33333333333334</ele><time>2026-05-03T12:19:19.594Z</time></trkpt><trkpt lat="46.089125" lon="13.5633767"><ele>230.0</ele><time>2026-05-03T12:19:20.594Z</time></trkpt><trkpt lat="46.08914" lon="13.5635983"><ele>229.66666666666669</ele><time>2026-05-03T12:19:21.593Z</time></trkpt><trkpt lat="46.089135" lon="13.5638117"><ele>229.33333333333331</ele><time>2026-05-03T12:19:22.593Z</time></trkpt><trkpt lat="46.0891033" lon="13.5640283"><ele>229.0</ele><time>2026-05-03T12:19:23.594Z</time></trkpt><trkpt lat="46.0890517" lon="13.564255"><ele>217.33333333333331</ele><time>2026-05-03T12:19:24.593Z</time></trkpt><trkpt lat="46.0890217" lon="13.5644833"><ele>205.66666666666669</ele><time>2026-05-03T12:19:25.593Z</time></trkpt><trkpt lat="46.0889867" lon="13.5647017"><ele>194.0</ele><time>2026-05-03T12:19:26.594Z</time></trkpt><trkpt lat="46.0889733" lon="13.5649233"><ele>193.75</ele><time>2026-05-03T12:19:27.592Z</time></trkpt><trkpt lat="46.0889433" lon="13.565125"><ele>193.5</ele><time>2026-05-03T12:19:28.593Z</time></trkpt><trkpt lat="46.0889083" lon="13.5653117"><ele>193.25</ele><time>2026-05-03T12:19:29.593Z</time></trkpt><trkpt lat="46.0888583" lon="13.5654817"><ele>193.0</ele><time>2026-05-03T12:19:30.593Z</time></trkpt><trkpt lat="46.0888833" lon="13.5656267"><ele>193.0</ele><time>2026-05-03T12:19:31.594Z</time></trkpt><trkpt lat="46.088945" lon="13.5657817"><ele>193.0</ele><time>2026-05-03T12:19:32.596Z</time></trkpt><trkpt lat="46.08903" lon="13.5659433"><ele>193.0</ele><time>2026-05-03T12:19:33.594Z</time></trkpt><trkpt lat="46.08913" lon="13.566105"><ele>193.0</ele><time>2026-05-03T12:19:34.595Z</time></trkpt><trkpt lat="46.0892183" lon="13.5662517"><ele>194.83333333333331</ele><time>2026-05-03T12:19:35.594Z</time></trkpt><trkpt lat="46.0892867" lon="13.5663733"><ele>196.66666666666666</ele><time>2026-05-03T12:19:36.594Z</time></trkpt><trkpt lat="46.0893383" lon="13.5664717"><ele>198.5</ele><time>2026-05-03T12:19:37.595Z</time></trkpt><trkpt lat="46.0893783" lon="13.5665467"><ele>200.33333333333331</ele><time>2026-05-03T12:19:38.594Z</time></trkpt><trkpt lat="46.0893483" lon="13.5666483"><ele>202.16666666666666</ele><time>2026-05-03T12:19:40.598Z</time></trkpt><trkpt lat="46.08927" lon="13.56658"><ele>204.0</ele><time>2026-05-03T12:19:42.594Z</time></trkpt><trkpt lat="46.0892133" lon="13.5664817"><ele>204.0</ele><time>2026-05-03T12:19:43.595Z</time></trkpt><trkpt lat="46.08915" lon="13.566395"><ele>204.0</ele><time>2026-05-03T12:19:44.594Z</time></trkpt><trkpt lat="46.0890433" lon="13.5662717"><ele>204.0</ele><time>2026-05-03T12:19:45.594Z</time></trkpt><trkpt lat="46.088925" lon="13.5661283"><ele>204.0</ele><time>2026-05-03T12:19:46.594Z</time></trkpt><trkpt lat="46.088815" lon="13.5659733"><ele>201.79999999999998</ele><time>2026-05-03T12:19:47.594Z</time></trkpt><trkpt lat="46.0887183" lon="13.5658267"><ele>199.6</ele><time>2026-05-03T12:19:48.595Z</time></trkpt><trkpt lat="46.0886417" lon="13.5656967"><ele>197.4</ele><time>2026-05-03T12:19:49.594Z</time></trkpt><trkpt lat="46.0885967" lon="13.5655767"><ele>195.2</ele><time>2026-05-03T12:19:50.594Z</time></trkpt><trkpt lat="46.0885767" lon="13.5654417"><ele>193.0</ele><time>2026-05-03T12:19:51.595Z</time></trkpt><trkpt lat="46.0885767" lon="13.5653"><ele>193.0</ele><time>2026-05-03T12:19:52.594Z</time></trkpt><trkpt lat="46.088615" lon="13.565155"><ele>193.0</ele><time>2026-05-03T12:19:53.597Z</time></trkpt><trkpt lat="46.0886367" lon="13.5650183"><ele>193.0</ele><time>2026-05-03T12:19:54.595Z</time></trkpt><trkpt lat="46.0886533" lon="13.5648983"><ele>193.0</ele><time>2026-05-03T12:19:55.594Z</time></trkpt><trkpt lat="46.0886633" lon="13.5648"><ele>193.0</ele><time>2026-05-03T12:19:56.594Z</time></trkpt><trkpt lat="46.0886717" lon="13.56463"><ele>193.16666666666666</ele><time>2026-05-03T12:19:58.595Z</time></trkpt><trkpt lat="46.08868" lon="13.564455"><ele>193.33333333333331</ele><time>2026-05-03T12:20:00.595Z</time></trkpt><trkpt lat="46.0886733" lon="13.5643567"><ele>193.5</ele><time>2026-05-03T12:20:01.596Z</time></trkpt><trkpt lat="46.0886667" lon="13.5642517"><ele>193.66666666666669</ele><time>2026-05-03T12:20:02.596Z</time></trkpt><trkpt lat="46.088655" lon="13.5641483"><ele>193.83333333333334</ele><time>2026-05-03T12:20:03.594Z</time></trkpt><trkpt lat="46.0886317" lon="13.56404"><ele>194.0</ele><time>2026-05-03T12:20:04.595Z</time></trkpt><trkpt lat="46.0886217" lon="13.5639283"><ele>194.0</ele><time>2026-05-03T12:20:05.594Z</time></trkpt><trkpt lat="46.0886033" lon="13.5638133"><ele>194.0</ele><time>2026-05-03T12:20:06.594Z</time></trkpt><trkpt lat="46.088585" lon="13.5636983"><ele>194.0</ele><time>2026-05-03T12:20:07.594Z</time></trkpt><trkpt lat="46.0885617" lon="13.5635733"><ele>194.0</ele><time>2026-05-03T12:20:08.595Z</time></trkpt><trkpt lat="46.0885217" lon="13.563435"><ele>194.0</ele><time>2026-05-03T12:20:09.595Z</time></trkpt><trkpt lat="46.0884767" lon="13.5632883"><ele>195.0</ele><time>2026-05-03T12:20:10.594Z</time></trkpt><trkpt lat="46.0884283" lon="13.5631383"><ele>196.0</ele><time>2026-05-03T12:20:11.596Z</time></trkpt><trkpt lat="46.0883867" lon="13.5629783"><ele>197.0</ele><time>2026-05-03T12:20:12.595Z</time></trkpt><trkpt lat="46.088345" lon="13.5628267"><ele>198.0</ele><time>2026-05-03T12:20:13.594Z</time></trkpt><trkpt lat="46.0883017" lon="13.5626683"><ele>198.60000000000002</ele><time>2026-05-03T12:20:14.595Z</time></trkpt><trkpt lat="46.0882683" lon="13.5625167"><ele>199.20000000000002</ele><time>2026-05-03T12:20:15.683Z</time></trkpt><trkpt lat="46.0882283" lon="13.5623733"><ele>199.8</ele><time>2026-05-03T12:20:16.595Z</time></trkpt><trkpt lat="46.088195" lon="13.5622283"><ele>200.4</ele><time>2026-05-03T12:20:17.596Z</time></trkpt><trkpt lat="46.088155" lon="13.5620933"><ele>201.0</ele><time>2026-05-03T12:20:18.595Z</time></trkpt><trkpt lat="46.0881167" lon="13.5619567"><ele>198.25</ele><time>2026-05-03T12:20:19.594Z</time></trkpt><trkpt lat="46.0880533" lon="13.5618133"><ele>195.5</ele><time>2026-05-03T12:20:20.594Z</time></trkpt><trkpt lat="46.087965" lon="13.56168"><ele>192.75</ele><time>2026-05-03T12:20:21.594Z</time></trkpt><trkpt lat="46.0878567" lon="13.5615267"><ele>190.0</ele><time>2026-05-03T12:20:22.596Z</time></trkpt><trkpt lat="46.0877467" lon="13.5613733"><ele>190.0</ele><time>2026-05-03T12:20:23.596Z</time></trkpt><trkpt lat="46.0876267" lon="13.5612283"><ele>190.0</ele><time>2026-05-03T12:20:24.595Z</time></trkpt><trkpt lat="46.0875083" lon="13.561065"><ele>190.0</ele><time>2026-05-03T12:20:25.594Z</time></trkpt><trkpt lat="46.0873983" lon="13.5609117"><ele>191.25</ele><time>2026-05-03T12:20:26.595Z</time></trkpt><trkpt lat="46.0872867" lon="13.5607783"><ele>192.5</ele><time>2026-05-03T12:20:27.594Z</time></trkpt><trkpt lat="46.0871717" lon="13.5606433"><ele>193.75</ele><time>2026-05-03T12:20:28.594Z</time></trkpt><trkpt lat="46.0870617" lon="13.5605083"><ele>195.0</ele><time>2026-05-03T12:20:29.594Z</time></trkpt><trkpt lat="46.0869583" lon="13.5603433"><ele>195.0</ele><time>2026-05-03T12:20:30.594Z</time></trkpt><trkpt lat="46.0868567" lon="13.5601633"><ele>195.0</ele><time>2026-05-03T12:20:31.595Z</time></trkpt><trkpt lat="46.08676" lon="13.5599783"><ele>195.0</ele><time>2026-05-03T12:20:32.594Z</time></trkpt><trkpt lat="46.08667" lon="13.5598033"><ele>189.0</ele><time>2026-05-03T12:20:33.594Z</time></trkpt><trkpt lat="46.0865833" lon="13.5596283"><ele>183.0</ele><time>2026-05-03T12:20:34.593Z</time></trkpt><trkpt lat="46.0865" lon="13.5594367"><ele>177.0</ele><time>2026-05-03T12:20:35.593Z</time></trkpt><trkpt lat="46.0864233" lon="13.55923"><ele>177.0</ele><time>2026-05-03T12:20:36.594Z</time></trkpt><trkpt lat="46.0863517" lon="13.5589933"><ele>177.0</ele><time>2026-05-03T12:20:37.594Z</time></trkpt><trkpt lat="46.08628" lon="13.5587533"><ele>177.0</ele><time>2026-05-03T12:20:38.595Z</time></trkpt><trkpt lat="46.086205" lon="13.5585067"><ele>178.66666666666666</ele><time>2026-05-03T12:20:39.594Z</time></trkpt><trkpt lat="46.08612" lon="13.5582633"><ele>180.33333333333331</ele><time>2026-05-03T12:20:40.594Z</time></trkpt><trkpt lat="46.0860283" lon="13.55802"><ele>182.0</ele><time>2026-05-03T12:20:41.593Z</time></trkpt><trkpt lat="46.0859433" lon="13.5577733"><ele>184.66666666666666</ele><time>2026-05-03T12:20:42.594Z</time></trkpt><trkpt lat="46.0858517" lon="13.55755"><ele>187.33333333333334</ele><time>2026-05-03T12:20:43.594Z</time></trkpt><trkpt lat="46.0857633" lon="13.5573333"><ele>190.0</ele><time>2026-05-03T12:20:44.594Z</time></trkpt><trkpt lat="46.08566" lon="13.5571267"><ele>184.0</ele><time>2026-05-03T12:20:45.594Z</time></trkpt><trkpt lat="46.0855617" lon="13.5569067"><ele>178.0</ele><time>2026-05-03T12:20:46.594Z</time></trkpt><trkpt lat="46.085455" lon="13.556695"><ele>172.0</ele><time>2026-05-03T12:20:47.594Z</time></trkpt><trkpt lat="46.0853467" lon="13.5565"><ele>172.0</ele><time>2026-05-03T12:20:48.593Z</time></trkpt><trkpt lat="46.0852217" lon="13.5563183"><ele>172.0</ele><time>2026-05-03T12:20:49.594Z</time></trkpt><trkpt lat="46.0850867" lon="13.556145"><ele>172.0</ele><time>2026-05-03T12:20:50.595Z</time></trkpt><trkpt lat="46.08495" lon="13.5559783"><ele>173.0</ele><time>2026-05-03T12:20:51.594Z</time></trkpt><trkpt lat="46.08481" lon="13.5558183"><ele>174.0</ele><time>2026-05-03T12:20:52.593Z</time></trkpt><trkpt lat="46.084675" lon="13.555675"><ele>175.0</ele><time>2026-05-03T12:20:53.593Z</time></trkpt><trkpt lat="46.0845583" lon="13.5555283"><ele>175.0</ele><time>2026-05-03T12:20:54.594Z</time></trkpt><trkpt lat="46.0844517" lon="13.555375"><ele>175.0</ele><time>2026-05-03T12:20:55.593Z</time></trkpt><trkpt lat="46.0843533" lon="13.55523"><ele>175.0</ele><time>2026-05-03T12:20:56.595Z</time></trkpt><trkpt lat="46.0842767" lon="13.5550617"><ele>175.0</ele><time>2026-05-03T12:20:57.595Z</time></trkpt><trkpt lat="46.08422" lon="13.5548683"><ele>174.66666666666669</ele><time>2026-05-03T12:20:58.594Z</time></trkpt><trkpt lat="46.0841733" lon="13.5546467"><ele>174.33333333333334</ele><time>2026-05-03T12:20:59.595Z</time></trkpt><trkpt lat="46.0841483" lon="13.5544317"><ele>174.0</ele><time>2026-05-03T12:21:00.593Z</time></trkpt><trkpt lat="46.0841367" lon="13.5542333"><ele>173.66666666666666</ele><time>2026-05-03T12:21:01.594Z</time></trkpt><trkpt lat="46.0841417" lon="13.5540367"><ele>173.33333333333331</ele><time>2026-05-03T12:21:02.595Z</time></trkpt><trkpt lat="46.0841783" lon="13.553825"><ele>173.0</ele><time>2026-05-03T12:21:03.594Z</time></trkpt><trkpt lat="46.0842317" lon="13.553585"><ele>172.0</ele><time>2026-05-03T12:21:04.594Z</time></trkpt><trkpt lat="46.0842967" lon="13.5533283"><ele>171.0</ele><time>2026-05-03T12:21:05.595Z</time></trkpt><trkpt lat="46.08437" lon="13.5530733"><ele>170.0</ele><time>2026-05-03T12:21:06.593Z</time></trkpt><trkpt lat="46.0844367" lon="13.5528367"><ele>169.66666666666666</ele><time>2026-05-03T12:21:07.595Z</time></trkpt><trkpt lat="46.0845033" lon="13.5526217"><ele>169.33333333333334</ele><time>2026-05-03T12:21:08.594Z</time></trkpt><trkpt lat="46.0845717" lon="13.5524167"><ele>169.0</ele><time>2026-05-03T12:21:09.594Z</time></trkpt><trkpt lat="46.0846317" lon="13.552225"><ele>169.75</ele><time>2026-05-03T12:21:10.594Z</time></trkpt><trkpt lat="46.0846817" lon="13.5520383"><ele>170.5</ele><time>2026-05-03T12:21:11.594Z</time></trkpt><trkpt lat="46.0847083" lon="13.5518417"><ele>171.25</ele><time>2026-05-03T12:21:12.593Z</time></trkpt><trkpt lat="46.08472" lon="13.5516483"><ele>172.0</ele><time>2026-05-03T12:21:13.594Z</time></trkpt><trkpt lat="46.0847017" lon="13.5514617"><ele>172.0</ele><time>2026-05-03T12:21:14.594Z</time></trkpt><trkpt lat="46.084615" lon="13.5512883"><ele>172.0</ele><time>2026-05-03T12:21:15.594Z</time></trkpt><trkpt lat="46.08454" lon="13.551125"><ele>172.0</ele><time>2026-05-03T12:21:16.595Z</time></trkpt><trkpt lat="46.0844617" lon="13.5509867"><ele>172.0</ele><time>2026-05-03T12:21:17.593Z</time></trkpt><trkpt lat="46.084385" lon="13.550865"><ele>172.25</ele><time>2026-05-03T12:21:18.595Z</time></trkpt><trkpt lat="46.0843067" lon="13.5507533"><ele>172.5</ele><time>2026-05-03T12:21:19.593Z</time></trkpt><trkpt lat="46.0841733" lon="13.5507317"><ele>172.75</ele><time>2026-05-03T12:21:20.596Z</time></trkpt><trkpt lat="46.08402" lon="13.5507217"><ele>173.0</ele><time>2026-05-03T12:21:21.593Z</time></trkpt><trkpt lat="46.0838567" lon="13.5507233"><ele>173.0</ele><time>2026-05-03T12:21:22.593Z</time></trkpt><trkpt lat="46.0836967" lon="13.55072"><ele>173.0</ele><time>2026-05-03T12:21:23.594Z</time></trkpt><trkpt lat="46.0835433" lon="13.5507133"><ele>173.0</ele><time>2026-05-03T12:21:24.594Z</time></trkpt><trkpt lat="46.0834067" lon="13.5506967"><ele>173.0</ele><time>2026-05-03T12:21:25.596Z</time></trkpt><trkpt lat="46.0832783" lon="13.5506733"><ele>173.0</ele><time>2026-05-03T12:21:26.596Z</time></trkpt><trkpt lat="46.0831533" lon="13.5506333"><ele>173.0</ele><time>2026-05-03T12:21:27.594Z</time></trkpt><trkpt lat="46.0830483" lon="13.5505633"><ele>173.0</ele><time>2026-05-03T12:21:28.596Z</time></trkpt><trkpt lat="46.0829783" lon="13.550455"><ele>170.25</ele><time>2026-05-03T12:21:29.596Z</time></trkpt><trkpt lat="46.0829417" lon="13.5503083"><ele>167.5</ele><time>2026-05-03T12:21:30.593Z</time></trkpt><trkpt lat="46.08294" lon="13.550105"><ele>164.75</ele><time>2026-05-03T12:21:31.594Z</time></trkpt><trkpt lat="46.0829383" lon="13.5498933"><ele>162.0</ele><time>2026-05-03T12:21:32.597Z</time></trkpt><trkpt lat="46.08295" lon="13.5496767"><ele>161.66666666666666</ele><time>2026-05-03T12:21:33.594Z</time></trkpt><trkpt lat="46.0829733" lon="13.5494333"><ele>161.33333333333331</ele><time>2026-05-03T12:21:34.596Z</time></trkpt><trkpt lat="46.083025" lon="13.5491783"><ele>161.0</ele><time>2026-05-03T12:21:35.593Z</time></trkpt><trkpt lat="46.0830817" lon="13.5489233"><ele>163.33333333333331</ele><time>2026-05-03T12:21:36.6Z</time></trkpt><trkpt lat="46.0831583" lon="13.5486767"><ele>165.66666666666666</ele><time>2026-05-03T12:21:37.594Z</time></trkpt><trkpt lat="46.0832217" lon="13.54843"><ele>168.0</ele><time>2026-05-03T12:21:38.594Z</time></trkpt><trkpt lat="46.0832733" lon="13.548175"><ele>168.0</ele><time>2026-05-03T12:21:39.593Z</time></trkpt><trkpt lat="46.0833267" lon="13.5479283"><ele>168.0</ele><time>2026-05-03T12:21:40.596Z</time></trkpt><trkpt lat="46.0833933" lon="13.5477017"><ele>168.0</ele><time>2026-05-03T12:21:41.593Z</time></trkpt><trkpt lat="46.083455" lon="13.5474783"><ele>168.0</ele><time>2026-05-03T12:21:42.595Z</time></trkpt><trkpt lat="46.0834933" lon="13.5472617"><ele>168.0</ele><time>2026-05-03T12:21:43.595Z</time></trkpt><trkpt lat="46.0835467" lon="13.5470633"><ele>168.0</ele><time>2026-05-03T12:21:44.595Z</time></trkpt><trkpt lat="46.0835867" lon="13.5468617"><ele>168.0</ele><time>2026-05-03T12:21:45.595Z</time></trkpt><trkpt lat="46.0835767" lon="13.54664"><ele>166.66666666666666</ele><time>2026-05-03T12:21:46.594Z</time></trkpt><trkpt lat="46.08355" lon="13.5464183"><ele>165.33333333333331</ele><time>2026-05-03T12:21:47.595Z</time></trkpt><trkpt lat="46.0835" lon="13.5461883"><ele>164.0</ele><time>2026-05-03T12:21:48.596Z</time></trkpt><trkpt lat="46.0834683" lon="13.545945"><ele>164.0</ele><time>2026-05-03T12:21:49.593Z</time></trkpt><trkpt lat="46.0834483" lon="13.5456817"><ele>164.0</ele><time>2026-05-03T12:21:50.594Z</time></trkpt><trkpt lat="46.0834217" lon="13.545405"><ele>164.0</ele><time>2026-05-03T12:21:51.593Z</time></trkpt><trkpt lat="46.083385" lon="13.5451283"><ele>162.66666666666666</ele><time>2026-05-03T12:21:52.593Z</time></trkpt><trkpt lat="46.0833433" lon="13.5448683"><ele>161.33333333333334</ele><time>2026-05-03T12:21:53.594Z</time></trkpt><trkpt lat="46.083295" lon="13.5446217"><ele>160.0</ele><time>2026-05-03T12:21:54.594Z</time></trkpt><trkpt lat="46.0832267" lon="13.5443917"><ele>160.0</ele><time>2026-05-03T12:21:55.593Z</time></trkpt><trkpt lat="46.0831567" lon="13.5441917"><ele>160.0</ele><time>2026-05-03T12:21:56.596Z</time></trkpt><trkpt lat="46.0830767" lon="13.544005"><ele>160.0</ele><time>2026-05-03T12:21:57.595Z</time></trkpt><trkpt lat="46.0830167" lon="13.5438217"><ele>160.0</ele><time>2026-05-03T12:21:58.596Z</time></trkpt><trkpt lat="46.0829617" lon="13.54366"><ele>159.2</ele><time>2026-05-03T12:21:59.594Z</time></trkpt><trkpt lat="46.0829033" lon="13.543505"><ele>158.4</ele><time>2026-05-03T12:22:00.596Z</time></trkpt><trkpt lat="46.08285" lon="13.5433617"><ele>157.6</ele><time>2026-05-03T12:22:01.594Z</time></trkpt><trkpt lat="46.082795" lon="13.5432333"><ele>156.8</ele><time>2026-05-03T12:22:02.594Z</time></trkpt><trkpt lat="46.082745" lon="13.54312"><ele>156.0</ele><time>2026-05-03T12:22:03.594Z</time></trkpt><trkpt lat="46.0827" lon="13.5430267"><ele>156.0</ele><time>2026-05-03T12:22:04.594Z</time></trkpt><trkpt lat="46.0826833" lon="13.54293"><ele>156.0</ele><time>2026-05-03T12:22:05.594Z</time></trkpt><trkpt lat="46.0826783" lon="13.5428217"><ele>156.0</ele><time>2026-05-03T12:22:06.595Z</time></trkpt><trkpt lat="46.0827117" lon="13.542695"><ele>156.0</ele><time>2026-05-03T12:22:07.594Z</time></trkpt><trkpt lat="46.0827333" lon="13.5425567"><ele>156.0</ele><time>2026-05-03T12:22:08.596Z</time></trkpt><trkpt lat="46.082765" lon="13.5424117"><ele>156.0</ele><time>2026-05-03T12:22:09.593Z</time></trkpt><trkpt lat="46.0828033" lon="13.542275"><ele>157.2</ele><time>2026-05-03T12:22:10.594Z</time></trkpt><trkpt lat="46.0828383" lon="13.5421467"><ele>158.39999999999998</ele><time>2026-05-03T12:22:11.595Z</time></trkpt><trkpt lat="46.08288" lon="13.5420267"><ele>159.6</ele><time>2026-05-03T12:22:12.594Z</time></trkpt><trkpt lat="46.0829283" lon="13.54191"><ele>160.79999999999998</ele><time>2026-05-03T12:22:13.593Z</time></trkpt><trkpt lat="46.0829817" lon="13.5417917"><ele>162.0</ele><time>2026-05-03T12:22:14.594Z</time></trkpt><trkpt lat="46.0830333" lon="13.5416733"><ele>165.8</ele><time>2026-05-03T12:22:15.594Z</time></trkpt><trkpt lat="46.08308" lon="13.5415517"><ele>169.6</ele><time>2026-05-03T12:22:16.595Z</time></trkpt><trkpt lat="46.0831217" lon="13.5414267"><ele>173.4</ele><time>2026-05-03T12:22:17.594Z</time></trkpt><trkpt lat="46.0831583" lon="13.5412967"><ele>177.20000000000002</ele><time>2026-05-03T12:22:18.595Z</time></trkpt><trkpt lat="46.0831867" lon="13.5411433"><ele>181.0</ele><time>2026-05-03T12:22:19.593Z</time></trkpt><trkpt lat="46.0832333" lon="13.5409933"><ele>180.4</ele><time>2026-05-03T12:22:20.595Z</time></trkpt><trkpt lat="46.08329" lon="13.5408517"><ele>179.8</ele><time>2026-05-03T12:22:21.594Z</time></trkpt><trkpt lat="46.0833367" lon="13.5407133"><ele>179.20000000000002</ele><time>2026-05-03T12:22:22.594Z</time></trkpt><trkpt lat="46.08338" lon="13.5405917"><ele>178.60000000000002</ele><time>2026-05-03T12:22:23.593Z</time></trkpt><trkpt lat="46.0834217" lon="13.54048"><ele>178.0</ele><time>2026-05-03T12:22:24.595Z</time></trkpt><trkpt lat="46.083465" lon="13.5403867"><ele>179.42857142857142</ele><time>2026-05-03T12:22:25.594Z</time></trkpt><trkpt lat="46.08351" lon="13.5403"><ele>180.85714285714286</ele><time>2026-05-03T12:22:26.594Z</time></trkpt><trkpt lat="46.083565" lon="13.54022"><ele>182.28571428571428</ele><time>2026-05-03T12:22:27.594Z</time></trkpt><trkpt lat="46.0836167" lon="13.5401433"><ele>183.71428571428572</ele><time>2026-05-03T12:22:28.594Z</time></trkpt><trkpt lat="46.0836883" lon="13.5400917"><ele>185.14285714285714</ele><time>2026-05-03T12:22:29.594Z</time></trkpt><trkpt lat="46.0837617" lon="13.540065"><ele>186.57142857142856</ele><time>2026-05-03T12:22:30.595Z</time></trkpt><trkpt lat="46.0838267" lon="13.540055"><ele>188.0</ele><time>2026-05-03T12:22:31.594Z</time></trkpt><trkpt lat="46.08397" lon="13.5399817"><ele>188.0</ele><time>2026-05-03T12:22:33.594Z</time></trkpt><trkpt lat="46.0840267" lon="13.5399183"><ele>188.0</ele><time>2026-05-03T12:22:34.596Z</time></trkpt><trkpt lat="46.0840767" lon="13.539835"><ele>188.0</ele><time>2026-05-03T12:22:35.596Z</time></trkpt><trkpt lat="46.0841267" lon="13.5397417"><ele>188.0</ele><time>2026-05-03T12:22:36.593Z</time></trkpt><trkpt lat="46.08418" lon="13.5396483"><ele>188.0</ele><time>2026-05-03T12:22:37.595Z</time></trkpt><trkpt lat="46.0842183" lon="13.5395317"><ele>188.0</ele><time>2026-05-03T12:22:38.595Z</time></trkpt><trkpt lat="46.0842567" lon="13.53944"><ele>187.16666666666666</ele><time>2026-05-03T12:22:39.594Z</time></trkpt><trkpt lat="46.0843083" lon="13.5393567"><ele>186.33333333333331</ele><time>2026-05-03T12:22:40.594Z</time></trkpt><trkpt lat="46.08436" lon="13.539285"><ele>185.5</ele><time>2026-05-03T12:22:41.595Z</time></trkpt><trkpt lat="46.0844183" lon="13.53923"><ele>184.66666666666666</ele><time>2026-05-03T12:22:42.595Z</time></trkpt><trkpt lat="46.0844833" lon="13.5391733"><ele>183.83333333333334</ele><time>2026-05-03T12:22:43.595Z</time></trkpt><trkpt lat="46.0846" lon="13.5391333"><ele>183.0</ele><time>2026-05-03T12:22:45.593Z</time></trkpt><trkpt lat="46.0847267" lon="13.539165"><ele>183.0</ele><time>2026-05-03T12:22:47.593Z</time></trkpt><trkpt lat="46.0848033" lon="13.5391783"><ele>183.0</ele><time>2026-05-03T12:22:48.594Z</time></trkpt><trkpt lat="46.0848783" lon="13.539175"><ele>183.0</ele><time>2026-05-03T12:22:49.594Z</time></trkpt><trkpt lat="46.0849467" lon="13.5391517"><ele>183.0</ele><time>2026-05-03T12:22:50.594Z</time></trkpt><trkpt lat="46.085015" lon="13.5391017"><ele>183.0</ele><time>2026-05-03T12:22:51.595Z</time></trkpt><trkpt lat="46.0850767" lon="13.539045"><ele>183.0</ele><time>2026-05-03T12:22:52.595Z</time></trkpt><trkpt lat="46.08515" lon="13.5389983"><ele>184.0</ele><time>2026-05-03T12:22:53.595Z</time></trkpt><trkpt lat="46.085215" lon="13.5389667"><ele>185.0</ele><time>2026-05-03T12:22:54.593Z</time></trkpt><trkpt lat="46.0852833" lon="13.5389617"><ele>186.0</ele><time>2026-05-03T12:22:55.594Z</time></trkpt><trkpt lat="46.0853617" lon="13.53896"><ele>187.0</ele><time>2026-05-03T12:22:56.598Z</time></trkpt><trkpt lat="46.0854333" lon="13.538945"><ele>188.0</ele><time>2026-05-03T12:22:57.594Z</time></trkpt><trkpt lat="46.085515" lon="13.5389317"><ele>189.0</ele><time>2026-05-03T12:22:58.595Z</time></trkpt><trkpt lat="46.085605" lon="13.53892"><ele>189.0</ele><time>2026-05-03T12:22:59.594Z</time></trkpt><trkpt lat="46.0857267" lon="13.5389233"><ele>189.0</ele><time>2026-05-03T12:23:01.594Z</time></trkpt><trkpt lat="46.0858333" lon="13.5388917"><ele>189.0</ele><time>2026-05-03T12:23:03.594Z</time></trkpt><trkpt lat="46.0858967" lon="13.53887"><ele>189.0</ele><time>2026-05-03T12:23:04.594Z</time></trkpt><trkpt lat="46.0859967" lon="13.5387967"><ele>189.0</ele><time>2026-05-03T12:23:06.594Z</time></trkpt><trkpt lat="46.0861083" lon="13.5387817"><ele>191.2</ele><time>2026-05-03T12:23:08.595Z</time></trkpt><trkpt lat="46.0861967" lon="13.5388417"><ele>193.39999999999998</ele><time>2026-05-03T12:23:10.596Z</time></trkpt><trkpt lat="46.0862733" lon="13.538925"><ele>195.6</ele><time>2026-05-03T12:23:12.594Z</time></trkpt><trkpt lat="46.0863633" lon="13.5390117"><ele>197.8</ele><time>2026-05-03T12:23:14.595Z</time></trkpt><trkpt lat="46.0864683" lon="13.5390833"><ele>200.0</ele><time>2026-05-03T12:23:16.597Z</time></trkpt><trkpt lat="46.086565" lon="13.5391583"><ele>201.25</ele><time>2026-05-03T12:23:18.595Z</time></trkpt><trkpt lat="46.0866417" lon="13.5392117"><ele>202.5</ele><time>2026-05-03T12:23:20.596Z</time></trkpt><trkpt lat="46.0869" lon="13.539225"><ele>203.75</ele><time>2026-05-03T12:23:46.594Z</time></trkpt><trkpt lat="46.0869817" lon="13.5392217"><ele>205.0</ele><time>2026-05-03T12:23:49.595Z</time></trkpt><trkpt lat="46.0870583" lon="13.539285"><ele>205.0</ele><time>2026-05-03T12:23:51.594Z</time></trkpt><trkpt lat="46.0871467" lon="13.5393217"><ele>205.0</ele><time>2026-05-03T12:23:53.593Z</time></trkpt><trkpt lat="46.0872567" lon="13.5393383"><ele>205.0</ele><time>2026-05-03T12:23:55.594Z</time></trkpt><trkpt lat="46.0873367" lon="13.5392533"><ele>205.0</ele><time>2026-05-03T12:23:57.593Z</time></trkpt><trkpt lat="46.0873883" lon="13.5391933"><ele>205.0</ele><time>2026-05-03T12:23:58.594Z</time></trkpt><trkpt lat="46.08746" lon="13.5390417"><ele>205.6</ele><time>2026-05-03T12:24:00.593Z</time></trkpt><trkpt lat="46.0874967" lon="13.5389617"><ele>206.2</ele><time>2026-05-03T12:24:01.596Z</time></trkpt><trkpt lat="46.087535" lon="13.5388783"><ele>206.8</ele><time>2026-05-03T12:24:02.594Z</time></trkpt><trkpt lat="46.08759" lon="13.538805"><ele>207.4</ele><time>2026-05-03T12:24:03.593Z</time></trkpt><trkpt lat="46.0876983" lon="13.5387217"><ele>208.0</ele><time>2026-05-03T12:24:05.593Z</time></trkpt><trkpt lat="46.0878183" lon="13.5387017"><ele>208.0</ele><time>2026-05-03T12:24:07.593Z</time></trkpt><trkpt lat="46.0879117" lon="13.53866"><ele>208.0</ele><time>2026-05-03T12:24:09.592Z</time></trkpt><trkpt lat="46.0880117" lon="13.5386783"><ele>208.0</ele><time>2026-05-03T12:24:11.593Z</time></trkpt><trkpt lat="46.08812" lon="13.5387217"><ele>208.0</ele><time>2026-05-03T12:24:13.594Z</time></trkpt><trkpt lat="46.08823" lon="13.538765"><ele>208.0</ele><time>2026-05-03T12:24:15.594Z</time></trkpt><trkpt lat="46.08832" lon="13.5387433"><ele>209.49999999999997</ele><time>2026-05-03T12:24:17.596Z</time></trkpt><trkpt lat="46.0884083" lon="13.5386633"><ele>211.0</ele><time>2026-05-03T12:24:19.593Z</time></trkpt><trkpt lat="46.0884683" lon="13.5386033"><ele>212.5</ele><time>2026-05-03T12:24:20.594Z</time></trkpt><trkpt lat="46.08853" lon="13.5385383"><ele>214.0</ele><time>2026-05-03T12:24:21.592Z</time></trkpt><trkpt lat="46.0886" lon="13.538475"><ele>215.49999999999997</ele><time>2026-05-03T12:24:22.594Z</time></trkpt><trkpt lat="46.0886817" lon="13.538405"><ele>217.0</ele><time>2026-05-03T12:24:23.594Z</time></trkpt><trkpt lat="46.0887633" lon="13.5383367"><ele>217.0</ele><time>2026-05-03T12:24:24.594Z</time></trkpt><trkpt lat="46.0888433" lon="13.5382667"><ele>217.0</ele><time>2026-05-03T12:24:25.594Z</time></trkpt><trkpt lat="46.0889183" lon="13.5381883"><ele>217.0</ele><time>2026-05-03T12:24:26.593Z</time></trkpt><trkpt lat="46.088995" lon="13.5381117"><ele>217.0</ele><time>2026-05-03T12:24:27.593Z</time></trkpt><trkpt lat="46.0890717" lon="13.5380417"><ele>217.0</ele><time>2026-05-03T12:24:28.593Z</time></trkpt><trkpt lat="46.0891367" lon="13.5379633"><ele>220.0</ele><time>2026-05-03T12:24:29.594Z</time></trkpt><trkpt lat="46.08919" lon="13.5378967"><ele>223.0</ele><time>2026-05-03T12:24:30.595Z</time></trkpt><trkpt lat="46.0892783" lon="13.5377933"><ele>226.0</ele><time>2026-05-03T12:24:32.593Z</time></trkpt><trkpt lat="46.0892517" lon="13.5380083"><ele>229.0</ele><time>2026-05-03T12:24:39.595Z</time></trkpt><trkpt lat="46.0892067" lon="13.5381433"><ele>232.0</ele><time>2026-05-03T12:24:41.594Z</time></trkpt><trkpt lat="46.08917" lon="13.53833"><ele>233.0</ele><time>2026-05-03T12:24:43.596Z</time></trkpt><trkpt lat="46.08915" lon="13.538435"><ele>234.0</ele><time>2026-05-03T12:24:44.595Z</time></trkpt><trkpt lat="46.08913" lon="13.5385417"><ele>235.0</ele><time>2026-05-03T12:24:45.593Z</time></trkpt><trkpt lat="46.0891233" lon="13.5386967"><ele>236.0</ele><time>2026-05-03T12:24:47.594Z</time></trkpt><trkpt lat="46.0892" lon="13.538815"><ele>237.0</ele><time>2026-05-03T12:24:49.594Z</time></trkpt><trkpt lat="46.08929" lon="13.538855"><ele>237.0</ele><time>2026-05-03T12:24:51.594Z</time></trkpt><trkpt lat="46.0893933" lon="13.538855"><ele>237.0</ele><time>2026-05-03T12:24:53.593Z</time></trkpt><trkpt lat="46.0895133" lon="13.5388133"><ele>237.0</ele><time>2026-05-03T12:24:55.595Z</time></trkpt><trkpt lat="46.0895817" lon="13.53877"><ele>237.0</ele><time>2026-05-03T12:24:56.594Z</time></trkpt><trkpt lat="46.089645" lon="13.5386917"><ele>237.0</ele><time>2026-05-03T12:24:57.593Z</time></trkpt><trkpt lat="46.089715" lon="13.5386167"><ele>237.33333333333334</ele><time>2026-05-03T12:24:58.594Z</time></trkpt><trkpt lat="46.08978" lon="13.5385583"><ele>237.66666666666669</ele><time>2026-05-03T12:24:59.594Z</time></trkpt><trkpt lat="46.0898417" lon="13.5384967"><ele>238.0</ele><time>2026-05-03T12:25:00.593Z</time></trkpt><trkpt lat="46.089905" lon="13.5384083"><ele>238.33333333333334</ele><time>2026-05-03T12:25:01.595Z</time></trkpt><trkpt lat="46.0899683" lon="13.53831"><ele>238.66666666666669</ele><time>2026-05-03T12:25:02.594Z</time></trkpt><trkpt lat="46.0900267" lon="13.5382133"><ele>239.0</ele><time>2026-05-03T12:25:03.593Z</time></trkpt><trkpt lat="46.0900917" lon="13.5381183"><ele>241.83333333333334</ele><time>2026-05-03T12:25:04.594Z</time></trkpt><trkpt lat="46.090165" lon="13.5380317"><ele>244.66666666666669</ele><time>2026-05-03T12:25:05.594Z</time></trkpt><trkpt lat="46.0902283" lon="13.5379633"><ele>247.5</ele><time>2026-05-03T12:25:06.594Z</time></trkpt><trkpt lat="46.0902767" lon="13.5378983"><ele>250.33333333333331</ele><time>2026-05-03T12:25:07.594Z</time></trkpt><trkpt lat="46.0903317" lon="13.5378467"><ele>253.16666666666666</ele><time>2026-05-03T12:25:08.595Z</time></trkpt><trkpt lat="46.0904517" lon="13.5377767"><ele>256.0</ele><time>2026-05-03T12:25:10.594Z</time></trkpt><trkpt lat="46.0905217" lon="13.537755"><ele>256.3333333333333</ele><time>2026-05-03T12:25:11.594Z</time></trkpt><trkpt lat="46.0906017" lon="13.53774"><ele>256.66666666666663</ele><time>2026-05-03T12:25:12.594Z</time></trkpt><trkpt lat="46.09068" lon="13.5377183"><ele>257.0</ele><time>2026-05-03T12:25:13.596Z</time></trkpt><trkpt lat="46.09075" lon="13.537715"><ele>257.3333333333333</ele><time>2026-05-03T12:25:14.594Z</time></trkpt><trkpt lat="46.090815" lon="13.5377267"><ele>257.6666666666667</ele><time>2026-05-03T12:25:15.594Z</time></trkpt><trkpt lat="46.0908767" lon="13.5377983"><ele>258.0</ele><time>2026-05-03T12:25:17.593Z</time></trkpt><trkpt lat="46.09089" lon="13.5379367"><ele>257.6666666666667</ele><time>2026-05-03T12:25:19.594Z</time></trkpt><trkpt lat="46.0908717" lon="13.538035"><ele>257.3333333333333</ele><time>2026-05-03T12:25:20.597Z</time></trkpt><trkpt lat="46.0908433" lon="13.5381383"><ele>257.0</ele><time>2026-05-03T12:25:21.593Z</time></trkpt><trkpt lat="46.0908117" lon="13.5382617"><ele>256.66666666666663</ele><time>2026-05-03T12:25:22.595Z</time></trkpt><trkpt lat="46.0907817" lon="13.5383783"><ele>256.3333333333333</ele><time>2026-05-03T12:25:23.596Z</time></trkpt><trkpt lat="46.0907467" lon="13.5385167"><ele>256.0</ele><time>2026-05-03T12:25:24.597Z</time></trkpt><trkpt lat="46.0907033" lon="13.5386583"><ele>256.2</ele><time>2026-05-03T12:25:25.597Z</time></trkpt><trkpt lat="46.090655" lon="13.53881"><ele>256.40000000000003</ele><time>2026-05-03T12:25:26.596Z</time></trkpt><trkpt lat="46.0906" lon="13.5389417"><ele>256.6</ele><time>2026-05-03T12:25:27.594Z</time></trkpt><trkpt lat="46.0905533" lon="13.5390533"><ele>256.8</ele><time>2026-05-03T12:25:28.595Z</time></trkpt><trkpt lat="46.0905133" lon="13.5391567"><ele>257.0</ele><time>2026-05-03T12:25:29.595Z</time></trkpt><trkpt lat="46.0904617" lon="13.539295"><ele>257.0</ele><time>2026-05-03T12:25:31.595Z</time></trkpt><trkpt lat="46.0905433" lon="13.5392933"><ele>257.0</ele><time>2026-05-03T12:25:33.594Z</time></trkpt><trkpt lat="46.090605" lon="13.5392083"><ele>257.0</ele><time>2026-05-03T12:25:35.594Z</time></trkpt><trkpt lat="46.0906917" lon="13.5390433"><ele>257.0</ele><time>2026-05-03T12:25:37.594Z</time></trkpt><trkpt lat="46.0907467" lon="13.5389317"><ele>257.0</ele><time>2026-05-03T12:25:38.6Z</time></trkpt><trkpt lat="46.090805" lon="13.53881"><ele>262.0</ele><time>2026-05-03T12:25:39.594Z</time></trkpt><trkpt lat="46.09087" lon="13.53868"><ele>267.0</ele><time>2026-05-03T12:25:40.595Z</time></trkpt><trkpt lat="46.0909233" lon="13.5385583"><ele>272.0</ele><time>2026-05-03T12:25:41.593Z</time></trkpt><trkpt lat="46.0909717" lon="13.53848"><ele>277.0</ele><time>2026-05-03T12:25:42.594Z</time></trkpt><trkpt lat="46.0910083" lon="13.5383967"><ele>282.0</ele><time>2026-05-03T12:25:43.594Z</time></trkpt><trkpt lat="46.0910867" lon="13.5382767"><ele>282.0</ele><time>2026-05-03T12:25:45.594Z</time></trkpt><trkpt lat="46.091135" lon="13.538215"><ele>282.0</ele><time>2026-05-03T12:25:46.596Z</time></trkpt><trkpt lat="46.0911883" lon="13.5381567"><ele>282.0</ele><time>2026-05-03T12:25:47.594Z</time></trkpt><trkpt lat="46.0912417" lon="13.5380817"><ele>282.0</ele><time>2026-05-03T12:25:48.596Z</time></trkpt><trkpt lat="46.091305" lon="13.5380017"><ele>282.0</ele><time>2026-05-03T12:25:49.593Z</time></trkpt><trkpt lat="46.0913717" lon="13.5379133"><ele>282.0</ele><time>2026-05-03T12:25:50.595Z</time></trkpt><trkpt lat="46.0914317" lon="13.53781"><ele>280.8333333333333</ele><time>2026-05-03T12:25:51.593Z</time></trkpt><trkpt lat="46.0914817" lon="13.537705"><ele>279.6666666666667</ele><time>2026-05-03T12:25:52.595Z</time></trkpt><trkpt lat="46.0915383" lon="13.5376033"><ele>278.5</ele><time>2026-05-03T12:25:53.595Z</time></trkpt><trkpt lat="46.0915967" lon="13.537505"><ele>277.33333333333337</ele><time>2026-05-03T12:25:54.593Z</time></trkpt><trkpt lat="46.09165" lon="13.5374117"><ele>276.1666666666667</ele><time>2026-05-03T12:25:55.593Z</time></trkpt><trkpt lat="46.091705" lon="13.5373217"><ele>275.0</ele><time>2026-05-03T12:25:56.595Z</time></trkpt><trkpt lat="46.09176" lon="13.5372383"><ele>279.1666666666667</ele><time>2026-05-03T12:25:57.594Z</time></trkpt><trkpt lat="46.0918083" lon="13.5371517"><ele>283.33333333333337</ele><time>2026-05-03T12:25:58.595Z</time></trkpt><trkpt lat="46.0918583" lon="13.5370833"><ele>287.5</ele><time>2026-05-03T12:25:59.593Z</time></trkpt><trkpt lat="46.0918933" lon="13.536925"><ele>291.6666666666667</ele><time>2026-05-03T12:26:01.593Z</time></trkpt><trkpt lat="46.09195" lon="13.5368733"><ele>295.8333333333333</ele><time>2026-05-03T12:26:03.594Z</time></trkpt><trkpt lat="46.0920467" lon="13.5368217"><ele>300.0</ele><time>2026-05-03T12:26:06.594Z</time></trkpt><trkpt lat="46.0921283" lon="13.5366717"><ele>300.0</ele><time>2026-05-03T12:26:08.594Z</time></trkpt><trkpt lat="46.09218" lon="13.5366033"><ele>300.0</ele><time>2026-05-03T12:26:09.594Z</time></trkpt><trkpt lat="46.092225" lon="13.5365333"><ele>300.0</ele><time>2026-05-03T12:26:10.595Z</time></trkpt><trkpt lat="46.0922867" lon="13.5363817"><ele>300.0</ele><time>2026-05-03T12:26:12.597Z</time></trkpt><trkpt lat="46.092345" lon="13.536215"><ele>300.0</ele><time>2026-05-03T12:26:14.595Z</time></trkpt><trkpt lat="46.09236" lon="13.5361183"><ele>299.5</ele><time>2026-05-03T12:26:15.593Z</time></trkpt><trkpt lat="46.0923667" lon="13.536025"><ele>299.0</ele><time>2026-05-03T12:26:16.595Z</time></trkpt><trkpt lat="46.0923667" lon="13.5359283"><ele>298.5</ele><time>2026-05-03T12:26:17.594Z</time></trkpt><trkpt lat="46.0923567" lon="13.535835"><ele>298.0</ele><time>2026-05-03T12:26:18.594Z</time></trkpt><trkpt lat="46.092345" lon="13.5356867"><ele>297.5</ele><time>2026-05-03T12:26:20.595Z</time></trkpt><trkpt lat="46.092295" lon="13.5355033"><ele>297.0</ele><time>2026-05-03T12:26:22.594Z</time></trkpt><trkpt lat="46.0922783" lon="13.5354133"><ele>295.8</ele><time>2026-05-03T12:26:23.595Z</time></trkpt><trkpt lat="46.0923" lon="13.535305"><ele>294.6</ele><time>2026-05-03T12:26:25.594Z</time></trkpt><trkpt lat="46.09236" lon="13.535185"><ele>293.40000000000003</ele><time>2026-05-03T12:26:27.595Z</time></trkpt><trkpt lat="46.0924633" lon="13.53507"><ele>292.2</ele><time>2026-05-03T12:26:29.595Z</time></trkpt><trkpt lat="46.092525" lon="13.535005"><ele>291.0</ele><time>2026-05-03T12:26:30.595Z</time></trkpt><trkpt lat="46.0925867" lon="13.5349467"><ele>296.6666666666667</ele><time>2026-05-03T12:26:31.595Z</time></trkpt><trkpt lat="46.092645" lon="13.53488"><ele>302.3333333333333</ele><time>2026-05-03T12:26:32.595Z</time></trkpt><trkpt lat="46.0926933" lon="13.5348183"><ele>308.0</ele><time>2026-05-03T12:26:33.594Z</time></trkpt><trkpt lat="46.09276" lon="13.534755"><ele>313.66666666666663</ele><time>2026-05-03T12:26:34.597Z</time></trkpt><trkpt lat="46.092835" lon="13.5346717"><ele>319.3333333333333</ele><time>2026-05-03T12:26:36.593Z</time></trkpt><trkpt lat="46.0929117" lon="13.53463"><ele>325.0</ele><time>2026-05-03T12:26:38.594Z</time></trkpt><trkpt lat="46.0930267" lon="13.534575"><ele>323.8333333333333</ele><time>2026-05-03T12:26:40.594Z</time></trkpt><trkpt lat="46.0931117" lon="13.534525"><ele>322.66666666666663</ele><time>2026-05-03T12:26:42.593Z</time></trkpt><trkpt lat="46.0932067" lon="13.5344967"><ele>321.5</ele><time>2026-05-03T12:26:44.595Z</time></trkpt><trkpt lat="46.0933133" lon="13.5344533"><ele>320.3333333333333</ele><time>2026-05-03T12:26:46.595Z</time></trkpt><trkpt lat="46.0933833" lon="13.534425"><ele>319.1666666666667</ele><time>2026-05-03T12:26:47.595Z</time></trkpt><trkpt lat="46.093445" lon="13.5343933"><ele>318.0</ele><time>2026-05-03T12:26:48.595Z</time></trkpt><trkpt lat="46.093505" lon="13.5343567"><ele>318.0</ele><time>2026-05-03T12:26:49.596Z</time></trkpt><trkpt lat="46.093585" lon="13.5343083"><ele>318.0</ele><time>2026-05-03T12:26:51.597Z</time></trkpt><trkpt lat="46.09369" lon="13.5342783"><ele>318.0</ele><time>2026-05-03T12:26:53.595Z</time></trkpt><trkpt lat="46.0937817" lon="13.5342417"><ele>318.0</ele><time>2026-05-03T12:26:55.594Z</time></trkpt><trkpt lat="46.09385" lon="13.5342083"><ele>318.0</ele><time>2026-05-03T12:26:57.593Z</time></trkpt><trkpt lat="46.0939067" lon="13.5341567"><ele>318.0</ele><time>2026-05-03T12:26:59.593Z</time></trkpt><trkpt lat="46.0939933" lon="13.5341133"><ele>318.0</ele><time>2026-05-03T12:27:00.594Z</time></trkpt><trkpt lat="46.09406" lon="13.5340833"><ele>318.0</ele><time>2026-05-03T12:27:01.594Z</time></trkpt><trkpt lat="46.0941133" lon="13.5339933"><ele>318.0</ele><time>2026-05-03T12:27:04.597Z</time></trkpt><trkpt lat="46.0940567" lon="13.5339217"><ele>318.0</ele><time>2026-05-03T12:27:07.594Z</time></trkpt><trkpt lat="46.0939917" lon="13.5339217"><ele>318.0</ele><time>2026-05-03T12:27:11.594Z</time></trkpt><trkpt lat="46.0939233" lon="13.533835"><ele>318.0</ele><time>2026-05-03T12:27:33.599Z</time></trkpt><trkpt lat="46.093855" lon="13.5337833"><ele>318.0</ele><time>2026-05-03T12:27:34.593Z</time></trkpt><trkpt lat="46.0937833" lon="13.53373"><ele>318.0</ele><time>2026-05-03T12:27:35.594Z</time></trkpt><trkpt lat="46.0937017" lon="13.5336783"><ele>318.0</ele><time>2026-05-03T12:27:36.593Z</time></trkpt><trkpt lat="46.0936" lon="13.5336333"><ele>318.0</ele><time>2026-05-03T12:27:37.595Z</time></trkpt><trkpt lat="46.0934967" lon="13.5335683"><ele>318.0</ele><time>2026-05-03T12:27:38.595Z</time></trkpt><trkpt lat="46.0933867" lon="13.5335083"><ele>319.6</ele><time>2026-05-03T12:27:39.594Z</time></trkpt><trkpt lat="46.0932833" lon="13.5334567"><ele>321.20000000000005</ele><time>2026-05-03T12:27:40.596Z</time></trkpt><trkpt lat="46.093185" lon="13.533405"><ele>322.8</ele><time>2026-05-03T12:27:41.595Z</time></trkpt><trkpt lat="46.0930967" lon="13.5333533"><ele>324.40000000000003</ele><time>2026-05-03T12:27:42.594Z</time></trkpt><trkpt lat="46.093015" lon="13.5332867"><ele>326.0</ele><time>2026-05-03T12:27:43.594Z</time></trkpt><trkpt lat="46.09294" lon="13.5332233"><ele>322.83333333333337</ele><time>2026-05-03T12:27:44.594Z</time></trkpt><trkpt lat="46.0928767" lon="13.53315"><ele>319.6666666666667</ele><time>2026-05-03T12:27:45.596Z</time></trkpt><trkpt lat="46.0928267" lon="13.5330767"><ele>316.5</ele><time>2026-05-03T12:27:46.593Z</time></trkpt><trkpt lat="46.0927917" lon="13.5329967"><ele>313.3333333333333</ele><time>2026-05-03T12:27:47.597Z</time></trkpt><trkpt lat="46.0927633" lon="13.5329133"><ele>310.16666666666663</ele><time>2026-05-03T12:27:48.594Z</time></trkpt><trkpt lat="46.0927533" lon="13.5327467"><ele>307.0</ele><time>2026-05-03T12:27:50.595Z</time></trkpt><trkpt lat="46.09277" lon="13.5326283"><ele>307.0</ele><time>2026-05-03T12:27:51.593Z</time></trkpt><trkpt lat="46.092795" lon="13.5324883"><ele>307.0</ele><time>2026-05-03T12:27:52.594Z</time></trkpt><trkpt lat="46.0928167" lon="13.5323333"><ele>307.0</ele><time>2026-05-03T12:27:53.595Z</time></trkpt><trkpt lat="46.0928367" lon="13.5321717"><ele>307.0</ele><time>2026-05-03T12:27:54.594Z</time></trkpt><trkpt lat="46.0928767" lon="13.5320267"><ele>307.0</ele><time>2026-05-03T12:27:55.595Z</time></trkpt><trkpt lat="46.09292" lon="13.5319033"><ele>307.8333333333333</ele><time>2026-05-03T12:27:56.6Z</time></trkpt><trkpt lat="46.0929283" lon="13.531775"><ele>308.66666666666663</ele><time>2026-05-03T12:27:57.595Z</time></trkpt><trkpt lat="46.0929517" lon="13.5316517"><ele>309.5</ele><time>2026-05-03T12:27:58.595Z</time></trkpt><trkpt lat="46.0929567" lon="13.5315217"><ele>310.3333333333333</ele><time>2026-05-03T12:27:59.598Z</time></trkpt><trkpt lat="46.09298" lon="13.5314017"><ele>311.1666666666667</ele><time>2026-05-03T12:28:00.596Z</time></trkpt><trkpt lat="46.092985" lon="13.5312767"><ele>312.0</ele><time>2026-05-03T12:28:01.593Z</time></trkpt><trkpt lat="46.092995" lon="13.5311633"><ele>313.8</ele><time>2026-05-03T12:28:02.597Z</time></trkpt><trkpt lat="46.0929683" lon="13.5309833"><ele>315.6</ele><time>2026-05-03T12:28:04.595Z</time></trkpt><trkpt lat="46.09296" lon="13.5308767"><ele>317.40000000000003</ele><time>2026-05-03T12:28:05.594Z</time></trkpt><trkpt lat="46.0929717" lon="13.5307733"><ele>319.2</ele><time>2026-05-03T12:28:06.596Z</time></trkpt><trkpt lat="46.0929867" lon="13.5306517"><ele>321.0</ele><time>2026-05-03T12:28:07.594Z</time></trkpt><trkpt lat="46.0929983" lon="13.5304983"><ele>322.4</ele><time>2026-05-03T12:28:08.595Z</time></trkpt><trkpt lat="46.09302" lon="13.5303517"><ele>323.8</ele><time>2026-05-03T12:28:09.595Z</time></trkpt><trkpt lat="46.0930383" lon="13.5302033"><ele>325.2</ele><time>2026-05-03T12:28:10.595Z</time></trkpt><trkpt lat="46.0930533" lon="13.53007"><ele>326.59999999999997</ele><time>2026-05-03T12:28:11.594Z</time></trkpt><trkpt lat="46.0930817" lon="13.529965"><ele>328.0</ele><time>2026-05-03T12:28:12.595Z</time></trkpt><trkpt lat="46.0931183" lon="13.529865"><ele>328.0</ele><time>2026-05-03T12:28:13.594Z</time></trkpt><trkpt lat="46.0931467" lon="13.529775"><ele>328.0</ele><time>2026-05-03T12:28:14.595Z</time></trkpt><trkpt lat="46.0931833" lon="13.529695"><ele>328.0</ele><time>2026-05-03T12:28:15.593Z</time></trkpt><trkpt lat="46.0932533" lon="13.5295817"><ele>328.0</ele><time>2026-05-03T12:28:17.594Z</time></trkpt><trkpt lat="46.093315" lon="13.529515"><ele>328.0</ele><time>2026-05-03T12:28:19.594Z</time></trkpt><trkpt lat="46.0932867" lon="13.529415"><ele>328.0</ele><time>2026-05-03T12:28:21.595Z</time></trkpt><trkpt lat="46.0932283" lon="13.5293783"><ele>329.79999999999995</ele><time>2026-05-03T12:28:22.598Z</time></trkpt><trkpt lat="46.0931467" lon="13.5293117"><ele>331.6</ele><time>2026-05-03T12:28:23.596Z</time></trkpt><trkpt lat="46.0930633" lon="13.5292083"><ele>333.4</ele><time>2026-05-03T12:28:24.597Z</time></trkpt><trkpt lat="46.0930033" lon="13.529065"><ele>335.20000000000005</ele><time>2026-05-03T12:28:26.597Z</time></trkpt><trkpt lat="46.0929633" lon="13.5288983"><ele>337.0</ele><time>2026-05-03T12:28:28.594Z</time></trkpt><trkpt lat="46.0929233" lon="13.5287967"><ele>340.40000000000003</ele><time>2026-05-03T12:28:29.597Z</time></trkpt><trkpt lat="46.0928783" lon="13.5287"><ele>343.8</ele><time>2026-05-03T12:28:30.595Z</time></trkpt><trkpt lat="46.09284" lon="13.52862"><ele>347.2</ele><time>2026-05-03T12:28:31.595Z</time></trkpt><trkpt lat="46.092705" lon="13.5285817"><ele>350.6</ele><time>2026-05-03T12:28:32.594Z</time></trkpt><trkpt lat="46.0925867" lon="13.5285483"><ele>354.0</ele><time>2026-05-03T12:28:34.595Z</time></trkpt><trkpt lat="46.09252" lon="13.52853"><ele>354.0</ele><time>2026-05-03T12:28:35.595Z</time></trkpt><trkpt lat="46.0924367" lon="13.528655"><ele>354.0</ele><time>2026-05-03T12:28:37.594Z</time></trkpt><trkpt lat="46.0924233" lon="13.5287767"><ele>354.0</ele><time>2026-05-03T12:28:38.594Z</time></trkpt><trkpt lat="46.0924083" lon="13.5288733"><ele>354.0</ele><time>2026-05-03T12:28:39.594Z</time></trkpt><trkpt lat="46.09238" lon="13.5289683"><ele>354.0</ele><time>2026-05-03T12:28:40.594Z</time></trkpt><trkpt lat="46.0923417" lon="13.5290567"><ele>354.0</ele><time>2026-05-03T12:28:41.595Z</time></trkpt><trkpt lat="46.0922967" lon="13.5291617"><ele>356.2</ele><time>2026-05-03T12:28:42.593Z</time></trkpt><trkpt lat="46.0922517" lon="13.5292733"><ele>358.4</ele><time>2026-05-03T12:28:43.594Z</time></trkpt><trkpt lat="46.0922017" lon="13.52938"><ele>360.6</ele><time>2026-05-03T12:28:44.594Z</time></trkpt><trkpt lat="46.0921533" lon="13.52949"><ele>362.8</ele><time>2026-05-03T12:28:45.595Z</time></trkpt><trkpt lat="46.092105" lon="13.529615"><ele>365.0</ele><time>2026-05-03T12:28:46.594Z</time></trkpt><trkpt lat="46.092075" lon="13.52978"><ele>365.0</ele><time>2026-05-03T12:28:47.593Z</time></trkpt><trkpt lat="46.092035" lon="13.5299517"><ele>365.0</ele><time>2026-05-03T12:28:48.596Z</time></trkpt><trkpt lat="46.09199" lon="13.5300983"><ele>365.0</ele><time>2026-05-03T12:28:49.595Z</time></trkpt><trkpt lat="46.091945" lon="13.5302383"><ele>365.0</ele><time>2026-05-03T12:28:50.596Z</time></trkpt><trkpt lat="46.091915" lon="13.5303867"><ele>362.5</ele><time>2026-05-03T12:28:51.594Z</time></trkpt><trkpt lat="46.0918917" lon="13.53052"><ele>360.0</ele><time>2026-05-03T12:28:52.594Z</time></trkpt><trkpt lat="46.091865" lon="13.5306233"><ele>357.5</ele><time>2026-05-03T12:28:53.596Z</time></trkpt><trkpt lat="46.0918417" lon="13.5307367"><ele>355.0</ele><time>2026-05-03T12:28:54.596Z</time></trkpt><trkpt lat="46.091795" lon="13.5308233"><ele>352.5</ele><time>2026-05-03T12:28:55.594Z</time></trkpt><trkpt lat="46.09174" lon="13.5309717"><ele>350.0</ele><time>2026-05-03T12:28:57.593Z</time></trkpt><trkpt lat="46.091705" lon="13.5310817"><ele>350.0</ele><time>2026-05-03T12:28:58.596Z</time></trkpt><trkpt lat="46.091665" lon="13.5311817"><ele>350.0</ele><time>2026-05-03T12:28:59.594Z</time></trkpt><trkpt lat="46.091625" lon="13.53127"><ele>350.0</ele><time>2026-05-03T12:29:00.593Z</time></trkpt><trkpt lat="46.09158" lon="13.53137"><ele>350.0</ele><time>2026-05-03T12:29:01.593Z</time></trkpt><trkpt lat="46.0915333" lon="13.5314667"><ele>350.0</ele><time>2026-05-03T12:29:02.596Z</time></trkpt><trkpt lat="46.091475" lon="13.5315383"><ele>350.0</ele><time>2026-05-03T12:29:03.592Z</time></trkpt><trkpt lat="46.0914" lon="13.5316367"><ele>350.83333333333337</ele><time>2026-05-03T12:29:04.595Z</time></trkpt><trkpt lat="46.0913133" lon="13.531695"><ele>351.6666666666667</ele><time>2026-05-03T12:29:05.593Z</time></trkpt><trkpt lat="46.0912333" lon="13.5317183"><ele>352.5</ele><time>2026-05-03T12:29:06.593Z</time></trkpt><trkpt lat="46.0911483" lon="13.531735"><ele>353.3333333333333</ele><time>2026-05-03T12:29:07.594Z</time></trkpt><trkpt lat="46.09106" lon="13.53174"><ele>354.16666666666663</ele><time>2026-05-03T12:29:08.593Z</time></trkpt><trkpt lat="46.0909733" lon="13.5317367"><ele>355.0</ele><time>2026-05-03T12:29:09.593Z</time></trkpt><trkpt lat="46.0908933" lon="13.531705"><ele>355.0</ele><time>2026-05-03T12:29:10.594Z</time></trkpt><trkpt lat="46.09081" lon="13.53167"><ele>355.0</ele><time>2026-05-03T12:29:11.594Z</time></trkpt><trkpt lat="46.0907433" lon="13.5316433"><ele>355.0</ele><time>2026-05-03T12:29:12.594Z</time></trkpt><trkpt lat="46.0906417" lon="13.5316383"><ele>355.0</ele><time>2026-05-03T12:29:14.592Z</time></trkpt><trkpt lat="46.09055" lon="13.5316683"><ele>355.0</ele><time>2026-05-03T12:29:16.595Z</time></trkpt><trkpt lat="46.0904283" lon="13.53176"><ele>354.2</ele><time>2026-05-03T12:29:18.593Z</time></trkpt><trkpt lat="46.0903667" lon="13.53182"><ele>353.4</ele><time>2026-05-03T12:29:19.593Z</time></trkpt><trkpt lat="46.09031" lon="13.5318917"><ele>352.6</ele><time>2026-05-03T12:29:20.594Z</time></trkpt><trkpt lat="46.09024" lon="13.5319867"><ele>351.8</ele><time>2026-05-03T12:29:21.592Z</time></trkpt><trkpt lat="46.090165" lon="13.5321217"><ele>351.0</ele><time>2026-05-03T12:29:22.593Z</time></trkpt><trkpt lat="46.0900783" lon="13.5322217"><ele>351.0</ele><time>2026-05-03T12:29:23.594Z</time></trkpt><trkpt lat="46.089995" lon="13.5323383"><ele>351.0</ele><time>2026-05-03T12:29:24.593Z</time></trkpt><trkpt lat="46.08992" lon="13.5324983"><ele>351.0</ele><time>2026-05-03T12:29:25.594Z</time></trkpt><trkpt lat="46.08985" lon="13.5326467"><ele>351.0</ele><time>2026-05-03T12:29:26.593Z</time></trkpt><trkpt lat="46.089785" lon="13.53282"><ele>352.8333333333333</ele><time>2026-05-03T12:29:27.592Z</time></trkpt><trkpt lat="46.0897467" lon="13.5329417"><ele>354.6666666666667</ele><time>2026-05-03T12:29:28.594Z</time></trkpt><trkpt lat="46.0897017" lon="13.53306"><ele>356.5</ele><time>2026-05-03T12:29:29.593Z</time></trkpt><trkpt lat="46.089655" lon="13.5331333"><ele>358.33333333333337</ele><time>2026-05-03T12:29:30.593Z</time></trkpt><trkpt lat="46.0896017" lon="13.5332217"><ele>360.1666666666667</ele><time>2026-05-03T12:29:31.594Z</time></trkpt><trkpt lat="46.0895383" lon="13.53335"><ele>362.0</ele><time>2026-05-03T12:29:32.593Z</time></trkpt><trkpt lat="46.0894733" lon="13.53343"><ele>362.0</ele><time>2026-05-03T12:29:33.594Z</time></trkpt><trkpt lat="46.089405" lon="13.5334983"><ele>362.0</ele><time>2026-05-03T12:29:34.596Z</time></trkpt><trkpt lat="46.0893283" lon="13.5335783"><ele>362.0</ele><time>2026-05-03T12:29:35.595Z</time></trkpt><trkpt lat="46.08926" lon="13.533645"><ele>362.0</ele><time>2026-05-03T12:29:36.593Z</time></trkpt><trkpt lat="46.0891783" lon="13.5337433"><ele>362.0</ele><time>2026-05-03T12:29:37.594Z</time></trkpt><trkpt lat="46.0891033" lon="13.533825"><ele>361.8</ele><time>2026-05-03T12:29:38.596Z</time></trkpt><trkpt lat="46.0890383" lon="13.5338983"><ele>361.6</ele><time>2026-05-03T12:29:39.594Z</time></trkpt><trkpt lat="46.0889633" lon="13.5339817"><ele>361.40000000000003</ele><time>2026-05-03T12:29:40.593Z</time></trkpt><trkpt lat="46.088885" lon="13.534075"><ele>361.20000000000005</ele><time>2026-05-03T12:29:41.594Z</time></trkpt><trkpt lat="46.0888033" lon="13.53417"><ele>361.0</ele><time>2026-05-03T12:29:42.594Z</time></trkpt><trkpt lat="46.0887183" lon="13.5343"><ele>361.0</ele><time>2026-05-03T12:29:43.594Z</time></trkpt><trkpt lat="46.0886433" lon="13.5344017"><ele>361.0</ele><time>2026-05-03T12:29:44.593Z</time></trkpt><trkpt lat="46.08858" lon="13.53449"><ele>361.0</ele><time>2026-05-03T12:29:45.595Z</time></trkpt><trkpt lat="46.0885217" lon="13.5345617"><ele>361.0</ele><time>2026-05-03T12:29:46.594Z</time></trkpt><trkpt lat="46.0884617" lon="13.5346233"><ele>361.0</ele><time>2026-05-03T12:29:47.594Z</time></trkpt><trkpt lat="46.0884083" lon="13.5346883"><ele>361.0</ele><time>2026-05-03T12:29:48.593Z</time></trkpt><trkpt lat="46.08835" lon="13.5347233"><ele>357.16666666666663</ele><time>2026-05-03T12:29:49.594Z</time></trkpt><trkpt lat="46.0882883" lon="13.5347583"><ele>353.3333333333333</ele><time>2026-05-03T12:29:50.598Z</time></trkpt><trkpt lat="46.088215" lon="13.5347633"><ele>349.5</ele><time>2026-05-03T12:29:51.594Z</time></trkpt><trkpt lat="46.0881317" lon="13.5347133"><ele>345.6666666666667</ele><time>2026-05-03T12:29:52.594Z</time></trkpt><trkpt lat="46.0880417" lon="13.5346483"><ele>341.83333333333337</ele><time>2026-05-03T12:29:53.593Z</time></trkpt><trkpt lat="46.087965" lon="13.5345517"><ele>338.0</ele><time>2026-05-03T12:29:54.593Z</time></trkpt><trkpt lat="46.0878933" lon="13.5344667"><ele>337.5</ele><time>2026-05-03T12:29:55.595Z</time></trkpt><trkpt lat="46.0878317" lon="13.534395"><ele>337.0</ele><time>2026-05-03T12:29:56.595Z</time></trkpt><trkpt lat="46.087785" lon="13.53433"><ele>336.5</ele><time>2026-05-03T12:29:57.593Z</time></trkpt><trkpt lat="46.0877533" lon="13.5342233"><ele>336.0</ele><time>2026-05-03T12:29:59.593Z</time></trkpt><trkpt lat="46.087745" lon="13.53413"><ele>335.5</ele><time>2026-05-03T12:30:00.593Z</time></trkpt><trkpt lat="46.0877333" lon="13.5340017"><ele>335.0</ele><time>2026-05-03T12:30:01.595Z</time></trkpt><trkpt lat="46.08771" lon="13.5338733"><ele>335.0</ele><time>2026-05-03T12:30:02.596Z</time></trkpt><trkpt lat="46.0876767" lon="13.5337583"><ele>335.0</ele><time>2026-05-03T12:30:03.593Z</time></trkpt><trkpt lat="46.0875983" lon="13.5336467"><ele>335.0</ele><time>2026-05-03T12:30:04.593Z</time></trkpt><trkpt lat="46.0875217" lon="13.5335333"><ele>335.0</ele><time>2026-05-03T12:30:05.594Z</time></trkpt><trkpt lat="46.0874517" lon="13.5334133"><ele>335.0</ele><time>2026-05-03T12:30:06.594Z</time></trkpt><trkpt lat="46.0873783" lon="13.53328"><ele>337.2</ele><time>2026-05-03T12:30:07.593Z</time></trkpt><trkpt lat="46.0873133" lon="13.53315"><ele>339.4</ele><time>2026-05-03T12:30:08.594Z</time></trkpt><trkpt lat="46.0872533" lon="13.5330133"><ele>341.6</ele><time>2026-05-03T12:30:09.594Z</time></trkpt><trkpt lat="46.087195" lon="13.5328967"><ele>343.8</ele><time>2026-05-03T12:30:10.593Z</time></trkpt><trkpt lat="46.0871433" lon="13.53279"><ele>346.0</ele><time>2026-05-03T12:30:11.594Z</time></trkpt><trkpt lat="46.0871083" lon="13.5326867"><ele>350.16666666666663</ele><time>2026-05-03T12:30:12.594Z</time></trkpt><trkpt lat="46.0870783" lon="13.532585"><ele>354.3333333333333</ele><time>2026-05-03T12:30:13.595Z</time></trkpt><trkpt lat="46.0870517" lon="13.5324667"><ele>358.5</ele><time>2026-05-03T12:30:14.593Z</time></trkpt><trkpt lat="46.0870267" lon="13.5323617"><ele>362.6666666666667</ele><time>2026-05-03T12:30:15.595Z</time></trkpt><trkpt lat="46.0869717" lon="13.5322433"><ele>366.83333333333337</ele><time>2026-05-03T12:30:17.595Z</time></trkpt><trkpt lat="46.0869083" lon="13.5321933"><ele>371.0</ele><time>2026-05-03T12:30:18.596Z</time></trkpt><trkpt lat="46.0868117" lon="13.5321933"><ele>371.0</ele><time>2026-05-03T12:30:20.594Z</time></trkpt><trkpt lat="46.08671" lon="13.53234"><ele>371.0</ele><time>2026-05-03T12:30:22.594Z</time></trkpt><trkpt lat="46.0866417" lon="13.5324433"><ele>371.0</ele><time>2026-05-03T12:30:23.593Z</time></trkpt><trkpt lat="46.0865767" lon="13.5325567"><ele>371.0</ele><time>2026-05-03T12:30:24.595Z</time></trkpt><trkpt lat="46.086525" lon="13.5326433"><ele>371.0</ele><time>2026-05-03T12:30:25.594Z</time></trkpt><trkpt lat="46.0864817" lon="13.5327733"><ele>373.1666666666667</ele><time>2026-05-03T12:30:26.595Z</time></trkpt><trkpt lat="46.086445" lon="13.532865"><ele>375.33333333333337</ele><time>2026-05-03T12:30:27.593Z</time></trkpt><trkpt lat="46.0863433" lon="13.53297"><ele>377.5</ele><time>2026-05-03T12:30:29.593Z</time></trkpt><trkpt lat="46.0862683" lon="13.5330133"><ele>379.6666666666667</ele><time>2026-05-03T12:30:30.594Z</time></trkpt><trkpt lat="46.0861867" lon="13.5330433"><ele>381.8333333333333</ele><time>2026-05-03T12:30:31.593Z</time></trkpt><trkpt lat="46.0861233" lon="13.5330783"><ele>384.0</ele><time>2026-05-03T12:30:32.595Z</time></trkpt><trkpt lat="46.0860033" lon="13.5330783"><ele>382.3333333333333</ele><time>2026-05-03T12:30:34.593Z</time></trkpt><trkpt lat="46.0858917" lon="13.5330467"><ele>380.6666666666667</ele><time>2026-05-03T12:30:36.593Z</time></trkpt><trkpt lat="46.0858233" lon="13.53303"><ele>379.0</ele><time>2026-05-03T12:30:37.593Z</time></trkpt><trkpt lat="46.0857567" lon="13.532995"><ele>377.33333333333337</ele><time>2026-05-03T12:30:38.594Z</time></trkpt><trkpt lat="46.0856983" lon="13.5329417"><ele>375.6666666666667</ele><time>2026-05-03T12:30:39.593Z</time></trkpt><trkpt lat="46.0856333" lon="13.53286"><ele>374.0</ele><time>2026-05-03T12:30:40.593Z</time></trkpt><trkpt lat="46.0855567" lon="13.5327817"><ele>374.0</ele><time>2026-05-03T12:30:41.594Z</time></trkpt><trkpt lat="46.08549" lon="13.5327217"><ele>374.0</ele><time>2026-05-03T12:30:42.594Z</time></trkpt><trkpt lat="46.0854367" lon="13.53266"><ele>374.0</ele><time>2026-05-03T12:30:43.593Z</time></trkpt><trkpt lat="46.085385" lon="13.5326033"><ele>374.0</ele><time>2026-05-03T12:30:44.593Z</time></trkpt><trkpt lat="46.0852717" lon="13.5325383"><ele>374.0</ele><time>2026-05-03T12:30:46.598Z</time></trkpt><trkpt lat="46.0851967" lon="13.5325233"><ele>374.0</ele><time>2026-05-03T12:30:47.593Z</time></trkpt><trkpt lat="46.08512" lon="13.5325183"><ele>374.0</ele><time>2026-05-03T12:30:48.595Z</time></trkpt><trkpt lat="46.0850517" lon="13.53252"><ele>374.0</ele><time>2026-05-03T12:30:49.594Z</time></trkpt><trkpt lat="46.0849333" lon="13.53254"><ele>374.0</ele><time>2026-05-03T12:30:51.593Z</time></trkpt><trkpt lat="46.0848017" lon="13.532505"><ele>374.0</ele><time>2026-05-03T12:30:53.594Z</time></trkpt><trkpt lat="46.08473" lon="13.5324767"><ele>374.0</ele><time>2026-05-03T12:30:54.594Z</time></trkpt><trkpt lat="46.0846567" lon="13.5324833"><ele>375.5</ele><time>2026-05-03T12:30:55.593Z</time></trkpt><trkpt lat="46.08459" lon="13.532505"><ele>377.0</ele><time>2026-05-03T12:30:56.593Z</time></trkpt><trkpt lat="46.0845233" lon="13.532495"><ele>378.5</ele><time>2026-05-03T12:30:57.593Z</time></trkpt><trkpt lat="46.08441" lon="13.532485"><ele>380.0</ele><time>2026-05-03T12:30:59.594Z</time></trkpt><trkpt lat="46.0843117" lon="13.53253"><ele>381.5</ele><time>2026-05-03T12:31:01.593Z</time></trkpt><trkpt lat="46.0842567" lon="13.532585"><ele>383.0</ele><time>2026-05-03T12:31:02.593Z</time></trkpt><trkpt lat="46.0841533" lon="13.5327017"><ele>385.59999999999997</ele><time>2026-05-03T12:31:04.594Z</time></trkpt><trkpt lat="46.08408" lon="13.5327783"><ele>388.2</ele><time>2026-05-03T12:31:05.594Z</time></trkpt><trkpt lat="46.084005" lon="13.5328833"><ele>390.8</ele><time>2026-05-03T12:31:06.593Z</time></trkpt><trkpt lat="46.083945" lon="13.533025"><ele>393.4</ele><time>2026-05-03T12:31:07.593Z</time></trkpt><trkpt lat="46.0838833" lon="13.5331933"><ele>396.0</ele><time>2026-05-03T12:31:08.594Z</time></trkpt><trkpt lat="46.0838233" lon="13.5333467"><ele>396.0</ele><time>2026-05-03T12:31:09.593Z</time></trkpt><trkpt lat="46.0837633" lon="13.5334717"><ele>396.0</ele><time>2026-05-03T12:31:10.595Z</time></trkpt><trkpt lat="46.083705" lon="13.5335783"><ele>396.0</ele><time>2026-05-03T12:31:11.594Z</time></trkpt><trkpt lat="46.083645" lon="13.5336483"><ele>396.0</ele><time>2026-05-03T12:31:12.593Z</time></trkpt><trkpt lat="46.0835867" lon="13.5337033"><ele>396.0</ele><time>2026-05-03T12:31:13.593Z</time></trkpt><trkpt lat="46.0835233" lon="13.5337617"><ele>396.0</ele><time>2026-05-03T12:31:14.594Z</time></trkpt><trkpt lat="46.0834567" lon="13.533815"><ele>394.5</ele><time>2026-05-03T12:31:15.594Z</time></trkpt><trkpt lat="46.0834033" lon="13.5338733"><ele>393.0</ele><time>2026-05-03T12:31:16.594Z</time></trkpt><trkpt lat="46.0833133" lon="13.5339567"><ele>391.5</ele><time>2026-05-03T12:31:18.595Z</time></trkpt><trkpt lat="46.083265" lon="13.5340217"><ele>390.0</ele><time>2026-05-03T12:31:19.594Z</time></trkpt><trkpt lat="46.0832167" lon="13.5341083"><ele>388.5</ele><time>2026-05-03T12:31:20.595Z</time></trkpt><trkpt lat="46.0831567" lon="13.534185"><ele>387.0</ele><time>2026-05-03T12:31:21.594Z</time></trkpt><trkpt lat="46.0830933" lon="13.5342533"><ele>387.0</ele><time>2026-05-03T12:31:22.593Z</time></trkpt><trkpt lat="46.08303" lon="13.5342983"><ele>387.0</ele><time>2026-05-03T12:31:23.594Z</time></trkpt><trkpt lat="46.0829517" lon="13.5343333"><ele>387.0</ele><time>2026-05-03T12:31:24.595Z</time></trkpt><trkpt lat="46.082865" lon="13.53437"><ele>387.0</ele><time>2026-05-03T12:31:25.595Z</time></trkpt><trkpt lat="46.08278" lon="13.53438"><ele>387.0</ele><time>2026-05-03T12:31:26.594Z</time></trkpt><trkpt lat="46.082705" lon="13.5343817"><ele>387.0</ele><time>2026-05-03T12:31:27.594Z</time></trkpt><trkpt lat="46.082635" lon="13.5343617"><ele>387.0</ele><time>2026-05-03T12:31:28.596Z</time></trkpt><trkpt lat="46.0825483" lon="13.5343433"><ele>387.0</ele><time>2026-05-03T12:31:29.595Z</time></trkpt><trkpt lat="46.0824683" lon="13.5343083"><ele>387.0</ele><time>2026-05-03T12:31:30.593Z</time></trkpt><trkpt lat="46.0824" lon="13.53429"><ele>387.0</ele><time>2026-05-03T12:31:31.593Z</time></trkpt><trkpt lat="46.0823283" lon="13.5342667"><ele>387.0</ele><time>2026-05-03T12:31:32.594Z</time></trkpt><trkpt lat="46.0823667" lon="13.5341433"><ele>387.0</ele><time>2026-05-03T12:31:34.596Z</time></trkpt><trkpt lat="46.082425" lon="13.5341017"><ele>387.0</ele><time>2026-05-03T12:31:35.593Z</time></trkpt><trkpt lat="46.0825033" lon="13.5340717"><ele>387.0</ele><time>2026-05-03T12:31:36.593Z</time></trkpt><trkpt lat="46.0826017" lon="13.5340733"><ele>387.0</ele><time>2026-05-03T12:31:37.594Z</time></trkpt><trkpt lat="46.0826883" lon="13.5340567"><ele>387.0</ele><time>2026-05-03T12:31:38.596Z</time></trkpt><trkpt lat="46.08276" lon="13.5340083"><ele>387.0</ele><time>2026-05-03T12:31:39.594Z</time></trkpt><trkpt lat="46.0828133" lon="13.5339417"><ele>387.0</ele><time>2026-05-03T12:31:40.596Z</time></trkpt><trkpt lat="46.0828633" lon="13.5338533"><ele>387.0</ele><time>2026-05-03T12:31:41.593Z</time></trkpt><trkpt lat="46.0829033" lon="13.53375"><ele>387.0</ele><time>2026-05-03T12:31:42.594Z</time></trkpt><trkpt lat="46.0829433" lon="13.53365"><ele>387.0</ele><time>2026-05-03T12:31:43.594Z</time></trkpt><trkpt lat="46.082985" lon="13.53354"><ele>387.0</ele><time>2026-05-03T12:31:44.594Z</time></trkpt><trkpt lat="46.0830333" lon="13.533445"><ele>387.0</ele><time>2026-05-03T12:31:45.595Z</time></trkpt><trkpt lat="46.083085" lon="13.5333517"><ele>387.0</ele><time>2026-05-03T12:31:46.596Z</time></trkpt><trkpt lat="46.0831433" lon="13.5332617"><ele>388.3333333333333</ele><time>2026-05-03T12:31:47.595Z</time></trkpt><trkpt lat="46.0832017" lon="13.5331667"><ele>389.66666666666663</ele><time>2026-05-03T12:31:48.595Z</time></trkpt><trkpt lat="46.0832633" lon="13.53308"><ele>391.0</ele><time>2026-05-03T12:31:49.595Z</time></trkpt><trkpt lat="46.0833283" lon="13.5329933"><ele>392.3333333333333</ele><time>2026-05-03T12:31:50.595Z</time></trkpt><trkpt lat="46.08339" lon="13.5329067"><ele>393.66666666666663</ele><time>2026-05-03T12:31:51.594Z</time></trkpt><trkpt lat="46.0834417" lon="13.5328183"><ele>395.0</ele><time>2026-05-03T12:31:52.597Z</time></trkpt><trkpt lat="46.0834783" lon="13.53274"><ele>398.2</ele><time>2026-05-03T12:31:53.594Z</time></trkpt><trkpt lat="46.0835433" lon="13.5326167"><ele>401.4</ele><time>2026-05-03T12:31:55.594Z</time></trkpt><trkpt lat="46.0835883" lon="13.5324533"><ele>404.6</ele><time>2026-05-03T12:31:57.594Z</time></trkpt><trkpt lat="46.0836233" lon="13.53235"><ele>407.8</ele><time>2026-05-03T12:31:58.593Z</time></trkpt><trkpt lat="46.083675" lon="13.5322383"><ele>411.0</ele><time>2026-05-03T12:31:59.593Z</time></trkpt><trkpt lat="46.0837083" lon="13.5321167"><ele>412.3333333333333</ele><time>2026-05-03T12:32:00.598Z</time></trkpt><trkpt lat="46.0837367" lon="13.5320033"><ele>413.66666666666663</ele><time>2026-05-03T12:32:01.593Z</time></trkpt><trkpt lat="46.08375" lon="13.53188"><ele>415.0</ele><time>2026-05-03T12:32:02.595Z</time></trkpt><trkpt lat="46.083775" lon="13.5317633"><ele>416.3333333333333</ele><time>2026-05-03T12:32:03.594Z</time></trkpt><trkpt lat="46.0838" lon="13.531655"><ele>417.66666666666663</ele><time>2026-05-03T12:32:04.593Z</time></trkpt><trkpt lat="46.0838383" lon="13.5315433"><ele>419.0</ele><time>2026-05-03T12:32:05.593Z</time></trkpt><trkpt lat="46.083885" lon="13.5314433"><ele>419.0</ele><time>2026-05-03T12:32:06.595Z</time></trkpt><trkpt lat="46.0839517" lon="13.5313533"><ele>419.0</ele><time>2026-05-03T12:32:07.594Z</time></trkpt><trkpt lat="46.0840283" lon="13.531265"><ele>419.0</ele><time>2026-05-03T12:32:08.595Z</time></trkpt><trkpt lat="46.084105" lon="13.5311633"><ele>419.0</ele><time>2026-05-03T12:32:09.595Z</time></trkpt><trkpt lat="46.0841817" lon="13.53107"><ele>419.0</ele><time>2026-05-03T12:32:10.593Z</time></trkpt><trkpt lat="46.0842483" lon="13.53096"><ele>419.79999999999995</ele><time>2026-05-03T12:32:11.595Z</time></trkpt><trkpt lat="46.08433" lon="13.5308917"><ele>420.59999999999997</ele><time>2026-05-03T12:32:12.594Z</time></trkpt><trkpt lat="46.0843967" lon="13.5307983"><ele>421.4</ele><time>2026-05-03T12:32:13.594Z</time></trkpt><trkpt lat="46.0844633" lon="13.5306567"><ele>422.2</ele><time>2026-05-03T12:32:14.594Z</time></trkpt><trkpt lat="46.084525" lon="13.5305317"><ele>423.0</ele><time>2026-05-03T12:32:15.595Z</time></trkpt><trkpt lat="46.0845733" lon="13.530435"><ele>423.0</ele><time>2026-05-03T12:32:16.595Z</time></trkpt><trkpt lat="46.0846233" lon="13.5303533"><ele>423.0</ele><time>2026-05-03T12:32:17.594Z</time></trkpt><trkpt lat="46.0846783" lon="13.530305"><ele>423.0</ele><time>2026-05-03T12:32:18.596Z</time></trkpt><trkpt lat="46.0847733" lon="13.5303083"><ele>423.0</ele><time>2026-05-03T12:32:20.597Z</time></trkpt><trkpt lat="46.08487" lon="13.530405"><ele>423.0</ele><time>2026-05-03T12:32:22.593Z</time></trkpt><trkpt lat="46.084925" lon="13.53048"><ele>423.0</ele><time>2026-05-03T12:32:23.595Z</time></trkpt><trkpt lat="46.084985" lon="13.530565"><ele>422.5</ele><time>2026-05-03T12:32:24.594Z</time></trkpt><trkpt lat="46.085045" lon="13.5306617"><ele>422.0</ele><time>2026-05-03T12:32:25.595Z</time></trkpt><trkpt lat="46.0851083" lon="13.5307383"><ele>421.5</ele><time>2026-05-03T12:32:26.594Z</time></trkpt><trkpt lat="46.0851567" lon="13.530815"><ele>421.0</ele><time>2026-05-03T12:32:27.593Z</time></trkpt><trkpt lat="46.0852167" lon="13.5308883"><ele>420.5</ele><time>2026-05-03T12:32:28.594Z</time></trkpt><trkpt lat="46.0852683" lon="13.5309517"><ele>420.0</ele><time>2026-05-03T12:32:29.593Z</time></trkpt><trkpt lat="46.085325" lon="13.5310183"><ele>420.0</ele><time>2026-05-03T12:32:30.593Z</time></trkpt><trkpt lat="46.0854317" lon="13.531165"><ele>420.0</ele><time>2026-05-03T12:32:32.595Z</time></trkpt><trkpt lat="46.0855017" lon="13.5312533"><ele>420.0</ele><time>2026-05-03T12:32:33.594Z</time></trkpt><trkpt lat="46.085595" lon="13.5313367"><ele>420.0</ele><time>2026-05-03T12:32:34.595Z</time></trkpt><trkpt lat="46.0856883" lon="13.5313833"><ele>420.0</ele><time>2026-05-03T12:32:35.595Z</time></trkpt><trkpt lat="46.085765" lon="13.531415"><ele>418.2</ele><time>2026-05-03T12:32:36.595Z</time></trkpt><trkpt lat="46.0858517" lon="13.53142"><ele>416.4</ele><time>2026-05-03T12:32:37.595Z</time></trkpt><trkpt lat="46.0859483" lon="13.531395"><ele>414.6</ele><time>2026-05-03T12:32:38.596Z</time></trkpt><trkpt lat="46.0860333" lon="13.5313467"><ele>412.8</ele><time>2026-05-03T12:32:39.595Z</time></trkpt><trkpt lat="46.0861167" lon="13.5312867"><ele>411.0</ele><time>2026-05-03T12:32:40.598Z</time></trkpt><trkpt lat="46.0861983" lon="13.53122"><ele>417.0</ele><time>2026-05-03T12:32:41.594Z</time></trkpt><trkpt lat="46.0862883" lon="13.53116"><ele>423.0</ele><time>2026-05-03T12:32:42.594Z</time></trkpt><trkpt lat="46.08637" lon="13.5311"><ele>429.0</ele><time>2026-05-03T12:32:43.595Z</time></trkpt><trkpt lat="46.08644" lon="13.5310167"><ele>435.0</ele><time>2026-05-03T12:32:44.595Z</time></trkpt><trkpt lat="46.0865167" lon="13.5309533"><ele>441.0</ele><time>2026-05-03T12:32:45.594Z</time></trkpt><trkpt lat="46.086585" lon="13.53089"><ele>439.3333333333333</ele><time>2026-05-03T12:32:46.594Z</time></trkpt><trkpt lat="46.0866433" lon="13.530835"><ele>437.66666666666663</ele><time>2026-05-03T12:32:47.594Z</time></trkpt><trkpt lat="46.0866967" lon="13.5307833"><ele>436.0</ele><time>2026-05-03T12:32:48.595Z</time></trkpt><trkpt lat="46.0867917" lon="13.5306983"><ele>434.3333333333333</ele><time>2026-05-03T12:32:50.595Z</time></trkpt><trkpt lat="46.0868683" lon="13.5305767"><ele>432.66666666666663</ele><time>2026-05-03T12:32:52.594Z</time></trkpt><trkpt lat="46.0869167" lon="13.530505"><ele>431.0</ele><time>2026-05-03T12:32:53.595Z</time></trkpt><trkpt lat="46.0870183" lon="13.5304283"><ele>431.0</ele><time>2026-05-03T12:32:55.594Z</time></trkpt><trkpt lat="46.087185" lon="13.5305267"><ele>431.0</ele><time>2026-05-03T12:32:58.593Z</time></trkpt><trkpt lat="46.08724" lon="13.5305833"><ele>431.0</ele><time>2026-05-03T12:32:59.595Z</time></trkpt><trkpt lat="46.0873017" lon="13.53063"><ele>431.0</ele><time>2026-05-03T12:33:00.595Z</time></trkpt><trkpt lat="46.087415" lon="13.5306617"><ele>431.0</ele><time>2026-05-03T12:33:01.594Z</time></trkpt><trkpt lat="46.0875017" lon="13.53068"><ele>432.20000000000005</ele><time>2026-05-03T12:33:02.594Z</time></trkpt><trkpt lat="46.0876033" lon="13.5307033"><ele>433.40000000000003</ele><time>2026-05-03T12:33:03.594Z</time></trkpt><trkpt lat="46.0877083" lon="13.5307283"><ele>434.6</ele><time>2026-05-03T12:33:04.594Z</time></trkpt><trkpt lat="46.0878083" lon="13.5307483"><ele>435.8</ele><time>2026-05-03T12:33:05.595Z</time></trkpt><trkpt lat="46.0879317" lon="13.5307633"><ele>437.0</ele><time>2026-05-03T12:33:06.594Z</time></trkpt><trkpt lat="46.0880217" lon="13.5307583"><ele>436.99999999999994</ele><time>2026-05-03T12:33:07.594Z</time></trkpt><trkpt lat="46.0881067" lon="13.5307433"><ele>437.0</ele><time>2026-05-03T12:33:08.594Z</time></trkpt><trkpt lat="46.08821" lon="13.5306717"><ele>437.0</ele><time>2026-05-03T12:33:10.594Z</time></trkpt><trkpt lat="46.088275" lon="13.5306283"><ele>437.0</ele><time>2026-05-03T12:33:11.594Z</time></trkpt><trkpt lat="46.0883383" lon="13.5305517"><ele>436.99999999999994</ele><time>2026-05-03T12:33:12.594Z</time></trkpt><trkpt lat="46.0884033" lon="13.5304767"><ele>437.0</ele><time>2026-05-03T12:33:13.595Z</time></trkpt><trkpt lat="46.0884617" lon="13.5303833"><ele>444.20000000000005</ele><time>2026-05-03T12:33:14.595Z</time></trkpt><trkpt lat="46.0885067" lon="13.530265"><ele>451.40000000000003</ele><time>2026-05-03T12:33:15.595Z</time></trkpt><trkpt lat="46.088535" lon="13.5301283"><ele>458.59999999999997</ele><time>2026-05-03T12:33:16.596Z</time></trkpt><trkpt lat="46.0885783" lon="13.5300083"><ele>465.79999999999995</ele><time>2026-05-03T12:33:17.594Z</time></trkpt><trkpt lat="46.088625" lon="13.5299"><ele>473.0</ele><time>2026-05-03T12:33:18.595Z</time></trkpt><trkpt lat="46.0886667" lon="13.529795"><ele>473.0</ele><time>2026-05-03T12:33:19.594Z</time></trkpt><trkpt lat="46.0886683" lon="13.52965"><ele>472.99999999999994</ele><time>2026-05-03T12:33:20.596Z</time></trkpt><trkpt lat="46.0886817" lon="13.5295583"><ele>472.99999999999994</ele><time>2026-05-03T12:33:21.594Z</time></trkpt><trkpt lat="46.0887283" lon="13.5294367"><ele>473.0</ele><time>2026-05-03T12:33:22.594Z</time></trkpt><trkpt lat="46.0887667" lon="13.5293133"><ele>473.0</ele><time>2026-05-03T12:33:23.594Z</time></trkpt><trkpt lat="46.0887733" lon="13.5291783"><ele>478.0</ele><time>2026-05-03T12:33:24.594Z</time></trkpt><trkpt lat="46.0887667" lon="13.5290283"><ele>482.99999999999994</ele><time>2026-05-03T12:33:25.593Z</time></trkpt><trkpt lat="46.0887783" lon="13.5288883"><ele>487.99999999999994</ele><time>2026-05-03T12:33:26.596Z</time></trkpt><trkpt lat="46.088795" lon="13.5287467"><ele>493.0</ele><time>2026-05-03T12:33:27.593Z</time></trkpt><trkpt lat="46.0888183" lon="13.5285833"><ele>498.0</ele><time>2026-05-03T12:33:28.594Z</time></trkpt><trkpt lat="46.08885" lon="13.5284167"><ele>501.2</ele><time>2026-05-03T12:33:29.595Z</time></trkpt><trkpt lat="46.0888917" lon="13.5282617"><ele>504.4</ele><time>2026-05-03T12:33:30.595Z</time></trkpt><trkpt lat="46.0889333" lon="13.5281017"><ele>507.59999999999997</ele><time>2026-05-03T12:33:31.595Z</time></trkpt><trkpt lat="46.0889667" lon="13.5279617"><ele>510.79999999999995</ele><time>2026-05-03T12:33:32.595Z</time></trkpt><trkpt lat="46.088985" lon="13.5278183"><ele>514.0</ele><time>2026-05-03T12:33:33.595Z</time></trkpt><trkpt lat="46.089015" lon="13.5276683"><ele>518.4</ele><time>2026-05-03T12:33:34.595Z</time></trkpt><trkpt lat="46.0890217" lon="13.5275067"><ele>522.8</ele><time>2026-05-03T12:33:35.595Z</time></trkpt><trkpt lat="46.0890333" lon="13.5273517"><ele>527.2</ele><time>2026-05-03T12:33:36.594Z</time></trkpt><trkpt lat="46.089045" lon="13.5271883"><ele>531.6</ele><time>2026-05-03T12:33:37.594Z</time></trkpt><trkpt lat="46.0890533" lon="13.5270267"><ele>536.0</ele><time>2026-05-03T12:33:38.595Z</time></trkpt><trkpt lat="46.0890567" lon="13.526865"><ele>539.0</ele><time>2026-05-03T12:33:39.595Z</time></trkpt><trkpt lat="46.0890583" lon="13.5266983"><ele>542.0</ele><time>2026-05-03T12:33:40.596Z</time></trkpt><trkpt lat="46.0890717" lon="13.5265483"><ele>545.0</ele><time>2026-05-03T12:33:41.593Z</time></trkpt><trkpt lat="46.0890917" lon="13.5264017"><ele>548.0</ele><time>2026-05-03T12:33:42.596Z</time></trkpt><trkpt lat="46.0891" lon="13.5262417"><ele>551.0</ele><time>2026-05-03T12:33:43.595Z</time></trkpt><trkpt lat="46.08911" lon="13.5260817"><ele>544.4</ele><time>2026-05-03T12:33:44.594Z</time></trkpt><trkpt lat="46.0891317" lon="13.5259183"><ele>537.8</ele><time>2026-05-03T12:33:45.595Z</time></trkpt><trkpt lat="46.0891783" lon="13.5257417"><ele>531.1999999999999</ele><time>2026-05-03T12:33:46.595Z</time></trkpt><trkpt lat="46.08921" lon="13.52559"><ele>524.6</ele><time>2026-05-03T12:33:47.594Z</time></trkpt><trkpt lat="46.08922" lon="13.5254733"><ele>518.0</ele><time>2026-05-03T12:33:48.595Z</time></trkpt><trkpt lat="46.0892083" lon="13.525365"><ele>518.0</ele><time>2026-05-03T12:33:49.594Z</time></trkpt><trkpt lat="46.0892167" lon="13.5252533"><ele>518.0</ele><time>2026-05-03T12:33:50.594Z</time></trkpt><trkpt lat="46.0892183" lon="13.5251417"><ele>518.0</ele><time>2026-05-03T12:33:51.595Z</time></trkpt><trkpt lat="46.08919" lon="13.5250433"><ele>518.0</ele><time>2026-05-03T12:33:52.595Z</time></trkpt><trkpt lat="46.0891883" lon="13.5249233"><ele>518.0</ele><time>2026-05-03T12:33:53.596Z</time></trkpt><trkpt lat="46.0891733" lon="13.5248217"><ele>518.0</ele><time>2026-05-03T12:33:54.595Z</time></trkpt><trkpt lat="46.08915" lon="13.524725"><ele>518.0</ele><time>2026-05-03T12:33:55.596Z</time></trkpt><trkpt lat="46.0891233" lon="13.5246367"><ele>518.0</ele><time>2026-05-03T12:33:56.595Z</time></trkpt><trkpt lat="46.0891083" lon="13.5245433"><ele>518.0</ele><time>2026-05-03T12:33:57.596Z</time></trkpt><trkpt lat="46.0890583" lon="13.5243717"><ele>518.0</ele><time>2026-05-03T12:33:59.594Z</time></trkpt><trkpt lat="46.0890283" lon="13.5242683"><ele>518.0</ele><time>2026-05-03T12:34:00.596Z</time></trkpt><trkpt lat="46.08901" lon="13.5241667"><ele>518.0</ele><time>2026-05-03T12:34:01.594Z</time></trkpt><trkpt lat="46.0889317" lon="13.5240383"><ele>523.75</ele><time>2026-05-03T12:34:02.598Z</time></trkpt><trkpt lat="46.0888833" lon="13.5239083"><ele>529.5</ele><time>2026-05-03T12:34:03.598Z</time></trkpt><trkpt lat="46.0888383" lon="13.523775"><ele>535.25</ele><time>2026-05-03T12:34:04.594Z</time></trkpt><trkpt lat="46.0887833" lon="13.5236017"><ele>541.0</ele><time>2026-05-03T12:34:05.594Z</time></trkpt><trkpt lat="46.0887517" lon="13.5234417"><ele>541.0</ele><time>2026-05-03T12:34:06.594Z</time></trkpt><trkpt lat="46.0887217" lon="13.523275"><ele>541.0</ele><time>2026-05-03T12:34:07.595Z</time></trkpt><trkpt lat="46.0886783" lon="13.5230967"><ele>541.0</ele><time>2026-05-03T12:34:08.594Z</time></trkpt><trkpt lat="46.0886483" lon="13.5229417"><ele>541.0</ele><time>2026-05-03T12:34:09.595Z</time></trkpt><trkpt lat="46.0886167" lon="13.5228017"><ele>542.2</ele><time>2026-05-03T12:34:10.594Z</time></trkpt><trkpt lat="46.0885867" lon="13.5226617"><ele>543.4000000000001</ele><time>2026-05-03T12:34:11.594Z</time></trkpt><trkpt lat="46.0885367" lon="13.5225067"><ele>544.6</ele><time>2026-05-03T12:34:12.595Z</time></trkpt><trkpt lat="46.088535" lon="13.5223633"><ele>545.8000000000001</ele><time>2026-05-03T12:34:13.595Z</time></trkpt><trkpt lat="46.0885433" lon="13.52224"><ele>547.0</ele><time>2026-05-03T12:34:14.595Z</time></trkpt><trkpt lat="46.0885433" lon="13.52212"><ele>547.5</ele><time>2026-05-03T12:34:15.595Z</time></trkpt><trkpt lat="46.0885417" lon="13.5220017"><ele>548.0</ele><time>2026-05-03T12:34:16.593Z</time></trkpt><trkpt lat="46.0885367" lon="13.52188"><ele>548.5</ele><time>2026-05-03T12:34:17.594Z</time></trkpt><trkpt lat="46.0885083" lon="13.5217483"><ele>549.0</ele><time>2026-05-03T12:34:18.593Z</time></trkpt><trkpt lat="46.0885117" lon="13.52163"><ele>549.5</ele><time>2026-05-03T12:34:19.594Z</time></trkpt><trkpt lat="46.0885" lon="13.5214933"><ele>550.0</ele><time>2026-05-03T12:34:20.593Z</time></trkpt><trkpt lat="46.0884917" lon="13.5213667"><ele>550.0</ele><time>2026-05-03T12:34:21.594Z</time></trkpt><trkpt lat="46.0884817" lon="13.5212467"><ele>550.0</ele><time>2026-05-03T12:34:22.594Z</time></trkpt><trkpt lat="46.088465" lon="13.5211367"><ele>550.0</ele><time>2026-05-03T12:34:23.594Z</time></trkpt><trkpt lat="46.0884517" lon="13.5210317"><ele>550.0</ele><time>2026-05-03T12:34:24.596Z</time></trkpt><trkpt lat="46.08843" lon="13.52093"><ele>550.0</ele><time>2026-05-03T12:34:25.594Z</time></trkpt><trkpt lat="46.0884083" lon="13.5208067"><ele>550.0</ele><time>2026-05-03T12:34:26.594Z</time></trkpt><trkpt lat="46.0884033" lon="13.5206717"><ele>550.0</ele><time>2026-05-03T12:34:27.594Z</time></trkpt><trkpt lat="46.0884067" lon="13.5205383"><ele>550.0</ele><time>2026-05-03T12:34:28.595Z</time></trkpt><trkpt lat="46.0884733" lon="13.5203917"><ele>550.0</ele><time>2026-05-03T12:34:29.595Z</time></trkpt><trkpt lat="46.0884883" lon="13.52028"><ele>550.0</ele><time>2026-05-03T12:34:30.593Z</time></trkpt><trkpt lat="46.0884967" lon="13.5201533"><ele>550.0</ele><time>2026-05-03T12:34:31.594Z</time></trkpt><trkpt lat="46.0885067" lon="13.52003"><ele>550.0</ele><time>2026-05-03T12:34:32.593Z</time></trkpt><trkpt lat="46.0885467" lon="13.5199017"><ele>550.0</ele><time>2026-05-03T12:34:33.593Z</time></trkpt><trkpt lat="46.0885833" lon="13.51978"><ele>550.0</ele><time>2026-05-03T12:34:34.594Z</time></trkpt><trkpt lat="46.0885883" lon="13.5196667"><ele>550.0</ele><time>2026-05-03T12:34:35.594Z</time></trkpt><trkpt lat="46.0885883" lon="13.519575"><ele>550.0</ele><time>2026-05-03T12:34:36.593Z</time></trkpt><trkpt lat="46.0886117" lon="13.5194217"><ele>550.0</ele><time>2026-05-03T12:34:38.596Z</time></trkpt><trkpt lat="46.08866" lon="13.5192983"><ele>547.6</ele><time>2026-05-03T12:34:40.594Z</time></trkpt><trkpt lat="46.0888383" lon="13.5192567"><ele>545.2</ele><time>2026-05-03T12:34:42.594Z</time></trkpt><trkpt lat="46.0889283" lon="13.51922"><ele>542.8</ele><time>2026-05-03T12:34:43.595Z</time></trkpt><trkpt lat="46.0890133" lon="13.5191883"><ele>540.4</ele><time>2026-05-03T12:34:44.594Z</time></trkpt><trkpt lat="46.0890917" lon="13.5191467"><ele>538.0</ele><time>2026-05-03T12:34:45.593Z</time></trkpt><trkpt lat="46.08915" lon="13.5191"><ele>538.0</ele><time>2026-05-03T12:34:46.594Z</time></trkpt><trkpt lat="46.089215" lon="13.5190683"><ele>538.0</ele><time>2026-05-03T12:34:47.594Z</time></trkpt><trkpt lat="46.0892833" lon="13.519045"><ele>538.0</ele><time>2026-05-03T12:34:48.594Z</time></trkpt><trkpt lat="46.0893733" lon="13.519035"><ele>538.0</ele><time>2026-05-03T12:34:49.592Z</time></trkpt><trkpt lat="46.0894783" lon="13.51903"><ele>538.0</ele><time>2026-05-03T12:34:50.594Z</time></trkpt><trkpt lat="46.08958" lon="13.5190133"><ele>538.0</ele><time>2026-05-03T12:34:51.594Z</time></trkpt><trkpt lat="46.0896817" lon="13.5189833"><ele>538.0</ele><time>2026-05-03T12:34:52.594Z</time></trkpt><trkpt lat="46.089795" lon="13.5189517"><ele>538.0</ele><time>2026-05-03T12:34:53.594Z</time></trkpt><trkpt lat="46.0898967" lon="13.5189383"><ele>538.0</ele><time>2026-05-03T12:34:54.594Z</time></trkpt><trkpt lat="46.0899917" lon="13.51893"><ele>538.0</ele><time>2026-05-03T12:34:55.596Z</time></trkpt><trkpt lat="46.0900717" lon="13.5189417"><ele>538.0</ele><time>2026-05-03T12:34:56.595Z</time></trkpt><trkpt lat="46.0901083" lon="13.5190233"><ele>537.5</ele><time>2026-05-03T12:34:57.593Z</time></trkpt><trkpt lat="46.0901583" lon="13.5191067"><ele>537.0</ele><time>2026-05-03T12:34:58.594Z</time></trkpt><trkpt lat="46.0902117" lon="13.5191667"><ele>536.5</ele><time>2026-05-03T12:34:59.594Z</time></trkpt><trkpt lat="46.0902683" lon="13.51922"><ele>536.0</ele><time>2026-05-03T12:35:00.595Z</time></trkpt><trkpt lat="46.0903333" lon="13.519245"><ele>535.5</ele><time>2026-05-03T12:35:01.594Z</time></trkpt><trkpt lat="46.0904483" lon="13.5191833"><ele>535.0</ele><time>2026-05-03T12:35:03.594Z</time></trkpt><trkpt lat="46.0905417" lon="13.5190067"><ele>535.0</ele><time>2026-05-03T12:35:04.593Z</time></trkpt><trkpt lat="46.09063" lon="13.51887"><ele>535.0</ele><time>2026-05-03T12:35:05.593Z</time></trkpt><trkpt lat="46.090705" lon="13.518765"><ele>535.0</ele><time>2026-05-03T12:35:06.595Z</time></trkpt><trkpt lat="46.09078" lon="13.5186817"><ele>535.0</ele><time>2026-05-03T12:35:07.593Z</time></trkpt><trkpt lat="46.0908567" lon="13.5185983"><ele>535.0</ele><time>2026-05-03T12:35:08.593Z</time></trkpt><trkpt lat="46.0909367" lon="13.518505"><ele>540.0</ele><time>2026-05-03T12:35:09.594Z</time></trkpt><trkpt lat="46.0910217" lon="13.518415"><ele>545.0</ele><time>2026-05-03T12:35:10.595Z</time></trkpt><trkpt lat="46.09111" lon="13.5183283"><ele>550.0</ele><time>2026-05-03T12:35:11.594Z</time></trkpt><trkpt lat="46.0912017" lon="13.5182483"><ele>555.0</ele><time>2026-05-03T12:35:12.595Z</time></trkpt><trkpt lat="46.0912867" lon="13.5181717"><ele>560.0</ele><time>2026-05-03T12:35:13.594Z</time></trkpt><trkpt lat="46.09137" lon="13.5180883"><ele>560.0</ele><time>2026-05-03T12:35:14.594Z</time></trkpt><trkpt lat="46.0914483" lon="13.518005"><ele>560.0</ele><time>2026-05-03T12:35:15.594Z</time></trkpt><trkpt lat="46.09152" lon="13.5179067"><ele>560.0</ele><time>2026-05-03T12:35:16.593Z</time></trkpt><trkpt lat="46.0915967" lon="13.5177967"><ele>560.0</ele><time>2026-05-03T12:35:17.594Z</time></trkpt><trkpt lat="46.0916883" lon="13.5176917"><ele>560.0</ele><time>2026-05-03T12:35:18.595Z</time></trkpt><trkpt lat="46.09178" lon="13.5175817"><ele>563.2</ele><time>2026-05-03T12:35:19.593Z</time></trkpt><trkpt lat="46.09188" lon="13.5175"><ele>566.4</ele><time>2026-05-03T12:35:20.594Z</time></trkpt><trkpt lat="46.0919817" lon="13.5174283"><ele>569.6</ele><time>2026-05-03T12:35:21.596Z</time></trkpt><trkpt lat="46.0920783" lon="13.5173517"><ele>572.8</ele><time>2026-05-03T12:35:22.593Z</time></trkpt><trkpt lat="46.0921567" lon="13.5172667"><ele>576.0</ele><time>2026-05-03T12:35:23.595Z</time></trkpt><trkpt lat="46.092235" lon="13.517185"><ele>576.0</ele><time>2026-05-03T12:35:24.595Z</time></trkpt><trkpt lat="46.092295" lon="13.517115"><ele>576.0</ele><time>2026-05-03T12:35:25.594Z</time></trkpt><trkpt lat="46.092365" lon="13.51705"><ele>576.0</ele><time>2026-05-03T12:35:26.596Z</time></trkpt><trkpt lat="46.09244" lon="13.5169733"><ele>576.0</ele><time>2026-05-03T12:35:27.595Z</time></trkpt><trkpt lat="46.0924933" lon="13.516875"><ele>576.0</ele><time>2026-05-03T12:35:29.595Z</time></trkpt><trkpt lat="46.092655" lon="13.517075"><ele>575.4</ele><time>2026-05-03T12:35:35.594Z</time></trkpt><trkpt lat="46.0926733" lon="13.5171783"><ele>574.8</ele><time>2026-05-03T12:35:37.593Z</time></trkpt><trkpt lat="46.0926783" lon="13.517275"><ele>574.1999999999999</ele><time>2026-05-03T12:35:39.594Z</time></trkpt><trkpt lat="46.0926683" lon="13.5173867"><ele>573.6</ele><time>2026-05-03T12:35:42.594Z</time></trkpt><trkpt lat="46.0926933" lon="13.51751"><ele>573.0</ele><time>2026-05-03T12:35:44.596Z</time></trkpt><trkpt lat="46.0927267" lon="13.517715"><ele>573.0</ele><time>2026-05-03T12:35:46.597Z</time></trkpt><trkpt lat="46.0927383" lon="13.5178517"><ele>573.0</ele><time>2026-05-03T12:35:47.593Z</time></trkpt><trkpt lat="46.0927717" lon="13.5180483"><ele>573.0</ele><time>2026-05-03T12:35:48.594Z</time></trkpt><trkpt lat="46.0928083" lon="13.5182233"><ele>573.0</ele><time>2026-05-03T12:35:49.595Z</time></trkpt><trkpt lat="46.0928367" lon="13.51839"><ele>571.5</ele><time>2026-05-03T12:35:50.595Z</time></trkpt><trkpt lat="46.092855" lon="13.5185617"><ele>570.0</ele><time>2026-05-03T12:35:51.597Z</time></trkpt><trkpt lat="46.0928783" lon="13.51873"><ele>568.5</ele><time>2026-05-03T12:35:52.595Z</time></trkpt><trkpt lat="46.0928967" lon="13.51889"><ele>567.0</ele><time>2026-05-03T12:35:53.594Z</time></trkpt><trkpt lat="46.0929217" lon="13.5190333"><ele>565.8333333333334</ele><time>2026-05-03T12:35:54.594Z</time></trkpt><trkpt lat="46.09294" lon="13.5191717"><ele>564.6666666666666</ele><time>2026-05-03T12:35:55.594Z</time></trkpt><trkpt lat="46.0930033" lon="13.51926"><ele>563.5</ele><time>2026-05-03T12:35:56.595Z</time></trkpt><trkpt lat="46.0930667" lon="13.51934"><ele>562.3333333333333</ele><time>2026-05-03T12:35:57.593Z</time></trkpt><trkpt lat="46.093155" lon="13.5193917"><ele>561.1666666666666</ele><time>2026-05-03T12:35:58.593Z</time></trkpt><trkpt lat="46.0932267" lon="13.519455"><ele>560.0</ele><time>2026-05-03T12:35:59.593Z</time></trkpt><trkpt lat="46.0932933" lon="13.51952"><ele>563.5</ele><time>2026-05-03T12:36:00.595Z</time></trkpt><trkpt lat="46.09336" lon="13.5195733"><ele>567.0</ele><time>2026-05-03T12:36:01.593Z</time></trkpt><trkpt lat="46.0934367" lon="13.5195833"><ele>570.5</ele><time>2026-05-03T12:36:02.595Z</time></trkpt><trkpt lat="46.0935117" lon="13.5195783"><ele>574.0</ele><time>2026-05-03T12:36:03.595Z</time></trkpt><trkpt lat="46.093575" lon="13.5195733"><ele>577.5</ele><time>2026-05-03T12:36:04.596Z</time></trkpt><trkpt lat="46.0936433" lon="13.5195617"><ele>581.0</ele><time>2026-05-03T12:36:05.595Z</time></trkpt><trkpt lat="46.09374" lon="13.5195067"><ele>582.2</ele><time>2026-05-03T12:36:07.593Z</time></trkpt><trkpt lat="46.0937867" lon="13.5194167"><ele>583.4000000000001</ele><time>2026-05-03T12:36:09.594Z</time></trkpt><trkpt lat="46.0937317" lon="13.519275"><ele>584.6</ele><time>2026-05-03T12:36:11.595Z</time></trkpt><trkpt lat="46.0936917" lon="13.5191767"><ele>585.8000000000001</ele><time>2026-05-03T12:36:12.595Z</time></trkpt><trkpt lat="46.0936617" lon="13.5190583"><ele>587.0</ele><time>2026-05-03T12:36:13.595Z</time></trkpt><trkpt lat="46.0936517" lon="13.5189183"><ele>587.0</ele><time>2026-05-03T12:36:14.598Z</time></trkpt><trkpt lat="46.09364" lon="13.518775"><ele>587.0</ele><time>2026-05-03T12:36:15.593Z</time></trkpt><trkpt lat="46.09365" lon="13.5186283"><ele>587.0</ele><time>2026-05-03T12:36:16.593Z</time></trkpt><trkpt lat="46.0936683" lon="13.518485"><ele>587.0</ele><time>2026-05-03T12:36:17.594Z</time></trkpt><trkpt lat="46.0936883" lon="13.51834"><ele>587.0</ele><time>2026-05-03T12:36:18.594Z</time></trkpt><trkpt lat="46.093715" lon="13.51819"><ele>589.75</ele><time>2026-05-03T12:36:19.595Z</time></trkpt><trkpt lat="46.0937317" lon="13.5180283"><ele>592.5</ele><time>2026-05-03T12:36:20.594Z</time></trkpt><trkpt lat="46.09376" lon="13.5178733"><ele>595.25</ele><time>2026-05-03T12:36:21.597Z</time></trkpt><trkpt lat="46.0937817" lon="13.5177083"><ele>598.0</ele><time>2026-05-03T12:36:22.594Z</time></trkpt><trkpt lat="46.093815" lon="13.51754"><ele>598.0</ele><time>2026-05-03T12:36:23.595Z</time></trkpt><trkpt lat="46.09385" lon="13.517365"><ele>598.0</ele><time>2026-05-03T12:36:24.594Z</time></trkpt><trkpt lat="46.0938817" lon="13.5172083"><ele>598.0</ele><time>2026-05-03T12:36:25.595Z</time></trkpt><trkpt lat="46.0939183" lon="13.5170633"><ele>598.0</ele><time>2026-05-03T12:36:26.594Z</time></trkpt><trkpt lat="46.0939617" lon="13.5169417"><ele>598.0</ele><time>2026-05-03T12:36:27.594Z</time></trkpt><trkpt lat="46.093975" lon="13.5168267"><ele>593.6</ele><time>2026-05-03T12:36:28.595Z</time></trkpt><trkpt lat="46.0939683" lon="13.5167217"><ele>589.1999999999999</ele><time>2026-05-03T12:36:29.594Z</time></trkpt><trkpt lat="46.0939267" lon="13.5166517"><ele>584.8</ele><time>2026-05-03T12:36:30.593Z</time></trkpt><trkpt lat="46.09379" lon="13.5166"><ele>580.4</ele><time>2026-05-03T12:36:32.596Z</time></trkpt><trkpt lat="46.0936933" lon="13.5166133"><ele>576.0</ele><time>2026-05-03T12:36:33.594Z</time></trkpt><trkpt lat="46.0935817" lon="13.5166267"><ele>576.0</ele><time>2026-05-03T12:36:34.596Z</time></trkpt><trkpt lat="46.0934817" lon="13.5166267"><ele>576.0</ele><time>2026-05-03T12:36:35.601Z</time></trkpt><trkpt lat="46.0933267" lon="13.516635"><ele>576.0</ele><time>2026-05-03T12:36:36.594Z</time></trkpt><trkpt lat="46.0931683" lon="13.51664"><ele>576.0</ele><time>2026-05-03T12:36:37.593Z</time></trkpt><trkpt lat="46.0930333" lon="13.5166433"><ele>576.8</ele><time>2026-05-03T12:36:38.593Z</time></trkpt><trkpt lat="46.0929067" lon="13.5166483"><ele>577.6</ele><time>2026-05-03T12:36:39.593Z</time></trkpt><trkpt lat="46.09281" lon="13.5166283"><ele>578.4</ele><time>2026-05-03T12:36:40.593Z</time></trkpt><trkpt lat="46.0927267" lon="13.5165733"><ele>579.2</ele><time>2026-05-03T12:36:41.594Z</time></trkpt><trkpt lat="46.09267" lon="13.516465"><ele>580.0</ele><time>2026-05-03T12:36:42.595Z</time></trkpt><trkpt lat="46.0926067" lon="13.5163383"><ele>580.75</ele><time>2026-05-03T12:36:43.594Z</time></trkpt><trkpt lat="46.0925417" lon="13.5161983"><ele>581.5</ele><time>2026-05-03T12:36:44.594Z</time></trkpt><trkpt lat="46.0925433" lon="13.5159833"><ele>582.25</ele><time>2026-05-03T12:36:45.594Z</time></trkpt><trkpt lat="46.0925217" lon="13.5157417"><ele>583.0</ele><time>2026-05-03T12:36:46.593Z</time></trkpt><trkpt lat="46.0925283" lon="13.5155083"><ele>582.75</ele><time>2026-05-03T12:36:47.594Z</time></trkpt><trkpt lat="46.0925233" lon="13.5152833"><ele>582.5</ele><time>2026-05-03T12:36:48.595Z</time></trkpt><trkpt lat="46.092515" lon="13.515085"><ele>582.25</ele><time>2026-05-03T12:36:49.594Z</time></trkpt><trkpt lat="46.0925117" lon="13.51489"><ele>582.0</ele><time>2026-05-03T12:36:50.593Z</time></trkpt><trkpt lat="46.0925083" lon="13.5146883"><ele>582.25</ele><time>2026-05-03T12:36:51.594Z</time></trkpt><trkpt lat="46.092515" lon="13.5144933"><ele>582.5</ele><time>2026-05-03T12:36:52.595Z</time></trkpt><trkpt lat="46.0925233" lon="13.5143017"><ele>582.75</ele><time>2026-05-03T12:36:53.595Z</time></trkpt><trkpt lat="46.0925583" lon="13.5141017"><ele>583.0</ele><time>2026-05-03T12:36:54.594Z</time></trkpt><trkpt lat="46.0926133" lon="13.5139083"><ele>581.0</ele><time>2026-05-03T12:36:55.594Z</time></trkpt><trkpt lat="46.0926233" lon="13.513715"><ele>579.0</ele><time>2026-05-03T12:36:56.596Z</time></trkpt><trkpt lat="46.09265" lon="13.51352"><ele>577.0</ele><time>2026-05-03T12:36:57.594Z</time></trkpt><trkpt lat="46.09266" lon="13.51333"><ele>575.0</ele><time>2026-05-03T12:36:58.594Z</time></trkpt><trkpt lat="46.092645" lon="13.5131533"><ele>575.0</ele><time>2026-05-03T12:36:59.593Z</time></trkpt><trkpt lat="46.09262" lon="13.5129833"><ele>575.0</ele><time>2026-05-03T12:37:00.594Z</time></trkpt><trkpt lat="46.0926117" lon="13.5128117"><ele>575.0</ele><time>2026-05-03T12:37:01.594Z</time></trkpt><trkpt lat="46.0926283" lon="13.5126367"><ele>575.0</ele><time>2026-05-03T12:37:02.594Z</time></trkpt><trkpt lat="46.0926283" lon="13.5124483"><ele>573.5</ele><time>2026-05-03T12:37:03.594Z</time></trkpt><trkpt lat="46.09266" lon="13.5122633"><ele>572.0</ele><time>2026-05-03T12:37:04.595Z</time></trkpt><trkpt lat="46.0927267" lon="13.5120867"><ele>570.5</ele><time>2026-05-03T12:37:05.594Z</time></trkpt><trkpt lat="46.0927967" lon="13.5119067"><ele>569.0</ele><time>2026-05-03T12:37:06.594Z</time></trkpt><trkpt lat="46.0928733" lon="13.5117183"><ele>567.3333333333333</ele><time>2026-05-03T12:37:07.593Z</time></trkpt><trkpt lat="46.092955" lon="13.51152"><ele>565.6666666666666</ele><time>2026-05-03T12:37:08.594Z</time></trkpt><trkpt lat="46.093035" lon="13.5113167"><ele>564.0</ele><time>2026-05-03T12:37:09.595Z</time></trkpt><trkpt lat="46.0931217" lon="13.5111183"><ele>562.0</ele><time>2026-05-03T12:37:10.593Z</time></trkpt><trkpt lat="46.0932083" lon="13.5109267"><ele>560.0</ele><time>2026-05-03T12:37:11.594Z</time></trkpt><trkpt lat="46.093285" lon="13.5107417"><ele>558.0</ele><time>2026-05-03T12:37:12.595Z</time></trkpt><trkpt lat="46.0933583" lon="13.5105433"><ele>556.0</ele><time>2026-05-03T12:37:13.594Z</time></trkpt><trkpt lat="46.0934183" lon="13.5103333"><ele>554.0</ele><time>2026-05-03T12:37:14.594Z</time></trkpt><trkpt lat="46.09348" lon="13.5101217"><ele>552.0</ele><time>2026-05-03T12:37:15.594Z</time></trkpt><trkpt lat="46.0935067" lon="13.5098783"><ele>552.0</ele><time>2026-05-03T12:37:16.593Z</time></trkpt><trkpt lat="46.0935333" lon="13.5096517"><ele>552.0</ele><time>2026-05-03T12:37:17.594Z</time></trkpt><trkpt lat="46.0935617" lon="13.5094083"><ele>552.0</ele><time>2026-05-03T12:37:18.595Z</time></trkpt><trkpt lat="46.0935383" lon="13.50912"><ele>549.0</ele><time>2026-05-03T12:37:19.594Z</time></trkpt><trkpt lat="46.0935233" lon="13.508855"><ele>546.0</ele><time>2026-05-03T12:37:20.594Z</time></trkpt><trkpt lat="46.0935417" lon="13.5086"><ele>543.0</ele><time>2026-05-03T12:37:21.594Z</time></trkpt><trkpt lat="46.0935617" lon="13.5083683"><ele>539.3333333333334</ele><time>2026-05-03T12:37:22.596Z</time></trkpt><trkpt lat="46.09357" lon="13.508125"><ele>535.6666666666667</ele><time>2026-05-03T12:37:23.594Z</time></trkpt><trkpt lat="46.0935583" lon="13.50789"><ele>532.0</ele><time>2026-05-03T12:37:24.595Z</time></trkpt><trkpt lat="46.0935333" lon="13.507665"><ele>529.75</ele><time>2026-05-03T12:37:25.594Z</time></trkpt><trkpt lat="46.093545" lon="13.5074583"><ele>527.5</ele><time>2026-05-03T12:37:26.594Z</time></trkpt><trkpt lat="46.093555" lon="13.507255"><ele>525.25</ele><time>2026-05-03T12:37:27.595Z</time></trkpt><trkpt lat="46.0935783" lon="13.5070767"><ele>523.0</ele><time>2026-05-03T12:37:28.597Z</time></trkpt><trkpt lat="46.0936117" lon="13.5069217"><ele>521.75</ele><time>2026-05-03T12:37:29.594Z</time></trkpt><trkpt lat="46.0936333" lon="13.506765"><ele>520.5</ele><time>2026-05-03T12:37:30.594Z</time></trkpt><trkpt lat="46.0936083" lon="13.5066017"><ele>519.25</ele><time>2026-05-03T12:37:31.595Z</time></trkpt><trkpt lat="46.0935683" lon="13.506445"><ele>518.0</ele><time>2026-05-03T12:37:32.594Z</time></trkpt><trkpt lat="46.09347" lon="13.5063"><ele>516.5</ele><time>2026-05-03T12:37:33.595Z</time></trkpt><trkpt lat="46.0934233" lon="13.5061633"><ele>515.0</ele><time>2026-05-03T12:37:34.594Z</time></trkpt><trkpt lat="46.0933633" lon="13.5060517"><ele>513.5</ele><time>2026-05-03T12:37:35.594Z</time></trkpt><trkpt lat="46.093305" lon="13.5059633"><ele>512.0</ele><time>2026-05-03T12:37:36.594Z</time></trkpt><trkpt lat="46.09324" lon="13.505905"><ele>510.49999999999994</ele><time>2026-05-03T12:37:37.595Z</time></trkpt><trkpt lat="46.09316" lon="13.505905"><ele>509.0</ele><time>2026-05-03T12:37:38.598Z</time></trkpt><trkpt lat="46.093105" lon="13.5059667"><ele>506.49999999999994</ele><time>2026-05-03T12:37:39.594Z</time></trkpt><trkpt lat="46.093085" lon="13.5061117"><ele>504.0</ele><time>2026-05-03T12:37:40.597Z</time></trkpt><trkpt lat="46.0930817" lon="13.5062167"><ele>501.5</ele><time>2026-05-03T12:37:41.594Z</time></trkpt><trkpt lat="46.0930567" lon="13.5063083"><ele>499.0</ele><time>2026-05-03T12:37:42.594Z</time></trkpt><trkpt lat="46.0929567" lon="13.5062717"><ele>496.49999999999994</ele><time>2026-05-03T12:37:44.596Z</time></trkpt><trkpt lat="46.0929233" lon="13.5061933"><ele>494.0</ele><time>2026-05-03T12:37:45.593Z</time></trkpt><trkpt lat="46.0929117" lon="13.50607"><ele>494.0</ele><time>2026-05-03T12:37:46.594Z</time></trkpt><trkpt lat="46.0929217" lon="13.5059183"><ele>494.0</ele><time>2026-05-03T12:37:47.593Z</time></trkpt><trkpt lat="46.0929883" lon="13.50569"><ele>494.0</ele><time>2026-05-03T12:37:48.594Z</time></trkpt><trkpt lat="46.0930567" lon="13.5055117"><ele>494.0</ele><time>2026-05-03T12:37:49.595Z</time></trkpt><trkpt lat="46.0931283" lon="13.5053583"><ele>493.6</ele><time>2026-05-03T12:37:50.595Z</time></trkpt><trkpt lat="46.093185" lon="13.5052283"><ele>493.2</ele><time>2026-05-03T12:37:51.595Z</time></trkpt><trkpt lat="46.09322" lon="13.5051167"><ele>492.80000000000007</ele><time>2026-05-03T12:37:52.594Z</time></trkpt><trkpt lat="46.093215" lon="13.5050167"><ele>492.40000000000003</ele><time>2026-05-03T12:37:53.594Z</time></trkpt><trkpt lat="46.0930883" lon="13.5049433"><ele>492.0</ele><time>2026-05-03T12:37:55.594Z</time></trkpt><trkpt lat="46.0929617" lon="13.50498"><ele>492.0</ele><time>2026-05-03T12:37:56.596Z</time></trkpt><trkpt lat="46.0928717" lon="13.504985"><ele>492.0</ele><time>2026-05-03T12:37:57.595Z</time></trkpt><trkpt lat="46.092715" lon="13.5049817"><ele>492.0</ele><time>2026-05-03T12:37:58.595Z</time></trkpt><trkpt lat="46.0925667" lon="13.50494"><ele>492.0</ele><time>2026-05-03T12:37:59.595Z</time></trkpt><trkpt lat="46.09243" lon="13.5048883"><ele>488.6</ele><time>2026-05-03T12:38:00.595Z</time></trkpt><trkpt lat="46.0923033" lon="13.504835"><ele>485.20000000000005</ele><time>2026-05-03T12:38:01.594Z</time></trkpt><trkpt lat="46.0921983" lon="13.50477"><ele>481.8</ele><time>2026-05-03T12:38:02.594Z</time></trkpt><trkpt lat="46.0921217" lon="13.5046833"><ele>478.4</ele><time>2026-05-03T12:38:03.595Z</time></trkpt><trkpt lat="46.09206" lon="13.5046033"><ele>475.0</ele><time>2026-05-03T12:38:04.593Z</time></trkpt><trkpt lat="46.091985" lon="13.50447"><ele>475.0</ele><time>2026-05-03T12:38:06.595Z</time></trkpt><trkpt lat="46.0919267" lon="13.5043417"><ele>475.0</ele><time>2026-05-03T12:38:08.596Z</time></trkpt><trkpt lat="46.0918517" lon="13.5042417"><ele>475.0</ele><time>2026-05-03T12:38:10.594Z</time></trkpt><trkpt lat="46.091785" lon="13.504215"><ele>475.0</ele><time>2026-05-03T12:38:13.594Z</time></trkpt><trkpt lat="46.0918533" lon="13.5043067"><ele>475.0</ele><time>2026-05-03T12:38:17.594Z</time></trkpt><trkpt lat="46.0919217" lon="13.5044617"><ele>474.25</ele><time>2026-05-03T12:38:19.594Z</time></trkpt><trkpt lat="46.092" lon="13.50459"><ele>473.5</ele><time>2026-05-03T12:38:20.594Z</time></trkpt><trkpt lat="46.092085" lon="13.5047183"><ele>472.75</ele><time>2026-05-03T12:38:21.594Z</time></trkpt><trkpt lat="46.0921633" lon="13.50483"><ele>472.0</ele><time>2026-05-03T12:38:22.595Z</time></trkpt><trkpt lat="46.0922533" lon="13.5049133"><ele>472.00000000000006</ele><time>2026-05-03T12:38:23.594Z</time></trkpt><trkpt lat="46.092335" lon="13.5049717"><ele>472.0</ele><time>2026-05-03T12:38:24.596Z</time></trkpt><trkpt lat="46.09242" lon="13.5050067"><ele>472.0</ele><time>2026-05-03T12:38:25.596Z</time></trkpt><trkpt lat="46.09248" lon="13.5050383"><ele>472.0</ele><time>2026-05-03T12:38:26.594Z</time></trkpt><trkpt lat="46.0925867" lon="13.5049867"><ele>472.00000000000006</ele><time>2026-05-03T12:38:28.594Z</time></trkpt><trkpt lat="46.092645" lon="13.5049483"><ele>472.0</ele><time>2026-05-03T12:38:29.596Z</time></trkpt><trkpt lat="46.0927483" lon="13.5048767"><ele>475.33333333333337</ele><time>2026-05-03T12:38:31.595Z</time></trkpt><trkpt lat="46.092815" lon="13.50486"><ele>478.6666666666667</ele><time>2026-05-03T12:38:32.594Z</time></trkpt><trkpt lat="46.0928833" lon="13.5048467"><ele>482.0</ele><time>2026-05-03T12:38:33.594Z</time></trkpt><trkpt lat="46.0929633" lon="13.5048383"><ele>485.33333333333337</ele><time>2026-05-03T12:38:34.595Z</time></trkpt><trkpt lat="46.0930467" lon="13.5048233"><ele>488.6666666666667</ele><time>2026-05-03T12:38:35.596Z</time></trkpt><trkpt lat="46.0931283" lon="13.5048067"><ele>492.0</ele><time>2026-05-03T12:38:36.594Z</time></trkpt><trkpt lat="46.0932017" lon="13.5048067"><ele>492.8333333333333</ele><time>2026-05-03T12:38:37.594Z</time></trkpt><trkpt lat="46.09327" lon="13.5048217"><ele>493.66666666666663</ele><time>2026-05-03T12:38:38.596Z</time></trkpt><trkpt lat="46.0933333" lon="13.5048467"><ele>494.5</ele><time>2026-05-03T12:38:39.595Z</time></trkpt><trkpt lat="46.093395" lon="13.504875"><ele>495.3333333333333</ele><time>2026-05-03T12:38:40.595Z</time></trkpt><trkpt lat="46.0934583" lon="13.5049267"><ele>496.16666666666663</ele><time>2026-05-03T12:38:41.595Z</time></trkpt><trkpt lat="46.0935283" lon="13.50499"><ele>497.0</ele><time>2026-05-03T12:38:42.597Z</time></trkpt><trkpt lat="46.093605" lon="13.5050767"><ele>497.0</ele><time>2026-05-03T12:38:43.594Z</time></trkpt><trkpt lat="46.0936833" lon="13.5051617"><ele>497.00000000000006</ele><time>2026-05-03T12:38:44.595Z</time></trkpt><trkpt lat="46.0937617" lon="13.505225"><ele>497.00000000000006</ele><time>2026-05-03T12:38:45.596Z</time></trkpt><trkpt lat="46.0938467" lon="13.5052867"><ele>497.0</ele><time>2026-05-03T12:38:46.595Z</time></trkpt><trkpt lat="46.09393" lon="13.5053483"><ele>497.0</ele><time>2026-05-03T12:38:47.595Z</time></trkpt><trkpt lat="46.0940333" lon="13.50542"><ele>496.99999999999994</ele><time>2026-05-03T12:38:48.596Z</time></trkpt><trkpt lat="46.09412" lon="13.505475"><ele>497.0</ele><time>2026-05-03T12:38:49.595Z</time></trkpt><trkpt lat="46.0942" lon="13.5055267"><ele>497.0</ele><time>2026-05-03T12:38:50.595Z</time></trkpt><trkpt lat="46.0942683" lon="13.505565"><ele>497.0</ele><time>2026-05-03T12:38:51.595Z</time></trkpt><trkpt lat="46.0943367" lon="13.5055933"><ele>496.99999999999994</ele><time>2026-05-03T12:38:52.594Z</time></trkpt><trkpt lat="46.0944" lon="13.5056083"><ele>497.0</ele><time>2026-05-03T12:38:53.595Z</time></trkpt><trkpt lat="46.0944667" lon="13.50561"><ele>496.99999999999994</ele><time>2026-05-03T12:38:54.597Z</time></trkpt><trkpt lat="46.0945817" lon="13.5055667"><ele>497.0</ele><time>2026-05-03T12:38:56.595Z</time></trkpt><trkpt lat="46.09464" lon="13.5055183"><ele>497.0</ele><time>2026-05-03T12:38:57.596Z</time></trkpt><trkpt lat="46.09471" lon="13.5054617"><ele>497.0</ele><time>2026-05-03T12:38:58.596Z</time></trkpt><trkpt lat="46.0947717" lon="13.5054"><ele>496.99999999999994</ele><time>2026-05-03T12:38:59.596Z</time></trkpt><trkpt lat="46.0948317" lon="13.505345"><ele>497.0</ele><time>2026-05-03T12:39:00.596Z</time></trkpt><trkpt lat="46.0948933" lon="13.5053117"><ele>491.20000000000005</ele><time>2026-05-03T12:39:01.596Z</time></trkpt><trkpt lat="46.095015" lon="13.5053"><ele>485.40000000000003</ele><time>2026-05-03T12:39:03.594Z</time></trkpt><trkpt lat="46.095135" lon="13.5053217"><ele>479.59999999999997</ele><time>2026-05-03T12:39:05.595Z</time></trkpt><trkpt lat="46.0952" lon="13.50532"><ele>473.79999999999995</ele><time>2026-05-03T12:39:06.596Z</time></trkpt><trkpt lat="46.0952783" lon="13.5052867"><ele>468.0</ele><time>2026-05-03T12:39:08.594Z</time></trkpt><trkpt lat="46.0953667" lon="13.5051967"><ele>468.0</ele><time>2026-05-03T12:39:10.596Z</time></trkpt><trkpt lat="46.0954267" lon="13.5051317"><ele>467.99999999999994</ele><time>2026-05-03T12:39:11.594Z</time></trkpt><trkpt lat="46.0955033" lon="13.5050417"><ele>467.99999999999994</ele><time>2026-05-03T12:39:12.594Z</time></trkpt><trkpt lat="46.095595" lon="13.5049417"><ele>468.0</ele><time>2026-05-03T12:39:13.594Z</time></trkpt><trkpt lat="46.09567" lon="13.504835"><ele>468.0</ele><time>2026-05-03T12:39:14.595Z</time></trkpt><trkpt lat="46.095765" lon="13.50473"><ele>466.2</ele><time>2026-05-03T12:39:15.596Z</time></trkpt><trkpt lat="46.0958433" lon="13.5046133"><ele>464.4</ele><time>2026-05-03T12:39:16.595Z</time></trkpt><trkpt lat="46.09592" lon="13.5045033"><ele>462.59999999999997</ele><time>2026-05-03T12:39:17.595Z</time></trkpt><trkpt lat="46.09599" lon="13.5044067"><ele>460.79999999999995</ele><time>2026-05-03T12:39:18.594Z</time></trkpt><trkpt lat="46.0960533" lon="13.504325"><ele>459.0</ele><time>2026-05-03T12:39:19.595Z</time></trkpt><trkpt lat="46.0961317" lon="13.504245"><ele>458.0</ele><time>2026-05-03T12:39:20.596Z</time></trkpt><trkpt lat="46.09621" lon="13.5041633"><ele>457.0</ele><time>2026-05-03T12:39:21.595Z</time></trkpt><trkpt lat="46.0963" lon="13.504075"><ele>456.0</ele><time>2026-05-03T12:39:22.594Z</time></trkpt><trkpt lat="46.0963717" lon="13.503985"><ele>455.0</ele><time>2026-05-03T12:39:23.594Z</time></trkpt><trkpt lat="46.09645" lon="13.5038967"><ele>454.0</ele><time>2026-05-03T12:39:24.596Z</time></trkpt><trkpt lat="46.09653" lon="13.5038083"><ele>452.79999999999995</ele><time>2026-05-03T12:39:25.595Z</time></trkpt><trkpt lat="46.0966017" lon="13.5037283"><ele>451.59999999999997</ele><time>2026-05-03T12:39:26.595Z</time></trkpt><trkpt lat="46.0966733" lon="13.50365"><ele>450.4</ele><time>2026-05-03T12:39:27.594Z</time></trkpt><trkpt lat="46.0967333" lon="13.5035583"><ele>449.2</ele><time>2026-05-03T12:39:28.595Z</time></trkpt><trkpt lat="46.096815" lon="13.5034817"><ele>448.0</ele><time>2026-05-03T12:39:29.594Z</time></trkpt><trkpt lat="46.0968883" lon="13.5034083"><ele>448.0</ele><time>2026-05-03T12:39:30.595Z</time></trkpt><trkpt lat="46.0969533" lon="13.5033317"><ele>447.99999999999994</ele><time>2026-05-03T12:39:31.595Z</time></trkpt><trkpt lat="46.09703" lon="13.503265"><ele>447.99999999999994</ele><time>2026-05-03T12:39:32.594Z</time></trkpt><trkpt lat="46.0971133" lon="13.5032033"><ele>448.0</ele><time>2026-05-03T12:39:33.595Z</time></trkpt><trkpt lat="46.0972317" lon="13.503155"><ele>448.0</ele><time>2026-05-03T12:39:34.596Z</time></trkpt><trkpt lat="46.0973333" lon="13.5030983"><ele>447.0</ele><time>2026-05-03T12:39:35.595Z</time></trkpt><trkpt lat="46.0974267" lon="13.5030483"><ele>445.99999999999994</ele><time>2026-05-03T12:39:36.596Z</time></trkpt><trkpt lat="46.09753" lon="13.502995"><ele>444.99999999999994</ele><time>2026-05-03T12:39:37.595Z</time></trkpt><trkpt lat="46.0976367" lon="13.5029383"><ele>444.0</ele><time>2026-05-03T12:39:38.6Z</time></trkpt><trkpt lat="46.097745" lon="13.5028867"><ele>443.0</ele><time>2026-05-03T12:39:39.594Z</time></trkpt><trkpt lat="46.0978467" lon="13.5028417"><ele>443.0</ele><time>2026-05-03T12:39:40.594Z</time></trkpt><trkpt lat="46.0979367" lon="13.5027867"><ele>442.99999999999994</ele><time>2026-05-03T12:39:41.593Z</time></trkpt><trkpt lat="46.0980167" lon="13.5027233"><ele>442.99999999999994</ele><time>2026-05-03T12:39:42.594Z</time></trkpt><trkpt lat="46.0980933" lon="13.5026517"><ele>443.0</ele><time>2026-05-03T12:39:43.595Z</time></trkpt><trkpt lat="46.0982283" lon="13.502565"><ele>443.0</ele><time>2026-05-03T12:39:44.596Z</time></trkpt><trkpt lat="46.09835" lon="13.5024633"><ele>440.75</ele><time>2026-05-03T12:39:45.594Z</time></trkpt><trkpt lat="46.0984333" lon="13.5023467"><ele>438.5</ele><time>2026-05-03T12:39:46.593Z</time></trkpt><trkpt lat="46.098525" lon="13.502225"><ele>436.25</ele><time>2026-05-03T12:39:47.596Z</time></trkpt><trkpt lat="46.098655" lon="13.50211"><ele>434.0</ele><time>2026-05-03T12:39:48.595Z</time></trkpt><trkpt lat="46.0987633" lon="13.501985"><ele>432.25</ele><time>2026-05-03T12:39:49.594Z</time></trkpt><trkpt lat="46.09886" lon="13.501865"><ele>430.5</ele><time>2026-05-03T12:39:50.593Z</time></trkpt><trkpt lat="46.0989667" lon="13.5017417"><ele>428.75</ele><time>2026-05-03T12:39:51.595Z</time></trkpt><trkpt lat="46.0990717" lon="13.5016367"><ele>427.0</ele><time>2026-05-03T12:39:52.595Z</time></trkpt><trkpt lat="46.0991483" lon="13.5015167"><ele>426.8</ele><time>2026-05-03T12:39:53.593Z</time></trkpt><trkpt lat="46.099215" lon="13.5013983"><ele>426.6</ele><time>2026-05-03T12:39:54.594Z</time></trkpt><trkpt lat="46.0992733" lon="13.5012767"><ele>426.40000000000003</ele><time>2026-05-03T12:39:55.594Z</time></trkpt><trkpt lat="46.0993317" lon="13.5011333"><ele>426.20000000000005</ele><time>2026-05-03T12:39:56.595Z</time></trkpt><trkpt lat="46.09938" lon="13.5009733"><ele>426.0</ele><time>2026-05-03T12:39:57.594Z</time></trkpt><trkpt lat="46.0994117" lon="13.5007817"><ele>424.5</ele><time>2026-05-03T12:39:58.595Z</time></trkpt><trkpt lat="46.0994383" lon="13.5005883"><ele>423.0</ele><time>2026-05-03T12:39:59.593Z</time></trkpt><trkpt lat="46.0994667" lon="13.500395"><ele>421.5</ele><time>2026-05-03T12:40:00.594Z</time></trkpt><trkpt lat="46.0994817" lon="13.5002017"><ele>420.0</ele><time>2026-05-03T12:40:01.596Z</time></trkpt><trkpt lat="46.09951" lon="13.500025"><ele>418.25</ele><time>2026-05-03T12:40:02.595Z</time></trkpt><trkpt lat="46.09953" lon="13.4998474"><ele>416.5</ele><time>2026-05-03T12:40:03.595Z</time></trkpt><trkpt lat="46.0995553" lon="13.4996755"><ele>414.75</ele><time>2026-05-03T12:40:04.594Z</time></trkpt><trkpt lat="46.0995829" lon="13.4995231"><ele>413.0</ele><time>2026-05-03T12:40:05.595Z</time></trkpt><trkpt lat="46.0996117" lon="13.4993741"><ele>411.25</ele><time>2026-05-03T12:40:06.594Z</time></trkpt><trkpt lat="46.0996495" lon="13.4992224"><ele>409.5</ele><time>2026-05-03T12:40:07.595Z</time></trkpt><trkpt lat="46.0996947" lon="13.4990672"><ele>407.75</ele><time>2026-05-03T12:40:08.594Z</time></trkpt><trkpt lat="46.0997487" lon="13.4989111"><ele>406.0</ele><time>2026-05-03T12:40:09.595Z</time></trkpt><trkpt lat="46.0998113" lon="13.498754"><ele>402.75</ele><time>2026-05-03T12:40:10.595Z</time></trkpt><trkpt lat="46.0998774" lon="13.4985911"><ele>399.5</ele><time>2026-05-03T12:40:11.594Z</time></trkpt><trkpt lat="46.0999448" lon="13.4984205"><ele>396.25</ele><time>2026-05-03T12:40:12.595Z</time></trkpt><trkpt lat="46.1000012" lon="13.4982455"><ele>393.0</ele><time>2026-05-03T12:40:13.594Z</time></trkpt><trkpt lat="46.1000608" lon="13.4980745"><ele>398.75</ele><time>2026-05-03T12:40:14.593Z</time></trkpt><trkpt lat="46.1001168" lon="13.4978978"><ele>404.5</ele><time>2026-05-03T12:40:15.593Z</time></trkpt><trkpt lat="46.1001727" lon="13.4977199"><ele>410.25</ele><time>2026-05-03T12:40:16.593Z</time></trkpt><trkpt lat="46.1002224" lon="13.497536"><ele>416.0</ele><time>2026-05-03T12:40:17.593Z</time></trkpt><trkpt lat="46.1002713" lon="13.4973532"><ele>416.0</ele><time>2026-05-03T12:40:18.597Z</time></trkpt><trkpt lat="46.1003237" lon="13.4971731"><ele>416.0</ele><time>2026-05-03T12:40:19.593Z</time></trkpt><trkpt lat="46.1003707" lon="13.4969822"><ele>416.0</ele><time>2026-05-03T12:40:20.595Z</time></trkpt><trkpt lat="46.1004073" lon="13.496787"><ele>416.0</ele><time>2026-05-03T12:40:21.593Z</time></trkpt><trkpt lat="46.1004333" lon="13.4965953"><ele>414.0</ele><time>2026-05-03T12:40:22.597Z</time></trkpt><trkpt lat="46.1004544" lon="13.4964195"><ele>412.0</ele><time>2026-05-03T12:40:23.594Z</time></trkpt><trkpt lat="46.1004784" lon="13.4962655"><ele>410.0</ele><time>2026-05-03T12:40:24.594Z</time></trkpt><trkpt lat="46.1005089" lon="13.4961213"><ele>408.0</ele><time>2026-05-03T12:40:25.594Z</time></trkpt><trkpt lat="46.1005632" lon="13.4959744"><ele>409.4</ele><time>2026-05-03T12:40:26.594Z</time></trkpt><trkpt lat="46.1006166" lon="13.4958382"><ele>410.79999999999995</ele><time>2026-05-03T12:40:27.594Z</time></trkpt><trkpt lat="46.1006721" lon="13.4957062"><ele>412.2</ele><time>2026-05-03T12:40:28.594Z</time></trkpt><trkpt lat="46.1007272" lon="13.4955663"><ele>413.6</ele><time>2026-05-03T12:40:29.594Z</time></trkpt><trkpt lat="46.1007858" lon="13.4954236"><ele>415.0</ele><time>2026-05-03T12:40:30.593Z</time></trkpt><trkpt lat="46.1008565" lon="13.495279"><ele>415.0</ele><time>2026-05-03T12:40:31.594Z</time></trkpt><trkpt lat="46.1009262" lon="13.4951463"><ele>415.0</ele><time>2026-05-03T12:40:32.593Z</time></trkpt><trkpt lat="46.100995" lon="13.49502"><ele>415.0</ele><time>2026-05-03T12:40:33.594Z</time></trkpt><trkpt lat="46.1010659" lon="13.4948978"><ele>415.0</ele><time>2026-05-03T12:40:34.595Z</time></trkpt><trkpt lat="46.1011202" lon="13.4947716"><ele>415.0</ele><time>2026-05-03T12:40:35.594Z</time></trkpt><trkpt lat="46.1011615" lon="13.4946441"><ele>410.6666666666667</ele><time>2026-05-03T12:40:36.594Z</time></trkpt><trkpt lat="46.1012178" lon="13.4945136"><ele>406.33333333333337</ele><time>2026-05-03T12:40:37.593Z</time></trkpt><trkpt lat="46.1013377" lon="13.4942349"><ele>402.0</ele><time>2026-05-03T12:40:39.593Z</time></trkpt><trkpt lat="46.1014074" lon="13.494087"><ele>402.0</ele><time>2026-05-03T12:40:40.679Z</time></trkpt><trkpt lat="46.1014643" lon="13.4939628"><ele>402.0</ele><time>2026-05-03T12:40:41.593Z</time></trkpt><trkpt lat="46.1015303" lon="13.4938306"><ele>402.0</ele><time>2026-05-03T12:40:42.595Z</time></trkpt><trkpt lat="46.1015941" lon="13.4937068"><ele>402.0</ele><time>2026-05-03T12:40:43.594Z</time></trkpt><trkpt lat="46.101657" lon="13.4935966"><ele>402.0</ele><time>2026-05-03T12:40:44.595Z</time></trkpt><trkpt lat="46.1017273" lon="13.4934979"><ele>402.0</ele><time>2026-05-03T12:40:45.594Z</time></trkpt><trkpt lat="46.1018021" lon="13.4934143"><ele>402.0</ele><time>2026-05-03T12:40:46.594Z</time></trkpt><trkpt lat="46.1018729" lon="13.4933342"><ele>402.0</ele><time>2026-05-03T12:40:47.595Z</time></trkpt><trkpt lat="46.1019459" lon="13.4932424"><ele>402.0</ele><time>2026-05-03T12:40:48.594Z</time></trkpt><trkpt lat="46.1020092" lon="13.4931278"><ele>402.0</ele><time>2026-05-03T12:40:49.594Z</time></trkpt><trkpt lat="46.1020772" lon="13.492996"><ele>399.25</ele><time>2026-05-03T12:40:50.595Z</time></trkpt><trkpt lat="46.102145" lon="13.492843"><ele>396.5</ele><time>2026-05-03T12:40:51.602Z</time></trkpt><trkpt lat="46.1022092" lon="13.4926741"><ele>393.75</ele><time>2026-05-03T12:40:52.594Z</time></trkpt><trkpt lat="46.1022752" lon="13.492497"><ele>391.0</ele><time>2026-05-03T12:40:53.595Z</time></trkpt><trkpt lat="46.1023348" lon="13.4923172"><ele>391.0</ele><time>2026-05-03T12:40:54.595Z</time></trkpt><trkpt lat="46.1023911" lon="13.4921393"><ele>391.0</ele><time>2026-05-03T12:40:55.595Z</time></trkpt><trkpt lat="46.1024539" lon="13.4919675"><ele>391.0</ele><time>2026-05-03T12:40:56.596Z</time></trkpt><trkpt lat="46.1025171" lon="13.4918046"><ele>391.0</ele><time>2026-05-03T12:40:57.594Z</time></trkpt><trkpt lat="46.102575" lon="13.4916591"><ele>391.6666666666667</ele><time>2026-05-03T12:40:58.594Z</time></trkpt><trkpt lat="46.1026288" lon="13.4915305"><ele>392.33333333333337</ele><time>2026-05-03T12:40:59.598Z</time></trkpt><trkpt lat="46.1026803" lon="13.4914103"><ele>393.0</ele><time>2026-05-03T12:41:00.595Z</time></trkpt><trkpt lat="46.1027271" lon="13.4912987"><ele>393.66666666666663</ele><time>2026-05-03T12:41:01.595Z</time></trkpt><trkpt lat="46.1027748" lon="13.4911992"><ele>394.3333333333333</ele><time>2026-05-03T12:41:02.594Z</time></trkpt><trkpt lat="46.1028138" lon="13.4911169"><ele>395.0</ele><time>2026-05-03T12:41:03.594Z</time></trkpt><trkpt lat="46.1028627" lon="13.4910554"><ele>395.0</ele><time>2026-05-03T12:41:04.595Z</time></trkpt><trkpt lat="46.1029464" lon="13.4909884"><ele>395.0</ele><time>2026-05-03T12:41:06.597Z</time></trkpt><trkpt lat="46.1030273" lon="13.4909769"><ele>395.0</ele><time>2026-05-03T12:41:08.595Z</time></trkpt><trkpt lat="46.1030335" lon="13.4908723"><ele>395.0</ele><time>2026-05-03T12:41:11.593Z</time></trkpt><trkpt lat="46.1029385" lon="13.4907215"><ele>395.0</ele><time>2026-05-03T12:41:13.594Z</time></trkpt><trkpt lat="46.102866" lon="13.4906107"><ele>395.0</ele><time>2026-05-03T12:41:14.594Z</time></trkpt><trkpt lat="46.1027959" lon="13.4904951"><ele>395.0</ele><time>2026-05-03T12:41:15.594Z</time></trkpt><trkpt lat="46.1027444" lon="13.4903933"><ele>395.0</ele><time>2026-05-03T12:41:16.595Z</time></trkpt><trkpt lat="46.1027991" lon="13.4902236"><ele>395.0</ele><time>2026-05-03T12:41:21.611Z</time></trkpt><trkpt lat="46.1028935" lon="13.4901529"><ele>395.0</ele><time>2026-05-03T12:41:23.645Z</time></trkpt><trkpt lat="46.1029426" lon="13.4900695"><ele>387.0</ele><time>2026-05-03T12:41:25.594Z</time></trkpt><trkpt lat="46.1030801" lon="13.4896295"><ele>379.0</ele><time>2026-05-03T12:41:27.595Z</time></trkpt><trkpt lat="46.1031114" lon="13.4893458"><ele>372.66666666666663</ele><time>2026-05-03T12:41:28.595Z</time></trkpt><trkpt lat="46.1031197" lon="13.4890867"><ele>366.3333333333333</ele><time>2026-05-03T12:41:29.595Z</time></trkpt><trkpt lat="46.1031161" lon="13.4888628"><ele>360.0</ele><time>2026-05-03T12:41:30.594Z</time></trkpt><trkpt lat="46.1031083" lon="13.4886367"><ele>358.4</ele><time>2026-05-03T12:41:31.595Z</time></trkpt><trkpt lat="46.1031117" lon="13.4884667"><ele>356.8</ele><time>2026-05-03T12:41:32.595Z</time></trkpt><trkpt lat="46.1031317" lon="13.4883183"><ele>355.20000000000005</ele><time>2026-05-03T12:41:33.594Z</time></trkpt><trkpt lat="46.1031483" lon="13.4881933"><ele>353.6</ele><time>2026-05-03T12:41:34.594Z</time></trkpt><trkpt lat="46.103155" lon="13.4880833"><ele>352.0</ele><time>2026-05-03T12:41:35.595Z</time></trkpt><trkpt lat="46.1031483" lon="13.4879883"><ele>351.3333333333333</ele><time>2026-05-03T12:41:36.595Z</time></trkpt><trkpt lat="46.1031383" lon="13.4878933"><ele>350.66666666666663</ele><time>2026-05-03T12:41:37.595Z</time></trkpt><trkpt lat="46.1031167" lon="13.4877783"><ele>350.0</ele><time>2026-05-03T12:41:38.596Z</time></trkpt><trkpt lat="46.1031" lon="13.4876533"><ele>349.3333333333333</ele><time>2026-05-03T12:41:39.596Z</time></trkpt><trkpt lat="46.1030867" lon="13.4875317"><ele>348.6666666666667</ele><time>2026-05-03T12:41:40.594Z</time></trkpt><trkpt lat="46.1030983" lon="13.4874217"><ele>348.0</ele><time>2026-05-03T12:41:41.593Z</time></trkpt><trkpt lat="46.1031183" lon="13.48732"><ele>348.0</ele><time>2026-05-03T12:41:42.594Z</time></trkpt><trkpt lat="46.1031567" lon="13.4872067"><ele>348.0</ele><time>2026-05-03T12:41:43.596Z</time></trkpt><trkpt lat="46.103195" lon="13.4870983"><ele>348.0</ele><time>2026-05-03T12:41:44.595Z</time></trkpt><trkpt lat="46.1032317" lon="13.4869733"><ele>348.0</ele><time>2026-05-03T12:41:45.593Z</time></trkpt><trkpt lat="46.1032583" lon="13.4868417"><ele>348.0</ele><time>2026-05-03T12:41:46.595Z</time></trkpt><trkpt lat="46.1032767" lon="13.4867133"><ele>351.59999999999997</ele><time>2026-05-03T12:41:47.593Z</time></trkpt><trkpt lat="46.10328" lon="13.4865767"><ele>355.2</ele><time>2026-05-03T12:41:48.594Z</time></trkpt><trkpt lat="46.103295" lon="13.4864483"><ele>358.8</ele><time>2026-05-03T12:41:49.594Z</time></trkpt><trkpt lat="46.1032967" lon="13.48632"><ele>362.4</ele><time>2026-05-03T12:41:50.596Z</time></trkpt><trkpt lat="46.103295" lon="13.4861833"><ele>366.0</ele><time>2026-05-03T12:41:51.593Z</time></trkpt><trkpt lat="46.1032867" lon="13.48604"><ele>366.0</ele><time>2026-05-03T12:41:52.594Z</time></trkpt><trkpt lat="46.103275" lon="13.4858867"><ele>366.0</ele><time>2026-05-03T12:41:53.594Z</time></trkpt><trkpt lat="46.10326" lon="13.48573"><ele>366.0</ele><time>2026-05-03T12:41:54.594Z</time></trkpt><trkpt lat="46.1032467" lon="13.485575"><ele>366.0</ele><time>2026-05-03T12:41:55.594Z</time></trkpt><trkpt lat="46.1032383" lon="13.4854217"><ele>366.0</ele><time>2026-05-03T12:41:56.594Z</time></trkpt><trkpt lat="46.1032333" lon="13.4852683"><ele>364.6</ele><time>2026-05-03T12:41:57.593Z</time></trkpt><trkpt lat="46.1032283" lon="13.4851167"><ele>363.20000000000005</ele><time>2026-05-03T12:41:58.595Z</time></trkpt><trkpt lat="46.1032333" lon="13.48496"><ele>361.79999999999995</ele><time>2026-05-03T12:41:59.594Z</time></trkpt><trkpt lat="46.1032383" lon="13.4848"><ele>360.4</ele><time>2026-05-03T12:42:00.593Z</time></trkpt><trkpt lat="46.103255" lon="13.484655"><ele>359.0</ele><time>2026-05-03T12:42:01.593Z</time></trkpt><trkpt lat="46.10327" lon="13.4844933"><ele>356.79999999999995</ele><time>2026-05-03T12:42:02.595Z</time></trkpt><trkpt lat="46.103285" lon="13.484325"><ele>354.59999999999997</ele><time>2026-05-03T12:42:03.595Z</time></trkpt><trkpt lat="46.1033183" lon="13.4841767"><ele>352.4</ele><time>2026-05-03T12:42:04.594Z</time></trkpt><trkpt lat="46.1033383" lon="13.4840267"><ele>350.2</ele><time>2026-05-03T12:42:05.594Z</time></trkpt><trkpt lat="46.1033567" lon="13.48389"><ele>348.0</ele><time>2026-05-03T12:42:06.594Z</time></trkpt><trkpt lat="46.10337" lon="13.4837567"><ele>345.4</ele><time>2026-05-03T12:42:07.596Z</time></trkpt><trkpt lat="46.1033967" lon="13.4836383"><ele>342.79999999999995</ele><time>2026-05-03T12:42:08.595Z</time></trkpt><trkpt lat="46.10342" lon="13.4835033"><ele>340.2</ele><time>2026-05-03T12:42:09.595Z</time></trkpt><trkpt lat="46.1034533" lon="13.483375"><ele>337.6</ele><time>2026-05-03T12:42:10.595Z</time></trkpt><trkpt lat="46.1034883" lon="13.483255"><ele>335.0</ele><time>2026-05-03T12:42:11.594Z</time></trkpt><trkpt lat="46.1035367" lon="13.4831583"><ele>335.0</ele><time>2026-05-03T12:42:12.593Z</time></trkpt><trkpt lat="46.1035883" lon="13.4830767"><ele>335.0</ele><time>2026-05-03T12:42:13.594Z</time></trkpt><trkpt lat="46.103635" lon="13.4830067"><ele>335.0</ele><time>2026-05-03T12:42:14.594Z</time></trkpt><trkpt lat="46.1037433" lon="13.4829167"><ele>335.0</ele><time>2026-05-03T12:42:16.593Z</time></trkpt><trkpt lat="46.1038117" lon="13.4828867"><ele>335.0</ele><time>2026-05-03T12:42:17.594Z</time></trkpt><trkpt lat="46.1038783" lon="13.4828733"><ele>335.0</ele><time>2026-05-03T12:42:18.593Z</time></trkpt><trkpt lat="46.1039433" lon="13.4828567"><ele>335.8</ele><time>2026-05-03T12:42:19.594Z</time></trkpt><trkpt lat="46.1040517" lon="13.48278"><ele>336.6</ele><time>2026-05-03T12:42:21.594Z</time></trkpt><trkpt lat="46.1041017" lon="13.48268"><ele>337.4</ele><time>2026-05-03T12:42:22.596Z</time></trkpt><trkpt lat="46.10414" lon="13.482545"><ele>338.2</ele><time>2026-05-03T12:42:23.596Z</time></trkpt><trkpt lat="46.1041733" lon="13.482385"><ele>339.0</ele><time>2026-05-03T12:42:24.594Z</time></trkpt><trkpt lat="46.1042133" lon="13.4822433"><ele>339.0</ele><time>2026-05-03T12:42:25.595Z</time></trkpt><trkpt lat="46.1042533" lon="13.4821117"><ele>339.0</ele><time>2026-05-03T12:42:26.595Z</time></trkpt><trkpt lat="46.1042933" lon="13.481985"><ele>339.0</ele><time>2026-05-03T12:42:27.593Z</time></trkpt><trkpt lat="46.1043433" lon="13.4818783"><ele>339.0</ele><time>2026-05-03T12:42:28.594Z</time></trkpt><trkpt lat="46.1044" lon="13.4817783"><ele>339.0</ele><time>2026-05-03T12:42:29.593Z</time></trkpt><trkpt lat="46.10446" lon="13.48169"><ele>335.6666666666667</ele><time>2026-05-03T12:42:30.595Z</time></trkpt><trkpt lat="46.104535" lon="13.4816267"><ele>332.3333333333333</ele><time>2026-05-03T12:42:31.593Z</time></trkpt><trkpt lat="46.1046167" lon="13.4815817"><ele>329.0</ele><time>2026-05-03T12:42:32.594Z</time></trkpt><trkpt lat="46.1046867" lon="13.4815367"><ele>325.66666666666663</ele><time>2026-05-03T12:42:33.595Z</time></trkpt><trkpt lat="46.1047583" lon="13.4815117"><ele>322.3333333333333</ele><time>2026-05-03T12:42:34.594Z</time></trkpt><trkpt lat="46.1048217" lon="13.4815067"><ele>319.0</ele><time>2026-05-03T12:42:35.595Z</time></trkpt><trkpt lat="46.1048883" lon="13.4815317"><ele>320.0</ele><time>2026-05-03T12:42:36.595Z</time></trkpt><trkpt lat="46.105005" lon="13.481615"><ele>321.0</ele><time>2026-05-03T12:42:38.594Z</time></trkpt><trkpt lat="46.1050617" lon="13.4817183"><ele>322.0</ele><time>2026-05-03T12:42:39.595Z</time></trkpt><trkpt lat="46.1051333" lon="13.48182"><ele>323.0</ele><time>2026-05-03T12:42:40.595Z</time></trkpt><trkpt lat="46.105195" lon="13.4819033"><ele>324.0</ele><time>2026-05-03T12:42:41.593Z</time></trkpt><trkpt lat="46.105255" lon="13.4819817"><ele>324.0</ele><time>2026-05-03T12:42:42.594Z</time></trkpt><trkpt lat="46.1053" lon="13.482055"><ele>324.0</ele><time>2026-05-03T12:42:43.594Z</time></trkpt><trkpt lat="46.1054" lon="13.482125"><ele>324.0</ele><time>2026-05-03T12:42:45.595Z</time></trkpt><trkpt lat="46.1054717" lon="13.482"><ele>324.0</ele><time>2026-05-03T12:42:47.598Z</time></trkpt><trkpt lat="46.1055167" lon="13.4818783"><ele>324.0</ele><time>2026-05-03T12:42:48.595Z</time></trkpt><trkpt lat="46.1055867" lon="13.4817383"><ele>324.0</ele><time>2026-05-03T12:42:49.594Z</time></trkpt><trkpt lat="46.1056683" lon="13.481605"><ele>324.0</ele><time>2026-05-03T12:42:50.595Z</time></trkpt><trkpt lat="46.1057583" lon="13.481465"><ele>324.0</ele><time>2026-05-03T12:42:51.595Z</time></trkpt><trkpt lat="46.1058533" lon="13.48132"><ele>324.0</ele><time>2026-05-03T12:42:52.594Z</time></trkpt><trkpt lat="46.1059467" lon="13.4811633"><ele>317.5</ele><time>2026-05-03T12:42:53.594Z</time></trkpt><trkpt lat="46.1060433" lon="13.4810233"><ele>311.0</ele><time>2026-05-03T12:42:54.594Z</time></trkpt><trkpt lat="46.1061367" lon="13.4808983"><ele>304.5</ele><time>2026-05-03T12:42:55.595Z</time></trkpt><trkpt lat="46.10622" lon="13.48078"><ele>298.0</ele><time>2026-05-03T12:42:56.594Z</time></trkpt><trkpt lat="46.1063017" lon="13.480665"><ele>298.0</ele><time>2026-05-03T12:42:57.594Z</time></trkpt><trkpt lat="46.1063867" lon="13.4805517"><ele>298.0</ele><time>2026-05-03T12:42:58.597Z</time></trkpt><trkpt lat="46.1064717" lon="13.4804567"><ele>298.0</ele><time>2026-05-03T12:42:59.595Z</time></trkpt><trkpt lat="46.1065533" lon="13.4803783"><ele>298.0</ele><time>2026-05-03T12:43:00.594Z</time></trkpt><trkpt lat="46.106635" lon="13.4803033"><ele>298.0</ele><time>2026-05-03T12:43:01.595Z</time></trkpt><trkpt lat="46.106725" lon="13.48024"><ele>296.3333333333333</ele><time>2026-05-03T12:43:02.594Z</time></trkpt><trkpt lat="46.106815" lon="13.4801933"><ele>294.66666666666663</ele><time>2026-05-03T12:43:03.595Z</time></trkpt><trkpt lat="46.1068967" lon="13.4801583"><ele>293.0</ele><time>2026-05-03T12:43:04.596Z</time></trkpt><trkpt lat="46.1069717" lon="13.48013"><ele>291.3333333333333</ele><time>2026-05-03T12:43:05.594Z</time></trkpt><trkpt lat="46.107045" lon="13.4801133"><ele>289.6666666666667</ele><time>2026-05-03T12:43:06.594Z</time></trkpt><trkpt lat="46.1071117" lon="13.480115"><ele>288.0</ele><time>2026-05-03T12:43:07.594Z</time></trkpt><trkpt lat="46.1071833" lon="13.480145"><ele>288.0</ele><time>2026-05-03T12:43:09.595Z</time></trkpt><trkpt lat="46.1072417" lon="13.4800783"><ele>288.0</ele><time>2026-05-03T12:43:12.594Z</time></trkpt><trkpt lat="46.1071945" lon="13.4799877"><ele>288.0</ele><time>2026-05-03T12:43:14.594Z</time></trkpt><trkpt lat="46.1070884" lon="13.4799489"><ele>288.0</ele><time>2026-05-03T12:43:16.594Z</time></trkpt><trkpt lat="46.1070033" lon="13.4799586"><ele>288.0</ele><time>2026-05-03T12:43:17.594Z</time></trkpt><trkpt lat="46.1069005" lon="13.4799887"><ele>288.0</ele><time>2026-05-03T12:43:18.597Z</time></trkpt><trkpt lat="46.1067886" lon="13.4800152"><ele>288.0</ele><time>2026-05-03T12:43:19.594Z</time></trkpt><trkpt lat="46.1066821" lon="13.480041"><ele>288.0</ele><time>2026-05-03T12:43:20.595Z</time></trkpt><trkpt lat="46.1065904" lon="13.4800729"><ele>288.0</ele><time>2026-05-03T12:43:21.594Z</time></trkpt><trkpt lat="46.1065045" lon="13.4801144"><ele>288.0</ele><time>2026-05-03T12:43:22.593Z</time></trkpt><trkpt lat="46.1064172" lon="13.4801707"><ele>290.5</ele><time>2026-05-03T12:43:23.595Z</time></trkpt><trkpt lat="46.1063243" lon="13.4802516"><ele>293.0</ele><time>2026-05-03T12:43:24.594Z</time></trkpt><trkpt lat="46.1062197" lon="13.4803427"><ele>295.5</ele><time>2026-05-03T12:43:25.595Z</time></trkpt><trkpt lat="46.1061144" lon="13.48043"><ele>298.0</ele><time>2026-05-03T12:43:26.595Z</time></trkpt><trkpt lat="46.1060098" lon="13.4805096"><ele>298.0</ele><time>2026-05-03T12:43:27.594Z</time></trkpt><trkpt lat="46.105916" lon="13.4805848"><ele>298.0</ele><time>2026-05-03T12:43:28.596Z</time></trkpt><trkpt lat="46.1058283" lon="13.480664"><ele>298.0</ele><time>2026-05-03T12:43:29.594Z</time></trkpt><trkpt lat="46.105743" lon="13.4807515"><ele>298.0</ele><time>2026-05-03T12:43:30.594Z</time></trkpt><trkpt lat="46.1056616" lon="13.4808375"><ele>298.0</ele><time>2026-05-03T12:43:31.595Z</time></trkpt><trkpt lat="46.1055892" lon="13.4809165"><ele>299.8333333333333</ele><time>2026-05-03T12:43:32.594Z</time></trkpt><trkpt lat="46.1055279" lon="13.4809833"><ele>301.66666666666663</ele><time>2026-05-03T12:43:33.593Z</time></trkpt><trkpt lat="46.1054691" lon="13.4810355"><ele>303.5</ele><time>2026-05-03T12:43:34.595Z</time></trkpt><trkpt lat="46.1053721" lon="13.4810599"><ele>305.3333333333333</ele><time>2026-05-03T12:43:36.594Z</time></trkpt><trkpt lat="46.1053003" lon="13.4809549"><ele>307.1666666666667</ele><time>2026-05-03T12:43:38.598Z</time></trkpt><trkpt lat="46.1052797" lon="13.480865"><ele>309.0</ele><time>2026-05-03T12:43:39.594Z</time></trkpt><trkpt lat="46.1052662" lon="13.4807414"><ele>309.0</ele><time>2026-05-03T12:43:40.594Z</time></trkpt><trkpt lat="46.1052658" lon="13.480588"><ele>309.0</ele><time>2026-05-03T12:43:41.596Z</time></trkpt><trkpt lat="46.1052778" lon="13.4804122"><ele>309.0</ele><time>2026-05-03T12:43:42.594Z</time></trkpt><trkpt lat="46.1052905" lon="13.4802415"><ele>309.0</ele><time>2026-05-03T12:43:43.595Z</time></trkpt><trkpt lat="46.1053061" lon="13.4800945"><ele>305.4</ele><time>2026-05-03T12:43:44.594Z</time></trkpt><trkpt lat="46.1053202" lon="13.4799689"><ele>301.79999999999995</ele><time>2026-05-03T12:43:45.594Z</time></trkpt><trkpt lat="46.1053261" lon="13.4798631"><ele>298.20000000000005</ele><time>2026-05-03T12:43:46.595Z</time></trkpt><trkpt lat="46.105322" lon="13.4797705"><ele>294.6</ele><time>2026-05-03T12:43:47.594Z</time></trkpt><trkpt lat="46.1052743" lon="13.479611"><ele>291.0</ele><time>2026-05-03T12:43:49.595Z</time></trkpt><trkpt lat="46.1051692" lon="13.4794888"><ele>287.8333333333333</ele><time>2026-05-03T12:43:51.595Z</time></trkpt><trkpt lat="46.1050897" lon="13.4794383"><ele>284.6666666666667</ele><time>2026-05-03T12:43:52.594Z</time></trkpt><trkpt lat="46.1050093" lon="13.4794009"><ele>281.5</ele><time>2026-05-03T12:43:53.595Z</time></trkpt><trkpt lat="46.1049351" lon="13.4793732"><ele>278.33333333333337</ele><time>2026-05-03T12:43:54.594Z</time></trkpt><trkpt lat="46.1048635" lon="13.4793492"><ele>275.1666666666667</ele><time>2026-05-03T12:43:55.595Z</time></trkpt><trkpt lat="46.1047952" lon="13.4793232"><ele>272.0</ele><time>2026-05-03T12:43:56.594Z</time></trkpt><trkpt lat="46.1047348" lon="13.4792906"><ele>272.0</ele><time>2026-05-03T12:43:57.594Z</time></trkpt><trkpt lat="46.1046315" lon="13.4791993"><ele>272.0</ele><time>2026-05-03T12:43:59.594Z</time></trkpt><trkpt lat="46.1045683" lon="13.4790438"><ele>272.0</ele><time>2026-05-03T12:44:01.595Z</time></trkpt><trkpt lat="46.1045488" lon="13.478925"><ele>272.0</ele><time>2026-05-03T12:44:02.597Z</time></trkpt><trkpt lat="46.104529" lon="13.4787634"><ele>272.0</ele><time>2026-05-03T12:44:03.596Z</time></trkpt><trkpt lat="46.1044893" lon="13.4785584"><ele>269.25</ele><time>2026-05-03T12:44:04.595Z</time></trkpt><trkpt lat="46.1044497" lon="13.4783465"><ele>266.5</ele><time>2026-05-03T12:44:05.594Z</time></trkpt><trkpt lat="46.1044176" lon="13.4781526"><ele>263.75</ele><time>2026-05-03T12:44:06.599Z</time></trkpt><trkpt lat="46.1043858" lon="13.4779749"><ele>261.0</ele><time>2026-05-03T12:44:07.596Z</time></trkpt><trkpt lat="46.1043583" lon="13.4778289"><ele>258.5</ele><time>2026-05-03T12:44:08.595Z</time></trkpt><trkpt lat="46.1043295" lon="13.4777188"><ele>256.0</ele><time>2026-05-03T12:44:09.594Z</time></trkpt><trkpt lat="46.1042925" lon="13.4776272"><ele>253.5</ele><time>2026-05-03T12:44:10.598Z</time></trkpt><trkpt lat="46.1042258" lon="13.477599"><ele>251.0</ele><time>2026-05-03T12:44:11.595Z</time></trkpt><trkpt lat="46.1041398" lon="13.4776004"><ele>248.5</ele><time>2026-05-03T12:44:12.594Z</time></trkpt><trkpt lat="46.1040408" lon="13.477629"><ele>246.0</ele><time>2026-05-03T12:44:13.595Z</time></trkpt><trkpt lat="46.1039398" lon="13.477675"><ele>243.4</ele><time>2026-05-03T12:44:14.597Z</time></trkpt><trkpt lat="46.1038503" lon="13.4777344"><ele>240.8</ele><time>2026-05-03T12:44:15.604Z</time></trkpt><trkpt lat="46.1037728" lon="13.4778127"><ele>238.20000000000002</ele><time>2026-05-03T12:44:16.595Z</time></trkpt><trkpt lat="46.1037026" lon="13.477927"><ele>235.60000000000002</ele><time>2026-05-03T12:44:17.596Z</time></trkpt><trkpt lat="46.103632" lon="13.478068"><ele>233.0</ele><time>2026-05-03T12:44:18.595Z</time></trkpt><trkpt lat="46.1035661" lon="13.4782201"><ele>233.0</ele><time>2026-05-03T12:44:19.598Z</time></trkpt><trkpt lat="46.1034996" lon="13.4783798"><ele>233.0</ele><time>2026-05-03T12:44:20.594Z</time></trkpt><trkpt lat="46.1034252" lon="13.4785404"><ele>233.0</ele><time>2026-05-03T12:44:21.594Z</time></trkpt><trkpt lat="46.1033491" lon="13.4787224"><ele>233.0</ele><time>2026-05-03T12:44:22.594Z</time></trkpt><trkpt lat="46.1032809" lon="13.4789148"><ele>226.0</ele><time>2026-05-03T12:44:23.595Z</time></trkpt><trkpt lat="46.1032211" lon="13.4791047"><ele>219.0</ele><time>2026-05-03T12:44:24.595Z</time></trkpt><trkpt lat="46.1031668" lon="13.4792807"><ele>212.0</ele><time>2026-05-03T12:44:25.595Z</time></trkpt><trkpt lat="46.1031117" lon="13.479435"><ele>205.0</ele><time>2026-05-03T12:44:26.594Z</time></trkpt><trkpt lat="46.103045" lon="13.4795867"><ele>210.0</ele><time>2026-05-03T12:44:27.595Z</time></trkpt><trkpt lat="46.10297" lon="13.4797317"><ele>215.0</ele><time>2026-05-03T12:44:28.594Z</time></trkpt><trkpt lat="46.10288" lon="13.4798517"><ele>220.0</ele><time>2026-05-03T12:44:29.596Z</time></trkpt><trkpt lat="46.1027883" lon="13.4799583"><ele>225.0</ele><time>2026-05-03T12:44:30.594Z</time></trkpt><trkpt lat="46.1026867" lon="13.4800533"><ele>225.0</ele><time>2026-05-03T12:44:31.595Z</time></trkpt><trkpt lat="46.1025783" lon="13.480135"><ele>225.0</ele><time>2026-05-03T12:44:32.595Z</time></trkpt><trkpt lat="46.10247" lon="13.4802167"><ele>225.0</ele><time>2026-05-03T12:44:33.594Z</time></trkpt><trkpt lat="46.1023533" lon="13.4802967"><ele>225.0</ele><time>2026-05-03T12:44:34.595Z</time></trkpt><trkpt lat="46.1022467" lon="13.4803933"><ele>220.75</ele><time>2026-05-03T12:44:35.594Z</time></trkpt><trkpt lat="46.1021533" lon="13.48049"><ele>216.5</ele><time>2026-05-03T12:44:36.596Z</time></trkpt><trkpt lat="46.1020633" lon="13.4805933"><ele>212.25</ele><time>2026-05-03T12:44:37.594Z</time></trkpt><trkpt lat="46.1019833" lon="13.480725"><ele>208.0</ele><time>2026-05-03T12:44:38.596Z</time></trkpt><trkpt lat="46.10191" lon="13.48088"><ele>208.0</ele><time>2026-05-03T12:44:39.595Z</time></trkpt><trkpt lat="46.1018383" lon="13.4810333"><ele>208.0</ele><time>2026-05-03T12:44:40.595Z</time></trkpt><trkpt lat="46.1017917" lon="13.4811817"><ele>208.0</ele><time>2026-05-03T12:44:41.597Z</time></trkpt><trkpt lat="46.1017433" lon="13.4813217"><ele>208.0</ele><time>2026-05-03T12:44:42.594Z</time></trkpt><trkpt lat="46.101705" lon="13.4814433"><ele>208.0</ele><time>2026-05-03T12:44:43.595Z</time></trkpt><trkpt lat="46.1016617" lon="13.4815383"><ele>207.83333333333331</ele><time>2026-05-03T12:44:44.594Z</time></trkpt><trkpt lat="46.101565" lon="13.4815983"><ele>207.66666666666666</ele><time>2026-05-03T12:44:46.596Z</time></trkpt><trkpt lat="46.1014967" lon="13.4815883"><ele>207.5</ele><time>2026-05-03T12:44:47.594Z</time></trkpt><trkpt lat="46.1014183" lon="13.4815817"><ele>207.33333333333331</ele><time>2026-05-03T12:44:48.595Z</time></trkpt><trkpt lat="46.101335" lon="13.4815767"><ele>207.16666666666666</ele><time>2026-05-03T12:44:49.595Z</time></trkpt><trkpt lat="46.101265" lon="13.48163"><ele>207.0</ele><time>2026-05-03T12:44:50.595Z</time></trkpt><trkpt lat="46.101195" lon="13.4817067"><ele>207.0</ele><time>2026-05-03T12:44:51.595Z</time></trkpt><trkpt lat="46.1011167" lon="13.4817583"><ele>207.0</ele><time>2026-05-03T12:44:52.595Z</time></trkpt><trkpt lat="46.1010367" lon="13.4818"><ele>207.0</ele><time>2026-05-03T12:44:53.594Z</time></trkpt><trkpt lat="46.100955" lon="13.48183"><ele>207.0</ele><time>2026-05-03T12:44:54.594Z</time></trkpt><trkpt lat="46.1008733" lon="13.4818317"><ele>207.0</ele><time>2026-05-03T12:44:55.595Z</time></trkpt><trkpt lat="46.1007883" lon="13.4818083"><ele>207.0</ele><time>2026-05-03T12:44:56.598Z</time></trkpt><trkpt lat="46.100695" lon="13.4817"><ele>205.8</ele><time>2026-05-03T12:44:57.594Z</time></trkpt><trkpt lat="46.1006117" lon="13.481635"><ele>204.6</ele><time>2026-05-03T12:44:58.593Z</time></trkpt><trkpt lat="46.1005267" lon="13.481555"><ele>203.4</ele><time>2026-05-03T12:44:59.593Z</time></trkpt><trkpt lat="46.1004467" lon="13.4814583"><ele>202.20000000000002</ele><time>2026-05-03T12:45:00.593Z</time></trkpt><trkpt lat="46.1003733" lon="13.4813433"><ele>201.0</ele><time>2026-05-03T12:45:01.594Z</time></trkpt><trkpt lat="46.1002967" lon="13.48122"><ele>197.66666666666666</ele><time>2026-05-03T12:45:02.595Z</time></trkpt><trkpt lat="46.1002267" lon="13.4811217"><ele>194.33333333333334</ele><time>2026-05-03T12:45:03.595Z</time></trkpt><trkpt lat="46.100165" lon="13.4810633"><ele>191.0</ele><time>2026-05-03T12:45:04.593Z</time></trkpt><trkpt lat="46.1000983" lon="13.4810167"><ele>187.66666666666669</ele><time>2026-05-03T12:45:05.597Z</time></trkpt><trkpt lat="46.1000317" lon="13.481035"><ele>184.33333333333334</ele><time>2026-05-03T12:45:06.594Z</time></trkpt><trkpt lat="46.099955" lon="13.48109"><ele>181.0</ele><time>2026-05-03T12:45:07.595Z</time></trkpt><trkpt lat="46.099885" lon="13.4811633"><ele>180.0</ele><time>2026-05-03T12:45:08.594Z</time></trkpt><trkpt lat="46.0998167" lon="13.4812583"><ele>179.0</ele><time>2026-05-03T12:45:09.595Z</time></trkpt><trkpt lat="46.099765" lon="13.4813467"><ele>178.0</ele><time>2026-05-03T12:45:10.595Z</time></trkpt><trkpt lat="46.0997083" lon="13.4814217"><ele>177.0</ele><time>2026-05-03T12:45:11.594Z</time></trkpt><trkpt lat="46.0996433" lon="13.4814417"><ele>176.0</ele><time>2026-05-03T12:45:12.596Z</time></trkpt><trkpt lat="46.0995483" lon="13.481445"><ele>175.0</ele><time>2026-05-03T12:45:14.594Z</time></trkpt><trkpt lat="46.0996017" lon="13.4812617"><ele>174.0</ele><time>2026-05-03T12:45:16.593Z</time></trkpt><trkpt lat="46.0996733" lon="13.4811617"><ele>173.0</ele><time>2026-05-03T12:45:17.594Z</time></trkpt><trkpt lat="46.099765" lon="13.4810517"><ele>172.0</ele><time>2026-05-03T12:45:18.594Z</time></trkpt><trkpt lat="46.0998183" lon="13.4809133"><ele>171.0</ele><time>2026-05-03T12:45:19.596Z</time></trkpt><trkpt lat="46.0998633" lon="13.4807733"><ele>170.0</ele><time>2026-05-03T12:45:20.594Z</time></trkpt><trkpt lat="46.0999067" lon="13.4806333"><ele>171.83333333333331</ele><time>2026-05-03T12:45:21.594Z</time></trkpt><trkpt lat="46.09996" lon="13.4805267"><ele>173.66666666666666</ele><time>2026-05-03T12:45:22.595Z</time></trkpt><trkpt lat="46.1000283" lon="13.48047"><ele>175.5</ele><time>2026-05-03T12:45:23.593Z</time></trkpt><trkpt lat="46.1000917" lon="13.48045"><ele>177.33333333333334</ele><time>2026-05-03T12:45:24.595Z</time></trkpt><trkpt lat="46.1001583" lon="13.4804667"><ele>179.16666666666669</ele><time>2026-05-03T12:45:25.594Z</time></trkpt><trkpt lat="46.1002267" lon="13.480555"><ele>181.0</ele><time>2026-05-03T12:45:26.595Z</time></trkpt><trkpt lat="46.1002967" lon="13.4806783"><ele>181.0</ele><time>2026-05-03T12:45:27.593Z</time></trkpt><trkpt lat="46.1003717" lon="13.48076"><ele>181.0</ele><time>2026-05-03T12:45:28.593Z</time></trkpt><trkpt lat="46.100455" lon="13.4808517"><ele>181.0</ele><time>2026-05-03T12:45:29.594Z</time></trkpt><trkpt lat="46.1005333" lon="13.4809333"><ele>181.0</ele><time>2026-05-03T12:45:30.594Z</time></trkpt><trkpt lat="46.100605" lon="13.4809767"><ele>181.0</ele><time>2026-05-03T12:45:31.593Z</time></trkpt><trkpt lat="46.1007" lon="13.48096"><ele>181.25</ele><time>2026-05-03T12:45:33.593Z</time></trkpt><trkpt lat="46.1007717" lon="13.4808183"><ele>181.5</ele><time>2026-05-03T12:45:35.594Z</time></trkpt><trkpt lat="46.100785" lon="13.4806517"><ele>181.75</ele><time>2026-05-03T12:45:36.594Z</time></trkpt><trkpt lat="46.10084" lon="13.48046"><ele>182.0</ele><time>2026-05-03T12:45:37.593Z</time></trkpt><trkpt lat="46.1008833" lon="13.4802733"><ele>177.75</ele><time>2026-05-03T12:45:38.596Z</time></trkpt><trkpt lat="46.1009233" lon="13.4800717"><ele>173.5</ele><time>2026-05-03T12:45:39.593Z</time></trkpt><trkpt lat="46.1009517" lon="13.4798683"><ele>169.25</ele><time>2026-05-03T12:45:40.595Z</time></trkpt><trkpt lat="46.1009967" lon="13.4796883"><ele>165.0</ele><time>2026-05-03T12:45:41.593Z</time></trkpt><trkpt lat="46.101035" lon="13.4795317"><ele>164.0</ele><time>2026-05-03T12:45:42.594Z</time></trkpt><trkpt lat="46.1010667" lon="13.479405"><ele>163.0</ele><time>2026-05-03T12:45:43.595Z</time></trkpt><trkpt lat="46.1011117" lon="13.4793017"><ele>162.0</ele><time>2026-05-03T12:45:44.594Z</time></trkpt><trkpt lat="46.1011683" lon="13.4792133"><ele>161.0</ele><time>2026-05-03T12:45:45.593Z</time></trkpt><trkpt lat="46.10125" lon="13.4791533"><ele>160.0</ele><time>2026-05-03T12:45:46.595Z</time></trkpt><trkpt lat="46.101355" lon="13.4791033"><ele>160.0</ele><time>2026-05-03T12:45:47.595Z</time></trkpt><trkpt lat="46.1014583" lon="13.4790233"><ele>160.0</ele><time>2026-05-03T12:45:48.596Z</time></trkpt><trkpt lat="46.10155" lon="13.47893"><ele>160.0</ele><time>2026-05-03T12:45:49.595Z</time></trkpt><trkpt lat="46.10162" lon="13.4787917"><ele>160.0</ele><time>2026-05-03T12:45:50.595Z</time></trkpt><trkpt lat="46.101685" lon="13.478655"><ele>159.75</ele><time>2026-05-03T12:45:51.594Z</time></trkpt><trkpt lat="46.1017317" lon="13.4785017"><ele>159.5</ele><time>2026-05-03T12:45:52.594Z</time></trkpt><trkpt lat="46.1017617" lon="13.4783233"><ele>159.25</ele><time>2026-05-03T12:45:53.595Z</time></trkpt><trkpt lat="46.1017867" lon="13.4781283"><ele>159.0</ele><time>2026-05-03T12:45:54.595Z</time></trkpt><trkpt lat="46.1018033" lon="13.4779317"><ele>159.0</ele><time>2026-05-03T12:45:55.595Z</time></trkpt><trkpt lat="46.101815" lon="13.4777367"><ele>159.0</ele><time>2026-05-03T12:45:56.596Z</time></trkpt><trkpt lat="46.1018067" lon="13.4775367"><ele>159.0</ele><time>2026-05-03T12:45:57.595Z</time></trkpt><trkpt lat="46.10182" lon="13.4773467"><ele>159.0</ele><time>2026-05-03T12:45:58.594Z</time></trkpt><trkpt lat="46.101835" lon="13.4771617"><ele>158.75</ele><time>2026-05-03T12:45:59.595Z</time></trkpt><trkpt lat="46.10184" lon="13.47698"><ele>158.5</ele><time>2026-05-03T12:46:00.594Z</time></trkpt><trkpt lat="46.1018433" lon="13.4768067"><ele>158.25</ele><time>2026-05-03T12:46:01.595Z</time></trkpt><trkpt lat="46.1018317" lon="13.476645"><ele>158.0</ele><time>2026-05-03T12:46:02.595Z</time></trkpt><trkpt lat="46.101825" lon="13.4764983"><ele>158.0</ele><time>2026-05-03T12:46:03.594Z</time></trkpt><trkpt lat="46.10182" lon="13.4763567"><ele>158.0</ele><time>2026-05-03T12:46:04.597Z</time></trkpt><trkpt lat="46.1018383" lon="13.4762267"><ele>158.0</ele><time>2026-05-03T12:46:05.595Z</time></trkpt><trkpt lat="46.101855" lon="13.476105"><ele>158.0</ele><time>2026-05-03T12:46:06.594Z</time></trkpt><trkpt lat="46.101865" lon="13.4759933"><ele>158.0</ele><time>2026-05-03T12:46:07.595Z</time></trkpt><trkpt lat="46.1018767" lon="13.475835"><ele>158.0</ele><time>2026-05-03T12:46:09.594Z</time></trkpt><trkpt lat="46.10184" lon="13.4756817"><ele>158.0</ele><time>2026-05-03T12:46:11.595Z</time></trkpt><trkpt lat="46.1018233" lon="13.4755883"><ele>158.0</ele><time>2026-05-03T12:46:12.593Z</time></trkpt><trkpt lat="46.101815" lon="13.4754317"><ele>158.0</ele><time>2026-05-03T12:46:14.595Z</time></trkpt><trkpt lat="46.1018683" lon="13.47529"><ele>158.0</ele><time>2026-05-03T12:46:16.594Z</time></trkpt><trkpt lat="46.101945" lon="13.4751367"><ele>158.0</ele><time>2026-05-03T12:46:18.595Z</time></trkpt><trkpt lat="46.1019983" lon="13.4750583"><ele>158.0</ele><time>2026-05-03T12:46:19.594Z</time></trkpt><trkpt lat="46.1020617" lon="13.4749917"><ele>158.0</ele><time>2026-05-03T12:46:20.594Z</time></trkpt><trkpt lat="46.1021267" lon="13.4749283"><ele>158.0</ele><time>2026-05-03T12:46:21.593Z</time></trkpt><trkpt lat="46.1021933" lon="13.4748683"><ele>158.0</ele><time>2026-05-03T12:46:22.596Z</time></trkpt><trkpt lat="46.1022583" lon="13.4748017"><ele>158.0</ele><time>2026-05-03T12:46:23.596Z</time></trkpt><trkpt lat="46.10232" lon="13.4747267"><ele>158.0</ele><time>2026-05-03T12:46:24.595Z</time></trkpt><trkpt lat="46.1023867" lon="13.4746533"><ele>158.0</ele><time>2026-05-03T12:46:25.595Z</time></trkpt><trkpt lat="46.10245" lon="13.474555"><ele>158.0</ele><time>2026-05-03T12:46:26.595Z</time></trkpt><trkpt lat="46.1024883" lon="13.474415"><ele>158.0</ele><time>2026-05-03T12:46:27.595Z</time></trkpt><trkpt lat="46.1025317" lon="13.474305"><ele>158.0</ele><time>2026-05-03T12:46:28.594Z</time></trkpt><trkpt lat="46.1025667" lon="13.4742033"><ele>158.0</ele><time>2026-05-03T12:46:29.594Z</time></trkpt><trkpt lat="46.1025867" lon="13.4740967"><ele>157.66666666666666</ele><time>2026-05-03T12:46:30.594Z</time></trkpt><trkpt lat="46.102605" lon="13.474"><ele>157.33333333333331</ele><time>2026-05-03T12:46:31.594Z</time></trkpt><trkpt lat="46.1026483" lon="13.473905"><ele>157.0</ele><time>2026-05-03T12:46:32.597Z</time></trkpt><trkpt lat="46.1027117" lon="13.4738233"><ele>156.66666666666666</ele><time>2026-05-03T12:46:33.594Z</time></trkpt><trkpt lat="46.1027833" lon="13.47374"><ele>156.33333333333334</ele><time>2026-05-03T12:46:34.594Z</time></trkpt><trkpt lat="46.102855" lon="13.47365"><ele>156.0</ele><time>2026-05-03T12:46:35.595Z</time></trkpt><trkpt lat="46.1029217" lon="13.4735567"><ele>155.5</ele><time>2026-05-03T12:46:36.594Z</time></trkpt><trkpt lat="46.1029717" lon="13.4734567"><ele>155.0</ele><time>2026-05-03T12:46:37.595Z</time></trkpt><trkpt lat="46.1030117" lon="13.473355"><ele>154.5</ele><time>2026-05-03T12:46:38.596Z</time></trkpt><trkpt lat="46.103055" lon="13.47326"><ele>154.0</ele><time>2026-05-03T12:46:39.594Z</time></trkpt><trkpt lat="46.1031033" lon="13.4731633"><ele>153.5</ele><time>2026-05-03T12:46:40.595Z</time></trkpt><trkpt lat="46.1031483" lon="13.4730567"><ele>153.0</ele><time>2026-05-03T12:46:41.595Z</time></trkpt><trkpt lat="46.1031967" lon="13.472945"><ele>152.5</ele><time>2026-05-03T12:46:42.596Z</time></trkpt><trkpt lat="46.1032367" lon="13.4728067"><ele>152.0</ele><time>2026-05-03T12:46:43.596Z</time></trkpt><trkpt lat="46.1032733" lon="13.472635"><ele>151.5</ele><time>2026-05-03T12:46:44.596Z</time></trkpt><trkpt lat="46.1033233" lon="13.472435"><ele>151.0</ele><time>2026-05-03T12:46:45.594Z</time></trkpt><trkpt lat="46.1033733" lon="13.4722017"><ele>150.25</ele><time>2026-05-03T12:46:46.594Z</time></trkpt><trkpt lat="46.103425" lon="13.471985"><ele>149.5</ele><time>2026-05-03T12:46:47.594Z</time></trkpt><trkpt lat="46.1034733" lon="13.4717883"><ele>148.75</ele><time>2026-05-03T12:46:48.596Z</time></trkpt><trkpt lat="46.1035183" lon="13.4716133"><ele>148.0</ele><time>2026-05-03T12:46:49.595Z</time></trkpt><trkpt lat="46.1035633" lon="13.47146"><ele>148.0</ele><time>2026-05-03T12:46:50.595Z</time></trkpt><trkpt lat="46.103605" lon="13.4713183"><ele>148.0</ele><time>2026-05-03T12:46:51.596Z</time></trkpt><trkpt lat="46.10363" lon="13.4711767"><ele>148.0</ele><time>2026-05-03T12:46:52.594Z</time></trkpt><trkpt lat="46.1036767" lon="13.4710667"><ele>148.0</ele><time>2026-05-03T12:46:53.595Z</time></trkpt><trkpt lat="46.1037367" lon="13.4709783"><ele>148.0</ele><time>2026-05-03T12:46:54.595Z</time></trkpt><trkpt lat="46.10381" lon="13.470925"><ele>147.8</ele><time>2026-05-03T12:46:55.595Z</time></trkpt><trkpt lat="46.1038883" lon="13.4708983"><ele>147.60000000000002</ele><time>2026-05-03T12:46:56.594Z</time></trkpt><trkpt lat="46.103975" lon="13.4709033"><ele>147.39999999999998</ele><time>2026-05-03T12:46:57.594Z</time></trkpt><trkpt lat="46.1040883" lon="13.4709933"><ele>147.2</ele><time>2026-05-03T12:46:58.597Z</time></trkpt><trkpt lat="46.1042117" lon="13.4711033"><ele>147.0</ele><time>2026-05-03T12:46:59.595Z</time></trkpt><trkpt lat="46.1043517" lon="13.4711967"><ele>147.0</ele><time>2026-05-03T12:47:00.595Z</time></trkpt><trkpt lat="46.1044983" lon="13.4712767"><ele>147.0</ele><time>2026-05-03T12:47:01.595Z</time></trkpt><trkpt lat="46.1046383" lon="13.4713683"><ele>147.0</ele><time>2026-05-03T12:47:02.596Z</time></trkpt><trkpt lat="46.1047717" lon="13.4714567"><ele>147.0</ele><time>2026-05-03T12:47:03.595Z</time></trkpt><trkpt lat="46.104895" lon="13.47158"><ele>147.0</ele><time>2026-05-03T12:47:04.595Z</time></trkpt><trkpt lat="46.105005" lon="13.471735"><ele>147.0</ele><time>2026-05-03T12:47:05.594Z</time></trkpt><trkpt lat="46.10511" lon="13.471925"><ele>146.66666666666666</ele><time>2026-05-03T12:47:06.595Z</time></trkpt><trkpt lat="46.1052233" lon="13.4721267"><ele>146.33333333333331</ele><time>2026-05-03T12:47:07.595Z</time></trkpt><trkpt lat="46.10533" lon="13.4723533"><ele>146.0</ele><time>2026-05-03T12:47:08.595Z</time></trkpt><trkpt lat="46.105445" lon="13.4725617"><ele>146.0</ele><time>2026-05-03T12:47:09.595Z</time></trkpt><trkpt lat="46.105545" lon="13.4727767"><ele>146.0</ele><time>2026-05-03T12:47:10.594Z</time></trkpt><trkpt lat="46.1056433" lon="13.4729867"><ele>146.0</ele><time>2026-05-03T12:47:11.595Z</time></trkpt><trkpt lat="46.1057417" lon="13.4731867"><ele>144.0</ele><time>2026-05-03T12:47:12.595Z</time></trkpt><trkpt lat="46.1058417" lon="13.47337"><ele>142.0</ele><time>2026-05-03T12:47:13.594Z</time></trkpt><trkpt lat="46.105945" lon="13.47355"><ele>140.0</ele><time>2026-05-03T12:47:14.594Z</time></trkpt><trkpt lat="46.1060467" lon="13.4737233"><ele>143.33333333333331</ele><time>2026-05-03T12:47:15.596Z</time></trkpt><trkpt lat="46.1061733" lon="13.473865"><ele>146.66666666666666</ele><time>2026-05-03T12:47:16.594Z</time></trkpt><trkpt lat="46.1063067" lon="13.4739867"><ele>150.0</ele><time>2026-05-03T12:47:17.595Z</time></trkpt><trkpt lat="46.1064517" lon="13.4740883"><ele>146.0</ele><time>2026-05-03T12:47:18.595Z</time></trkpt><trkpt lat="46.1066083" lon="13.474155"><ele>142.0</ele><time>2026-05-03T12:47:19.595Z</time></trkpt><trkpt lat="46.10678" lon="13.474185"><ele>138.0</ele><time>2026-05-03T12:47:20.596Z</time></trkpt><trkpt lat="46.106955" lon="13.47421"><ele>138.0</ele><time>2026-05-03T12:47:21.595Z</time></trkpt><trkpt lat="46.107135" lon="13.4742417"><ele>138.0</ele><time>2026-05-03T12:47:22.594Z</time></trkpt><trkpt lat="46.1073133" lon="13.4742833"><ele>138.0</ele><time>2026-05-03T12:47:23.593Z</time></trkpt><trkpt lat="46.107485" lon="13.4743117"><ele>136.33333333333334</ele><time>2026-05-03T12:47:24.593Z</time></trkpt><trkpt lat="46.1076517" lon="13.4743367"><ele>134.66666666666669</ele><time>2026-05-03T12:47:25.595Z</time></trkpt><trkpt lat="46.1078117" lon="13.47436"><ele>133.0</ele><time>2026-05-03T12:47:26.597Z</time></trkpt><trkpt lat="46.10796" lon="13.474385"><ele>133.0</ele><time>2026-05-03T12:47:27.597Z</time></trkpt><trkpt lat="46.1080983" lon="13.4743917"><ele>133.0</ele><time>2026-05-03T12:47:28.593Z</time></trkpt><trkpt lat="46.108235" lon="13.4744117"><ele>133.0</ele><time>2026-05-03T12:47:29.595Z</time></trkpt><trkpt lat="46.1083633" lon="13.4744283"><ele>133.0</ele><time>2026-05-03T12:47:30.595Z</time></trkpt><trkpt lat="46.1084867" lon="13.47444"><ele>132.75</ele><time>2026-05-03T12:47:31.595Z</time></trkpt><trkpt lat="46.1086083" lon="13.47445"><ele>132.5</ele><time>2026-05-03T12:47:32.594Z</time></trkpt><trkpt lat="46.1087333" lon="13.4744517"><ele>132.25</ele><time>2026-05-03T12:47:33.593Z</time></trkpt><trkpt lat="46.1088533" lon="13.4744833"><ele>132.0</ele><time>2026-05-03T12:47:34.594Z</time></trkpt><trkpt lat="46.10897" lon="13.4745283"><ele>132.25</ele><time>2026-05-03T12:47:35.596Z</time></trkpt><trkpt lat="46.109085" lon="13.4745917"><ele>132.5</ele><time>2026-05-03T12:47:36.594Z</time></trkpt><trkpt lat="46.1091967" lon="13.4746733"><ele>132.75</ele><time>2026-05-03T12:47:37.595Z</time></trkpt><trkpt lat="46.1093067" lon="13.474775"><ele>133.0</ele><time>2026-05-03T12:47:38.598Z</time></trkpt><trkpt lat="46.1094167" lon="13.47489"><ele>132.5</ele><time>2026-05-03T12:47:39.595Z</time></trkpt><trkpt lat="46.109525" lon="13.4750033"><ele>132.0</ele><time>2026-05-03T12:47:40.594Z</time></trkpt><trkpt lat="46.10963" lon="13.47511"><ele>131.5</ele><time>2026-05-03T12:47:41.594Z</time></trkpt><trkpt lat="46.1097333" lon="13.4752133"><ele>131.0</ele><time>2026-05-03T12:47:42.594Z</time></trkpt><trkpt lat="46.1098333" lon="13.475315"><ele>131.75</ele><time>2026-05-03T12:47:43.594Z</time></trkpt><trkpt lat="46.10993" lon="13.4754133"><ele>132.5</ele><time>2026-05-03T12:47:44.594Z</time></trkpt><trkpt lat="46.1100267" lon="13.4755133"><ele>133.25</ele><time>2026-05-03T12:47:45.593Z</time></trkpt><trkpt lat="46.11012" lon="13.47561"><ele>134.0</ele><time>2026-05-03T12:47:46.595Z</time></trkpt><trkpt lat="46.1102017" lon="13.475705"><ele>134.2</ele><time>2026-05-03T12:47:47.594Z</time></trkpt><trkpt lat="46.1102767" lon="13.4758067"><ele>134.4</ele><time>2026-05-03T12:47:48.594Z</time></trkpt><trkpt lat="46.1103433" lon="13.47592"><ele>134.6</ele><time>2026-05-03T12:47:49.595Z</time></trkpt><trkpt lat="46.1103917" lon="13.4760617"><ele>134.8</ele><time>2026-05-03T12:47:50.594Z</time></trkpt><trkpt lat="46.1104267" lon="13.4762183"><ele>135.0</ele><time>2026-05-03T12:47:51.594Z</time></trkpt><trkpt lat="46.1104717" lon="13.4763633"><ele>135.0</ele><time>2026-05-03T12:47:52.596Z</time></trkpt><trkpt lat="46.1105167" lon="13.47649"><ele>135.0</ele><time>2026-05-03T12:47:53.594Z</time></trkpt><trkpt lat="46.1105567" lon="13.4766017"><ele>135.0</ele><time>2026-05-03T12:47:54.593Z</time></trkpt><trkpt lat="46.1105983" lon="13.476705"><ele>135.0</ele><time>2026-05-03T12:47:55.594Z</time></trkpt><trkpt lat="46.110645" lon="13.4768067"><ele>135.0</ele><time>2026-05-03T12:47:56.597Z</time></trkpt><trkpt lat="46.11077" lon="13.4768583"><ele>135.8</ele><time>2026-05-03T12:47:57.594Z</time></trkpt><trkpt lat="46.1108733" lon="13.4769133"><ele>136.6</ele><time>2026-05-03T12:47:58.594Z</time></trkpt><trkpt lat="46.110975" lon="13.4769633"><ele>137.4</ele><time>2026-05-03T12:47:59.595Z</time></trkpt><trkpt lat="46.11106" lon="13.4770317"><ele>138.2</ele><time>2026-05-03T12:48:00.595Z</time></trkpt><trkpt lat="46.1111617" lon="13.477085"><ele>139.0</ele><time>2026-05-03T12:48:01.594Z</time></trkpt><trkpt lat="46.11125" lon="13.4771483"><ele>139.0</ele><time>2026-05-03T12:48:02.595Z</time></trkpt><trkpt lat="46.11135" lon="13.4771833"><ele>139.0</ele><time>2026-05-03T12:48:03.594Z</time></trkpt><trkpt lat="46.1114167" lon="13.4772617"><ele>139.0</ele><time>2026-05-03T12:48:04.596Z</time></trkpt><trkpt lat="46.1115017" lon="13.4773033"><ele>139.0</ele><time>2026-05-03T12:48:05.595Z</time></trkpt><trkpt lat="46.1115767" lon="13.47734"><ele>139.0</ele><time>2026-05-03T12:48:06.595Z</time></trkpt><trkpt lat="46.1116817" lon="13.47739"><ele>140.4</ele><time>2026-05-03T12:48:08.596Z</time></trkpt><trkpt lat="46.111755" lon="13.47742"><ele>141.8</ele><time>2026-05-03T12:48:10.594Z</time></trkpt><trkpt lat="46.1118" lon="13.4774933"><ele>143.2</ele><time>2026-05-03T12:48:12.594Z</time></trkpt><trkpt lat="46.1117783" lon="13.47767"><ele>144.6</ele><time>2026-05-03T12:48:14.596Z</time></trkpt><trkpt lat="46.11175" lon="13.4778083"><ele>146.0</ele><time>2026-05-03T12:48:15.593Z</time></trkpt><trkpt lat="46.11172" lon="13.4779717"><ele>146.0</ele><time>2026-05-03T12:48:16.594Z</time></trkpt><trkpt lat="46.11169" lon="13.47814"><ele>146.0</ele><time>2026-05-03T12:48:17.595Z</time></trkpt><trkpt lat="46.1116567" lon="13.478335"><ele>146.0</ele><time>2026-05-03T12:48:18.594Z</time></trkpt><trkpt lat="46.1116167" lon="13.478535"><ele>146.0</ele><time>2026-05-03T12:48:19.595Z</time></trkpt><trkpt lat="46.1115717" lon="13.4787217"><ele>143.75</ele><time>2026-05-03T12:48:20.596Z</time></trkpt><trkpt lat="46.1115367" lon="13.4789"><ele>141.5</ele><time>2026-05-03T12:48:21.593Z</time></trkpt><trkpt lat="46.1115083" lon="13.4790833"><ele>139.25</ele><time>2026-05-03T12:48:22.594Z</time></trkpt><trkpt lat="46.1114867" lon="13.4792817"><ele>137.0</ele><time>2026-05-03T12:48:23.594Z</time></trkpt><trkpt lat="46.1114817" lon="13.4794933"><ele>137.66666666666666</ele><time>2026-05-03T12:48:24.593Z</time></trkpt><trkpt lat="46.1114817" lon="13.4797183"><ele>138.33333333333334</ele><time>2026-05-03T12:48:25.595Z</time></trkpt><trkpt lat="46.1114917" lon="13.4799683"><ele>139.0</ele><time>2026-05-03T12:48:26.594Z</time></trkpt><trkpt lat="46.111505" lon="13.480245"><ele>138.33333333333334</ele><time>2026-05-03T12:48:27.594Z</time></trkpt><trkpt lat="46.1115167" lon="13.4805317"><ele>137.66666666666666</ele><time>2026-05-03T12:48:28.595Z</time></trkpt><trkpt lat="46.111505" lon="13.4808267"><ele>137.0</ele><time>2026-05-03T12:48:29.596Z</time></trkpt><trkpt lat="46.11149" lon="13.4811317"><ele>136.33333333333331</ele><time>2026-05-03T12:48:30.594Z</time></trkpt><trkpt lat="46.111495" lon="13.4814383"><ele>135.66666666666666</ele><time>2026-05-03T12:48:31.596Z</time></trkpt><trkpt lat="46.1115017" lon="13.4817433"><ele>135.0</ele><time>2026-05-03T12:48:32.594Z</time></trkpt><trkpt lat="46.1115067" lon="13.482035"><ele>135.66666666666666</ele><time>2026-05-03T12:48:33.595Z</time></trkpt><trkpt lat="46.111515" lon="13.4823033"><ele>136.33333333333331</ele><time>2026-05-03T12:48:34.595Z</time></trkpt><trkpt lat="46.1115317" lon="13.4825567"><ele>137.0</ele><time>2026-05-03T12:48:35.595Z</time></trkpt><trkpt lat="46.11158" lon="13.4827983"><ele>140.0</ele><time>2026-05-03T12:48:36.594Z</time></trkpt><trkpt lat="46.111655" lon="13.4830317"><ele>143.0</ele><time>2026-05-03T12:48:37.594Z</time></trkpt><trkpt lat="46.1117383" lon="13.4832567"><ele>146.0</ele><time>2026-05-03T12:48:38.594Z</time></trkpt><trkpt lat="46.1118117" lon="13.483485"><ele>146.0</ele><time>2026-05-03T12:48:39.594Z</time></trkpt><trkpt lat="46.1118867" lon="13.4837083"><ele>146.0</ele><time>2026-05-03T12:48:40.594Z</time></trkpt><trkpt lat="46.1119433" lon="13.4839317"><ele>146.0</ele><time>2026-05-03T12:48:41.595Z</time></trkpt><trkpt lat="46.1120367" lon="13.4841317"><ele>145.33333333333331</ele><time>2026-05-03T12:48:42.595Z</time></trkpt><trkpt lat="46.1121533" lon="13.48431"><ele>144.66666666666666</ele><time>2026-05-03T12:48:43.596Z</time></trkpt><trkpt lat="46.1122967" lon="13.48446"><ele>144.0</ele><time>2026-05-03T12:48:44.595Z</time></trkpt><trkpt lat="46.1124617" lon="13.4845917"><ele>145.0</ele><time>2026-05-03T12:48:45.594Z</time></trkpt><trkpt lat="46.11262" lon="13.48474"><ele>146.0</ele><time>2026-05-03T12:48:46.595Z</time></trkpt><trkpt lat="46.1127717" lon="13.4848883"><ele>147.0</ele><time>2026-05-03T12:48:47.596Z</time></trkpt><trkpt lat="46.1129233" lon="13.4850267"><ele>147.0</ele><time>2026-05-03T12:48:48.595Z</time></trkpt><trkpt lat="46.1130617" lon="13.4851783"><ele>147.0</ele><time>2026-05-03T12:48:49.595Z</time></trkpt><trkpt lat="46.113185" lon="13.4853417"><ele>147.0</ele><time>2026-05-03T12:48:50.597Z</time></trkpt><trkpt lat="46.1132933" lon="13.4855167"><ele>147.0</ele><time>2026-05-03T12:48:51.594Z</time></trkpt><trkpt lat="46.1133983" lon="13.485715"><ele>147.0</ele><time>2026-05-03T12:48:52.594Z</time></trkpt><trkpt lat="46.1135067" lon="13.4859167"><ele>147.0</ele><time>2026-05-03T12:48:53.594Z</time></trkpt><trkpt lat="46.113585" lon="13.4861533"><ele>146.0</ele><time>2026-05-03T12:48:54.595Z</time></trkpt><trkpt lat="46.11366" lon="13.4864033"><ele>145.0</ele><time>2026-05-03T12:48:55.595Z</time></trkpt><trkpt lat="46.1137467" lon="13.4866417"><ele>144.0</ele><time>2026-05-03T12:48:56.595Z</time></trkpt><trkpt lat="46.1138333" lon="13.4868767"><ele>143.33333333333334</ele><time>2026-05-03T12:48:57.594Z</time></trkpt><trkpt lat="46.113925" lon="13.4871"><ele>142.66666666666669</ele><time>2026-05-03T12:48:58.594Z</time></trkpt><trkpt lat="46.1140067" lon="13.4873167"><ele>142.0</ele><time>2026-05-03T12:48:59.595Z</time></trkpt><trkpt lat="46.11407" lon="13.4875317"><ele>145.33333333333334</ele><time>2026-05-03T12:49:00.595Z</time></trkpt><trkpt lat="46.11413" lon="13.487735"><ele>148.66666666666666</ele><time>2026-05-03T12:49:01.595Z</time></trkpt><trkpt lat="46.11417" lon="13.4879467"><ele>152.0</ele><time>2026-05-03T12:49:02.594Z</time></trkpt><trkpt lat="46.1141833" lon="13.48817"><ele>152.0</ele><time>2026-05-03T12:49:03.594Z</time></trkpt><trkpt lat="46.1142" lon="13.4884"><ele>152.0</ele><time>2026-05-03T12:49:04.594Z</time></trkpt><trkpt lat="46.114215" lon="13.4886333"><ele>152.0</ele><time>2026-05-03T12:49:05.594Z</time></trkpt><trkpt lat="46.1142433" lon="13.4888733"><ele>150.66666666666666</ele><time>2026-05-03T12:49:06.594Z</time></trkpt><trkpt lat="46.1142967" lon="13.48912"><ele>149.33333333333334</ele><time>2026-05-03T12:49:07.594Z</time></trkpt><trkpt lat="46.1143717" lon="13.4893733"><ele>148.0</ele><time>2026-05-03T12:49:08.596Z</time></trkpt><trkpt lat="46.1144367" lon="13.489635"><ele>146.66666666666669</ele><time>2026-05-03T12:49:09.594Z</time></trkpt><trkpt lat="46.11451" lon="13.4899067"><ele>145.33333333333334</ele><time>2026-05-03T12:49:10.594Z</time></trkpt><trkpt lat="46.1145983" lon="13.4901883"><ele>144.0</ele><time>2026-05-03T12:49:11.595Z</time></trkpt><trkpt lat="46.114695" lon="13.490465"><ele>143.33333333333334</ele><time>2026-05-03T12:49:12.595Z</time></trkpt><trkpt lat="46.1148033" lon="13.490725"><ele>142.66666666666669</ele><time>2026-05-03T12:49:13.594Z</time></trkpt><trkpt lat="46.1149133" lon="13.4909767"><ele>142.0</ele><time>2026-05-03T12:49:14.594Z</time></trkpt><trkpt lat="46.1150283" lon="13.4912067"><ele>143.66666666666669</ele><time>2026-05-03T12:49:15.595Z</time></trkpt><trkpt lat="46.1151317" lon="13.4914233"><ele>145.33333333333334</ele><time>2026-05-03T12:49:16.595Z</time></trkpt><trkpt lat="46.11523" lon="13.4916233"><ele>147.0</ele><time>2026-05-03T12:49:17.596Z</time></trkpt><trkpt lat="46.1153383" lon="13.4918"><ele>147.0</ele><time>2026-05-03T12:49:18.595Z</time></trkpt><trkpt lat="46.11544" lon="13.4919683"><ele>147.0</ele><time>2026-05-03T12:49:19.595Z</time></trkpt><trkpt lat="46.115575" lon="13.49209"><ele>147.0</ele><time>2026-05-03T12:49:20.595Z</time></trkpt><trkpt lat="46.1157317" lon="13.4921933"><ele>147.0</ele><time>2026-05-03T12:49:21.594Z</time></trkpt><trkpt lat="46.1158983" lon="13.492295"><ele>147.0</ele><time>2026-05-03T12:49:22.594Z</time></trkpt><trkpt lat="46.1160633" lon="13.4924117"><ele>147.0</ele><time>2026-05-03T12:49:23.594Z</time></trkpt><trkpt lat="46.1162333" lon="13.4925317"><ele>147.0</ele><time>2026-05-03T12:49:24.594Z</time></trkpt><trkpt lat="46.116415" lon="13.492625"><ele>147.0</ele><time>2026-05-03T12:49:25.596Z</time></trkpt><trkpt lat="46.1166033" lon="13.4927033"><ele>147.0</ele><time>2026-05-03T12:49:26.595Z</time></trkpt><trkpt lat="46.1167967" lon="13.49278"><ele>146.33333333333334</ele><time>2026-05-03T12:49:27.594Z</time></trkpt><trkpt lat="46.1169867" lon="13.49285"><ele>145.66666666666669</ele><time>2026-05-03T12:49:28.594Z</time></trkpt><trkpt lat="46.117175" lon="13.4929267"><ele>145.0</ele><time>2026-05-03T12:49:29.594Z</time></trkpt><trkpt lat="46.1173583" lon="13.492995"><ele>146.33333333333334</ele><time>2026-05-03T12:49:30.594Z</time></trkpt><trkpt lat="46.11754" lon="13.4930617"><ele>147.66666666666666</ele><time>2026-05-03T12:49:31.594Z</time></trkpt><trkpt lat="46.1177183" lon="13.4931333"><ele>149.0</ele><time>2026-05-03T12:49:32.595Z</time></trkpt><trkpt lat="46.1178933" lon="13.493195"><ele>149.0</ele><time>2026-05-03T12:49:33.594Z</time></trkpt><trkpt lat="46.1180533" lon="13.4932583"><ele>149.0</ele><time>2026-05-03T12:49:34.595Z</time></trkpt><trkpt lat="46.1182033" lon="13.4933033"><ele>149.0</ele><time>2026-05-03T12:49:35.594Z</time></trkpt><trkpt lat="46.1183417" lon="13.49336"><ele>149.25</ele><time>2026-05-03T12:49:36.594Z</time></trkpt><trkpt lat="46.1184733" lon="13.4934017"><ele>149.5</ele><time>2026-05-03T12:49:37.594Z</time></trkpt><trkpt lat="46.1185883" lon="13.4934533"><ele>149.75</ele><time>2026-05-03T12:49:38.594Z</time></trkpt><trkpt lat="46.1186883" lon="13.4935083"><ele>150.0</ele><time>2026-05-03T12:49:39.594Z</time></trkpt><trkpt lat="46.11877" lon="13.4935867"><ele>150.0</ele><time>2026-05-03T12:49:40.595Z</time></trkpt><trkpt lat="46.1188317" lon="13.4936883"><ele>150.0</ele><time>2026-05-03T12:49:41.594Z</time></trkpt><trkpt lat="46.1188617" lon="13.493815"><ele>150.0</ele><time>2026-05-03T12:49:42.594Z</time></trkpt><trkpt lat="46.1188517" lon="13.493955"><ele>150.0</ele><time>2026-05-03T12:49:43.595Z</time></trkpt><trkpt lat="46.1188067" lon="13.494095"><ele>150.0</ele><time>2026-05-03T12:49:44.596Z</time></trkpt><trkpt lat="46.1187267" lon="13.4942217"><ele>148.75</ele><time>2026-05-03T12:49:45.595Z</time></trkpt><trkpt lat="46.1186217" lon="13.4943383"><ele>147.5</ele><time>2026-05-03T12:49:46.597Z</time></trkpt><trkpt lat="46.1185217" lon="13.4944617"><ele>146.25</ele><time>2026-05-03T12:49:47.594Z</time></trkpt><trkpt lat="46.1184367" lon="13.4945917"><ele>145.0</ele><time>2026-05-03T12:49:48.595Z</time></trkpt><trkpt lat="46.11836" lon="13.494715"><ele>144.8</ele><time>2026-05-03T12:49:49.595Z</time></trkpt><trkpt lat="46.118285" lon="13.4948183"><ele>144.6</ele><time>2026-05-03T12:49:50.594Z</time></trkpt><trkpt lat="46.118225" lon="13.4948933"><ele>144.4</ele><time>2026-05-03T12:49:51.593Z</time></trkpt><trkpt lat="46.1181483" lon="13.4949767"><ele>144.2</ele><time>2026-05-03T12:49:53.594Z</time></trkpt><trkpt lat="46.1181017" lon="13.49489"><ele>144.0</ele><time>2026-05-03T12:49:55.595Z</time></trkpt><trkpt lat="46.1180667" lon="13.4947617"><ele>144.0</ele><time>2026-05-03T12:49:56.595Z</time></trkpt><trkpt lat="46.118025" lon="13.4946333"><ele>144.0</ele><time>2026-05-03T12:49:57.595Z</time></trkpt><trkpt lat="46.1179467" lon="13.4945183"><ele>144.0</ele><time>2026-05-03T12:49:58.594Z</time></trkpt><trkpt lat="46.11786" lon="13.4944083"><ele>144.0</ele><time>2026-05-03T12:49:59.594Z</time></trkpt><trkpt lat="46.117765" lon="13.4942883"><ele>144.0</ele><time>2026-05-03T12:50:00.594Z</time></trkpt><trkpt lat="46.1176683" lon="13.4941667"><ele>144.0</ele><time>2026-05-03T12:50:01.595Z</time></trkpt><trkpt lat="46.1175717" lon="13.4940533"><ele>144.0</ele><time>2026-05-03T12:50:02.593Z</time></trkpt><trkpt lat="46.11747" lon="13.4939467"><ele>144.0</ele><time>2026-05-03T12:50:03.594Z</time></trkpt><trkpt lat="46.1173717" lon="13.4938483"><ele>144.0</ele><time>2026-05-03T12:50:04.594Z</time></trkpt><trkpt lat="46.117275" lon="13.4937633"><ele>144.0</ele><time>2026-05-03T12:50:05.593Z</time></trkpt><trkpt lat="46.117175" lon="13.4936917"><ele>144.0</ele><time>2026-05-03T12:50:06.594Z</time></trkpt><trkpt lat="46.11707" lon="13.4936233"><ele>144.0</ele><time>2026-05-03T12:50:07.593Z</time></trkpt><trkpt lat="46.116965" lon="13.4935567"><ele>144.2</ele><time>2026-05-03T12:50:08.597Z</time></trkpt><trkpt lat="46.11686" lon="13.4934967"><ele>144.4</ele><time>2026-05-03T12:50:09.595Z</time></trkpt><trkpt lat="46.1167633" lon="13.4934467"><ele>144.6</ele><time>2026-05-03T12:50:10.593Z</time></trkpt><trkpt lat="46.1166633" lon="13.4934017"><ele>144.8</ele><time>2026-05-03T12:50:11.593Z</time></trkpt><trkpt lat="46.116575" lon="13.49336"><ele>145.0</ele><time>2026-05-03T12:50:12.594Z</time></trkpt><trkpt lat="46.1164933" lon="13.4933317"><ele>144.5</ele><time>2026-05-03T12:50:13.593Z</time></trkpt><trkpt lat="46.1164183" lon="13.4933183"><ele>144.0</ele><time>2026-05-03T12:50:14.594Z</time></trkpt><trkpt lat="46.1163433" lon="13.49331"><ele>143.5</ele><time>2026-05-03T12:50:15.594Z</time></trkpt><trkpt lat="46.11626" lon="13.4933017"><ele>143.0</ele><time>2026-05-03T12:50:16.593Z</time></trkpt><trkpt lat="46.1161667" lon="13.493295"><ele>142.5</ele><time>2026-05-03T12:50:17.594Z</time></trkpt><trkpt lat="46.1160717" lon="13.4932733"><ele>142.0</ele><time>2026-05-03T12:50:18.593Z</time></trkpt><trkpt lat="46.1159717" lon="13.493235"><ele>142.0</ele><time>2026-05-03T12:50:19.594Z</time></trkpt><trkpt lat="46.115865" lon="13.4931883"><ele>142.0</ele><time>2026-05-03T12:50:20.595Z</time></trkpt><trkpt lat="46.1157567" lon="13.4931383"><ele>142.0</ele><time>2026-05-03T12:50:21.594Z</time></trkpt><trkpt lat="46.11565" lon="13.4930883"><ele>142.0</ele><time>2026-05-03T12:50:22.594Z</time></trkpt><trkpt lat="46.1155583" lon="13.4930417"><ele>142.0</ele><time>2026-05-03T12:50:23.594Z</time></trkpt><trkpt lat="46.1154733" lon="13.493"><ele>141.66666666666669</ele><time>2026-05-03T12:50:24.593Z</time></trkpt><trkpt lat="46.1153833" lon="13.492995"><ele>141.33333333333334</ele><time>2026-05-03T12:50:25.594Z</time></trkpt><trkpt lat="46.1153067" lon="13.4930167"><ele>141.0</ele><time>2026-05-03T12:50:26.594Z</time></trkpt><trkpt lat="46.1152367" lon="13.4930633"><ele>140.66666666666666</ele><time>2026-05-03T12:50:27.594Z</time></trkpt><trkpt lat="46.1151867" lon="13.4931317"><ele>140.33333333333331</ele><time>2026-05-03T12:50:28.594Z</time></trkpt><trkpt lat="46.1151467" lon="13.4932217"><ele>140.0</ele><time>2026-05-03T12:50:29.594Z</time></trkpt><trkpt lat="46.11511" lon="13.4933283"><ele>140.0</ele><time>2026-05-03T12:50:30.594Z</time></trkpt><trkpt lat="46.1150667" lon="13.493445"><ele>140.0</ele><time>2026-05-03T12:50:31.595Z</time></trkpt><trkpt lat="46.1150167" lon="13.4935567"><ele>140.0</ele><time>2026-05-03T12:50:32.676Z</time></trkpt><trkpt lat="46.1149583" lon="13.4936433"><ele>140.0</ele><time>2026-05-03T12:50:33.594Z</time></trkpt><trkpt lat="46.1148883" lon="13.493715"><ele>140.0</ele><time>2026-05-03T12:50:34.594Z</time></trkpt><trkpt lat="46.114815" lon="13.4937767"><ele>140.0</ele><time>2026-05-03T12:50:35.594Z</time></trkpt><trkpt lat="46.1147517" lon="13.4938333"><ele>139.5</ele><time>2026-05-03T12:50:36.595Z</time></trkpt><trkpt lat="46.11469" lon="13.4939217"><ele>139.0</ele><time>2026-05-03T12:50:38.595Z</time></trkpt><trkpt lat="46.1147083" lon="13.4940333"><ele>138.5</ele><time>2026-05-03T12:50:40.594Z</time></trkpt><trkpt lat="46.11473" lon="13.49418"><ele>138.0</ele><time>2026-05-03T12:50:42.594Z</time></trkpt><trkpt lat="46.1147483" lon="13.4942683"><ele>137.5</ele><time>2026-05-03T12:50:43.594Z</time></trkpt><trkpt lat="46.1147733" lon="13.4943567"><ele>137.0</ele><time>2026-05-03T12:50:44.594Z</time></trkpt><trkpt lat="46.1147983" lon="13.49446"><ele>137.0</ele><time>2026-05-03T12:50:45.593Z</time></trkpt><trkpt lat="46.1148117" lon="13.4945617"><ele>137.0</ele><time>2026-05-03T12:50:46.595Z</time></trkpt><trkpt lat="46.1148183" lon="13.49466"><ele>137.0</ele><time>2026-05-03T12:50:47.593Z</time></trkpt><trkpt lat="46.1148267" lon="13.4947567"><ele>137.0</ele><time>2026-05-03T12:50:48.593Z</time></trkpt><trkpt lat="46.1148517" lon="13.4949283"><ele>137.0</ele><time>2026-05-03T12:50:50.594Z</time></trkpt><trkpt lat="46.1148617" lon="13.4950583"><ele>137.0</ele><time>2026-05-03T12:50:52.594Z</time></trkpt><trkpt lat="46.11489" lon="13.4951517"><ele>137.57142857142858</ele><time>2026-05-03T12:50:54.594Z</time></trkpt><trkpt lat="46.1149083" lon="13.49524"><ele>138.14285714285714</ele><time>2026-05-03T12:50:56.595Z</time></trkpt><trkpt lat="46.1149083" lon="13.495345"><ele>138.71428571428572</ele><time>2026-05-03T12:50:59.595Z</time></trkpt><trkpt lat="46.1149" lon="13.4954467"><ele>139.28571428571428</ele><time>2026-05-03T12:51:02.594Z</time></trkpt><trkpt lat="46.1148633" lon="13.4955483"><ele>139.85714285714286</ele><time>2026-05-03T12:51:04.595Z</time></trkpt><trkpt lat="46.1148267" lon="13.4956333"><ele>140.42857142857144</ele><time>2026-05-03T12:51:06.595Z</time></trkpt><trkpt lat="46.114805" lon="13.495735"><ele>141.0</ele><time>2026-05-03T12:51:09.594Z</time></trkpt><trkpt lat="46.1147983" lon="13.4958533"><ele>141.0</ele><time>2026-05-03T12:51:11.594Z</time></trkpt><trkpt lat="46.11478" lon="13.495995"><ele>141.0</ele><time>2026-05-03T12:51:13.594Z</time></trkpt><trkpt lat="46.1147767" lon="13.4961183"><ele>141.0</ele><time>2026-05-03T12:51:15.593Z</time></trkpt><trkpt lat="46.1147717" lon="13.4962267"><ele>141.0</ele><time>2026-05-03T12:51:17.595Z</time></trkpt><trkpt lat="46.1147567" lon="13.4963367"><ele>141.0</ele><time>2026-05-03T12:51:20.594Z</time></trkpt><trkpt lat="46.1147515" lon="13.4964767"><ele>141.0</ele><time>2026-05-03T12:51:24.624Z</time></trkpt><trkpt lat="46.1147353" lon="13.4965792"><ele>141.0</ele><time>2026-05-03T12:51:26.668Z</time></trkpt><trkpt lat="46.114715" lon="13.4967017"><ele>141.0</ele><time>2026-05-03T12:51:28.594Z</time></trkpt><trkpt lat="46.1147133" lon="13.49681"><ele>141.0</ele><time>2026-05-03T12:51:31.593Z</time></trkpt><trkpt lat="46.114665" lon="13.4969417"><ele>141.0</ele><time>2026-05-03T12:51:53.595Z</time></trkpt><trkpt lat="46.114645" lon="13.49705"><ele>141.0</ele><time>2026-05-03T12:51:56.595Z</time></trkpt><trkpt lat="46.1146283" lon="13.4971567"><ele>141.0</ele><time>2026-05-03T12:51:58.595Z</time></trkpt><trkpt lat="46.11461" lon="13.4973517"><ele>141.0</ele><time>2026-05-03T12:52:11.596Z</time></trkpt><trkpt lat="46.1146217" lon="13.4974617"><ele>141.0</ele><time>2026-05-03T12:52:13.594Z</time></trkpt><trkpt lat="46.1146017" lon="13.49761"><ele>141.0</ele><time>2026-05-03T12:52:16.594Z</time></trkpt><trkpt lat="46.1145783" lon="13.4977517"><ele>141.0</ele><time>2026-05-03T12:52:18.594Z</time></trkpt><trkpt lat="46.11459" lon="13.4978817"><ele>141.0</ele><time>2026-05-03T12:52:20.595Z</time></trkpt><trkpt lat="46.114595" lon="13.4980183"><ele>141.0</ele><time>2026-05-03T12:52:22.593Z</time></trkpt><trkpt lat="46.114575" lon="13.4981883"><ele>141.0</ele><time>2026-05-03T12:52:24.593Z</time></trkpt><trkpt lat="46.1145633" lon="13.49829"><ele>141.0</ele><time>2026-05-03T12:52:25.595Z</time></trkpt><trkpt lat="46.1145533" lon="13.4983933"><ele>141.0</ele><time>2026-05-03T12:52:26.594Z</time></trkpt><trkpt lat="46.1145383" lon="13.4985033"><ele>141.0</ele><time>2026-05-03T12:52:27.594Z</time></trkpt><trkpt lat="46.1145267" lon="13.4986167"><ele>141.0</ele><time>2026-05-03T12:52:28.594Z</time></trkpt><trkpt lat="46.1145133" lon="13.4987267"><ele>141.0</ele><time>2026-05-03T12:52:29.595Z</time></trkpt><trkpt lat="46.1145017" lon="13.498835"><ele>141.0</ele><time>2026-05-03T12:52:30.596Z</time></trkpt><trkpt lat="46.1144933" lon="13.49893"><ele>141.0</ele><time>2026-05-03T12:52:31.595Z</time></trkpt><trkpt lat="46.1145017" lon="13.4990717"><ele>141.0</ele><time>2026-05-03T12:52:33.593Z</time></trkpt><trkpt lat="46.114525" lon="13.49918"><ele>141.0</ele><time>2026-05-03T12:52:35.595Z</time></trkpt><trkpt lat="46.11451" lon="13.499315"><ele>141.0</ele><time>2026-05-03T12:52:38.594Z</time></trkpt><trkpt lat="46.1144633" lon="13.49945"><ele>141.0</ele><time>2026-05-03T12:52:40.595Z</time></trkpt><trkpt lat="46.11443" lon="13.49954"><ele>141.0</ele><time>2026-05-03T12:52:41.596Z</time></trkpt><trkpt lat="46.1144117" lon="13.4996283"><ele>141.0</ele><time>2026-05-03T12:52:42.594Z</time></trkpt><trkpt lat="46.1143983" lon="13.4997383"><ele>141.0</ele><time>2026-05-03T12:52:43.595Z</time></trkpt><trkpt lat="46.1143883" lon="13.4998617"><ele>141.0</ele><time>2026-05-03T12:52:44.594Z</time></trkpt><trkpt lat="46.1143717" lon="13.5000133"><ele>141.0</ele><time>2026-05-03T12:52:45.594Z</time></trkpt><trkpt lat="46.114355" lon="13.5001783"><ele>141.5</ele><time>2026-05-03T12:52:46.594Z</time></trkpt><trkpt lat="46.114335" lon="13.500355"><ele>142.0</ele><time>2026-05-03T12:52:47.595Z</time></trkpt><trkpt lat="46.11432" lon="13.50053"><ele>142.5</ele><time>2026-05-03T12:52:48.594Z</time></trkpt><trkpt lat="46.1142933" lon="13.50073"><ele>143.0</ele><time>2026-05-03T12:52:49.596Z</time></trkpt><trkpt lat="46.1142683" lon="13.5009317"><ele>143.75</ele><time>2026-05-03T12:52:50.595Z</time></trkpt><trkpt lat="46.1142417" lon="13.50113"><ele>144.5</ele><time>2026-05-03T12:52:51.594Z</time></trkpt><trkpt lat="46.11421" lon="13.5013217"><ele>145.25</ele><time>2026-05-03T12:52:52.593Z</time></trkpt><trkpt lat="46.1141717" lon="13.5015233"><ele>146.0</ele><time>2026-05-03T12:52:53.594Z</time></trkpt><trkpt lat="46.1141417" lon="13.50171"><ele>146.25</ele><time>2026-05-03T12:52:54.593Z</time></trkpt><trkpt lat="46.11411" lon="13.5018967"><ele>146.5</ele><time>2026-05-03T12:52:55.594Z</time></trkpt><trkpt lat="46.114075" lon="13.5020767"><ele>146.75</ele><time>2026-05-03T12:52:56.599Z</time></trkpt><trkpt lat="46.1140383" lon="13.5022633"><ele>147.0</ele><time>2026-05-03T12:52:57.593Z</time></trkpt><trkpt lat="46.114" lon="13.50246"><ele>147.5</ele><time>2026-05-03T12:52:58.595Z</time></trkpt><trkpt lat="46.1139633" lon="13.5026567"><ele>148.0</ele><time>2026-05-03T12:52:59.595Z</time></trkpt><trkpt lat="46.1139283" lon="13.5028467"><ele>148.5</ele><time>2026-05-03T12:53:00.595Z</time></trkpt><trkpt lat="46.1138917" lon="13.50304"><ele>149.0</ele><time>2026-05-03T12:53:01.594Z</time></trkpt><trkpt lat="46.1138567" lon="13.5032367"><ele>147.5</ele><time>2026-05-03T12:53:02.595Z</time></trkpt><trkpt lat="46.1138183" lon="13.503435"><ele>146.0</ele><time>2026-05-03T12:53:03.593Z</time></trkpt><trkpt lat="46.1137817" lon="13.5036267"><ele>144.5</ele><time>2026-05-03T12:53:04.595Z</time></trkpt><trkpt lat="46.11375" lon="13.5038183"><ele>143.0</ele><time>2026-05-03T12:53:05.594Z</time></trkpt><trkpt lat="46.1137233" lon="13.5040017"><ele>143.0</ele><time>2026-05-03T12:53:06.595Z</time></trkpt><trkpt lat="46.1136967" lon="13.50419"><ele>143.0</ele><time>2026-05-03T12:53:07.595Z</time></trkpt><trkpt lat="46.113675" lon="13.5043733"><ele>143.0</ele><time>2026-05-03T12:53:08.595Z</time></trkpt><trkpt lat="46.1136633" lon="13.50456"><ele>143.0</ele><time>2026-05-03T12:53:09.596Z</time></trkpt><trkpt lat="46.1136583" lon="13.5047617"><ele>143.0</ele><time>2026-05-03T12:53:10.594Z</time></trkpt><trkpt lat="46.1136617" lon="13.504965"><ele>143.0</ele><time>2026-05-03T12:53:11.596Z</time></trkpt><trkpt lat="46.1136617" lon="13.5051767"><ele>143.0</ele><time>2026-05-03T12:53:12.593Z</time></trkpt><trkpt lat="46.1136698" lon="13.5053697"><ele>143.0</ele><time>2026-05-03T12:53:13.594Z</time></trkpt><trkpt lat="46.1136805" lon="13.5055713"><ele>143.5</ele><time>2026-05-03T12:53:14.595Z</time></trkpt><trkpt lat="46.1136951" lon="13.5057724"><ele>144.0</ele><time>2026-05-03T12:53:15.593Z</time></trkpt><trkpt lat="46.1137088" lon="13.5059811"><ele>144.5</ele><time>2026-05-03T12:53:16.595Z</time></trkpt><trkpt lat="46.1137239" lon="13.5061929"><ele>145.0</ele><time>2026-05-03T12:53:17.595Z</time></trkpt><trkpt lat="46.1137399" lon="13.5064041"><ele>146.25</ele><time>2026-05-03T12:53:18.594Z</time></trkpt><trkpt lat="46.1137548" lon="13.5066112"><ele>147.5</ele><time>2026-05-03T12:53:19.594Z</time></trkpt><trkpt lat="46.1137707" lon="13.5068067"><ele>148.75</ele><time>2026-05-03T12:53:20.594Z</time></trkpt><trkpt lat="46.1137886" lon="13.5069952"><ele>150.0</ele><time>2026-05-03T12:53:21.593Z</time></trkpt><trkpt lat="46.1138137" lon="13.5071769"><ele>151.25</ele><time>2026-05-03T12:53:22.596Z</time></trkpt><trkpt lat="46.1138473" lon="13.5073506"><ele>152.5</ele><time>2026-05-03T12:53:23.595Z</time></trkpt><trkpt lat="46.1138898" lon="13.50752"><ele>153.75</ele><time>2026-05-03T12:53:24.595Z</time></trkpt><trkpt lat="46.113939" lon="13.5076771"><ele>155.0</ele><time>2026-05-03T12:53:25.594Z</time></trkpt><trkpt lat="46.113995" lon="13.5078284"><ele>155.0</ele><time>2026-05-03T12:53:26.594Z</time></trkpt><trkpt lat="46.1140562" lon="13.5079747"><ele>155.0</ele><time>2026-05-03T12:53:27.594Z</time></trkpt><trkpt lat="46.1141187" lon="13.508114"><ele>155.0</ele><time>2026-05-03T12:53:28.594Z</time></trkpt><trkpt lat="46.1141809" lon="13.5082393"><ele>155.0</ele><time>2026-05-03T12:53:29.595Z</time></trkpt><trkpt lat="46.1142385" lon="13.5083511"><ele>155.0</ele><time>2026-05-03T12:53:30.594Z</time></trkpt><trkpt lat="46.1142918" lon="13.5084451"><ele>153.4</ele><time>2026-05-03T12:53:31.594Z</time></trkpt><trkpt lat="46.1143337" lon="13.5085296"><ele>151.8</ele><time>2026-05-03T12:53:32.595Z</time></trkpt><trkpt lat="46.1143811" lon="13.5086422"><ele>150.2</ele><time>2026-05-03T12:53:34.595Z</time></trkpt><trkpt lat="46.1143069" lon="13.508776"><ele>148.6</ele><time>2026-05-03T12:53:37.595Z</time></trkpt><trkpt lat="46.1142385" lon="13.5088641"><ele>147.0</ele><time>2026-05-03T12:53:38.595Z</time></trkpt><trkpt lat="46.1141572" lon="13.5089636"><ele>149.2</ele><time>2026-05-03T12:53:39.594Z</time></trkpt><trkpt lat="46.1140704" lon="13.5090704"><ele>151.39999999999998</ele><time>2026-05-03T12:53:40.593Z</time></trkpt><trkpt lat="46.1139855" lon="13.5091656"><ele>153.60000000000002</ele><time>2026-05-03T12:53:41.594Z</time></trkpt><trkpt lat="46.1139097" lon="13.5092425"><ele>155.8</ele><time>2026-05-03T12:53:42.594Z</time></trkpt><trkpt lat="46.1138419" lon="13.5093095"><ele>158.0</ele><time>2026-05-03T12:53:43.594Z</time></trkpt><trkpt lat="46.1137855" lon="13.5093707"><ele>158.0</ele><time>2026-05-03T12:53:44.594Z</time></trkpt><trkpt lat="46.1137301" lon="13.5095116"><ele>158.0</ele><time>2026-05-03T12:53:46.594Z</time></trkpt><trkpt lat="46.1137265" lon="13.5096041"><ele>158.0</ele><time>2026-05-03T12:53:47.594Z</time></trkpt><trkpt lat="46.1137353" lon="13.5097149"><ele>158.0</ele><time>2026-05-03T12:53:48.595Z</time></trkpt><trkpt lat="46.1137478" lon="13.5098486"><ele>158.0</ele><time>2026-05-03T12:53:49.594Z</time></trkpt><trkpt lat="46.1137624" lon="13.5100062"><ele>159.0</ele><time>2026-05-03T12:53:50.595Z</time></trkpt><trkpt lat="46.1137789" lon="13.5101834"><ele>160.0</ele><time>2026-05-03T12:53:51.594Z</time></trkpt><trkpt lat="46.1137964" lon="13.5103807"><ele>161.0</ele><time>2026-05-03T12:53:52.594Z</time></trkpt><trkpt lat="46.1138138" lon="13.5105869"><ele>162.0</ele><time>2026-05-03T12:53:53.594Z</time></trkpt><trkpt lat="46.1138281" lon="13.5107865"><ele>162.0</ele><time>2026-05-03T12:53:54.594Z</time></trkpt><trkpt lat="46.1138406" lon="13.510972"><ele>162.0</ele><time>2026-05-03T12:53:55.595Z</time></trkpt><trkpt lat="46.11385" lon="13.5111514"><ele>162.0</ele><time>2026-05-03T12:53:56.595Z</time></trkpt><trkpt lat="46.1138518" lon="13.5113231"><ele>162.0</ele><time>2026-05-03T12:53:57.595Z</time></trkpt><trkpt lat="46.1138441" lon="13.5114827"><ele>162.2</ele><time>2026-05-03T12:53:58.594Z</time></trkpt><trkpt lat="46.1138331" lon="13.5116211"><ele>162.39999999999998</ele><time>2026-05-03T12:53:59.595Z</time></trkpt><trkpt lat="46.1138288" lon="13.5117465"><ele>162.60000000000002</ele><time>2026-05-03T12:54:00.594Z</time></trkpt><trkpt lat="46.113835" lon="13.5118654"><ele>162.8</ele><time>2026-05-03T12:54:01.594Z</time></trkpt><trkpt lat="46.1138487" lon="13.5119939"><ele>163.0</ele><time>2026-05-03T12:54:02.595Z</time></trkpt><trkpt lat="46.113881" lon="13.5121505"><ele>166.25</ele><time>2026-05-03T12:54:03.594Z</time></trkpt><trkpt lat="46.1139226" lon="13.5123159"><ele>169.5</ele><time>2026-05-03T12:54:04.594Z</time></trkpt><trkpt lat="46.1139631" lon="13.5124703"><ele>172.75</ele><time>2026-05-03T12:54:05.595Z</time></trkpt><trkpt lat="46.1139993" lon="13.5126167"><ele>176.0</ele><time>2026-05-03T12:54:06.595Z</time></trkpt><trkpt lat="46.1140255" lon="13.5127728"><ele>172.5</ele><time>2026-05-03T12:54:07.596Z</time></trkpt><trkpt lat="46.1140465" lon="13.5129359"><ele>169.0</ele><time>2026-05-03T12:54:08.594Z</time></trkpt><trkpt lat="46.1140659" lon="13.5131009"><ele>165.5</ele><time>2026-05-03T12:54:09.595Z</time></trkpt><trkpt lat="46.1140884" lon="13.5132651"><ele>162.0</ele><time>2026-05-03T12:54:10.595Z</time></trkpt><trkpt lat="46.1141126" lon="13.5134229"><ele>162.0</ele><time>2026-05-03T12:54:11.594Z</time></trkpt><trkpt lat="46.1141494" lon="13.5135666"><ele>162.0</ele><time>2026-05-03T12:54:12.595Z</time></trkpt><trkpt lat="46.1141904" lon="13.5136961"><ele>162.0</ele><time>2026-05-03T12:54:13.595Z</time></trkpt><trkpt lat="46.1142182" lon="13.513822"><ele>162.0</ele><time>2026-05-03T12:54:14.594Z</time></trkpt><trkpt lat="46.114241" lon="13.5139476"><ele>162.0</ele><time>2026-05-03T12:54:15.594Z</time></trkpt><trkpt lat="46.1142653" lon="13.5140741"><ele>162.6</ele><time>2026-05-03T12:54:16.594Z</time></trkpt><trkpt lat="46.114291" lon="13.5142097"><ele>163.2</ele><time>2026-05-03T12:54:17.595Z</time></trkpt><trkpt lat="46.1143232" lon="13.5143463"><ele>163.8</ele><time>2026-05-03T12:54:18.594Z</time></trkpt><trkpt lat="46.1143542" lon="13.5144861"><ele>164.4</ele><time>2026-05-03T12:54:19.595Z</time></trkpt><trkpt lat="46.1143817" lon="13.5146417"><ele>165.0</ele><time>2026-05-03T12:54:20.599Z</time></trkpt><trkpt lat="46.1143983" lon="13.5148017"><ele>165.8</ele><time>2026-05-03T12:54:21.593Z</time></trkpt><trkpt lat="46.1144067" lon="13.514965"><ele>166.6</ele><time>2026-05-03T12:54:22.594Z</time></trkpt><trkpt lat="46.1144217" lon="13.5151117"><ele>167.39999999999998</ele><time>2026-05-03T12:54:23.595Z</time></trkpt><trkpt lat="46.1144333" lon="13.515245"><ele>168.2</ele><time>2026-05-03T12:54:24.594Z</time></trkpt><trkpt lat="46.1144367" lon="13.5153767"><ele>169.0</ele><time>2026-05-03T12:54:25.595Z</time></trkpt><trkpt lat="46.114435" lon="13.5155067"><ele>169.6</ele><time>2026-05-03T12:54:26.596Z</time></trkpt><trkpt lat="46.114435" lon="13.5156233"><ele>170.2</ele><time>2026-05-03T12:54:27.595Z</time></trkpt><trkpt lat="46.1144583" lon="13.51579"><ele>170.79999999999998</ele><time>2026-05-03T12:54:29.595Z</time></trkpt><trkpt lat="46.11448" lon="13.5158933"><ele>171.39999999999998</ele><time>2026-05-03T12:54:30.595Z</time></trkpt><trkpt lat="46.1145033" lon="13.5160017"><ele>172.0</ele><time>2026-05-03T12:54:31.595Z</time></trkpt><trkpt lat="46.114545" lon="13.5161367"><ele>172.0</ele><time>2026-05-03T12:54:32.595Z</time></trkpt><trkpt lat="46.1145983" lon="13.5162817"><ele>172.0</ele><time>2026-05-03T12:54:33.595Z</time></trkpt><trkpt lat="46.1146583" lon="13.51642"><ele>172.0</ele><time>2026-05-03T12:54:34.596Z</time></trkpt><trkpt lat="46.11473" lon="13.5165483"><ele>172.0</ele><time>2026-05-03T12:54:35.596Z</time></trkpt><trkpt lat="46.114795" lon="13.516675"><ele>172.0</ele><time>2026-05-03T12:54:36.596Z</time></trkpt><trkpt lat="46.1148683" lon="13.51679"><ele>172.0</ele><time>2026-05-03T12:54:37.595Z</time></trkpt><trkpt lat="46.114935" lon="13.5169017"><ele>172.0</ele><time>2026-05-03T12:54:38.594Z</time></trkpt><trkpt lat="46.1149917" lon="13.5170133"><ele>172.0</ele><time>2026-05-03T12:54:39.594Z</time></trkpt><trkpt lat="46.1150533" lon="13.5171233"><ele>172.0</ele><time>2026-05-03T12:54:40.593Z</time></trkpt><trkpt lat="46.1151233" lon="13.5172383"><ele>168.0</ele><time>2026-05-03T12:54:41.594Z</time></trkpt><trkpt lat="46.115195" lon="13.517365"><ele>164.0</ele><time>2026-05-03T12:54:42.594Z</time></trkpt><trkpt lat="46.1152733" lon="13.5174867"><ele>160.0</ele><time>2026-05-03T12:54:43.593Z</time></trkpt><trkpt lat="46.1153483" lon="13.517605"><ele>156.0</ele><time>2026-05-03T12:54:44.594Z</time></trkpt><trkpt lat="46.11542" lon="13.5177233"><ele>152.0</ele><time>2026-05-03T12:54:45.593Z</time></trkpt><trkpt lat="46.1154833" lon="13.5178217"><ele>151.79999999999998</ele><time>2026-05-03T12:54:46.595Z</time></trkpt><trkpt lat="46.1155517" lon="13.5179067"><ele>151.6</ele><time>2026-05-03T12:54:47.594Z</time></trkpt><trkpt lat="46.1156317" lon="13.5179917"><ele>151.39999999999998</ele><time>2026-05-03T12:54:48.593Z</time></trkpt><trkpt lat="46.1157167" lon="13.51807"><ele>151.2</ele><time>2026-05-03T12:54:49.593Z</time></trkpt><trkpt lat="46.1158117" lon="13.5181583"><ele>151.0</ele><time>2026-05-03T12:54:50.594Z</time></trkpt><trkpt lat="46.1159133" lon="13.51823"><ele>151.0</ele><time>2026-05-03T12:54:51.593Z</time></trkpt><trkpt lat="46.11602" lon="13.518305"><ele>151.0</ele><time>2026-05-03T12:54:52.594Z</time></trkpt><trkpt lat="46.11613" lon="13.5183833"><ele>151.0</ele><time>2026-05-03T12:54:53.595Z</time></trkpt><trkpt lat="46.1162217" lon="13.518485"><ele>151.0</ele><time>2026-05-03T12:54:54.594Z</time></trkpt><trkpt lat="46.1163133" lon="13.51859"><ele>151.0</ele><time>2026-05-03T12:54:55.593Z</time></trkpt><trkpt lat="46.1164067" lon="13.5187083"><ele>151.0</ele><time>2026-05-03T12:54:56.593Z</time></trkpt><trkpt lat="46.1165083" lon="13.5188333"><ele>151.0</ele><time>2026-05-03T12:54:57.592Z</time></trkpt><trkpt lat="46.116615" lon="13.5189383"><ele>151.0</ele><time>2026-05-03T12:54:58.593Z</time></trkpt><trkpt lat="46.1167183" lon="13.51904"><ele>151.75</ele><time>2026-05-03T12:54:59.593Z</time></trkpt><trkpt lat="46.1168167" lon="13.51913"><ele>152.5</ele><time>2026-05-03T12:55:00.593Z</time></trkpt><trkpt lat="46.1169183" lon="13.5192317"><ele>153.25</ele><time>2026-05-03T12:55:01.593Z</time></trkpt><trkpt lat="46.11701" lon="13.51933"><ele>154.0</ele><time>2026-05-03T12:55:02.595Z</time></trkpt><trkpt lat="46.117095" lon="13.519425"><ele>154.0</ele><time>2026-05-03T12:55:03.593Z</time></trkpt><trkpt lat="46.1171683" lon="13.5195133"><ele>154.0</ele><time>2026-05-03T12:55:04.594Z</time></trkpt><trkpt lat="46.1172383" lon="13.5195983"><ele>154.0</ele><time>2026-05-03T12:55:05.594Z</time></trkpt><trkpt lat="46.11729" lon="13.519685"><ele>154.0</ele><time>2026-05-03T12:55:06.594Z</time></trkpt><trkpt lat="46.1173317" lon="13.5197717"><ele>154.0</ele><time>2026-05-03T12:55:07.593Z</time></trkpt><trkpt lat="46.1173667" lon="13.5198817"><ele>154.0</ele><time>2026-05-03T12:55:08.594Z</time></trkpt><trkpt lat="46.1173983" lon="13.5199933"><ele>153.8</ele><time>2026-05-03T12:55:09.593Z</time></trkpt><trkpt lat="46.1174183" lon="13.5201167"><ele>153.60000000000002</ele><time>2026-05-03T12:55:10.594Z</time></trkpt><trkpt lat="46.1174467" lon="13.5202467"><ele>153.4</ele><time>2026-05-03T12:55:11.594Z</time></trkpt><trkpt lat="46.11749" lon="13.5203717"><ele>153.20000000000002</ele><time>2026-05-03T12:55:12.594Z</time></trkpt><trkpt lat="46.11755" lon="13.5204917"><ele>153.0</ele><time>2026-05-03T12:55:13.593Z</time></trkpt><trkpt lat="46.1176183" lon="13.52061"><ele>153.0</ele><time>2026-05-03T12:55:14.593Z</time></trkpt><trkpt lat="46.11769" lon="13.5207133"><ele>153.0</ele><time>2026-05-03T12:55:15.594Z</time></trkpt><trkpt lat="46.1177667" lon="13.5207983"><ele>153.0</ele><time>2026-05-03T12:55:16.593Z</time></trkpt><trkpt lat="46.11784" lon="13.52087"><ele>153.0</ele><time>2026-05-03T12:55:17.595Z</time></trkpt><trkpt lat="46.117905" lon="13.5209283"><ele>153.0</ele><time>2026-05-03T12:55:18.595Z</time></trkpt><trkpt lat="46.11797" lon="13.5209783"><ele>153.0</ele><time>2026-05-03T12:55:19.593Z</time></trkpt><trkpt lat="46.1180317" lon="13.5210317"><ele>153.0</ele><time>2026-05-03T12:55:20.594Z</time></trkpt><trkpt lat="46.1180917" lon="13.52109"><ele>153.0</ele><time>2026-05-03T12:55:21.594Z</time></trkpt><trkpt lat="46.1181383" lon="13.5211583"><ele>153.0</ele><time>2026-05-03T12:55:22.594Z</time></trkpt><trkpt lat="46.1181717" lon="13.5212417"><ele>153.0</ele><time>2026-05-03T12:55:23.594Z</time></trkpt><trkpt lat="46.1181567" lon="13.5214283"><ele>153.0</ele><time>2026-05-03T12:55:25.593Z</time></trkpt><trkpt lat="46.1181267" lon="13.5215283"><ele>153.0</ele><time>2026-05-03T12:55:26.593Z</time></trkpt><trkpt lat="46.1181" lon="13.52163"><ele>153.0</ele><time>2026-05-03T12:55:27.594Z</time></trkpt><trkpt lat="46.1180867" lon="13.52172"><ele>153.0</ele><time>2026-05-03T12:55:28.593Z</time></trkpt><trkpt lat="46.118115" lon="13.521845"><ele>153.0</ele><time>2026-05-03T12:55:30.594Z</time></trkpt><trkpt lat="46.11823" lon="13.5218667"><ele>153.0</ele><time>2026-05-03T12:55:32.596Z</time></trkpt><trkpt lat="46.1183117" lon="13.521875"><ele>153.0</ele><time>2026-05-03T12:55:33.594Z</time></trkpt><trkpt lat="46.1184083" lon="13.5219"><ele>153.0</ele><time>2026-05-03T12:55:34.594Z</time></trkpt><trkpt lat="46.11854" lon="13.5219683"><ele>153.0</ele><time>2026-05-03T12:55:35.593Z</time></trkpt><trkpt lat="46.118675" lon="13.522045"><ele>153.0</ele><time>2026-05-03T12:55:36.593Z</time></trkpt><trkpt lat="46.11881" lon="13.5221167"><ele>153.0</ele><time>2026-05-03T12:55:37.593Z</time></trkpt><trkpt lat="46.1189367" lon="13.5221733"><ele>153.0</ele><time>2026-05-03T12:55:38.597Z</time></trkpt><trkpt lat="46.1190517" lon="13.52222"><ele>153.0</ele><time>2026-05-03T12:55:39.594Z</time></trkpt><trkpt lat="46.11916" lon="13.5222583"><ele>153.0</ele><time>2026-05-03T12:55:40.593Z</time></trkpt><trkpt lat="46.1192717" lon="13.5222733"><ele>153.0</ele><time>2026-05-03T12:55:41.595Z</time></trkpt><trkpt lat="46.119385" lon="13.52225"><ele>153.4</ele><time>2026-05-03T12:55:42.594Z</time></trkpt><trkpt lat="46.11949" lon="13.5222267"><ele>153.8</ele><time>2026-05-03T12:55:43.593Z</time></trkpt><trkpt lat="46.1195783" lon="13.5222717"><ele>154.2</ele><time>2026-05-03T12:55:44.596Z</time></trkpt><trkpt lat="46.1196483" lon="13.522375"><ele>154.6</ele><time>2026-05-03T12:55:45.593Z</time></trkpt><trkpt lat="46.1197133" lon="13.5224983"><ele>155.0</ele><time>2026-05-03T12:55:46.593Z</time></trkpt><trkpt lat="46.11979" lon="13.52262"><ele>155.0</ele><time>2026-05-03T12:55:47.594Z</time></trkpt><trkpt lat="46.1198683" lon="13.522755"><ele>155.0</ele><time>2026-05-03T12:55:48.594Z</time></trkpt><trkpt lat="46.1199383" lon="13.5228867"><ele>155.0</ele><time>2026-05-03T12:55:49.678Z</time></trkpt><trkpt lat="46.1199983" lon="13.5230067"><ele>155.0</ele><time>2026-05-03T12:55:50.595Z</time></trkpt><trkpt lat="46.12005" lon="13.5231133"><ele>155.0</ele><time>2026-05-03T12:55:51.594Z</time></trkpt><trkpt lat="46.1201" lon="13.5232083"><ele>155.0</ele><time>2026-05-03T12:55:52.594Z</time></trkpt><trkpt lat="46.120145" lon="13.5233117"><ele>155.0</ele><time>2026-05-03T12:55:53.595Z</time></trkpt><trkpt lat="46.12019" lon="13.5234117"><ele>155.0</ele><time>2026-05-03T12:55:54.593Z</time></trkpt><trkpt lat="46.12023" lon="13.5234967"><ele>155.0</ele><time>2026-05-03T12:55:55.595Z</time></trkpt><trkpt lat="46.1202833" lon="13.52364"><ele>155.0</ele><time>2026-05-03T12:55:57.594Z</time></trkpt><trkpt lat="46.120265" lon="13.523765"><ele>155.0</ele><time>2026-05-03T12:55:59.594Z</time></trkpt><trkpt lat="46.120225" lon="13.52389"><ele>155.0</ele><time>2026-05-03T12:56:01.593Z</time></trkpt><trkpt lat="46.1202017" lon="13.5239967"><ele>155.0</ele><time>2026-05-03T12:56:03.594Z</time></trkpt><trkpt lat="46.1201933" lon="13.52412"><ele>155.0</ele><time>2026-05-03T12:56:06.595Z</time></trkpt><trkpt lat="46.1201633" lon="13.5243067"><ele>155.0</ele><time>2026-05-03T12:57:40.597Z</time></trkpt><trkpt lat="46.1200833" lon="13.5243033"><ele>155.0</ele><time>2026-05-03T12:57:44.594Z</time></trkpt><trkpt lat="46.1200817" lon="13.5242067"><ele>155.0</ele><time>2026-05-03T12:57:47.595Z</time></trkpt></trkseg></trk></gpx>